<?xml version="1.0" encoding="UTF-8" standalone="no" ?>
<gpx xmlns="http://www.topografix.com/GPX/1/1" xmlns:xsi="http://www.w3.org/2001/XMLSchema-instance" xsi:schemaLocation="http://www.topografix.com/GPX/1/1 http://www.topografix.com/GPX/1/1/gpx.xsd" version="1.1" creator="VisuGPX - https://www.visugpx.com">
  <metadata>
    <name>Pointe de la Galoppaz et Pic de la Sauge</name>
  </metadata>
  <trk>
    <name><![CDATA[Pointe de la Galoppaz et Pic de la Sauge_1]]></name>
    <trkseg>
      <trkpt lat="45.54273" lon="6.04357">
        <ele>893</ele>
        <time>2021-06-27T09:17:46.069Z</time>
      </trkpt>
      <trkpt lat="45.54273" lon="6.04357">
        <ele>893</ele>
        <time>2021-06-27T09:17:47.071Z</time>
      </trkpt>
      <trkpt lat="45.54274" lon="6.04357">
        <ele>893</ele>
        <time>2021-06-27T09:17:48.071Z</time>
      </trkpt>
      <trkpt lat="45.54274" lon="6.04357">
        <ele>892</ele>
        <time>2021-06-27T09:17:49.071Z</time>
      </trkpt>
      <trkpt lat="45.54275" lon="6.04357">
        <ele>892</ele>
        <time>2021-06-27T09:17:50.070Z</time>
      </trkpt>
      <trkpt lat="45.54276" lon="6.04356">
        <ele>892</ele>
        <time>2021-06-27T09:17:51.070Z</time>
      </trkpt>
      <trkpt lat="45.54276" lon="6.04356">
        <ele>892</ele>
        <time>2021-06-27T09:17:52.070Z</time>
      </trkpt>
      <trkpt lat="45.54277" lon="6.04355">
        <ele>892</ele>
        <time>2021-06-27T09:17:53.071Z</time>
      </trkpt>
      <trkpt lat="45.54278" lon="6.04355">
        <ele>892</ele>
        <time>2021-06-27T09:17:54.071Z</time>
      </trkpt>
      <trkpt lat="45.54279" lon="6.04355">
        <ele>892</ele>
        <time>2021-06-27T09:17:55.071Z</time>
      </trkpt>
      <trkpt lat="45.5428" lon="6.04355">
        <ele>892</ele>
        <time>2021-06-27T09:17:56.070Z</time>
      </trkpt>
      <trkpt lat="45.54281" lon="6.04355">
        <ele>892</ele>
        <time>2021-06-27T09:17:57.070Z</time>
      </trkpt>
      <trkpt lat="45.54282" lon="6.04354">
        <ele>891</ele>
        <time>2021-06-27T09:17:58.071Z</time>
      </trkpt>
      <trkpt lat="45.54284" lon="6.04354">
        <ele>891</ele>
        <time>2021-06-27T09:17:59.071Z</time>
      </trkpt>
      <trkpt lat="45.54285" lon="6.04354">
        <ele>891</ele>
        <time>2021-06-27T09:18:00.071Z</time>
      </trkpt>
      <trkpt lat="45.54286" lon="6.04354">
        <ele>891</ele>
        <time>2021-06-27T09:18:01.071Z</time>
      </trkpt>
      <trkpt lat="45.54286" lon="6.04354">
        <ele>891</ele>
        <time>2021-06-27T09:18:02.071Z</time>
      </trkpt>
      <trkpt lat="45.54287" lon="6.04353">
        <ele>891</ele>
        <time>2021-06-27T09:18:03.071Z</time>
      </trkpt>
      <trkpt lat="45.54288" lon="6.04353">
        <ele>891</ele>
        <time>2021-06-27T09:18:04.071Z</time>
      </trkpt>
      <trkpt lat="45.54289" lon="6.04353">
        <ele>891</ele>
        <time>2021-06-27T09:18:05.071Z</time>
      </trkpt>
      <trkpt lat="45.5429" lon="6.04353">
        <ele>891</ele>
        <time>2021-06-27T09:18:06.071Z</time>
      </trkpt>
      <trkpt lat="45.54291" lon="6.04353">
        <ele>892</ele>
        <time>2021-06-27T09:18:07.071Z</time>
      </trkpt>
      <trkpt lat="45.54293" lon="6.04354">
        <ele>892</ele>
        <time>2021-06-27T09:18:08.071Z</time>
      </trkpt>
      <trkpt lat="45.54294" lon="6.04354">
        <ele>892</ele>
        <time>2021-06-27T09:18:09.071Z</time>
      </trkpt>
      <trkpt lat="45.54295" lon="6.04354">
        <ele>891</ele>
        <time>2021-06-27T09:18:10.071Z</time>
      </trkpt>
      <trkpt lat="45.54296" lon="6.04355">
        <ele>891</ele>
        <time>2021-06-27T09:18:11.071Z</time>
      </trkpt>
      <trkpt lat="45.54297" lon="6.04356">
        <ele>891</ele>
        <time>2021-06-27T09:18:12.070Z</time>
      </trkpt>
      <trkpt lat="45.54298" lon="6.04356">
        <ele>890</ele>
        <time>2021-06-27T09:18:13.071Z</time>
      </trkpt>
      <trkpt lat="45.54299" lon="6.04358">
        <ele>890</ele>
        <time>2021-06-27T09:18:14.071Z</time>
      </trkpt>
      <trkpt lat="45.543" lon="6.04359">
        <ele>890</ele>
        <time>2021-06-27T09:18:15.071Z</time>
      </trkpt>
      <trkpt lat="45.54301" lon="6.0436">
        <ele>890</ele>
        <time>2021-06-27T09:18:16.071Z</time>
      </trkpt>
      <trkpt lat="45.54302" lon="6.04361">
        <ele>890</ele>
        <time>2021-06-27T09:18:17.071Z</time>
      </trkpt>
      <trkpt lat="45.54303" lon="6.04362">
        <ele>890</ele>
        <time>2021-06-27T09:18:18.071Z</time>
      </trkpt>
      <trkpt lat="45.54303" lon="6.04363">
        <ele>890</ele>
        <time>2021-06-27T09:18:19.070Z</time>
      </trkpt>
      <trkpt lat="45.54304" lon="6.04364">
        <ele>890</ele>
        <time>2021-06-27T09:18:20.071Z</time>
      </trkpt>
      <trkpt lat="45.54305" lon="6.04365">
        <ele>890</ele>
        <time>2021-06-27T09:18:21.071Z</time>
      </trkpt>
      <trkpt lat="45.54306" lon="6.04367">
        <ele>891</ele>
        <time>2021-06-27T09:18:22.070Z</time>
      </trkpt>
      <trkpt lat="45.54307" lon="6.04368">
        <ele>891</ele>
        <time>2021-06-27T09:18:23.070Z</time>
      </trkpt>
      <trkpt lat="45.54308" lon="6.04369">
        <ele>891</ele>
        <time>2021-06-27T09:18:24.071Z</time>
      </trkpt>
      <trkpt lat="45.54309" lon="6.0437">
        <ele>891</ele>
        <time>2021-06-27T09:18:25.071Z</time>
      </trkpt>
      <trkpt lat="45.5431" lon="6.04371">
        <ele>891</ele>
        <time>2021-06-27T09:18:26.071Z</time>
      </trkpt>
      <trkpt lat="45.54311" lon="6.04372">
        <ele>892</ele>
        <time>2021-06-27T09:18:27.070Z</time>
      </trkpt>
      <trkpt lat="45.54312" lon="6.04373">
        <ele>892</ele>
        <time>2021-06-27T09:18:28.071Z</time>
      </trkpt>
      <trkpt lat="45.54314" lon="6.04374">
        <ele>892</ele>
        <time>2021-06-27T09:18:29.071Z</time>
      </trkpt>
      <trkpt lat="45.54315" lon="6.04375">
        <ele>892</ele>
        <time>2021-06-27T09:18:30.071Z</time>
      </trkpt>
      <trkpt lat="45.54316" lon="6.04376">
        <ele>892</ele>
        <time>2021-06-27T09:18:31.071Z</time>
      </trkpt>
      <trkpt lat="45.54317" lon="6.04376">
        <ele>892</ele>
        <time>2021-06-27T09:18:32.071Z</time>
      </trkpt>
      <trkpt lat="45.54318" lon="6.04377">
        <ele>892</ele>
        <time>2021-06-27T09:18:33.070Z</time>
      </trkpt>
      <trkpt lat="45.54319" lon="6.04378">
        <ele>892</ele>
        <time>2021-06-27T09:18:34.071Z</time>
      </trkpt>
      <trkpt lat="45.5432" lon="6.0438">
        <ele>892</ele>
        <time>2021-06-27T09:18:35.071Z</time>
      </trkpt>
      <trkpt lat="45.54321" lon="6.04381">
        <ele>892</ele>
        <time>2021-06-27T09:18:36.070Z</time>
      </trkpt>
      <trkpt lat="45.54322" lon="6.04382">
        <ele>892</ele>
        <time>2021-06-27T09:18:37.071Z</time>
      </trkpt>
      <trkpt lat="45.54324" lon="6.04383">
        <ele>892</ele>
        <time>2021-06-27T09:18:38.071Z</time>
      </trkpt>
      <trkpt lat="45.54325" lon="6.04384">
        <ele>893</ele>
        <time>2021-06-27T09:18:39.070Z</time>
      </trkpt>
      <trkpt lat="45.54325" lon="6.04385">
        <ele>893</ele>
        <time>2021-06-27T09:18:40.070Z</time>
      </trkpt>
      <trkpt lat="45.54326" lon="6.04386">
        <ele>893</ele>
        <time>2021-06-27T09:18:41.071Z</time>
      </trkpt>
      <trkpt lat="45.54326" lon="6.04387">
        <ele>893</ele>
        <time>2021-06-27T09:18:42.071Z</time>
      </trkpt>
      <trkpt lat="45.54327" lon="6.04388">
        <ele>893</ele>
        <time>2021-06-27T09:18:43.071Z</time>
      </trkpt>
      <trkpt lat="45.54328" lon="6.04389">
        <ele>893</ele>
        <time>2021-06-27T09:18:44.071Z</time>
      </trkpt>
      <trkpt lat="45.5433" lon="6.0439">
        <ele>894</ele>
        <time>2021-06-27T09:18:45.071Z</time>
      </trkpt>
      <trkpt lat="45.54331" lon="6.04391">
        <ele>894</ele>
        <time>2021-06-27T09:18:46.071Z</time>
      </trkpt>
      <trkpt lat="45.54332" lon="6.04392">
        <ele>894</ele>
        <time>2021-06-27T09:18:47.071Z</time>
      </trkpt>
      <trkpt lat="45.54333" lon="6.04393">
        <ele>894</ele>
        <time>2021-06-27T09:18:48.071Z</time>
      </trkpt>
      <trkpt lat="45.54334" lon="6.04394">
        <ele>894</ele>
        <time>2021-06-27T09:18:49.071Z</time>
      </trkpt>
      <trkpt lat="45.54335" lon="6.04395">
        <ele>894</ele>
        <time>2021-06-27T09:18:50.070Z</time>
      </trkpt>
      <trkpt lat="45.54335" lon="6.04397">
        <ele>894</ele>
        <time>2021-06-27T09:18:51.071Z</time>
      </trkpt>
      <trkpt lat="45.54336" lon="6.04398">
        <ele>894</ele>
        <time>2021-06-27T09:18:52.071Z</time>
      </trkpt>
      <trkpt lat="45.54336" lon="6.044">
        <ele>895</ele>
        <time>2021-06-27T09:18:53.071Z</time>
      </trkpt>
      <trkpt lat="45.54336" lon="6.04402">
        <ele>895</ele>
        <time>2021-06-27T09:18:54.071Z</time>
      </trkpt>
      <trkpt lat="45.54336" lon="6.04405">
        <ele>896</ele>
        <time>2021-06-27T09:18:55.070Z</time>
      </trkpt>
      <trkpt lat="45.54337" lon="6.04406">
        <ele>897</ele>
        <time>2021-06-27T09:18:56.070Z</time>
      </trkpt>
      <trkpt lat="45.54338" lon="6.04407">
        <ele>897</ele>
        <time>2021-06-27T09:18:57.070Z</time>
      </trkpt>
      <trkpt lat="45.54339" lon="6.04408">
        <ele>897</ele>
        <time>2021-06-27T09:18:58.071Z</time>
      </trkpt>
      <trkpt lat="45.54339" lon="6.04409">
        <ele>897</ele>
        <time>2021-06-27T09:18:59.071Z</time>
      </trkpt>
      <trkpt lat="45.5434" lon="6.0441">
        <ele>897</ele>
        <time>2021-06-27T09:19:00.071Z</time>
      </trkpt>
      <trkpt lat="45.5434" lon="6.04411">
        <ele>897</ele>
        <time>2021-06-27T09:19:01.071Z</time>
      </trkpt>
      <trkpt lat="45.5434" lon="6.04412">
        <ele>896</ele>
        <time>2021-06-27T09:19:02.070Z</time>
      </trkpt>
      <trkpt lat="45.54341" lon="6.04414">
        <ele>896</ele>
        <time>2021-06-27T09:19:03.071Z</time>
      </trkpt>
      <trkpt lat="45.54341" lon="6.04415">
        <ele>896</ele>
        <time>2021-06-27T09:19:04.071Z</time>
      </trkpt>
      <trkpt lat="45.54341" lon="6.04416">
        <ele>896</ele>
        <time>2021-06-27T09:19:05.070Z</time>
      </trkpt>
      <trkpt lat="45.54342" lon="6.04417">
        <ele>895</ele>
        <time>2021-06-27T09:19:06.071Z</time>
      </trkpt>
      <trkpt lat="45.54342" lon="6.04419">
        <ele>895</ele>
        <time>2021-06-27T09:19:07.071Z</time>
      </trkpt>
      <trkpt lat="45.54342" lon="6.0442">
        <ele>895</ele>
        <time>2021-06-27T09:19:08.071Z</time>
      </trkpt>
      <trkpt lat="45.54343" lon="6.04422">
        <ele>895</ele>
        <time>2021-06-27T09:19:09.071Z</time>
      </trkpt>
      <trkpt lat="45.54343" lon="6.04423">
        <ele>895</ele>
        <time>2021-06-27T09:19:10.071Z</time>
      </trkpt>
      <trkpt lat="45.54344" lon="6.04424">
        <ele>895</ele>
        <time>2021-06-27T09:19:11.071Z</time>
      </trkpt>
      <trkpt lat="45.54345" lon="6.04426">
        <ele>895</ele>
        <time>2021-06-27T09:19:12.071Z</time>
      </trkpt>
      <trkpt lat="45.54347" lon="6.04428">
        <ele>895</ele>
        <time>2021-06-27T09:19:13.070Z</time>
      </trkpt>
      <trkpt lat="45.54348" lon="6.04429">
        <ele>895</ele>
        <time>2021-06-27T09:19:14.071Z</time>
      </trkpt>
      <trkpt lat="45.54348" lon="6.04431">
        <ele>894</ele>
        <time>2021-06-27T09:19:15.071Z</time>
      </trkpt>
      <trkpt lat="45.54348" lon="6.04433">
        <ele>894</ele>
        <time>2021-06-27T09:19:16.071Z</time>
      </trkpt>
      <trkpt lat="45.54349" lon="6.04434">
        <ele>894</ele>
        <time>2021-06-27T09:19:17.070Z</time>
      </trkpt>
      <trkpt lat="45.54349" lon="6.04435">
        <ele>894</ele>
        <time>2021-06-27T09:19:18.070Z</time>
      </trkpt>
      <trkpt lat="45.5435" lon="6.04437">
        <ele>894</ele>
        <time>2021-06-27T09:19:19.071Z</time>
      </trkpt>
      <trkpt lat="45.5435" lon="6.04438">
        <ele>894</ele>
        <time>2021-06-27T09:19:20.071Z</time>
      </trkpt>
      <trkpt lat="45.54351" lon="6.04439">
        <ele>894</ele>
        <time>2021-06-27T09:19:21.071Z</time>
      </trkpt>
      <trkpt lat="45.54351" lon="6.04441">
        <ele>894</ele>
        <time>2021-06-27T09:19:22.071Z</time>
      </trkpt>
      <trkpt lat="45.54352" lon="6.04443">
        <ele>894</ele>
        <time>2021-06-27T09:19:23.071Z</time>
      </trkpt>
      <trkpt lat="45.54352" lon="6.04444">
        <ele>895</ele>
        <time>2021-06-27T09:19:24.071Z</time>
      </trkpt>
      <trkpt lat="45.54353" lon="6.04446">
        <ele>895</ele>
        <time>2021-06-27T09:19:25.071Z</time>
      </trkpt>
      <trkpt lat="45.54353" lon="6.04447">
        <ele>895</ele>
        <time>2021-06-27T09:19:26.071Z</time>
      </trkpt>
      <trkpt lat="45.54353" lon="6.04449">
        <ele>896</ele>
        <time>2021-06-27T09:19:27.071Z</time>
      </trkpt>
      <trkpt lat="45.54354" lon="6.0445">
        <ele>896</ele>
        <time>2021-06-27T09:19:28.071Z</time>
      </trkpt>
      <trkpt lat="45.54355" lon="6.04452">
        <ele>897</ele>
        <time>2021-06-27T09:19:29.071Z</time>
      </trkpt>
      <trkpt lat="45.54356" lon="6.04454">
        <ele>897</ele>
        <time>2021-06-27T09:19:30.071Z</time>
      </trkpt>
      <trkpt lat="45.54357" lon="6.04455">
        <ele>897</ele>
        <time>2021-06-27T09:19:31.070Z</time>
      </trkpt>
      <trkpt lat="45.54357" lon="6.04456">
        <ele>896</ele>
        <time>2021-06-27T09:19:32.071Z</time>
      </trkpt>
      <trkpt lat="45.54358" lon="6.04456">
        <ele>896</ele>
        <time>2021-06-27T09:19:33.071Z</time>
      </trkpt>
      <trkpt lat="45.54359" lon="6.04458">
        <ele>896</ele>
        <time>2021-06-27T09:19:34.071Z</time>
      </trkpt>
      <trkpt lat="45.5436" lon="6.04459">
        <ele>896</ele>
        <time>2021-06-27T09:19:35.070Z</time>
      </trkpt>
      <trkpt lat="45.54361" lon="6.0446">
        <ele>896</ele>
        <time>2021-06-27T09:19:36.071Z</time>
      </trkpt>
      <trkpt lat="45.54361" lon="6.0446">
        <ele>896</ele>
        <time>2021-06-27T09:19:37.071Z</time>
      </trkpt>
      <trkpt lat="45.54361" lon="6.04461">
        <ele>896</ele>
        <time>2021-06-27T09:19:38.070Z</time>
      </trkpt>
      <trkpt lat="45.54362" lon="6.04461">
        <ele>897</ele>
        <time>2021-06-27T09:19:39.070Z</time>
      </trkpt>
      <trkpt lat="45.54362" lon="6.04462">
        <ele>897</ele>
        <time>2021-06-27T09:19:40.071Z</time>
      </trkpt>
      <trkpt lat="45.54363" lon="6.04463">
        <ele>897</ele>
        <time>2021-06-27T09:19:41.070Z</time>
      </trkpt>
      <trkpt lat="45.54363" lon="6.04463">
        <ele>897</ele>
        <time>2021-06-27T09:19:42.070Z</time>
      </trkpt>
      <trkpt lat="45.54364" lon="6.04464">
        <ele>897</ele>
        <time>2021-06-27T09:19:43.070Z</time>
      </trkpt>
      <trkpt lat="45.54365" lon="6.04465">
        <ele>897</ele>
        <time>2021-06-27T09:19:44.070Z</time>
      </trkpt>
      <trkpt lat="45.54365" lon="6.04465">
        <ele>897</ele>
        <time>2021-06-27T09:19:45.071Z</time>
      </trkpt>
      <trkpt lat="45.54366" lon="6.04466">
        <ele>898</ele>
        <time>2021-06-27T09:19:46.071Z</time>
      </trkpt>
      <trkpt lat="45.54366" lon="6.04467">
        <ele>898</ele>
        <time>2021-06-27T09:19:47.070Z</time>
      </trkpt>
      <trkpt lat="45.54367" lon="6.04468">
        <ele>898</ele>
        <time>2021-06-27T09:19:48.071Z</time>
      </trkpt>
      <trkpt lat="45.54367" lon="6.04469">
        <ele>898</ele>
        <time>2021-06-27T09:19:49.071Z</time>
      </trkpt>
      <trkpt lat="45.54368" lon="6.04469">
        <ele>899</ele>
        <time>2021-06-27T09:19:50.071Z</time>
      </trkpt>
      <trkpt lat="45.54368" lon="6.0447">
        <ele>899</ele>
        <time>2021-06-27T09:19:51.070Z</time>
      </trkpt>
      <trkpt lat="45.54368" lon="6.04471">
        <ele>899</ele>
        <time>2021-06-27T09:19:52.071Z</time>
      </trkpt>
      <trkpt lat="45.54369" lon="6.04472">
        <ele>899</ele>
        <time>2021-06-27T09:19:53.071Z</time>
      </trkpt>
      <trkpt lat="45.5437" lon="6.04473">
        <ele>899</ele>
        <time>2021-06-27T09:19:54.071Z</time>
      </trkpt>
      <trkpt lat="45.54371" lon="6.04474">
        <ele>899</ele>
        <time>2021-06-27T09:19:55.071Z</time>
      </trkpt>
      <trkpt lat="45.54372" lon="6.04475">
        <ele>899</ele>
        <time>2021-06-27T09:19:56.071Z</time>
      </trkpt>
      <trkpt lat="45.54372" lon="6.04476">
        <ele>899</ele>
        <time>2021-06-27T09:19:57.071Z</time>
      </trkpt>
      <trkpt lat="45.54372" lon="6.04477">
        <ele>899</ele>
        <time>2021-06-27T09:19:58.071Z</time>
      </trkpt>
      <trkpt lat="45.54372" lon="6.04476">
        <ele>899</ele>
        <time>2021-06-27T09:19:59.071Z</time>
      </trkpt>
      <trkpt lat="45.54373" lon="6.04477">
        <ele>899</ele>
        <time>2021-06-27T09:20:00.071Z</time>
      </trkpt>
      <trkpt lat="45.54373" lon="6.04477">
        <ele>899</ele>
        <time>2021-06-27T09:20:01.071Z</time>
      </trkpt>
      <trkpt lat="45.54374" lon="6.04478">
        <ele>900</ele>
        <time>2021-06-27T09:20:02.071Z</time>
      </trkpt>
      <trkpt lat="45.54376" lon="6.0448">
        <ele>900</ele>
        <time>2021-06-27T09:20:03.070Z</time>
      </trkpt>
      <trkpt lat="45.54377" lon="6.04481">
        <ele>900</ele>
        <time>2021-06-27T09:20:04.071Z</time>
      </trkpt>
      <trkpt lat="45.54378" lon="6.04483">
        <ele>900</ele>
        <time>2021-06-27T09:20:05.071Z</time>
      </trkpt>
      <trkpt lat="45.54379" lon="6.04485">
        <ele>900</ele>
        <time>2021-06-27T09:20:06.071Z</time>
      </trkpt>
      <trkpt lat="45.5438" lon="6.04485">
        <ele>900</ele>
        <time>2021-06-27T09:20:07.071Z</time>
      </trkpt>
      <trkpt lat="45.5438" lon="6.04486">
        <ele>901</ele>
        <time>2021-06-27T09:20:08.071Z</time>
      </trkpt>
      <trkpt lat="45.54381" lon="6.04487">
        <ele>901</ele>
        <time>2021-06-27T09:20:09.071Z</time>
      </trkpt>
      <trkpt lat="45.54382" lon="6.04488">
        <ele>901</ele>
        <time>2021-06-27T09:20:10.070Z</time>
      </trkpt>
      <trkpt lat="45.54383" lon="6.04489">
        <ele>902</ele>
        <time>2021-06-27T09:20:11.070Z</time>
      </trkpt>
      <trkpt lat="45.54383" lon="6.0449">
        <ele>902</ele>
        <time>2021-06-27T09:20:12.071Z</time>
      </trkpt>
      <trkpt lat="45.54384" lon="6.04491">
        <ele>902</ele>
        <time>2021-06-27T09:20:13.071Z</time>
      </trkpt>
      <trkpt lat="45.54386" lon="6.04492">
        <ele>902</ele>
        <time>2021-06-27T09:20:14.071Z</time>
      </trkpt>
      <trkpt lat="45.54387" lon="6.04494">
        <ele>903</ele>
        <time>2021-06-27T09:20:15.071Z</time>
      </trkpt>
      <trkpt lat="45.54388" lon="6.04495">
        <ele>903</ele>
        <time>2021-06-27T09:20:16.071Z</time>
      </trkpt>
      <trkpt lat="45.54389" lon="6.04496">
        <ele>903</ele>
        <time>2021-06-27T09:20:17.071Z</time>
      </trkpt>
      <trkpt lat="45.5439" lon="6.04496">
        <ele>903</ele>
        <time>2021-06-27T09:20:18.070Z</time>
      </trkpt>
      <trkpt lat="45.5439" lon="6.04497">
        <ele>903</ele>
        <time>2021-06-27T09:20:19.071Z</time>
      </trkpt>
      <trkpt lat="45.5439" lon="6.04498">
        <ele>903</ele>
        <time>2021-06-27T09:20:20.071Z</time>
      </trkpt>
      <trkpt lat="45.5439" lon="6.04499">
        <ele>903</ele>
        <time>2021-06-27T09:20:21.071Z</time>
      </trkpt>
      <trkpt lat="45.5439" lon="6.04499">
        <ele>903</ele>
        <time>2021-06-27T09:20:22.071Z</time>
      </trkpt>
      <trkpt lat="45.5439" lon="6.04499">
        <ele>904</ele>
        <time>2021-06-27T09:20:23.071Z</time>
      </trkpt>
      <trkpt lat="45.5439" lon="6.04498">
        <ele>904</ele>
        <time>2021-06-27T09:20:24.071Z</time>
      </trkpt>
      <trkpt lat="45.5439" lon="6.04498">
        <ele>904</ele>
        <time>2021-06-27T09:20:25.070Z</time>
      </trkpt>
      <trkpt lat="45.5439" lon="6.04499">
        <ele>904</ele>
        <time>2021-06-27T09:20:26.071Z</time>
      </trkpt>
      <trkpt lat="45.54391" lon="6.04499">
        <ele>903</ele>
        <time>2021-06-27T09:20:27.070Z</time>
      </trkpt>
      <trkpt lat="45.54392" lon="6.045">
        <ele>903</ele>
        <time>2021-06-27T09:20:28.071Z</time>
      </trkpt>
      <trkpt lat="45.54392" lon="6.045">
        <ele>903</ele>
        <time>2021-06-27T09:20:29.070Z</time>
      </trkpt>
      <trkpt lat="45.54393" lon="6.04501">
        <ele>903</ele>
        <time>2021-06-27T09:20:30.071Z</time>
      </trkpt>
      <trkpt lat="45.54394" lon="6.04502">
        <ele>903</ele>
        <time>2021-06-27T09:20:31.071Z</time>
      </trkpt>
      <trkpt lat="45.54394" lon="6.04503">
        <ele>903</ele>
        <time>2021-06-27T09:20:32.071Z</time>
      </trkpt>
      <trkpt lat="45.54395" lon="6.04503">
        <ele>903</ele>
        <time>2021-06-27T09:20:33.071Z</time>
      </trkpt>
      <trkpt lat="45.54396" lon="6.04505">
        <ele>903</ele>
        <time>2021-06-27T09:20:34.071Z</time>
      </trkpt>
      <trkpt lat="45.54396" lon="6.04507">
        <ele>903</ele>
        <time>2021-06-27T09:20:35.071Z</time>
      </trkpt>
      <trkpt lat="45.54396" lon="6.04508">
        <ele>904</ele>
        <time>2021-06-27T09:20:36.070Z</time>
      </trkpt>
      <trkpt lat="45.54397" lon="6.0451">
        <ele>904</ele>
        <time>2021-06-27T09:20:37.071Z</time>
      </trkpt>
      <trkpt lat="45.54398" lon="6.04511">
        <ele>904</ele>
        <time>2021-06-27T09:20:38.071Z</time>
      </trkpt>
      <trkpt lat="45.54398" lon="6.04513">
        <ele>904</ele>
        <time>2021-06-27T09:20:39.071Z</time>
      </trkpt>
      <trkpt lat="45.54398" lon="6.04514">
        <ele>904</ele>
        <time>2021-06-27T09:20:40.071Z</time>
      </trkpt>
      <trkpt lat="45.54398" lon="6.04514">
        <ele>904</ele>
        <time>2021-06-27T09:20:41.071Z</time>
      </trkpt>
      <trkpt lat="45.54399" lon="6.04517">
        <ele>904</ele>
        <time>2021-06-27T09:20:42.070Z</time>
      </trkpt>
      <trkpt lat="45.544" lon="6.04519">
        <ele>904</ele>
        <time>2021-06-27T09:20:43.071Z</time>
      </trkpt>
      <trkpt lat="45.54401" lon="6.04522">
        <ele>904</ele>
        <time>2021-06-27T09:20:44.071Z</time>
      </trkpt>
      <trkpt lat="45.54401" lon="6.04524">
        <ele>904</ele>
        <time>2021-06-27T09:20:45.070Z</time>
      </trkpt>
      <trkpt lat="45.54401" lon="6.04526">
        <ele>904</ele>
        <time>2021-06-27T09:20:46.071Z</time>
      </trkpt>
      <trkpt lat="45.54401" lon="6.04527">
        <ele>904</ele>
        <time>2021-06-27T09:20:47.071Z</time>
      </trkpt>
      <trkpt lat="45.544" lon="6.04528">
        <ele>904</ele>
        <time>2021-06-27T09:20:48.071Z</time>
      </trkpt>
      <trkpt lat="45.544" lon="6.04528">
        <ele>904</ele>
        <time>2021-06-27T09:20:49.071Z</time>
      </trkpt>
      <trkpt lat="45.54399" lon="6.0453">
        <ele>904</ele>
        <time>2021-06-27T09:20:50.071Z</time>
      </trkpt>
      <trkpt lat="45.54399" lon="6.04531">
        <ele>904</ele>
        <time>2021-06-27T09:20:51.070Z</time>
      </trkpt>
      <trkpt lat="45.54399" lon="6.04534">
        <ele>904</ele>
        <time>2021-06-27T09:20:52.071Z</time>
      </trkpt>
      <trkpt lat="45.54399" lon="6.04536">
        <ele>904</ele>
        <time>2021-06-27T09:20:53.071Z</time>
      </trkpt>
      <trkpt lat="45.54399" lon="6.04537">
        <ele>904</ele>
        <time>2021-06-27T09:20:54.071Z</time>
      </trkpt>
      <trkpt lat="45.54399" lon="6.04538">
        <ele>904</ele>
        <time>2021-06-27T09:20:55.071Z</time>
      </trkpt>
      <trkpt lat="45.54398" lon="6.04537">
        <ele>904</ele>
        <time>2021-06-27T09:20:56.071Z</time>
      </trkpt>
      <trkpt lat="45.54397" lon="6.04537">
        <ele>904</ele>
        <time>2021-06-27T09:20:57.071Z</time>
      </trkpt>
      <trkpt lat="45.54396" lon="6.04537">
        <ele>904</ele>
        <time>2021-06-27T09:20:58.071Z</time>
      </trkpt>
      <trkpt lat="45.54395" lon="6.04537">
        <ele>904</ele>
        <time>2021-06-27T09:20:59.071Z</time>
      </trkpt>
      <trkpt lat="45.54395" lon="6.04537">
        <ele>904</ele>
        <time>2021-06-27T09:21:00.071Z</time>
      </trkpt>
      <trkpt lat="45.54394" lon="6.04538">
        <ele>904</ele>
        <time>2021-06-27T09:21:01.070Z</time>
      </trkpt>
      <trkpt lat="45.54394" lon="6.04539">
        <ele>904</ele>
        <time>2021-06-27T09:21:02.071Z</time>
      </trkpt>
      <trkpt lat="45.54393" lon="6.04541">
        <ele>904</ele>
        <time>2021-06-27T09:21:03.071Z</time>
      </trkpt>
      <trkpt lat="45.54392" lon="6.04542">
        <ele>904</ele>
        <time>2021-06-27T09:21:04.071Z</time>
      </trkpt>
      <trkpt lat="45.54391" lon="6.04544">
        <ele>904</ele>
        <time>2021-06-27T09:21:05.070Z</time>
      </trkpt>
      <trkpt lat="45.54391" lon="6.04545">
        <ele>904</ele>
        <time>2021-06-27T09:21:06.070Z</time>
      </trkpt>
      <trkpt lat="45.5439" lon="6.04546">
        <ele>904</ele>
        <time>2021-06-27T09:21:07.071Z</time>
      </trkpt>
      <trkpt lat="45.5439" lon="6.04547">
        <ele>905</ele>
        <time>2021-06-27T09:21:08.071Z</time>
      </trkpt>
      <trkpt lat="45.54389" lon="6.04547">
        <ele>905</ele>
        <time>2021-06-27T09:21:09.071Z</time>
      </trkpt>
      <trkpt lat="45.54389" lon="6.04548">
        <ele>905</ele>
        <time>2021-06-27T09:21:10.071Z</time>
      </trkpt>
      <trkpt lat="45.54388" lon="6.04549">
        <ele>905</ele>
        <time>2021-06-27T09:21:11.070Z</time>
      </trkpt>
      <trkpt lat="45.54388" lon="6.04549">
        <ele>905</ele>
        <time>2021-06-27T09:21:12.071Z</time>
      </trkpt>
      <trkpt lat="45.54388" lon="6.0455">
        <ele>905</ele>
        <time>2021-06-27T09:21:13.070Z</time>
      </trkpt>
      <trkpt lat="45.54388" lon="6.0455">
        <ele>905</ele>
        <time>2021-06-27T09:21:14.071Z</time>
      </trkpt>
      <trkpt lat="45.54388" lon="6.04552">
        <ele>905</ele>
        <time>2021-06-27T09:21:15.070Z</time>
      </trkpt>
      <trkpt lat="45.54387" lon="6.04553">
        <ele>905</ele>
        <time>2021-06-27T09:21:16.070Z</time>
      </trkpt>
      <trkpt lat="45.54387" lon="6.04553">
        <ele>905</ele>
        <time>2021-06-27T09:21:17.071Z</time>
      </trkpt>
      <trkpt lat="45.54387" lon="6.04554">
        <ele>905</ele>
        <time>2021-06-27T09:21:18.071Z</time>
      </trkpt>
      <trkpt lat="45.54386" lon="6.04555">
        <ele>905</ele>
        <time>2021-06-27T09:21:19.071Z</time>
      </trkpt>
      <trkpt lat="45.54386" lon="6.04555">
        <ele>905</ele>
        <time>2021-06-27T09:21:20.071Z</time>
      </trkpt>
      <trkpt lat="45.54385" lon="6.04556">
        <ele>905</ele>
        <time>2021-06-27T09:21:21.071Z</time>
      </trkpt>
      <trkpt lat="45.54385" lon="6.04557">
        <ele>905</ele>
        <time>2021-06-27T09:21:22.071Z</time>
      </trkpt>
      <trkpt lat="45.54385" lon="6.04559">
        <ele>906</ele>
        <time>2021-06-27T09:21:23.071Z</time>
      </trkpt>
      <trkpt lat="45.54385" lon="6.04559">
        <ele>906</ele>
        <time>2021-06-27T09:21:24.070Z</time>
      </trkpt>
      <trkpt lat="45.54385" lon="6.0456">
        <ele>906</ele>
        <time>2021-06-27T09:21:25.071Z</time>
      </trkpt>
      <trkpt lat="45.54385" lon="6.04561">
        <ele>907</ele>
        <time>2021-06-27T09:21:26.071Z</time>
      </trkpt>
      <trkpt lat="45.54385" lon="6.04561">
        <ele>907</ele>
        <time>2021-06-27T09:21:27.071Z</time>
      </trkpt>
      <trkpt lat="45.54386" lon="6.04562">
        <ele>907</ele>
        <time>2021-06-27T09:21:28.071Z</time>
      </trkpt>
      <trkpt lat="45.54386" lon="6.04563">
        <ele>907</ele>
        <time>2021-06-27T09:21:29.071Z</time>
      </trkpt>
      <trkpt lat="45.54387" lon="6.04564">
        <ele>908</ele>
        <time>2021-06-27T09:21:30.071Z</time>
      </trkpt>
      <trkpt lat="45.54387" lon="6.04565">
        <ele>908</ele>
        <time>2021-06-27T09:21:31.070Z</time>
      </trkpt>
      <trkpt lat="45.54388" lon="6.04567">
        <ele>909</ele>
        <time>2021-06-27T09:21:32.070Z</time>
      </trkpt>
      <trkpt lat="45.54388" lon="6.04567">
        <ele>909</ele>
        <time>2021-06-27T09:21:33.071Z</time>
      </trkpt>
      <trkpt lat="45.54388" lon="6.04567">
        <ele>909</ele>
        <time>2021-06-27T09:21:34.071Z</time>
      </trkpt>
      <trkpt lat="45.54387" lon="6.04567">
        <ele>909</ele>
        <time>2021-06-27T09:21:35.071Z</time>
      </trkpt>
      <trkpt lat="45.54387" lon="6.04568">
        <ele>908</ele>
        <time>2021-06-27T09:21:36.071Z</time>
      </trkpt>
      <trkpt lat="45.54388" lon="6.04568">
        <ele>908</ele>
        <time>2021-06-27T09:21:37.071Z</time>
      </trkpt>
      <trkpt lat="45.54388" lon="6.04568">
        <ele>908</ele>
        <time>2021-06-27T09:21:38.071Z</time>
      </trkpt>
      <trkpt lat="45.54388" lon="6.04568">
        <ele>908</ele>
        <time>2021-06-27T09:21:39.070Z</time>
      </trkpt>
      <trkpt lat="45.54389" lon="6.04569">
        <ele>908</ele>
        <time>2021-06-27T09:21:40.071Z</time>
      </trkpt>
      <trkpt lat="45.54389" lon="6.04569">
        <ele>908</ele>
        <time>2021-06-27T09:21:41.071Z</time>
      </trkpt>
      <trkpt lat="45.54389" lon="6.04569">
        <ele>908</ele>
        <time>2021-06-27T09:21:42.071Z</time>
      </trkpt>
      <trkpt lat="45.54389" lon="6.0457">
        <ele>908</ele>
        <time>2021-06-27T09:21:43.071Z</time>
      </trkpt>
      <trkpt lat="45.54389" lon="6.04571">
        <ele>908</ele>
        <time>2021-06-27T09:21:44.071Z</time>
      </trkpt>
      <trkpt lat="45.54389" lon="6.04571">
        <ele>908</ele>
        <time>2021-06-27T09:21:45.071Z</time>
      </trkpt>
      <trkpt lat="45.54389" lon="6.04571">
        <ele>908</ele>
        <time>2021-06-27T09:21:46.071Z</time>
      </trkpt>
      <trkpt lat="45.5439" lon="6.04572">
        <ele>908</ele>
        <time>2021-06-27T09:21:47.070Z</time>
      </trkpt>
      <trkpt lat="45.5439" lon="6.04573">
        <ele>907</ele>
        <time>2021-06-27T09:21:48.071Z</time>
      </trkpt>
      <trkpt lat="45.54391" lon="6.04574">
        <ele>907</ele>
        <time>2021-06-27T09:21:49.071Z</time>
      </trkpt>
      <trkpt lat="45.54391" lon="6.04575">
        <ele>907</ele>
        <time>2021-06-27T09:21:50.071Z</time>
      </trkpt>
      <trkpt lat="45.5439" lon="6.04575">
        <ele>906</ele>
        <time>2021-06-27T09:21:51.071Z</time>
      </trkpt>
      <trkpt lat="45.5439" lon="6.04575">
        <ele>906</ele>
        <time>2021-06-27T09:21:52.071Z</time>
      </trkpt>
      <trkpt lat="45.54389" lon="6.04575">
        <ele>906</ele>
        <time>2021-06-27T09:21:53.071Z</time>
      </trkpt>
      <trkpt lat="45.54389" lon="6.04574">
        <ele>906</ele>
        <time>2021-06-27T09:21:54.070Z</time>
      </trkpt>
      <trkpt lat="45.54388" lon="6.04572">
        <ele>906</ele>
        <time>2021-06-27T09:21:55.071Z</time>
      </trkpt>
      <trkpt lat="45.54388" lon="6.04572">
        <ele>906</ele>
        <time>2021-06-27T09:21:56.071Z</time>
      </trkpt>
      <trkpt lat="45.54388" lon="6.04572">
        <ele>905</ele>
        <time>2021-06-27T09:21:57.071Z</time>
      </trkpt>
      <trkpt lat="45.54387" lon="6.04573">
        <ele>905</ele>
        <time>2021-06-27T09:21:58.071Z</time>
      </trkpt>
      <trkpt lat="45.54387" lon="6.04573">
        <ele>905</ele>
        <time>2021-06-27T09:21:59.071Z</time>
      </trkpt>
      <trkpt lat="45.54387" lon="6.04573">
        <ele>905</ele>
        <time>2021-06-27T09:22:00.070Z</time>
      </trkpt>
      <trkpt lat="45.54388" lon="6.04573">
        <ele>905</ele>
        <time>2021-06-27T09:22:01.071Z</time>
      </trkpt>
      <trkpt lat="45.54388" lon="6.04573">
        <ele>905</ele>
        <time>2021-06-27T09:22:02.071Z</time>
      </trkpt>
      <trkpt lat="45.54388" lon="6.04574">
        <ele>905</ele>
        <time>2021-06-27T09:22:03.070Z</time>
      </trkpt>
      <trkpt lat="45.54388" lon="6.04574">
        <ele>905</ele>
        <time>2021-06-27T09:22:04.071Z</time>
      </trkpt>
      <trkpt lat="45.54388" lon="6.04574">
        <ele>905</ele>
        <time>2021-06-27T09:22:05.071Z</time>
      </trkpt>
      <trkpt lat="45.54388" lon="6.04574">
        <ele>905</ele>
        <time>2021-06-27T09:22:06.071Z</time>
      </trkpt>
      <trkpt lat="45.54388" lon="6.04575">
        <ele>905</ele>
        <time>2021-06-27T09:22:07.071Z</time>
      </trkpt>
      <trkpt lat="45.54388" lon="6.04576">
        <ele>905</ele>
        <time>2021-06-27T09:22:08.071Z</time>
      </trkpt>
      <trkpt lat="45.54387" lon="6.04577">
        <ele>905</ele>
        <time>2021-06-27T09:22:09.071Z</time>
      </trkpt>
      <trkpt lat="45.54388" lon="6.04578">
        <ele>905</ele>
        <time>2021-06-27T09:22:10.071Z</time>
      </trkpt>
      <trkpt lat="45.54388" lon="6.04579">
        <ele>904</ele>
        <time>2021-06-27T09:22:11.071Z</time>
      </trkpt>
      <trkpt lat="45.54389" lon="6.0458">
        <ele>904</ele>
        <time>2021-06-27T09:22:12.070Z</time>
      </trkpt>
      <trkpt lat="45.54389" lon="6.0458">
        <ele>904</ele>
        <time>2021-06-27T09:22:13.071Z</time>
      </trkpt>
      <trkpt lat="45.54388" lon="6.0458">
        <ele>904</ele>
        <time>2021-06-27T09:22:14.070Z</time>
      </trkpt>
      <trkpt lat="45.54388" lon="6.0458">
        <ele>904</ele>
        <time>2021-06-27T09:22:15.071Z</time>
      </trkpt>
      <trkpt lat="45.54388" lon="6.0458">
        <ele>904</ele>
        <time>2021-06-27T09:22:16.071Z</time>
      </trkpt>
      <trkpt lat="45.54388" lon="6.04579">
        <ele>903</ele>
        <time>2021-06-27T09:22:17.070Z</time>
      </trkpt>
      <trkpt lat="45.54387" lon="6.04578">
        <ele>904</ele>
        <time>2021-06-27T09:22:18.071Z</time>
      </trkpt>
      <trkpt lat="45.54387" lon="6.04578">
        <ele>904</ele>
        <time>2021-06-27T09:22:19.071Z</time>
      </trkpt>
      <trkpt lat="45.54387" lon="6.04578">
        <ele>904</ele>
        <time>2021-06-27T09:22:20.071Z</time>
      </trkpt>
      <trkpt lat="45.54387" lon="6.04577">
        <ele>904</ele>
        <time>2021-06-27T09:22:21.071Z</time>
      </trkpt>
      <trkpt lat="45.54387" lon="6.04576">
        <ele>905</ele>
        <time>2021-06-27T09:22:22.071Z</time>
      </trkpt>
      <trkpt lat="45.54387" lon="6.04575">
        <ele>905</ele>
        <time>2021-06-27T09:22:23.071Z</time>
      </trkpt>
      <trkpt lat="45.54387" lon="6.04575">
        <ele>905</ele>
        <time>2021-06-27T09:22:24.071Z</time>
      </trkpt>
      <trkpt lat="45.54387" lon="6.04575">
        <ele>906</ele>
        <time>2021-06-27T09:22:25.071Z</time>
      </trkpt>
      <trkpt lat="45.54386" lon="6.04575">
        <ele>906</ele>
        <time>2021-06-27T09:22:26.071Z</time>
      </trkpt>
      <trkpt lat="45.54387" lon="6.04576">
        <ele>906</ele>
        <time>2021-06-27T09:22:27.071Z</time>
      </trkpt>
      <trkpt lat="45.54386" lon="6.04576">
        <ele>907</ele>
        <time>2021-06-27T09:22:28.071Z</time>
      </trkpt>
      <trkpt lat="45.54386" lon="6.04575">
        <ele>907</ele>
        <time>2021-06-27T09:22:29.071Z</time>
      </trkpt>
      <trkpt lat="45.54386" lon="6.04574">
        <ele>908</ele>
        <time>2021-06-27T09:22:30.070Z</time>
      </trkpt>
      <trkpt lat="45.54386" lon="6.04572">
        <ele>908</ele>
        <time>2021-06-27T09:22:31.071Z</time>
      </trkpt>
      <trkpt lat="45.54385" lon="6.04573">
        <ele>909</ele>
        <time>2021-06-27T09:22:32.071Z</time>
      </trkpt>
      <trkpt lat="45.54385" lon="6.04573">
        <ele>909</ele>
        <time>2021-06-27T09:22:33.071Z</time>
      </trkpt>
      <trkpt lat="45.54384" lon="6.04574">
        <ele>910</ele>
        <time>2021-06-27T09:22:34.070Z</time>
      </trkpt>
      <trkpt lat="45.54384" lon="6.04574">
        <ele>910</ele>
        <time>2021-06-27T09:22:35.071Z</time>
      </trkpt>
      <trkpt lat="45.54384" lon="6.04575">
        <ele>910</ele>
        <time>2021-06-27T09:22:36.071Z</time>
      </trkpt>
      <trkpt lat="45.54384" lon="6.04577">
        <ele>911</ele>
        <time>2021-06-27T09:22:37.071Z</time>
      </trkpt>
      <trkpt lat="45.54383" lon="6.04577">
        <ele>911</ele>
        <time>2021-06-27T09:22:38.071Z</time>
      </trkpt>
      <trkpt lat="45.54383" lon="6.04577">
        <ele>912</ele>
        <time>2021-06-27T09:22:39.071Z</time>
      </trkpt>
      <trkpt lat="45.54383" lon="6.04575">
        <ele>912</ele>
        <time>2021-06-27T09:22:40.071Z</time>
      </trkpt>
      <trkpt lat="45.54383" lon="6.04574">
        <ele>912</ele>
        <time>2021-06-27T09:22:41.071Z</time>
      </trkpt>
      <trkpt lat="45.54383" lon="6.04573">
        <ele>912</ele>
        <time>2021-06-27T09:22:42.071Z</time>
      </trkpt>
      <trkpt lat="45.54384" lon="6.04574">
        <ele>912</ele>
        <time>2021-06-27T09:22:43.070Z</time>
      </trkpt>
      <trkpt lat="45.54385" lon="6.04577">
        <ele>912</ele>
        <time>2021-06-27T09:22:44.071Z</time>
      </trkpt>
      <trkpt lat="45.54385" lon="6.04577">
        <ele>911</ele>
        <time>2021-06-27T09:22:45.071Z</time>
      </trkpt>
      <trkpt lat="45.54385" lon="6.04577">
        <ele>911</ele>
        <time>2021-06-27T09:22:46.071Z</time>
      </trkpt>
      <trkpt lat="45.54385" lon="6.04576">
        <ele>910</ele>
        <time>2021-06-27T09:22:47.071Z</time>
      </trkpt>
      <trkpt lat="45.54385" lon="6.04576">
        <ele>910</ele>
        <time>2021-06-27T09:22:48.071Z</time>
      </trkpt>
      <trkpt lat="45.54385" lon="6.04576">
        <ele>909</ele>
        <time>2021-06-27T09:22:49.071Z</time>
      </trkpt>
      <trkpt lat="45.54385" lon="6.04576">
        <ele>909</ele>
        <time>2021-06-27T09:22:50.071Z</time>
      </trkpt>
      <trkpt lat="45.54385" lon="6.04576">
        <ele>909</ele>
        <time>2021-06-27T09:22:51.070Z</time>
      </trkpt>
      <trkpt lat="45.54385" lon="6.04576">
        <ele>908</ele>
        <time>2021-06-27T09:22:52.071Z</time>
      </trkpt>
      <trkpt lat="45.54385" lon="6.04576">
        <ele>908</ele>
        <time>2021-06-27T09:22:53.071Z</time>
      </trkpt>
      <trkpt lat="45.54385" lon="6.04576">
        <ele>908</ele>
        <time>2021-06-27T09:22:54.071Z</time>
      </trkpt>
      <trkpt lat="45.54385" lon="6.04577">
        <ele>908</ele>
        <time>2021-06-27T09:22:55.070Z</time>
      </trkpt>
      <trkpt lat="45.54385" lon="6.04577">
        <ele>908</ele>
        <time>2021-06-27T09:22:56.071Z</time>
      </trkpt>
      <trkpt lat="45.54385" lon="6.04578">
        <ele>908</ele>
        <time>2021-06-27T09:22:57.071Z</time>
      </trkpt>
      <trkpt lat="45.54385" lon="6.04578">
        <ele>908</ele>
        <time>2021-06-27T09:22:58.071Z</time>
      </trkpt>
      <trkpt lat="45.54385" lon="6.04578">
        <ele>909</ele>
        <time>2021-06-27T09:22:59.071Z</time>
      </trkpt>
      <trkpt lat="45.54385" lon="6.04578">
        <ele>909</ele>
        <time>2021-06-27T09:23:00.070Z</time>
      </trkpt>
      <trkpt lat="45.54385" lon="6.04578">
        <ele>909</ele>
        <time>2021-06-27T09:23:01.071Z</time>
      </trkpt>
      <trkpt lat="45.54385" lon="6.04578">
        <ele>910</ele>
        <time>2021-06-27T09:23:02.071Z</time>
      </trkpt>
      <trkpt lat="45.54385" lon="6.04577">
        <ele>910</ele>
        <time>2021-06-27T09:23:03.071Z</time>
      </trkpt>
      <trkpt lat="45.54385" lon="6.04578">
        <ele>910</ele>
        <time>2021-06-27T09:23:04.071Z</time>
      </trkpt>
      <trkpt lat="45.54385" lon="6.04578">
        <ele>911</ele>
        <time>2021-06-27T09:23:05.071Z</time>
      </trkpt>
      <trkpt lat="45.54385" lon="6.04579">
        <ele>911</ele>
        <time>2021-06-27T09:23:06.071Z</time>
      </trkpt>
      <trkpt lat="45.54384" lon="6.04578">
        <ele>912</ele>
        <time>2021-06-27T09:23:07.071Z</time>
      </trkpt>
      <trkpt lat="45.54385" lon="6.04578">
        <ele>912</ele>
        <time>2021-06-27T09:23:08.070Z</time>
      </trkpt>
      <trkpt lat="45.54385" lon="6.04578">
        <ele>911</ele>
        <time>2021-06-27T09:23:09.070Z</time>
      </trkpt>
      <trkpt lat="45.54385" lon="6.04577">
        <ele>911</ele>
        <time>2021-06-27T09:23:10.071Z</time>
      </trkpt>
      <trkpt lat="45.54385" lon="6.04576">
        <ele>911</ele>
        <time>2021-06-27T09:23:11.070Z</time>
      </trkpt>
      <trkpt lat="45.54386" lon="6.04576">
        <ele>910</ele>
        <time>2021-06-27T09:23:12.071Z</time>
      </trkpt>
      <trkpt lat="45.54386" lon="6.04576">
        <ele>910</ele>
        <time>2021-06-27T09:23:13.070Z</time>
      </trkpt>
      <trkpt lat="45.54387" lon="6.04576">
        <ele>909</ele>
        <time>2021-06-27T09:23:14.071Z</time>
      </trkpt>
      <trkpt lat="45.54387" lon="6.04576">
        <ele>909</ele>
        <time>2021-06-27T09:23:15.070Z</time>
      </trkpt>
      <trkpt lat="45.54387" lon="6.04577">
        <ele>908</ele>
        <time>2021-06-27T09:23:16.071Z</time>
      </trkpt>
      <trkpt lat="45.54387" lon="6.04577">
        <ele>907</ele>
        <time>2021-06-27T09:23:17.071Z</time>
      </trkpt>
      <trkpt lat="45.54388" lon="6.04578">
        <ele>906</ele>
        <time>2021-06-27T09:23:18.071Z</time>
      </trkpt>
      <trkpt lat="45.54387" lon="6.04578">
        <ele>906</ele>
        <time>2021-06-27T09:23:19.071Z</time>
      </trkpt>
      <trkpt lat="45.54387" lon="6.04579">
        <ele>905</ele>
        <time>2021-06-27T09:23:20.071Z</time>
      </trkpt>
      <trkpt lat="45.54387" lon="6.04579">
        <ele>904</ele>
        <time>2021-06-27T09:23:21.071Z</time>
      </trkpt>
      <trkpt lat="45.54387" lon="6.0458">
        <ele>904</ele>
        <time>2021-06-27T09:23:22.071Z</time>
      </trkpt>
      <trkpt lat="45.54387" lon="6.0458">
        <ele>903</ele>
        <time>2021-06-27T09:23:23.071Z</time>
      </trkpt>
      <trkpt lat="45.54387" lon="6.0458">
        <ele>903</ele>
        <time>2021-06-27T09:23:24.071Z</time>
      </trkpt>
      <trkpt lat="45.54387" lon="6.04581">
        <ele>902</ele>
        <time>2021-06-27T09:23:25.071Z</time>
      </trkpt>
      <trkpt lat="45.54387" lon="6.04582">
        <ele>902</ele>
        <time>2021-06-27T09:23:26.071Z</time>
      </trkpt>
      <trkpt lat="45.54387" lon="6.04582">
        <ele>902</ele>
        <time>2021-06-27T09:23:27.071Z</time>
      </trkpt>
      <trkpt lat="45.54388" lon="6.04581">
        <ele>901</ele>
        <time>2021-06-27T09:23:28.071Z</time>
      </trkpt>
      <trkpt lat="45.54388" lon="6.0458">
        <ele>901</ele>
        <time>2021-06-27T09:23:29.071Z</time>
      </trkpt>
      <trkpt lat="45.54388" lon="6.04579">
        <ele>900</ele>
        <time>2021-06-27T09:23:30.071Z</time>
      </trkpt>
      <trkpt lat="45.54389" lon="6.04579">
        <ele>900</ele>
        <time>2021-06-27T09:23:31.070Z</time>
      </trkpt>
      <trkpt lat="45.54389" lon="6.0458">
        <ele>899</ele>
        <time>2021-06-27T09:23:32.071Z</time>
      </trkpt>
      <trkpt lat="45.54389" lon="6.0458">
        <ele>899</ele>
        <time>2021-06-27T09:23:33.070Z</time>
      </trkpt>
      <trkpt lat="45.54389" lon="6.04581">
        <ele>899</ele>
        <time>2021-06-27T09:23:34.071Z</time>
      </trkpt>
      <trkpt lat="45.54389" lon="6.04581">
        <ele>898</ele>
        <time>2021-06-27T09:23:35.071Z</time>
      </trkpt>
      <trkpt lat="45.54389" lon="6.04582">
        <ele>898</ele>
        <time>2021-06-27T09:23:36.070Z</time>
      </trkpt>
      <trkpt lat="45.54389" lon="6.04582">
        <ele>898</ele>
        <time>2021-06-27T09:23:37.071Z</time>
      </trkpt>
      <trkpt lat="45.54389" lon="6.04582">
        <ele>897</ele>
        <time>2021-06-27T09:23:38.071Z</time>
      </trkpt>
      <trkpt lat="45.54389" lon="6.04582">
        <ele>897</ele>
        <time>2021-06-27T09:23:39.070Z</time>
      </trkpt>
      <trkpt lat="45.54389" lon="6.04582">
        <ele>897</ele>
        <time>2021-06-27T09:23:40.070Z</time>
      </trkpt>
      <trkpt lat="45.54388" lon="6.04582">
        <ele>897</ele>
        <time>2021-06-27T09:23:41.071Z</time>
      </trkpt>
      <trkpt lat="45.54388" lon="6.04583">
        <ele>897</ele>
        <time>2021-06-27T09:23:42.071Z</time>
      </trkpt>
      <trkpt lat="45.54388" lon="6.04584">
        <ele>897</ele>
        <time>2021-06-27T09:23:43.070Z</time>
      </trkpt>
      <trkpt lat="45.54388" lon="6.04584">
        <ele>897</ele>
        <time>2021-06-27T09:23:44.071Z</time>
      </trkpt>
      <trkpt lat="45.54388" lon="6.04584">
        <ele>897</ele>
        <time>2021-06-27T09:23:45.071Z</time>
      </trkpt>
      <trkpt lat="45.54388" lon="6.04585">
        <ele>897</ele>
        <time>2021-06-27T09:23:46.070Z</time>
      </trkpt>
      <trkpt lat="45.54388" lon="6.04586">
        <ele>898</ele>
        <time>2021-06-27T09:23:47.070Z</time>
      </trkpt>
      <trkpt lat="45.54387" lon="6.04585">
        <ele>898</ele>
        <time>2021-06-27T09:23:48.071Z</time>
      </trkpt>
      <trkpt lat="45.54387" lon="6.04586">
        <ele>898</ele>
        <time>2021-06-27T09:23:49.071Z</time>
      </trkpt>
      <trkpt lat="45.54387" lon="6.04586">
        <ele>898</ele>
        <time>2021-06-27T09:23:50.071Z</time>
      </trkpt>
      <trkpt lat="45.54387" lon="6.04586">
        <ele>898</ele>
        <time>2021-06-27T09:23:51.071Z</time>
      </trkpt>
      <trkpt lat="45.54387" lon="6.04587">
        <ele>898</ele>
        <time>2021-06-27T09:23:52.071Z</time>
      </trkpt>
      <trkpt lat="45.54387" lon="6.04587">
        <ele>899</ele>
        <time>2021-06-27T09:23:53.071Z</time>
      </trkpt>
      <trkpt lat="45.54387" lon="6.04587">
        <ele>899</ele>
        <time>2021-06-27T09:23:54.071Z</time>
      </trkpt>
      <trkpt lat="45.54387" lon="6.04587">
        <ele>900</ele>
        <time>2021-06-27T09:23:55.071Z</time>
      </trkpt>
      <trkpt lat="45.54387" lon="6.04588">
        <ele>900</ele>
        <time>2021-06-27T09:23:56.071Z</time>
      </trkpt>
      <trkpt lat="45.54387" lon="6.04588">
        <ele>900</ele>
        <time>2021-06-27T09:23:57.070Z</time>
      </trkpt>
      <trkpt lat="45.54386" lon="6.04587">
        <ele>899</ele>
        <time>2021-06-27T09:23:58.071Z</time>
      </trkpt>
      <trkpt lat="45.54385" lon="6.04587">
        <ele>899</ele>
        <time>2021-06-27T09:23:59.070Z</time>
      </trkpt>
      <trkpt lat="45.54385" lon="6.04586">
        <ele>898</ele>
        <time>2021-06-27T09:24:00.071Z</time>
      </trkpt>
      <trkpt lat="45.54385" lon="6.04586">
        <ele>898</ele>
        <time>2021-06-27T09:24:01.071Z</time>
      </trkpt>
      <trkpt lat="45.54386" lon="6.04588">
        <ele>897</ele>
        <time>2021-06-27T09:24:02.071Z</time>
      </trkpt>
      <trkpt lat="45.54386" lon="6.04588">
        <ele>896</ele>
        <time>2021-06-27T09:24:03.071Z</time>
      </trkpt>
      <trkpt lat="45.54386" lon="6.0459">
        <ele>895</ele>
        <time>2021-06-27T09:24:04.071Z</time>
      </trkpt>
      <trkpt lat="45.54387" lon="6.04591">
        <ele>894</ele>
        <time>2021-06-27T09:24:05.071Z</time>
      </trkpt>
      <trkpt lat="45.54386" lon="6.04592">
        <ele>893</ele>
        <time>2021-06-27T09:24:06.071Z</time>
      </trkpt>
      <trkpt lat="45.54386" lon="6.04593">
        <ele>892</ele>
        <time>2021-06-27T09:24:07.070Z</time>
      </trkpt>
      <trkpt lat="45.54386" lon="6.04594">
        <ele>891</ele>
        <time>2021-06-27T09:24:08.071Z</time>
      </trkpt>
      <trkpt lat="45.54386" lon="6.04594">
        <ele>890</ele>
        <time>2021-06-27T09:24:09.070Z</time>
      </trkpt>
      <trkpt lat="45.54386" lon="6.04594">
        <ele>889</ele>
        <time>2021-06-27T09:24:10.071Z</time>
      </trkpt>
      <trkpt lat="45.54386" lon="6.04594">
        <ele>889</ele>
        <time>2021-06-27T09:24:11.071Z</time>
      </trkpt>
      <trkpt lat="45.54386" lon="6.04595">
        <ele>889</ele>
        <time>2021-06-27T09:24:12.071Z</time>
      </trkpt>
      <trkpt lat="45.54386" lon="6.04595">
        <ele>889</ele>
        <time>2021-06-27T09:24:13.071Z</time>
      </trkpt>
      <trkpt lat="45.54386" lon="6.04595">
        <ele>889</ele>
        <time>2021-06-27T09:24:14.071Z</time>
      </trkpt>
      <trkpt lat="45.54386" lon="6.04596">
        <ele>889</ele>
        <time>2021-06-27T09:24:15.070Z</time>
      </trkpt>
      <trkpt lat="45.54386" lon="6.04597">
        <ele>888</ele>
        <time>2021-06-27T09:24:16.071Z</time>
      </trkpt>
      <trkpt lat="45.54386" lon="6.04598">
        <ele>889</ele>
        <time>2021-06-27T09:24:17.071Z</time>
      </trkpt>
      <trkpt lat="45.54386" lon="6.04598">
        <ele>889</ele>
        <time>2021-06-27T09:24:18.071Z</time>
      </trkpt>
      <trkpt lat="45.54385" lon="6.04598">
        <ele>889</ele>
        <time>2021-06-27T09:24:19.071Z</time>
      </trkpt>
      <trkpt lat="45.54385" lon="6.04598">
        <ele>890</ele>
        <time>2021-06-27T09:24:20.070Z</time>
      </trkpt>
      <trkpt lat="45.54385" lon="6.04598">
        <ele>890</ele>
        <time>2021-06-27T09:24:21.071Z</time>
      </trkpt>
      <trkpt lat="45.54386" lon="6.04598">
        <ele>891</ele>
        <time>2021-06-27T09:24:22.071Z</time>
      </trkpt>
      <trkpt lat="45.54386" lon="6.04597">
        <ele>891</ele>
        <time>2021-06-27T09:24:23.071Z</time>
      </trkpt>
      <trkpt lat="45.54386" lon="6.04598">
        <ele>892</ele>
        <time>2021-06-27T09:24:24.071Z</time>
      </trkpt>
      <trkpt lat="45.54387" lon="6.04597">
        <ele>892</ele>
        <time>2021-06-27T09:24:25.071Z</time>
      </trkpt>
      <trkpt lat="45.54387" lon="6.04596">
        <ele>893</ele>
        <time>2021-06-27T09:24:26.071Z</time>
      </trkpt>
      <trkpt lat="45.54388" lon="6.04595">
        <ele>894</ele>
        <time>2021-06-27T09:24:27.071Z</time>
      </trkpt>
      <trkpt lat="45.54387" lon="6.04593">
        <ele>895</ele>
        <time>2021-06-27T09:24:28.071Z</time>
      </trkpt>
      <trkpt lat="45.54387" lon="6.04592">
        <ele>896</ele>
        <time>2021-06-27T09:24:29.070Z</time>
      </trkpt>
      <trkpt lat="45.54387" lon="6.04591">
        <ele>896</ele>
        <time>2021-06-27T09:24:30.071Z</time>
      </trkpt>
      <trkpt lat="45.54387" lon="6.0459">
        <ele>897</ele>
        <time>2021-06-27T09:24:31.071Z</time>
      </trkpt>
      <trkpt lat="45.54387" lon="6.04589">
        <ele>898</ele>
        <time>2021-06-27T09:24:32.071Z</time>
      </trkpt>
      <trkpt lat="45.54386" lon="6.04588">
        <ele>899</ele>
        <time>2021-06-27T09:24:33.071Z</time>
      </trkpt>
      <trkpt lat="45.54386" lon="6.04587">
        <ele>900</ele>
        <time>2021-06-27T09:24:34.070Z</time>
      </trkpt>
      <trkpt lat="45.54386" lon="6.04585">
        <ele>900</ele>
        <time>2021-06-27T09:24:35.071Z</time>
      </trkpt>
      <trkpt lat="45.54386" lon="6.04585">
        <ele>901</ele>
        <time>2021-06-27T09:24:36.071Z</time>
      </trkpt>
      <trkpt lat="45.54385" lon="6.04586">
        <ele>901</ele>
        <time>2021-06-27T09:24:37.071Z</time>
      </trkpt>
      <trkpt lat="45.54385" lon="6.04586">
        <ele>901</ele>
        <time>2021-06-27T09:24:38.070Z</time>
      </trkpt>
      <trkpt lat="45.54386" lon="6.04587">
        <ele>901</ele>
        <time>2021-06-27T09:24:39.071Z</time>
      </trkpt>
      <trkpt lat="45.54386" lon="6.04587">
        <ele>901</ele>
        <time>2021-06-27T09:24:40.071Z</time>
      </trkpt>
      <trkpt lat="45.54386" lon="6.04587">
        <ele>901</ele>
        <time>2021-06-27T09:24:41.070Z</time>
      </trkpt>
      <trkpt lat="45.54386" lon="6.04587">
        <ele>901</ele>
        <time>2021-06-27T09:24:42.071Z</time>
      </trkpt>
      <trkpt lat="45.54386" lon="6.04587">
        <ele>902</ele>
        <time>2021-06-27T09:24:43.070Z</time>
      </trkpt>
      <trkpt lat="45.54386" lon="6.04587">
        <ele>902</ele>
        <time>2021-06-27T09:24:44.071Z</time>
      </trkpt>
      <trkpt lat="45.54385" lon="6.04587">
        <ele>902</ele>
        <time>2021-06-27T09:24:45.071Z</time>
      </trkpt>
      <trkpt lat="45.54386" lon="6.04587">
        <ele>901</ele>
        <time>2021-06-27T09:24:46.071Z</time>
      </trkpt>
      <trkpt lat="45.54386" lon="6.04587">
        <ele>901</ele>
        <time>2021-06-27T09:24:47.071Z</time>
      </trkpt>
      <trkpt lat="45.54386" lon="6.04587">
        <ele>901</ele>
        <time>2021-06-27T09:24:48.071Z</time>
      </trkpt>
      <trkpt lat="45.54386" lon="6.04586">
        <ele>901</ele>
        <time>2021-06-27T09:24:49.071Z</time>
      </trkpt>
      <trkpt lat="45.54386" lon="6.04587">
        <ele>901</ele>
        <time>2021-06-27T09:24:50.071Z</time>
      </trkpt>
      <trkpt lat="45.54385" lon="6.04587">
        <ele>901</ele>
        <time>2021-06-27T09:24:51.071Z</time>
      </trkpt>
      <trkpt lat="45.54385" lon="6.04588">
        <ele>902</ele>
        <time>2021-06-27T09:24:52.071Z</time>
      </trkpt>
      <trkpt lat="45.54385" lon="6.04588">
        <ele>902</ele>
        <time>2021-06-27T09:24:53.071Z</time>
      </trkpt>
      <trkpt lat="45.54385" lon="6.04589">
        <ele>902</ele>
        <time>2021-06-27T09:24:54.070Z</time>
      </trkpt>
      <trkpt lat="45.54386" lon="6.04588">
        <ele>902</ele>
        <time>2021-06-27T09:24:55.071Z</time>
      </trkpt>
      <trkpt lat="45.54386" lon="6.04587">
        <ele>903</ele>
        <time>2021-06-27T09:24:56.071Z</time>
      </trkpt>
      <trkpt lat="45.54387" lon="6.04587">
        <ele>903</ele>
        <time>2021-06-27T09:24:57.071Z</time>
      </trkpt>
      <trkpt lat="45.54387" lon="6.04586">
        <ele>903</ele>
        <time>2021-06-27T09:24:58.071Z</time>
      </trkpt>
      <trkpt lat="45.54389" lon="6.04586">
        <ele>903</ele>
        <time>2021-06-27T09:24:59.071Z</time>
      </trkpt>
      <trkpt lat="45.5439" lon="6.04586">
        <ele>903</ele>
        <time>2021-06-27T09:25:00.071Z</time>
      </trkpt>
      <trkpt lat="45.54391" lon="6.04586">
        <ele>903</ele>
        <time>2021-06-27T09:25:01.071Z</time>
      </trkpt>
      <trkpt lat="45.54392" lon="6.04586">
        <ele>903</ele>
        <time>2021-06-27T09:25:02.071Z</time>
      </trkpt>
      <trkpt lat="45.54393" lon="6.04586">
        <ele>903</ele>
        <time>2021-06-27T09:25:03.071Z</time>
      </trkpt>
      <trkpt lat="45.54394" lon="6.04586">
        <ele>903</ele>
        <time>2021-06-27T09:25:04.071Z</time>
      </trkpt>
      <trkpt lat="45.54395" lon="6.04586">
        <ele>903</ele>
        <time>2021-06-27T09:25:05.071Z</time>
      </trkpt>
      <trkpt lat="45.54396" lon="6.04586">
        <ele>903</ele>
        <time>2021-06-27T09:25:06.071Z</time>
      </trkpt>
      <trkpt lat="45.54397" lon="6.04586">
        <ele>904</ele>
        <time>2021-06-27T09:25:07.071Z</time>
      </trkpt>
      <trkpt lat="45.54398" lon="6.04586">
        <ele>904</ele>
        <time>2021-06-27T09:25:08.071Z</time>
      </trkpt>
      <trkpt lat="45.544" lon="6.04586">
        <ele>903</ele>
        <time>2021-06-27T09:25:09.071Z</time>
      </trkpt>
      <trkpt lat="45.54401" lon="6.04586">
        <ele>903</ele>
        <time>2021-06-27T09:25:10.071Z</time>
      </trkpt>
      <trkpt lat="45.54403" lon="6.04587">
        <ele>903</ele>
        <time>2021-06-27T09:25:11.071Z</time>
      </trkpt>
      <trkpt lat="45.54404" lon="6.04587">
        <ele>903</ele>
        <time>2021-06-27T09:25:12.070Z</time>
      </trkpt>
      <trkpt lat="45.54405" lon="6.04587">
        <ele>903</ele>
        <time>2021-06-27T09:25:13.071Z</time>
      </trkpt>
      <trkpt lat="45.54406" lon="6.04588">
        <ele>902</ele>
        <time>2021-06-27T09:25:14.070Z</time>
      </trkpt>
      <trkpt lat="45.54407" lon="6.04587">
        <ele>902</ele>
        <time>2021-06-27T09:25:15.071Z</time>
      </trkpt>
      <trkpt lat="45.54408" lon="6.04586">
        <ele>902</ele>
        <time>2021-06-27T09:25:16.071Z</time>
      </trkpt>
      <trkpt lat="45.54409" lon="6.04585">
        <ele>902</ele>
        <time>2021-06-27T09:25:17.071Z</time>
      </trkpt>
      <trkpt lat="45.5441" lon="6.04584">
        <ele>902</ele>
        <time>2021-06-27T09:25:18.071Z</time>
      </trkpt>
      <trkpt lat="45.54411" lon="6.04583">
        <ele>901</ele>
        <time>2021-06-27T09:25:19.071Z</time>
      </trkpt>
      <trkpt lat="45.54412" lon="6.04582">
        <ele>901</ele>
        <time>2021-06-27T09:25:20.071Z</time>
      </trkpt>
      <trkpt lat="45.54413" lon="6.04581">
        <ele>901</ele>
        <time>2021-06-27T09:25:21.071Z</time>
      </trkpt>
      <trkpt lat="45.54414" lon="6.04581">
        <ele>900</ele>
        <time>2021-06-27T09:25:22.070Z</time>
      </trkpt>
      <trkpt lat="45.54415" lon="6.04581">
        <ele>900</ele>
        <time>2021-06-27T09:25:23.071Z</time>
      </trkpt>
      <trkpt lat="45.54416" lon="6.04581">
        <ele>900</ele>
        <time>2021-06-27T09:25:24.070Z</time>
      </trkpt>
      <trkpt lat="45.54416" lon="6.04581">
        <ele>900</ele>
        <time>2021-06-27T09:25:25.071Z</time>
      </trkpt>
      <trkpt lat="45.54417" lon="6.04581">
        <ele>900</ele>
        <time>2021-06-27T09:25:26.071Z</time>
      </trkpt>
      <trkpt lat="45.54418" lon="6.04581">
        <ele>899</ele>
        <time>2021-06-27T09:25:27.070Z</time>
      </trkpt>
      <trkpt lat="45.5442" lon="6.04581">
        <ele>899</ele>
        <time>2021-06-27T09:25:28.070Z</time>
      </trkpt>
      <trkpt lat="45.5442" lon="6.0458">
        <ele>899</ele>
        <time>2021-06-27T09:25:29.071Z</time>
      </trkpt>
      <trkpt lat="45.54421" lon="6.0458">
        <ele>898</ele>
        <time>2021-06-27T09:25:30.071Z</time>
      </trkpt>
      <trkpt lat="45.54422" lon="6.04579">
        <ele>898</ele>
        <time>2021-06-27T09:25:31.071Z</time>
      </trkpt>
      <trkpt lat="45.54423" lon="6.04579">
        <ele>897</ele>
        <time>2021-06-27T09:25:32.071Z</time>
      </trkpt>
      <trkpt lat="45.54424" lon="6.04579">
        <ele>896</ele>
        <time>2021-06-27T09:25:33.071Z</time>
      </trkpt>
      <trkpt lat="45.54425" lon="6.04579">
        <ele>896</ele>
        <time>2021-06-27T09:25:34.071Z</time>
      </trkpt>
      <trkpt lat="45.54427" lon="6.04579">
        <ele>896</ele>
        <time>2021-06-27T09:25:35.071Z</time>
      </trkpt>
      <trkpt lat="45.54427" lon="6.04579">
        <ele>896</ele>
        <time>2021-06-27T09:25:36.071Z</time>
      </trkpt>
      <trkpt lat="45.54429" lon="6.04579">
        <ele>896</ele>
        <time>2021-06-27T09:25:37.071Z</time>
      </trkpt>
      <trkpt lat="45.5443" lon="6.04579">
        <ele>896</ele>
        <time>2021-06-27T09:25:38.071Z</time>
      </trkpt>
      <trkpt lat="45.54431" lon="6.04579">
        <ele>896</ele>
        <time>2021-06-27T09:25:39.071Z</time>
      </trkpt>
      <trkpt lat="45.54432" lon="6.04578">
        <ele>896</ele>
        <time>2021-06-27T09:25:40.071Z</time>
      </trkpt>
      <trkpt lat="45.54433" lon="6.04577">
        <ele>896</ele>
        <time>2021-06-27T09:25:41.070Z</time>
      </trkpt>
      <trkpt lat="45.54435" lon="6.04576">
        <ele>896</ele>
        <time>2021-06-27T09:25:42.071Z</time>
      </trkpt>
      <trkpt lat="45.54436" lon="6.04575">
        <ele>896</ele>
        <time>2021-06-27T09:25:43.071Z</time>
      </trkpt>
      <trkpt lat="45.54437" lon="6.04574">
        <ele>896</ele>
        <time>2021-06-27T09:25:44.071Z</time>
      </trkpt>
      <trkpt lat="45.54438" lon="6.04574">
        <ele>897</ele>
        <time>2021-06-27T09:25:45.071Z</time>
      </trkpt>
      <trkpt lat="45.54439" lon="6.04574">
        <ele>897</ele>
        <time>2021-06-27T09:25:46.071Z</time>
      </trkpt>
      <trkpt lat="45.5444" lon="6.04573">
        <ele>896</ele>
        <time>2021-06-27T09:25:47.071Z</time>
      </trkpt>
      <trkpt lat="45.54441" lon="6.04573">
        <ele>896</ele>
        <time>2021-06-27T09:25:48.070Z</time>
      </trkpt>
      <trkpt lat="45.54442" lon="6.04574">
        <ele>896</ele>
        <time>2021-06-27T09:25:49.071Z</time>
      </trkpt>
      <trkpt lat="45.54443" lon="6.04573">
        <ele>896</ele>
        <time>2021-06-27T09:25:50.071Z</time>
      </trkpt>
      <trkpt lat="45.54443" lon="6.04572">
        <ele>896</ele>
        <time>2021-06-27T09:25:51.071Z</time>
      </trkpt>
      <trkpt lat="45.54445" lon="6.04571">
        <ele>895</ele>
        <time>2021-06-27T09:25:52.071Z</time>
      </trkpt>
      <trkpt lat="45.54446" lon="6.0457">
        <ele>895</ele>
        <time>2021-06-27T09:25:53.071Z</time>
      </trkpt>
      <trkpt lat="45.54447" lon="6.0457">
        <ele>894</ele>
        <time>2021-06-27T09:25:54.071Z</time>
      </trkpt>
      <trkpt lat="45.54448" lon="6.0457">
        <ele>894</ele>
        <time>2021-06-27T09:25:55.070Z</time>
      </trkpt>
      <trkpt lat="45.54449" lon="6.0457">
        <ele>895</ele>
        <time>2021-06-27T09:25:56.071Z</time>
      </trkpt>
      <trkpt lat="45.5445" lon="6.0457">
        <ele>895</ele>
        <time>2021-06-27T09:25:57.071Z</time>
      </trkpt>
      <trkpt lat="45.54451" lon="6.04569">
        <ele>895</ele>
        <time>2021-06-27T09:25:58.071Z</time>
      </trkpt>
      <trkpt lat="45.54452" lon="6.04569">
        <ele>895</ele>
        <time>2021-06-27T09:25:59.071Z</time>
      </trkpt>
      <trkpt lat="45.54453" lon="6.04569">
        <ele>895</ele>
        <time>2021-06-27T09:26:00.071Z</time>
      </trkpt>
      <trkpt lat="45.54454" lon="6.04568">
        <ele>895</ele>
        <time>2021-06-27T09:26:01.071Z</time>
      </trkpt>
      <trkpt lat="45.54455" lon="6.04568">
        <ele>895</ele>
        <time>2021-06-27T09:26:02.070Z</time>
      </trkpt>
      <trkpt lat="45.54456" lon="6.04567">
        <ele>895</ele>
        <time>2021-06-27T09:26:03.071Z</time>
      </trkpt>
      <trkpt lat="45.54457" lon="6.04566">
        <ele>895</ele>
        <time>2021-06-27T09:26:04.071Z</time>
      </trkpt>
      <trkpt lat="45.54458" lon="6.04565">
        <ele>895</ele>
        <time>2021-06-27T09:26:05.070Z</time>
      </trkpt>
      <trkpt lat="45.54459" lon="6.04565">
        <ele>895</ele>
        <time>2021-06-27T09:26:06.070Z</time>
      </trkpt>
      <trkpt lat="45.5446" lon="6.04565">
        <ele>895</ele>
        <time>2021-06-27T09:26:07.071Z</time>
      </trkpt>
      <trkpt lat="45.54462" lon="6.04564">
        <ele>895</ele>
        <time>2021-06-27T09:26:08.070Z</time>
      </trkpt>
      <trkpt lat="45.54463" lon="6.04564">
        <ele>896</ele>
        <time>2021-06-27T09:26:09.071Z</time>
      </trkpt>
      <trkpt lat="45.54464" lon="6.04563">
        <ele>896</ele>
        <time>2021-06-27T09:26:10.071Z</time>
      </trkpt>
      <trkpt lat="45.54465" lon="6.04563">
        <ele>896</ele>
        <time>2021-06-27T09:26:11.070Z</time>
      </trkpt>
      <trkpt lat="45.54466" lon="6.04563">
        <ele>896</ele>
        <time>2021-06-27T09:26:12.071Z</time>
      </trkpt>
      <trkpt lat="45.54467" lon="6.04562">
        <ele>896</ele>
        <time>2021-06-27T09:26:13.071Z</time>
      </trkpt>
      <trkpt lat="45.54468" lon="6.04562">
        <ele>896</ele>
        <time>2021-06-27T09:26:14.070Z</time>
      </trkpt>
      <trkpt lat="45.54469" lon="6.04561">
        <ele>896</ele>
        <time>2021-06-27T09:26:15.071Z</time>
      </trkpt>
      <trkpt lat="45.5447" lon="6.0456">
        <ele>896</ele>
        <time>2021-06-27T09:26:16.070Z</time>
      </trkpt>
      <trkpt lat="45.54471" lon="6.04559">
        <ele>897</ele>
        <time>2021-06-27T09:26:17.071Z</time>
      </trkpt>
      <trkpt lat="45.54471" lon="6.04558">
        <ele>897</ele>
        <time>2021-06-27T09:26:18.071Z</time>
      </trkpt>
      <trkpt lat="45.54472" lon="6.04558">
        <ele>898</ele>
        <time>2021-06-27T09:26:19.071Z</time>
      </trkpt>
      <trkpt lat="45.54473" lon="6.04557">
        <ele>898</ele>
        <time>2021-06-27T09:26:20.071Z</time>
      </trkpt>
      <trkpt lat="45.54474" lon="6.04557">
        <ele>898</ele>
        <time>2021-06-27T09:26:21.070Z</time>
      </trkpt>
      <trkpt lat="45.54475" lon="6.04556">
        <ele>898</ele>
        <time>2021-06-27T09:26:22.071Z</time>
      </trkpt>
      <trkpt lat="45.54476" lon="6.04555">
        <ele>899</ele>
        <time>2021-06-27T09:26:23.071Z</time>
      </trkpt>
      <trkpt lat="45.54477" lon="6.04555">
        <ele>899</ele>
        <time>2021-06-27T09:26:24.071Z</time>
      </trkpt>
      <trkpt lat="45.54479" lon="6.04553">
        <ele>899</ele>
        <time>2021-06-27T09:26:25.071Z</time>
      </trkpt>
      <trkpt lat="45.54479" lon="6.04551">
        <ele>899</ele>
        <time>2021-06-27T09:26:26.071Z</time>
      </trkpt>
      <trkpt lat="45.54481" lon="6.0455">
        <ele>899</ele>
        <time>2021-06-27T09:26:27.071Z</time>
      </trkpt>
      <trkpt lat="45.54482" lon="6.04549">
        <ele>899</ele>
        <time>2021-06-27T09:26:28.071Z</time>
      </trkpt>
      <trkpt lat="45.54483" lon="6.0455">
        <ele>899</ele>
        <time>2021-06-27T09:26:29.071Z</time>
      </trkpt>
      <trkpt lat="45.54484" lon="6.0455">
        <ele>900</ele>
        <time>2021-06-27T09:26:30.071Z</time>
      </trkpt>
      <trkpt lat="45.54485" lon="6.04549">
        <ele>901</ele>
        <time>2021-06-27T09:26:31.071Z</time>
      </trkpt>
      <trkpt lat="45.54486" lon="6.04549">
        <ele>902</ele>
        <time>2021-06-27T09:26:32.071Z</time>
      </trkpt>
      <trkpt lat="45.54487" lon="6.04549">
        <ele>902</ele>
        <time>2021-06-27T09:26:33.071Z</time>
      </trkpt>
      <trkpt lat="45.54488" lon="6.04549">
        <ele>903</ele>
        <time>2021-06-27T09:26:34.071Z</time>
      </trkpt>
      <trkpt lat="45.54488" lon="6.04549">
        <ele>904</ele>
        <time>2021-06-27T09:26:35.071Z</time>
      </trkpt>
      <trkpt lat="45.54489" lon="6.04548">
        <ele>904</ele>
        <time>2021-06-27T09:26:36.070Z</time>
      </trkpt>
      <trkpt lat="45.5449" lon="6.04548">
        <ele>905</ele>
        <time>2021-06-27T09:26:37.071Z</time>
      </trkpt>
      <trkpt lat="45.54491" lon="6.04549">
        <ele>905</ele>
        <time>2021-06-27T09:26:38.071Z</time>
      </trkpt>
      <trkpt lat="45.54492" lon="6.04549">
        <ele>906</ele>
        <time>2021-06-27T09:26:39.071Z</time>
      </trkpt>
      <trkpt lat="45.54493" lon="6.04548">
        <ele>907</ele>
        <time>2021-06-27T09:26:40.071Z</time>
      </trkpt>
      <trkpt lat="45.54494" lon="6.04548">
        <ele>907</ele>
        <time>2021-06-27T09:26:41.071Z</time>
      </trkpt>
      <trkpt lat="45.54496" lon="6.04549">
        <ele>908</ele>
        <time>2021-06-27T09:26:42.070Z</time>
      </trkpt>
      <trkpt lat="45.54496" lon="6.04549">
        <ele>908</ele>
        <time>2021-06-27T09:26:43.070Z</time>
      </trkpt>
      <trkpt lat="45.54497" lon="6.04549">
        <ele>909</ele>
        <time>2021-06-27T09:26:44.071Z</time>
      </trkpt>
      <trkpt lat="45.54497" lon="6.04549">
        <ele>910</ele>
        <time>2021-06-27T09:26:45.070Z</time>
      </trkpt>
      <trkpt lat="45.54498" lon="6.0455">
        <ele>910</ele>
        <time>2021-06-27T09:26:46.071Z</time>
      </trkpt>
      <trkpt lat="45.54499" lon="6.04549">
        <ele>911</ele>
        <time>2021-06-27T09:26:47.071Z</time>
      </trkpt>
      <trkpt lat="45.545" lon="6.04549">
        <ele>912</ele>
        <time>2021-06-27T09:26:48.071Z</time>
      </trkpt>
      <trkpt lat="45.545" lon="6.04549">
        <ele>912</ele>
        <time>2021-06-27T09:26:49.071Z</time>
      </trkpt>
      <trkpt lat="45.54501" lon="6.04548">
        <ele>913</ele>
        <time>2021-06-27T09:26:50.071Z</time>
      </trkpt>
      <trkpt lat="45.54503" lon="6.04547">
        <ele>913</ele>
        <time>2021-06-27T09:26:51.071Z</time>
      </trkpt>
      <trkpt lat="45.54504" lon="6.04546">
        <ele>914</ele>
        <time>2021-06-27T09:26:52.071Z</time>
      </trkpt>
      <trkpt lat="45.54504" lon="6.04545">
        <ele>914</ele>
        <time>2021-06-27T09:26:53.071Z</time>
      </trkpt>
      <trkpt lat="45.54505" lon="6.04544">
        <ele>915</ele>
        <time>2021-06-27T09:26:54.071Z</time>
      </trkpt>
      <trkpt lat="45.54507" lon="6.04544">
        <ele>915</ele>
        <time>2021-06-27T09:26:55.071Z</time>
      </trkpt>
      <trkpt lat="45.54508" lon="6.04544">
        <ele>916</ele>
        <time>2021-06-27T09:26:56.071Z</time>
      </trkpt>
      <trkpt lat="45.54509" lon="6.04544">
        <ele>916</ele>
        <time>2021-06-27T09:26:57.071Z</time>
      </trkpt>
      <trkpt lat="45.5451" lon="6.04543">
        <ele>916</ele>
        <time>2021-06-27T09:26:58.071Z</time>
      </trkpt>
      <trkpt lat="45.54512" lon="6.04544">
        <ele>916</ele>
        <time>2021-06-27T09:26:59.071Z</time>
      </trkpt>
      <trkpt lat="45.54513" lon="6.04544">
        <ele>917</ele>
        <time>2021-06-27T09:27:00.071Z</time>
      </trkpt>
      <trkpt lat="45.54514" lon="6.04544">
        <ele>918</ele>
        <time>2021-06-27T09:27:01.070Z</time>
      </trkpt>
      <trkpt lat="45.54515" lon="6.04544">
        <ele>918</ele>
        <time>2021-06-27T09:27:02.071Z</time>
      </trkpt>
      <trkpt lat="45.54516" lon="6.04545">
        <ele>918</ele>
        <time>2021-06-27T09:27:03.071Z</time>
      </trkpt>
      <trkpt lat="45.54517" lon="6.04545">
        <ele>918</ele>
        <time>2021-06-27T09:27:04.070Z</time>
      </trkpt>
      <trkpt lat="45.54518" lon="6.04545">
        <ele>918</ele>
        <time>2021-06-27T09:27:05.071Z</time>
      </trkpt>
      <trkpt lat="45.54519" lon="6.04544">
        <ele>918</ele>
        <time>2021-06-27T09:27:06.070Z</time>
      </trkpt>
      <trkpt lat="45.5452" lon="6.04544">
        <ele>918</ele>
        <time>2021-06-27T09:27:07.071Z</time>
      </trkpt>
      <trkpt lat="45.54521" lon="6.04543">
        <ele>918</ele>
        <time>2021-06-27T09:27:08.071Z</time>
      </trkpt>
      <trkpt lat="45.54522" lon="6.04542">
        <ele>918</ele>
        <time>2021-06-27T09:27:09.071Z</time>
      </trkpt>
      <trkpt lat="45.54523" lon="6.04542">
        <ele>918</ele>
        <time>2021-06-27T09:27:10.071Z</time>
      </trkpt>
      <trkpt lat="45.54524" lon="6.04542">
        <ele>918</ele>
        <time>2021-06-27T09:27:11.071Z</time>
      </trkpt>
      <trkpt lat="45.54525" lon="6.04542">
        <ele>919</ele>
        <time>2021-06-27T09:27:12.070Z</time>
      </trkpt>
      <trkpt lat="45.54525" lon="6.04542">
        <ele>919</ele>
        <time>2021-06-27T09:27:13.071Z</time>
      </trkpt>
      <trkpt lat="45.54526" lon="6.04543">
        <ele>919</ele>
        <time>2021-06-27T09:27:14.071Z</time>
      </trkpt>
      <trkpt lat="45.54527" lon="6.04543">
        <ele>919</ele>
        <time>2021-06-27T09:27:15.071Z</time>
      </trkpt>
      <trkpt lat="45.54528" lon="6.04543">
        <ele>919</ele>
        <time>2021-06-27T09:27:16.071Z</time>
      </trkpt>
      <trkpt lat="45.54529" lon="6.04542">
        <ele>919</ele>
        <time>2021-06-27T09:27:17.070Z</time>
      </trkpt>
      <trkpt lat="45.54529" lon="6.04541">
        <ele>919</ele>
        <time>2021-06-27T09:27:18.070Z</time>
      </trkpt>
      <trkpt lat="45.5453" lon="6.0454">
        <ele>919</ele>
        <time>2021-06-27T09:27:19.070Z</time>
      </trkpt>
      <trkpt lat="45.54531" lon="6.0454">
        <ele>920</ele>
        <time>2021-06-27T09:27:20.071Z</time>
      </trkpt>
      <trkpt lat="45.54532" lon="6.04539">
        <ele>920</ele>
        <time>2021-06-27T09:27:21.071Z</time>
      </trkpt>
      <trkpt lat="45.54533" lon="6.04539">
        <ele>920</ele>
        <time>2021-06-27T09:27:22.071Z</time>
      </trkpt>
      <trkpt lat="45.54534" lon="6.04539">
        <ele>920</ele>
        <time>2021-06-27T09:27:23.070Z</time>
      </trkpt>
      <trkpt lat="45.54534" lon="6.04538">
        <ele>920</ele>
        <time>2021-06-27T09:27:24.071Z</time>
      </trkpt>
      <trkpt lat="45.54535" lon="6.04538">
        <ele>920</ele>
        <time>2021-06-27T09:27:25.071Z</time>
      </trkpt>
      <trkpt lat="45.54535" lon="6.04539">
        <ele>921</ele>
        <time>2021-06-27T09:27:26.071Z</time>
      </trkpt>
      <trkpt lat="45.54536" lon="6.04539">
        <ele>921</ele>
        <time>2021-06-27T09:27:27.070Z</time>
      </trkpt>
      <trkpt lat="45.54537" lon="6.04538">
        <ele>921</ele>
        <time>2021-06-27T09:27:28.070Z</time>
      </trkpt>
      <trkpt lat="45.54538" lon="6.04539">
        <ele>922</ele>
        <time>2021-06-27T09:27:29.070Z</time>
      </trkpt>
      <trkpt lat="45.54539" lon="6.04539">
        <ele>922</ele>
        <time>2021-06-27T09:27:30.071Z</time>
      </trkpt>
      <trkpt lat="45.54539" lon="6.04538">
        <ele>922</ele>
        <time>2021-06-27T09:27:31.070Z</time>
      </trkpt>
      <trkpt lat="45.5454" lon="6.04538">
        <ele>923</ele>
        <time>2021-06-27T09:27:32.071Z</time>
      </trkpt>
      <trkpt lat="45.54541" lon="6.04537">
        <ele>923</ele>
        <time>2021-06-27T09:27:33.071Z</time>
      </trkpt>
      <trkpt lat="45.54541" lon="6.04537">
        <ele>923</ele>
        <time>2021-06-27T09:27:34.071Z</time>
      </trkpt>
      <trkpt lat="45.54543" lon="6.04538">
        <ele>924</ele>
        <time>2021-06-27T09:27:35.070Z</time>
      </trkpt>
      <trkpt lat="45.54544" lon="6.04538">
        <ele>924</ele>
        <time>2021-06-27T09:27:36.071Z</time>
      </trkpt>
      <trkpt lat="45.54545" lon="6.04539">
        <ele>924</ele>
        <time>2021-06-27T09:27:37.070Z</time>
      </trkpt>
      <trkpt lat="45.54546" lon="6.04539">
        <ele>924</ele>
        <time>2021-06-27T09:27:38.071Z</time>
      </trkpt>
      <trkpt lat="45.54547" lon="6.04539">
        <ele>924</ele>
        <time>2021-06-27T09:27:39.071Z</time>
      </trkpt>
      <trkpt lat="45.54548" lon="6.04539">
        <ele>924</ele>
        <time>2021-06-27T09:27:40.071Z</time>
      </trkpt>
      <trkpt lat="45.54549" lon="6.04538">
        <ele>924</ele>
        <time>2021-06-27T09:27:41.071Z</time>
      </trkpt>
      <trkpt lat="45.5455" lon="6.04538">
        <ele>924</ele>
        <time>2021-06-27T09:27:42.071Z</time>
      </trkpt>
      <trkpt lat="45.54551" lon="6.04538">
        <ele>925</ele>
        <time>2021-06-27T09:27:43.071Z</time>
      </trkpt>
      <trkpt lat="45.54552" lon="6.04538">
        <ele>925</ele>
        <time>2021-06-27T09:27:44.071Z</time>
      </trkpt>
      <trkpt lat="45.54553" lon="6.04537">
        <ele>926</ele>
        <time>2021-06-27T09:27:45.071Z</time>
      </trkpt>
      <trkpt lat="45.54554" lon="6.04538">
        <ele>926</ele>
        <time>2021-06-27T09:27:46.071Z</time>
      </trkpt>
      <trkpt lat="45.54556" lon="6.04539">
        <ele>926</ele>
        <time>2021-06-27T09:27:47.070Z</time>
      </trkpt>
      <trkpt lat="45.54557" lon="6.04539">
        <ele>927</ele>
        <time>2021-06-27T09:27:48.070Z</time>
      </trkpt>
      <trkpt lat="45.54558" lon="6.04539">
        <ele>927</ele>
        <time>2021-06-27T09:27:49.071Z</time>
      </trkpt>
      <trkpt lat="45.54558" lon="6.04539">
        <ele>927</ele>
        <time>2021-06-27T09:27:50.071Z</time>
      </trkpt>
      <trkpt lat="45.54559" lon="6.04538">
        <ele>927</ele>
        <time>2021-06-27T09:27:51.071Z</time>
      </trkpt>
      <trkpt lat="45.5456" lon="6.04538">
        <ele>927</ele>
        <time>2021-06-27T09:27:52.071Z</time>
      </trkpt>
      <trkpt lat="45.54561" lon="6.04538">
        <ele>928</ele>
        <time>2021-06-27T09:27:53.071Z</time>
      </trkpt>
      <trkpt lat="45.54562" lon="6.04537">
        <ele>928</ele>
        <time>2021-06-27T09:27:54.070Z</time>
      </trkpt>
      <trkpt lat="45.54563" lon="6.04537">
        <ele>928</ele>
        <time>2021-06-27T09:27:55.071Z</time>
      </trkpt>
      <trkpt lat="45.54564" lon="6.04536">
        <ele>928</ele>
        <time>2021-06-27T09:27:56.070Z</time>
      </trkpt>
      <trkpt lat="45.54565" lon="6.04535">
        <ele>928</ele>
        <time>2021-06-27T09:27:57.071Z</time>
      </trkpt>
      <trkpt lat="45.54566" lon="6.04535">
        <ele>928</ele>
        <time>2021-06-27T09:27:58.071Z</time>
      </trkpt>
      <trkpt lat="45.54568" lon="6.04536">
        <ele>928</ele>
        <time>2021-06-27T09:27:59.070Z</time>
      </trkpt>
      <trkpt lat="45.54569" lon="6.04536">
        <ele>928</ele>
        <time>2021-06-27T09:28:00.071Z</time>
      </trkpt>
      <trkpt lat="45.54571" lon="6.04536">
        <ele>929</ele>
        <time>2021-06-27T09:28:01.071Z</time>
      </trkpt>
      <trkpt lat="45.54572" lon="6.04536">
        <ele>929</ele>
        <time>2021-06-27T09:28:02.071Z</time>
      </trkpt>
      <trkpt lat="45.54573" lon="6.04536">
        <ele>930</ele>
        <time>2021-06-27T09:28:03.071Z</time>
      </trkpt>
      <trkpt lat="45.54574" lon="6.04536">
        <ele>931</ele>
        <time>2021-06-27T09:28:04.071Z</time>
      </trkpt>
      <trkpt lat="45.54577" lon="6.04537">
        <ele>931</ele>
        <time>2021-06-27T09:28:05.070Z</time>
      </trkpt>
      <trkpt lat="45.54578" lon="6.04537">
        <ele>932</ele>
        <time>2021-06-27T09:28:06.071Z</time>
      </trkpt>
      <trkpt lat="45.54579" lon="6.04536">
        <ele>932</ele>
        <time>2021-06-27T09:28:07.071Z</time>
      </trkpt>
      <trkpt lat="45.54581" lon="6.04536">
        <ele>933</ele>
        <time>2021-06-27T09:28:08.071Z</time>
      </trkpt>
      <trkpt lat="45.54583" lon="6.04536">
        <ele>933</ele>
        <time>2021-06-27T09:28:09.071Z</time>
      </trkpt>
      <trkpt lat="45.54585" lon="6.04536">
        <ele>934</ele>
        <time>2021-06-27T09:28:10.071Z</time>
      </trkpt>
      <trkpt lat="45.54586" lon="6.04536">
        <ele>934</ele>
        <time>2021-06-27T09:28:11.070Z</time>
      </trkpt>
      <trkpt lat="45.54587" lon="6.04537">
        <ele>935</ele>
        <time>2021-06-27T09:28:12.071Z</time>
      </trkpt>
      <trkpt lat="45.54588" lon="6.04536">
        <ele>935</ele>
        <time>2021-06-27T09:28:13.070Z</time>
      </trkpt>
      <trkpt lat="45.5459" lon="6.04537">
        <ele>935</ele>
        <time>2021-06-27T09:28:14.071Z</time>
      </trkpt>
      <trkpt lat="45.54591" lon="6.04537">
        <ele>935</ele>
        <time>2021-06-27T09:28:15.071Z</time>
      </trkpt>
      <trkpt lat="45.54592" lon="6.04537">
        <ele>935</ele>
        <time>2021-06-27T09:28:16.071Z</time>
      </trkpt>
      <trkpt lat="45.54594" lon="6.04537">
        <ele>935</ele>
        <time>2021-06-27T09:28:17.071Z</time>
      </trkpt>
      <trkpt lat="45.54595" lon="6.04537">
        <ele>936</ele>
        <time>2021-06-27T09:28:18.071Z</time>
      </trkpt>
      <trkpt lat="45.54596" lon="6.04537">
        <ele>936</ele>
        <time>2021-06-27T09:28:19.071Z</time>
      </trkpt>
      <trkpt lat="45.54597" lon="6.04537">
        <ele>936</ele>
        <time>2021-06-27T09:28:20.071Z</time>
      </trkpt>
      <trkpt lat="45.54599" lon="6.04538">
        <ele>937</ele>
        <time>2021-06-27T09:28:21.071Z</time>
      </trkpt>
      <trkpt lat="45.54601" lon="6.04539">
        <ele>937</ele>
        <time>2021-06-27T09:28:22.071Z</time>
      </trkpt>
      <trkpt lat="45.54602" lon="6.04539">
        <ele>937</ele>
        <time>2021-06-27T09:28:23.071Z</time>
      </trkpt>
      <trkpt lat="45.54604" lon="6.04539">
        <ele>937</ele>
        <time>2021-06-27T09:28:24.071Z</time>
      </trkpt>
      <trkpt lat="45.54605" lon="6.04539">
        <ele>937</ele>
        <time>2021-06-27T09:28:25.071Z</time>
      </trkpt>
      <trkpt lat="45.54607" lon="6.0454">
        <ele>937</ele>
        <time>2021-06-27T09:28:26.071Z</time>
      </trkpt>
      <trkpt lat="45.54608" lon="6.0454">
        <ele>937</ele>
        <time>2021-06-27T09:28:27.071Z</time>
      </trkpt>
      <trkpt lat="45.54609" lon="6.0454">
        <ele>938</ele>
        <time>2021-06-27T09:28:28.071Z</time>
      </trkpt>
      <trkpt lat="45.5461" lon="6.04541">
        <ele>938</ele>
        <time>2021-06-27T09:28:29.071Z</time>
      </trkpt>
      <trkpt lat="45.54611" lon="6.04541">
        <ele>938</ele>
        <time>2021-06-27T09:28:30.071Z</time>
      </trkpt>
      <trkpt lat="45.54612" lon="6.04541">
        <ele>939</ele>
        <time>2021-06-27T09:28:31.070Z</time>
      </trkpt>
      <trkpt lat="45.54613" lon="6.04542">
        <ele>939</ele>
        <time>2021-06-27T09:28:32.071Z</time>
      </trkpt>
      <trkpt lat="45.54615" lon="6.04543">
        <ele>940</ele>
        <time>2021-06-27T09:28:33.070Z</time>
      </trkpt>
      <trkpt lat="45.54616" lon="6.04543">
        <ele>940</ele>
        <time>2021-06-27T09:28:34.071Z</time>
      </trkpt>
      <trkpt lat="45.54617" lon="6.04544">
        <ele>940</ele>
        <time>2021-06-27T09:28:35.071Z</time>
      </trkpt>
      <trkpt lat="45.54619" lon="6.04545">
        <ele>940</ele>
        <time>2021-06-27T09:28:36.071Z</time>
      </trkpt>
      <trkpt lat="45.54621" lon="6.04547">
        <ele>940</ele>
        <time>2021-06-27T09:28:37.070Z</time>
      </trkpt>
      <trkpt lat="45.54623" lon="6.04548">
        <ele>941</ele>
        <time>2021-06-27T09:28:38.071Z</time>
      </trkpt>
      <trkpt lat="45.54625" lon="6.0455">
        <ele>941</ele>
        <time>2021-06-27T09:28:39.071Z</time>
      </trkpt>
      <trkpt lat="45.54626" lon="6.04551">
        <ele>940</ele>
        <time>2021-06-27T09:28:40.071Z</time>
      </trkpt>
      <trkpt lat="45.54628" lon="6.0455">
        <ele>940</ele>
        <time>2021-06-27T09:28:41.071Z</time>
      </trkpt>
      <trkpt lat="45.54629" lon="6.0455">
        <ele>940</ele>
        <time>2021-06-27T09:28:42.071Z</time>
      </trkpt>
      <trkpt lat="45.54631" lon="6.0455">
        <ele>939</ele>
        <time>2021-06-27T09:28:43.071Z</time>
      </trkpt>
      <trkpt lat="45.54632" lon="6.04551">
        <ele>939</ele>
        <time>2021-06-27T09:28:44.071Z</time>
      </trkpt>
      <trkpt lat="45.54634" lon="6.04551">
        <ele>939</ele>
        <time>2021-06-27T09:28:45.071Z</time>
      </trkpt>
      <trkpt lat="45.54635" lon="6.04552">
        <ele>939</ele>
        <time>2021-06-27T09:28:46.071Z</time>
      </trkpt>
      <trkpt lat="45.54637" lon="6.04552">
        <ele>940</ele>
        <time>2021-06-27T09:28:47.070Z</time>
      </trkpt>
      <trkpt lat="45.54638" lon="6.04552">
        <ele>940</ele>
        <time>2021-06-27T09:28:48.071Z</time>
      </trkpt>
      <trkpt lat="45.5464" lon="6.04551">
        <ele>941</ele>
        <time>2021-06-27T09:28:49.071Z</time>
      </trkpt>
      <trkpt lat="45.5464" lon="6.0455">
        <ele>941</ele>
        <time>2021-06-27T09:28:50.070Z</time>
      </trkpt>
      <trkpt lat="45.54641" lon="6.0455">
        <ele>941</ele>
        <time>2021-06-27T09:28:51.071Z</time>
      </trkpt>
      <trkpt lat="45.54642" lon="6.0455">
        <ele>942</ele>
        <time>2021-06-27T09:28:52.070Z</time>
      </trkpt>
      <trkpt lat="45.54643" lon="6.0455">
        <ele>942</ele>
        <time>2021-06-27T09:28:53.071Z</time>
      </trkpt>
      <trkpt lat="45.54644" lon="6.04549">
        <ele>942</ele>
        <time>2021-06-27T09:28:54.071Z</time>
      </trkpt>
      <trkpt lat="45.54646" lon="6.04549">
        <ele>942</ele>
        <time>2021-06-27T09:28:55.071Z</time>
      </trkpt>
      <trkpt lat="45.54648" lon="6.0455">
        <ele>942</ele>
        <time>2021-06-27T09:28:56.071Z</time>
      </trkpt>
      <trkpt lat="45.54649" lon="6.04551">
        <ele>942</ele>
        <time>2021-06-27T09:28:57.071Z</time>
      </trkpt>
      <trkpt lat="45.5465" lon="6.04551">
        <ele>942</ele>
        <time>2021-06-27T09:28:58.070Z</time>
      </trkpt>
      <trkpt lat="45.54651" lon="6.0455">
        <ele>942</ele>
        <time>2021-06-27T09:28:59.071Z</time>
      </trkpt>
      <trkpt lat="45.54652" lon="6.0455">
        <ele>942</ele>
        <time>2021-06-27T09:29:00.070Z</time>
      </trkpt>
      <trkpt lat="45.54654" lon="6.0455">
        <ele>942</ele>
        <time>2021-06-27T09:29:01.071Z</time>
      </trkpt>
      <trkpt lat="45.54655" lon="6.04549">
        <ele>942</ele>
        <time>2021-06-27T09:29:02.070Z</time>
      </trkpt>
      <trkpt lat="45.54655" lon="6.04549">
        <ele>942</ele>
        <time>2021-06-27T09:29:03.071Z</time>
      </trkpt>
      <trkpt lat="45.54656" lon="6.04548">
        <ele>943</ele>
        <time>2021-06-27T09:29:04.071Z</time>
      </trkpt>
      <trkpt lat="45.54657" lon="6.04547">
        <ele>943</ele>
        <time>2021-06-27T09:29:05.070Z</time>
      </trkpt>
      <trkpt lat="45.54658" lon="6.04548">
        <ele>943</ele>
        <time>2021-06-27T09:29:06.071Z</time>
      </trkpt>
      <trkpt lat="45.54659" lon="6.04548">
        <ele>943</ele>
        <time>2021-06-27T09:29:07.071Z</time>
      </trkpt>
      <trkpt lat="45.5466" lon="6.04548">
        <ele>943</ele>
        <time>2021-06-27T09:29:08.071Z</time>
      </trkpt>
      <trkpt lat="45.54662" lon="6.04549">
        <ele>943</ele>
        <time>2021-06-27T09:29:09.071Z</time>
      </trkpt>
      <trkpt lat="45.54664" lon="6.0455">
        <ele>942</ele>
        <time>2021-06-27T09:29:10.070Z</time>
      </trkpt>
      <trkpt lat="45.54665" lon="6.0455">
        <ele>942</ele>
        <time>2021-06-27T09:29:11.070Z</time>
      </trkpt>
      <trkpt lat="45.54667" lon="6.04551">
        <ele>942</ele>
        <time>2021-06-27T09:29:12.071Z</time>
      </trkpt>
      <trkpt lat="45.54668" lon="6.04552">
        <ele>941</ele>
        <time>2021-06-27T09:29:13.071Z</time>
      </trkpt>
      <trkpt lat="45.54669" lon="6.04552">
        <ele>941</ele>
        <time>2021-06-27T09:29:14.071Z</time>
      </trkpt>
      <trkpt lat="45.54671" lon="6.04553">
        <ele>940</ele>
        <time>2021-06-27T09:29:15.071Z</time>
      </trkpt>
      <trkpt lat="45.54672" lon="6.04553">
        <ele>940</ele>
        <time>2021-06-27T09:29:16.071Z</time>
      </trkpt>
      <trkpt lat="45.54673" lon="6.04553">
        <ele>940</ele>
        <time>2021-06-27T09:29:17.071Z</time>
      </trkpt>
      <trkpt lat="45.54674" lon="6.04553">
        <ele>940</ele>
        <time>2021-06-27T09:29:18.070Z</time>
      </trkpt>
      <trkpt lat="45.54676" lon="6.04554">
        <ele>939</ele>
        <time>2021-06-27T09:29:19.070Z</time>
      </trkpt>
      <trkpt lat="45.54677" lon="6.04554">
        <ele>939</ele>
        <time>2021-06-27T09:29:20.071Z</time>
      </trkpt>
      <trkpt lat="45.54679" lon="6.04554">
        <ele>939</ele>
        <time>2021-06-27T09:29:21.070Z</time>
      </trkpt>
      <trkpt lat="45.5468" lon="6.04555">
        <ele>939</ele>
        <time>2021-06-27T09:29:22.070Z</time>
      </trkpt>
      <trkpt lat="45.54681" lon="6.04556">
        <ele>938</ele>
        <time>2021-06-27T09:29:23.071Z</time>
      </trkpt>
      <trkpt lat="45.54682" lon="6.04557">
        <ele>938</ele>
        <time>2021-06-27T09:29:24.071Z</time>
      </trkpt>
      <trkpt lat="45.54683" lon="6.04557">
        <ele>939</ele>
        <time>2021-06-27T09:29:25.071Z</time>
      </trkpt>
      <trkpt lat="45.54685" lon="6.04557">
        <ele>939</ele>
        <time>2021-06-27T09:29:26.070Z</time>
      </trkpt>
      <trkpt lat="45.54686" lon="6.04558">
        <ele>939</ele>
        <time>2021-06-27T09:29:27.070Z</time>
      </trkpt>
      <trkpt lat="45.54687" lon="6.04558">
        <ele>939</ele>
        <time>2021-06-27T09:29:28.070Z</time>
      </trkpt>
      <trkpt lat="45.54688" lon="6.04558">
        <ele>939</ele>
        <time>2021-06-27T09:29:29.070Z</time>
      </trkpt>
      <trkpt lat="45.5469" lon="6.04558">
        <ele>939</ele>
        <time>2021-06-27T09:29:30.071Z</time>
      </trkpt>
      <trkpt lat="45.54691" lon="6.04558">
        <ele>939</ele>
        <time>2021-06-27T09:29:31.071Z</time>
      </trkpt>
      <trkpt lat="45.54692" lon="6.04558">
        <ele>940</ele>
        <time>2021-06-27T09:29:32.071Z</time>
      </trkpt>
      <trkpt lat="45.54694" lon="6.04559">
        <ele>939</ele>
        <time>2021-06-27T09:29:33.070Z</time>
      </trkpt>
      <trkpt lat="45.54695" lon="6.0456">
        <ele>939</ele>
        <time>2021-06-27T09:29:34.071Z</time>
      </trkpt>
      <trkpt lat="45.54696" lon="6.04559">
        <ele>939</ele>
        <time>2021-06-27T09:29:35.071Z</time>
      </trkpt>
      <trkpt lat="45.54697" lon="6.04558">
        <ele>938</ele>
        <time>2021-06-27T09:29:36.071Z</time>
      </trkpt>
      <trkpt lat="45.54699" lon="6.04558">
        <ele>938</ele>
        <time>2021-06-27T09:29:37.071Z</time>
      </trkpt>
      <trkpt lat="45.547" lon="6.04556">
        <ele>938</ele>
        <time>2021-06-27T09:29:38.070Z</time>
      </trkpt>
      <trkpt lat="45.54701" lon="6.04555">
        <ele>938</ele>
        <time>2021-06-27T09:29:39.071Z</time>
      </trkpt>
      <trkpt lat="45.54702" lon="6.04554">
        <ele>938</ele>
        <time>2021-06-27T09:29:40.071Z</time>
      </trkpt>
      <trkpt lat="45.54704" lon="6.04554">
        <ele>938</ele>
        <time>2021-06-27T09:29:41.071Z</time>
      </trkpt>
      <trkpt lat="45.54705" lon="6.04554">
        <ele>939</ele>
        <time>2021-06-27T09:29:42.071Z</time>
      </trkpt>
      <trkpt lat="45.54706" lon="6.04555">
        <ele>938</ele>
        <time>2021-06-27T09:29:43.070Z</time>
      </trkpt>
      <trkpt lat="45.54707" lon="6.04555">
        <ele>938</ele>
        <time>2021-06-27T09:29:44.071Z</time>
      </trkpt>
      <trkpt lat="45.54708" lon="6.04555">
        <ele>938</ele>
        <time>2021-06-27T09:29:45.071Z</time>
      </trkpt>
      <trkpt lat="45.54709" lon="6.04556">
        <ele>938</ele>
        <time>2021-06-27T09:29:46.071Z</time>
      </trkpt>
      <trkpt lat="45.54711" lon="6.04558">
        <ele>938</ele>
        <time>2021-06-27T09:29:47.070Z</time>
      </trkpt>
      <trkpt lat="45.54713" lon="6.0456">
        <ele>938</ele>
        <time>2021-06-27T09:29:48.070Z</time>
      </trkpt>
      <trkpt lat="45.54714" lon="6.0456">
        <ele>938</ele>
        <time>2021-06-27T09:29:49.071Z</time>
      </trkpt>
      <trkpt lat="45.54715" lon="6.0456">
        <ele>939</ele>
        <time>2021-06-27T09:29:50.071Z</time>
      </trkpt>
      <trkpt lat="45.54717" lon="6.0456">
        <ele>939</ele>
        <time>2021-06-27T09:29:51.071Z</time>
      </trkpt>
      <trkpt lat="45.54718" lon="6.04561">
        <ele>940</ele>
        <time>2021-06-27T09:29:52.071Z</time>
      </trkpt>
      <trkpt lat="45.54719" lon="6.04562">
        <ele>940</ele>
        <time>2021-06-27T09:29:53.070Z</time>
      </trkpt>
      <trkpt lat="45.54721" lon="6.04562">
        <ele>940</ele>
        <time>2021-06-27T09:29:54.071Z</time>
      </trkpt>
      <trkpt lat="45.54722" lon="6.04563">
        <ele>940</ele>
        <time>2021-06-27T09:29:55.071Z</time>
      </trkpt>
      <trkpt lat="45.54724" lon="6.04564">
        <ele>941</ele>
        <time>2021-06-27T09:29:56.070Z</time>
      </trkpt>
      <trkpt lat="45.54725" lon="6.04564">
        <ele>941</ele>
        <time>2021-06-27T09:29:57.071Z</time>
      </trkpt>
      <trkpt lat="45.54726" lon="6.04564">
        <ele>941</ele>
        <time>2021-06-27T09:29:58.070Z</time>
      </trkpt>
      <trkpt lat="45.54727" lon="6.04564">
        <ele>942</ele>
        <time>2021-06-27T09:29:59.070Z</time>
      </trkpt>
      <trkpt lat="45.54728" lon="6.04564">
        <ele>942</ele>
        <time>2021-06-27T09:30:00.071Z</time>
      </trkpt>
      <trkpt lat="45.54729" lon="6.04564">
        <ele>942</ele>
        <time>2021-06-27T09:30:01.070Z</time>
      </trkpt>
      <trkpt lat="45.54731" lon="6.04565">
        <ele>941</ele>
        <time>2021-06-27T09:30:02.070Z</time>
      </trkpt>
      <trkpt lat="45.54732" lon="6.04566">
        <ele>941</ele>
        <time>2021-06-27T09:30:03.070Z</time>
      </trkpt>
      <trkpt lat="45.54733" lon="6.04566">
        <ele>940</ele>
        <time>2021-06-27T09:30:04.071Z</time>
      </trkpt>
      <trkpt lat="45.54734" lon="6.04567">
        <ele>940</ele>
        <time>2021-06-27T09:30:05.071Z</time>
      </trkpt>
      <trkpt lat="45.54734" lon="6.04567">
        <ele>939</ele>
        <time>2021-06-27T09:30:06.071Z</time>
      </trkpt>
      <trkpt lat="45.54735" lon="6.04567">
        <ele>939</ele>
        <time>2021-06-27T09:30:07.071Z</time>
      </trkpt>
      <trkpt lat="45.54736" lon="6.04568">
        <ele>939</ele>
        <time>2021-06-27T09:30:08.070Z</time>
      </trkpt>
      <trkpt lat="45.54737" lon="6.0457">
        <ele>938</ele>
        <time>2021-06-27T09:30:09.070Z</time>
      </trkpt>
      <trkpt lat="45.54738" lon="6.04571">
        <ele>938</ele>
        <time>2021-06-27T09:30:10.070Z</time>
      </trkpt>
      <trkpt lat="45.54739" lon="6.04571">
        <ele>937</ele>
        <time>2021-06-27T09:30:11.070Z</time>
      </trkpt>
      <trkpt lat="45.5474" lon="6.04572">
        <ele>937</ele>
        <time>2021-06-27T09:30:12.070Z</time>
      </trkpt>
      <trkpt lat="45.54742" lon="6.04572">
        <ele>937</ele>
        <time>2021-06-27T09:30:13.070Z</time>
      </trkpt>
      <trkpt lat="45.54743" lon="6.04572">
        <ele>937</ele>
        <time>2021-06-27T09:30:14.070Z</time>
      </trkpt>
      <trkpt lat="45.54744" lon="6.04573">
        <ele>936</ele>
        <time>2021-06-27T09:30:15.071Z</time>
      </trkpt>
      <trkpt lat="45.54745" lon="6.04573">
        <ele>936</ele>
        <time>2021-06-27T09:30:16.071Z</time>
      </trkpt>
      <trkpt lat="45.54747" lon="6.04573">
        <ele>936</ele>
        <time>2021-06-27T09:30:17.070Z</time>
      </trkpt>
      <trkpt lat="45.54748" lon="6.04573">
        <ele>936</ele>
        <time>2021-06-27T09:30:18.071Z</time>
      </trkpt>
      <trkpt lat="45.5475" lon="6.04573">
        <ele>936</ele>
        <time>2021-06-27T09:30:19.071Z</time>
      </trkpt>
      <trkpt lat="45.54751" lon="6.04573">
        <ele>936</ele>
        <time>2021-06-27T09:30:20.071Z</time>
      </trkpt>
      <trkpt lat="45.54752" lon="6.04573">
        <ele>936</ele>
        <time>2021-06-27T09:30:21.071Z</time>
      </trkpt>
      <trkpt lat="45.54753" lon="6.04573">
        <ele>936</ele>
        <time>2021-06-27T09:30:22.071Z</time>
      </trkpt>
      <trkpt lat="45.54754" lon="6.04573">
        <ele>936</ele>
        <time>2021-06-27T09:30:23.071Z</time>
      </trkpt>
      <trkpt lat="45.54756" lon="6.04573">
        <ele>936</ele>
        <time>2021-06-27T09:30:24.071Z</time>
      </trkpt>
      <trkpt lat="45.54757" lon="6.04574">
        <ele>936</ele>
        <time>2021-06-27T09:30:25.070Z</time>
      </trkpt>
      <trkpt lat="45.54758" lon="6.04574">
        <ele>936</ele>
        <time>2021-06-27T09:30:26.071Z</time>
      </trkpt>
      <trkpt lat="45.54759" lon="6.04574">
        <ele>936</ele>
        <time>2021-06-27T09:30:27.070Z</time>
      </trkpt>
      <trkpt lat="45.5476" lon="6.04574">
        <ele>935</ele>
        <time>2021-06-27T09:30:28.070Z</time>
      </trkpt>
      <trkpt lat="45.54762" lon="6.04574">
        <ele>935</ele>
        <time>2021-06-27T09:30:29.070Z</time>
      </trkpt>
      <trkpt lat="45.54763" lon="6.04574">
        <ele>935</ele>
        <time>2021-06-27T09:30:30.071Z</time>
      </trkpt>
      <trkpt lat="45.54764" lon="6.04575">
        <ele>934</ele>
        <time>2021-06-27T09:30:31.071Z</time>
      </trkpt>
      <trkpt lat="45.54765" lon="6.04575">
        <ele>934</ele>
        <time>2021-06-27T09:30:32.071Z</time>
      </trkpt>
      <trkpt lat="45.54767" lon="6.04576">
        <ele>934</ele>
        <time>2021-06-27T09:30:33.070Z</time>
      </trkpt>
      <trkpt lat="45.54768" lon="6.04576">
        <ele>934</ele>
        <time>2021-06-27T09:30:34.070Z</time>
      </trkpt>
      <trkpt lat="45.54769" lon="6.04576">
        <ele>934</ele>
        <time>2021-06-27T09:30:35.070Z</time>
      </trkpt>
      <trkpt lat="45.5477" lon="6.04575">
        <ele>934</ele>
        <time>2021-06-27T09:30:36.071Z</time>
      </trkpt>
      <trkpt lat="45.54772" lon="6.04575">
        <ele>934</ele>
        <time>2021-06-27T09:30:37.070Z</time>
      </trkpt>
      <trkpt lat="45.54773" lon="6.04576">
        <ele>934</ele>
        <time>2021-06-27T09:30:38.070Z</time>
      </trkpt>
      <trkpt lat="45.54775" lon="6.04575">
        <ele>934</ele>
        <time>2021-06-27T09:30:39.070Z</time>
      </trkpt>
      <trkpt lat="45.54776" lon="6.04575">
        <ele>934</ele>
        <time>2021-06-27T09:30:40.071Z</time>
      </trkpt>
      <trkpt lat="45.54778" lon="6.04576">
        <ele>934</ele>
        <time>2021-06-27T09:30:41.071Z</time>
      </trkpt>
      <trkpt lat="45.54779" lon="6.04575">
        <ele>933</ele>
        <time>2021-06-27T09:30:42.071Z</time>
      </trkpt>
      <trkpt lat="45.54781" lon="6.04575">
        <ele>933</ele>
        <time>2021-06-27T09:30:43.070Z</time>
      </trkpt>
      <trkpt lat="45.54782" lon="6.04575">
        <ele>933</ele>
        <time>2021-06-27T09:30:44.070Z</time>
      </trkpt>
      <trkpt lat="45.54783" lon="6.04575">
        <ele>933</ele>
        <time>2021-06-27T09:30:45.071Z</time>
      </trkpt>
      <trkpt lat="45.54785" lon="6.04575">
        <ele>932</ele>
        <time>2021-06-27T09:30:46.071Z</time>
      </trkpt>
      <trkpt lat="45.54786" lon="6.04575">
        <ele>932</ele>
        <time>2021-06-27T09:30:47.070Z</time>
      </trkpt>
      <trkpt lat="45.54788" lon="6.04575">
        <ele>932</ele>
        <time>2021-06-27T09:30:48.070Z</time>
      </trkpt>
      <trkpt lat="45.54789" lon="6.04575">
        <ele>932</ele>
        <time>2021-06-27T09:30:49.070Z</time>
      </trkpt>
      <trkpt lat="45.5479" lon="6.04575">
        <ele>932</ele>
        <time>2021-06-27T09:30:50.070Z</time>
      </trkpt>
      <trkpt lat="45.54792" lon="6.04576">
        <ele>932</ele>
        <time>2021-06-27T09:30:51.071Z</time>
      </trkpt>
      <trkpt lat="45.54793" lon="6.04576">
        <ele>932</ele>
        <time>2021-06-27T09:30:52.071Z</time>
      </trkpt>
      <trkpt lat="45.54794" lon="6.04576">
        <ele>932</ele>
        <time>2021-06-27T09:30:53.070Z</time>
      </trkpt>
      <trkpt lat="45.54796" lon="6.04576">
        <ele>933</ele>
        <time>2021-06-27T09:30:54.070Z</time>
      </trkpt>
      <trkpt lat="45.54797" lon="6.04576">
        <ele>933</ele>
        <time>2021-06-27T09:30:55.070Z</time>
      </trkpt>
      <trkpt lat="45.54798" lon="6.04576">
        <ele>933</ele>
        <time>2021-06-27T09:30:56.070Z</time>
      </trkpt>
      <trkpt lat="45.54799" lon="6.04576">
        <ele>934</ele>
        <time>2021-06-27T09:30:57.070Z</time>
      </trkpt>
      <trkpt lat="45.54801" lon="6.04576">
        <ele>934</ele>
        <time>2021-06-27T09:30:58.070Z</time>
      </trkpt>
      <trkpt lat="45.54802" lon="6.04577">
        <ele>935</ele>
        <time>2021-06-27T09:30:59.070Z</time>
      </trkpt>
      <trkpt lat="45.54804" lon="6.04577">
        <ele>935</ele>
        <time>2021-06-27T09:31:00.070Z</time>
      </trkpt>
      <trkpt lat="45.54805" lon="6.04577">
        <ele>935</ele>
        <time>2021-06-27T09:31:01.070Z</time>
      </trkpt>
      <trkpt lat="45.54806" lon="6.04577">
        <ele>934</ele>
        <time>2021-06-27T09:31:02.070Z</time>
      </trkpt>
      <trkpt lat="45.54807" lon="6.04577">
        <ele>934</ele>
        <time>2021-06-27T09:31:03.071Z</time>
      </trkpt>
      <trkpt lat="45.54809" lon="6.04577">
        <ele>933</ele>
        <time>2021-06-27T09:31:04.070Z</time>
      </trkpt>
      <trkpt lat="45.5481" lon="6.04577">
        <ele>933</ele>
        <time>2021-06-27T09:31:05.070Z</time>
      </trkpt>
      <trkpt lat="45.54811" lon="6.04576">
        <ele>933</ele>
        <time>2021-06-27T09:31:06.071Z</time>
      </trkpt>
      <trkpt lat="45.54812" lon="6.04575">
        <ele>932</ele>
        <time>2021-06-27T09:31:07.071Z</time>
      </trkpt>
      <trkpt lat="45.54814" lon="6.04575">
        <ele>932</ele>
        <time>2021-06-27T09:31:08.071Z</time>
      </trkpt>
      <trkpt lat="45.54814" lon="6.04573">
        <ele>933</ele>
        <time>2021-06-27T09:31:09.071Z</time>
      </trkpt>
      <trkpt lat="45.54816" lon="6.04574">
        <ele>933</ele>
        <time>2021-06-27T09:31:10.070Z</time>
      </trkpt>
      <trkpt lat="45.54817" lon="6.04574">
        <ele>933</ele>
        <time>2021-06-27T09:31:11.071Z</time>
      </trkpt>
      <trkpt lat="45.54819" lon="6.04575">
        <ele>933</ele>
        <time>2021-06-27T09:31:12.071Z</time>
      </trkpt>
      <trkpt lat="45.5482" lon="6.04574">
        <ele>933</ele>
        <time>2021-06-27T09:31:13.071Z</time>
      </trkpt>
      <trkpt lat="45.54821" lon="6.04574">
        <ele>933</ele>
        <time>2021-06-27T09:31:14.071Z</time>
      </trkpt>
      <trkpt lat="45.54822" lon="6.04574">
        <ele>933</ele>
        <time>2021-06-27T09:31:15.071Z</time>
      </trkpt>
      <trkpt lat="45.54823" lon="6.04573">
        <ele>933</ele>
        <time>2021-06-27T09:31:16.071Z</time>
      </trkpt>
      <trkpt lat="45.54824" lon="6.04574">
        <ele>933</ele>
        <time>2021-06-27T09:31:17.070Z</time>
      </trkpt>
      <trkpt lat="45.54826" lon="6.04574">
        <ele>933</ele>
        <time>2021-06-27T09:31:18.071Z</time>
      </trkpt>
      <trkpt lat="45.54827" lon="6.04575">
        <ele>933</ele>
        <time>2021-06-27T09:31:19.071Z</time>
      </trkpt>
      <trkpt lat="45.54829" lon="6.04575">
        <ele>933</ele>
        <time>2021-06-27T09:31:20.071Z</time>
      </trkpt>
      <trkpt lat="45.5483" lon="6.04575">
        <ele>933</ele>
        <time>2021-06-27T09:31:21.071Z</time>
      </trkpt>
      <trkpt lat="45.54832" lon="6.04576">
        <ele>933</ele>
        <time>2021-06-27T09:31:22.071Z</time>
      </trkpt>
      <trkpt lat="45.54833" lon="6.04577">
        <ele>933</ele>
        <time>2021-06-27T09:31:23.071Z</time>
      </trkpt>
      <trkpt lat="45.54834" lon="6.04578">
        <ele>933</ele>
        <time>2021-06-27T09:31:24.071Z</time>
      </trkpt>
      <trkpt lat="45.54835" lon="6.04579">
        <ele>933</ele>
        <time>2021-06-27T09:31:25.071Z</time>
      </trkpt>
      <trkpt lat="45.54835" lon="6.0458">
        <ele>933</ele>
        <time>2021-06-27T09:31:26.071Z</time>
      </trkpt>
      <trkpt lat="45.54837" lon="6.04581">
        <ele>933</ele>
        <time>2021-06-27T09:31:27.070Z</time>
      </trkpt>
      <trkpt lat="45.54838" lon="6.04581">
        <ele>934</ele>
        <time>2021-06-27T09:31:28.071Z</time>
      </trkpt>
      <trkpt lat="45.54839" lon="6.04582">
        <ele>934</ele>
        <time>2021-06-27T09:31:29.071Z</time>
      </trkpt>
      <trkpt lat="45.5484" lon="6.04581">
        <ele>935</ele>
        <time>2021-06-27T09:31:30.071Z</time>
      </trkpt>
      <trkpt lat="45.54841" lon="6.04581">
        <ele>935</ele>
        <time>2021-06-27T09:31:31.071Z</time>
      </trkpt>
      <trkpt lat="45.54843" lon="6.04581">
        <ele>936</ele>
        <time>2021-06-27T09:31:32.071Z</time>
      </trkpt>
      <trkpt lat="45.54844" lon="6.04583">
        <ele>936</ele>
        <time>2021-06-27T09:31:33.071Z</time>
      </trkpt>
      <trkpt lat="45.54846" lon="6.04583">
        <ele>936</ele>
        <time>2021-06-27T09:31:34.071Z</time>
      </trkpt>
      <trkpt lat="45.54847" lon="6.04584">
        <ele>936</ele>
        <time>2021-06-27T09:31:35.071Z</time>
      </trkpt>
      <trkpt lat="45.54849" lon="6.04584">
        <ele>936</ele>
        <time>2021-06-27T09:31:36.071Z</time>
      </trkpt>
      <trkpt lat="45.5485" lon="6.04585">
        <ele>937</ele>
        <time>2021-06-27T09:31:37.071Z</time>
      </trkpt>
      <trkpt lat="45.54851" lon="6.04585">
        <ele>937</ele>
        <time>2021-06-27T09:31:38.071Z</time>
      </trkpt>
      <trkpt lat="45.54853" lon="6.04586">
        <ele>937</ele>
        <time>2021-06-27T09:31:39.071Z</time>
      </trkpt>
      <trkpt lat="45.54854" lon="6.04586">
        <ele>937</ele>
        <time>2021-06-27T09:31:40.071Z</time>
      </trkpt>
      <trkpt lat="45.54855" lon="6.04587">
        <ele>937</ele>
        <time>2021-06-27T09:31:41.070Z</time>
      </trkpt>
      <trkpt lat="45.54857" lon="6.04587">
        <ele>936</ele>
        <time>2021-06-27T09:31:42.070Z</time>
      </trkpt>
      <trkpt lat="45.54858" lon="6.04588">
        <ele>936</ele>
        <time>2021-06-27T09:31:43.070Z</time>
      </trkpt>
      <trkpt lat="45.54859" lon="6.04588">
        <ele>936</ele>
        <time>2021-06-27T09:31:44.071Z</time>
      </trkpt>
      <trkpt lat="45.5486" lon="6.04588">
        <ele>935</ele>
        <time>2021-06-27T09:31:45.071Z</time>
      </trkpt>
      <trkpt lat="45.54862" lon="6.04589">
        <ele>935</ele>
        <time>2021-06-27T09:31:46.071Z</time>
      </trkpt>
      <trkpt lat="45.54863" lon="6.04589">
        <ele>934</ele>
        <time>2021-06-27T09:31:47.071Z</time>
      </trkpt>
      <trkpt lat="45.54864" lon="6.04589">
        <ele>934</ele>
        <time>2021-06-27T09:31:48.071Z</time>
      </trkpt>
      <trkpt lat="45.54865" lon="6.0459">
        <ele>934</ele>
        <time>2021-06-27T09:31:49.071Z</time>
      </trkpt>
      <trkpt lat="45.54866" lon="6.0459">
        <ele>934</ele>
        <time>2021-06-27T09:31:50.071Z</time>
      </trkpt>
      <trkpt lat="45.54867" lon="6.04591">
        <ele>934</ele>
        <time>2021-06-27T09:31:51.071Z</time>
      </trkpt>
      <trkpt lat="45.54868" lon="6.04592">
        <ele>933</ele>
        <time>2021-06-27T09:31:52.071Z</time>
      </trkpt>
      <trkpt lat="45.5487" lon="6.04592">
        <ele>933</ele>
        <time>2021-06-27T09:31:53.070Z</time>
      </trkpt>
      <trkpt lat="45.54871" lon="6.04592">
        <ele>933</ele>
        <time>2021-06-27T09:31:54.071Z</time>
      </trkpt>
      <trkpt lat="45.54872" lon="6.04592">
        <ele>933</ele>
        <time>2021-06-27T09:31:55.071Z</time>
      </trkpt>
      <trkpt lat="45.54873" lon="6.04592">
        <ele>934</ele>
        <time>2021-06-27T09:31:56.071Z</time>
      </trkpt>
      <trkpt lat="45.54875" lon="6.04592">
        <ele>934</ele>
        <time>2021-06-27T09:31:57.071Z</time>
      </trkpt>
      <trkpt lat="45.54876" lon="6.04593">
        <ele>934</ele>
        <time>2021-06-27T09:31:58.071Z</time>
      </trkpt>
      <trkpt lat="45.54878" lon="6.04593">
        <ele>934</ele>
        <time>2021-06-27T09:31:59.071Z</time>
      </trkpt>
      <trkpt lat="45.54879" lon="6.04593">
        <ele>934</ele>
        <time>2021-06-27T09:32:00.071Z</time>
      </trkpt>
      <trkpt lat="45.5488" lon="6.04593">
        <ele>934</ele>
        <time>2021-06-27T09:32:01.071Z</time>
      </trkpt>
      <trkpt lat="45.54881" lon="6.04593">
        <ele>934</ele>
        <time>2021-06-27T09:32:02.071Z</time>
      </trkpt>
      <trkpt lat="45.54882" lon="6.04594">
        <ele>934</ele>
        <time>2021-06-27T09:32:03.070Z</time>
      </trkpt>
      <trkpt lat="45.54883" lon="6.04594">
        <ele>934</ele>
        <time>2021-06-27T09:32:04.071Z</time>
      </trkpt>
      <trkpt lat="45.54884" lon="6.04594">
        <ele>934</ele>
        <time>2021-06-27T09:32:05.070Z</time>
      </trkpt>
      <trkpt lat="45.54886" lon="6.04595">
        <ele>933</ele>
        <time>2021-06-27T09:32:06.071Z</time>
      </trkpt>
      <trkpt lat="45.54887" lon="6.04595">
        <ele>933</ele>
        <time>2021-06-27T09:32:07.071Z</time>
      </trkpt>
      <trkpt lat="45.54888" lon="6.04596">
        <ele>933</ele>
        <time>2021-06-27T09:32:08.070Z</time>
      </trkpt>
      <trkpt lat="45.54889" lon="6.04596">
        <ele>933</ele>
        <time>2021-06-27T09:32:09.071Z</time>
      </trkpt>
      <trkpt lat="45.54891" lon="6.04597">
        <ele>933</ele>
        <time>2021-06-27T09:32:10.071Z</time>
      </trkpt>
      <trkpt lat="45.54892" lon="6.04598">
        <ele>933</ele>
        <time>2021-06-27T09:32:11.071Z</time>
      </trkpt>
      <trkpt lat="45.54893" lon="6.04598">
        <ele>933</ele>
        <time>2021-06-27T09:32:12.071Z</time>
      </trkpt>
      <trkpt lat="45.54893" lon="6.04597">
        <ele>933</ele>
        <time>2021-06-27T09:32:13.070Z</time>
      </trkpt>
      <trkpt lat="45.54895" lon="6.04597">
        <ele>933</ele>
        <time>2021-06-27T09:32:14.071Z</time>
      </trkpt>
      <trkpt lat="45.54896" lon="6.04598">
        <ele>933</ele>
        <time>2021-06-27T09:32:15.071Z</time>
      </trkpt>
      <trkpt lat="45.54897" lon="6.04598">
        <ele>934</ele>
        <time>2021-06-27T09:32:16.071Z</time>
      </trkpt>
      <trkpt lat="45.54898" lon="6.04599">
        <ele>934</ele>
        <time>2021-06-27T09:32:17.071Z</time>
      </trkpt>
      <trkpt lat="45.54899" lon="6.04599">
        <ele>933</ele>
        <time>2021-06-27T09:32:18.071Z</time>
      </trkpt>
      <trkpt lat="45.549" lon="6.04599">
        <ele>934</ele>
        <time>2021-06-27T09:32:19.071Z</time>
      </trkpt>
      <trkpt lat="45.54901" lon="6.04599">
        <ele>934</ele>
        <time>2021-06-27T09:32:20.071Z</time>
      </trkpt>
      <trkpt lat="45.54902" lon="6.046">
        <ele>934</ele>
        <time>2021-06-27T09:32:21.071Z</time>
      </trkpt>
      <trkpt lat="45.54904" lon="6.046">
        <ele>934</ele>
        <time>2021-06-27T09:32:22.070Z</time>
      </trkpt>
      <trkpt lat="45.54905" lon="6.046">
        <ele>935</ele>
        <time>2021-06-27T09:32:23.071Z</time>
      </trkpt>
      <trkpt lat="45.54907" lon="6.04601">
        <ele>935</ele>
        <time>2021-06-27T09:32:24.070Z</time>
      </trkpt>
      <trkpt lat="45.54908" lon="6.04601">
        <ele>935</ele>
        <time>2021-06-27T09:32:25.071Z</time>
      </trkpt>
      <trkpt lat="45.5491" lon="6.04601">
        <ele>935</ele>
        <time>2021-06-27T09:32:26.071Z</time>
      </trkpt>
      <trkpt lat="45.54911" lon="6.04602">
        <ele>934</ele>
        <time>2021-06-27T09:32:27.071Z</time>
      </trkpt>
      <trkpt lat="45.54912" lon="6.04602">
        <ele>935</ele>
        <time>2021-06-27T09:32:28.071Z</time>
      </trkpt>
      <trkpt lat="45.54913" lon="6.04602">
        <ele>935</ele>
        <time>2021-06-27T09:32:29.071Z</time>
      </trkpt>
      <trkpt lat="45.54914" lon="6.04603">
        <ele>935</ele>
        <time>2021-06-27T09:32:30.071Z</time>
      </trkpt>
      <trkpt lat="45.54915" lon="6.04603">
        <ele>934</ele>
        <time>2021-06-27T09:32:31.071Z</time>
      </trkpt>
      <trkpt lat="45.54915" lon="6.04603">
        <ele>935</ele>
        <time>2021-06-27T09:32:32.070Z</time>
      </trkpt>
      <trkpt lat="45.54916" lon="6.04603">
        <ele>935</ele>
        <time>2021-06-27T09:32:33.071Z</time>
      </trkpt>
      <trkpt lat="45.54917" lon="6.04604">
        <ele>935</ele>
        <time>2021-06-27T09:32:34.071Z</time>
      </trkpt>
      <trkpt lat="45.54918" lon="6.04604">
        <ele>935</ele>
        <time>2021-06-27T09:32:35.071Z</time>
      </trkpt>
      <trkpt lat="45.54919" lon="6.04605">
        <ele>935</ele>
        <time>2021-06-27T09:32:36.071Z</time>
      </trkpt>
      <trkpt lat="45.5492" lon="6.04606">
        <ele>936</ele>
        <time>2021-06-27T09:32:37.071Z</time>
      </trkpt>
      <trkpt lat="45.54921" lon="6.04606">
        <ele>936</ele>
        <time>2021-06-27T09:32:38.071Z</time>
      </trkpt>
      <trkpt lat="45.54922" lon="6.04607">
        <ele>936</ele>
        <time>2021-06-27T09:32:39.071Z</time>
      </trkpt>
      <trkpt lat="45.54922" lon="6.04607">
        <ele>936</ele>
        <time>2021-06-27T09:32:40.070Z</time>
      </trkpt>
      <trkpt lat="45.54923" lon="6.04607">
        <ele>937</ele>
        <time>2021-06-27T09:32:41.070Z</time>
      </trkpt>
      <trkpt lat="45.54924" lon="6.04607">
        <ele>937</ele>
        <time>2021-06-27T09:32:42.071Z</time>
      </trkpt>
      <trkpt lat="45.54925" lon="6.04606">
        <ele>937</ele>
        <time>2021-06-27T09:32:43.071Z</time>
      </trkpt>
      <trkpt lat="45.54926" lon="6.04606">
        <ele>938</ele>
        <time>2021-06-27T09:32:44.071Z</time>
      </trkpt>
      <trkpt lat="45.54927" lon="6.04607">
        <ele>938</ele>
        <time>2021-06-27T09:32:45.071Z</time>
      </trkpt>
      <trkpt lat="45.54928" lon="6.04607">
        <ele>937</ele>
        <time>2021-06-27T09:32:46.071Z</time>
      </trkpt>
      <trkpt lat="45.54929" lon="6.04609">
        <ele>937</ele>
        <time>2021-06-27T09:32:47.071Z</time>
      </trkpt>
      <trkpt lat="45.5493" lon="6.0461">
        <ele>936</ele>
        <time>2021-06-27T09:32:48.071Z</time>
      </trkpt>
      <trkpt lat="45.5493" lon="6.0461">
        <ele>936</ele>
        <time>2021-06-27T09:32:49.071Z</time>
      </trkpt>
      <trkpt lat="45.54931" lon="6.0461">
        <ele>936</ele>
        <time>2021-06-27T09:32:50.071Z</time>
      </trkpt>
      <trkpt lat="45.54932" lon="6.0461">
        <ele>936</ele>
        <time>2021-06-27T09:32:51.071Z</time>
      </trkpt>
      <trkpt lat="45.54933" lon="6.04611">
        <ele>936</ele>
        <time>2021-06-27T09:32:52.071Z</time>
      </trkpt>
      <trkpt lat="45.54933" lon="6.04611">
        <ele>937</ele>
        <time>2021-06-27T09:32:53.071Z</time>
      </trkpt>
      <trkpt lat="45.54935" lon="6.04612">
        <ele>937</ele>
        <time>2021-06-27T09:32:54.071Z</time>
      </trkpt>
      <trkpt lat="45.54935" lon="6.04612">
        <ele>938</ele>
        <time>2021-06-27T09:32:55.071Z</time>
      </trkpt>
      <trkpt lat="45.54936" lon="6.04613">
        <ele>938</ele>
        <time>2021-06-27T09:32:56.071Z</time>
      </trkpt>
      <trkpt lat="45.54937" lon="6.04614">
        <ele>939</ele>
        <time>2021-06-27T09:32:57.071Z</time>
      </trkpt>
      <trkpt lat="45.54938" lon="6.04614">
        <ele>939</ele>
        <time>2021-06-27T09:32:58.071Z</time>
      </trkpt>
      <trkpt lat="45.54939" lon="6.04615">
        <ele>939</ele>
        <time>2021-06-27T09:32:59.071Z</time>
      </trkpt>
      <trkpt lat="45.5494" lon="6.04615">
        <ele>939</ele>
        <time>2021-06-27T09:33:00.071Z</time>
      </trkpt>
      <trkpt lat="45.54941" lon="6.04615">
        <ele>939</ele>
        <time>2021-06-27T09:33:01.071Z</time>
      </trkpt>
      <trkpt lat="45.54942" lon="6.04616">
        <ele>939</ele>
        <time>2021-06-27T09:33:02.070Z</time>
      </trkpt>
      <trkpt lat="45.54943" lon="6.04617">
        <ele>938</ele>
        <time>2021-06-27T09:33:03.071Z</time>
      </trkpt>
      <trkpt lat="45.54944" lon="6.04618">
        <ele>938</ele>
        <time>2021-06-27T09:33:04.071Z</time>
      </trkpt>
      <trkpt lat="45.54945" lon="6.04619">
        <ele>938</ele>
        <time>2021-06-27T09:33:05.070Z</time>
      </trkpt>
      <trkpt lat="45.54946" lon="6.0462">
        <ele>937</ele>
        <time>2021-06-27T09:33:06.070Z</time>
      </trkpt>
      <trkpt lat="45.54947" lon="6.04621">
        <ele>937</ele>
        <time>2021-06-27T09:33:07.070Z</time>
      </trkpt>
      <trkpt lat="45.54948" lon="6.04621">
        <ele>937</ele>
        <time>2021-06-27T09:33:08.071Z</time>
      </trkpt>
      <trkpt lat="45.54948" lon="6.04621">
        <ele>937</ele>
        <time>2021-06-27T09:33:09.071Z</time>
      </trkpt>
      <trkpt lat="45.54949" lon="6.04622">
        <ele>937</ele>
        <time>2021-06-27T09:33:10.071Z</time>
      </trkpt>
      <trkpt lat="45.5495" lon="6.04623">
        <ele>936</ele>
        <time>2021-06-27T09:33:11.071Z</time>
      </trkpt>
      <trkpt lat="45.54951" lon="6.04625">
        <ele>936</ele>
        <time>2021-06-27T09:33:12.070Z</time>
      </trkpt>
      <trkpt lat="45.54953" lon="6.04626">
        <ele>935</ele>
        <time>2021-06-27T09:33:13.071Z</time>
      </trkpt>
      <trkpt lat="45.54955" lon="6.04626">
        <ele>935</ele>
        <time>2021-06-27T09:33:14.071Z</time>
      </trkpt>
      <trkpt lat="45.54955" lon="6.04627">
        <ele>935</ele>
        <time>2021-06-27T09:33:15.070Z</time>
      </trkpt>
      <trkpt lat="45.54957" lon="6.04628">
        <ele>935</ele>
        <time>2021-06-27T09:33:16.070Z</time>
      </trkpt>
      <trkpt lat="45.54957" lon="6.04629">
        <ele>935</ele>
        <time>2021-06-27T09:33:17.071Z</time>
      </trkpt>
      <trkpt lat="45.54958" lon="6.0463">
        <ele>936</ele>
        <time>2021-06-27T09:33:18.070Z</time>
      </trkpt>
      <trkpt lat="45.54959" lon="6.04631">
        <ele>936</ele>
        <time>2021-06-27T09:33:19.070Z</time>
      </trkpt>
      <trkpt lat="45.54961" lon="6.04632">
        <ele>936</ele>
        <time>2021-06-27T09:33:20.071Z</time>
      </trkpt>
      <trkpt lat="45.54962" lon="6.04632">
        <ele>937</ele>
        <time>2021-06-27T09:33:21.071Z</time>
      </trkpt>
      <trkpt lat="45.54963" lon="6.04632">
        <ele>937</ele>
        <time>2021-06-27T09:33:22.071Z</time>
      </trkpt>
      <trkpt lat="45.54965" lon="6.04632">
        <ele>938</ele>
        <time>2021-06-27T09:33:23.071Z</time>
      </trkpt>
      <trkpt lat="45.54966" lon="6.04633">
        <ele>938</ele>
        <time>2021-06-27T09:33:24.071Z</time>
      </trkpt>
      <trkpt lat="45.54967" lon="6.04633">
        <ele>939</ele>
        <time>2021-06-27T09:33:25.070Z</time>
      </trkpt>
      <trkpt lat="45.54968" lon="6.04634">
        <ele>939</ele>
        <time>2021-06-27T09:33:26.071Z</time>
      </trkpt>
      <trkpt lat="45.54968" lon="6.04634">
        <ele>939</ele>
        <time>2021-06-27T09:33:27.071Z</time>
      </trkpt>
      <trkpt lat="45.5497" lon="6.04634">
        <ele>939</ele>
        <time>2021-06-27T09:33:28.071Z</time>
      </trkpt>
      <trkpt lat="45.54971" lon="6.04634">
        <ele>939</ele>
        <time>2021-06-27T09:33:29.070Z</time>
      </trkpt>
      <trkpt lat="45.54972" lon="6.04635">
        <ele>940</ele>
        <time>2021-06-27T09:33:30.071Z</time>
      </trkpt>
      <trkpt lat="45.54973" lon="6.04636">
        <ele>940</ele>
        <time>2021-06-27T09:33:31.071Z</time>
      </trkpt>
      <trkpt lat="45.54974" lon="6.04636">
        <ele>940</ele>
        <time>2021-06-27T09:33:32.070Z</time>
      </trkpt>
      <trkpt lat="45.54975" lon="6.04637">
        <ele>940</ele>
        <time>2021-06-27T09:33:33.070Z</time>
      </trkpt>
      <trkpt lat="45.54976" lon="6.04637">
        <ele>939</ele>
        <time>2021-06-27T09:33:34.071Z</time>
      </trkpt>
      <trkpt lat="45.54977" lon="6.04638">
        <ele>939</ele>
        <time>2021-06-27T09:33:35.071Z</time>
      </trkpt>
      <trkpt lat="45.54979" lon="6.04638">
        <ele>939</ele>
        <time>2021-06-27T09:33:36.070Z</time>
      </trkpt>
      <trkpt lat="45.5498" lon="6.04639">
        <ele>939</ele>
        <time>2021-06-27T09:33:37.070Z</time>
      </trkpt>
      <trkpt lat="45.54981" lon="6.04639">
        <ele>939</ele>
        <time>2021-06-27T09:33:38.071Z</time>
      </trkpt>
      <trkpt lat="45.54982" lon="6.0464">
        <ele>938</ele>
        <time>2021-06-27T09:33:39.071Z</time>
      </trkpt>
      <trkpt lat="45.54983" lon="6.04641">
        <ele>938</ele>
        <time>2021-06-27T09:33:40.071Z</time>
      </trkpt>
      <trkpt lat="45.54985" lon="6.04641">
        <ele>938</ele>
        <time>2021-06-27T09:33:41.071Z</time>
      </trkpt>
      <trkpt lat="45.54986" lon="6.04642">
        <ele>938</ele>
        <time>2021-06-27T09:33:42.070Z</time>
      </trkpt>
      <trkpt lat="45.54987" lon="6.04642">
        <ele>938</ele>
        <time>2021-06-27T09:33:43.070Z</time>
      </trkpt>
      <trkpt lat="45.54988" lon="6.04643">
        <ele>938</ele>
        <time>2021-06-27T09:33:44.071Z</time>
      </trkpt>
      <trkpt lat="45.54989" lon="6.04644">
        <ele>938</ele>
        <time>2021-06-27T09:33:45.071Z</time>
      </trkpt>
      <trkpt lat="45.5499" lon="6.04644">
        <ele>938</ele>
        <time>2021-06-27T09:33:46.070Z</time>
      </trkpt>
      <trkpt lat="45.54991" lon="6.04645">
        <ele>938</ele>
        <time>2021-06-27T09:33:47.071Z</time>
      </trkpt>
      <trkpt lat="45.54992" lon="6.04646">
        <ele>938</ele>
        <time>2021-06-27T09:33:48.071Z</time>
      </trkpt>
      <trkpt lat="45.54993" lon="6.04646">
        <ele>938</ele>
        <time>2021-06-27T09:33:49.070Z</time>
      </trkpt>
      <trkpt lat="45.54994" lon="6.04647">
        <ele>938</ele>
        <time>2021-06-27T09:33:50.071Z</time>
      </trkpt>
      <trkpt lat="45.54995" lon="6.04647">
        <ele>938</ele>
        <time>2021-06-27T09:33:51.071Z</time>
      </trkpt>
      <trkpt lat="45.54996" lon="6.04647">
        <ele>939</ele>
        <time>2021-06-27T09:33:52.071Z</time>
      </trkpt>
      <trkpt lat="45.54997" lon="6.04647">
        <ele>939</ele>
        <time>2021-06-27T09:33:53.071Z</time>
      </trkpt>
      <trkpt lat="45.54999" lon="6.04648">
        <ele>939</ele>
        <time>2021-06-27T09:33:54.071Z</time>
      </trkpt>
      <trkpt lat="45.55" lon="6.04648">
        <ele>939</ele>
        <time>2021-06-27T09:33:55.070Z</time>
      </trkpt>
      <trkpt lat="45.55001" lon="6.0465">
        <ele>939</ele>
        <time>2021-06-27T09:33:56.071Z</time>
      </trkpt>
      <trkpt lat="45.55001" lon="6.0465">
        <ele>939</ele>
        <time>2021-06-27T09:33:57.071Z</time>
      </trkpt>
      <trkpt lat="45.55002" lon="6.04651">
        <ele>940</ele>
        <time>2021-06-27T09:33:58.071Z</time>
      </trkpt>
      <trkpt lat="45.55003" lon="6.04651">
        <ele>940</ele>
        <time>2021-06-27T09:33:59.070Z</time>
      </trkpt>
      <trkpt lat="45.55004" lon="6.04651">
        <ele>940</ele>
        <time>2021-06-27T09:34:00.070Z</time>
      </trkpt>
      <trkpt lat="45.55005" lon="6.04649">
        <ele>940</ele>
        <time>2021-06-27T09:34:01.071Z</time>
      </trkpt>
      <trkpt lat="45.55005" lon="6.04649">
        <ele>941</ele>
        <time>2021-06-27T09:34:02.071Z</time>
      </trkpt>
      <trkpt lat="45.55006" lon="6.04648">
        <ele>941</ele>
        <time>2021-06-27T09:34:03.071Z</time>
      </trkpt>
      <trkpt lat="45.55007" lon="6.04648">
        <ele>941</ele>
        <time>2021-06-27T09:34:04.071Z</time>
      </trkpt>
      <trkpt lat="45.55007" lon="6.04646">
        <ele>941</ele>
        <time>2021-06-27T09:34:05.071Z</time>
      </trkpt>
      <trkpt lat="45.55008" lon="6.04646">
        <ele>942</ele>
        <time>2021-06-27T09:34:06.071Z</time>
      </trkpt>
      <trkpt lat="45.55008" lon="6.04645">
        <ele>942</ele>
        <time>2021-06-27T09:34:07.071Z</time>
      </trkpt>
      <trkpt lat="45.55009" lon="6.04645">
        <ele>943</ele>
        <time>2021-06-27T09:34:08.070Z</time>
      </trkpt>
      <trkpt lat="45.55009" lon="6.04644">
        <ele>943</ele>
        <time>2021-06-27T09:34:09.071Z</time>
      </trkpt>
      <trkpt lat="45.55009" lon="6.04644">
        <ele>944</ele>
        <time>2021-06-27T09:34:10.071Z</time>
      </trkpt>
      <trkpt lat="45.55009" lon="6.04643">
        <ele>945</ele>
        <time>2021-06-27T09:34:11.071Z</time>
      </trkpt>
      <trkpt lat="45.55009" lon="6.04643">
        <ele>946</ele>
        <time>2021-06-27T09:34:12.071Z</time>
      </trkpt>
      <trkpt lat="45.55009" lon="6.04642">
        <ele>948</ele>
        <time>2021-06-27T09:34:13.071Z</time>
      </trkpt>
      <trkpt lat="45.55009" lon="6.04642">
        <ele>949</ele>
        <time>2021-06-27T09:34:14.071Z</time>
      </trkpt>
      <trkpt lat="45.55009" lon="6.04642">
        <ele>950</ele>
        <time>2021-06-27T09:34:15.071Z</time>
      </trkpt>
      <trkpt lat="45.55009" lon="6.04642">
        <ele>950</ele>
        <time>2021-06-27T09:34:16.071Z</time>
      </trkpt>
      <trkpt lat="45.55009" lon="6.04643">
        <ele>950</ele>
        <time>2021-06-27T09:34:17.070Z</time>
      </trkpt>
      <trkpt lat="45.5501" lon="6.04643">
        <ele>950</ele>
        <time>2021-06-27T09:34:18.071Z</time>
      </trkpt>
      <trkpt lat="45.55011" lon="6.04643">
        <ele>949</ele>
        <time>2021-06-27T09:34:19.071Z</time>
      </trkpt>
      <trkpt lat="45.55011" lon="6.04644">
        <ele>949</ele>
        <time>2021-06-27T09:34:20.071Z</time>
      </trkpt>
      <trkpt lat="45.55011" lon="6.04646">
        <ele>948</ele>
        <time>2021-06-27T09:34:21.071Z</time>
      </trkpt>
      <trkpt lat="45.55012" lon="6.04647">
        <ele>947</ele>
        <time>2021-06-27T09:34:22.070Z</time>
      </trkpt>
      <trkpt lat="45.55013" lon="6.04648">
        <ele>947</ele>
        <time>2021-06-27T09:34:23.070Z</time>
      </trkpt>
      <trkpt lat="45.55013" lon="6.04649">
        <ele>946</ele>
        <time>2021-06-27T09:34:24.071Z</time>
      </trkpt>
      <trkpt lat="45.55013" lon="6.0465">
        <ele>946</ele>
        <time>2021-06-27T09:34:25.071Z</time>
      </trkpt>
      <trkpt lat="45.55014" lon="6.04651">
        <ele>946</ele>
        <time>2021-06-27T09:34:26.070Z</time>
      </trkpt>
      <trkpt lat="45.55015" lon="6.04652">
        <ele>946</ele>
        <time>2021-06-27T09:34:27.070Z</time>
      </trkpt>
      <trkpt lat="45.55016" lon="6.04653">
        <ele>946</ele>
        <time>2021-06-27T09:34:28.071Z</time>
      </trkpt>
      <trkpt lat="45.55017" lon="6.04653">
        <ele>946</ele>
        <time>2021-06-27T09:34:29.071Z</time>
      </trkpt>
      <trkpt lat="45.55019" lon="6.04654">
        <ele>946</ele>
        <time>2021-06-27T09:34:30.071Z</time>
      </trkpt>
      <trkpt lat="45.5502" lon="6.04655">
        <ele>946</ele>
        <time>2021-06-27T09:34:31.071Z</time>
      </trkpt>
      <trkpt lat="45.55021" lon="6.04657">
        <ele>945</ele>
        <time>2021-06-27T09:34:32.071Z</time>
      </trkpt>
      <trkpt lat="45.55023" lon="6.04658">
        <ele>945</ele>
        <time>2021-06-27T09:34:33.071Z</time>
      </trkpt>
      <trkpt lat="45.55024" lon="6.0466">
        <ele>944</ele>
        <time>2021-06-27T09:34:34.071Z</time>
      </trkpt>
      <trkpt lat="45.55025" lon="6.0466">
        <ele>944</ele>
        <time>2021-06-27T09:34:35.071Z</time>
      </trkpt>
      <trkpt lat="45.55026" lon="6.04661">
        <ele>943</ele>
        <time>2021-06-27T09:34:36.070Z</time>
      </trkpt>
      <trkpt lat="45.55027" lon="6.04662">
        <ele>943</ele>
        <time>2021-06-27T09:34:37.070Z</time>
      </trkpt>
      <trkpt lat="45.55028" lon="6.04663">
        <ele>942</ele>
        <time>2021-06-27T09:34:38.071Z</time>
      </trkpt>
      <trkpt lat="45.55028" lon="6.04664">
        <ele>941</ele>
        <time>2021-06-27T09:34:39.071Z</time>
      </trkpt>
      <trkpt lat="45.55029" lon="6.04665">
        <ele>941</ele>
        <time>2021-06-27T09:34:40.071Z</time>
      </trkpt>
      <trkpt lat="45.55029" lon="6.04666">
        <ele>940</ele>
        <time>2021-06-27T09:34:41.071Z</time>
      </trkpt>
      <trkpt lat="45.55029" lon="6.04666">
        <ele>940</ele>
        <time>2021-06-27T09:34:42.071Z</time>
      </trkpt>
      <trkpt lat="45.5503" lon="6.04667">
        <ele>939</ele>
        <time>2021-06-27T09:34:43.070Z</time>
      </trkpt>
      <trkpt lat="45.55031" lon="6.04668">
        <ele>939</ele>
        <time>2021-06-27T09:34:44.071Z</time>
      </trkpt>
      <trkpt lat="45.55032" lon="6.04669">
        <ele>938</ele>
        <time>2021-06-27T09:34:45.071Z</time>
      </trkpt>
      <trkpt lat="45.55033" lon="6.0467">
        <ele>938</ele>
        <time>2021-06-27T09:34:46.070Z</time>
      </trkpt>
      <trkpt lat="45.55034" lon="6.04671">
        <ele>938</ele>
        <time>2021-06-27T09:34:47.071Z</time>
      </trkpt>
      <trkpt lat="45.55035" lon="6.04672">
        <ele>937</ele>
        <time>2021-06-27T09:34:48.071Z</time>
      </trkpt>
      <trkpt lat="45.55036" lon="6.04673">
        <ele>937</ele>
        <time>2021-06-27T09:34:49.071Z</time>
      </trkpt>
      <trkpt lat="45.55036" lon="6.04674">
        <ele>937</ele>
        <time>2021-06-27T09:34:50.071Z</time>
      </trkpt>
      <trkpt lat="45.55037" lon="6.04674">
        <ele>937</ele>
        <time>2021-06-27T09:34:51.071Z</time>
      </trkpt>
      <trkpt lat="45.55037" lon="6.04674">
        <ele>938</ele>
        <time>2021-06-27T09:34:52.071Z</time>
      </trkpt>
      <trkpt lat="45.55037" lon="6.04674">
        <ele>938</ele>
        <time>2021-06-27T09:34:53.071Z</time>
      </trkpt>
      <trkpt lat="45.55038" lon="6.04675">
        <ele>939</ele>
        <time>2021-06-27T09:34:54.070Z</time>
      </trkpt>
      <trkpt lat="45.55039" lon="6.04675">
        <ele>939</ele>
        <time>2021-06-27T09:34:55.071Z</time>
      </trkpt>
      <trkpt lat="45.55039" lon="6.04676">
        <ele>940</ele>
        <time>2021-06-27T09:34:56.070Z</time>
      </trkpt>
      <trkpt lat="45.5504" lon="6.04678">
        <ele>941</ele>
        <time>2021-06-27T09:34:57.071Z</time>
      </trkpt>
      <trkpt lat="45.55041" lon="6.0468">
        <ele>941</ele>
        <time>2021-06-27T09:34:58.071Z</time>
      </trkpt>
      <trkpt lat="45.55042" lon="6.04681">
        <ele>942</ele>
        <time>2021-06-27T09:34:59.070Z</time>
      </trkpt>
      <trkpt lat="45.55043" lon="6.04682">
        <ele>942</ele>
        <time>2021-06-27T09:35:00.071Z</time>
      </trkpt>
      <trkpt lat="45.55044" lon="6.04683">
        <ele>943</ele>
        <time>2021-06-27T09:35:01.070Z</time>
      </trkpt>
      <trkpt lat="45.55044" lon="6.04685">
        <ele>944</ele>
        <time>2021-06-27T09:35:02.071Z</time>
      </trkpt>
      <trkpt lat="45.55045" lon="6.04686">
        <ele>945</ele>
        <time>2021-06-27T09:35:03.071Z</time>
      </trkpt>
      <trkpt lat="45.55046" lon="6.04687">
        <ele>945</ele>
        <time>2021-06-27T09:35:04.071Z</time>
      </trkpt>
      <trkpt lat="45.55046" lon="6.04688">
        <ele>946</ele>
        <time>2021-06-27T09:35:05.071Z</time>
      </trkpt>
      <trkpt lat="45.55047" lon="6.04689">
        <ele>947</ele>
        <time>2021-06-27T09:35:06.071Z</time>
      </trkpt>
      <trkpt lat="45.55047" lon="6.0469">
        <ele>948</ele>
        <time>2021-06-27T09:35:07.071Z</time>
      </trkpt>
      <trkpt lat="45.55048" lon="6.04692">
        <ele>949</ele>
        <time>2021-06-27T09:35:08.071Z</time>
      </trkpt>
      <trkpt lat="45.55049" lon="6.04693">
        <ele>950</ele>
        <time>2021-06-27T09:35:09.070Z</time>
      </trkpt>
      <trkpt lat="45.5505" lon="6.04694">
        <ele>950</ele>
        <time>2021-06-27T09:35:10.070Z</time>
      </trkpt>
      <trkpt lat="45.55051" lon="6.04694">
        <ele>951</ele>
        <time>2021-06-27T09:35:11.071Z</time>
      </trkpt>
      <trkpt lat="45.55052" lon="6.04696">
        <ele>952</ele>
        <time>2021-06-27T09:35:12.071Z</time>
      </trkpt>
      <trkpt lat="45.55053" lon="6.04697">
        <ele>952</ele>
        <time>2021-06-27T09:35:13.070Z</time>
      </trkpt>
      <trkpt lat="45.55054" lon="6.04698">
        <ele>952</ele>
        <time>2021-06-27T09:35:14.071Z</time>
      </trkpt>
      <trkpt lat="45.55055" lon="6.04698">
        <ele>952</ele>
        <time>2021-06-27T09:35:15.070Z</time>
      </trkpt>
      <trkpt lat="45.55057" lon="6.047">
        <ele>952</ele>
        <time>2021-06-27T09:35:16.071Z</time>
      </trkpt>
      <trkpt lat="45.55057" lon="6.047">
        <ele>952</ele>
        <time>2021-06-27T09:35:17.071Z</time>
      </trkpt>
      <trkpt lat="45.55058" lon="6.04701">
        <ele>953</ele>
        <time>2021-06-27T09:35:18.071Z</time>
      </trkpt>
      <trkpt lat="45.55059" lon="6.047">
        <ele>953</ele>
        <time>2021-06-27T09:35:19.071Z</time>
      </trkpt>
      <trkpt lat="45.5506" lon="6.047">
        <ele>953</ele>
        <time>2021-06-27T09:35:20.070Z</time>
      </trkpt>
      <trkpt lat="45.55061" lon="6.04701">
        <ele>954</ele>
        <time>2021-06-27T09:35:21.070Z</time>
      </trkpt>
      <trkpt lat="45.55063" lon="6.04701">
        <ele>954</ele>
        <time>2021-06-27T09:35:22.071Z</time>
      </trkpt>
      <trkpt lat="45.55065" lon="6.04703">
        <ele>955</ele>
        <time>2021-06-27T09:35:23.071Z</time>
      </trkpt>
      <trkpt lat="45.55066" lon="6.04703">
        <ele>955</ele>
        <time>2021-06-27T09:35:24.071Z</time>
      </trkpt>
      <trkpt lat="45.55067" lon="6.04704">
        <ele>956</ele>
        <time>2021-06-27T09:35:25.071Z</time>
      </trkpt>
      <trkpt lat="45.55068" lon="6.04705">
        <ele>956</ele>
        <time>2021-06-27T09:35:26.071Z</time>
      </trkpt>
      <trkpt lat="45.55068" lon="6.04705">
        <ele>957</ele>
        <time>2021-06-27T09:35:27.071Z</time>
      </trkpt>
      <trkpt lat="45.5507" lon="6.04706">
        <ele>957</ele>
        <time>2021-06-27T09:35:28.071Z</time>
      </trkpt>
      <trkpt lat="45.5507" lon="6.04707">
        <ele>957</ele>
        <time>2021-06-27T09:35:29.071Z</time>
      </trkpt>
      <trkpt lat="45.55071" lon="6.04708">
        <ele>957</ele>
        <time>2021-06-27T09:35:30.071Z</time>
      </trkpt>
      <trkpt lat="45.55071" lon="6.04708">
        <ele>957</ele>
        <time>2021-06-27T09:35:31.071Z</time>
      </trkpt>
      <trkpt lat="45.55073" lon="6.04708">
        <ele>957</ele>
        <time>2021-06-27T09:35:32.071Z</time>
      </trkpt>
      <trkpt lat="45.55073" lon="6.04707">
        <ele>957</ele>
        <time>2021-06-27T09:35:33.070Z</time>
      </trkpt>
      <trkpt lat="45.55073" lon="6.04706">
        <ele>956</ele>
        <time>2021-06-27T09:35:34.071Z</time>
      </trkpt>
      <trkpt lat="45.55074" lon="6.04706">
        <ele>956</ele>
        <time>2021-06-27T09:35:35.070Z</time>
      </trkpt>
      <trkpt lat="45.55075" lon="6.04706">
        <ele>956</ele>
        <time>2021-06-27T09:35:36.071Z</time>
      </trkpt>
      <trkpt lat="45.55077" lon="6.04707">
        <ele>955</ele>
        <time>2021-06-27T09:35:37.071Z</time>
      </trkpt>
      <trkpt lat="45.55077" lon="6.04706">
        <ele>955</ele>
        <time>2021-06-27T09:35:38.071Z</time>
      </trkpt>
      <trkpt lat="45.55078" lon="6.04705">
        <ele>955</ele>
        <time>2021-06-27T09:35:39.071Z</time>
      </trkpt>
      <trkpt lat="45.55078" lon="6.04704">
        <ele>955</ele>
        <time>2021-06-27T09:35:40.071Z</time>
      </trkpt>
      <trkpt lat="45.55079" lon="6.04704">
        <ele>955</ele>
        <time>2021-06-27T09:35:41.071Z</time>
      </trkpt>
      <trkpt lat="45.5508" lon="6.04703">
        <ele>955</ele>
        <time>2021-06-27T09:35:42.070Z</time>
      </trkpt>
      <trkpt lat="45.5508" lon="6.04703">
        <ele>955</ele>
        <time>2021-06-27T09:35:43.070Z</time>
      </trkpt>
      <trkpt lat="45.55081" lon="6.04704">
        <ele>955</ele>
        <time>2021-06-27T09:35:44.070Z</time>
      </trkpt>
      <trkpt lat="45.5508" lon="6.04704">
        <ele>955</ele>
        <time>2021-06-27T09:35:45.071Z</time>
      </trkpt>
      <trkpt lat="45.5508" lon="6.04705">
        <ele>955</ele>
        <time>2021-06-27T09:35:46.071Z</time>
      </trkpt>
      <trkpt lat="45.55079" lon="6.04704">
        <ele>955</ele>
        <time>2021-06-27T09:35:47.071Z</time>
      </trkpt>
      <trkpt lat="45.5508" lon="6.04705">
        <ele>955</ele>
        <time>2021-06-27T09:35:48.070Z</time>
      </trkpt>
      <trkpt lat="45.5508" lon="6.04706">
        <ele>955</ele>
        <time>2021-06-27T09:35:49.070Z</time>
      </trkpt>
      <trkpt lat="45.5508" lon="6.04707">
        <ele>955</ele>
        <time>2021-06-27T09:35:50.071Z</time>
      </trkpt>
      <trkpt lat="45.5508" lon="6.04707">
        <ele>955</ele>
        <time>2021-06-27T09:35:51.070Z</time>
      </trkpt>
      <trkpt lat="45.5508" lon="6.04708">
        <ele>955</ele>
        <time>2021-06-27T09:35:52.070Z</time>
      </trkpt>
      <trkpt lat="45.5508" lon="6.04709">
        <ele>955</ele>
        <time>2021-06-27T09:35:53.071Z</time>
      </trkpt>
      <trkpt lat="45.5508" lon="6.04711">
        <ele>955</ele>
        <time>2021-06-27T09:35:54.070Z</time>
      </trkpt>
      <trkpt lat="45.55081" lon="6.04711">
        <ele>955</ele>
        <time>2021-06-27T09:35:55.071Z</time>
      </trkpt>
      <trkpt lat="45.55081" lon="6.04712">
        <ele>954</ele>
        <time>2021-06-27T09:35:56.071Z</time>
      </trkpt>
      <trkpt lat="45.55081" lon="6.04712">
        <ele>954</ele>
        <time>2021-06-27T09:35:57.071Z</time>
      </trkpt>
      <trkpt lat="45.55082" lon="6.04711">
        <ele>954</ele>
        <time>2021-06-27T09:35:58.071Z</time>
      </trkpt>
      <trkpt lat="45.55082" lon="6.04711">
        <ele>954</ele>
        <time>2021-06-27T09:35:59.071Z</time>
      </trkpt>
      <trkpt lat="45.55083" lon="6.04711">
        <ele>953</ele>
        <time>2021-06-27T09:36:00.071Z</time>
      </trkpt>
      <trkpt lat="45.55083" lon="6.04712">
        <ele>953</ele>
        <time>2021-06-27T09:36:01.071Z</time>
      </trkpt>
      <trkpt lat="45.55083" lon="6.04713">
        <ele>953</ele>
        <time>2021-06-27T09:36:02.071Z</time>
      </trkpt>
      <trkpt lat="45.55084" lon="6.04713">
        <ele>953</ele>
        <time>2021-06-27T09:36:03.071Z</time>
      </trkpt>
      <trkpt lat="45.55084" lon="6.04714">
        <ele>953</ele>
        <time>2021-06-27T09:36:04.070Z</time>
      </trkpt>
      <trkpt lat="45.55085" lon="6.04714">
        <ele>954</ele>
        <time>2021-06-27T09:36:05.071Z</time>
      </trkpt>
      <trkpt lat="45.55085" lon="6.04714">
        <ele>954</ele>
        <time>2021-06-27T09:36:06.071Z</time>
      </trkpt>
      <trkpt lat="45.55085" lon="6.04715">
        <ele>954</ele>
        <time>2021-06-27T09:36:07.071Z</time>
      </trkpt>
      <trkpt lat="45.55086" lon="6.04715">
        <ele>954</ele>
        <time>2021-06-27T09:36:08.071Z</time>
      </trkpt>
      <trkpt lat="45.55087" lon="6.04716">
        <ele>954</ele>
        <time>2021-06-27T09:36:09.070Z</time>
      </trkpt>
      <trkpt lat="45.55088" lon="6.04717">
        <ele>954</ele>
        <time>2021-06-27T09:36:10.071Z</time>
      </trkpt>
      <trkpt lat="45.55087" lon="6.04719">
        <ele>954</ele>
        <time>2021-06-27T09:36:11.071Z</time>
      </trkpt>
      <trkpt lat="45.55087" lon="6.0472">
        <ele>954</ele>
        <time>2021-06-27T09:36:12.070Z</time>
      </trkpt>
      <trkpt lat="45.55088" lon="6.0472">
        <ele>954</ele>
        <time>2021-06-27T09:36:13.071Z</time>
      </trkpt>
      <trkpt lat="45.55088" lon="6.0472">
        <ele>953</ele>
        <time>2021-06-27T09:36:14.071Z</time>
      </trkpt>
      <trkpt lat="45.55089" lon="6.0472">
        <ele>953</ele>
        <time>2021-06-27T09:36:15.071Z</time>
      </trkpt>
      <trkpt lat="45.55089" lon="6.04719">
        <ele>953</ele>
        <time>2021-06-27T09:36:16.071Z</time>
      </trkpt>
      <trkpt lat="45.55089" lon="6.04719">
        <ele>953</ele>
        <time>2021-06-27T09:36:17.070Z</time>
      </trkpt>
      <trkpt lat="45.5509" lon="6.04719">
        <ele>952</ele>
        <time>2021-06-27T09:36:18.071Z</time>
      </trkpt>
      <trkpt lat="45.5509" lon="6.04719">
        <ele>952</ele>
        <time>2021-06-27T09:36:19.071Z</time>
      </trkpt>
      <trkpt lat="45.5509" lon="6.0472">
        <ele>952</ele>
        <time>2021-06-27T09:36:20.071Z</time>
      </trkpt>
      <trkpt lat="45.5509" lon="6.0472">
        <ele>952</ele>
        <time>2021-06-27T09:36:21.071Z</time>
      </trkpt>
      <trkpt lat="45.55091" lon="6.04721">
        <ele>952</ele>
        <time>2021-06-27T09:36:22.071Z</time>
      </trkpt>
      <trkpt lat="45.55091" lon="6.04722">
        <ele>952</ele>
        <time>2021-06-27T09:36:23.071Z</time>
      </trkpt>
      <trkpt lat="45.55091" lon="6.04723">
        <ele>952</ele>
        <time>2021-06-27T09:36:24.070Z</time>
      </trkpt>
      <trkpt lat="45.55092" lon="6.04724">
        <ele>953</ele>
        <time>2021-06-27T09:36:25.071Z</time>
      </trkpt>
      <trkpt lat="45.55092" lon="6.04724">
        <ele>953</ele>
        <time>2021-06-27T09:36:26.071Z</time>
      </trkpt>
      <trkpt lat="45.55094" lon="6.04725">
        <ele>953</ele>
        <time>2021-06-27T09:36:27.070Z</time>
      </trkpt>
      <trkpt lat="45.55094" lon="6.04726">
        <ele>954</ele>
        <time>2021-06-27T09:36:28.070Z</time>
      </trkpt>
      <trkpt lat="45.55095" lon="6.04728">
        <ele>954</ele>
        <time>2021-06-27T09:36:29.071Z</time>
      </trkpt>
      <trkpt lat="45.55095" lon="6.04728">
        <ele>954</ele>
        <time>2021-06-27T09:36:30.071Z</time>
      </trkpt>
      <trkpt lat="45.55096" lon="6.0473">
        <ele>954</ele>
        <time>2021-06-27T09:36:31.071Z</time>
      </trkpt>
      <trkpt lat="45.55096" lon="6.04731">
        <ele>954</ele>
        <time>2021-06-27T09:36:32.071Z</time>
      </trkpt>
      <trkpt lat="45.55097" lon="6.04731">
        <ele>955</ele>
        <time>2021-06-27T09:36:33.071Z</time>
      </trkpt>
      <trkpt lat="45.55097" lon="6.04731">
        <ele>955</ele>
        <time>2021-06-27T09:36:34.071Z</time>
      </trkpt>
      <trkpt lat="45.55098" lon="6.04731">
        <ele>955</ele>
        <time>2021-06-27T09:36:35.070Z</time>
      </trkpt>
      <trkpt lat="45.55097" lon="6.04732">
        <ele>956</ele>
        <time>2021-06-27T09:36:36.071Z</time>
      </trkpt>
      <trkpt lat="45.55097" lon="6.04732">
        <ele>956</ele>
        <time>2021-06-27T09:36:37.071Z</time>
      </trkpt>
      <trkpt lat="45.55098" lon="6.04732">
        <ele>957</ele>
        <time>2021-06-27T09:36:38.071Z</time>
      </trkpt>
      <trkpt lat="45.55098" lon="6.04732">
        <ele>957</ele>
        <time>2021-06-27T09:36:39.071Z</time>
      </trkpt>
      <trkpt lat="45.55098" lon="6.04731">
        <ele>957</ele>
        <time>2021-06-27T09:36:40.071Z</time>
      </trkpt>
      <trkpt lat="45.55098" lon="6.0473">
        <ele>958</ele>
        <time>2021-06-27T09:36:41.071Z</time>
      </trkpt>
      <trkpt lat="45.55099" lon="6.04729">
        <ele>959</ele>
        <time>2021-06-27T09:36:42.071Z</time>
      </trkpt>
      <trkpt lat="45.55099" lon="6.04728">
        <ele>960</ele>
        <time>2021-06-27T09:36:43.070Z</time>
      </trkpt>
      <trkpt lat="45.55099" lon="6.04728">
        <ele>961</ele>
        <time>2021-06-27T09:36:44.070Z</time>
      </trkpt>
      <trkpt lat="45.55099" lon="6.04727">
        <ele>962</ele>
        <time>2021-06-27T09:36:45.071Z</time>
      </trkpt>
      <trkpt lat="45.55099" lon="6.04726">
        <ele>962</ele>
        <time>2021-06-27T09:36:46.070Z</time>
      </trkpt>
      <trkpt lat="45.55098" lon="6.04724">
        <ele>963</ele>
        <time>2021-06-27T09:36:47.070Z</time>
      </trkpt>
      <trkpt lat="45.55099" lon="6.04721">
        <ele>964</ele>
        <time>2021-06-27T09:36:48.071Z</time>
      </trkpt>
      <trkpt lat="45.55099" lon="6.0472">
        <ele>965</ele>
        <time>2021-06-27T09:36:49.071Z</time>
      </trkpt>
      <trkpt lat="45.551" lon="6.04719">
        <ele>965</ele>
        <time>2021-06-27T09:36:50.071Z</time>
      </trkpt>
      <trkpt lat="45.551" lon="6.04718">
        <ele>966</ele>
        <time>2021-06-27T09:36:51.070Z</time>
      </trkpt>
      <trkpt lat="45.55101" lon="6.04716">
        <ele>966</ele>
        <time>2021-06-27T09:36:52.070Z</time>
      </trkpt>
      <trkpt lat="45.55101" lon="6.04715">
        <ele>967</ele>
        <time>2021-06-27T09:36:53.071Z</time>
      </trkpt>
      <trkpt lat="45.55101" lon="6.04715">
        <ele>967</ele>
        <time>2021-06-27T09:36:54.071Z</time>
      </trkpt>
      <trkpt lat="45.55101" lon="6.04715">
        <ele>967</ele>
        <time>2021-06-27T09:36:55.071Z</time>
      </trkpt>
      <trkpt lat="45.55102" lon="6.04715">
        <ele>967</ele>
        <time>2021-06-27T09:36:56.070Z</time>
      </trkpt>
      <trkpt lat="45.55102" lon="6.04714">
        <ele>967</ele>
        <time>2021-06-27T09:36:57.071Z</time>
      </trkpt>
      <trkpt lat="45.55102" lon="6.04714">
        <ele>966</ele>
        <time>2021-06-27T09:36:58.071Z</time>
      </trkpt>
      <trkpt lat="45.55103" lon="6.04712">
        <ele>966</ele>
        <time>2021-06-27T09:36:59.071Z</time>
      </trkpt>
      <trkpt lat="45.55103" lon="6.04711">
        <ele>966</ele>
        <time>2021-06-27T09:37:00.071Z</time>
      </trkpt>
      <trkpt lat="45.55103" lon="6.0471">
        <ele>966</ele>
        <time>2021-06-27T09:37:01.071Z</time>
      </trkpt>
      <trkpt lat="45.55104" lon="6.04711">
        <ele>966</ele>
        <time>2021-06-27T09:37:02.071Z</time>
      </trkpt>
      <trkpt lat="45.55105" lon="6.04712">
        <ele>967</ele>
        <time>2021-06-27T09:37:03.071Z</time>
      </trkpt>
      <trkpt lat="45.55105" lon="6.04713">
        <ele>967</ele>
        <time>2021-06-27T09:37:04.071Z</time>
      </trkpt>
      <trkpt lat="45.55106" lon="6.04713">
        <ele>967</ele>
        <time>2021-06-27T09:37:05.070Z</time>
      </trkpt>
      <trkpt lat="45.55107" lon="6.04713">
        <ele>967</ele>
        <time>2021-06-27T09:37:06.070Z</time>
      </trkpt>
      <trkpt lat="45.55107" lon="6.04714">
        <ele>967</ele>
        <time>2021-06-27T09:37:07.071Z</time>
      </trkpt>
      <trkpt lat="45.55108" lon="6.04715">
        <ele>967</ele>
        <time>2021-06-27T09:37:08.071Z</time>
      </trkpt>
      <trkpt lat="45.55108" lon="6.04716">
        <ele>966</ele>
        <time>2021-06-27T09:37:09.071Z</time>
      </trkpt>
      <trkpt lat="45.55109" lon="6.04716">
        <ele>966</ele>
        <time>2021-06-27T09:37:10.071Z</time>
      </trkpt>
      <trkpt lat="45.55109" lon="6.04717">
        <ele>966</ele>
        <time>2021-06-27T09:37:11.071Z</time>
      </trkpt>
      <trkpt lat="45.55109" lon="6.04718">
        <ele>966</ele>
        <time>2021-06-27T09:37:12.071Z</time>
      </trkpt>
      <trkpt lat="45.55109" lon="6.04718">
        <ele>965</ele>
        <time>2021-06-27T09:37:13.071Z</time>
      </trkpt>
      <trkpt lat="45.5511" lon="6.04718">
        <ele>965</ele>
        <time>2021-06-27T09:37:14.071Z</time>
      </trkpt>
      <trkpt lat="45.5511" lon="6.04718">
        <ele>965</ele>
        <time>2021-06-27T09:37:15.071Z</time>
      </trkpt>
      <trkpt lat="45.5511" lon="6.04719">
        <ele>965</ele>
        <time>2021-06-27T09:37:16.071Z</time>
      </trkpt>
      <trkpt lat="45.55111" lon="6.0472">
        <ele>965</ele>
        <time>2021-06-27T09:37:17.071Z</time>
      </trkpt>
      <trkpt lat="45.55111" lon="6.04721">
        <ele>964</ele>
        <time>2021-06-27T09:37:18.071Z</time>
      </trkpt>
      <trkpt lat="45.55111" lon="6.04722">
        <ele>964</ele>
        <time>2021-06-27T09:37:19.071Z</time>
      </trkpt>
      <trkpt lat="45.55111" lon="6.04721">
        <ele>965</ele>
        <time>2021-06-27T09:37:20.070Z</time>
      </trkpt>
      <trkpt lat="45.55111" lon="6.0472">
        <ele>966</ele>
        <time>2021-06-27T09:37:21.071Z</time>
      </trkpt>
      <trkpt lat="45.55111" lon="6.04719">
        <ele>967</ele>
        <time>2021-06-27T09:37:22.070Z</time>
      </trkpt>
      <trkpt lat="45.5511" lon="6.04718">
        <ele>968</ele>
        <time>2021-06-27T09:37:23.070Z</time>
      </trkpt>
      <trkpt lat="45.5511" lon="6.04718">
        <ele>968</ele>
        <time>2021-06-27T09:37:24.071Z</time>
      </trkpt>
      <trkpt lat="45.5511" lon="6.04717">
        <ele>969</ele>
        <time>2021-06-27T09:37:25.071Z</time>
      </trkpt>
      <trkpt lat="45.5511" lon="6.04717">
        <ele>970</ele>
        <time>2021-06-27T09:37:26.071Z</time>
      </trkpt>
      <trkpt lat="45.5511" lon="6.04717">
        <ele>970</ele>
        <time>2021-06-27T09:37:27.071Z</time>
      </trkpt>
      <trkpt lat="45.5511" lon="6.04716">
        <ele>971</ele>
        <time>2021-06-27T09:37:28.070Z</time>
      </trkpt>
      <trkpt lat="45.5511" lon="6.04716">
        <ele>972</ele>
        <time>2021-06-27T09:37:29.071Z</time>
      </trkpt>
      <trkpt lat="45.5511" lon="6.04716">
        <ele>973</ele>
        <time>2021-06-27T09:37:30.070Z</time>
      </trkpt>
      <trkpt lat="45.5511" lon="6.04715">
        <ele>973</ele>
        <time>2021-06-27T09:37:31.071Z</time>
      </trkpt>
      <trkpt lat="45.5511" lon="6.04715">
        <ele>974</ele>
        <time>2021-06-27T09:37:32.070Z</time>
      </trkpt>
      <trkpt lat="45.55109" lon="6.04714">
        <ele>975</ele>
        <time>2021-06-27T09:37:33.071Z</time>
      </trkpt>
      <trkpt lat="45.55108" lon="6.04713">
        <ele>975</ele>
        <time>2021-06-27T09:37:34.071Z</time>
      </trkpt>
      <trkpt lat="45.55106" lon="6.04712">
        <ele>976</ele>
        <time>2021-06-27T09:37:35.070Z</time>
      </trkpt>
      <trkpt lat="45.55106" lon="6.04711">
        <ele>977</ele>
        <time>2021-06-27T09:37:36.071Z</time>
      </trkpt>
      <trkpt lat="45.55106" lon="6.0471">
        <ele>978</ele>
        <time>2021-06-27T09:37:37.070Z</time>
      </trkpt>
      <trkpt lat="45.55105" lon="6.04709">
        <ele>979</ele>
        <time>2021-06-27T09:37:38.071Z</time>
      </trkpt>
      <trkpt lat="45.55104" lon="6.04709">
        <ele>980</ele>
        <time>2021-06-27T09:37:39.071Z</time>
      </trkpt>
      <trkpt lat="45.55105" lon="6.0471">
        <ele>980</ele>
        <time>2021-06-27T09:37:40.071Z</time>
      </trkpt>
      <trkpt lat="45.55105" lon="6.0471">
        <ele>981</ele>
        <time>2021-06-27T09:37:41.071Z</time>
      </trkpt>
      <trkpt lat="45.55105" lon="6.0471">
        <ele>981</ele>
        <time>2021-06-27T09:37:42.071Z</time>
      </trkpt>
      <trkpt lat="45.55105" lon="6.0471">
        <ele>981</ele>
        <time>2021-06-27T09:37:43.071Z</time>
      </trkpt>
      <trkpt lat="45.55106" lon="6.04709">
        <ele>981</ele>
        <time>2021-06-27T09:37:44.071Z</time>
      </trkpt>
      <trkpt lat="45.55107" lon="6.04708">
        <ele>981</ele>
        <time>2021-06-27T09:37:45.071Z</time>
      </trkpt>
      <trkpt lat="45.55108" lon="6.04708">
        <ele>981</ele>
        <time>2021-06-27T09:37:46.071Z</time>
      </trkpt>
      <trkpt lat="45.55109" lon="6.04709">
        <ele>981</ele>
        <time>2021-06-27T09:37:47.071Z</time>
      </trkpt>
      <trkpt lat="45.5511" lon="6.04709">
        <ele>981</ele>
        <time>2021-06-27T09:37:48.071Z</time>
      </trkpt>
      <trkpt lat="45.5511" lon="6.04709">
        <ele>981</ele>
        <time>2021-06-27T09:37:49.071Z</time>
      </trkpt>
      <trkpt lat="45.5511" lon="6.04709">
        <ele>981</ele>
        <time>2021-06-27T09:37:50.071Z</time>
      </trkpt>
      <trkpt lat="45.5511" lon="6.0471">
        <ele>980</ele>
        <time>2021-06-27T09:37:51.071Z</time>
      </trkpt>
      <trkpt lat="45.5511" lon="6.04711">
        <ele>980</ele>
        <time>2021-06-27T09:37:52.071Z</time>
      </trkpt>
      <trkpt lat="45.5511" lon="6.04711">
        <ele>979</ele>
        <time>2021-06-27T09:37:53.071Z</time>
      </trkpt>
      <trkpt lat="45.5511" lon="6.04712">
        <ele>979</ele>
        <time>2021-06-27T09:37:54.070Z</time>
      </trkpt>
      <trkpt lat="45.55111" lon="6.04712">
        <ele>978</ele>
        <time>2021-06-27T09:37:55.071Z</time>
      </trkpt>
      <trkpt lat="45.55111" lon="6.04712">
        <ele>978</ele>
        <time>2021-06-27T09:37:56.071Z</time>
      </trkpt>
      <trkpt lat="45.55111" lon="6.04713">
        <ele>978</ele>
        <time>2021-06-27T09:37:57.071Z</time>
      </trkpt>
      <trkpt lat="45.55111" lon="6.04714">
        <ele>977</ele>
        <time>2021-06-27T09:37:58.071Z</time>
      </trkpt>
      <trkpt lat="45.5511" lon="6.04715">
        <ele>976</ele>
        <time>2021-06-27T09:37:59.071Z</time>
      </trkpt>
      <trkpt lat="45.55109" lon="6.04715">
        <ele>975</ele>
        <time>2021-06-27T09:38:00.070Z</time>
      </trkpt>
      <trkpt lat="45.5511" lon="6.04716">
        <ele>974</ele>
        <time>2021-06-27T09:38:01.071Z</time>
      </trkpt>
      <trkpt lat="45.5511" lon="6.04717">
        <ele>973</ele>
        <time>2021-06-27T09:38:02.071Z</time>
      </trkpt>
      <trkpt lat="45.55111" lon="6.04717">
        <ele>972</ele>
        <time>2021-06-27T09:38:03.071Z</time>
      </trkpt>
      <trkpt lat="45.5511" lon="6.04718">
        <ele>971</ele>
        <time>2021-06-27T09:38:04.071Z</time>
      </trkpt>
      <trkpt lat="45.55109" lon="6.04718">
        <ele>971</ele>
        <time>2021-06-27T09:38:05.071Z</time>
      </trkpt>
      <trkpt lat="45.55109" lon="6.04719">
        <ele>970</ele>
        <time>2021-06-27T09:38:06.071Z</time>
      </trkpt>
      <trkpt lat="45.55109" lon="6.04719">
        <ele>969</ele>
        <time>2021-06-27T09:38:07.071Z</time>
      </trkpt>
      <trkpt lat="45.55109" lon="6.04718">
        <ele>969</ele>
        <time>2021-06-27T09:38:08.071Z</time>
      </trkpt>
      <trkpt lat="45.55109" lon="6.04718">
        <ele>969</ele>
        <time>2021-06-27T09:38:09.071Z</time>
      </trkpt>
      <trkpt lat="45.55109" lon="6.04718">
        <ele>970</ele>
        <time>2021-06-27T09:38:10.070Z</time>
      </trkpt>
      <trkpt lat="45.55109" lon="6.04718">
        <ele>970</ele>
        <time>2021-06-27T09:38:11.071Z</time>
      </trkpt>
      <trkpt lat="45.55109" lon="6.04718">
        <ele>969</ele>
        <time>2021-06-27T09:38:12.071Z</time>
      </trkpt>
      <trkpt lat="45.55109" lon="6.04718">
        <ele>969</ele>
        <time>2021-06-27T09:38:13.071Z</time>
      </trkpt>
      <trkpt lat="45.5511" lon="6.04718">
        <ele>969</ele>
        <time>2021-06-27T09:38:14.071Z</time>
      </trkpt>
      <trkpt lat="45.55109" lon="6.04718">
        <ele>969</ele>
        <time>2021-06-27T09:38:15.071Z</time>
      </trkpt>
      <trkpt lat="45.5511" lon="6.04719">
        <ele>969</ele>
        <time>2021-06-27T09:38:16.071Z</time>
      </trkpt>
      <trkpt lat="45.5511" lon="6.04718">
        <ele>969</ele>
        <time>2021-06-27T09:38:17.071Z</time>
      </trkpt>
      <trkpt lat="45.5511" lon="6.04719">
        <ele>968</ele>
        <time>2021-06-27T09:38:18.070Z</time>
      </trkpt>
      <trkpt lat="45.5511" lon="6.0472">
        <ele>968</ele>
        <time>2021-06-27T09:38:19.071Z</time>
      </trkpt>
      <trkpt lat="45.55111" lon="6.0472">
        <ele>968</ele>
        <time>2021-06-27T09:38:20.071Z</time>
      </trkpt>
      <trkpt lat="45.5511" lon="6.0472">
        <ele>968</ele>
        <time>2021-06-27T09:38:21.071Z</time>
      </trkpt>
      <trkpt lat="45.5511" lon="6.04719">
        <ele>967</ele>
        <time>2021-06-27T09:38:22.071Z</time>
      </trkpt>
      <trkpt lat="45.5511" lon="6.04719">
        <ele>967</ele>
        <time>2021-06-27T09:38:23.071Z</time>
      </trkpt>
      <trkpt lat="45.55111" lon="6.0472">
        <ele>967</ele>
        <time>2021-06-27T09:38:24.071Z</time>
      </trkpt>
      <trkpt lat="45.55111" lon="6.0472">
        <ele>967</ele>
        <time>2021-06-27T09:38:25.070Z</time>
      </trkpt>
      <trkpt lat="45.55111" lon="6.0472">
        <ele>967</ele>
        <time>2021-06-27T09:38:26.070Z</time>
      </trkpt>
      <trkpt lat="45.55111" lon="6.0472">
        <ele>966</ele>
        <time>2021-06-27T09:38:27.071Z</time>
      </trkpt>
      <trkpt lat="45.55111" lon="6.0472">
        <ele>966</ele>
        <time>2021-06-27T09:38:28.070Z</time>
      </trkpt>
      <trkpt lat="45.55111" lon="6.04719">
        <ele>966</ele>
        <time>2021-06-27T09:38:29.071Z</time>
      </trkpt>
      <trkpt lat="45.55112" lon="6.04719">
        <ele>966</ele>
        <time>2021-06-27T09:38:30.071Z</time>
      </trkpt>
      <trkpt lat="45.55112" lon="6.04719">
        <ele>966</ele>
        <time>2021-06-27T09:38:31.071Z</time>
      </trkpt>
      <trkpt lat="45.55112" lon="6.04719">
        <ele>965</ele>
        <time>2021-06-27T09:38:32.071Z</time>
      </trkpt>
      <trkpt lat="45.55112" lon="6.04719">
        <ele>965</ele>
        <time>2021-06-27T09:38:33.070Z</time>
      </trkpt>
      <trkpt lat="45.55112" lon="6.04721">
        <ele>964</ele>
        <time>2021-06-27T09:38:34.071Z</time>
      </trkpt>
      <trkpt lat="45.55112" lon="6.04722">
        <ele>964</ele>
        <time>2021-06-27T09:38:35.071Z</time>
      </trkpt>
      <trkpt lat="45.55112" lon="6.04722">
        <ele>964</ele>
        <time>2021-06-27T09:38:36.071Z</time>
      </trkpt>
      <trkpt lat="45.55112" lon="6.04722">
        <ele>963</ele>
        <time>2021-06-27T09:38:37.071Z</time>
      </trkpt>
      <trkpt lat="45.55112" lon="6.04722">
        <ele>963</ele>
        <time>2021-06-27T09:38:38.071Z</time>
      </trkpt>
      <trkpt lat="45.55112" lon="6.04722">
        <ele>964</ele>
        <time>2021-06-27T09:38:39.071Z</time>
      </trkpt>
      <trkpt lat="45.55113" lon="6.04722">
        <ele>964</ele>
        <time>2021-06-27T09:38:40.071Z</time>
      </trkpt>
      <trkpt lat="45.55113" lon="6.04722">
        <ele>964</ele>
        <time>2021-06-27T09:38:41.070Z</time>
      </trkpt>
      <trkpt lat="45.55113" lon="6.04722">
        <ele>965</ele>
        <time>2021-06-27T09:38:42.071Z</time>
      </trkpt>
      <trkpt lat="45.55113" lon="6.04722">
        <ele>966</ele>
        <time>2021-06-27T09:38:43.071Z</time>
      </trkpt>
      <trkpt lat="45.55113" lon="6.04722">
        <ele>967</ele>
        <time>2021-06-27T09:38:44.070Z</time>
      </trkpt>
      <trkpt lat="45.55113" lon="6.04722">
        <ele>968</ele>
        <time>2021-06-27T09:38:45.071Z</time>
      </trkpt>
      <trkpt lat="45.55113" lon="6.04722">
        <ele>968</ele>
        <time>2021-06-27T09:38:46.070Z</time>
      </trkpt>
      <trkpt lat="45.55113" lon="6.04721">
        <ele>969</ele>
        <time>2021-06-27T09:38:47.070Z</time>
      </trkpt>
      <trkpt lat="45.55112" lon="6.04723">
        <ele>969</ele>
        <time>2021-06-27T09:38:48.070Z</time>
      </trkpt>
      <trkpt lat="45.55112" lon="6.04723">
        <ele>969</ele>
        <time>2021-06-27T09:38:49.071Z</time>
      </trkpt>
      <trkpt lat="45.55112" lon="6.04723">
        <ele>970</ele>
        <time>2021-06-27T09:38:50.071Z</time>
      </trkpt>
      <trkpt lat="45.55111" lon="6.04723">
        <ele>970</ele>
        <time>2021-06-27T09:38:51.070Z</time>
      </trkpt>
      <trkpt lat="45.55111" lon="6.04723">
        <ele>971</ele>
        <time>2021-06-27T09:38:52.071Z</time>
      </trkpt>
      <trkpt lat="45.55111" lon="6.04723">
        <ele>972</ele>
        <time>2021-06-27T09:38:53.070Z</time>
      </trkpt>
      <trkpt lat="45.55111" lon="6.04724">
        <ele>973</ele>
        <time>2021-06-27T09:38:54.071Z</time>
      </trkpt>
      <trkpt lat="45.55111" lon="6.04724">
        <ele>973</ele>
        <time>2021-06-27T09:38:55.071Z</time>
      </trkpt>
      <trkpt lat="45.55112" lon="6.04726">
        <ele>974</ele>
        <time>2021-06-27T09:38:56.071Z</time>
      </trkpt>
      <trkpt lat="45.55112" lon="6.04726">
        <ele>974</ele>
        <time>2021-06-27T09:38:57.071Z</time>
      </trkpt>
      <trkpt lat="45.55112" lon="6.04726">
        <ele>974</ele>
        <time>2021-06-27T09:38:58.071Z</time>
      </trkpt>
      <trkpt lat="45.55112" lon="6.04726">
        <ele>974</ele>
        <time>2021-06-27T09:38:59.071Z</time>
      </trkpt>
      <trkpt lat="45.55112" lon="6.04726">
        <ele>974</ele>
        <time>2021-06-27T09:39:00.071Z</time>
      </trkpt>
      <trkpt lat="45.55112" lon="6.04726">
        <ele>974</ele>
        <time>2021-06-27T09:39:01.070Z</time>
      </trkpt>
      <trkpt lat="45.55112" lon="6.04725">
        <ele>975</ele>
        <time>2021-06-27T09:39:02.071Z</time>
      </trkpt>
      <trkpt lat="45.55111" lon="6.04725">
        <ele>975</ele>
        <time>2021-06-27T09:39:03.071Z</time>
      </trkpt>
      <trkpt lat="45.55111" lon="6.04725">
        <ele>976</ele>
        <time>2021-06-27T09:39:04.071Z</time>
      </trkpt>
      <trkpt lat="45.55111" lon="6.04725">
        <ele>976</ele>
        <time>2021-06-27T09:39:05.071Z</time>
      </trkpt>
      <trkpt lat="45.55111" lon="6.04725">
        <ele>976</ele>
        <time>2021-06-27T09:39:06.070Z</time>
      </trkpt>
      <trkpt lat="45.55111" lon="6.04725">
        <ele>977</ele>
        <time>2021-06-27T09:39:07.071Z</time>
      </trkpt>
      <trkpt lat="45.55111" lon="6.04726">
        <ele>977</ele>
        <time>2021-06-27T09:39:08.070Z</time>
      </trkpt>
      <trkpt lat="45.55111" lon="6.04726">
        <ele>977</ele>
        <time>2021-06-27T09:39:09.070Z</time>
      </trkpt>
      <trkpt lat="45.55111" lon="6.04726">
        <ele>977</ele>
        <time>2021-06-27T09:39:10.070Z</time>
      </trkpt>
      <trkpt lat="45.55111" lon="6.04726">
        <ele>977</ele>
        <time>2021-06-27T09:39:11.070Z</time>
      </trkpt>
      <trkpt lat="45.55111" lon="6.04726">
        <ele>976</ele>
        <time>2021-06-27T09:39:12.071Z</time>
      </trkpt>
      <trkpt lat="45.55111" lon="6.04726">
        <ele>976</ele>
        <time>2021-06-27T09:39:13.070Z</time>
      </trkpt>
      <trkpt lat="45.55111" lon="6.04726">
        <ele>976</ele>
        <time>2021-06-27T09:39:14.071Z</time>
      </trkpt>
      <trkpt lat="45.55111" lon="6.04725">
        <ele>977</ele>
        <time>2021-06-27T09:39:15.071Z</time>
      </trkpt>
      <trkpt lat="45.55111" lon="6.04725">
        <ele>977</ele>
        <time>2021-06-27T09:39:16.071Z</time>
      </trkpt>
      <trkpt lat="45.5511" lon="6.04725">
        <ele>978</ele>
        <time>2021-06-27T09:39:17.071Z</time>
      </trkpt>
      <trkpt lat="45.5511" lon="6.04725">
        <ele>979</ele>
        <time>2021-06-27T09:39:18.071Z</time>
      </trkpt>
      <trkpt lat="45.5511" lon="6.04725">
        <ele>979</ele>
        <time>2021-06-27T09:39:19.071Z</time>
      </trkpt>
      <trkpt lat="45.5511" lon="6.04725">
        <ele>980</ele>
        <time>2021-06-27T09:39:20.071Z</time>
      </trkpt>
      <trkpt lat="45.5511" lon="6.04725">
        <ele>980</ele>
        <time>2021-06-27T09:39:21.071Z</time>
      </trkpt>
      <trkpt lat="45.5511" lon="6.04725">
        <ele>980</ele>
        <time>2021-06-27T09:39:22.071Z</time>
      </trkpt>
      <trkpt lat="45.55109" lon="6.04726">
        <ele>981</ele>
        <time>2021-06-27T09:39:23.071Z</time>
      </trkpt>
      <trkpt lat="45.55109" lon="6.04726">
        <ele>981</ele>
        <time>2021-06-27T09:39:24.071Z</time>
      </trkpt>
      <trkpt lat="45.55109" lon="6.04726">
        <ele>981</ele>
        <time>2021-06-27T09:39:25.071Z</time>
      </trkpt>
      <trkpt lat="45.55109" lon="6.04725">
        <ele>981</ele>
        <time>2021-06-27T09:39:26.071Z</time>
      </trkpt>
      <trkpt lat="45.55109" lon="6.04724">
        <ele>981</ele>
        <time>2021-06-27T09:39:27.071Z</time>
      </trkpt>
      <trkpt lat="45.55108" lon="6.04723">
        <ele>982</ele>
        <time>2021-06-27T09:39:28.071Z</time>
      </trkpt>
      <trkpt lat="45.55108" lon="6.04723">
        <ele>982</ele>
        <time>2021-06-27T09:39:29.070Z</time>
      </trkpt>
      <trkpt lat="45.55109" lon="6.04723">
        <ele>982</ele>
        <time>2021-06-27T09:39:30.070Z</time>
      </trkpt>
      <trkpt lat="45.55109" lon="6.04722">
        <ele>982</ele>
        <time>2021-06-27T09:39:31.071Z</time>
      </trkpt>
      <trkpt lat="45.5511" lon="6.04723">
        <ele>981</ele>
        <time>2021-06-27T09:39:32.071Z</time>
      </trkpt>
      <trkpt lat="45.55111" lon="6.04723">
        <ele>981</ele>
        <time>2021-06-27T09:39:33.070Z</time>
      </trkpt>
      <trkpt lat="45.55112" lon="6.04722">
        <ele>981</ele>
        <time>2021-06-27T09:39:34.070Z</time>
      </trkpt>
      <trkpt lat="45.55112" lon="6.04721">
        <ele>981</ele>
        <time>2021-06-27T09:39:35.070Z</time>
      </trkpt>
      <trkpt lat="45.55112" lon="6.04722">
        <ele>981</ele>
        <time>2021-06-27T09:39:36.071Z</time>
      </trkpt>
      <trkpt lat="45.55112" lon="6.04723">
        <ele>982</ele>
        <time>2021-06-27T09:39:37.071Z</time>
      </trkpt>
      <trkpt lat="45.55112" lon="6.04724">
        <ele>982</ele>
        <time>2021-06-27T09:39:38.070Z</time>
      </trkpt>
      <trkpt lat="45.55112" lon="6.04724">
        <ele>982</ele>
        <time>2021-06-27T09:39:39.071Z</time>
      </trkpt>
      <trkpt lat="45.55113" lon="6.04724">
        <ele>982</ele>
        <time>2021-06-27T09:39:40.071Z</time>
      </trkpt>
      <trkpt lat="45.55113" lon="6.04724">
        <ele>982</ele>
        <time>2021-06-27T09:39:41.071Z</time>
      </trkpt>
      <trkpt lat="45.55114" lon="6.04723">
        <ele>982</ele>
        <time>2021-06-27T09:39:42.070Z</time>
      </trkpt>
      <trkpt lat="45.55115" lon="6.04722">
        <ele>982</ele>
        <time>2021-06-27T09:39:43.071Z</time>
      </trkpt>
      <trkpt lat="45.55114" lon="6.04721">
        <ele>982</ele>
        <time>2021-06-27T09:39:44.071Z</time>
      </trkpt>
      <trkpt lat="45.55114" lon="6.0472">
        <ele>982</ele>
        <time>2021-06-27T09:39:45.071Z</time>
      </trkpt>
      <trkpt lat="45.55114" lon="6.04719">
        <ele>982</ele>
        <time>2021-06-27T09:39:46.071Z</time>
      </trkpt>
      <trkpt lat="45.55114" lon="6.04719">
        <ele>981</ele>
        <time>2021-06-27T09:39:47.071Z</time>
      </trkpt>
      <trkpt lat="45.55113" lon="6.04718">
        <ele>981</ele>
        <time>2021-06-27T09:39:48.071Z</time>
      </trkpt>
      <trkpt lat="45.55112" lon="6.04718">
        <ele>981</ele>
        <time>2021-06-27T09:39:49.070Z</time>
      </trkpt>
      <trkpt lat="45.55112" lon="6.04718">
        <ele>980</ele>
        <time>2021-06-27T09:39:50.071Z</time>
      </trkpt>
      <trkpt lat="45.55112" lon="6.04718">
        <ele>980</ele>
        <time>2021-06-27T09:39:51.071Z</time>
      </trkpt>
      <trkpt lat="45.55112" lon="6.04717">
        <ele>979</ele>
        <time>2021-06-27T09:39:52.070Z</time>
      </trkpt>
      <trkpt lat="45.55111" lon="6.04717">
        <ele>978</ele>
        <time>2021-06-27T09:39:53.071Z</time>
      </trkpt>
      <trkpt lat="45.55111" lon="6.04717">
        <ele>978</ele>
        <time>2021-06-27T09:39:54.071Z</time>
      </trkpt>
      <trkpt lat="45.5511" lon="6.04717">
        <ele>977</ele>
        <time>2021-06-27T09:39:55.071Z</time>
      </trkpt>
      <trkpt lat="45.5511" lon="6.04718">
        <ele>976</ele>
        <time>2021-06-27T09:39:56.070Z</time>
      </trkpt>
      <trkpt lat="45.55109" lon="6.04718">
        <ele>975</ele>
        <time>2021-06-27T09:39:57.071Z</time>
      </trkpt>
      <trkpt lat="45.55109" lon="6.04717">
        <ele>975</ele>
        <time>2021-06-27T09:39:58.071Z</time>
      </trkpt>
      <trkpt lat="45.55108" lon="6.04717">
        <ele>973</ele>
        <time>2021-06-27T09:39:59.070Z</time>
      </trkpt>
      <trkpt lat="45.55108" lon="6.04717">
        <ele>972</ele>
        <time>2021-06-27T09:40:00.071Z</time>
      </trkpt>
      <trkpt lat="45.55108" lon="6.04718">
        <ele>971</ele>
        <time>2021-06-27T09:40:01.071Z</time>
      </trkpt>
      <trkpt lat="45.55109" lon="6.04717">
        <ele>970</ele>
        <time>2021-06-27T09:40:02.071Z</time>
      </trkpt>
      <trkpt lat="45.55109" lon="6.04718">
        <ele>969</ele>
        <time>2021-06-27T09:40:03.071Z</time>
      </trkpt>
      <trkpt lat="45.55109" lon="6.04718">
        <ele>969</ele>
        <time>2021-06-27T09:40:04.071Z</time>
      </trkpt>
      <trkpt lat="45.55109" lon="6.04718">
        <ele>968</ele>
        <time>2021-06-27T09:40:05.071Z</time>
      </trkpt>
      <trkpt lat="45.55109" lon="6.04718">
        <ele>968</ele>
        <time>2021-06-27T09:40:06.070Z</time>
      </trkpt>
      <trkpt lat="45.55109" lon="6.04718">
        <ele>967</ele>
        <time>2021-06-27T09:40:07.071Z</time>
      </trkpt>
      <trkpt lat="45.55108" lon="6.04718">
        <ele>967</ele>
        <time>2021-06-27T09:40:08.071Z</time>
      </trkpt>
      <trkpt lat="45.55109" lon="6.04718">
        <ele>966</ele>
        <time>2021-06-27T09:40:09.070Z</time>
      </trkpt>
      <trkpt lat="45.55109" lon="6.04718">
        <ele>966</ele>
        <time>2021-06-27T09:40:10.071Z</time>
      </trkpt>
      <trkpt lat="45.55109" lon="6.04719">
        <ele>966</ele>
        <time>2021-06-27T09:40:11.070Z</time>
      </trkpt>
      <trkpt lat="45.5511" lon="6.04719">
        <ele>965</ele>
        <time>2021-06-27T09:40:12.071Z</time>
      </trkpt>
      <trkpt lat="45.5511" lon="6.04719">
        <ele>966</ele>
        <time>2021-06-27T09:40:13.071Z</time>
      </trkpt>
      <trkpt lat="45.5511" lon="6.04718">
        <ele>966</ele>
        <time>2021-06-27T09:40:14.070Z</time>
      </trkpt>
      <trkpt lat="45.5511" lon="6.04718">
        <ele>967</ele>
        <time>2021-06-27T09:40:15.071Z</time>
      </trkpt>
      <trkpt lat="45.55111" lon="6.04718">
        <ele>967</ele>
        <time>2021-06-27T09:40:16.070Z</time>
      </trkpt>
      <trkpt lat="45.55111" lon="6.04719">
        <ele>967</ele>
        <time>2021-06-27T09:40:17.070Z</time>
      </trkpt>
      <trkpt lat="45.55111" lon="6.04719">
        <ele>967</ele>
        <time>2021-06-27T09:40:18.071Z</time>
      </trkpt>
      <trkpt lat="45.55111" lon="6.04719">
        <ele>967</ele>
        <time>2021-06-27T09:40:19.071Z</time>
      </trkpt>
      <trkpt lat="45.55111" lon="6.04719">
        <ele>967</ele>
        <time>2021-06-27T09:40:20.071Z</time>
      </trkpt>
      <trkpt lat="45.55111" lon="6.04719">
        <ele>967</ele>
        <time>2021-06-27T09:40:21.071Z</time>
      </trkpt>
      <trkpt lat="45.55111" lon="6.04719">
        <ele>967</ele>
        <time>2021-06-27T09:40:22.071Z</time>
      </trkpt>
      <trkpt lat="45.55111" lon="6.04719">
        <ele>968</ele>
        <time>2021-06-27T09:40:23.070Z</time>
      </trkpt>
      <trkpt lat="45.55111" lon="6.04719">
        <ele>968</ele>
        <time>2021-06-27T09:40:24.071Z</time>
      </trkpt>
      <trkpt lat="45.55111" lon="6.04719">
        <ele>969</ele>
        <time>2021-06-27T09:40:25.071Z</time>
      </trkpt>
      <trkpt lat="45.55111" lon="6.04719">
        <ele>969</ele>
        <time>2021-06-27T09:40:26.071Z</time>
      </trkpt>
      <trkpt lat="45.55112" lon="6.04719">
        <ele>969</ele>
        <time>2021-06-27T09:40:27.071Z</time>
      </trkpt>
      <trkpt lat="45.55112" lon="6.04719">
        <ele>969</ele>
        <time>2021-06-27T09:40:28.071Z</time>
      </trkpt>
      <trkpt lat="45.55113" lon="6.0472">
        <ele>970</ele>
        <time>2021-06-27T09:40:29.070Z</time>
      </trkpt>
      <trkpt lat="45.55113" lon="6.0472">
        <ele>970</ele>
        <time>2021-06-27T09:40:30.071Z</time>
      </trkpt>
      <trkpt lat="45.55113" lon="6.0472">
        <ele>970</ele>
        <time>2021-06-27T09:40:31.071Z</time>
      </trkpt>
      <trkpt lat="45.55112" lon="6.04719">
        <ele>970</ele>
        <time>2021-06-27T09:40:32.071Z</time>
      </trkpt>
      <trkpt lat="45.55112" lon="6.04719">
        <ele>970</ele>
        <time>2021-06-27T09:40:33.071Z</time>
      </trkpt>
      <trkpt lat="45.55112" lon="6.04719">
        <ele>970</ele>
        <time>2021-06-27T09:40:34.071Z</time>
      </trkpt>
      <trkpt lat="45.55111" lon="6.04719">
        <ele>971</ele>
        <time>2021-06-27T09:40:35.071Z</time>
      </trkpt>
      <trkpt lat="45.55112" lon="6.04719">
        <ele>971</ele>
        <time>2021-06-27T09:40:36.071Z</time>
      </trkpt>
      <trkpt lat="45.55112" lon="6.04719">
        <ele>971</ele>
        <time>2021-06-27T09:40:37.071Z</time>
      </trkpt>
      <trkpt lat="45.55112" lon="6.04719">
        <ele>971</ele>
        <time>2021-06-27T09:40:38.071Z</time>
      </trkpt>
      <trkpt lat="45.55112" lon="6.04719">
        <ele>971</ele>
        <time>2021-06-27T09:40:39.071Z</time>
      </trkpt>
      <trkpt lat="45.55112" lon="6.04719">
        <ele>971</ele>
        <time>2021-06-27T09:40:40.071Z</time>
      </trkpt>
      <trkpt lat="45.55112" lon="6.04719">
        <ele>972</ele>
        <time>2021-06-27T09:40:41.071Z</time>
      </trkpt>
      <trkpt lat="45.55112" lon="6.04719">
        <ele>972</ele>
        <time>2021-06-27T09:40:42.071Z</time>
      </trkpt>
      <trkpt lat="45.55112" lon="6.04719">
        <ele>972</ele>
        <time>2021-06-27T09:40:43.071Z</time>
      </trkpt>
      <trkpt lat="45.55113" lon="6.04719">
        <ele>972</ele>
        <time>2021-06-27T09:40:44.071Z</time>
      </trkpt>
      <trkpt lat="45.55113" lon="6.0472">
        <ele>972</ele>
        <time>2021-06-27T09:40:45.070Z</time>
      </trkpt>
      <trkpt lat="45.55113" lon="6.0472">
        <ele>972</ele>
        <time>2021-06-27T09:40:46.071Z</time>
      </trkpt>
      <trkpt lat="45.55112" lon="6.04721">
        <ele>971</ele>
        <time>2021-06-27T09:40:47.070Z</time>
      </trkpt>
      <trkpt lat="45.55112" lon="6.04721">
        <ele>971</ele>
        <time>2021-06-27T09:40:48.071Z</time>
      </trkpt>
      <trkpt lat="45.55111" lon="6.04722">
        <ele>971</ele>
        <time>2021-06-27T09:40:49.071Z</time>
      </trkpt>
      <trkpt lat="45.5511" lon="6.04722">
        <ele>971</ele>
        <time>2021-06-27T09:40:50.071Z</time>
      </trkpt>
      <trkpt lat="45.5511" lon="6.04724">
        <ele>971</ele>
        <time>2021-06-27T09:40:51.070Z</time>
      </trkpt>
      <trkpt lat="45.55109" lon="6.04725">
        <ele>971</ele>
        <time>2021-06-27T09:40:52.071Z</time>
      </trkpt>
      <trkpt lat="45.55109" lon="6.04726">
        <ele>971</ele>
        <time>2021-06-27T09:40:53.071Z</time>
      </trkpt>
      <trkpt lat="45.55108" lon="6.04727">
        <ele>970</ele>
        <time>2021-06-27T09:40:54.071Z</time>
      </trkpt>
      <trkpt lat="45.55108" lon="6.0473">
        <ele>970</ele>
        <time>2021-06-27T09:40:55.071Z</time>
      </trkpt>
      <trkpt lat="45.55107" lon="6.04731">
        <ele>970</ele>
        <time>2021-06-27T09:40:56.071Z</time>
      </trkpt>
      <trkpt lat="45.55107" lon="6.04733">
        <ele>970</ele>
        <time>2021-06-27T09:40:57.070Z</time>
      </trkpt>
      <trkpt lat="45.55106" lon="6.04734">
        <ele>970</ele>
        <time>2021-06-27T09:40:58.071Z</time>
      </trkpt>
      <trkpt lat="45.55106" lon="6.04736">
        <ele>970</ele>
        <time>2021-06-27T09:40:59.071Z</time>
      </trkpt>
      <trkpt lat="45.55107" lon="6.04737">
        <ele>970</ele>
        <time>2021-06-27T09:41:00.071Z</time>
      </trkpt>
      <trkpt lat="45.55106" lon="6.04738">
        <ele>970</ele>
        <time>2021-06-27T09:41:01.070Z</time>
      </trkpt>
      <trkpt lat="45.55107" lon="6.04738">
        <ele>971</ele>
        <time>2021-06-27T09:41:02.071Z</time>
      </trkpt>
      <trkpt lat="45.55107" lon="6.04739">
        <ele>971</ele>
        <time>2021-06-27T09:41:03.071Z</time>
      </trkpt>
      <trkpt lat="45.55106" lon="6.04741">
        <ele>971</ele>
        <time>2021-06-27T09:41:04.071Z</time>
      </trkpt>
      <trkpt lat="45.55106" lon="6.04742">
        <ele>971</ele>
        <time>2021-06-27T09:41:05.070Z</time>
      </trkpt>
      <trkpt lat="45.55105" lon="6.04744">
        <ele>971</ele>
        <time>2021-06-27T09:41:06.071Z</time>
      </trkpt>
      <trkpt lat="45.55104" lon="6.04744">
        <ele>971</ele>
        <time>2021-06-27T09:41:07.070Z</time>
      </trkpt>
      <trkpt lat="45.55103" lon="6.04745">
        <ele>972</ele>
        <time>2021-06-27T09:41:08.071Z</time>
      </trkpt>
      <trkpt lat="45.55103" lon="6.04744">
        <ele>973</ele>
        <time>2021-06-27T09:41:09.070Z</time>
      </trkpt>
      <trkpt lat="45.55102" lon="6.04745">
        <ele>973</ele>
        <time>2021-06-27T09:41:10.071Z</time>
      </trkpt>
      <trkpt lat="45.55101" lon="6.04745">
        <ele>974</ele>
        <time>2021-06-27T09:41:11.071Z</time>
      </trkpt>
      <trkpt lat="45.55101" lon="6.04747">
        <ele>974</ele>
        <time>2021-06-27T09:41:12.070Z</time>
      </trkpt>
      <trkpt lat="45.551" lon="6.04748">
        <ele>974</ele>
        <time>2021-06-27T09:41:13.071Z</time>
      </trkpt>
      <trkpt lat="45.55099" lon="6.04748">
        <ele>975</ele>
        <time>2021-06-27T09:41:14.071Z</time>
      </trkpt>
      <trkpt lat="45.55099" lon="6.04748">
        <ele>975</ele>
        <time>2021-06-27T09:41:15.071Z</time>
      </trkpt>
      <trkpt lat="45.55098" lon="6.04748">
        <ele>975</ele>
        <time>2021-06-27T09:41:16.071Z</time>
      </trkpt>
      <trkpt lat="45.55097" lon="6.0475">
        <ele>975</ele>
        <time>2021-06-27T09:41:17.071Z</time>
      </trkpt>
      <trkpt lat="45.55097" lon="6.04751">
        <ele>975</ele>
        <time>2021-06-27T09:41:18.071Z</time>
      </trkpt>
      <trkpt lat="45.55096" lon="6.04752">
        <ele>975</ele>
        <time>2021-06-27T09:41:19.071Z</time>
      </trkpt>
      <trkpt lat="45.55096" lon="6.04752">
        <ele>974</ele>
        <time>2021-06-27T09:41:20.071Z</time>
      </trkpt>
      <trkpt lat="45.55096" lon="6.04753">
        <ele>974</ele>
        <time>2021-06-27T09:41:21.071Z</time>
      </trkpt>
      <trkpt lat="45.55096" lon="6.04754">
        <ele>974</ele>
        <time>2021-06-27T09:41:22.071Z</time>
      </trkpt>
      <trkpt lat="45.55096" lon="6.04755">
        <ele>974</ele>
        <time>2021-06-27T09:41:23.070Z</time>
      </trkpt>
      <trkpt lat="45.55096" lon="6.04756">
        <ele>974</ele>
        <time>2021-06-27T09:41:24.071Z</time>
      </trkpt>
      <trkpt lat="45.55096" lon="6.04757">
        <ele>974</ele>
        <time>2021-06-27T09:41:25.070Z</time>
      </trkpt>
      <trkpt lat="45.55097" lon="6.04757">
        <ele>974</ele>
        <time>2021-06-27T09:41:26.071Z</time>
      </trkpt>
      <trkpt lat="45.55096" lon="6.04757">
        <ele>974</ele>
        <time>2021-06-27T09:41:27.071Z</time>
      </trkpt>
      <trkpt lat="45.55096" lon="6.04757">
        <ele>975</ele>
        <time>2021-06-27T09:41:28.071Z</time>
      </trkpt>
      <trkpt lat="45.55096" lon="6.04756">
        <ele>975</ele>
        <time>2021-06-27T09:41:29.071Z</time>
      </trkpt>
      <trkpt lat="45.55095" lon="6.04756">
        <ele>976</ele>
        <time>2021-06-27T09:41:30.071Z</time>
      </trkpt>
      <trkpt lat="45.55095" lon="6.04756">
        <ele>976</ele>
        <time>2021-06-27T09:41:31.071Z</time>
      </trkpt>
      <trkpt lat="45.55095" lon="6.04756">
        <ele>977</ele>
        <time>2021-06-27T09:41:32.070Z</time>
      </trkpt>
      <trkpt lat="45.55095" lon="6.04756">
        <ele>977</ele>
        <time>2021-06-27T09:41:33.071Z</time>
      </trkpt>
      <trkpt lat="45.55095" lon="6.04756">
        <ele>977</ele>
        <time>2021-06-27T09:41:34.071Z</time>
      </trkpt>
      <trkpt lat="45.55095" lon="6.04757">
        <ele>977</ele>
        <time>2021-06-27T09:41:35.071Z</time>
      </trkpt>
      <trkpt lat="45.55094" lon="6.04757">
        <ele>977</ele>
        <time>2021-06-27T09:41:36.070Z</time>
      </trkpt>
      <trkpt lat="45.55094" lon="6.04756">
        <ele>977</ele>
        <time>2021-06-27T09:41:37.071Z</time>
      </trkpt>
      <trkpt lat="45.55093" lon="6.04756">
        <ele>977</ele>
        <time>2021-06-27T09:41:38.071Z</time>
      </trkpt>
      <trkpt lat="45.55092" lon="6.04755">
        <ele>978</ele>
        <time>2021-06-27T09:41:39.071Z</time>
      </trkpt>
      <trkpt lat="45.55092" lon="6.04755">
        <ele>978</ele>
        <time>2021-06-27T09:41:40.071Z</time>
      </trkpt>
      <trkpt lat="45.55091" lon="6.04755">
        <ele>979</ele>
        <time>2021-06-27T09:41:41.071Z</time>
      </trkpt>
      <trkpt lat="45.5509" lon="6.04755">
        <ele>979</ele>
        <time>2021-06-27T09:41:42.071Z</time>
      </trkpt>
      <trkpt lat="45.55089" lon="6.04756">
        <ele>980</ele>
        <time>2021-06-27T09:41:43.071Z</time>
      </trkpt>
      <trkpt lat="45.55088" lon="6.04756">
        <ele>980</ele>
        <time>2021-06-27T09:41:44.071Z</time>
      </trkpt>
      <trkpt lat="45.55086" lon="6.04757">
        <ele>980</ele>
        <time>2021-06-27T09:41:45.071Z</time>
      </trkpt>
      <trkpt lat="45.55084" lon="6.04757">
        <ele>981</ele>
        <time>2021-06-27T09:41:46.071Z</time>
      </trkpt>
      <trkpt lat="45.55082" lon="6.04756">
        <ele>981</ele>
        <time>2021-06-27T09:41:47.070Z</time>
      </trkpt>
      <trkpt lat="45.55081" lon="6.04754">
        <ele>982</ele>
        <time>2021-06-27T09:41:48.071Z</time>
      </trkpt>
      <trkpt lat="45.5508" lon="6.04753">
        <ele>982</ele>
        <time>2021-06-27T09:41:49.070Z</time>
      </trkpt>
      <trkpt lat="45.55079" lon="6.04753">
        <ele>982</ele>
        <time>2021-06-27T09:41:50.071Z</time>
      </trkpt>
      <trkpt lat="45.55077" lon="6.04752">
        <ele>982</ele>
        <time>2021-06-27T09:41:51.071Z</time>
      </trkpt>
      <trkpt lat="45.55076" lon="6.04752">
        <ele>982</ele>
        <time>2021-06-27T09:41:52.071Z</time>
      </trkpt>
      <trkpt lat="45.55074" lon="6.04751">
        <ele>982</ele>
        <time>2021-06-27T09:41:53.070Z</time>
      </trkpt>
      <trkpt lat="45.55073" lon="6.04751">
        <ele>982</ele>
        <time>2021-06-27T09:41:54.071Z</time>
      </trkpt>
      <trkpt lat="45.55073" lon="6.04751">
        <ele>982</ele>
        <time>2021-06-27T09:41:55.071Z</time>
      </trkpt>
      <trkpt lat="45.55072" lon="6.04751">
        <ele>982</ele>
        <time>2021-06-27T09:41:56.071Z</time>
      </trkpt>
      <trkpt lat="45.55071" lon="6.04751">
        <ele>981</ele>
        <time>2021-06-27T09:41:57.071Z</time>
      </trkpt>
      <trkpt lat="45.5507" lon="6.0475">
        <ele>981</ele>
        <time>2021-06-27T09:41:58.071Z</time>
      </trkpt>
      <trkpt lat="45.55069" lon="6.0475">
        <ele>981</ele>
        <time>2021-06-27T09:41:59.071Z</time>
      </trkpt>
      <trkpt lat="45.55069" lon="6.04749">
        <ele>980</ele>
        <time>2021-06-27T09:42:00.071Z</time>
      </trkpt>
      <trkpt lat="45.55067" lon="6.04749">
        <ele>980</ele>
        <time>2021-06-27T09:42:01.070Z</time>
      </trkpt>
      <trkpt lat="45.55067" lon="6.04749">
        <ele>980</ele>
        <time>2021-06-27T09:42:02.070Z</time>
      </trkpt>
      <trkpt lat="45.55066" lon="6.04748">
        <ele>980</ele>
        <time>2021-06-27T09:42:03.071Z</time>
      </trkpt>
      <trkpt lat="45.55064" lon="6.04747">
        <ele>980</ele>
        <time>2021-06-27T09:42:04.071Z</time>
      </trkpt>
      <trkpt lat="45.55063" lon="6.04745">
        <ele>980</ele>
        <time>2021-06-27T09:42:05.071Z</time>
      </trkpt>
      <trkpt lat="45.55061" lon="6.04744">
        <ele>980</ele>
        <time>2021-06-27T09:42:06.070Z</time>
      </trkpt>
      <trkpt lat="45.5506" lon="6.04744">
        <ele>981</ele>
        <time>2021-06-27T09:42:07.071Z</time>
      </trkpt>
      <trkpt lat="45.55059" lon="6.04745">
        <ele>981</ele>
        <time>2021-06-27T09:42:08.071Z</time>
      </trkpt>
      <trkpt lat="45.55059" lon="6.04745">
        <ele>982</ele>
        <time>2021-06-27T09:42:09.071Z</time>
      </trkpt>
      <trkpt lat="45.55058" lon="6.04745">
        <ele>982</ele>
        <time>2021-06-27T09:42:10.071Z</time>
      </trkpt>
      <trkpt lat="45.55057" lon="6.04744">
        <ele>983</ele>
        <time>2021-06-27T09:42:11.070Z</time>
      </trkpt>
      <trkpt lat="45.55056" lon="6.04743">
        <ele>983</ele>
        <time>2021-06-27T09:42:12.071Z</time>
      </trkpt>
      <trkpt lat="45.55056" lon="6.04743">
        <ele>983</ele>
        <time>2021-06-27T09:42:13.071Z</time>
      </trkpt>
      <trkpt lat="45.55055" lon="6.04742">
        <ele>984</ele>
        <time>2021-06-27T09:42:14.071Z</time>
      </trkpt>
      <trkpt lat="45.55055" lon="6.04741">
        <ele>984</ele>
        <time>2021-06-27T09:42:15.071Z</time>
      </trkpt>
      <trkpt lat="45.55055" lon="6.04741">
        <ele>984</ele>
        <time>2021-06-27T09:42:16.071Z</time>
      </trkpt>
      <trkpt lat="45.55054" lon="6.04741">
        <ele>985</ele>
        <time>2021-06-27T09:42:17.071Z</time>
      </trkpt>
      <trkpt lat="45.55053" lon="6.04741">
        <ele>985</ele>
        <time>2021-06-27T09:42:18.071Z</time>
      </trkpt>
      <trkpt lat="45.55052" lon="6.04741">
        <ele>985</ele>
        <time>2021-06-27T09:42:19.071Z</time>
      </trkpt>
      <trkpt lat="45.55052" lon="6.0474">
        <ele>986</ele>
        <time>2021-06-27T09:42:20.071Z</time>
      </trkpt>
      <trkpt lat="45.55051" lon="6.0474">
        <ele>986</ele>
        <time>2021-06-27T09:42:21.071Z</time>
      </trkpt>
      <trkpt lat="45.5505" lon="6.0474">
        <ele>986</ele>
        <time>2021-06-27T09:42:22.071Z</time>
      </trkpt>
      <trkpt lat="45.5505" lon="6.0474">
        <ele>986</ele>
        <time>2021-06-27T09:42:23.071Z</time>
      </trkpt>
      <trkpt lat="45.55049" lon="6.04741">
        <ele>987</ele>
        <time>2021-06-27T09:42:24.071Z</time>
      </trkpt>
      <trkpt lat="45.55049" lon="6.04742">
        <ele>986</ele>
        <time>2021-06-27T09:42:25.071Z</time>
      </trkpt>
      <trkpt lat="45.55049" lon="6.04743">
        <ele>986</ele>
        <time>2021-06-27T09:42:26.071Z</time>
      </trkpt>
      <trkpt lat="45.55048" lon="6.04742">
        <ele>986</ele>
        <time>2021-06-27T09:42:27.071Z</time>
      </trkpt>
      <trkpt lat="45.55047" lon="6.04743">
        <ele>986</ele>
        <time>2021-06-27T09:42:28.071Z</time>
      </trkpt>
      <trkpt lat="45.55046" lon="6.04743">
        <ele>986</ele>
        <time>2021-06-27T09:42:29.071Z</time>
      </trkpt>
      <trkpt lat="45.55045" lon="6.04744">
        <ele>986</ele>
        <time>2021-06-27T09:42:30.071Z</time>
      </trkpt>
      <trkpt lat="45.55045" lon="6.04744">
        <ele>986</ele>
        <time>2021-06-27T09:42:31.071Z</time>
      </trkpt>
      <trkpt lat="45.55045" lon="6.04744">
        <ele>986</ele>
        <time>2021-06-27T09:42:32.071Z</time>
      </trkpt>
      <trkpt lat="45.55045" lon="6.04744">
        <ele>986</ele>
        <time>2021-06-27T09:42:33.071Z</time>
      </trkpt>
      <trkpt lat="45.55045" lon="6.04744">
        <ele>986</ele>
        <time>2021-06-27T09:42:34.071Z</time>
      </trkpt>
      <trkpt lat="45.55046" lon="6.04745">
        <ele>986</ele>
        <time>2021-06-27T09:42:35.071Z</time>
      </trkpt>
      <trkpt lat="45.55046" lon="6.04745">
        <ele>986</ele>
        <time>2021-06-27T09:42:36.070Z</time>
      </trkpt>
      <trkpt lat="45.55046" lon="6.04745">
        <ele>986</ele>
        <time>2021-06-27T09:42:37.071Z</time>
      </trkpt>
      <trkpt lat="45.55045" lon="6.04744">
        <ele>986</ele>
        <time>2021-06-27T09:42:38.071Z</time>
      </trkpt>
      <trkpt lat="45.55045" lon="6.04743">
        <ele>987</ele>
        <time>2021-06-27T09:42:39.071Z</time>
      </trkpt>
      <trkpt lat="45.55045" lon="6.04742">
        <ele>987</ele>
        <time>2021-06-27T09:42:40.071Z</time>
      </trkpt>
      <trkpt lat="45.55045" lon="6.04742">
        <ele>988</ele>
        <time>2021-06-27T09:42:41.071Z</time>
      </trkpt>
      <trkpt lat="45.55046" lon="6.04742">
        <ele>988</ele>
        <time>2021-06-27T09:42:42.071Z</time>
      </trkpt>
      <trkpt lat="45.55046" lon="6.04742">
        <ele>988</ele>
        <time>2021-06-27T09:42:43.071Z</time>
      </trkpt>
      <trkpt lat="45.55045" lon="6.04743">
        <ele>988</ele>
        <time>2021-06-27T09:42:44.071Z</time>
      </trkpt>
      <trkpt lat="45.55045" lon="6.04744">
        <ele>988</ele>
        <time>2021-06-27T09:42:45.071Z</time>
      </trkpt>
      <trkpt lat="45.55044" lon="6.04744">
        <ele>988</ele>
        <time>2021-06-27T09:42:46.071Z</time>
      </trkpt>
      <trkpt lat="45.55043" lon="6.04744">
        <ele>989</ele>
        <time>2021-06-27T09:42:47.070Z</time>
      </trkpt>
      <trkpt lat="45.55042" lon="6.04744">
        <ele>989</ele>
        <time>2021-06-27T09:42:48.071Z</time>
      </trkpt>
      <trkpt lat="45.55041" lon="6.04744">
        <ele>989</ele>
        <time>2021-06-27T09:42:49.071Z</time>
      </trkpt>
      <trkpt lat="45.55041" lon="6.04743">
        <ele>990</ele>
        <time>2021-06-27T09:42:50.071Z</time>
      </trkpt>
      <trkpt lat="45.5504" lon="6.04743">
        <ele>990</ele>
        <time>2021-06-27T09:42:51.070Z</time>
      </trkpt>
      <trkpt lat="45.5504" lon="6.04743">
        <ele>991</ele>
        <time>2021-06-27T09:42:52.071Z</time>
      </trkpt>
      <trkpt lat="45.55039" lon="6.04742">
        <ele>992</ele>
        <time>2021-06-27T09:42:53.071Z</time>
      </trkpt>
      <trkpt lat="45.55038" lon="6.04742">
        <ele>992</ele>
        <time>2021-06-27T09:42:54.071Z</time>
      </trkpt>
      <trkpt lat="45.55038" lon="6.04742">
        <ele>993</ele>
        <time>2021-06-27T09:42:55.071Z</time>
      </trkpt>
      <trkpt lat="45.55037" lon="6.04741">
        <ele>993</ele>
        <time>2021-06-27T09:42:56.071Z</time>
      </trkpt>
      <trkpt lat="45.55037" lon="6.04741">
        <ele>993</ele>
        <time>2021-06-27T09:42:57.071Z</time>
      </trkpt>
      <trkpt lat="45.55036" lon="6.04741">
        <ele>993</ele>
        <time>2021-06-27T09:42:58.071Z</time>
      </trkpt>
      <trkpt lat="45.55035" lon="6.04741">
        <ele>993</ele>
        <time>2021-06-27T09:42:59.070Z</time>
      </trkpt>
      <trkpt lat="45.55034" lon="6.04741">
        <ele>993</ele>
        <time>2021-06-27T09:43:00.071Z</time>
      </trkpt>
      <trkpt lat="45.55033" lon="6.04741">
        <ele>993</ele>
        <time>2021-06-27T09:43:01.071Z</time>
      </trkpt>
      <trkpt lat="45.55032" lon="6.0474">
        <ele>993</ele>
        <time>2021-06-27T09:43:02.071Z</time>
      </trkpt>
      <trkpt lat="45.55031" lon="6.0474">
        <ele>993</ele>
        <time>2021-06-27T09:43:03.070Z</time>
      </trkpt>
      <trkpt lat="45.55031" lon="6.0474">
        <ele>994</ele>
        <time>2021-06-27T09:43:04.071Z</time>
      </trkpt>
      <trkpt lat="45.5503" lon="6.04741">
        <ele>994</ele>
        <time>2021-06-27T09:43:05.071Z</time>
      </trkpt>
      <trkpt lat="45.5503" lon="6.04741">
        <ele>994</ele>
        <time>2021-06-27T09:43:06.071Z</time>
      </trkpt>
      <trkpt lat="45.5503" lon="6.04741">
        <ele>994</ele>
        <time>2021-06-27T09:43:07.070Z</time>
      </trkpt>
      <trkpt lat="45.5503" lon="6.04741">
        <ele>994</ele>
        <time>2021-06-27T09:43:08.071Z</time>
      </trkpt>
      <trkpt lat="45.55029" lon="6.04742">
        <ele>994</ele>
        <time>2021-06-27T09:43:09.071Z</time>
      </trkpt>
      <trkpt lat="45.5503" lon="6.04742">
        <ele>994</ele>
        <time>2021-06-27T09:43:10.070Z</time>
      </trkpt>
      <trkpt lat="45.5503" lon="6.04744">
        <ele>994</ele>
        <time>2021-06-27T09:43:11.070Z</time>
      </trkpt>
      <trkpt lat="45.55029" lon="6.04745">
        <ele>995</ele>
        <time>2021-06-27T09:43:12.071Z</time>
      </trkpt>
      <trkpt lat="45.55028" lon="6.04744">
        <ele>995</ele>
        <time>2021-06-27T09:43:13.071Z</time>
      </trkpt>
      <trkpt lat="45.55028" lon="6.04744">
        <ele>995</ele>
        <time>2021-06-27T09:43:14.070Z</time>
      </trkpt>
      <trkpt lat="45.55028" lon="6.04743">
        <ele>995</ele>
        <time>2021-06-27T09:43:15.071Z</time>
      </trkpt>
      <trkpt lat="45.55028" lon="6.04743">
        <ele>995</ele>
        <time>2021-06-27T09:43:16.071Z</time>
      </trkpt>
      <trkpt lat="45.55028" lon="6.04745">
        <ele>996</ele>
        <time>2021-06-27T09:43:17.071Z</time>
      </trkpt>
      <trkpt lat="45.55029" lon="6.04746">
        <ele>996</ele>
        <time>2021-06-27T09:43:18.071Z</time>
      </trkpt>
      <trkpt lat="45.55029" lon="6.04746">
        <ele>996</ele>
        <time>2021-06-27T09:43:19.071Z</time>
      </trkpt>
      <trkpt lat="45.5503" lon="6.04747">
        <ele>996</ele>
        <time>2021-06-27T09:43:20.070Z</time>
      </trkpt>
      <trkpt lat="45.5503" lon="6.04747">
        <ele>996</ele>
        <time>2021-06-27T09:43:21.071Z</time>
      </trkpt>
      <trkpt lat="45.55031" lon="6.04747">
        <ele>996</ele>
        <time>2021-06-27T09:43:22.071Z</time>
      </trkpt>
      <trkpt lat="45.55031" lon="6.04748">
        <ele>996</ele>
        <time>2021-06-27T09:43:23.070Z</time>
      </trkpt>
      <trkpt lat="45.55031" lon="6.04749">
        <ele>996</ele>
        <time>2021-06-27T09:43:24.071Z</time>
      </trkpt>
      <trkpt lat="45.55031" lon="6.04749">
        <ele>996</ele>
        <time>2021-06-27T09:43:25.071Z</time>
      </trkpt>
      <trkpt lat="45.55031" lon="6.0475">
        <ele>996</ele>
        <time>2021-06-27T09:43:26.071Z</time>
      </trkpt>
      <trkpt lat="45.55031" lon="6.04751">
        <ele>997</ele>
        <time>2021-06-27T09:43:27.070Z</time>
      </trkpt>
      <trkpt lat="45.55031" lon="6.04752">
        <ele>997</ele>
        <time>2021-06-27T09:43:28.071Z</time>
      </trkpt>
      <trkpt lat="45.55031" lon="6.04754">
        <ele>997</ele>
        <time>2021-06-27T09:43:29.071Z</time>
      </trkpt>
      <trkpt lat="45.55031" lon="6.04755">
        <ele>997</ele>
        <time>2021-06-27T09:43:30.071Z</time>
      </trkpt>
      <trkpt lat="45.55031" lon="6.04756">
        <ele>997</ele>
        <time>2021-06-27T09:43:31.071Z</time>
      </trkpt>
      <trkpt lat="45.55032" lon="6.04756">
        <ele>997</ele>
        <time>2021-06-27T09:43:32.071Z</time>
      </trkpt>
      <trkpt lat="45.55032" lon="6.04757">
        <ele>997</ele>
        <time>2021-06-27T09:43:33.071Z</time>
      </trkpt>
      <trkpt lat="45.55033" lon="6.04757">
        <ele>998</ele>
        <time>2021-06-27T09:43:34.071Z</time>
      </trkpt>
      <trkpt lat="45.55033" lon="6.04757">
        <ele>998</ele>
        <time>2021-06-27T09:43:35.071Z</time>
      </trkpt>
      <trkpt lat="45.55034" lon="6.04757">
        <ele>998</ele>
        <time>2021-06-27T09:43:36.071Z</time>
      </trkpt>
      <trkpt lat="45.55034" lon="6.04757">
        <ele>998</ele>
        <time>2021-06-27T09:43:37.071Z</time>
      </trkpt>
      <trkpt lat="45.55035" lon="6.04757">
        <ele>999</ele>
        <time>2021-06-27T09:43:38.071Z</time>
      </trkpt>
      <trkpt lat="45.55035" lon="6.04756">
        <ele>998</ele>
        <time>2021-06-27T09:43:39.071Z</time>
      </trkpt>
      <trkpt lat="45.55036" lon="6.04756">
        <ele>999</ele>
        <time>2021-06-27T09:43:40.070Z</time>
      </trkpt>
      <trkpt lat="45.55037" lon="6.04756">
        <ele>999</ele>
        <time>2021-06-27T09:43:41.071Z</time>
      </trkpt>
      <trkpt lat="45.55037" lon="6.04756">
        <ele>999</ele>
        <time>2021-06-27T09:43:42.071Z</time>
      </trkpt>
      <trkpt lat="45.55038" lon="6.04756">
        <ele>999</ele>
        <time>2021-06-27T09:43:43.071Z</time>
      </trkpt>
      <trkpt lat="45.55039" lon="6.04757">
        <ele>999</ele>
        <time>2021-06-27T09:43:44.071Z</time>
      </trkpt>
      <trkpt lat="45.5504" lon="6.04758">
        <ele>999</ele>
        <time>2021-06-27T09:43:45.071Z</time>
      </trkpt>
      <trkpt lat="45.5504" lon="6.04758">
        <ele>999</ele>
        <time>2021-06-27T09:43:46.070Z</time>
      </trkpt>
      <trkpt lat="45.5504" lon="6.04759">
        <ele>1000</ele>
        <time>2021-06-27T09:43:47.071Z</time>
      </trkpt>
      <trkpt lat="45.5504" lon="6.04759">
        <ele>1000</ele>
        <time>2021-06-27T09:43:48.071Z</time>
      </trkpt>
      <trkpt lat="45.5504" lon="6.04759">
        <ele>1000</ele>
        <time>2021-06-27T09:43:49.071Z</time>
      </trkpt>
      <trkpt lat="45.55041" lon="6.04758">
        <ele>1001</ele>
        <time>2021-06-27T09:43:50.071Z</time>
      </trkpt>
      <trkpt lat="45.55042" lon="6.04758">
        <ele>1001</ele>
        <time>2021-06-27T09:43:51.071Z</time>
      </trkpt>
      <trkpt lat="45.55043" lon="6.04759">
        <ele>1001</ele>
        <time>2021-06-27T09:43:52.071Z</time>
      </trkpt>
      <trkpt lat="45.55043" lon="6.04758">
        <ele>1001</ele>
        <time>2021-06-27T09:43:53.071Z</time>
      </trkpt>
      <trkpt lat="45.55043" lon="6.04758">
        <ele>1002</ele>
        <time>2021-06-27T09:43:54.071Z</time>
      </trkpt>
      <trkpt lat="45.55042" lon="6.04759">
        <ele>1002</ele>
        <time>2021-06-27T09:43:55.071Z</time>
      </trkpt>
      <trkpt lat="45.55042" lon="6.04761">
        <ele>1002</ele>
        <time>2021-06-27T09:43:56.071Z</time>
      </trkpt>
      <trkpt lat="45.55042" lon="6.04762">
        <ele>1002</ele>
        <time>2021-06-27T09:43:57.071Z</time>
      </trkpt>
      <trkpt lat="45.55041" lon="6.04764">
        <ele>1002</ele>
        <time>2021-06-27T09:43:58.071Z</time>
      </trkpt>
      <trkpt lat="45.5504" lon="6.04765">
        <ele>1002</ele>
        <time>2021-06-27T09:43:59.071Z</time>
      </trkpt>
      <trkpt lat="45.5504" lon="6.04766">
        <ele>1002</ele>
        <time>2021-06-27T09:44:00.070Z</time>
      </trkpt>
      <trkpt lat="45.55041" lon="6.04767">
        <ele>1002</ele>
        <time>2021-06-27T09:44:01.071Z</time>
      </trkpt>
      <trkpt lat="45.55041" lon="6.04768">
        <ele>1002</ele>
        <time>2021-06-27T09:44:02.071Z</time>
      </trkpt>
      <trkpt lat="45.55041" lon="6.04769">
        <ele>1002</ele>
        <time>2021-06-27T09:44:03.071Z</time>
      </trkpt>
      <trkpt lat="45.55041" lon="6.0477">
        <ele>1002</ele>
        <time>2021-06-27T09:44:04.071Z</time>
      </trkpt>
      <trkpt lat="45.55041" lon="6.04771">
        <ele>1002</ele>
        <time>2021-06-27T09:44:05.071Z</time>
      </trkpt>
      <trkpt lat="45.55041" lon="6.04771">
        <ele>1003</ele>
        <time>2021-06-27T09:44:06.071Z</time>
      </trkpt>
      <trkpt lat="45.55041" lon="6.04772">
        <ele>1003</ele>
        <time>2021-06-27T09:44:07.071Z</time>
      </trkpt>
      <trkpt lat="45.55041" lon="6.04774">
        <ele>1003</ele>
        <time>2021-06-27T09:44:08.070Z</time>
      </trkpt>
      <trkpt lat="45.55041" lon="6.04775">
        <ele>1003</ele>
        <time>2021-06-27T09:44:09.071Z</time>
      </trkpt>
      <trkpt lat="45.55041" lon="6.04775">
        <ele>1003</ele>
        <time>2021-06-27T09:44:10.071Z</time>
      </trkpt>
      <trkpt lat="45.5504" lon="6.04775">
        <ele>1003</ele>
        <time>2021-06-27T09:44:11.070Z</time>
      </trkpt>
      <trkpt lat="45.5504" lon="6.04776">
        <ele>1004</ele>
        <time>2021-06-27T09:44:12.071Z</time>
      </trkpt>
      <trkpt lat="45.5504" lon="6.04776">
        <ele>1004</ele>
        <time>2021-06-27T09:44:13.071Z</time>
      </trkpt>
      <trkpt lat="45.5504" lon="6.04777">
        <ele>1004</ele>
        <time>2021-06-27T09:44:14.071Z</time>
      </trkpt>
      <trkpt lat="45.55039" lon="6.0478">
        <ele>1004</ele>
        <time>2021-06-27T09:44:15.070Z</time>
      </trkpt>
      <trkpt lat="45.55039" lon="6.04781">
        <ele>1003</ele>
        <time>2021-06-27T09:44:16.071Z</time>
      </trkpt>
      <trkpt lat="45.55038" lon="6.04781">
        <ele>1003</ele>
        <time>2021-06-27T09:44:17.071Z</time>
      </trkpt>
      <trkpt lat="45.55037" lon="6.04782">
        <ele>1003</ele>
        <time>2021-06-27T09:44:18.071Z</time>
      </trkpt>
      <trkpt lat="45.55036" lon="6.04783">
        <ele>1003</ele>
        <time>2021-06-27T09:44:19.071Z</time>
      </trkpt>
      <trkpt lat="45.55035" lon="6.04783">
        <ele>1003</ele>
        <time>2021-06-27T09:44:20.071Z</time>
      </trkpt>
      <trkpt lat="45.55034" lon="6.04783">
        <ele>1003</ele>
        <time>2021-06-27T09:44:21.071Z</time>
      </trkpt>
      <trkpt lat="45.55034" lon="6.04783">
        <ele>1003</ele>
        <time>2021-06-27T09:44:22.070Z</time>
      </trkpt>
      <trkpt lat="45.55034" lon="6.04784">
        <ele>1004</ele>
        <time>2021-06-27T09:44:23.071Z</time>
      </trkpt>
      <trkpt lat="45.55033" lon="6.04783">
        <ele>1004</ele>
        <time>2021-06-27T09:44:24.070Z</time>
      </trkpt>
      <trkpt lat="45.55033" lon="6.04783">
        <ele>1005</ele>
        <time>2021-06-27T09:44:25.071Z</time>
      </trkpt>
      <trkpt lat="45.55033" lon="6.04783">
        <ele>1006</ele>
        <time>2021-06-27T09:44:26.070Z</time>
      </trkpt>
      <trkpt lat="45.55033" lon="6.04783">
        <ele>1007</ele>
        <time>2021-06-27T09:44:27.070Z</time>
      </trkpt>
      <trkpt lat="45.55034" lon="6.04782">
        <ele>1007</ele>
        <time>2021-06-27T09:44:28.070Z</time>
      </trkpt>
      <trkpt lat="45.55035" lon="6.04782">
        <ele>1008</ele>
        <time>2021-06-27T09:44:29.071Z</time>
      </trkpt>
      <trkpt lat="45.55035" lon="6.04781">
        <ele>1009</ele>
        <time>2021-06-27T09:44:30.071Z</time>
      </trkpt>
      <trkpt lat="45.55035" lon="6.04781">
        <ele>1010</ele>
        <time>2021-06-27T09:44:31.071Z</time>
      </trkpt>
      <trkpt lat="45.55035" lon="6.04781">
        <ele>1011</ele>
        <time>2021-06-27T09:44:32.071Z</time>
      </trkpt>
      <trkpt lat="45.55035" lon="6.04781">
        <ele>1012</ele>
        <time>2021-06-27T09:44:33.071Z</time>
      </trkpt>
      <trkpt lat="45.55035" lon="6.04781">
        <ele>1013</ele>
        <time>2021-06-27T09:44:34.071Z</time>
      </trkpt>
      <trkpt lat="45.55036" lon="6.04781">
        <ele>1013</ele>
        <time>2021-06-27T09:44:35.071Z</time>
      </trkpt>
      <trkpt lat="45.55036" lon="6.04781">
        <ele>1014</ele>
        <time>2021-06-27T09:44:36.071Z</time>
      </trkpt>
      <trkpt lat="45.55036" lon="6.0478">
        <ele>1015</ele>
        <time>2021-06-27T09:44:37.071Z</time>
      </trkpt>
      <trkpt lat="45.55037" lon="6.04779">
        <ele>1016</ele>
        <time>2021-06-27T09:44:38.071Z</time>
      </trkpt>
      <trkpt lat="45.55037" lon="6.04779">
        <ele>1016</ele>
        <time>2021-06-27T09:44:39.071Z</time>
      </trkpt>
      <trkpt lat="45.55036" lon="6.04778">
        <ele>1016</ele>
        <time>2021-06-27T09:44:40.071Z</time>
      </trkpt>
      <trkpt lat="45.55036" lon="6.04778">
        <ele>1016</ele>
        <time>2021-06-27T09:44:41.070Z</time>
      </trkpt>
      <trkpt lat="45.55036" lon="6.04778">
        <ele>1016</ele>
        <time>2021-06-27T09:44:42.071Z</time>
      </trkpt>
      <trkpt lat="45.55036" lon="6.04777">
        <ele>1016</ele>
        <time>2021-06-27T09:44:43.071Z</time>
      </trkpt>
      <trkpt lat="45.55036" lon="6.04777">
        <ele>1016</ele>
        <time>2021-06-27T09:44:44.071Z</time>
      </trkpt>
      <trkpt lat="45.55036" lon="6.04776">
        <ele>1016</ele>
        <time>2021-06-27T09:44:45.071Z</time>
      </trkpt>
      <trkpt lat="45.55035" lon="6.04776">
        <ele>1016</ele>
        <time>2021-06-27T09:44:46.071Z</time>
      </trkpt>
      <trkpt lat="45.55034" lon="6.04776">
        <ele>1016</ele>
        <time>2021-06-27T09:44:47.071Z</time>
      </trkpt>
      <trkpt lat="45.55033" lon="6.04775">
        <ele>1016</ele>
        <time>2021-06-27T09:44:48.071Z</time>
      </trkpt>
      <trkpt lat="45.55032" lon="6.04775">
        <ele>1015</ele>
        <time>2021-06-27T09:44:49.070Z</time>
      </trkpt>
      <trkpt lat="45.55031" lon="6.04774">
        <ele>1016</ele>
        <time>2021-06-27T09:44:50.071Z</time>
      </trkpt>
      <trkpt lat="45.55031" lon="6.04773">
        <ele>1016</ele>
        <time>2021-06-27T09:44:51.071Z</time>
      </trkpt>
      <trkpt lat="45.5503" lon="6.04773">
        <ele>1016</ele>
        <time>2021-06-27T09:44:52.071Z</time>
      </trkpt>
      <trkpt lat="45.5503" lon="6.04773">
        <ele>1017</ele>
        <time>2021-06-27T09:44:53.071Z</time>
      </trkpt>
      <trkpt lat="45.55029" lon="6.04773">
        <ele>1017</ele>
        <time>2021-06-27T09:44:54.071Z</time>
      </trkpt>
      <trkpt lat="45.55029" lon="6.04773">
        <ele>1018</ele>
        <time>2021-06-27T09:44:55.070Z</time>
      </trkpt>
      <trkpt lat="45.55028" lon="6.04771">
        <ele>1018</ele>
        <time>2021-06-27T09:44:56.071Z</time>
      </trkpt>
      <trkpt lat="45.55028" lon="6.04771">
        <ele>1019</ele>
        <time>2021-06-27T09:44:57.071Z</time>
      </trkpt>
      <trkpt lat="45.55028" lon="6.0477">
        <ele>1020</ele>
        <time>2021-06-27T09:44:58.070Z</time>
      </trkpt>
      <trkpt lat="45.55029" lon="6.0477">
        <ele>1020</ele>
        <time>2021-06-27T09:44:59.071Z</time>
      </trkpt>
      <trkpt lat="45.55028" lon="6.0477">
        <ele>1021</ele>
        <time>2021-06-27T09:45:00.071Z</time>
      </trkpt>
      <trkpt lat="45.55028" lon="6.0477">
        <ele>1021</ele>
        <time>2021-06-27T09:45:01.071Z</time>
      </trkpt>
      <trkpt lat="45.55028" lon="6.0477">
        <ele>1021</ele>
        <time>2021-06-27T09:45:02.071Z</time>
      </trkpt>
      <trkpt lat="45.55029" lon="6.0477">
        <ele>1021</ele>
        <time>2021-06-27T09:45:03.070Z</time>
      </trkpt>
      <trkpt lat="45.55029" lon="6.0477">
        <ele>1021</ele>
        <time>2021-06-27T09:45:04.071Z</time>
      </trkpt>
      <trkpt lat="45.55029" lon="6.0477">
        <ele>1021</ele>
        <time>2021-06-27T09:45:05.071Z</time>
      </trkpt>
      <trkpt lat="45.5503" lon="6.0477">
        <ele>1020</ele>
        <time>2021-06-27T09:45:06.071Z</time>
      </trkpt>
      <trkpt lat="45.5503" lon="6.04769">
        <ele>1020</ele>
        <time>2021-06-27T09:45:07.071Z</time>
      </trkpt>
      <trkpt lat="45.55031" lon="6.04769">
        <ele>1020</ele>
        <time>2021-06-27T09:45:08.070Z</time>
      </trkpt>
      <trkpt lat="45.55031" lon="6.04768">
        <ele>1019</ele>
        <time>2021-06-27T09:45:09.071Z</time>
      </trkpt>
      <trkpt lat="45.55031" lon="6.04768">
        <ele>1019</ele>
        <time>2021-06-27T09:45:10.070Z</time>
      </trkpt>
      <trkpt lat="45.55031" lon="6.04767">
        <ele>1018</ele>
        <time>2021-06-27T09:45:11.070Z</time>
      </trkpt>
      <trkpt lat="45.55031" lon="6.04765">
        <ele>1018</ele>
        <time>2021-06-27T09:45:12.070Z</time>
      </trkpt>
      <trkpt lat="45.55031" lon="6.04765">
        <ele>1017</ele>
        <time>2021-06-27T09:45:13.071Z</time>
      </trkpt>
      <trkpt lat="45.55031" lon="6.04765">
        <ele>1017</ele>
        <time>2021-06-27T09:45:14.071Z</time>
      </trkpt>
      <trkpt lat="45.5503" lon="6.04764">
        <ele>1017</ele>
        <time>2021-06-27T09:45:15.071Z</time>
      </trkpt>
      <trkpt lat="45.5503" lon="6.04764">
        <ele>1016</ele>
        <time>2021-06-27T09:45:16.071Z</time>
      </trkpt>
      <trkpt lat="45.5503" lon="6.04763">
        <ele>1016</ele>
        <time>2021-06-27T09:45:17.071Z</time>
      </trkpt>
      <trkpt lat="45.5503" lon="6.04763">
        <ele>1017</ele>
        <time>2021-06-27T09:45:18.071Z</time>
      </trkpt>
      <trkpt lat="45.5503" lon="6.04762">
        <ele>1017</ele>
        <time>2021-06-27T09:45:19.071Z</time>
      </trkpt>
      <trkpt lat="45.55029" lon="6.04761">
        <ele>1018</ele>
        <time>2021-06-27T09:45:20.071Z</time>
      </trkpt>
      <trkpt lat="45.55028" lon="6.04759">
        <ele>1018</ele>
        <time>2021-06-27T09:45:21.071Z</time>
      </trkpt>
      <trkpt lat="45.55026" lon="6.04758">
        <ele>1020</ele>
        <time>2021-06-27T09:45:22.071Z</time>
      </trkpt>
      <trkpt lat="45.55026" lon="6.04757">
        <ele>1021</ele>
        <time>2021-06-27T09:45:23.071Z</time>
      </trkpt>
      <trkpt lat="45.55025" lon="6.04756">
        <ele>1023</ele>
        <time>2021-06-27T09:45:24.071Z</time>
      </trkpt>
      <trkpt lat="45.55025" lon="6.04756">
        <ele>1024</ele>
        <time>2021-06-27T09:45:25.071Z</time>
      </trkpt>
      <trkpt lat="45.55025" lon="6.04756">
        <ele>1025</ele>
        <time>2021-06-27T09:45:26.071Z</time>
      </trkpt>
      <trkpt lat="45.55026" lon="6.04756">
        <ele>1026</ele>
        <time>2021-06-27T09:45:27.071Z</time>
      </trkpt>
      <trkpt lat="45.55027" lon="6.04756">
        <ele>1027</ele>
        <time>2021-06-27T09:45:28.071Z</time>
      </trkpt>
      <trkpt lat="45.55028" lon="6.04757">
        <ele>1028</ele>
        <time>2021-06-27T09:45:29.071Z</time>
      </trkpt>
      <trkpt lat="45.55028" lon="6.04758">
        <ele>1028</ele>
        <time>2021-06-27T09:45:30.070Z</time>
      </trkpt>
      <trkpt lat="45.55028" lon="6.04759">
        <ele>1029</ele>
        <time>2021-06-27T09:45:31.070Z</time>
      </trkpt>
      <trkpt lat="45.55028" lon="6.04759">
        <ele>1029</ele>
        <time>2021-06-27T09:45:32.071Z</time>
      </trkpt>
      <trkpt lat="45.55028" lon="6.04759">
        <ele>1030</ele>
        <time>2021-06-27T09:45:33.071Z</time>
      </trkpt>
      <trkpt lat="45.55028" lon="6.04759">
        <ele>1030</ele>
        <time>2021-06-27T09:45:34.070Z</time>
      </trkpt>
      <trkpt lat="45.55028" lon="6.04759">
        <ele>1030</ele>
        <time>2021-06-27T09:45:35.070Z</time>
      </trkpt>
      <trkpt lat="45.55028" lon="6.04759">
        <ele>1031</ele>
        <time>2021-06-27T09:45:36.070Z</time>
      </trkpt>
      <trkpt lat="45.55028" lon="6.0476">
        <ele>1031</ele>
        <time>2021-06-27T09:45:37.070Z</time>
      </trkpt>
      <trkpt lat="45.55028" lon="6.0476">
        <ele>1031</ele>
        <time>2021-06-27T09:45:38.070Z</time>
      </trkpt>
      <trkpt lat="45.55028" lon="6.04761">
        <ele>1031</ele>
        <time>2021-06-27T09:45:39.070Z</time>
      </trkpt>
      <trkpt lat="45.55028" lon="6.04761">
        <ele>1031</ele>
        <time>2021-06-27T09:45:40.071Z</time>
      </trkpt>
      <trkpt lat="45.55028" lon="6.04761">
        <ele>1031</ele>
        <time>2021-06-27T09:45:41.071Z</time>
      </trkpt>
      <trkpt lat="45.55027" lon="6.04761">
        <ele>1031</ele>
        <time>2021-06-27T09:45:42.071Z</time>
      </trkpt>
      <trkpt lat="45.55027" lon="6.04761">
        <ele>1031</ele>
        <time>2021-06-27T09:45:43.071Z</time>
      </trkpt>
      <trkpt lat="45.55027" lon="6.04761">
        <ele>1031</ele>
        <time>2021-06-27T09:45:44.071Z</time>
      </trkpt>
      <trkpt lat="45.55027" lon="6.0476">
        <ele>1031</ele>
        <time>2021-06-27T09:45:45.071Z</time>
      </trkpt>
      <trkpt lat="45.55028" lon="6.04761">
        <ele>1031</ele>
        <time>2021-06-27T09:45:46.071Z</time>
      </trkpt>
      <trkpt lat="45.55028" lon="6.04761">
        <ele>1031</ele>
        <time>2021-06-27T09:45:47.070Z</time>
      </trkpt>
      <trkpt lat="45.55028" lon="6.04762">
        <ele>1031</ele>
        <time>2021-06-27T09:45:48.071Z</time>
      </trkpt>
      <trkpt lat="45.55029" lon="6.04764">
        <ele>1031</ele>
        <time>2021-06-27T09:45:49.070Z</time>
      </trkpt>
      <trkpt lat="45.5503" lon="6.04765">
        <ele>1032</ele>
        <time>2021-06-27T09:45:50.071Z</time>
      </trkpt>
      <trkpt lat="45.5503" lon="6.04766">
        <ele>1032</ele>
        <time>2021-06-27T09:45:51.071Z</time>
      </trkpt>
      <trkpt lat="45.5503" lon="6.04767">
        <ele>1032</ele>
        <time>2021-06-27T09:45:52.070Z</time>
      </trkpt>
      <trkpt lat="45.55031" lon="6.04767">
        <ele>1032</ele>
        <time>2021-06-27T09:45:53.071Z</time>
      </trkpt>
      <trkpt lat="45.55031" lon="6.04768">
        <ele>1033</ele>
        <time>2021-06-27T09:45:54.071Z</time>
      </trkpt>
      <trkpt lat="45.55031" lon="6.04768">
        <ele>1033</ele>
        <time>2021-06-27T09:45:55.071Z</time>
      </trkpt>
      <trkpt lat="45.55032" lon="6.04769">
        <ele>1033</ele>
        <time>2021-06-27T09:45:56.071Z</time>
      </trkpt>
      <trkpt lat="45.55032" lon="6.04769">
        <ele>1034</ele>
        <time>2021-06-27T09:45:57.071Z</time>
      </trkpt>
      <trkpt lat="45.55032" lon="6.04769">
        <ele>1034</ele>
        <time>2021-06-27T09:45:58.071Z</time>
      </trkpt>
      <trkpt lat="45.55032" lon="6.04769">
        <ele>1034</ele>
        <time>2021-06-27T09:45:59.071Z</time>
      </trkpt>
      <trkpt lat="45.55033" lon="6.04769">
        <ele>1034</ele>
        <time>2021-06-27T09:46:00.071Z</time>
      </trkpt>
      <trkpt lat="45.55033" lon="6.04768">
        <ele>1034</ele>
        <time>2021-06-27T09:46:01.071Z</time>
      </trkpt>
      <trkpt lat="45.55034" lon="6.04768">
        <ele>1034</ele>
        <time>2021-06-27T09:46:02.071Z</time>
      </trkpt>
      <trkpt lat="45.55033" lon="6.04768">
        <ele>1034</ele>
        <time>2021-06-27T09:46:03.071Z</time>
      </trkpt>
      <trkpt lat="45.55034" lon="6.04769">
        <ele>1034</ele>
        <time>2021-06-27T09:46:04.071Z</time>
      </trkpt>
      <trkpt lat="45.55034" lon="6.0477">
        <ele>1034</ele>
        <time>2021-06-27T09:46:05.071Z</time>
      </trkpt>
      <trkpt lat="45.55034" lon="6.04771">
        <ele>1034</ele>
        <time>2021-06-27T09:46:06.071Z</time>
      </trkpt>
      <trkpt lat="45.55035" lon="6.04771">
        <ele>1033</ele>
        <time>2021-06-27T09:46:07.070Z</time>
      </trkpt>
      <trkpt lat="45.55036" lon="6.04772">
        <ele>1034</ele>
        <time>2021-06-27T09:46:08.071Z</time>
      </trkpt>
      <trkpt lat="45.55037" lon="6.04772">
        <ele>1034</ele>
        <time>2021-06-27T09:46:09.071Z</time>
      </trkpt>
      <trkpt lat="45.55038" lon="6.04773">
        <ele>1034</ele>
        <time>2021-06-27T09:46:10.070Z</time>
      </trkpt>
      <trkpt lat="45.55039" lon="6.04774">
        <ele>1034</ele>
        <time>2021-06-27T09:46:11.071Z</time>
      </trkpt>
      <trkpt lat="45.55039" lon="6.04775">
        <ele>1034</ele>
        <time>2021-06-27T09:46:12.071Z</time>
      </trkpt>
      <trkpt lat="45.55039" lon="6.04775">
        <ele>1034</ele>
        <time>2021-06-27T09:46:13.071Z</time>
      </trkpt>
      <trkpt lat="45.55039" lon="6.04775">
        <ele>1033</ele>
        <time>2021-06-27T09:46:14.071Z</time>
      </trkpt>
      <trkpt lat="45.55039" lon="6.04775">
        <ele>1033</ele>
        <time>2021-06-27T09:46:15.071Z</time>
      </trkpt>
      <trkpt lat="45.55039" lon="6.04776">
        <ele>1032</ele>
        <time>2021-06-27T09:46:16.071Z</time>
      </trkpt>
      <trkpt lat="45.55039" lon="6.04776">
        <ele>1032</ele>
        <time>2021-06-27T09:46:17.071Z</time>
      </trkpt>
      <trkpt lat="45.55039" lon="6.04776">
        <ele>1031</ele>
        <time>2021-06-27T09:46:18.071Z</time>
      </trkpt>
      <trkpt lat="45.55039" lon="6.04777">
        <ele>1030</ele>
        <time>2021-06-27T09:46:19.071Z</time>
      </trkpt>
      <trkpt lat="45.5504" lon="6.04778">
        <ele>1030</ele>
        <time>2021-06-27T09:46:20.071Z</time>
      </trkpt>
      <trkpt lat="45.55039" lon="6.04778">
        <ele>1030</ele>
        <time>2021-06-27T09:46:21.070Z</time>
      </trkpt>
      <trkpt lat="45.55038" lon="6.04778">
        <ele>1029</ele>
        <time>2021-06-27T09:46:22.071Z</time>
      </trkpt>
      <trkpt lat="45.55037" lon="6.04777">
        <ele>1029</ele>
        <time>2021-06-27T09:46:23.071Z</time>
      </trkpt>
      <trkpt lat="45.55036" lon="6.04777">
        <ele>1030</ele>
        <time>2021-06-27T09:46:24.070Z</time>
      </trkpt>
      <trkpt lat="45.55034" lon="6.04776">
        <ele>1030</ele>
        <time>2021-06-27T09:46:25.071Z</time>
      </trkpt>
      <trkpt lat="45.55033" lon="6.04776">
        <ele>1030</ele>
        <time>2021-06-27T09:46:26.070Z</time>
      </trkpt>
      <trkpt lat="45.55032" lon="6.04776">
        <ele>1031</ele>
        <time>2021-06-27T09:46:27.071Z</time>
      </trkpt>
      <trkpt lat="45.55032" lon="6.04776">
        <ele>1031</ele>
        <time>2021-06-27T09:46:28.071Z</time>
      </trkpt>
      <trkpt lat="45.55032" lon="6.04776">
        <ele>1031</ele>
        <time>2021-06-27T09:46:29.071Z</time>
      </trkpt>
      <trkpt lat="45.55032" lon="6.04776">
        <ele>1031</ele>
        <time>2021-06-27T09:46:30.071Z</time>
      </trkpt>
      <trkpt lat="45.55032" lon="6.04776">
        <ele>1032</ele>
        <time>2021-06-27T09:46:31.071Z</time>
      </trkpt>
      <trkpt lat="45.55032" lon="6.04776">
        <ele>1032</ele>
        <time>2021-06-27T09:46:32.071Z</time>
      </trkpt>
      <trkpt lat="45.55032" lon="6.04777">
        <ele>1033</ele>
        <time>2021-06-27T09:46:33.071Z</time>
      </trkpt>
      <trkpt lat="45.55032" lon="6.04777">
        <ele>1033</ele>
        <time>2021-06-27T09:46:34.071Z</time>
      </trkpt>
      <trkpt lat="45.55032" lon="6.04777">
        <ele>1034</ele>
        <time>2021-06-27T09:46:35.071Z</time>
      </trkpt>
      <trkpt lat="45.55032" lon="6.04776">
        <ele>1034</ele>
        <time>2021-06-27T09:46:36.071Z</time>
      </trkpt>
      <trkpt lat="45.55031" lon="6.04776">
        <ele>1035</ele>
        <time>2021-06-27T09:46:37.071Z</time>
      </trkpt>
      <trkpt lat="45.55031" lon="6.04775">
        <ele>1035</ele>
        <time>2021-06-27T09:46:38.071Z</time>
      </trkpt>
      <trkpt lat="45.55031" lon="6.04775">
        <ele>1035</ele>
        <time>2021-06-27T09:46:39.071Z</time>
      </trkpt>
      <trkpt lat="45.55031" lon="6.04774">
        <ele>1035</ele>
        <time>2021-06-27T09:46:40.071Z</time>
      </trkpt>
      <trkpt lat="45.55031" lon="6.04774">
        <ele>1036</ele>
        <time>2021-06-27T09:46:41.071Z</time>
      </trkpt>
      <trkpt lat="45.55031" lon="6.04774">
        <ele>1036</ele>
        <time>2021-06-27T09:46:42.071Z</time>
      </trkpt>
      <trkpt lat="45.55031" lon="6.04774">
        <ele>1035</ele>
        <time>2021-06-27T09:46:43.071Z</time>
      </trkpt>
      <trkpt lat="45.55031" lon="6.04775">
        <ele>1035</ele>
        <time>2021-06-27T09:46:44.071Z</time>
      </trkpt>
      <trkpt lat="45.55032" lon="6.04775">
        <ele>1034</ele>
        <time>2021-06-27T09:46:45.071Z</time>
      </trkpt>
      <trkpt lat="45.55032" lon="6.04776">
        <ele>1034</ele>
        <time>2021-06-27T09:46:46.070Z</time>
      </trkpt>
      <trkpt lat="45.55033" lon="6.04777">
        <ele>1033</ele>
        <time>2021-06-27T09:46:47.071Z</time>
      </trkpt>
      <trkpt lat="45.55033" lon="6.04777">
        <ele>1033</ele>
        <time>2021-06-27T09:46:48.070Z</time>
      </trkpt>
      <trkpt lat="45.55034" lon="6.04777">
        <ele>1032</ele>
        <time>2021-06-27T09:46:49.070Z</time>
      </trkpt>
      <trkpt lat="45.55034" lon="6.04778">
        <ele>1032</ele>
        <time>2021-06-27T09:46:50.071Z</time>
      </trkpt>
      <trkpt lat="45.55035" lon="6.04778">
        <ele>1032</ele>
        <time>2021-06-27T09:46:51.071Z</time>
      </trkpt>
      <trkpt lat="45.55035" lon="6.04778">
        <ele>1032</ele>
        <time>2021-06-27T09:46:52.071Z</time>
      </trkpt>
      <trkpt lat="45.55036" lon="6.04778">
        <ele>1032</ele>
        <time>2021-06-27T09:46:53.070Z</time>
      </trkpt>
      <trkpt lat="45.55037" lon="6.04778">
        <ele>1032</ele>
        <time>2021-06-27T09:46:54.070Z</time>
      </trkpt>
      <trkpt lat="45.55037" lon="6.04778">
        <ele>1032</ele>
        <time>2021-06-27T09:46:55.071Z</time>
      </trkpt>
      <trkpt lat="45.55037" lon="6.04777">
        <ele>1032</ele>
        <time>2021-06-27T09:46:56.070Z</time>
      </trkpt>
      <trkpt lat="45.55037" lon="6.04777">
        <ele>1032</ele>
        <time>2021-06-27T09:46:57.071Z</time>
      </trkpt>
      <trkpt lat="45.55038" lon="6.04778">
        <ele>1031</ele>
        <time>2021-06-27T09:46:58.071Z</time>
      </trkpt>
      <trkpt lat="45.55038" lon="6.04779">
        <ele>1031</ele>
        <time>2021-06-27T09:46:59.071Z</time>
      </trkpt>
      <trkpt lat="45.55038" lon="6.0478">
        <ele>1031</ele>
        <time>2021-06-27T09:47:00.071Z</time>
      </trkpt>
      <trkpt lat="45.55039" lon="6.04782">
        <ele>1030</ele>
        <time>2021-06-27T09:47:01.071Z</time>
      </trkpt>
      <trkpt lat="45.5504" lon="6.04783">
        <ele>1029</ele>
        <time>2021-06-27T09:47:02.070Z</time>
      </trkpt>
      <trkpt lat="45.5504" lon="6.04784">
        <ele>1029</ele>
        <time>2021-06-27T09:47:03.071Z</time>
      </trkpt>
      <trkpt lat="45.5504" lon="6.04784">
        <ele>1029</ele>
        <time>2021-06-27T09:47:04.070Z</time>
      </trkpt>
      <trkpt lat="45.55041" lon="6.04784">
        <ele>1028</ele>
        <time>2021-06-27T09:47:05.071Z</time>
      </trkpt>
      <trkpt lat="45.55041" lon="6.04784">
        <ele>1028</ele>
        <time>2021-06-27T09:47:06.071Z</time>
      </trkpt>
      <trkpt lat="45.5504" lon="6.04783">
        <ele>1028</ele>
        <time>2021-06-27T09:47:07.071Z</time>
      </trkpt>
      <trkpt lat="45.5504" lon="6.04782">
        <ele>1029</ele>
        <time>2021-06-27T09:47:08.071Z</time>
      </trkpt>
      <trkpt lat="45.5504" lon="6.04782">
        <ele>1029</ele>
        <time>2021-06-27T09:47:09.071Z</time>
      </trkpt>
      <trkpt lat="45.5504" lon="6.04782">
        <ele>1030</ele>
        <time>2021-06-27T09:47:10.071Z</time>
      </trkpt>
      <trkpt lat="45.5504" lon="6.04781">
        <ele>1030</ele>
        <time>2021-06-27T09:47:11.071Z</time>
      </trkpt>
      <trkpt lat="45.55039" lon="6.04781">
        <ele>1031</ele>
        <time>2021-06-27T09:47:12.071Z</time>
      </trkpt>
      <trkpt lat="45.55039" lon="6.04781">
        <ele>1032</ele>
        <time>2021-06-27T09:47:13.071Z</time>
      </trkpt>
      <trkpt lat="45.5504" lon="6.0478">
        <ele>1033</ele>
        <time>2021-06-27T09:47:14.071Z</time>
      </trkpt>
      <trkpt lat="45.5504" lon="6.0478">
        <ele>1033</ele>
        <time>2021-06-27T09:47:15.070Z</time>
      </trkpt>
      <trkpt lat="45.55039" lon="6.04779">
        <ele>1034</ele>
        <time>2021-06-27T09:47:16.071Z</time>
      </trkpt>
      <trkpt lat="45.5504" lon="6.04779">
        <ele>1035</ele>
        <time>2021-06-27T09:47:17.071Z</time>
      </trkpt>
      <trkpt lat="45.5504" lon="6.04778">
        <ele>1035</ele>
        <time>2021-06-27T09:47:18.070Z</time>
      </trkpt>
      <trkpt lat="45.5504" lon="6.04777">
        <ele>1036</ele>
        <time>2021-06-27T09:47:19.071Z</time>
      </trkpt>
      <trkpt lat="45.5504" lon="6.04777">
        <ele>1037</ele>
        <time>2021-06-27T09:47:20.071Z</time>
      </trkpt>
      <trkpt lat="45.5504" lon="6.04776">
        <ele>1037</ele>
        <time>2021-06-27T09:47:21.071Z</time>
      </trkpt>
      <trkpt lat="45.5504" lon="6.04774">
        <ele>1038</ele>
        <time>2021-06-27T09:47:22.071Z</time>
      </trkpt>
      <trkpt lat="45.55039" lon="6.04774">
        <ele>1039</ele>
        <time>2021-06-27T09:47:23.071Z</time>
      </trkpt>
      <trkpt lat="45.55039" lon="6.04773">
        <ele>1040</ele>
        <time>2021-06-27T09:47:24.070Z</time>
      </trkpt>
      <trkpt lat="45.5504" lon="6.04772">
        <ele>1040</ele>
        <time>2021-06-27T09:47:25.071Z</time>
      </trkpt>
      <trkpt lat="45.55042" lon="6.04771">
        <ele>1041</ele>
        <time>2021-06-27T09:47:26.071Z</time>
      </trkpt>
      <trkpt lat="45.55042" lon="6.0477">
        <ele>1041</ele>
        <time>2021-06-27T09:47:27.071Z</time>
      </trkpt>
      <trkpt lat="45.55042" lon="6.04769">
        <ele>1041</ele>
        <time>2021-06-27T09:47:28.070Z</time>
      </trkpt>
      <trkpt lat="45.55042" lon="6.04769">
        <ele>1041</ele>
        <time>2021-06-27T09:47:29.070Z</time>
      </trkpt>
      <trkpt lat="45.55042" lon="6.04768">
        <ele>1041</ele>
        <time>2021-06-27T09:47:30.071Z</time>
      </trkpt>
      <trkpt lat="45.55041" lon="6.04768">
        <ele>1041</ele>
        <time>2021-06-27T09:47:31.071Z</time>
      </trkpt>
      <trkpt lat="45.55041" lon="6.04769">
        <ele>1040</ele>
        <time>2021-06-27T09:47:32.071Z</time>
      </trkpt>
      <trkpt lat="45.55041" lon="6.0477">
        <ele>1040</ele>
        <time>2021-06-27T09:47:33.071Z</time>
      </trkpt>
      <trkpt lat="45.5504" lon="6.0477">
        <ele>1039</ele>
        <time>2021-06-27T09:47:34.070Z</time>
      </trkpt>
      <trkpt lat="45.55041" lon="6.0477">
        <ele>1038</ele>
        <time>2021-06-27T09:47:35.071Z</time>
      </trkpt>
      <trkpt lat="45.55041" lon="6.04771">
        <ele>1037</ele>
        <time>2021-06-27T09:47:36.071Z</time>
      </trkpt>
      <trkpt lat="45.55042" lon="6.04771">
        <ele>1036</ele>
        <time>2021-06-27T09:47:37.071Z</time>
      </trkpt>
      <trkpt lat="45.55042" lon="6.04771">
        <ele>1035</ele>
        <time>2021-06-27T09:47:38.071Z</time>
      </trkpt>
      <trkpt lat="45.55042" lon="6.04772">
        <ele>1035</ele>
        <time>2021-06-27T09:47:39.071Z</time>
      </trkpt>
      <trkpt lat="45.55042" lon="6.04772">
        <ele>1034</ele>
        <time>2021-06-27T09:47:40.071Z</time>
      </trkpt>
      <trkpt lat="45.55042" lon="6.04772">
        <ele>1033</ele>
        <time>2021-06-27T09:47:41.071Z</time>
      </trkpt>
      <trkpt lat="45.55042" lon="6.04772">
        <ele>1033</ele>
        <time>2021-06-27T09:47:42.071Z</time>
      </trkpt>
      <trkpt lat="45.55042" lon="6.04773">
        <ele>1032</ele>
        <time>2021-06-27T09:47:43.071Z</time>
      </trkpt>
      <trkpt lat="45.55041" lon="6.04774">
        <ele>1032</ele>
        <time>2021-06-27T09:47:44.071Z</time>
      </trkpt>
      <trkpt lat="45.5504" lon="6.04775">
        <ele>1032</ele>
        <time>2021-06-27T09:47:45.071Z</time>
      </trkpt>
      <trkpt lat="45.55039" lon="6.04775">
        <ele>1031</ele>
        <time>2021-06-27T09:47:46.071Z</time>
      </trkpt>
      <trkpt lat="45.55039" lon="6.04775">
        <ele>1031</ele>
        <time>2021-06-27T09:47:47.070Z</time>
      </trkpt>
      <trkpt lat="45.55038" lon="6.04775">
        <ele>1031</ele>
        <time>2021-06-27T09:47:48.071Z</time>
      </trkpt>
      <trkpt lat="45.55038" lon="6.04775">
        <ele>1030</ele>
        <time>2021-06-27T09:47:49.071Z</time>
      </trkpt>
      <trkpt lat="45.55038" lon="6.04775">
        <ele>1030</ele>
        <time>2021-06-27T09:47:50.071Z</time>
      </trkpt>
      <trkpt lat="45.55038" lon="6.04775">
        <ele>1029</ele>
        <time>2021-06-27T09:47:51.071Z</time>
      </trkpt>
      <trkpt lat="45.55038" lon="6.04776">
        <ele>1028</ele>
        <time>2021-06-27T09:47:52.071Z</time>
      </trkpt>
      <trkpt lat="45.55038" lon="6.04776">
        <ele>1027</ele>
        <time>2021-06-27T09:47:53.071Z</time>
      </trkpt>
      <trkpt lat="45.55038" lon="6.04777">
        <ele>1026</ele>
        <time>2021-06-27T09:47:54.071Z</time>
      </trkpt>
      <trkpt lat="45.55038" lon="6.04777">
        <ele>1025</ele>
        <time>2021-06-27T09:47:55.071Z</time>
      </trkpt>
      <trkpt lat="45.55038" lon="6.04778">
        <ele>1024</ele>
        <time>2021-06-27T09:47:56.071Z</time>
      </trkpt>
      <trkpt lat="45.55037" lon="6.04778">
        <ele>1023</ele>
        <time>2021-06-27T09:47:57.070Z</time>
      </trkpt>
      <trkpt lat="45.55037" lon="6.04778">
        <ele>1023</ele>
        <time>2021-06-27T09:47:58.071Z</time>
      </trkpt>
      <trkpt lat="45.55037" lon="6.04778">
        <ele>1022</ele>
        <time>2021-06-27T09:47:59.071Z</time>
      </trkpt>
      <trkpt lat="45.55036" lon="6.04778">
        <ele>1021</ele>
        <time>2021-06-27T09:48:00.071Z</time>
      </trkpt>
      <trkpt lat="45.55036" lon="6.04779">
        <ele>1021</ele>
        <time>2021-06-27T09:48:01.071Z</time>
      </trkpt>
      <trkpt lat="45.55035" lon="6.04779">
        <ele>1021</ele>
        <time>2021-06-27T09:48:02.070Z</time>
      </trkpt>
      <trkpt lat="45.55035" lon="6.0478">
        <ele>1020</ele>
        <time>2021-06-27T09:48:03.070Z</time>
      </trkpt>
      <trkpt lat="45.55034" lon="6.0478">
        <ele>1020</ele>
        <time>2021-06-27T09:48:04.071Z</time>
      </trkpt>
      <trkpt lat="45.55034" lon="6.04781">
        <ele>1020</ele>
        <time>2021-06-27T09:48:05.070Z</time>
      </trkpt>
      <trkpt lat="45.55034" lon="6.04782">
        <ele>1019</ele>
        <time>2021-06-27T09:48:06.070Z</time>
      </trkpt>
      <trkpt lat="45.55033" lon="6.04783">
        <ele>1019</ele>
        <time>2021-06-27T09:48:07.071Z</time>
      </trkpt>
      <trkpt lat="45.55032" lon="6.04783">
        <ele>1019</ele>
        <time>2021-06-27T09:48:08.071Z</time>
      </trkpt>
      <trkpt lat="45.55031" lon="6.04784">
        <ele>1019</ele>
        <time>2021-06-27T09:48:09.071Z</time>
      </trkpt>
      <trkpt lat="45.55031" lon="6.04785">
        <ele>1018</ele>
        <time>2021-06-27T09:48:10.071Z</time>
      </trkpt>
      <trkpt lat="45.5503" lon="6.04785">
        <ele>1018</ele>
        <time>2021-06-27T09:48:11.071Z</time>
      </trkpt>
      <trkpt lat="45.55028" lon="6.04783">
        <ele>1017</ele>
        <time>2021-06-27T09:48:12.071Z</time>
      </trkpt>
      <trkpt lat="45.55026" lon="6.04781">
        <ele>1017</ele>
        <time>2021-06-27T09:48:13.071Z</time>
      </trkpt>
      <trkpt lat="45.55025" lon="6.04781">
        <ele>1017</ele>
        <time>2021-06-27T09:48:14.070Z</time>
      </trkpt>
      <trkpt lat="45.55026" lon="6.04782">
        <ele>1017</ele>
        <time>2021-06-27T09:48:15.071Z</time>
      </trkpt>
      <trkpt lat="45.55026" lon="6.04783">
        <ele>1017</ele>
        <time>2021-06-27T09:48:16.071Z</time>
      </trkpt>
      <trkpt lat="45.55026" lon="6.04783">
        <ele>1016</ele>
        <time>2021-06-27T09:48:17.071Z</time>
      </trkpt>
      <trkpt lat="45.55026" lon="6.04783">
        <ele>1016</ele>
        <time>2021-06-27T09:48:18.071Z</time>
      </trkpt>
      <trkpt lat="45.55025" lon="6.04783">
        <ele>1017</ele>
        <time>2021-06-27T09:48:19.070Z</time>
      </trkpt>
      <trkpt lat="45.55024" lon="6.04783">
        <ele>1017</ele>
        <time>2021-06-27T09:48:20.071Z</time>
      </trkpt>
      <trkpt lat="45.55024" lon="6.04783">
        <ele>1017</ele>
        <time>2021-06-27T09:48:21.071Z</time>
      </trkpt>
      <trkpt lat="45.55024" lon="6.04784">
        <ele>1018</ele>
        <time>2021-06-27T09:48:22.071Z</time>
      </trkpt>
      <trkpt lat="45.55025" lon="6.04783">
        <ele>1018</ele>
        <time>2021-06-27T09:48:23.071Z</time>
      </trkpt>
      <trkpt lat="45.55025" lon="6.04783">
        <ele>1018</ele>
        <time>2021-06-27T09:48:24.070Z</time>
      </trkpt>
      <trkpt lat="45.55026" lon="6.04783">
        <ele>1018</ele>
        <time>2021-06-27T09:48:25.071Z</time>
      </trkpt>
      <trkpt lat="45.55026" lon="6.04782">
        <ele>1018</ele>
        <time>2021-06-27T09:48:26.070Z</time>
      </trkpt>
      <trkpt lat="45.55026" lon="6.04782">
        <ele>1018</ele>
        <time>2021-06-27T09:48:27.071Z</time>
      </trkpt>
      <trkpt lat="45.55025" lon="6.04783">
        <ele>1018</ele>
        <time>2021-06-27T09:48:28.071Z</time>
      </trkpt>
      <trkpt lat="45.55024" lon="6.04783">
        <ele>1019</ele>
        <time>2021-06-27T09:48:29.071Z</time>
      </trkpt>
      <trkpt lat="45.55024" lon="6.04783">
        <ele>1019</ele>
        <time>2021-06-27T09:48:30.071Z</time>
      </trkpt>
      <trkpt lat="45.55023" lon="6.04783">
        <ele>1019</ele>
        <time>2021-06-27T09:48:31.071Z</time>
      </trkpt>
      <trkpt lat="45.55022" lon="6.04784">
        <ele>1019</ele>
        <time>2021-06-27T09:48:32.071Z</time>
      </trkpt>
      <trkpt lat="45.55021" lon="6.04784">
        <ele>1019</ele>
        <time>2021-06-27T09:48:33.071Z</time>
      </trkpt>
      <trkpt lat="45.55021" lon="6.04785">
        <ele>1018</ele>
        <time>2021-06-27T09:48:34.071Z</time>
      </trkpt>
      <trkpt lat="45.55021" lon="6.04786">
        <ele>1018</ele>
        <time>2021-06-27T09:48:35.070Z</time>
      </trkpt>
      <trkpt lat="45.5502" lon="6.04787">
        <ele>1018</ele>
        <time>2021-06-27T09:48:36.070Z</time>
      </trkpt>
      <trkpt lat="45.5502" lon="6.04788">
        <ele>1018</ele>
        <time>2021-06-27T09:48:37.070Z</time>
      </trkpt>
      <trkpt lat="45.5502" lon="6.04789">
        <ele>1018</ele>
        <time>2021-06-27T09:48:38.071Z</time>
      </trkpt>
      <trkpt lat="45.5502" lon="6.04789">
        <ele>1018</ele>
        <time>2021-06-27T09:48:39.071Z</time>
      </trkpt>
      <trkpt lat="45.5502" lon="6.04789">
        <ele>1018</ele>
        <time>2021-06-27T09:48:40.071Z</time>
      </trkpt>
      <trkpt lat="45.5502" lon="6.0479">
        <ele>1018</ele>
        <time>2021-06-27T09:48:41.071Z</time>
      </trkpt>
      <trkpt lat="45.5502" lon="6.0479">
        <ele>1018</ele>
        <time>2021-06-27T09:48:42.071Z</time>
      </trkpt>
      <trkpt lat="45.5502" lon="6.0479">
        <ele>1018</ele>
        <time>2021-06-27T09:48:43.071Z</time>
      </trkpt>
      <trkpt lat="45.55019" lon="6.0479">
        <ele>1018</ele>
        <time>2021-06-27T09:48:44.071Z</time>
      </trkpt>
      <trkpt lat="45.55018" lon="6.0479">
        <ele>1017</ele>
        <time>2021-06-27T09:48:45.071Z</time>
      </trkpt>
      <trkpt lat="45.55017" lon="6.0479">
        <ele>1017</ele>
        <time>2021-06-27T09:48:46.071Z</time>
      </trkpt>
      <trkpt lat="45.55015" lon="6.04789">
        <ele>1017</ele>
        <time>2021-06-27T09:48:47.071Z</time>
      </trkpt>
      <trkpt lat="45.55014" lon="6.04789">
        <ele>1018</ele>
        <time>2021-06-27T09:48:48.071Z</time>
      </trkpt>
      <trkpt lat="45.55014" lon="6.04788">
        <ele>1018</ele>
        <time>2021-06-27T09:48:49.071Z</time>
      </trkpt>
      <trkpt lat="45.55013" lon="6.04788">
        <ele>1019</ele>
        <time>2021-06-27T09:48:50.071Z</time>
      </trkpt>
      <trkpt lat="45.55013" lon="6.04788">
        <ele>1020</ele>
        <time>2021-06-27T09:48:51.071Z</time>
      </trkpt>
      <trkpt lat="45.55014" lon="6.04789">
        <ele>1021</ele>
        <time>2021-06-27T09:48:52.071Z</time>
      </trkpt>
      <trkpt lat="45.55014" lon="6.04789">
        <ele>1021</ele>
        <time>2021-06-27T09:48:53.071Z</time>
      </trkpt>
      <trkpt lat="45.55014" lon="6.0479">
        <ele>1021</ele>
        <time>2021-06-27T09:48:54.071Z</time>
      </trkpt>
      <trkpt lat="45.55014" lon="6.0479">
        <ele>1022</ele>
        <time>2021-06-27T09:48:55.071Z</time>
      </trkpt>
      <trkpt lat="45.55014" lon="6.0479">
        <ele>1022</ele>
        <time>2021-06-27T09:48:56.071Z</time>
      </trkpt>
      <trkpt lat="45.55014" lon="6.0479">
        <ele>1023</ele>
        <time>2021-06-27T09:48:57.070Z</time>
      </trkpt>
      <trkpt lat="45.55014" lon="6.0479">
        <ele>1024</ele>
        <time>2021-06-27T09:48:58.071Z</time>
      </trkpt>
      <trkpt lat="45.55014" lon="6.0479">
        <ele>1025</ele>
        <time>2021-06-27T09:48:59.070Z</time>
      </trkpt>
      <trkpt lat="45.55014" lon="6.04791">
        <ele>1025</ele>
        <time>2021-06-27T09:49:00.071Z</time>
      </trkpt>
      <trkpt lat="45.55014" lon="6.04792">
        <ele>1026</ele>
        <time>2021-06-27T09:49:01.071Z</time>
      </trkpt>
      <trkpt lat="45.55015" lon="6.04793">
        <ele>1026</ele>
        <time>2021-06-27T09:49:02.071Z</time>
      </trkpt>
      <trkpt lat="45.55016" lon="6.04793">
        <ele>1027</ele>
        <time>2021-06-27T09:49:03.071Z</time>
      </trkpt>
      <trkpt lat="45.55016" lon="6.04794">
        <ele>1027</ele>
        <time>2021-06-27T09:49:04.071Z</time>
      </trkpt>
      <trkpt lat="45.55017" lon="6.04795">
        <ele>1027</ele>
        <time>2021-06-27T09:49:05.071Z</time>
      </trkpt>
      <trkpt lat="45.55018" lon="6.04797">
        <ele>1027</ele>
        <time>2021-06-27T09:49:06.070Z</time>
      </trkpt>
      <trkpt lat="45.55017" lon="6.04797">
        <ele>1028</ele>
        <time>2021-06-27T09:49:07.071Z</time>
      </trkpt>
      <trkpt lat="45.55017" lon="6.04798">
        <ele>1029</ele>
        <time>2021-06-27T09:49:08.070Z</time>
      </trkpt>
      <trkpt lat="45.55017" lon="6.048">
        <ele>1029</ele>
        <time>2021-06-27T09:49:09.070Z</time>
      </trkpt>
      <trkpt lat="45.55017" lon="6.04801">
        <ele>1030</ele>
        <time>2021-06-27T09:49:10.071Z</time>
      </trkpt>
      <trkpt lat="45.55017" lon="6.04802">
        <ele>1030</ele>
        <time>2021-06-27T09:49:11.070Z</time>
      </trkpt>
      <trkpt lat="45.55017" lon="6.04801">
        <ele>1031</ele>
        <time>2021-06-27T09:49:12.071Z</time>
      </trkpt>
      <trkpt lat="45.55017" lon="6.04801">
        <ele>1032</ele>
        <time>2021-06-27T09:49:13.071Z</time>
      </trkpt>
      <trkpt lat="45.55017" lon="6.04801">
        <ele>1032</ele>
        <time>2021-06-27T09:49:14.070Z</time>
      </trkpt>
      <trkpt lat="45.55017" lon="6.04801">
        <ele>1033</ele>
        <time>2021-06-27T09:49:15.071Z</time>
      </trkpt>
      <trkpt lat="45.55017" lon="6.04801">
        <ele>1034</ele>
        <time>2021-06-27T09:49:16.071Z</time>
      </trkpt>
      <trkpt lat="45.55018" lon="6.048">
        <ele>1035</ele>
        <time>2021-06-27T09:49:17.071Z</time>
      </trkpt>
      <trkpt lat="45.55018" lon="6.048">
        <ele>1036</ele>
        <time>2021-06-27T09:49:18.071Z</time>
      </trkpt>
      <trkpt lat="45.55018" lon="6.04801">
        <ele>1037</ele>
        <time>2021-06-27T09:49:19.070Z</time>
      </trkpt>
      <trkpt lat="45.55019" lon="6.04801">
        <ele>1037</ele>
        <time>2021-06-27T09:49:20.071Z</time>
      </trkpt>
      <trkpt lat="45.5502" lon="6.04802">
        <ele>1038</ele>
        <time>2021-06-27T09:49:21.071Z</time>
      </trkpt>
      <trkpt lat="45.5502" lon="6.04803">
        <ele>1038</ele>
        <time>2021-06-27T09:49:22.071Z</time>
      </trkpt>
      <trkpt lat="45.55021" lon="6.04804">
        <ele>1038</ele>
        <time>2021-06-27T09:49:23.071Z</time>
      </trkpt>
      <trkpt lat="45.55021" lon="6.04805">
        <ele>1038</ele>
        <time>2021-06-27T09:49:24.071Z</time>
      </trkpt>
      <trkpt lat="45.55022" lon="6.04806">
        <ele>1038</ele>
        <time>2021-06-27T09:49:25.071Z</time>
      </trkpt>
      <trkpt lat="45.55022" lon="6.04808">
        <ele>1037</ele>
        <time>2021-06-27T09:49:26.071Z</time>
      </trkpt>
      <trkpt lat="45.55022" lon="6.0481">
        <ele>1037</ele>
        <time>2021-06-27T09:49:27.070Z</time>
      </trkpt>
      <trkpt lat="45.55023" lon="6.04811">
        <ele>1037</ele>
        <time>2021-06-27T09:49:28.071Z</time>
      </trkpt>
      <trkpt lat="45.55023" lon="6.04812">
        <ele>1036</ele>
        <time>2021-06-27T09:49:29.071Z</time>
      </trkpt>
      <trkpt lat="45.55023" lon="6.04812">
        <ele>1036</ele>
        <time>2021-06-27T09:49:30.070Z</time>
      </trkpt>
      <trkpt lat="45.55024" lon="6.04813">
        <ele>1036</ele>
        <time>2021-06-27T09:49:31.071Z</time>
      </trkpt>
      <trkpt lat="45.55024" lon="6.04814">
        <ele>1036</ele>
        <time>2021-06-27T09:49:32.071Z</time>
      </trkpt>
      <trkpt lat="45.55025" lon="6.04815">
        <ele>1037</ele>
        <time>2021-06-27T09:49:33.071Z</time>
      </trkpt>
      <trkpt lat="45.55025" lon="6.04815">
        <ele>1037</ele>
        <time>2021-06-27T09:49:34.071Z</time>
      </trkpt>
      <trkpt lat="45.55026" lon="6.04816">
        <ele>1037</ele>
        <time>2021-06-27T09:49:35.070Z</time>
      </trkpt>
      <trkpt lat="45.55027" lon="6.04816">
        <ele>1037</ele>
        <time>2021-06-27T09:49:36.071Z</time>
      </trkpt>
      <trkpt lat="45.55027" lon="6.04817">
        <ele>1037</ele>
        <time>2021-06-27T09:49:37.071Z</time>
      </trkpt>
      <trkpt lat="45.55027" lon="6.04817">
        <ele>1036</ele>
        <time>2021-06-27T09:49:38.071Z</time>
      </trkpt>
      <trkpt lat="45.55027" lon="6.04817">
        <ele>1035</ele>
        <time>2021-06-27T09:49:39.071Z</time>
      </trkpt>
      <trkpt lat="45.55028" lon="6.04817">
        <ele>1035</ele>
        <time>2021-06-27T09:49:40.071Z</time>
      </trkpt>
      <trkpt lat="45.55028" lon="6.04817">
        <ele>1036</ele>
        <time>2021-06-27T09:49:41.070Z</time>
      </trkpt>
      <trkpt lat="45.55029" lon="6.04817">
        <ele>1036</ele>
        <time>2021-06-27T09:49:42.070Z</time>
      </trkpt>
      <trkpt lat="45.55029" lon="6.04816">
        <ele>1036</ele>
        <time>2021-06-27T09:49:43.071Z</time>
      </trkpt>
      <trkpt lat="45.5503" lon="6.04816">
        <ele>1036</ele>
        <time>2021-06-27T09:49:44.071Z</time>
      </trkpt>
      <trkpt lat="45.55031" lon="6.04817">
        <ele>1037</ele>
        <time>2021-06-27T09:49:45.071Z</time>
      </trkpt>
      <trkpt lat="45.55033" lon="6.04818">
        <ele>1037</ele>
        <time>2021-06-27T09:49:46.070Z</time>
      </trkpt>
      <trkpt lat="45.55034" lon="6.04819">
        <ele>1037</ele>
        <time>2021-06-27T09:49:47.070Z</time>
      </trkpt>
      <trkpt lat="45.55034" lon="6.04819">
        <ele>1036</ele>
        <time>2021-06-27T09:49:48.071Z</time>
      </trkpt>
      <trkpt lat="45.55033" lon="6.04818">
        <ele>1036</ele>
        <time>2021-06-27T09:49:49.071Z</time>
      </trkpt>
      <trkpt lat="45.55034" lon="6.04818">
        <ele>1036</ele>
        <time>2021-06-27T09:49:50.071Z</time>
      </trkpt>
      <trkpt lat="45.55035" lon="6.04818">
        <ele>1036</ele>
        <time>2021-06-27T09:49:51.070Z</time>
      </trkpt>
      <trkpt lat="45.55035" lon="6.04818">
        <ele>1036</ele>
        <time>2021-06-27T09:49:52.071Z</time>
      </trkpt>
      <trkpt lat="45.55036" lon="6.04819">
        <ele>1036</ele>
        <time>2021-06-27T09:49:53.070Z</time>
      </trkpt>
      <trkpt lat="45.55036" lon="6.04819">
        <ele>1036</ele>
        <time>2021-06-27T09:49:54.071Z</time>
      </trkpt>
      <trkpt lat="45.55037" lon="6.0482">
        <ele>1036</ele>
        <time>2021-06-27T09:49:55.071Z</time>
      </trkpt>
      <trkpt lat="45.55037" lon="6.04821">
        <ele>1035</ele>
        <time>2021-06-27T09:49:56.071Z</time>
      </trkpt>
      <trkpt lat="45.55038" lon="6.04821">
        <ele>1035</ele>
        <time>2021-06-27T09:49:57.071Z</time>
      </trkpt>
      <trkpt lat="45.55038" lon="6.04822">
        <ele>1035</ele>
        <time>2021-06-27T09:49:58.071Z</time>
      </trkpt>
      <trkpt lat="45.55039" lon="6.04823">
        <ele>1034</ele>
        <time>2021-06-27T09:49:59.070Z</time>
      </trkpt>
      <trkpt lat="45.55039" lon="6.04824">
        <ele>1034</ele>
        <time>2021-06-27T09:50:00.071Z</time>
      </trkpt>
      <trkpt lat="45.5504" lon="6.04825">
        <ele>1034</ele>
        <time>2021-06-27T09:50:01.071Z</time>
      </trkpt>
      <trkpt lat="45.5504" lon="6.04825">
        <ele>1034</ele>
        <time>2021-06-27T09:50:02.071Z</time>
      </trkpt>
      <trkpt lat="45.5504" lon="6.04825">
        <ele>1034</ele>
        <time>2021-06-27T09:50:03.071Z</time>
      </trkpt>
      <trkpt lat="45.5504" lon="6.04826">
        <ele>1034</ele>
        <time>2021-06-27T09:50:04.071Z</time>
      </trkpt>
      <trkpt lat="45.55041" lon="6.04827">
        <ele>1034</ele>
        <time>2021-06-27T09:50:05.070Z</time>
      </trkpt>
      <trkpt lat="45.55041" lon="6.04829">
        <ele>1034</ele>
        <time>2021-06-27T09:50:06.071Z</time>
      </trkpt>
      <trkpt lat="45.55042" lon="6.04831">
        <ele>1034</ele>
        <time>2021-06-27T09:50:07.071Z</time>
      </trkpt>
      <trkpt lat="45.55042" lon="6.04833">
        <ele>1034</ele>
        <time>2021-06-27T09:50:08.071Z</time>
      </trkpt>
      <trkpt lat="45.55042" lon="6.04834">
        <ele>1034</ele>
        <time>2021-06-27T09:50:09.071Z</time>
      </trkpt>
      <trkpt lat="45.55041" lon="6.04834">
        <ele>1034</ele>
        <time>2021-06-27T09:50:10.071Z</time>
      </trkpt>
      <trkpt lat="45.5504" lon="6.04834">
        <ele>1034</ele>
        <time>2021-06-27T09:50:11.071Z</time>
      </trkpt>
      <trkpt lat="45.5504" lon="6.04834">
        <ele>1034</ele>
        <time>2021-06-27T09:50:12.071Z</time>
      </trkpt>
      <trkpt lat="45.55041" lon="6.04834">
        <ele>1034</ele>
        <time>2021-06-27T09:50:13.070Z</time>
      </trkpt>
      <trkpt lat="45.55041" lon="6.04834">
        <ele>1034</ele>
        <time>2021-06-27T09:50:14.071Z</time>
      </trkpt>
      <trkpt lat="45.55041" lon="6.04834">
        <ele>1034</ele>
        <time>2021-06-27T09:50:15.071Z</time>
      </trkpt>
      <trkpt lat="45.55042" lon="6.04833">
        <ele>1035</ele>
        <time>2021-06-27T09:50:16.071Z</time>
      </trkpt>
      <trkpt lat="45.55042" lon="6.04833">
        <ele>1035</ele>
        <time>2021-06-27T09:50:17.071Z</time>
      </trkpt>
      <trkpt lat="45.55042" lon="6.04833">
        <ele>1036</ele>
        <time>2021-06-27T09:50:18.071Z</time>
      </trkpt>
      <trkpt lat="45.55043" lon="6.04833">
        <ele>1036</ele>
        <time>2021-06-27T09:50:19.071Z</time>
      </trkpt>
      <trkpt lat="45.55043" lon="6.04833">
        <ele>1036</ele>
        <time>2021-06-27T09:50:20.071Z</time>
      </trkpt>
      <trkpt lat="45.55043" lon="6.04833">
        <ele>1037</ele>
        <time>2021-06-27T09:50:21.071Z</time>
      </trkpt>
      <trkpt lat="45.55043" lon="6.04833">
        <ele>1037</ele>
        <time>2021-06-27T09:50:22.071Z</time>
      </trkpt>
      <trkpt lat="45.55043" lon="6.04833">
        <ele>1038</ele>
        <time>2021-06-27T09:50:23.071Z</time>
      </trkpt>
      <trkpt lat="45.55044" lon="6.04833">
        <ele>1038</ele>
        <time>2021-06-27T09:50:24.071Z</time>
      </trkpt>
      <trkpt lat="45.55045" lon="6.04833">
        <ele>1039</ele>
        <time>2021-06-27T09:50:25.071Z</time>
      </trkpt>
      <trkpt lat="45.55044" lon="6.04833">
        <ele>1039</ele>
        <time>2021-06-27T09:50:26.071Z</time>
      </trkpt>
      <trkpt lat="45.55044" lon="6.04833">
        <ele>1039</ele>
        <time>2021-06-27T09:50:27.071Z</time>
      </trkpt>
      <trkpt lat="45.55044" lon="6.04833">
        <ele>1040</ele>
        <time>2021-06-27T09:50:28.071Z</time>
      </trkpt>
      <trkpt lat="45.55045" lon="6.04833">
        <ele>1040</ele>
        <time>2021-06-27T09:50:29.071Z</time>
      </trkpt>
      <trkpt lat="45.55045" lon="6.04833">
        <ele>1040</ele>
        <time>2021-06-27T09:50:30.071Z</time>
      </trkpt>
      <trkpt lat="45.55045" lon="6.04834">
        <ele>1040</ele>
        <time>2021-06-27T09:50:31.071Z</time>
      </trkpt>
      <trkpt lat="45.55045" lon="6.04835">
        <ele>1041</ele>
        <time>2021-06-27T09:50:32.070Z</time>
      </trkpt>
      <trkpt lat="45.55045" lon="6.04835">
        <ele>1041</ele>
        <time>2021-06-27T09:50:33.071Z</time>
      </trkpt>
      <trkpt lat="45.55044" lon="6.04835">
        <ele>1041</ele>
        <time>2021-06-27T09:50:34.070Z</time>
      </trkpt>
      <trkpt lat="45.55044" lon="6.04835">
        <ele>1041</ele>
        <time>2021-06-27T09:50:35.071Z</time>
      </trkpt>
      <trkpt lat="45.55044" lon="6.04835">
        <ele>1041</ele>
        <time>2021-06-27T09:50:36.071Z</time>
      </trkpt>
      <trkpt lat="45.55044" lon="6.04834">
        <ele>1041</ele>
        <time>2021-06-27T09:50:37.071Z</time>
      </trkpt>
      <trkpt lat="45.55044" lon="6.04834">
        <ele>1042</ele>
        <time>2021-06-27T09:50:38.071Z</time>
      </trkpt>
      <trkpt lat="45.55044" lon="6.04834">
        <ele>1042</ele>
        <time>2021-06-27T09:50:39.071Z</time>
      </trkpt>
      <trkpt lat="45.55045" lon="6.04835">
        <ele>1043</ele>
        <time>2021-06-27T09:50:40.070Z</time>
      </trkpt>
      <trkpt lat="45.55045" lon="6.04836">
        <ele>1044</ele>
        <time>2021-06-27T09:50:41.071Z</time>
      </trkpt>
      <trkpt lat="45.55046" lon="6.04837">
        <ele>1044</ele>
        <time>2021-06-27T09:50:42.070Z</time>
      </trkpt>
      <trkpt lat="45.55047" lon="6.04837">
        <ele>1045</ele>
        <time>2021-06-27T09:50:43.071Z</time>
      </trkpt>
      <trkpt lat="45.55047" lon="6.04838">
        <ele>1046</ele>
        <time>2021-06-27T09:50:44.071Z</time>
      </trkpt>
      <trkpt lat="45.55047" lon="6.04838">
        <ele>1046</ele>
        <time>2021-06-27T09:50:45.071Z</time>
      </trkpt>
      <trkpt lat="45.55048" lon="6.04839">
        <ele>1047</ele>
        <time>2021-06-27T09:50:46.071Z</time>
      </trkpt>
      <trkpt lat="45.55048" lon="6.0484">
        <ele>1047</ele>
        <time>2021-06-27T09:50:47.071Z</time>
      </trkpt>
      <trkpt lat="45.55049" lon="6.0484">
        <ele>1047</ele>
        <time>2021-06-27T09:50:48.071Z</time>
      </trkpt>
      <trkpt lat="45.5505" lon="6.0484">
        <ele>1048</ele>
        <time>2021-06-27T09:50:49.071Z</time>
      </trkpt>
      <trkpt lat="45.5505" lon="6.04841">
        <ele>1048</ele>
        <time>2021-06-27T09:50:50.070Z</time>
      </trkpt>
      <trkpt lat="45.55051" lon="6.04842">
        <ele>1049</ele>
        <time>2021-06-27T09:50:51.071Z</time>
      </trkpt>
      <trkpt lat="45.55051" lon="6.04841">
        <ele>1049</ele>
        <time>2021-06-27T09:50:52.070Z</time>
      </trkpt>
      <trkpt lat="45.55051" lon="6.0484">
        <ele>1050</ele>
        <time>2021-06-27T09:50:53.071Z</time>
      </trkpt>
      <trkpt lat="45.5505" lon="6.04838">
        <ele>1050</ele>
        <time>2021-06-27T09:50:54.070Z</time>
      </trkpt>
      <trkpt lat="45.5505" lon="6.04836">
        <ele>1050</ele>
        <time>2021-06-27T09:50:55.070Z</time>
      </trkpt>
      <trkpt lat="45.5505" lon="6.04835">
        <ele>1050</ele>
        <time>2021-06-27T09:50:56.071Z</time>
      </trkpt>
      <trkpt lat="45.5505" lon="6.04836">
        <ele>1050</ele>
        <time>2021-06-27T09:50:57.070Z</time>
      </trkpt>
      <trkpt lat="45.5505" lon="6.04836">
        <ele>1049</ele>
        <time>2021-06-27T09:50:58.071Z</time>
      </trkpt>
      <trkpt lat="45.5505" lon="6.04837">
        <ele>1049</ele>
        <time>2021-06-27T09:50:59.070Z</time>
      </trkpt>
      <trkpt lat="45.5505" lon="6.04837">
        <ele>1049</ele>
        <time>2021-06-27T09:51:00.071Z</time>
      </trkpt>
      <trkpt lat="45.5505" lon="6.04838">
        <ele>1049</ele>
        <time>2021-06-27T09:51:01.070Z</time>
      </trkpt>
      <trkpt lat="45.5505" lon="6.04839">
        <ele>1049</ele>
        <time>2021-06-27T09:51:02.071Z</time>
      </trkpt>
      <trkpt lat="45.5505" lon="6.04839">
        <ele>1048</ele>
        <time>2021-06-27T09:51:03.071Z</time>
      </trkpt>
      <trkpt lat="45.55049" lon="6.04839">
        <ele>1048</ele>
        <time>2021-06-27T09:51:04.070Z</time>
      </trkpt>
      <trkpt lat="45.55048" lon="6.04838">
        <ele>1048</ele>
        <time>2021-06-27T09:51:05.071Z</time>
      </trkpt>
      <trkpt lat="45.55047" lon="6.04837">
        <ele>1048</ele>
        <time>2021-06-27T09:51:06.070Z</time>
      </trkpt>
      <trkpt lat="45.55046" lon="6.04837">
        <ele>1048</ele>
        <time>2021-06-27T09:51:07.071Z</time>
      </trkpt>
      <trkpt lat="45.55045" lon="6.04837">
        <ele>1048</ele>
        <time>2021-06-27T09:51:08.071Z</time>
      </trkpt>
      <trkpt lat="45.55044" lon="6.04836">
        <ele>1048</ele>
        <time>2021-06-27T09:51:09.071Z</time>
      </trkpt>
      <trkpt lat="45.55044" lon="6.04836">
        <ele>1048</ele>
        <time>2021-06-27T09:51:10.071Z</time>
      </trkpt>
      <trkpt lat="45.55044" lon="6.04836">
        <ele>1048</ele>
        <time>2021-06-27T09:51:11.071Z</time>
      </trkpt>
      <trkpt lat="45.55043" lon="6.04836">
        <ele>1047</ele>
        <time>2021-06-27T09:51:12.071Z</time>
      </trkpt>
      <trkpt lat="45.55043" lon="6.04836">
        <ele>1046</ele>
        <time>2021-06-27T09:51:13.070Z</time>
      </trkpt>
      <trkpt lat="45.55042" lon="6.04835">
        <ele>1046</ele>
        <time>2021-06-27T09:51:14.071Z</time>
      </trkpt>
      <trkpt lat="45.55042" lon="6.04835">
        <ele>1045</ele>
        <time>2021-06-27T09:51:15.070Z</time>
      </trkpt>
      <trkpt lat="45.55042" lon="6.04835">
        <ele>1045</ele>
        <time>2021-06-27T09:51:16.071Z</time>
      </trkpt>
      <trkpt lat="45.55042" lon="6.04834">
        <ele>1044</ele>
        <time>2021-06-27T09:51:17.071Z</time>
      </trkpt>
      <trkpt lat="45.55041" lon="6.04834">
        <ele>1044</ele>
        <time>2021-06-27T09:51:18.071Z</time>
      </trkpt>
      <trkpt lat="45.55041" lon="6.04834">
        <ele>1044</ele>
        <time>2021-06-27T09:51:19.071Z</time>
      </trkpt>
      <trkpt lat="45.55041" lon="6.04834">
        <ele>1043</ele>
        <time>2021-06-27T09:51:20.070Z</time>
      </trkpt>
      <trkpt lat="45.55041" lon="6.04833">
        <ele>1043</ele>
        <time>2021-06-27T09:51:21.071Z</time>
      </trkpt>
      <trkpt lat="45.5504" lon="6.04833">
        <ele>1043</ele>
        <time>2021-06-27T09:51:22.071Z</time>
      </trkpt>
      <trkpt lat="45.55039" lon="6.04832">
        <ele>1042</ele>
        <time>2021-06-27T09:51:23.071Z</time>
      </trkpt>
      <trkpt lat="45.55039" lon="6.04831">
        <ele>1042</ele>
        <time>2021-06-27T09:51:24.070Z</time>
      </trkpt>
      <trkpt lat="45.55039" lon="6.0483">
        <ele>1042</ele>
        <time>2021-06-27T09:51:25.071Z</time>
      </trkpt>
      <trkpt lat="45.55038" lon="6.04829">
        <ele>1042</ele>
        <time>2021-06-27T09:51:26.071Z</time>
      </trkpt>
      <trkpt lat="45.55038" lon="6.04828">
        <ele>1042</ele>
        <time>2021-06-27T09:51:27.071Z</time>
      </trkpt>
      <trkpt lat="45.55037" lon="6.04827">
        <ele>1042</ele>
        <time>2021-06-27T09:51:28.070Z</time>
      </trkpt>
      <trkpt lat="45.55037" lon="6.04827">
        <ele>1042</ele>
        <time>2021-06-27T09:51:29.070Z</time>
      </trkpt>
      <trkpt lat="45.55037" lon="6.04826">
        <ele>1042</ele>
        <time>2021-06-27T09:51:30.071Z</time>
      </trkpt>
      <trkpt lat="45.55038" lon="6.04827">
        <ele>1042</ele>
        <time>2021-06-27T09:51:31.071Z</time>
      </trkpt>
      <trkpt lat="45.55039" lon="6.04827">
        <ele>1042</ele>
        <time>2021-06-27T09:51:32.071Z</time>
      </trkpt>
      <trkpt lat="45.55039" lon="6.04828">
        <ele>1042</ele>
        <time>2021-06-27T09:51:33.070Z</time>
      </trkpt>
      <trkpt lat="45.5504" lon="6.04828">
        <ele>1041</ele>
        <time>2021-06-27T09:51:34.070Z</time>
      </trkpt>
      <trkpt lat="45.55041" lon="6.04829">
        <ele>1041</ele>
        <time>2021-06-27T09:51:35.070Z</time>
      </trkpt>
      <trkpt lat="45.55041" lon="6.04829">
        <ele>1040</ele>
        <time>2021-06-27T09:51:36.071Z</time>
      </trkpt>
      <trkpt lat="45.55042" lon="6.0483">
        <ele>1039</ele>
        <time>2021-06-27T09:51:37.071Z</time>
      </trkpt>
      <trkpt lat="45.55042" lon="6.0483">
        <ele>1039</ele>
        <time>2021-06-27T09:51:38.071Z</time>
      </trkpt>
      <trkpt lat="45.55042" lon="6.0483">
        <ele>1039</ele>
        <time>2021-06-27T09:51:39.071Z</time>
      </trkpt>
      <trkpt lat="45.55042" lon="6.0483">
        <ele>1038</ele>
        <time>2021-06-27T09:51:40.071Z</time>
      </trkpt>
      <trkpt lat="45.55043" lon="6.0483">
        <ele>1038</ele>
        <time>2021-06-27T09:51:41.071Z</time>
      </trkpt>
      <trkpt lat="45.55044" lon="6.04831">
        <ele>1038</ele>
        <time>2021-06-27T09:51:42.071Z</time>
      </trkpt>
      <trkpt lat="45.55045" lon="6.04831">
        <ele>1037</ele>
        <time>2021-06-27T09:51:43.070Z</time>
      </trkpt>
      <trkpt lat="45.55045" lon="6.04831">
        <ele>1037</ele>
        <time>2021-06-27T09:51:44.071Z</time>
      </trkpt>
      <trkpt lat="45.55046" lon="6.04831">
        <ele>1037</ele>
        <time>2021-06-27T09:51:45.071Z</time>
      </trkpt>
      <trkpt lat="45.55047" lon="6.04831">
        <ele>1037</ele>
        <time>2021-06-27T09:51:46.071Z</time>
      </trkpt>
      <trkpt lat="45.55048" lon="6.04832">
        <ele>1036</ele>
        <time>2021-06-27T09:51:47.071Z</time>
      </trkpt>
      <trkpt lat="45.55049" lon="6.04833">
        <ele>1036</ele>
        <time>2021-06-27T09:51:48.071Z</time>
      </trkpt>
      <trkpt lat="45.55049" lon="6.04834">
        <ele>1035</ele>
        <time>2021-06-27T09:51:49.071Z</time>
      </trkpt>
      <trkpt lat="45.55051" lon="6.04834">
        <ele>1034</ele>
        <time>2021-06-27T09:51:50.071Z</time>
      </trkpt>
      <trkpt lat="45.55052" lon="6.04835">
        <ele>1034</ele>
        <time>2021-06-27T09:51:51.071Z</time>
      </trkpt>
      <trkpt lat="45.55053" lon="6.04835">
        <ele>1033</ele>
        <time>2021-06-27T09:51:52.070Z</time>
      </trkpt>
      <trkpt lat="45.55053" lon="6.04835">
        <ele>1033</ele>
        <time>2021-06-27T09:51:53.071Z</time>
      </trkpt>
      <trkpt lat="45.55054" lon="6.04837">
        <ele>1032</ele>
        <time>2021-06-27T09:51:54.071Z</time>
      </trkpt>
      <trkpt lat="45.55055" lon="6.04838">
        <ele>1032</ele>
        <time>2021-06-27T09:51:55.071Z</time>
      </trkpt>
      <trkpt lat="45.55057" lon="6.0484">
        <ele>1031</ele>
        <time>2021-06-27T09:51:56.070Z</time>
      </trkpt>
      <trkpt lat="45.55058" lon="6.04841">
        <ele>1031</ele>
        <time>2021-06-27T09:51:57.070Z</time>
      </trkpt>
      <trkpt lat="45.55058" lon="6.04841">
        <ele>1031</ele>
        <time>2021-06-27T09:51:58.070Z</time>
      </trkpt>
      <trkpt lat="45.55059" lon="6.04842">
        <ele>1030</ele>
        <time>2021-06-27T09:51:59.071Z</time>
      </trkpt>
      <trkpt lat="45.5506" lon="6.04842">
        <ele>1030</ele>
        <time>2021-06-27T09:52:00.071Z</time>
      </trkpt>
      <trkpt lat="45.55059" lon="6.04843">
        <ele>1030</ele>
        <time>2021-06-27T09:52:01.071Z</time>
      </trkpt>
      <trkpt lat="45.55058" lon="6.04842">
        <ele>1030</ele>
        <time>2021-06-27T09:52:02.071Z</time>
      </trkpt>
      <trkpt lat="45.55058" lon="6.04842">
        <ele>1030</ele>
        <time>2021-06-27T09:52:03.070Z</time>
      </trkpt>
      <trkpt lat="45.55057" lon="6.04841">
        <ele>1030</ele>
        <time>2021-06-27T09:52:04.071Z</time>
      </trkpt>
      <trkpt lat="45.55057" lon="6.04841">
        <ele>1030</ele>
        <time>2021-06-27T09:52:05.071Z</time>
      </trkpt>
      <trkpt lat="45.55057" lon="6.0484">
        <ele>1031</ele>
        <time>2021-06-27T09:52:06.071Z</time>
      </trkpt>
      <trkpt lat="45.55057" lon="6.0484">
        <ele>1032</ele>
        <time>2021-06-27T09:52:07.071Z</time>
      </trkpt>
      <trkpt lat="45.55057" lon="6.04839">
        <ele>1033</ele>
        <time>2021-06-27T09:52:08.071Z</time>
      </trkpt>
      <trkpt lat="45.55057" lon="6.0484">
        <ele>1033</ele>
        <time>2021-06-27T09:52:09.071Z</time>
      </trkpt>
      <trkpt lat="45.55057" lon="6.0484">
        <ele>1034</ele>
        <time>2021-06-27T09:52:10.071Z</time>
      </trkpt>
      <trkpt lat="45.55058" lon="6.04839">
        <ele>1034</ele>
        <time>2021-06-27T09:52:11.070Z</time>
      </trkpt>
      <trkpt lat="45.55059" lon="6.04839">
        <ele>1034</ele>
        <time>2021-06-27T09:52:12.071Z</time>
      </trkpt>
      <trkpt lat="45.5506" lon="6.04838">
        <ele>1035</ele>
        <time>2021-06-27T09:52:13.071Z</time>
      </trkpt>
      <trkpt lat="45.55061" lon="6.04837">
        <ele>1035</ele>
        <time>2021-06-27T09:52:14.071Z</time>
      </trkpt>
      <trkpt lat="45.55062" lon="6.04837">
        <ele>1036</ele>
        <time>2021-06-27T09:52:15.071Z</time>
      </trkpt>
      <trkpt lat="45.55062" lon="6.04837">
        <ele>1036</ele>
        <time>2021-06-27T09:52:16.070Z</time>
      </trkpt>
      <trkpt lat="45.55062" lon="6.04836">
        <ele>1036</ele>
        <time>2021-06-27T09:52:17.070Z</time>
      </trkpt>
      <trkpt lat="45.55063" lon="6.04836">
        <ele>1037</ele>
        <time>2021-06-27T09:52:18.071Z</time>
      </trkpt>
      <trkpt lat="45.55064" lon="6.04836">
        <ele>1037</ele>
        <time>2021-06-27T09:52:19.071Z</time>
      </trkpt>
      <trkpt lat="45.55065" lon="6.04835">
        <ele>1038</ele>
        <time>2021-06-27T09:52:20.071Z</time>
      </trkpt>
      <trkpt lat="45.55066" lon="6.04834">
        <ele>1038</ele>
        <time>2021-06-27T09:52:21.070Z</time>
      </trkpt>
      <trkpt lat="45.55066" lon="6.04834">
        <ele>1038</ele>
        <time>2021-06-27T09:52:22.071Z</time>
      </trkpt>
      <trkpt lat="45.55067" lon="6.04834">
        <ele>1037</ele>
        <time>2021-06-27T09:52:23.071Z</time>
      </trkpt>
      <trkpt lat="45.55068" lon="6.04834">
        <ele>1037</ele>
        <time>2021-06-27T09:52:24.071Z</time>
      </trkpt>
      <trkpt lat="45.55068" lon="6.04834">
        <ele>1037</ele>
        <time>2021-06-27T09:52:25.071Z</time>
      </trkpt>
      <trkpt lat="45.55069" lon="6.04833">
        <ele>1037</ele>
        <time>2021-06-27T09:52:26.071Z</time>
      </trkpt>
      <trkpt lat="45.55069" lon="6.04833">
        <ele>1036</ele>
        <time>2021-06-27T09:52:27.071Z</time>
      </trkpt>
      <trkpt lat="45.55068" lon="6.04834">
        <ele>1035</ele>
        <time>2021-06-27T09:52:28.071Z</time>
      </trkpt>
      <trkpt lat="45.55067" lon="6.04833">
        <ele>1035</ele>
        <time>2021-06-27T09:52:29.070Z</time>
      </trkpt>
      <trkpt lat="45.55067" lon="6.04834">
        <ele>1034</ele>
        <time>2021-06-27T09:52:30.070Z</time>
      </trkpt>
      <trkpt lat="45.55066" lon="6.04836">
        <ele>1034</ele>
        <time>2021-06-27T09:52:31.071Z</time>
      </trkpt>
      <trkpt lat="45.55066" lon="6.04836">
        <ele>1033</ele>
        <time>2021-06-27T09:52:32.071Z</time>
      </trkpt>
      <trkpt lat="45.55067" lon="6.04836">
        <ele>1033</ele>
        <time>2021-06-27T09:52:33.071Z</time>
      </trkpt>
      <trkpt lat="45.55068" lon="6.04837">
        <ele>1033</ele>
        <time>2021-06-27T09:52:34.071Z</time>
      </trkpt>
      <trkpt lat="45.55069" lon="6.04837">
        <ele>1032</ele>
        <time>2021-06-27T09:52:35.071Z</time>
      </trkpt>
      <trkpt lat="45.5507" lon="6.04837">
        <ele>1032</ele>
        <time>2021-06-27T09:52:36.071Z</time>
      </trkpt>
      <trkpt lat="45.5507" lon="6.04838">
        <ele>1031</ele>
        <time>2021-06-27T09:52:37.071Z</time>
      </trkpt>
      <trkpt lat="45.5507" lon="6.04839">
        <ele>1031</ele>
        <time>2021-06-27T09:52:38.071Z</time>
      </trkpt>
      <trkpt lat="45.55072" lon="6.0484">
        <ele>1030</ele>
        <time>2021-06-27T09:52:39.071Z</time>
      </trkpt>
      <trkpt lat="45.55073" lon="6.0484">
        <ele>1030</ele>
        <time>2021-06-27T09:52:40.070Z</time>
      </trkpt>
      <trkpt lat="45.55074" lon="6.0484">
        <ele>1029</ele>
        <time>2021-06-27T09:52:41.070Z</time>
      </trkpt>
      <trkpt lat="45.55075" lon="6.04841">
        <ele>1029</ele>
        <time>2021-06-27T09:52:42.071Z</time>
      </trkpt>
      <trkpt lat="45.55076" lon="6.04841">
        <ele>1029</ele>
        <time>2021-06-27T09:52:43.071Z</time>
      </trkpt>
      <trkpt lat="45.55077" lon="6.0484">
        <ele>1029</ele>
        <time>2021-06-27T09:52:44.071Z</time>
      </trkpt>
      <trkpt lat="45.55077" lon="6.04841">
        <ele>1029</ele>
        <time>2021-06-27T09:52:45.071Z</time>
      </trkpt>
      <trkpt lat="45.55078" lon="6.04841">
        <ele>1029</ele>
        <time>2021-06-27T09:52:46.071Z</time>
      </trkpt>
      <trkpt lat="45.55079" lon="6.04841">
        <ele>1030</ele>
        <time>2021-06-27T09:52:47.071Z</time>
      </trkpt>
      <trkpt lat="45.55081" lon="6.04841">
        <ele>1031</ele>
        <time>2021-06-27T09:52:48.071Z</time>
      </trkpt>
      <trkpt lat="45.55082" lon="6.04841">
        <ele>1031</ele>
        <time>2021-06-27T09:52:49.071Z</time>
      </trkpt>
      <trkpt lat="45.55083" lon="6.04841">
        <ele>1032</ele>
        <time>2021-06-27T09:52:50.071Z</time>
      </trkpt>
      <trkpt lat="45.55084" lon="6.04841">
        <ele>1032</ele>
        <time>2021-06-27T09:52:51.071Z</time>
      </trkpt>
      <trkpt lat="45.55084" lon="6.04842">
        <ele>1031</ele>
        <time>2021-06-27T09:52:52.071Z</time>
      </trkpt>
      <trkpt lat="45.55084" lon="6.04842">
        <ele>1031</ele>
        <time>2021-06-27T09:52:53.071Z</time>
      </trkpt>
      <trkpt lat="45.55084" lon="6.04843">
        <ele>1031</ele>
        <time>2021-06-27T09:52:54.071Z</time>
      </trkpt>
      <trkpt lat="45.55085" lon="6.04843">
        <ele>1030</ele>
        <time>2021-06-27T09:52:55.071Z</time>
      </trkpt>
      <trkpt lat="45.55085" lon="6.04843">
        <ele>1030</ele>
        <time>2021-06-27T09:52:56.071Z</time>
      </trkpt>
      <trkpt lat="45.55086" lon="6.04843">
        <ele>1030</ele>
        <time>2021-06-27T09:52:57.071Z</time>
      </trkpt>
      <trkpt lat="45.55086" lon="6.04843">
        <ele>1030</ele>
        <time>2021-06-27T09:52:58.070Z</time>
      </trkpt>
      <trkpt lat="45.55087" lon="6.04844">
        <ele>1030</ele>
        <time>2021-06-27T09:52:59.071Z</time>
      </trkpt>
      <trkpt lat="45.55088" lon="6.04844">
        <ele>1030</ele>
        <time>2021-06-27T09:53:00.071Z</time>
      </trkpt>
      <trkpt lat="45.55088" lon="6.04845">
        <ele>1030</ele>
        <time>2021-06-27T09:53:01.070Z</time>
      </trkpt>
      <trkpt lat="45.55088" lon="6.04846">
        <ele>1030</ele>
        <time>2021-06-27T09:53:02.071Z</time>
      </trkpt>
      <trkpt lat="45.55089" lon="6.04846">
        <ele>1030</ele>
        <time>2021-06-27T09:53:03.070Z</time>
      </trkpt>
      <trkpt lat="45.5509" lon="6.04846">
        <ele>1030</ele>
        <time>2021-06-27T09:53:04.070Z</time>
      </trkpt>
      <trkpt lat="45.55091" lon="6.04845">
        <ele>1030</ele>
        <time>2021-06-27T09:53:05.071Z</time>
      </trkpt>
      <trkpt lat="45.55091" lon="6.04845">
        <ele>1030</ele>
        <time>2021-06-27T09:53:06.070Z</time>
      </trkpt>
      <trkpt lat="45.55091" lon="6.04844">
        <ele>1031</ele>
        <time>2021-06-27T09:53:07.071Z</time>
      </trkpt>
      <trkpt lat="45.55091" lon="6.04844">
        <ele>1031</ele>
        <time>2021-06-27T09:53:08.071Z</time>
      </trkpt>
      <trkpt lat="45.55091" lon="6.04844">
        <ele>1032</ele>
        <time>2021-06-27T09:53:09.071Z</time>
      </trkpt>
      <trkpt lat="45.5509" lon="6.04845">
        <ele>1032</ele>
        <time>2021-06-27T09:53:10.071Z</time>
      </trkpt>
      <trkpt lat="45.5509" lon="6.04846">
        <ele>1033</ele>
        <time>2021-06-27T09:53:11.070Z</time>
      </trkpt>
      <trkpt lat="45.5509" lon="6.04846">
        <ele>1033</ele>
        <time>2021-06-27T09:53:12.071Z</time>
      </trkpt>
      <trkpt lat="45.55091" lon="6.04846">
        <ele>1034</ele>
        <time>2021-06-27T09:53:13.071Z</time>
      </trkpt>
      <trkpt lat="45.55091" lon="6.04847">
        <ele>1034</ele>
        <time>2021-06-27T09:53:14.070Z</time>
      </trkpt>
      <trkpt lat="45.55091" lon="6.04847">
        <ele>1034</ele>
        <time>2021-06-27T09:53:15.071Z</time>
      </trkpt>
      <trkpt lat="45.55091" lon="6.04847">
        <ele>1035</ele>
        <time>2021-06-27T09:53:16.071Z</time>
      </trkpt>
      <trkpt lat="45.55091" lon="6.04848">
        <ele>1035</ele>
        <time>2021-06-27T09:53:17.070Z</time>
      </trkpt>
      <trkpt lat="45.55091" lon="6.04848">
        <ele>1036</ele>
        <time>2021-06-27T09:53:18.071Z</time>
      </trkpt>
      <trkpt lat="45.55091" lon="6.04847">
        <ele>1037</ele>
        <time>2021-06-27T09:53:19.071Z</time>
      </trkpt>
      <trkpt lat="45.55091" lon="6.04848">
        <ele>1037</ele>
        <time>2021-06-27T09:53:20.071Z</time>
      </trkpt>
      <trkpt lat="45.55092" lon="6.04848">
        <ele>1037</ele>
        <time>2021-06-27T09:53:21.071Z</time>
      </trkpt>
      <trkpt lat="45.55092" lon="6.04849">
        <ele>1037</ele>
        <time>2021-06-27T09:53:22.071Z</time>
      </trkpt>
      <trkpt lat="45.55093" lon="6.04849">
        <ele>1038</ele>
        <time>2021-06-27T09:53:23.071Z</time>
      </trkpt>
      <trkpt lat="45.55093" lon="6.04849">
        <ele>1038</ele>
        <time>2021-06-27T09:53:24.071Z</time>
      </trkpt>
      <trkpt lat="45.55093" lon="6.04848">
        <ele>1039</ele>
        <time>2021-06-27T09:53:25.071Z</time>
      </trkpt>
      <trkpt lat="45.55093" lon="6.04848">
        <ele>1040</ele>
        <time>2021-06-27T09:53:26.071Z</time>
      </trkpt>
      <trkpt lat="45.55094" lon="6.04847">
        <ele>1040</ele>
        <time>2021-06-27T09:53:27.071Z</time>
      </trkpt>
      <trkpt lat="45.55094" lon="6.04847">
        <ele>1040</ele>
        <time>2021-06-27T09:53:28.071Z</time>
      </trkpt>
      <trkpt lat="45.55094" lon="6.04847">
        <ele>1040</ele>
        <time>2021-06-27T09:53:29.071Z</time>
      </trkpt>
      <trkpt lat="45.55094" lon="6.04848">
        <ele>1041</ele>
        <time>2021-06-27T09:53:30.071Z</time>
      </trkpt>
      <trkpt lat="45.55093" lon="6.04849">
        <ele>1041</ele>
        <time>2021-06-27T09:53:31.071Z</time>
      </trkpt>
      <trkpt lat="45.55093" lon="6.0485">
        <ele>1041</ele>
        <time>2021-06-27T09:53:32.071Z</time>
      </trkpt>
      <trkpt lat="45.55092" lon="6.0485">
        <ele>1041</ele>
        <time>2021-06-27T09:53:33.071Z</time>
      </trkpt>
      <trkpt lat="45.55092" lon="6.04849">
        <ele>1041</ele>
        <time>2021-06-27T09:53:34.071Z</time>
      </trkpt>
      <trkpt lat="45.55092" lon="6.04849">
        <ele>1042</ele>
        <time>2021-06-27T09:53:35.071Z</time>
      </trkpt>
      <trkpt lat="45.55092" lon="6.04849">
        <ele>1042</ele>
        <time>2021-06-27T09:53:36.071Z</time>
      </trkpt>
      <trkpt lat="45.55092" lon="6.04849">
        <ele>1043</ele>
        <time>2021-06-27T09:53:37.071Z</time>
      </trkpt>
      <trkpt lat="45.55092" lon="6.04848">
        <ele>1043</ele>
        <time>2021-06-27T09:53:38.071Z</time>
      </trkpt>
      <trkpt lat="45.55092" lon="6.04848">
        <ele>1044</ele>
        <time>2021-06-27T09:53:39.071Z</time>
      </trkpt>
      <trkpt lat="45.55092" lon="6.04848">
        <ele>1044</ele>
        <time>2021-06-27T09:53:40.071Z</time>
      </trkpt>
      <trkpt lat="45.55092" lon="6.04848">
        <ele>1044</ele>
        <time>2021-06-27T09:53:41.071Z</time>
      </trkpt>
      <trkpt lat="45.55092" lon="6.04848">
        <ele>1043</ele>
        <time>2021-06-27T09:53:42.071Z</time>
      </trkpt>
      <trkpt lat="45.55091" lon="6.04848">
        <ele>1043</ele>
        <time>2021-06-27T09:53:43.070Z</time>
      </trkpt>
      <trkpt lat="45.55091" lon="6.04848">
        <ele>1043</ele>
        <time>2021-06-27T09:53:44.071Z</time>
      </trkpt>
      <trkpt lat="45.55091" lon="6.04848">
        <ele>1043</ele>
        <time>2021-06-27T09:53:45.071Z</time>
      </trkpt>
      <trkpt lat="45.55091" lon="6.04848">
        <ele>1043</ele>
        <time>2021-06-27T09:53:46.070Z</time>
      </trkpt>
      <trkpt lat="45.55092" lon="6.04848">
        <ele>1043</ele>
        <time>2021-06-27T09:53:47.071Z</time>
      </trkpt>
      <trkpt lat="45.55093" lon="6.04847">
        <ele>1043</ele>
        <time>2021-06-27T09:53:48.070Z</time>
      </trkpt>
      <trkpt lat="45.55093" lon="6.04846">
        <ele>1043</ele>
        <time>2021-06-27T09:53:49.071Z</time>
      </trkpt>
      <trkpt lat="45.55094" lon="6.04848">
        <ele>1043</ele>
        <time>2021-06-27T09:53:50.071Z</time>
      </trkpt>
      <trkpt lat="45.55095" lon="6.0485">
        <ele>1043</ele>
        <time>2021-06-27T09:53:51.071Z</time>
      </trkpt>
      <trkpt lat="45.55096" lon="6.04852">
        <ele>1043</ele>
        <time>2021-06-27T09:53:52.070Z</time>
      </trkpt>
      <trkpt lat="45.55095" lon="6.04853">
        <ele>1043</ele>
        <time>2021-06-27T09:53:53.070Z</time>
      </trkpt>
      <trkpt lat="45.55094" lon="6.04854">
        <ele>1044</ele>
        <time>2021-06-27T09:53:54.071Z</time>
      </trkpt>
      <trkpt lat="45.55094" lon="6.04855">
        <ele>1044</ele>
        <time>2021-06-27T09:53:55.071Z</time>
      </trkpt>
      <trkpt lat="45.55093" lon="6.04856">
        <ele>1044</ele>
        <time>2021-06-27T09:53:56.071Z</time>
      </trkpt>
      <trkpt lat="45.55093" lon="6.04856">
        <ele>1044</ele>
        <time>2021-06-27T09:53:57.070Z</time>
      </trkpt>
      <trkpt lat="45.55093" lon="6.04856">
        <ele>1044</ele>
        <time>2021-06-27T09:53:58.070Z</time>
      </trkpt>
      <trkpt lat="45.55093" lon="6.04856">
        <ele>1044</ele>
        <time>2021-06-27T09:53:59.071Z</time>
      </trkpt>
      <trkpt lat="45.55093" lon="6.04855">
        <ele>1044</ele>
        <time>2021-06-27T09:54:00.071Z</time>
      </trkpt>
      <trkpt lat="45.55093" lon="6.04854">
        <ele>1045</ele>
        <time>2021-06-27T09:54:01.070Z</time>
      </trkpt>
      <trkpt lat="45.55093" lon="6.04853">
        <ele>1045</ele>
        <time>2021-06-27T09:54:02.071Z</time>
      </trkpt>
      <trkpt lat="45.55093" lon="6.04852">
        <ele>1045</ele>
        <time>2021-06-27T09:54:03.070Z</time>
      </trkpt>
      <trkpt lat="45.55094" lon="6.04852">
        <ele>1045</ele>
        <time>2021-06-27T09:54:04.070Z</time>
      </trkpt>
      <trkpt lat="45.55094" lon="6.04852">
        <ele>1045</ele>
        <time>2021-06-27T09:54:05.071Z</time>
      </trkpt>
      <trkpt lat="45.55094" lon="6.04852">
        <ele>1045</ele>
        <time>2021-06-27T09:54:06.071Z</time>
      </trkpt>
      <trkpt lat="45.55094" lon="6.04851">
        <ele>1044</ele>
        <time>2021-06-27T09:54:07.071Z</time>
      </trkpt>
      <trkpt lat="45.55094" lon="6.04851">
        <ele>1044</ele>
        <time>2021-06-27T09:54:08.071Z</time>
      </trkpt>
      <trkpt lat="45.55094" lon="6.04851">
        <ele>1043</ele>
        <time>2021-06-27T09:54:09.071Z</time>
      </trkpt>
      <trkpt lat="45.55094" lon="6.04851">
        <ele>1043</ele>
        <time>2021-06-27T09:54:10.071Z</time>
      </trkpt>
      <trkpt lat="45.55094" lon="6.0485">
        <ele>1042</ele>
        <time>2021-06-27T09:54:11.071Z</time>
      </trkpt>
      <trkpt lat="45.55094" lon="6.0485">
        <ele>1042</ele>
        <time>2021-06-27T09:54:12.071Z</time>
      </trkpt>
      <trkpt lat="45.55094" lon="6.04851">
        <ele>1041</ele>
        <time>2021-06-27T09:54:13.071Z</time>
      </trkpt>
      <trkpt lat="45.55095" lon="6.04851">
        <ele>1041</ele>
        <time>2021-06-27T09:54:14.071Z</time>
      </trkpt>
      <trkpt lat="45.55095" lon="6.04852">
        <ele>1040</ele>
        <time>2021-06-27T09:54:15.071Z</time>
      </trkpt>
      <trkpt lat="45.55095" lon="6.04853">
        <ele>1040</ele>
        <time>2021-06-27T09:54:16.071Z</time>
      </trkpt>
      <trkpt lat="45.55095" lon="6.04854">
        <ele>1040</ele>
        <time>2021-06-27T09:54:17.071Z</time>
      </trkpt>
      <trkpt lat="45.55095" lon="6.04856">
        <ele>1039</ele>
        <time>2021-06-27T09:54:18.071Z</time>
      </trkpt>
      <trkpt lat="45.55096" lon="6.04857">
        <ele>1039</ele>
        <time>2021-06-27T09:54:19.070Z</time>
      </trkpt>
      <trkpt lat="45.55096" lon="6.04857">
        <ele>1039</ele>
        <time>2021-06-27T09:54:20.070Z</time>
      </trkpt>
      <trkpt lat="45.55096" lon="6.04857">
        <ele>1039</ele>
        <time>2021-06-27T09:54:21.071Z</time>
      </trkpt>
      <trkpt lat="45.55096" lon="6.04858">
        <ele>1039</ele>
        <time>2021-06-27T09:54:22.071Z</time>
      </trkpt>
      <trkpt lat="45.55096" lon="6.04859">
        <ele>1039</ele>
        <time>2021-06-27T09:54:23.070Z</time>
      </trkpt>
      <trkpt lat="45.55095" lon="6.04859">
        <ele>1039</ele>
        <time>2021-06-27T09:54:24.071Z</time>
      </trkpt>
      <trkpt lat="45.55095" lon="6.0486">
        <ele>1039</ele>
        <time>2021-06-27T09:54:25.071Z</time>
      </trkpt>
      <trkpt lat="45.55095" lon="6.04861">
        <ele>1040</ele>
        <time>2021-06-27T09:54:26.071Z</time>
      </trkpt>
      <trkpt lat="45.55096" lon="6.04862">
        <ele>1040</ele>
        <time>2021-06-27T09:54:27.071Z</time>
      </trkpt>
      <trkpt lat="45.55095" lon="6.04862">
        <ele>1041</ele>
        <time>2021-06-27T09:54:28.071Z</time>
      </trkpt>
      <trkpt lat="45.55095" lon="6.04862">
        <ele>1041</ele>
        <time>2021-06-27T09:54:29.071Z</time>
      </trkpt>
      <trkpt lat="45.55095" lon="6.04864">
        <ele>1041</ele>
        <time>2021-06-27T09:54:30.071Z</time>
      </trkpt>
      <trkpt lat="45.55095" lon="6.04864">
        <ele>1041</ele>
        <time>2021-06-27T09:54:31.070Z</time>
      </trkpt>
      <trkpt lat="45.55095" lon="6.04864">
        <ele>1041</ele>
        <time>2021-06-27T09:54:32.071Z</time>
      </trkpt>
      <trkpt lat="45.55094" lon="6.04862">
        <ele>1042</ele>
        <time>2021-06-27T09:54:33.071Z</time>
      </trkpt>
      <trkpt lat="45.55093" lon="6.0486">
        <ele>1042</ele>
        <time>2021-06-27T09:54:34.071Z</time>
      </trkpt>
      <trkpt lat="45.55093" lon="6.04857">
        <ele>1043</ele>
        <time>2021-06-27T09:54:35.071Z</time>
      </trkpt>
      <trkpt lat="45.55093" lon="6.04856">
        <ele>1044</ele>
        <time>2021-06-27T09:54:36.070Z</time>
      </trkpt>
      <trkpt lat="45.55093" lon="6.04856">
        <ele>1045</ele>
        <time>2021-06-27T09:54:37.071Z</time>
      </trkpt>
      <trkpt lat="45.55093" lon="6.04855">
        <ele>1045</ele>
        <time>2021-06-27T09:54:38.070Z</time>
      </trkpt>
      <trkpt lat="45.55094" lon="6.04855">
        <ele>1045</ele>
        <time>2021-06-27T09:54:39.071Z</time>
      </trkpt>
      <trkpt lat="45.55094" lon="6.04854">
        <ele>1045</ele>
        <time>2021-06-27T09:54:40.070Z</time>
      </trkpt>
      <trkpt lat="45.55094" lon="6.04853">
        <ele>1045</ele>
        <time>2021-06-27T09:54:41.071Z</time>
      </trkpt>
      <trkpt lat="45.55095" lon="6.04853">
        <ele>1045</ele>
        <time>2021-06-27T09:54:42.071Z</time>
      </trkpt>
      <trkpt lat="45.55095" lon="6.04853">
        <ele>1045</ele>
        <time>2021-06-27T09:54:43.070Z</time>
      </trkpt>
      <trkpt lat="45.55096" lon="6.04853">
        <ele>1045</ele>
        <time>2021-06-27T09:54:44.070Z</time>
      </trkpt>
      <trkpt lat="45.55096" lon="6.04853">
        <ele>1045</ele>
        <time>2021-06-27T09:54:45.071Z</time>
      </trkpt>
      <trkpt lat="45.55097" lon="6.04854">
        <ele>1045</ele>
        <time>2021-06-27T09:54:46.071Z</time>
      </trkpt>
      <trkpt lat="45.55098" lon="6.04855">
        <ele>1045</ele>
        <time>2021-06-27T09:54:47.070Z</time>
      </trkpt>
      <trkpt lat="45.55099" lon="6.04855">
        <ele>1045</ele>
        <time>2021-06-27T09:54:48.071Z</time>
      </trkpt>
      <trkpt lat="45.551" lon="6.04855">
        <ele>1045</ele>
        <time>2021-06-27T09:54:49.071Z</time>
      </trkpt>
      <trkpt lat="45.551" lon="6.04855">
        <ele>1045</ele>
        <time>2021-06-27T09:54:50.071Z</time>
      </trkpt>
      <trkpt lat="45.551" lon="6.04855">
        <ele>1045</ele>
        <time>2021-06-27T09:54:51.070Z</time>
      </trkpt>
      <trkpt lat="45.551" lon="6.04855">
        <ele>1045</ele>
        <time>2021-06-27T09:54:52.070Z</time>
      </trkpt>
      <trkpt lat="45.55101" lon="6.04855">
        <ele>1044</ele>
        <time>2021-06-27T09:54:53.071Z</time>
      </trkpt>
      <trkpt lat="45.55102" lon="6.04856">
        <ele>1043</ele>
        <time>2021-06-27T09:54:54.070Z</time>
      </trkpt>
      <trkpt lat="45.55102" lon="6.04856">
        <ele>1042</ele>
        <time>2021-06-27T09:54:55.071Z</time>
      </trkpt>
      <trkpt lat="45.55103" lon="6.04856">
        <ele>1041</ele>
        <time>2021-06-27T09:54:56.071Z</time>
      </trkpt>
      <trkpt lat="45.55104" lon="6.04857">
        <ele>1040</ele>
        <time>2021-06-27T09:54:57.071Z</time>
      </trkpt>
      <trkpt lat="45.55104" lon="6.04858">
        <ele>1040</ele>
        <time>2021-06-27T09:54:58.071Z</time>
      </trkpt>
      <trkpt lat="45.55104" lon="6.04859">
        <ele>1039</ele>
        <time>2021-06-27T09:54:59.071Z</time>
      </trkpt>
      <trkpt lat="45.55104" lon="6.04859">
        <ele>1038</ele>
        <time>2021-06-27T09:55:00.071Z</time>
      </trkpt>
      <trkpt lat="45.55105" lon="6.0486">
        <ele>1037</ele>
        <time>2021-06-27T09:55:01.070Z</time>
      </trkpt>
      <trkpt lat="45.55106" lon="6.0486">
        <ele>1036</ele>
        <time>2021-06-27T09:55:02.071Z</time>
      </trkpt>
      <trkpt lat="45.55106" lon="6.0486">
        <ele>1035</ele>
        <time>2021-06-27T09:55:03.071Z</time>
      </trkpt>
      <trkpt lat="45.55107" lon="6.0486">
        <ele>1035</ele>
        <time>2021-06-27T09:55:04.071Z</time>
      </trkpt>
      <trkpt lat="45.55107" lon="6.0486">
        <ele>1034</ele>
        <time>2021-06-27T09:55:05.071Z</time>
      </trkpt>
      <trkpt lat="45.55107" lon="6.0486">
        <ele>1034</ele>
        <time>2021-06-27T09:55:06.071Z</time>
      </trkpt>
      <trkpt lat="45.55106" lon="6.04859">
        <ele>1033</ele>
        <time>2021-06-27T09:55:07.071Z</time>
      </trkpt>
      <trkpt lat="45.55106" lon="6.04858">
        <ele>1033</ele>
        <time>2021-06-27T09:55:08.071Z</time>
      </trkpt>
      <trkpt lat="45.55105" lon="6.04858">
        <ele>1033</ele>
        <time>2021-06-27T09:55:09.071Z</time>
      </trkpt>
      <trkpt lat="45.55105" lon="6.04858">
        <ele>1033</ele>
        <time>2021-06-27T09:55:10.071Z</time>
      </trkpt>
      <trkpt lat="45.55105" lon="6.04858">
        <ele>1033</ele>
        <time>2021-06-27T09:55:11.071Z</time>
      </trkpt>
      <trkpt lat="45.55105" lon="6.04858">
        <ele>1033</ele>
        <time>2021-06-27T09:55:12.071Z</time>
      </trkpt>
      <trkpt lat="45.55105" lon="6.04857">
        <ele>1034</ele>
        <time>2021-06-27T09:55:13.071Z</time>
      </trkpt>
      <trkpt lat="45.55105" lon="6.04857">
        <ele>1034</ele>
        <time>2021-06-27T09:55:14.071Z</time>
      </trkpt>
      <trkpt lat="45.55105" lon="6.04856">
        <ele>1035</ele>
        <time>2021-06-27T09:55:15.071Z</time>
      </trkpt>
      <trkpt lat="45.55105" lon="6.04857">
        <ele>1036</ele>
        <time>2021-06-27T09:55:16.070Z</time>
      </trkpt>
      <trkpt lat="45.55104" lon="6.04857">
        <ele>1037</ele>
        <time>2021-06-27T09:55:17.071Z</time>
      </trkpt>
      <trkpt lat="45.55104" lon="6.04857">
        <ele>1038</ele>
        <time>2021-06-27T09:55:18.071Z</time>
      </trkpt>
      <trkpt lat="45.55104" lon="6.04857">
        <ele>1039</ele>
        <time>2021-06-27T09:55:19.071Z</time>
      </trkpt>
      <trkpt lat="45.55104" lon="6.04856">
        <ele>1040</ele>
        <time>2021-06-27T09:55:20.070Z</time>
      </trkpt>
      <trkpt lat="45.55105" lon="6.04856">
        <ele>1041</ele>
        <time>2021-06-27T09:55:21.071Z</time>
      </trkpt>
      <trkpt lat="45.55106" lon="6.04855">
        <ele>1042</ele>
        <time>2021-06-27T09:55:22.071Z</time>
      </trkpt>
      <trkpt lat="45.55107" lon="6.04855">
        <ele>1042</ele>
        <time>2021-06-27T09:55:23.071Z</time>
      </trkpt>
      <trkpt lat="45.55107" lon="6.04854">
        <ele>1043</ele>
        <time>2021-06-27T09:55:24.071Z</time>
      </trkpt>
      <trkpt lat="45.55108" lon="6.04854">
        <ele>1043</ele>
        <time>2021-06-27T09:55:25.071Z</time>
      </trkpt>
      <trkpt lat="45.5511" lon="6.04854">
        <ele>1044</ele>
        <time>2021-06-27T09:55:26.070Z</time>
      </trkpt>
      <trkpt lat="45.55111" lon="6.04854">
        <ele>1044</ele>
        <time>2021-06-27T09:55:27.071Z</time>
      </trkpt>
      <trkpt lat="45.55111" lon="6.04854">
        <ele>1045</ele>
        <time>2021-06-27T09:55:28.071Z</time>
      </trkpt>
      <trkpt lat="45.55112" lon="6.04853">
        <ele>1045</ele>
        <time>2021-06-27T09:55:29.070Z</time>
      </trkpt>
      <trkpt lat="45.55112" lon="6.04854">
        <ele>1045</ele>
        <time>2021-06-27T09:55:30.070Z</time>
      </trkpt>
      <trkpt lat="45.55113" lon="6.04854">
        <ele>1045</ele>
        <time>2021-06-27T09:55:31.070Z</time>
      </trkpt>
      <trkpt lat="45.55113" lon="6.04855">
        <ele>1045</ele>
        <time>2021-06-27T09:55:32.070Z</time>
      </trkpt>
      <trkpt lat="45.55113" lon="6.04854">
        <ele>1045</ele>
        <time>2021-06-27T09:55:33.071Z</time>
      </trkpt>
      <trkpt lat="45.55113" lon="6.04854">
        <ele>1044</ele>
        <time>2021-06-27T09:55:34.071Z</time>
      </trkpt>
      <trkpt lat="45.55114" lon="6.04853">
        <ele>1044</ele>
        <time>2021-06-27T09:55:35.071Z</time>
      </trkpt>
      <trkpt lat="45.55114" lon="6.04852">
        <ele>1045</ele>
        <time>2021-06-27T09:55:36.071Z</time>
      </trkpt>
      <trkpt lat="45.55115" lon="6.04851">
        <ele>1045</ele>
        <time>2021-06-27T09:55:37.071Z</time>
      </trkpt>
      <trkpt lat="45.55116" lon="6.0485">
        <ele>1045</ele>
        <time>2021-06-27T09:55:38.071Z</time>
      </trkpt>
      <trkpt lat="45.55116" lon="6.04849">
        <ele>1045</ele>
        <time>2021-06-27T09:55:39.071Z</time>
      </trkpt>
      <trkpt lat="45.55116" lon="6.04848">
        <ele>1046</ele>
        <time>2021-06-27T09:55:40.070Z</time>
      </trkpt>
      <trkpt lat="45.55116" lon="6.04848">
        <ele>1046</ele>
        <time>2021-06-27T09:55:41.071Z</time>
      </trkpt>
      <trkpt lat="45.55117" lon="6.04848">
        <ele>1046</ele>
        <time>2021-06-27T09:55:42.071Z</time>
      </trkpt>
      <trkpt lat="45.55117" lon="6.04848">
        <ele>1046</ele>
        <time>2021-06-27T09:55:43.070Z</time>
      </trkpt>
      <trkpt lat="45.55117" lon="6.04847">
        <ele>1046</ele>
        <time>2021-06-27T09:55:44.070Z</time>
      </trkpt>
      <trkpt lat="45.55118" lon="6.04846">
        <ele>1046</ele>
        <time>2021-06-27T09:55:45.071Z</time>
      </trkpt>
      <trkpt lat="45.55118" lon="6.04845">
        <ele>1046</ele>
        <time>2021-06-27T09:55:46.071Z</time>
      </trkpt>
      <trkpt lat="45.55119" lon="6.04844">
        <ele>1047</ele>
        <time>2021-06-27T09:55:47.071Z</time>
      </trkpt>
      <trkpt lat="45.5512" lon="6.04844">
        <ele>1047</ele>
        <time>2021-06-27T09:55:48.071Z</time>
      </trkpt>
      <trkpt lat="45.55122" lon="6.04844">
        <ele>1047</ele>
        <time>2021-06-27T09:55:49.070Z</time>
      </trkpt>
      <trkpt lat="45.55123" lon="6.04844">
        <ele>1047</ele>
        <time>2021-06-27T09:55:50.071Z</time>
      </trkpt>
      <trkpt lat="45.55124" lon="6.04845">
        <ele>1046</ele>
        <time>2021-06-27T09:55:51.071Z</time>
      </trkpt>
      <trkpt lat="45.55124" lon="6.04845">
        <ele>1046</ele>
        <time>2021-06-27T09:55:52.071Z</time>
      </trkpt>
      <trkpt lat="45.55124" lon="6.04845">
        <ele>1046</ele>
        <time>2021-06-27T09:55:53.071Z</time>
      </trkpt>
      <trkpt lat="45.55124" lon="6.04845">
        <ele>1045</ele>
        <time>2021-06-27T09:55:54.071Z</time>
      </trkpt>
      <trkpt lat="45.55124" lon="6.04845">
        <ele>1045</ele>
        <time>2021-06-27T09:55:55.071Z</time>
      </trkpt>
      <trkpt lat="45.55123" lon="6.04846">
        <ele>1045</ele>
        <time>2021-06-27T09:55:56.071Z</time>
      </trkpt>
      <trkpt lat="45.55123" lon="6.04846">
        <ele>1045</ele>
        <time>2021-06-27T09:55:57.071Z</time>
      </trkpt>
      <trkpt lat="45.55122" lon="6.04847">
        <ele>1045</ele>
        <time>2021-06-27T09:55:58.071Z</time>
      </trkpt>
      <trkpt lat="45.55122" lon="6.04847">
        <ele>1045</ele>
        <time>2021-06-27T09:55:59.071Z</time>
      </trkpt>
      <trkpt lat="45.55122" lon="6.04846">
        <ele>1045</ele>
        <time>2021-06-27T09:56:00.070Z</time>
      </trkpt>
      <trkpt lat="45.55121" lon="6.04846">
        <ele>1045</ele>
        <time>2021-06-27T09:56:01.071Z</time>
      </trkpt>
      <trkpt lat="45.55122" lon="6.04847">
        <ele>1046</ele>
        <time>2021-06-27T09:56:02.071Z</time>
      </trkpt>
      <trkpt lat="45.55122" lon="6.04847">
        <ele>1046</ele>
        <time>2021-06-27T09:56:03.070Z</time>
      </trkpt>
      <trkpt lat="45.55122" lon="6.04847">
        <ele>1047</ele>
        <time>2021-06-27T09:56:04.070Z</time>
      </trkpt>
      <trkpt lat="45.55122" lon="6.04847">
        <ele>1047</ele>
        <time>2021-06-27T09:56:05.070Z</time>
      </trkpt>
      <trkpt lat="45.55122" lon="6.04847">
        <ele>1048</ele>
        <time>2021-06-27T09:56:06.071Z</time>
      </trkpt>
      <trkpt lat="45.55123" lon="6.04848">
        <ele>1048</ele>
        <time>2021-06-27T09:56:07.071Z</time>
      </trkpt>
      <trkpt lat="45.55123" lon="6.04848">
        <ele>1048</ele>
        <time>2021-06-27T09:56:08.070Z</time>
      </trkpt>
      <trkpt lat="45.55123" lon="6.04848">
        <ele>1048</ele>
        <time>2021-06-27T09:56:09.070Z</time>
      </trkpt>
      <trkpt lat="45.55124" lon="6.04847">
        <ele>1048</ele>
        <time>2021-06-27T09:56:10.070Z</time>
      </trkpt>
      <trkpt lat="45.55124" lon="6.04846">
        <ele>1048</ele>
        <time>2021-06-27T09:56:11.071Z</time>
      </trkpt>
      <trkpt lat="45.55125" lon="6.04845">
        <ele>1048</ele>
        <time>2021-06-27T09:56:12.071Z</time>
      </trkpt>
      <trkpt lat="45.55126" lon="6.04844">
        <ele>1048</ele>
        <time>2021-06-27T09:56:13.071Z</time>
      </trkpt>
      <trkpt lat="45.55126" lon="6.04842">
        <ele>1049</ele>
        <time>2021-06-27T09:56:14.070Z</time>
      </trkpt>
      <trkpt lat="45.55126" lon="6.04841">
        <ele>1049</ele>
        <time>2021-06-27T09:56:15.070Z</time>
      </trkpt>
      <trkpt lat="45.55127" lon="6.0484">
        <ele>1050</ele>
        <time>2021-06-27T09:56:16.071Z</time>
      </trkpt>
      <trkpt lat="45.55128" lon="6.04839">
        <ele>1050</ele>
        <time>2021-06-27T09:56:17.071Z</time>
      </trkpt>
      <trkpt lat="45.55128" lon="6.04838">
        <ele>1051</ele>
        <time>2021-06-27T09:56:18.071Z</time>
      </trkpt>
      <trkpt lat="45.55129" lon="6.04836">
        <ele>1051</ele>
        <time>2021-06-27T09:56:19.070Z</time>
      </trkpt>
      <trkpt lat="45.5513" lon="6.04833">
        <ele>1052</ele>
        <time>2021-06-27T09:56:20.070Z</time>
      </trkpt>
      <trkpt lat="45.55131" lon="6.04832">
        <ele>1053</ele>
        <time>2021-06-27T09:56:21.070Z</time>
      </trkpt>
      <trkpt lat="45.5513" lon="6.0483">
        <ele>1053</ele>
        <time>2021-06-27T09:56:22.071Z</time>
      </trkpt>
      <trkpt lat="45.55131" lon="6.04828">
        <ele>1054</ele>
        <time>2021-06-27T09:56:23.070Z</time>
      </trkpt>
      <trkpt lat="45.55131" lon="6.04827">
        <ele>1055</ele>
        <time>2021-06-27T09:56:24.070Z</time>
      </trkpt>
      <trkpt lat="45.55131" lon="6.04827">
        <ele>1055</ele>
        <time>2021-06-27T09:56:25.070Z</time>
      </trkpt>
      <trkpt lat="45.55132" lon="6.04826">
        <ele>1055</ele>
        <time>2021-06-27T09:56:26.070Z</time>
      </trkpt>
      <trkpt lat="45.55132" lon="6.04826">
        <ele>1056</ele>
        <time>2021-06-27T09:56:27.071Z</time>
      </trkpt>
      <trkpt lat="45.55132" lon="6.04825">
        <ele>1056</ele>
        <time>2021-06-27T09:56:28.070Z</time>
      </trkpt>
      <trkpt lat="45.55132" lon="6.04825">
        <ele>1056</ele>
        <time>2021-06-27T09:56:29.070Z</time>
      </trkpt>
      <trkpt lat="45.55132" lon="6.04824">
        <ele>1056</ele>
        <time>2021-06-27T09:56:30.070Z</time>
      </trkpt>
      <trkpt lat="45.55132" lon="6.04823">
        <ele>1056</ele>
        <time>2021-06-27T09:56:31.071Z</time>
      </trkpt>
      <trkpt lat="45.55132" lon="6.04823">
        <ele>1056</ele>
        <time>2021-06-27T09:56:32.071Z</time>
      </trkpt>
      <trkpt lat="45.55132" lon="6.04823">
        <ele>1056</ele>
        <time>2021-06-27T09:56:33.070Z</time>
      </trkpt>
      <trkpt lat="45.55133" lon="6.04822">
        <ele>1056</ele>
        <time>2021-06-27T09:56:34.070Z</time>
      </trkpt>
      <trkpt lat="45.55135" lon="6.0482">
        <ele>1055</ele>
        <time>2021-06-27T09:56:35.070Z</time>
      </trkpt>
      <trkpt lat="45.55135" lon="6.04818">
        <ele>1056</ele>
        <time>2021-06-27T09:56:36.070Z</time>
      </trkpt>
      <trkpt lat="45.55134" lon="6.04816">
        <ele>1056</ele>
        <time>2021-06-27T09:56:37.071Z</time>
      </trkpt>
      <trkpt lat="45.55133" lon="6.04815">
        <ele>1056</ele>
        <time>2021-06-27T09:56:38.070Z</time>
      </trkpt>
      <trkpt lat="45.55133" lon="6.04815">
        <ele>1056</ele>
        <time>2021-06-27T09:56:39.070Z</time>
      </trkpt>
      <trkpt lat="45.55133" lon="6.04815">
        <ele>1056</ele>
        <time>2021-06-27T09:56:40.070Z</time>
      </trkpt>
      <trkpt lat="45.55133" lon="6.04815">
        <ele>1056</ele>
        <time>2021-06-27T09:56:41.070Z</time>
      </trkpt>
      <trkpt lat="45.55133" lon="6.04816">
        <ele>1057</ele>
        <time>2021-06-27T09:56:42.070Z</time>
      </trkpt>
      <trkpt lat="45.55133" lon="6.04816">
        <ele>1058</ele>
        <time>2021-06-27T09:56:43.071Z</time>
      </trkpt>
      <trkpt lat="45.55133" lon="6.04817">
        <ele>1058</ele>
        <time>2021-06-27T09:56:44.070Z</time>
      </trkpt>
      <trkpt lat="45.55133" lon="6.04817">
        <ele>1059</ele>
        <time>2021-06-27T09:56:45.070Z</time>
      </trkpt>
      <trkpt lat="45.55133" lon="6.04818">
        <ele>1059</ele>
        <time>2021-06-27T09:56:46.071Z</time>
      </trkpt>
      <trkpt lat="45.55134" lon="6.04819">
        <ele>1060</ele>
        <time>2021-06-27T09:56:47.071Z</time>
      </trkpt>
      <trkpt lat="45.55135" lon="6.0482">
        <ele>1060</ele>
        <time>2021-06-27T09:56:48.071Z</time>
      </trkpt>
      <trkpt lat="45.55136" lon="6.0482">
        <ele>1061</ele>
        <time>2021-06-27T09:56:49.071Z</time>
      </trkpt>
      <trkpt lat="45.55136" lon="6.0482">
        <ele>1061</ele>
        <time>2021-06-27T09:56:50.071Z</time>
      </trkpt>
      <trkpt lat="45.55136" lon="6.0482">
        <ele>1061</ele>
        <time>2021-06-27T09:56:51.071Z</time>
      </trkpt>
      <trkpt lat="45.55136" lon="6.0482">
        <ele>1061</ele>
        <time>2021-06-27T09:56:52.071Z</time>
      </trkpt>
      <trkpt lat="45.55136" lon="6.0482">
        <ele>1061</ele>
        <time>2021-06-27T09:56:53.071Z</time>
      </trkpt>
      <trkpt lat="45.55136" lon="6.04819">
        <ele>1061</ele>
        <time>2021-06-27T09:56:54.071Z</time>
      </trkpt>
      <trkpt lat="45.55136" lon="6.04819">
        <ele>1061</ele>
        <time>2021-06-27T09:56:55.070Z</time>
      </trkpt>
      <trkpt lat="45.55137" lon="6.04818">
        <ele>1061</ele>
        <time>2021-06-27T09:56:56.071Z</time>
      </trkpt>
      <trkpt lat="45.55137" lon="6.04818">
        <ele>1062</ele>
        <time>2021-06-27T09:56:57.071Z</time>
      </trkpt>
      <trkpt lat="45.55136" lon="6.04817">
        <ele>1062</ele>
        <time>2021-06-27T09:56:58.071Z</time>
      </trkpt>
      <trkpt lat="45.55136" lon="6.04817">
        <ele>1062</ele>
        <time>2021-06-27T09:56:59.071Z</time>
      </trkpt>
      <trkpt lat="45.55136" lon="6.04816">
        <ele>1061</ele>
        <time>2021-06-27T09:57:00.071Z</time>
      </trkpt>
      <trkpt lat="45.55135" lon="6.04814">
        <ele>1061</ele>
        <time>2021-06-27T09:57:01.071Z</time>
      </trkpt>
      <trkpt lat="45.55135" lon="6.04813">
        <ele>1060</ele>
        <time>2021-06-27T09:57:02.071Z</time>
      </trkpt>
      <trkpt lat="45.55135" lon="6.04812">
        <ele>1060</ele>
        <time>2021-06-27T09:57:03.071Z</time>
      </trkpt>
      <trkpt lat="45.55136" lon="6.04811">
        <ele>1059</ele>
        <time>2021-06-27T09:57:04.071Z</time>
      </trkpt>
      <trkpt lat="45.55136" lon="6.0481">
        <ele>1059</ele>
        <time>2021-06-27T09:57:05.070Z</time>
      </trkpt>
      <trkpt lat="45.55137" lon="6.0481">
        <ele>1058</ele>
        <time>2021-06-27T09:57:06.071Z</time>
      </trkpt>
      <trkpt lat="45.55137" lon="6.04809">
        <ele>1057</ele>
        <time>2021-06-27T09:57:07.071Z</time>
      </trkpt>
      <trkpt lat="45.55137" lon="6.04808">
        <ele>1057</ele>
        <time>2021-06-27T09:57:08.071Z</time>
      </trkpt>
      <trkpt lat="45.55138" lon="6.04807">
        <ele>1056</ele>
        <time>2021-06-27T09:57:09.070Z</time>
      </trkpt>
      <trkpt lat="45.55138" lon="6.04806">
        <ele>1055</ele>
        <time>2021-06-27T09:57:10.071Z</time>
      </trkpt>
      <trkpt lat="45.55139" lon="6.04804">
        <ele>1055</ele>
        <time>2021-06-27T09:57:11.071Z</time>
      </trkpt>
      <trkpt lat="45.5514" lon="6.04802">
        <ele>1054</ele>
        <time>2021-06-27T09:57:12.071Z</time>
      </trkpt>
      <trkpt lat="45.55141" lon="6.04801">
        <ele>1054</ele>
        <time>2021-06-27T09:57:13.070Z</time>
      </trkpt>
      <trkpt lat="45.55142" lon="6.04801">
        <ele>1053</ele>
        <time>2021-06-27T09:57:14.071Z</time>
      </trkpt>
      <trkpt lat="45.55142" lon="6.048">
        <ele>1053</ele>
        <time>2021-06-27T09:57:15.071Z</time>
      </trkpt>
      <trkpt lat="45.55141" lon="6.04797">
        <ele>1053</ele>
        <time>2021-06-27T09:57:16.071Z</time>
      </trkpt>
      <trkpt lat="45.55141" lon="6.04795">
        <ele>1053</ele>
        <time>2021-06-27T09:57:17.071Z</time>
      </trkpt>
      <trkpt lat="45.55141" lon="6.04793">
        <ele>1052</ele>
        <time>2021-06-27T09:57:18.071Z</time>
      </trkpt>
      <trkpt lat="45.5514" lon="6.04791">
        <ele>1052</ele>
        <time>2021-06-27T09:57:19.071Z</time>
      </trkpt>
      <trkpt lat="45.5514" lon="6.0479">
        <ele>1052</ele>
        <time>2021-06-27T09:57:20.071Z</time>
      </trkpt>
      <trkpt lat="45.5514" lon="6.04789">
        <ele>1052</ele>
        <time>2021-06-27T09:57:21.071Z</time>
      </trkpt>
      <trkpt lat="45.5514" lon="6.04789">
        <ele>1052</ele>
        <time>2021-06-27T09:57:22.070Z</time>
      </trkpt>
      <trkpt lat="45.5514" lon="6.04788">
        <ele>1052</ele>
        <time>2021-06-27T09:57:23.071Z</time>
      </trkpt>
      <trkpt lat="45.5514" lon="6.04788">
        <ele>1052</ele>
        <time>2021-06-27T09:57:24.071Z</time>
      </trkpt>
      <trkpt lat="45.55139" lon="6.04787">
        <ele>1052</ele>
        <time>2021-06-27T09:57:25.071Z</time>
      </trkpt>
      <trkpt lat="45.55139" lon="6.04785">
        <ele>1052</ele>
        <time>2021-06-27T09:57:26.070Z</time>
      </trkpt>
      <trkpt lat="45.55139" lon="6.04783">
        <ele>1052</ele>
        <time>2021-06-27T09:57:27.071Z</time>
      </trkpt>
      <trkpt lat="45.55141" lon="6.04783">
        <ele>1051</ele>
        <time>2021-06-27T09:57:28.071Z</time>
      </trkpt>
      <trkpt lat="45.55142" lon="6.04782">
        <ele>1051</ele>
        <time>2021-06-27T09:57:29.070Z</time>
      </trkpt>
      <trkpt lat="45.55144" lon="6.04781">
        <ele>1050</ele>
        <time>2021-06-27T09:57:30.071Z</time>
      </trkpt>
      <trkpt lat="45.55144" lon="6.0478">
        <ele>1050</ele>
        <time>2021-06-27T09:57:31.071Z</time>
      </trkpt>
      <trkpt lat="45.55144" lon="6.04779">
        <ele>1050</ele>
        <time>2021-06-27T09:57:32.070Z</time>
      </trkpt>
      <trkpt lat="45.55144" lon="6.04778">
        <ele>1049</ele>
        <time>2021-06-27T09:57:33.071Z</time>
      </trkpt>
      <trkpt lat="45.55145" lon="6.04777">
        <ele>1049</ele>
        <time>2021-06-27T09:57:34.071Z</time>
      </trkpt>
      <trkpt lat="45.55145" lon="6.04777">
        <ele>1049</ele>
        <time>2021-06-27T09:57:35.071Z</time>
      </trkpt>
      <trkpt lat="45.55146" lon="6.04776">
        <ele>1049</ele>
        <time>2021-06-27T09:57:36.071Z</time>
      </trkpt>
      <trkpt lat="45.55147" lon="6.04776">
        <ele>1049</ele>
        <time>2021-06-27T09:57:37.070Z</time>
      </trkpt>
      <trkpt lat="45.55147" lon="6.04776">
        <ele>1049</ele>
        <time>2021-06-27T09:57:38.070Z</time>
      </trkpt>
      <trkpt lat="45.55148" lon="6.04777">
        <ele>1049</ele>
        <time>2021-06-27T09:57:39.070Z</time>
      </trkpt>
      <trkpt lat="45.55149" lon="6.04778">
        <ele>1049</ele>
        <time>2021-06-27T09:57:40.070Z</time>
      </trkpt>
      <trkpt lat="45.55149" lon="6.04778">
        <ele>1049</ele>
        <time>2021-06-27T09:57:41.070Z</time>
      </trkpt>
      <trkpt lat="45.55149" lon="6.04779">
        <ele>1049</ele>
        <time>2021-06-27T09:57:42.070Z</time>
      </trkpt>
      <trkpt lat="45.55149" lon="6.04779">
        <ele>1048</ele>
        <time>2021-06-27T09:57:43.071Z</time>
      </trkpt>
      <trkpt lat="45.55149" lon="6.04779">
        <ele>1048</ele>
        <time>2021-06-27T09:57:44.071Z</time>
      </trkpt>
      <trkpt lat="45.5515" lon="6.04779">
        <ele>1048</ele>
        <time>2021-06-27T09:57:45.071Z</time>
      </trkpt>
      <trkpt lat="45.5515" lon="6.04779">
        <ele>1048</ele>
        <time>2021-06-27T09:57:46.071Z</time>
      </trkpt>
      <trkpt lat="45.55149" lon="6.04779">
        <ele>1048</ele>
        <time>2021-06-27T09:57:47.071Z</time>
      </trkpt>
      <trkpt lat="45.5515" lon="6.04779">
        <ele>1047</ele>
        <time>2021-06-27T09:57:48.071Z</time>
      </trkpt>
      <trkpt lat="45.5515" lon="6.04779">
        <ele>1047</ele>
        <time>2021-06-27T09:57:49.071Z</time>
      </trkpt>
      <trkpt lat="45.55149" lon="6.04779">
        <ele>1047</ele>
        <time>2021-06-27T09:57:50.070Z</time>
      </trkpt>
      <trkpt lat="45.55149" lon="6.04778">
        <ele>1047</ele>
        <time>2021-06-27T09:57:51.070Z</time>
      </trkpt>
      <trkpt lat="45.55149" lon="6.04778">
        <ele>1047</ele>
        <time>2021-06-27T09:57:52.070Z</time>
      </trkpt>
      <trkpt lat="45.55149" lon="6.04778">
        <ele>1046</ele>
        <time>2021-06-27T09:57:53.070Z</time>
      </trkpt>
      <trkpt lat="45.5515" lon="6.04778">
        <ele>1046</ele>
        <time>2021-06-27T09:57:54.071Z</time>
      </trkpt>
      <trkpt lat="45.5515" lon="6.04778">
        <ele>1045</ele>
        <time>2021-06-27T09:57:55.071Z</time>
      </trkpt>
      <trkpt lat="45.5515" lon="6.04779">
        <ele>1045</ele>
        <time>2021-06-27T09:57:56.071Z</time>
      </trkpt>
      <trkpt lat="45.5515" lon="6.0478">
        <ele>1045</ele>
        <time>2021-06-27T09:57:57.071Z</time>
      </trkpt>
      <trkpt lat="45.5515" lon="6.0478">
        <ele>1044</ele>
        <time>2021-06-27T09:57:58.070Z</time>
      </trkpt>
      <trkpt lat="45.5515" lon="6.0478">
        <ele>1044</ele>
        <time>2021-06-27T09:57:59.071Z</time>
      </trkpt>
      <trkpt lat="45.5515" lon="6.0478">
        <ele>1044</ele>
        <time>2021-06-27T09:58:00.071Z</time>
      </trkpt>
      <trkpt lat="45.55151" lon="6.04781">
        <ele>1043</ele>
        <time>2021-06-27T09:58:01.071Z</time>
      </trkpt>
      <trkpt lat="45.55151" lon="6.0478">
        <ele>1043</ele>
        <time>2021-06-27T09:58:02.071Z</time>
      </trkpt>
      <trkpt lat="45.55151" lon="6.0478">
        <ele>1042</ele>
        <time>2021-06-27T09:58:03.071Z</time>
      </trkpt>
      <trkpt lat="45.5515" lon="6.04779">
        <ele>1042</ele>
        <time>2021-06-27T09:58:04.070Z</time>
      </trkpt>
      <trkpt lat="45.5515" lon="6.04779">
        <ele>1041</ele>
        <time>2021-06-27T09:58:05.071Z</time>
      </trkpt>
      <trkpt lat="45.55151" lon="6.04779">
        <ele>1041</ele>
        <time>2021-06-27T09:58:06.070Z</time>
      </trkpt>
      <trkpt lat="45.55151" lon="6.04779">
        <ele>1040</ele>
        <time>2021-06-27T09:58:07.071Z</time>
      </trkpt>
      <trkpt lat="45.55152" lon="6.04779">
        <ele>1039</ele>
        <time>2021-06-27T09:58:08.070Z</time>
      </trkpt>
      <trkpt lat="45.55152" lon="6.04779">
        <ele>1038</ele>
        <time>2021-06-27T09:58:09.071Z</time>
      </trkpt>
      <trkpt lat="45.55154" lon="6.04778">
        <ele>1037</ele>
        <time>2021-06-27T09:58:10.071Z</time>
      </trkpt>
      <trkpt lat="45.55154" lon="6.04778">
        <ele>1036</ele>
        <time>2021-06-27T09:58:11.071Z</time>
      </trkpt>
      <trkpt lat="45.55154" lon="6.04778">
        <ele>1035</ele>
        <time>2021-06-27T09:58:12.071Z</time>
      </trkpt>
      <trkpt lat="45.55153" lon="6.04777">
        <ele>1034</ele>
        <time>2021-06-27T09:58:13.071Z</time>
      </trkpt>
      <trkpt lat="45.55152" lon="6.04776">
        <ele>1034</ele>
        <time>2021-06-27T09:58:14.070Z</time>
      </trkpt>
      <trkpt lat="45.55151" lon="6.04774">
        <ele>1034</ele>
        <time>2021-06-27T09:58:15.070Z</time>
      </trkpt>
      <trkpt lat="45.55151" lon="6.04773">
        <ele>1034</ele>
        <time>2021-06-27T09:58:16.071Z</time>
      </trkpt>
      <trkpt lat="45.55151" lon="6.04772">
        <ele>1034</ele>
        <time>2021-06-27T09:58:17.071Z</time>
      </trkpt>
      <trkpt lat="45.5515" lon="6.04771">
        <ele>1034</ele>
        <time>2021-06-27T09:58:18.071Z</time>
      </trkpt>
      <trkpt lat="45.55149" lon="6.04771">
        <ele>1034</ele>
        <time>2021-06-27T09:58:19.071Z</time>
      </trkpt>
      <trkpt lat="45.55148" lon="6.04771">
        <ele>1035</ele>
        <time>2021-06-27T09:58:20.071Z</time>
      </trkpt>
      <trkpt lat="45.55148" lon="6.04771">
        <ele>1035</ele>
        <time>2021-06-27T09:58:21.071Z</time>
      </trkpt>
      <trkpt lat="45.55147" lon="6.0477">
        <ele>1036</ele>
        <time>2021-06-27T09:58:22.071Z</time>
      </trkpt>
      <trkpt lat="45.55147" lon="6.0477">
        <ele>1037</ele>
        <time>2021-06-27T09:58:23.071Z</time>
      </trkpt>
      <trkpt lat="45.55146" lon="6.0477">
        <ele>1037</ele>
        <time>2021-06-27T09:58:24.071Z</time>
      </trkpt>
      <trkpt lat="45.55146" lon="6.0477">
        <ele>1038</ele>
        <time>2021-06-27T09:58:25.071Z</time>
      </trkpt>
      <trkpt lat="45.55146" lon="6.0477">
        <ele>1039</ele>
        <time>2021-06-27T09:58:26.070Z</time>
      </trkpt>
      <trkpt lat="45.55146" lon="6.0477">
        <ele>1040</ele>
        <time>2021-06-27T09:58:27.071Z</time>
      </trkpt>
      <trkpt lat="45.55145" lon="6.04769">
        <ele>1040</ele>
        <time>2021-06-27T09:58:28.071Z</time>
      </trkpt>
      <trkpt lat="45.55144" lon="6.04769">
        <ele>1041</ele>
        <time>2021-06-27T09:58:29.071Z</time>
      </trkpt>
      <trkpt lat="45.55144" lon="6.04768">
        <ele>1041</ele>
        <time>2021-06-27T09:58:30.071Z</time>
      </trkpt>
      <trkpt lat="45.55143" lon="6.04768">
        <ele>1042</ele>
        <time>2021-06-27T09:58:31.071Z</time>
      </trkpt>
      <trkpt lat="45.55144" lon="6.04769">
        <ele>1043</ele>
        <time>2021-06-27T09:58:32.071Z</time>
      </trkpt>
      <trkpt lat="45.55143" lon="6.04769">
        <ele>1043</ele>
        <time>2021-06-27T09:58:33.070Z</time>
      </trkpt>
      <trkpt lat="45.55144" lon="6.04769">
        <ele>1044</ele>
        <time>2021-06-27T09:58:34.071Z</time>
      </trkpt>
      <trkpt lat="45.55144" lon="6.04769">
        <ele>1045</ele>
        <time>2021-06-27T09:58:35.071Z</time>
      </trkpt>
      <trkpt lat="45.55145" lon="6.04769">
        <ele>1045</ele>
        <time>2021-06-27T09:58:36.070Z</time>
      </trkpt>
      <trkpt lat="45.55145" lon="6.0477">
        <ele>1046</ele>
        <time>2021-06-27T09:58:37.071Z</time>
      </trkpt>
      <trkpt lat="45.55145" lon="6.0477">
        <ele>1046</ele>
        <time>2021-06-27T09:58:38.071Z</time>
      </trkpt>
      <trkpt lat="45.55145" lon="6.0477">
        <ele>1046</ele>
        <time>2021-06-27T09:58:39.071Z</time>
      </trkpt>
      <trkpt lat="45.55145" lon="6.0477">
        <ele>1046</ele>
        <time>2021-06-27T09:58:40.070Z</time>
      </trkpt>
      <trkpt lat="45.55145" lon="6.0477">
        <ele>1047</ele>
        <time>2021-06-27T09:58:41.070Z</time>
      </trkpt>
      <trkpt lat="45.55146" lon="6.0477">
        <ele>1047</ele>
        <time>2021-06-27T09:58:42.071Z</time>
      </trkpt>
      <trkpt lat="45.55146" lon="6.0477">
        <ele>1047</ele>
        <time>2021-06-27T09:58:43.071Z</time>
      </trkpt>
      <trkpt lat="45.55146" lon="6.04771">
        <ele>1047</ele>
        <time>2021-06-27T09:58:44.071Z</time>
      </trkpt>
      <trkpt lat="45.55146" lon="6.04771">
        <ele>1047</ele>
        <time>2021-06-27T09:58:45.070Z</time>
      </trkpt>
      <trkpt lat="45.55147" lon="6.04771">
        <ele>1047</ele>
        <time>2021-06-27T09:58:46.071Z</time>
      </trkpt>
      <trkpt lat="45.55147" lon="6.04771">
        <ele>1046</ele>
        <time>2021-06-27T09:58:47.070Z</time>
      </trkpt>
      <trkpt lat="45.55147" lon="6.04772">
        <ele>1046</ele>
        <time>2021-06-27T09:58:48.070Z</time>
      </trkpt>
      <trkpt lat="45.55148" lon="6.04771">
        <ele>1046</ele>
        <time>2021-06-27T09:58:49.071Z</time>
      </trkpt>
      <trkpt lat="45.55149" lon="6.0477">
        <ele>1046</ele>
        <time>2021-06-27T09:58:50.071Z</time>
      </trkpt>
      <trkpt lat="45.55148" lon="6.04768">
        <ele>1046</ele>
        <time>2021-06-27T09:58:51.071Z</time>
      </trkpt>
      <trkpt lat="45.55147" lon="6.04767">
        <ele>1046</ele>
        <time>2021-06-27T09:58:52.071Z</time>
      </trkpt>
      <trkpt lat="45.55147" lon="6.04767">
        <ele>1046</ele>
        <time>2021-06-27T09:58:53.071Z</time>
      </trkpt>
      <trkpt lat="45.55147" lon="6.04766">
        <ele>1045</ele>
        <time>2021-06-27T09:58:54.071Z</time>
      </trkpt>
      <trkpt lat="45.55146" lon="6.04766">
        <ele>1045</ele>
        <time>2021-06-27T09:58:55.071Z</time>
      </trkpt>
      <trkpt lat="45.55146" lon="6.04765">
        <ele>1045</ele>
        <time>2021-06-27T09:58:56.070Z</time>
      </trkpt>
      <trkpt lat="45.55146" lon="6.04765">
        <ele>1044</ele>
        <time>2021-06-27T09:58:57.071Z</time>
      </trkpt>
      <trkpt lat="45.55146" lon="6.04765">
        <ele>1043</ele>
        <time>2021-06-27T09:58:58.071Z</time>
      </trkpt>
      <trkpt lat="45.55146" lon="6.04765">
        <ele>1043</ele>
        <time>2021-06-27T09:58:59.071Z</time>
      </trkpt>
      <trkpt lat="45.55146" lon="6.04764">
        <ele>1042</ele>
        <time>2021-06-27T09:59:00.071Z</time>
      </trkpt>
      <trkpt lat="45.55146" lon="6.04764">
        <ele>1042</ele>
        <time>2021-06-27T09:59:01.071Z</time>
      </trkpt>
      <trkpt lat="45.55146" lon="6.04764">
        <ele>1043</ele>
        <time>2021-06-27T09:59:02.071Z</time>
      </trkpt>
      <trkpt lat="45.55146" lon="6.04763">
        <ele>1043</ele>
        <time>2021-06-27T09:59:03.070Z</time>
      </trkpt>
      <trkpt lat="45.55145" lon="6.04763">
        <ele>1043</ele>
        <time>2021-06-27T09:59:04.071Z</time>
      </trkpt>
      <trkpt lat="45.55145" lon="6.04762">
        <ele>1044</ele>
        <time>2021-06-27T09:59:05.070Z</time>
      </trkpt>
      <trkpt lat="45.55145" lon="6.04762">
        <ele>1044</ele>
        <time>2021-06-27T09:59:06.070Z</time>
      </trkpt>
      <trkpt lat="45.55145" lon="6.04761">
        <ele>1044</ele>
        <time>2021-06-27T09:59:07.071Z</time>
      </trkpt>
      <trkpt lat="45.55145" lon="6.04761">
        <ele>1044</ele>
        <time>2021-06-27T09:59:08.070Z</time>
      </trkpt>
      <trkpt lat="45.55145" lon="6.04761">
        <ele>1044</ele>
        <time>2021-06-27T09:59:09.071Z</time>
      </trkpt>
      <trkpt lat="45.55144" lon="6.0476">
        <ele>1044</ele>
        <time>2021-06-27T09:59:10.070Z</time>
      </trkpt>
      <trkpt lat="45.55144" lon="6.0476">
        <ele>1045</ele>
        <time>2021-06-27T09:59:11.071Z</time>
      </trkpt>
      <trkpt lat="45.55144" lon="6.0476">
        <ele>1045</ele>
        <time>2021-06-27T09:59:12.071Z</time>
      </trkpt>
      <trkpt lat="45.55143" lon="6.04759">
        <ele>1046</ele>
        <time>2021-06-27T09:59:13.071Z</time>
      </trkpt>
      <trkpt lat="45.55142" lon="6.04758">
        <ele>1046</ele>
        <time>2021-06-27T09:59:14.071Z</time>
      </trkpt>
      <trkpt lat="45.55141" lon="6.04758">
        <ele>1047</ele>
        <time>2021-06-27T09:59:15.071Z</time>
      </trkpt>
      <trkpt lat="45.55141" lon="6.04757">
        <ele>1048</ele>
        <time>2021-06-27T09:59:16.071Z</time>
      </trkpt>
      <trkpt lat="45.5514" lon="6.04758">
        <ele>1050</ele>
        <time>2021-06-27T09:59:17.071Z</time>
      </trkpt>
      <trkpt lat="45.5514" lon="6.04759">
        <ele>1051</ele>
        <time>2021-06-27T09:59:18.070Z</time>
      </trkpt>
      <trkpt lat="45.5514" lon="6.04759">
        <ele>1052</ele>
        <time>2021-06-27T09:59:19.070Z</time>
      </trkpt>
      <trkpt lat="45.5514" lon="6.04759">
        <ele>1052</ele>
        <time>2021-06-27T09:59:20.071Z</time>
      </trkpt>
      <trkpt lat="45.55139" lon="6.04759">
        <ele>1053</ele>
        <time>2021-06-27T09:59:21.071Z</time>
      </trkpt>
      <trkpt lat="45.55139" lon="6.04759">
        <ele>1053</ele>
        <time>2021-06-27T09:59:22.070Z</time>
      </trkpt>
      <trkpt lat="45.55139" lon="6.04759">
        <ele>1054</ele>
        <time>2021-06-27T09:59:23.071Z</time>
      </trkpt>
      <trkpt lat="45.55139" lon="6.04759">
        <ele>1054</ele>
        <time>2021-06-27T09:59:24.070Z</time>
      </trkpt>
      <trkpt lat="45.55139" lon="6.04759">
        <ele>1054</ele>
        <time>2021-06-27T09:59:25.071Z</time>
      </trkpt>
      <trkpt lat="45.55139" lon="6.04759">
        <ele>1055</ele>
        <time>2021-06-27T09:59:26.071Z</time>
      </trkpt>
      <trkpt lat="45.55139" lon="6.0476">
        <ele>1055</ele>
        <time>2021-06-27T09:59:27.071Z</time>
      </trkpt>
      <trkpt lat="45.55139" lon="6.0476">
        <ele>1056</ele>
        <time>2021-06-27T09:59:28.071Z</time>
      </trkpt>
      <trkpt lat="45.5514" lon="6.0476">
        <ele>1056</ele>
        <time>2021-06-27T09:59:29.071Z</time>
      </trkpt>
      <trkpt lat="45.5514" lon="6.0476">
        <ele>1057</ele>
        <time>2021-06-27T09:59:30.071Z</time>
      </trkpt>
      <trkpt lat="45.55139" lon="6.0476">
        <ele>1057</ele>
        <time>2021-06-27T09:59:31.071Z</time>
      </trkpt>
      <trkpt lat="45.55139" lon="6.04759">
        <ele>1058</ele>
        <time>2021-06-27T09:59:32.070Z</time>
      </trkpt>
      <trkpt lat="45.55137" lon="6.04758">
        <ele>1058</ele>
        <time>2021-06-27T09:59:33.071Z</time>
      </trkpt>
      <trkpt lat="45.55136" lon="6.04758">
        <ele>1059</ele>
        <time>2021-06-27T09:59:34.071Z</time>
      </trkpt>
      <trkpt lat="45.55136" lon="6.04758">
        <ele>1060</ele>
        <time>2021-06-27T09:59:35.071Z</time>
      </trkpt>
      <trkpt lat="45.55136" lon="6.04758">
        <ele>1061</ele>
        <time>2021-06-27T09:59:36.071Z</time>
      </trkpt>
      <trkpt lat="45.55136" lon="6.04759">
        <ele>1062</ele>
        <time>2021-06-27T09:59:37.071Z</time>
      </trkpt>
      <trkpt lat="45.55136" lon="6.04758">
        <ele>1062</ele>
        <time>2021-06-27T09:59:38.071Z</time>
      </trkpt>
      <trkpt lat="45.55136" lon="6.04758">
        <ele>1062</ele>
        <time>2021-06-27T09:59:39.071Z</time>
      </trkpt>
      <trkpt lat="45.55136" lon="6.04758">
        <ele>1062</ele>
        <time>2021-06-27T09:59:40.071Z</time>
      </trkpt>
      <trkpt lat="45.55136" lon="6.04758">
        <ele>1061</ele>
        <time>2021-06-27T09:59:41.070Z</time>
      </trkpt>
      <trkpt lat="45.55136" lon="6.04759">
        <ele>1061</ele>
        <time>2021-06-27T09:59:42.071Z</time>
      </trkpt>
      <trkpt lat="45.55136" lon="6.04758">
        <ele>1061</ele>
        <time>2021-06-27T09:59:43.071Z</time>
      </trkpt>
      <trkpt lat="45.55136" lon="6.04759">
        <ele>1060</ele>
        <time>2021-06-27T09:59:44.071Z</time>
      </trkpt>
      <trkpt lat="45.55136" lon="6.04759">
        <ele>1060</ele>
        <time>2021-06-27T09:59:45.071Z</time>
      </trkpt>
      <trkpt lat="45.55137" lon="6.04759">
        <ele>1060</ele>
        <time>2021-06-27T09:59:46.070Z</time>
      </trkpt>
      <trkpt lat="45.55137" lon="6.0476">
        <ele>1059</ele>
        <time>2021-06-27T09:59:47.071Z</time>
      </trkpt>
      <trkpt lat="45.55138" lon="6.04761">
        <ele>1059</ele>
        <time>2021-06-27T09:59:48.071Z</time>
      </trkpt>
      <trkpt lat="45.55139" lon="6.04762">
        <ele>1058</ele>
        <time>2021-06-27T09:59:49.070Z</time>
      </trkpt>
      <trkpt lat="45.55139" lon="6.04763">
        <ele>1058</ele>
        <time>2021-06-27T09:59:50.071Z</time>
      </trkpt>
      <trkpt lat="45.55139" lon="6.04763">
        <ele>1057</ele>
        <time>2021-06-27T09:59:51.071Z</time>
      </trkpt>
      <trkpt lat="45.55139" lon="6.04764">
        <ele>1057</ele>
        <time>2021-06-27T09:59:52.071Z</time>
      </trkpt>
      <trkpt lat="45.55139" lon="6.04765">
        <ele>1057</ele>
        <time>2021-06-27T09:59:53.071Z</time>
      </trkpt>
      <trkpt lat="45.5514" lon="6.04766">
        <ele>1057</ele>
        <time>2021-06-27T09:59:54.071Z</time>
      </trkpt>
      <trkpt lat="45.55141" lon="6.04766">
        <ele>1057</ele>
        <time>2021-06-27T09:59:55.071Z</time>
      </trkpt>
      <trkpt lat="45.55142" lon="6.04766">
        <ele>1057</ele>
        <time>2021-06-27T09:59:56.071Z</time>
      </trkpt>
      <trkpt lat="45.55143" lon="6.04767">
        <ele>1057</ele>
        <time>2021-06-27T09:59:57.071Z</time>
      </trkpt>
      <trkpt lat="45.55144" lon="6.04768">
        <ele>1056</ele>
        <time>2021-06-27T09:59:58.071Z</time>
      </trkpt>
      <trkpt lat="45.55145" lon="6.04768">
        <ele>1056</ele>
        <time>2021-06-27T09:59:59.071Z</time>
      </trkpt>
      <trkpt lat="45.55145" lon="6.04769">
        <ele>1056</ele>
        <time>2021-06-27T10:00:00.071Z</time>
      </trkpt>
      <trkpt lat="45.55146" lon="6.0477">
        <ele>1056</ele>
        <time>2021-06-27T10:00:01.071Z</time>
      </trkpt>
      <trkpt lat="45.55146" lon="6.0477">
        <ele>1056</ele>
        <time>2021-06-27T10:00:02.070Z</time>
      </trkpt>
      <trkpt lat="45.55146" lon="6.0477">
        <ele>1055</ele>
        <time>2021-06-27T10:00:03.071Z</time>
      </trkpt>
      <trkpt lat="45.55147" lon="6.0477">
        <ele>1054</ele>
        <time>2021-06-27T10:00:04.070Z</time>
      </trkpt>
      <trkpt lat="45.55147" lon="6.0477">
        <ele>1053</ele>
        <time>2021-06-27T10:00:05.071Z</time>
      </trkpt>
      <trkpt lat="45.55148" lon="6.0477">
        <ele>1052</ele>
        <time>2021-06-27T10:00:06.071Z</time>
      </trkpt>
      <trkpt lat="45.55148" lon="6.0477">
        <ele>1051</ele>
        <time>2021-06-27T10:00:07.070Z</time>
      </trkpt>
      <trkpt lat="45.55148" lon="6.0477">
        <ele>1051</ele>
        <time>2021-06-27T10:00:08.070Z</time>
      </trkpt>
      <trkpt lat="45.55149" lon="6.0477">
        <ele>1050</ele>
        <time>2021-06-27T10:00:09.070Z</time>
      </trkpt>
      <trkpt lat="45.55149" lon="6.04771">
        <ele>1049</ele>
        <time>2021-06-27T10:00:10.071Z</time>
      </trkpt>
      <trkpt lat="45.5515" lon="6.04772">
        <ele>1048</ele>
        <time>2021-06-27T10:00:11.070Z</time>
      </trkpt>
      <trkpt lat="45.5515" lon="6.04773">
        <ele>1048</ele>
        <time>2021-06-27T10:00:12.070Z</time>
      </trkpt>
      <trkpt lat="45.55151" lon="6.04774">
        <ele>1047</ele>
        <time>2021-06-27T10:00:13.071Z</time>
      </trkpt>
      <trkpt lat="45.55151" lon="6.04774">
        <ele>1046</ele>
        <time>2021-06-27T10:00:14.071Z</time>
      </trkpt>
      <trkpt lat="45.55152" lon="6.04775">
        <ele>1046</ele>
        <time>2021-06-27T10:00:15.071Z</time>
      </trkpt>
      <trkpt lat="45.55153" lon="6.04775">
        <ele>1045</ele>
        <time>2021-06-27T10:00:16.071Z</time>
      </trkpt>
      <trkpt lat="45.55154" lon="6.04776">
        <ele>1045</ele>
        <time>2021-06-27T10:00:17.071Z</time>
      </trkpt>
      <trkpt lat="45.55155" lon="6.04776">
        <ele>1044</ele>
        <time>2021-06-27T10:00:18.071Z</time>
      </trkpt>
      <trkpt lat="45.55155" lon="6.04776">
        <ele>1044</ele>
        <time>2021-06-27T10:00:19.071Z</time>
      </trkpt>
      <trkpt lat="45.55156" lon="6.04777">
        <ele>1044</ele>
        <time>2021-06-27T10:00:20.071Z</time>
      </trkpt>
      <trkpt lat="45.55156" lon="6.04778">
        <ele>1043</ele>
        <time>2021-06-27T10:00:21.071Z</time>
      </trkpt>
      <trkpt lat="45.55157" lon="6.04778">
        <ele>1044</ele>
        <time>2021-06-27T10:00:22.071Z</time>
      </trkpt>
      <trkpt lat="45.55157" lon="6.04779">
        <ele>1044</ele>
        <time>2021-06-27T10:00:23.071Z</time>
      </trkpt>
      <trkpt lat="45.55157" lon="6.04779">
        <ele>1044</ele>
        <time>2021-06-27T10:00:24.071Z</time>
      </trkpt>
      <trkpt lat="45.55157" lon="6.0478">
        <ele>1044</ele>
        <time>2021-06-27T10:00:25.071Z</time>
      </trkpt>
      <trkpt lat="45.55157" lon="6.0478">
        <ele>1045</ele>
        <time>2021-06-27T10:00:26.071Z</time>
      </trkpt>
      <trkpt lat="45.55157" lon="6.0478">
        <ele>1045</ele>
        <time>2021-06-27T10:00:27.071Z</time>
      </trkpt>
      <trkpt lat="45.55157" lon="6.0478">
        <ele>1046</ele>
        <time>2021-06-27T10:00:28.071Z</time>
      </trkpt>
      <trkpt lat="45.55159" lon="6.04781">
        <ele>1046</ele>
        <time>2021-06-27T10:00:29.071Z</time>
      </trkpt>
      <trkpt lat="45.5516" lon="6.04781">
        <ele>1046</ele>
        <time>2021-06-27T10:00:30.070Z</time>
      </trkpt>
      <trkpt lat="45.55161" lon="6.04781">
        <ele>1046</ele>
        <time>2021-06-27T10:00:31.070Z</time>
      </trkpt>
      <trkpt lat="45.55162" lon="6.04782">
        <ele>1047</ele>
        <time>2021-06-27T10:00:32.071Z</time>
      </trkpt>
      <trkpt lat="45.55163" lon="6.04782">
        <ele>1047</ele>
        <time>2021-06-27T10:00:33.070Z</time>
      </trkpt>
      <trkpt lat="45.55163" lon="6.04782">
        <ele>1047</ele>
        <time>2021-06-27T10:00:34.070Z</time>
      </trkpt>
      <trkpt lat="45.55163" lon="6.04782">
        <ele>1047</ele>
        <time>2021-06-27T10:00:35.071Z</time>
      </trkpt>
      <trkpt lat="45.55164" lon="6.04781">
        <ele>1047</ele>
        <time>2021-06-27T10:00:36.071Z</time>
      </trkpt>
      <trkpt lat="45.55164" lon="6.04782">
        <ele>1047</ele>
        <time>2021-06-27T10:00:37.071Z</time>
      </trkpt>
      <trkpt lat="45.55164" lon="6.04781">
        <ele>1047</ele>
        <time>2021-06-27T10:00:38.070Z</time>
      </trkpt>
      <trkpt lat="45.55164" lon="6.04781">
        <ele>1048</ele>
        <time>2021-06-27T10:00:39.071Z</time>
      </trkpt>
      <trkpt lat="45.55164" lon="6.04781">
        <ele>1048</ele>
        <time>2021-06-27T10:00:40.071Z</time>
      </trkpt>
      <trkpt lat="45.55164" lon="6.04781">
        <ele>1049</ele>
        <time>2021-06-27T10:00:41.071Z</time>
      </trkpt>
      <trkpt lat="45.55164" lon="6.04781">
        <ele>1049</ele>
        <time>2021-06-27T10:00:42.071Z</time>
      </trkpt>
      <trkpt lat="45.55164" lon="6.04782">
        <ele>1050</ele>
        <time>2021-06-27T10:00:43.071Z</time>
      </trkpt>
      <trkpt lat="45.55165" lon="6.04783">
        <ele>1050</ele>
        <time>2021-06-27T10:00:44.070Z</time>
      </trkpt>
      <trkpt lat="45.55165" lon="6.04784">
        <ele>1050</ele>
        <time>2021-06-27T10:00:45.071Z</time>
      </trkpt>
      <trkpt lat="45.55164" lon="6.04785">
        <ele>1050</ele>
        <time>2021-06-27T10:00:46.071Z</time>
      </trkpt>
      <trkpt lat="45.55164" lon="6.04785">
        <ele>1050</ele>
        <time>2021-06-27T10:00:47.071Z</time>
      </trkpt>
      <trkpt lat="45.55164" lon="6.04786">
        <ele>1050</ele>
        <time>2021-06-27T10:00:48.070Z</time>
      </trkpt>
      <trkpt lat="45.55165" lon="6.04787">
        <ele>1050</ele>
        <time>2021-06-27T10:00:49.070Z</time>
      </trkpt>
      <trkpt lat="45.55165" lon="6.04788">
        <ele>1051</ele>
        <time>2021-06-27T10:00:50.071Z</time>
      </trkpt>
      <trkpt lat="45.55165" lon="6.04789">
        <ele>1051</ele>
        <time>2021-06-27T10:00:51.071Z</time>
      </trkpt>
      <trkpt lat="45.55165" lon="6.0479">
        <ele>1052</ele>
        <time>2021-06-27T10:00:52.070Z</time>
      </trkpt>
      <trkpt lat="45.55166" lon="6.0479">
        <ele>1052</ele>
        <time>2021-06-27T10:00:53.071Z</time>
      </trkpt>
      <trkpt lat="45.55167" lon="6.0479">
        <ele>1052</ele>
        <time>2021-06-27T10:00:54.070Z</time>
      </trkpt>
      <trkpt lat="45.55167" lon="6.04791">
        <ele>1052</ele>
        <time>2021-06-27T10:00:55.071Z</time>
      </trkpt>
      <trkpt lat="45.55167" lon="6.04792">
        <ele>1052</ele>
        <time>2021-06-27T10:00:56.071Z</time>
      </trkpt>
      <trkpt lat="45.55167" lon="6.04793">
        <ele>1052</ele>
        <time>2021-06-27T10:00:57.071Z</time>
      </trkpt>
      <trkpt lat="45.55167" lon="6.04794">
        <ele>1051</ele>
        <time>2021-06-27T10:00:58.071Z</time>
      </trkpt>
      <trkpt lat="45.55167" lon="6.04796">
        <ele>1051</ele>
        <time>2021-06-27T10:00:59.071Z</time>
      </trkpt>
      <trkpt lat="45.55166" lon="6.04796">
        <ele>1051</ele>
        <time>2021-06-27T10:01:00.071Z</time>
      </trkpt>
      <trkpt lat="45.55166" lon="6.04796">
        <ele>1051</ele>
        <time>2021-06-27T10:01:01.071Z</time>
      </trkpt>
      <trkpt lat="45.55166" lon="6.04797">
        <ele>1051</ele>
        <time>2021-06-27T10:01:02.071Z</time>
      </trkpt>
      <trkpt lat="45.55167" lon="6.04798">
        <ele>1051</ele>
        <time>2021-06-27T10:01:03.070Z</time>
      </trkpt>
      <trkpt lat="45.55167" lon="6.04799">
        <ele>1052</ele>
        <time>2021-06-27T10:01:04.071Z</time>
      </trkpt>
      <trkpt lat="45.55165" lon="6.04797">
        <ele>1052</ele>
        <time>2021-06-27T10:01:05.070Z</time>
      </trkpt>
      <trkpt lat="45.55164" lon="6.04795">
        <ele>1052</ele>
        <time>2021-06-27T10:01:06.071Z</time>
      </trkpt>
      <trkpt lat="45.55164" lon="6.04793">
        <ele>1053</ele>
        <time>2021-06-27T10:01:07.071Z</time>
      </trkpt>
      <trkpt lat="45.55163" lon="6.04793">
        <ele>1053</ele>
        <time>2021-06-27T10:01:08.071Z</time>
      </trkpt>
      <trkpt lat="45.55163" lon="6.04792">
        <ele>1053</ele>
        <time>2021-06-27T10:01:09.071Z</time>
      </trkpt>
      <trkpt lat="45.55162" lon="6.04792">
        <ele>1053</ele>
        <time>2021-06-27T10:01:10.071Z</time>
      </trkpt>
      <trkpt lat="45.55162" lon="6.04792">
        <ele>1053</ele>
        <time>2021-06-27T10:01:11.070Z</time>
      </trkpt>
      <trkpt lat="45.55162" lon="6.04792">
        <ele>1053</ele>
        <time>2021-06-27T10:01:12.071Z</time>
      </trkpt>
      <trkpt lat="45.55161" lon="6.04792">
        <ele>1053</ele>
        <time>2021-06-27T10:01:13.070Z</time>
      </trkpt>
      <trkpt lat="45.55161" lon="6.04793">
        <ele>1054</ele>
        <time>2021-06-27T10:01:14.071Z</time>
      </trkpt>
      <trkpt lat="45.55161" lon="6.04793">
        <ele>1054</ele>
        <time>2021-06-27T10:01:15.070Z</time>
      </trkpt>
      <trkpt lat="45.5516" lon="6.04793">
        <ele>1055</ele>
        <time>2021-06-27T10:01:16.070Z</time>
      </trkpt>
      <trkpt lat="45.5516" lon="6.04793">
        <ele>1056</ele>
        <time>2021-06-27T10:01:17.071Z</time>
      </trkpt>
      <trkpt lat="45.5516" lon="6.04793">
        <ele>1056</ele>
        <time>2021-06-27T10:01:18.070Z</time>
      </trkpt>
      <trkpt lat="45.55159" lon="6.04794">
        <ele>1057</ele>
        <time>2021-06-27T10:01:19.071Z</time>
      </trkpt>
      <trkpt lat="45.55159" lon="6.04795">
        <ele>1058</ele>
        <time>2021-06-27T10:01:20.071Z</time>
      </trkpt>
      <trkpt lat="45.55158" lon="6.04795">
        <ele>1058</ele>
        <time>2021-06-27T10:01:21.070Z</time>
      </trkpt>
      <trkpt lat="45.55157" lon="6.04796">
        <ele>1058</ele>
        <time>2021-06-27T10:01:22.071Z</time>
      </trkpt>
      <trkpt lat="45.55156" lon="6.04796">
        <ele>1059</ele>
        <time>2021-06-27T10:01:23.071Z</time>
      </trkpt>
      <trkpt lat="45.55155" lon="6.04797">
        <ele>1059</ele>
        <time>2021-06-27T10:01:24.071Z</time>
      </trkpt>
      <trkpt lat="45.55154" lon="6.04797">
        <ele>1060</ele>
        <time>2021-06-27T10:01:25.071Z</time>
      </trkpt>
      <trkpt lat="45.55153" lon="6.04797">
        <ele>1060</ele>
        <time>2021-06-27T10:01:26.071Z</time>
      </trkpt>
      <trkpt lat="45.55153" lon="6.04797">
        <ele>1061</ele>
        <time>2021-06-27T10:01:27.071Z</time>
      </trkpt>
      <trkpt lat="45.55152" lon="6.04797">
        <ele>1062</ele>
        <time>2021-06-27T10:01:28.071Z</time>
      </trkpt>
      <trkpt lat="45.55152" lon="6.04797">
        <ele>1063</ele>
        <time>2021-06-27T10:01:29.070Z</time>
      </trkpt>
      <trkpt lat="45.55151" lon="6.04798">
        <ele>1063</ele>
        <time>2021-06-27T10:01:30.071Z</time>
      </trkpt>
      <trkpt lat="45.55151" lon="6.04799">
        <ele>1063</ele>
        <time>2021-06-27T10:01:31.071Z</time>
      </trkpt>
      <trkpt lat="45.5515" lon="6.048">
        <ele>1063</ele>
        <time>2021-06-27T10:01:32.070Z</time>
      </trkpt>
      <trkpt lat="45.55149" lon="6.048">
        <ele>1063</ele>
        <time>2021-06-27T10:01:33.071Z</time>
      </trkpt>
      <trkpt lat="45.55149" lon="6.048">
        <ele>1063</ele>
        <time>2021-06-27T10:01:34.071Z</time>
      </trkpt>
      <trkpt lat="45.55149" lon="6.04799">
        <ele>1063</ele>
        <time>2021-06-27T10:01:35.071Z</time>
      </trkpt>
      <trkpt lat="45.55149" lon="6.048">
        <ele>1063</ele>
        <time>2021-06-27T10:01:36.070Z</time>
      </trkpt>
      <trkpt lat="45.5515" lon="6.048">
        <ele>1063</ele>
        <time>2021-06-27T10:01:37.071Z</time>
      </trkpt>
      <trkpt lat="45.5515" lon="6.048">
        <ele>1062</ele>
        <time>2021-06-27T10:01:38.071Z</time>
      </trkpt>
      <trkpt lat="45.55151" lon="6.048">
        <ele>1061</ele>
        <time>2021-06-27T10:01:39.071Z</time>
      </trkpt>
      <trkpt lat="45.55151" lon="6.048">
        <ele>1061</ele>
        <time>2021-06-27T10:01:40.071Z</time>
      </trkpt>
      <trkpt lat="45.55151" lon="6.04801">
        <ele>1061</ele>
        <time>2021-06-27T10:01:41.071Z</time>
      </trkpt>
      <trkpt lat="45.55151" lon="6.04802">
        <ele>1060</ele>
        <time>2021-06-27T10:01:42.071Z</time>
      </trkpt>
      <trkpt lat="45.55151" lon="6.04802">
        <ele>1060</ele>
        <time>2021-06-27T10:01:43.071Z</time>
      </trkpt>
      <trkpt lat="45.55152" lon="6.04803">
        <ele>1060</ele>
        <time>2021-06-27T10:01:44.071Z</time>
      </trkpt>
      <trkpt lat="45.55152" lon="6.04802">
        <ele>1060</ele>
        <time>2021-06-27T10:01:45.071Z</time>
      </trkpt>
      <trkpt lat="45.55152" lon="6.04803">
        <ele>1060</ele>
        <time>2021-06-27T10:01:46.071Z</time>
      </trkpt>
      <trkpt lat="45.55153" lon="6.04802">
        <ele>1060</ele>
        <time>2021-06-27T10:01:47.071Z</time>
      </trkpt>
      <trkpt lat="45.55153" lon="6.04802">
        <ele>1059</ele>
        <time>2021-06-27T10:01:48.071Z</time>
      </trkpt>
      <trkpt lat="45.55153" lon="6.04802">
        <ele>1059</ele>
        <time>2021-06-27T10:01:49.071Z</time>
      </trkpt>
      <trkpt lat="45.55154" lon="6.04802">
        <ele>1059</ele>
        <time>2021-06-27T10:01:50.071Z</time>
      </trkpt>
      <trkpt lat="45.55155" lon="6.04804">
        <ele>1059</ele>
        <time>2021-06-27T10:01:51.071Z</time>
      </trkpt>
      <trkpt lat="45.55154" lon="6.04805">
        <ele>1059</ele>
        <time>2021-06-27T10:01:52.071Z</time>
      </trkpt>
      <trkpt lat="45.55155" lon="6.04806">
        <ele>1059</ele>
        <time>2021-06-27T10:01:53.070Z</time>
      </trkpt>
      <trkpt lat="45.55156" lon="6.04806">
        <ele>1059</ele>
        <time>2021-06-27T10:01:54.070Z</time>
      </trkpt>
      <trkpt lat="45.55156" lon="6.04807">
        <ele>1059</ele>
        <time>2021-06-27T10:01:55.071Z</time>
      </trkpt>
      <trkpt lat="45.55157" lon="6.04807">
        <ele>1059</ele>
        <time>2021-06-27T10:01:56.071Z</time>
      </trkpt>
      <trkpt lat="45.55157" lon="6.04807">
        <ele>1060</ele>
        <time>2021-06-27T10:01:57.071Z</time>
      </trkpt>
      <trkpt lat="45.55157" lon="6.04807">
        <ele>1060</ele>
        <time>2021-06-27T10:01:58.071Z</time>
      </trkpt>
      <trkpt lat="45.55158" lon="6.04807">
        <ele>1060</ele>
        <time>2021-06-27T10:01:59.071Z</time>
      </trkpt>
      <trkpt lat="45.55158" lon="6.04807">
        <ele>1060</ele>
        <time>2021-06-27T10:02:00.071Z</time>
      </trkpt>
      <trkpt lat="45.55158" lon="6.04808">
        <ele>1060</ele>
        <time>2021-06-27T10:02:01.071Z</time>
      </trkpt>
      <trkpt lat="45.55159" lon="6.04808">
        <ele>1059</ele>
        <time>2021-06-27T10:02:02.071Z</time>
      </trkpt>
      <trkpt lat="45.55159" lon="6.04808">
        <ele>1060</ele>
        <time>2021-06-27T10:02:03.070Z</time>
      </trkpt>
      <trkpt lat="45.5516" lon="6.04809">
        <ele>1060</ele>
        <time>2021-06-27T10:02:04.070Z</time>
      </trkpt>
      <trkpt lat="45.55161" lon="6.04809">
        <ele>1059</ele>
        <time>2021-06-27T10:02:05.070Z</time>
      </trkpt>
      <trkpt lat="45.55162" lon="6.04808">
        <ele>1059</ele>
        <time>2021-06-27T10:02:06.071Z</time>
      </trkpt>
      <trkpt lat="45.55163" lon="6.04807">
        <ele>1059</ele>
        <time>2021-06-27T10:02:07.071Z</time>
      </trkpt>
      <trkpt lat="45.55164" lon="6.04806">
        <ele>1060</ele>
        <time>2021-06-27T10:02:08.071Z</time>
      </trkpt>
      <trkpt lat="45.55165" lon="6.04807">
        <ele>1060</ele>
        <time>2021-06-27T10:02:09.071Z</time>
      </trkpt>
      <trkpt lat="45.55164" lon="6.04807">
        <ele>1061</ele>
        <time>2021-06-27T10:02:10.071Z</time>
      </trkpt>
      <trkpt lat="45.55165" lon="6.04807">
        <ele>1062</ele>
        <time>2021-06-27T10:02:11.070Z</time>
      </trkpt>
      <trkpt lat="45.55164" lon="6.04808">
        <ele>1062</ele>
        <time>2021-06-27T10:02:12.071Z</time>
      </trkpt>
      <trkpt lat="45.55164" lon="6.04809">
        <ele>1063</ele>
        <time>2021-06-27T10:02:13.070Z</time>
      </trkpt>
      <trkpt lat="45.55164" lon="6.0481">
        <ele>1063</ele>
        <time>2021-06-27T10:02:14.071Z</time>
      </trkpt>
      <trkpt lat="45.55165" lon="6.04811">
        <ele>1063</ele>
        <time>2021-06-27T10:02:15.071Z</time>
      </trkpt>
      <trkpt lat="45.55165" lon="6.04812">
        <ele>1064</ele>
        <time>2021-06-27T10:02:16.071Z</time>
      </trkpt>
      <trkpt lat="45.55165" lon="6.04812">
        <ele>1064</ele>
        <time>2021-06-27T10:02:17.071Z</time>
      </trkpt>
      <trkpt lat="45.55165" lon="6.04812">
        <ele>1064</ele>
        <time>2021-06-27T10:02:18.071Z</time>
      </trkpt>
      <trkpt lat="45.55166" lon="6.04812">
        <ele>1064</ele>
        <time>2021-06-27T10:02:19.071Z</time>
      </trkpt>
      <trkpt lat="45.55166" lon="6.04812">
        <ele>1064</ele>
        <time>2021-06-27T10:02:20.071Z</time>
      </trkpt>
      <trkpt lat="45.55167" lon="6.04812">
        <ele>1065</ele>
        <time>2021-06-27T10:02:21.071Z</time>
      </trkpt>
      <trkpt lat="45.55168" lon="6.04812">
        <ele>1065</ele>
        <time>2021-06-27T10:02:22.071Z</time>
      </trkpt>
      <trkpt lat="45.55169" lon="6.04812">
        <ele>1065</ele>
        <time>2021-06-27T10:02:23.071Z</time>
      </trkpt>
      <trkpt lat="45.55169" lon="6.04813">
        <ele>1066</ele>
        <time>2021-06-27T10:02:24.070Z</time>
      </trkpt>
      <trkpt lat="45.55169" lon="6.04814">
        <ele>1066</ele>
        <time>2021-06-27T10:02:25.071Z</time>
      </trkpt>
      <trkpt lat="45.55169" lon="6.04815">
        <ele>1066</ele>
        <time>2021-06-27T10:02:26.070Z</time>
      </trkpt>
      <trkpt lat="45.55169" lon="6.04816">
        <ele>1067</ele>
        <time>2021-06-27T10:02:27.071Z</time>
      </trkpt>
      <trkpt lat="45.55169" lon="6.04817">
        <ele>1067</ele>
        <time>2021-06-27T10:02:28.070Z</time>
      </trkpt>
      <trkpt lat="45.55169" lon="6.04818">
        <ele>1067</ele>
        <time>2021-06-27T10:02:29.070Z</time>
      </trkpt>
      <trkpt lat="45.55169" lon="6.04818">
        <ele>1067</ele>
        <time>2021-06-27T10:02:30.071Z</time>
      </trkpt>
      <trkpt lat="45.55169" lon="6.04819">
        <ele>1067</ele>
        <time>2021-06-27T10:02:31.071Z</time>
      </trkpt>
      <trkpt lat="45.55169" lon="6.04819">
        <ele>1067</ele>
        <time>2021-06-27T10:02:32.071Z</time>
      </trkpt>
      <trkpt lat="45.5517" lon="6.04819">
        <ele>1067</ele>
        <time>2021-06-27T10:02:33.071Z</time>
      </trkpt>
      <trkpt lat="45.5517" lon="6.04819">
        <ele>1068</ele>
        <time>2021-06-27T10:02:34.071Z</time>
      </trkpt>
      <trkpt lat="45.55172" lon="6.04821">
        <ele>1068</ele>
        <time>2021-06-27T10:02:35.071Z</time>
      </trkpt>
      <trkpt lat="45.55173" lon="6.04822">
        <ele>1068</ele>
        <time>2021-06-27T10:02:36.071Z</time>
      </trkpt>
      <trkpt lat="45.55173" lon="6.04823">
        <ele>1068</ele>
        <time>2021-06-27T10:02:37.071Z</time>
      </trkpt>
      <trkpt lat="45.55174" lon="6.04824">
        <ele>1068</ele>
        <time>2021-06-27T10:02:38.071Z</time>
      </trkpt>
      <trkpt lat="45.55174" lon="6.04825">
        <ele>1068</ele>
        <time>2021-06-27T10:02:39.071Z</time>
      </trkpt>
      <trkpt lat="45.55174" lon="6.04825">
        <ele>1068</ele>
        <time>2021-06-27T10:02:40.071Z</time>
      </trkpt>
      <trkpt lat="45.55174" lon="6.04825">
        <ele>1067</ele>
        <time>2021-06-27T10:02:41.071Z</time>
      </trkpt>
      <trkpt lat="45.55174" lon="6.04825">
        <ele>1067</ele>
        <time>2021-06-27T10:02:42.070Z</time>
      </trkpt>
      <trkpt lat="45.55175" lon="6.04826">
        <ele>1067</ele>
        <time>2021-06-27T10:02:43.071Z</time>
      </trkpt>
      <trkpt lat="45.55176" lon="6.04826">
        <ele>1067</ele>
        <time>2021-06-27T10:02:44.071Z</time>
      </trkpt>
      <trkpt lat="45.55177" lon="6.04826">
        <ele>1067</ele>
        <time>2021-06-27T10:02:45.071Z</time>
      </trkpt>
      <trkpt lat="45.55177" lon="6.04826">
        <ele>1067</ele>
        <time>2021-06-27T10:02:46.071Z</time>
      </trkpt>
      <trkpt lat="45.55178" lon="6.04827">
        <ele>1067</ele>
        <time>2021-06-27T10:02:47.070Z</time>
      </trkpt>
      <trkpt lat="45.55178" lon="6.04826">
        <ele>1067</ele>
        <time>2021-06-27T10:02:48.071Z</time>
      </trkpt>
      <trkpt lat="45.55177" lon="6.04825">
        <ele>1068</ele>
        <time>2021-06-27T10:02:49.071Z</time>
      </trkpt>
      <trkpt lat="45.55177" lon="6.04825">
        <ele>1068</ele>
        <time>2021-06-27T10:02:50.071Z</time>
      </trkpt>
      <trkpt lat="45.55176" lon="6.04824">
        <ele>1068</ele>
        <time>2021-06-27T10:02:51.071Z</time>
      </trkpt>
      <trkpt lat="45.55175" lon="6.04824">
        <ele>1068</ele>
        <time>2021-06-27T10:02:52.071Z</time>
      </trkpt>
      <trkpt lat="45.55175" lon="6.04823">
        <ele>1069</ele>
        <time>2021-06-27T10:02:53.071Z</time>
      </trkpt>
      <trkpt lat="45.55174" lon="6.04823">
        <ele>1069</ele>
        <time>2021-06-27T10:02:54.071Z</time>
      </trkpt>
      <trkpt lat="45.55174" lon="6.04822">
        <ele>1069</ele>
        <time>2021-06-27T10:02:55.071Z</time>
      </trkpt>
      <trkpt lat="45.55174" lon="6.04822">
        <ele>1070</ele>
        <time>2021-06-27T10:02:56.071Z</time>
      </trkpt>
      <trkpt lat="45.55174" lon="6.04821">
        <ele>1070</ele>
        <time>2021-06-27T10:02:57.071Z</time>
      </trkpt>
      <trkpt lat="45.55174" lon="6.04821">
        <ele>1071</ele>
        <time>2021-06-27T10:02:58.071Z</time>
      </trkpt>
      <trkpt lat="45.55173" lon="6.04821">
        <ele>1071</ele>
        <time>2021-06-27T10:02:59.071Z</time>
      </trkpt>
      <trkpt lat="45.55173" lon="6.04821">
        <ele>1072</ele>
        <time>2021-06-27T10:03:00.071Z</time>
      </trkpt>
      <trkpt lat="45.55173" lon="6.04821">
        <ele>1072</ele>
        <time>2021-06-27T10:03:01.071Z</time>
      </trkpt>
      <trkpt lat="45.55173" lon="6.04821">
        <ele>1073</ele>
        <time>2021-06-27T10:03:02.071Z</time>
      </trkpt>
      <trkpt lat="45.55173" lon="6.0482">
        <ele>1074</ele>
        <time>2021-06-27T10:03:03.071Z</time>
      </trkpt>
      <trkpt lat="45.55173" lon="6.0482">
        <ele>1074</ele>
        <time>2021-06-27T10:03:04.071Z</time>
      </trkpt>
      <trkpt lat="45.55172" lon="6.0482">
        <ele>1075</ele>
        <time>2021-06-27T10:03:05.071Z</time>
      </trkpt>
      <trkpt lat="45.55171" lon="6.04819">
        <ele>1077</ele>
        <time>2021-06-27T10:03:06.071Z</time>
      </trkpt>
      <trkpt lat="45.55171" lon="6.04819">
        <ele>1078</ele>
        <time>2021-06-27T10:03:07.070Z</time>
      </trkpt>
      <trkpt lat="45.55171" lon="6.04819">
        <ele>1079</ele>
        <time>2021-06-27T10:03:08.070Z</time>
      </trkpt>
      <trkpt lat="45.55171" lon="6.04818">
        <ele>1080</ele>
        <time>2021-06-27T10:03:09.070Z</time>
      </trkpt>
      <trkpt lat="45.55172" lon="6.04817">
        <ele>1081</ele>
        <time>2021-06-27T10:03:10.071Z</time>
      </trkpt>
      <trkpt lat="45.55173" lon="6.04818">
        <ele>1082</ele>
        <time>2021-06-27T10:03:11.070Z</time>
      </trkpt>
      <trkpt lat="45.55174" lon="6.04818">
        <ele>1082</ele>
        <time>2021-06-27T10:03:12.071Z</time>
      </trkpt>
      <trkpt lat="45.55174" lon="6.04818">
        <ele>1083</ele>
        <time>2021-06-27T10:03:13.071Z</time>
      </trkpt>
      <trkpt lat="45.55175" lon="6.04818">
        <ele>1084</ele>
        <time>2021-06-27T10:03:14.071Z</time>
      </trkpt>
      <trkpt lat="45.55175" lon="6.04818">
        <ele>1085</ele>
        <time>2021-06-27T10:03:15.070Z</time>
      </trkpt>
      <trkpt lat="45.55175" lon="6.04819">
        <ele>1086</ele>
        <time>2021-06-27T10:03:16.070Z</time>
      </trkpt>
      <trkpt lat="45.55175" lon="6.04819">
        <ele>1087</ele>
        <time>2021-06-27T10:03:17.071Z</time>
      </trkpt>
      <trkpt lat="45.55174" lon="6.04819">
        <ele>1088</ele>
        <time>2021-06-27T10:03:18.071Z</time>
      </trkpt>
      <trkpt lat="45.55175" lon="6.04819">
        <ele>1088</ele>
        <time>2021-06-27T10:03:19.070Z</time>
      </trkpt>
      <trkpt lat="45.55175" lon="6.04819">
        <ele>1089</ele>
        <time>2021-06-27T10:03:20.070Z</time>
      </trkpt>
      <trkpt lat="45.55175" lon="6.0482">
        <ele>1089</ele>
        <time>2021-06-27T10:03:21.071Z</time>
      </trkpt>
      <trkpt lat="45.55175" lon="6.0482">
        <ele>1089</ele>
        <time>2021-06-27T10:03:22.071Z</time>
      </trkpt>
      <trkpt lat="45.55174" lon="6.0482">
        <ele>1089</ele>
        <time>2021-06-27T10:03:23.071Z</time>
      </trkpt>
      <trkpt lat="45.55174" lon="6.0482">
        <ele>1090</ele>
        <time>2021-06-27T10:03:24.071Z</time>
      </trkpt>
      <trkpt lat="45.55173" lon="6.0482">
        <ele>1090</ele>
        <time>2021-06-27T10:03:25.070Z</time>
      </trkpt>
      <trkpt lat="45.55173" lon="6.0482">
        <ele>1090</ele>
        <time>2021-06-27T10:03:26.070Z</time>
      </trkpt>
      <trkpt lat="45.55174" lon="6.0482">
        <ele>1091</ele>
        <time>2021-06-27T10:03:27.071Z</time>
      </trkpt>
      <trkpt lat="45.55174" lon="6.0482">
        <ele>1091</ele>
        <time>2021-06-27T10:03:28.071Z</time>
      </trkpt>
      <trkpt lat="45.55174" lon="6.0482">
        <ele>1091</ele>
        <time>2021-06-27T10:03:29.071Z</time>
      </trkpt>
      <trkpt lat="45.55175" lon="6.04819">
        <ele>1091</ele>
        <time>2021-06-27T10:03:30.071Z</time>
      </trkpt>
      <trkpt lat="45.55175" lon="6.04819">
        <ele>1091</ele>
        <time>2021-06-27T10:03:31.071Z</time>
      </trkpt>
      <trkpt lat="45.55174" lon="6.04819">
        <ele>1092</ele>
        <time>2021-06-27T10:03:32.071Z</time>
      </trkpt>
      <trkpt lat="45.55174" lon="6.04819">
        <ele>1092</ele>
        <time>2021-06-27T10:03:33.070Z</time>
      </trkpt>
      <trkpt lat="45.55174" lon="6.04819">
        <ele>1091</ele>
        <time>2021-06-27T10:03:34.071Z</time>
      </trkpt>
      <trkpt lat="45.55175" lon="6.04819">
        <ele>1091</ele>
        <time>2021-06-27T10:03:35.071Z</time>
      </trkpt>
      <trkpt lat="45.55174" lon="6.04819">
        <ele>1090</ele>
        <time>2021-06-27T10:03:36.070Z</time>
      </trkpt>
      <trkpt lat="45.55174" lon="6.04819">
        <ele>1089</ele>
        <time>2021-06-27T10:03:37.071Z</time>
      </trkpt>
      <trkpt lat="45.55174" lon="6.0482">
        <ele>1088</ele>
        <time>2021-06-27T10:03:38.071Z</time>
      </trkpt>
      <trkpt lat="45.55174" lon="6.0482">
        <ele>1087</ele>
        <time>2021-06-27T10:03:39.071Z</time>
      </trkpt>
      <trkpt lat="45.55174" lon="6.0482">
        <ele>1087</ele>
        <time>2021-06-27T10:03:40.071Z</time>
      </trkpt>
      <trkpt lat="45.55175" lon="6.0482">
        <ele>1087</ele>
        <time>2021-06-27T10:03:41.070Z</time>
      </trkpt>
      <trkpt lat="45.55175" lon="6.0482">
        <ele>1087</ele>
        <time>2021-06-27T10:03:42.071Z</time>
      </trkpt>
      <trkpt lat="45.55175" lon="6.0482">
        <ele>1087</ele>
        <time>2021-06-27T10:03:43.070Z</time>
      </trkpt>
      <trkpt lat="45.55175" lon="6.0482">
        <ele>1086</ele>
        <time>2021-06-27T10:03:44.071Z</time>
      </trkpt>
      <trkpt lat="45.55175" lon="6.0482">
        <ele>1086</ele>
        <time>2021-06-27T10:03:45.071Z</time>
      </trkpt>
      <trkpt lat="45.55175" lon="6.0482">
        <ele>1085</ele>
        <time>2021-06-27T10:03:46.071Z</time>
      </trkpt>
      <trkpt lat="45.55176" lon="6.0482">
        <ele>1084</ele>
        <time>2021-06-27T10:03:47.071Z</time>
      </trkpt>
      <trkpt lat="45.55176" lon="6.0482">
        <ele>1084</ele>
        <time>2021-06-27T10:03:48.071Z</time>
      </trkpt>
      <trkpt lat="45.55177" lon="6.0482">
        <ele>1083</ele>
        <time>2021-06-27T10:03:49.071Z</time>
      </trkpt>
      <trkpt lat="45.55177" lon="6.04819">
        <ele>1082</ele>
        <time>2021-06-27T10:03:50.071Z</time>
      </trkpt>
      <trkpt lat="45.55177" lon="6.04819">
        <ele>1081</ele>
        <time>2021-06-27T10:03:51.071Z</time>
      </trkpt>
      <trkpt lat="45.55177" lon="6.04818">
        <ele>1081</ele>
        <time>2021-06-27T10:03:52.071Z</time>
      </trkpt>
      <trkpt lat="45.55178" lon="6.04818">
        <ele>1080</ele>
        <time>2021-06-27T10:03:53.070Z</time>
      </trkpt>
      <trkpt lat="45.55178" lon="6.04818">
        <ele>1079</ele>
        <time>2021-06-27T10:03:54.071Z</time>
      </trkpt>
      <trkpt lat="45.55178" lon="6.04818">
        <ele>1079</ele>
        <time>2021-06-27T10:03:55.071Z</time>
      </trkpt>
      <trkpt lat="45.55178" lon="6.04818">
        <ele>1078</ele>
        <time>2021-06-27T10:03:56.070Z</time>
      </trkpt>
      <trkpt lat="45.55178" lon="6.04819">
        <ele>1077</ele>
        <time>2021-06-27T10:03:57.071Z</time>
      </trkpt>
      <trkpt lat="45.55178" lon="6.04819">
        <ele>1077</ele>
        <time>2021-06-27T10:03:58.071Z</time>
      </trkpt>
      <trkpt lat="45.55178" lon="6.04819">
        <ele>1077</ele>
        <time>2021-06-27T10:03:59.071Z</time>
      </trkpt>
      <trkpt lat="45.55178" lon="6.04819">
        <ele>1076</ele>
        <time>2021-06-27T10:04:00.071Z</time>
      </trkpt>
      <trkpt lat="45.55178" lon="6.04819">
        <ele>1076</ele>
        <time>2021-06-27T10:04:01.071Z</time>
      </trkpt>
      <trkpt lat="45.55178" lon="6.04818">
        <ele>1075</ele>
        <time>2021-06-27T10:04:02.070Z</time>
      </trkpt>
      <trkpt lat="45.55178" lon="6.04818">
        <ele>1075</ele>
        <time>2021-06-27T10:04:03.071Z</time>
      </trkpt>
      <trkpt lat="45.55178" lon="6.04819">
        <ele>1075</ele>
        <time>2021-06-27T10:04:04.071Z</time>
      </trkpt>
      <trkpt lat="45.55178" lon="6.04819">
        <ele>1074</ele>
        <time>2021-06-27T10:04:05.071Z</time>
      </trkpt>
      <trkpt lat="45.55178" lon="6.0482">
        <ele>1074</ele>
        <time>2021-06-27T10:04:06.070Z</time>
      </trkpt>
      <trkpt lat="45.55178" lon="6.0482">
        <ele>1073</ele>
        <time>2021-06-27T10:04:07.071Z</time>
      </trkpt>
      <trkpt lat="45.55177" lon="6.0482">
        <ele>1073</ele>
        <time>2021-06-27T10:04:08.071Z</time>
      </trkpt>
      <trkpt lat="45.55177" lon="6.0482">
        <ele>1072</ele>
        <time>2021-06-27T10:04:09.071Z</time>
      </trkpt>
      <trkpt lat="45.55177" lon="6.0482">
        <ele>1072</ele>
        <time>2021-06-27T10:04:10.071Z</time>
      </trkpt>
      <trkpt lat="45.55177" lon="6.0482">
        <ele>1072</ele>
        <time>2021-06-27T10:04:11.071Z</time>
      </trkpt>
      <trkpt lat="45.55177" lon="6.0482">
        <ele>1073</ele>
        <time>2021-06-27T10:04:12.071Z</time>
      </trkpt>
      <trkpt lat="45.55178" lon="6.0482">
        <ele>1073</ele>
        <time>2021-06-27T10:04:13.070Z</time>
      </trkpt>
      <trkpt lat="45.55178" lon="6.04821">
        <ele>1073</ele>
        <time>2021-06-27T10:04:14.071Z</time>
      </trkpt>
      <trkpt lat="45.55177" lon="6.04821">
        <ele>1073</ele>
        <time>2021-06-27T10:04:15.070Z</time>
      </trkpt>
      <trkpt lat="45.55177" lon="6.04821">
        <ele>1074</ele>
        <time>2021-06-27T10:04:16.070Z</time>
      </trkpt>
      <trkpt lat="45.55178" lon="6.04822">
        <ele>1075</ele>
        <time>2021-06-27T10:04:17.071Z</time>
      </trkpt>
      <trkpt lat="45.55177" lon="6.04822">
        <ele>1075</ele>
        <time>2021-06-27T10:04:18.071Z</time>
      </trkpt>
      <trkpt lat="45.55178" lon="6.04822">
        <ele>1076</ele>
        <time>2021-06-27T10:04:19.070Z</time>
      </trkpt>
      <trkpt lat="45.55178" lon="6.04822">
        <ele>1077</ele>
        <time>2021-06-27T10:04:20.071Z</time>
      </trkpt>
      <trkpt lat="45.55178" lon="6.04822">
        <ele>1077</ele>
        <time>2021-06-27T10:04:21.071Z</time>
      </trkpt>
      <trkpt lat="45.55178" lon="6.04821">
        <ele>1078</ele>
        <time>2021-06-27T10:04:22.071Z</time>
      </trkpt>
      <trkpt lat="45.55178" lon="6.04821">
        <ele>1078</ele>
        <time>2021-06-27T10:04:23.071Z</time>
      </trkpt>
      <trkpt lat="45.55178" lon="6.04821">
        <ele>1078</ele>
        <time>2021-06-27T10:04:24.071Z</time>
      </trkpt>
      <trkpt lat="45.55178" lon="6.04822">
        <ele>1078</ele>
        <time>2021-06-27T10:04:25.071Z</time>
      </trkpt>
      <trkpt lat="45.55178" lon="6.04822">
        <ele>1079</ele>
        <time>2021-06-27T10:04:26.070Z</time>
      </trkpt>
      <trkpt lat="45.55179" lon="6.04823">
        <ele>1079</ele>
        <time>2021-06-27T10:04:27.071Z</time>
      </trkpt>
      <trkpt lat="45.55179" lon="6.04824">
        <ele>1079</ele>
        <time>2021-06-27T10:04:28.071Z</time>
      </trkpt>
      <trkpt lat="45.5518" lon="6.04825">
        <ele>1078</ele>
        <time>2021-06-27T10:04:29.071Z</time>
      </trkpt>
      <trkpt lat="45.5518" lon="6.04826">
        <ele>1078</ele>
        <time>2021-06-27T10:04:30.071Z</time>
      </trkpt>
      <trkpt lat="45.55181" lon="6.04827">
        <ele>1077</ele>
        <time>2021-06-27T10:04:31.071Z</time>
      </trkpt>
      <trkpt lat="45.55181" lon="6.04828">
        <ele>1076</ele>
        <time>2021-06-27T10:04:32.070Z</time>
      </trkpt>
      <trkpt lat="45.5518" lon="6.04828">
        <ele>1076</ele>
        <time>2021-06-27T10:04:33.071Z</time>
      </trkpt>
      <trkpt lat="45.5518" lon="6.04828">
        <ele>1075</ele>
        <time>2021-06-27T10:04:34.071Z</time>
      </trkpt>
      <trkpt lat="45.55179" lon="6.04829">
        <ele>1074</ele>
        <time>2021-06-27T10:04:35.071Z</time>
      </trkpt>
      <trkpt lat="45.5518" lon="6.0483">
        <ele>1073</ele>
        <time>2021-06-27T10:04:36.071Z</time>
      </trkpt>
      <trkpt lat="45.5518" lon="6.04831">
        <ele>1073</ele>
        <time>2021-06-27T10:04:37.070Z</time>
      </trkpt>
      <trkpt lat="45.5518" lon="6.04832">
        <ele>1072</ele>
        <time>2021-06-27T10:04:38.070Z</time>
      </trkpt>
      <trkpt lat="45.5518" lon="6.04833">
        <ele>1072</ele>
        <time>2021-06-27T10:04:39.071Z</time>
      </trkpt>
      <trkpt lat="45.5518" lon="6.04834">
        <ele>1072</ele>
        <time>2021-06-27T10:04:40.071Z</time>
      </trkpt>
      <trkpt lat="45.55181" lon="6.04834">
        <ele>1072</ele>
        <time>2021-06-27T10:04:41.071Z</time>
      </trkpt>
      <trkpt lat="45.55182" lon="6.04834">
        <ele>1072</ele>
        <time>2021-06-27T10:04:42.070Z</time>
      </trkpt>
      <trkpt lat="45.55181" lon="6.04834">
        <ele>1072</ele>
        <time>2021-06-27T10:04:43.071Z</time>
      </trkpt>
      <trkpt lat="45.55181" lon="6.04834">
        <ele>1072</ele>
        <time>2021-06-27T10:04:44.070Z</time>
      </trkpt>
      <trkpt lat="45.5518" lon="6.04834">
        <ele>1073</ele>
        <time>2021-06-27T10:04:45.071Z</time>
      </trkpt>
      <trkpt lat="45.55179" lon="6.04834">
        <ele>1073</ele>
        <time>2021-06-27T10:04:46.070Z</time>
      </trkpt>
      <trkpt lat="45.55179" lon="6.04834">
        <ele>1074</ele>
        <time>2021-06-27T10:04:47.070Z</time>
      </trkpt>
      <trkpt lat="45.55179" lon="6.04834">
        <ele>1074</ele>
        <time>2021-06-27T10:04:48.070Z</time>
      </trkpt>
      <trkpt lat="45.55178" lon="6.04834">
        <ele>1074</ele>
        <time>2021-06-27T10:04:49.070Z</time>
      </trkpt>
      <trkpt lat="45.55178" lon="6.04833">
        <ele>1075</ele>
        <time>2021-06-27T10:04:50.071Z</time>
      </trkpt>
      <trkpt lat="45.55177" lon="6.04833">
        <ele>1075</ele>
        <time>2021-06-27T10:04:51.071Z</time>
      </trkpt>
      <trkpt lat="45.55177" lon="6.04833">
        <ele>1076</ele>
        <time>2021-06-27T10:04:52.071Z</time>
      </trkpt>
      <trkpt lat="45.55177" lon="6.04833">
        <ele>1076</ele>
        <time>2021-06-27T10:04:53.071Z</time>
      </trkpt>
      <trkpt lat="45.55177" lon="6.04833">
        <ele>1076</ele>
        <time>2021-06-27T10:04:54.070Z</time>
      </trkpt>
      <trkpt lat="45.55177" lon="6.04833">
        <ele>1077</ele>
        <time>2021-06-27T10:04:55.071Z</time>
      </trkpt>
      <trkpt lat="45.55178" lon="6.04834">
        <ele>1076</ele>
        <time>2021-06-27T10:04:56.070Z</time>
      </trkpt>
      <trkpt lat="45.55179" lon="6.04836">
        <ele>1076</ele>
        <time>2021-06-27T10:04:57.071Z</time>
      </trkpt>
      <trkpt lat="45.55178" lon="6.04836">
        <ele>1075</ele>
        <time>2021-06-27T10:04:58.071Z</time>
      </trkpt>
      <trkpt lat="45.55179" lon="6.04837">
        <ele>1074</ele>
        <time>2021-06-27T10:04:59.071Z</time>
      </trkpt>
      <trkpt lat="45.55179" lon="6.04837">
        <ele>1074</ele>
        <time>2021-06-27T10:05:00.071Z</time>
      </trkpt>
      <trkpt lat="45.55179" lon="6.04837">
        <ele>1074</ele>
        <time>2021-06-27T10:05:01.071Z</time>
      </trkpt>
      <trkpt lat="45.5518" lon="6.04838">
        <ele>1074</ele>
        <time>2021-06-27T10:05:02.071Z</time>
      </trkpt>
      <trkpt lat="45.5518" lon="6.04839">
        <ele>1074</ele>
        <time>2021-06-27T10:05:03.071Z</time>
      </trkpt>
      <trkpt lat="45.5518" lon="6.04839">
        <ele>1074</ele>
        <time>2021-06-27T10:05:04.071Z</time>
      </trkpt>
      <trkpt lat="45.55181" lon="6.0484">
        <ele>1074</ele>
        <time>2021-06-27T10:05:05.071Z</time>
      </trkpt>
      <trkpt lat="45.55181" lon="6.04841">
        <ele>1074</ele>
        <time>2021-06-27T10:05:06.071Z</time>
      </trkpt>
      <trkpt lat="45.55182" lon="6.04842">
        <ele>1074</ele>
        <time>2021-06-27T10:05:07.070Z</time>
      </trkpt>
      <trkpt lat="45.55182" lon="6.04843">
        <ele>1073</ele>
        <time>2021-06-27T10:05:08.071Z</time>
      </trkpt>
      <trkpt lat="45.55182" lon="6.04844">
        <ele>1073</ele>
        <time>2021-06-27T10:05:09.071Z</time>
      </trkpt>
      <trkpt lat="45.55182" lon="6.04844">
        <ele>1073</ele>
        <time>2021-06-27T10:05:10.070Z</time>
      </trkpt>
      <trkpt lat="45.55183" lon="6.04845">
        <ele>1072</ele>
        <time>2021-06-27T10:05:11.071Z</time>
      </trkpt>
      <trkpt lat="45.55183" lon="6.04846">
        <ele>1072</ele>
        <time>2021-06-27T10:05:12.071Z</time>
      </trkpt>
      <trkpt lat="45.55183" lon="6.04847">
        <ele>1071</ele>
        <time>2021-06-27T10:05:13.071Z</time>
      </trkpt>
      <trkpt lat="45.55184" lon="6.04848">
        <ele>1071</ele>
        <time>2021-06-27T10:05:14.070Z</time>
      </trkpt>
      <trkpt lat="45.55184" lon="6.04848">
        <ele>1071</ele>
        <time>2021-06-27T10:05:15.070Z</time>
      </trkpt>
      <trkpt lat="45.55184" lon="6.04848">
        <ele>1072</ele>
        <time>2021-06-27T10:05:16.070Z</time>
      </trkpt>
      <trkpt lat="45.55185" lon="6.04849">
        <ele>1072</ele>
        <time>2021-06-27T10:05:17.071Z</time>
      </trkpt>
      <trkpt lat="45.55185" lon="6.04849">
        <ele>1072</ele>
        <time>2021-06-27T10:05:18.070Z</time>
      </trkpt>
      <trkpt lat="45.55185" lon="6.04848">
        <ele>1073</ele>
        <time>2021-06-27T10:05:19.071Z</time>
      </trkpt>
      <trkpt lat="45.55185" lon="6.04848">
        <ele>1073</ele>
        <time>2021-06-27T10:05:20.071Z</time>
      </trkpt>
      <trkpt lat="45.55185" lon="6.04848">
        <ele>1074</ele>
        <time>2021-06-27T10:05:21.071Z</time>
      </trkpt>
      <trkpt lat="45.55185" lon="6.04848">
        <ele>1074</ele>
        <time>2021-06-27T10:05:22.071Z</time>
      </trkpt>
      <trkpt lat="45.55185" lon="6.04848">
        <ele>1074</ele>
        <time>2021-06-27T10:05:23.071Z</time>
      </trkpt>
      <trkpt lat="45.55185" lon="6.04847">
        <ele>1074</ele>
        <time>2021-06-27T10:05:24.070Z</time>
      </trkpt>
      <trkpt lat="45.55185" lon="6.04847">
        <ele>1073</ele>
        <time>2021-06-27T10:05:25.071Z</time>
      </trkpt>
      <trkpt lat="45.55186" lon="6.04847">
        <ele>1073</ele>
        <time>2021-06-27T10:05:26.071Z</time>
      </trkpt>
      <trkpt lat="45.55186" lon="6.04846">
        <ele>1073</ele>
        <time>2021-06-27T10:05:27.070Z</time>
      </trkpt>
      <trkpt lat="45.55187" lon="6.04846">
        <ele>1073</ele>
        <time>2021-06-27T10:05:28.071Z</time>
      </trkpt>
      <trkpt lat="45.55187" lon="6.04846">
        <ele>1073</ele>
        <time>2021-06-27T10:05:29.071Z</time>
      </trkpt>
      <trkpt lat="45.55187" lon="6.04846">
        <ele>1073</ele>
        <time>2021-06-27T10:05:30.071Z</time>
      </trkpt>
      <trkpt lat="45.55187" lon="6.04846">
        <ele>1073</ele>
        <time>2021-06-27T10:05:31.071Z</time>
      </trkpt>
      <trkpt lat="45.55187" lon="6.04845">
        <ele>1073</ele>
        <time>2021-06-27T10:05:32.070Z</time>
      </trkpt>
      <trkpt lat="45.55187" lon="6.04845">
        <ele>1072</ele>
        <time>2021-06-27T10:05:33.071Z</time>
      </trkpt>
      <trkpt lat="45.55187" lon="6.04845">
        <ele>1072</ele>
        <time>2021-06-27T10:05:34.071Z</time>
      </trkpt>
      <trkpt lat="45.55187" lon="6.04844">
        <ele>1071</ele>
        <time>2021-06-27T10:05:35.071Z</time>
      </trkpt>
      <trkpt lat="45.55186" lon="6.04844">
        <ele>1070</ele>
        <time>2021-06-27T10:05:36.070Z</time>
      </trkpt>
      <trkpt lat="45.55186" lon="6.04844">
        <ele>1069</ele>
        <time>2021-06-27T10:05:37.071Z</time>
      </trkpt>
      <trkpt lat="45.55185" lon="6.04844">
        <ele>1069</ele>
        <time>2021-06-27T10:05:38.070Z</time>
      </trkpt>
      <trkpt lat="45.55185" lon="6.04845">
        <ele>1068</ele>
        <time>2021-06-27T10:05:39.071Z</time>
      </trkpt>
      <trkpt lat="45.55185" lon="6.04844">
        <ele>1067</ele>
        <time>2021-06-27T10:05:40.071Z</time>
      </trkpt>
      <trkpt lat="45.55185" lon="6.04843">
        <ele>1067</ele>
        <time>2021-06-27T10:05:41.071Z</time>
      </trkpt>
      <trkpt lat="45.55185" lon="6.04842">
        <ele>1068</ele>
        <time>2021-06-27T10:05:42.071Z</time>
      </trkpt>
      <trkpt lat="45.55185" lon="6.04843">
        <ele>1069</ele>
        <time>2021-06-27T10:05:43.071Z</time>
      </trkpt>
      <trkpt lat="45.55186" lon="6.04843">
        <ele>1069</ele>
        <time>2021-06-27T10:05:44.071Z</time>
      </trkpt>
      <trkpt lat="45.55185" lon="6.04843">
        <ele>1069</ele>
        <time>2021-06-27T10:05:45.071Z</time>
      </trkpt>
      <trkpt lat="45.55185" lon="6.04843">
        <ele>1069</ele>
        <time>2021-06-27T10:05:46.070Z</time>
      </trkpt>
      <trkpt lat="45.55185" lon="6.04843">
        <ele>1069</ele>
        <time>2021-06-27T10:05:47.071Z</time>
      </trkpt>
      <trkpt lat="45.55185" lon="6.04843">
        <ele>1070</ele>
        <time>2021-06-27T10:05:48.071Z</time>
      </trkpt>
      <trkpt lat="45.55185" lon="6.04843">
        <ele>1070</ele>
        <time>2021-06-27T10:05:49.071Z</time>
      </trkpt>
      <trkpt lat="45.55184" lon="6.04843">
        <ele>1071</ele>
        <time>2021-06-27T10:05:50.070Z</time>
      </trkpt>
      <trkpt lat="45.55184" lon="6.04843">
        <ele>1071</ele>
        <time>2021-06-27T10:05:51.071Z</time>
      </trkpt>
      <trkpt lat="45.55184" lon="6.04843">
        <ele>1071</ele>
        <time>2021-06-27T10:05:52.071Z</time>
      </trkpt>
      <trkpt lat="45.55184" lon="6.04843">
        <ele>1072</ele>
        <time>2021-06-27T10:05:53.071Z</time>
      </trkpt>
      <trkpt lat="45.55184" lon="6.04843">
        <ele>1073</ele>
        <time>2021-06-27T10:05:54.071Z</time>
      </trkpt>
      <trkpt lat="45.55183" lon="6.04843">
        <ele>1074</ele>
        <time>2021-06-27T10:05:55.071Z</time>
      </trkpt>
      <trkpt lat="45.55184" lon="6.04843">
        <ele>1074</ele>
        <time>2021-06-27T10:05:56.071Z</time>
      </trkpt>
      <trkpt lat="45.55183" lon="6.04842">
        <ele>1075</ele>
        <time>2021-06-27T10:05:57.071Z</time>
      </trkpt>
      <trkpt lat="45.55183" lon="6.04842">
        <ele>1076</ele>
        <time>2021-06-27T10:05:58.071Z</time>
      </trkpt>
      <trkpt lat="45.55182" lon="6.04841">
        <ele>1077</ele>
        <time>2021-06-27T10:05:59.071Z</time>
      </trkpt>
      <trkpt lat="45.55182" lon="6.0484">
        <ele>1078</ele>
        <time>2021-06-27T10:06:00.071Z</time>
      </trkpt>
      <trkpt lat="45.55183" lon="6.04841">
        <ele>1079</ele>
        <time>2021-06-27T10:06:01.071Z</time>
      </trkpt>
      <trkpt lat="45.55183" lon="6.0484">
        <ele>1080</ele>
        <time>2021-06-27T10:06:02.071Z</time>
      </trkpt>
      <trkpt lat="45.55183" lon="6.04841">
        <ele>1080</ele>
        <time>2021-06-27T10:06:03.071Z</time>
      </trkpt>
      <trkpt lat="45.55183" lon="6.04842">
        <ele>1081</ele>
        <time>2021-06-27T10:06:04.071Z</time>
      </trkpt>
      <trkpt lat="45.55184" lon="6.04843">
        <ele>1081</ele>
        <time>2021-06-27T10:06:05.071Z</time>
      </trkpt>
      <trkpt lat="45.55184" lon="6.04843">
        <ele>1081</ele>
        <time>2021-06-27T10:06:06.071Z</time>
      </trkpt>
      <trkpt lat="45.55184" lon="6.04844">
        <ele>1081</ele>
        <time>2021-06-27T10:06:07.071Z</time>
      </trkpt>
      <trkpt lat="45.55184" lon="6.04845">
        <ele>1081</ele>
        <time>2021-06-27T10:06:08.071Z</time>
      </trkpt>
      <trkpt lat="45.55184" lon="6.04845">
        <ele>1081</ele>
        <time>2021-06-27T10:06:09.071Z</time>
      </trkpt>
      <trkpt lat="45.55184" lon="6.04845">
        <ele>1081</ele>
        <time>2021-06-27T10:06:10.071Z</time>
      </trkpt>
      <trkpt lat="45.55185" lon="6.04846">
        <ele>1081</ele>
        <time>2021-06-27T10:06:11.071Z</time>
      </trkpt>
      <trkpt lat="45.55185" lon="6.04846">
        <ele>1081</ele>
        <time>2021-06-27T10:06:12.071Z</time>
      </trkpt>
      <trkpt lat="45.55185" lon="6.04846">
        <ele>1081</ele>
        <time>2021-06-27T10:06:13.071Z</time>
      </trkpt>
      <trkpt lat="45.55186" lon="6.04848">
        <ele>1082</ele>
        <time>2021-06-27T10:06:14.070Z</time>
      </trkpt>
      <trkpt lat="45.55187" lon="6.04849">
        <ele>1082</ele>
        <time>2021-06-27T10:06:15.070Z</time>
      </trkpt>
      <trkpt lat="45.55187" lon="6.04849">
        <ele>1082</ele>
        <time>2021-06-27T10:06:16.071Z</time>
      </trkpt>
      <trkpt lat="45.55188" lon="6.04849">
        <ele>1082</ele>
        <time>2021-06-27T10:06:17.071Z</time>
      </trkpt>
      <trkpt lat="45.55188" lon="6.04848">
        <ele>1082</ele>
        <time>2021-06-27T10:06:18.071Z</time>
      </trkpt>
      <trkpt lat="45.55189" lon="6.04849">
        <ele>1082</ele>
        <time>2021-06-27T10:06:19.070Z</time>
      </trkpt>
      <trkpt lat="45.55189" lon="6.04849">
        <ele>1082</ele>
        <time>2021-06-27T10:06:20.071Z</time>
      </trkpt>
      <trkpt lat="45.5519" lon="6.04849">
        <ele>1081</ele>
        <time>2021-06-27T10:06:21.071Z</time>
      </trkpt>
      <trkpt lat="45.55191" lon="6.04849">
        <ele>1081</ele>
        <time>2021-06-27T10:06:22.071Z</time>
      </trkpt>
      <trkpt lat="45.55192" lon="6.04849">
        <ele>1081</ele>
        <time>2021-06-27T10:06:23.071Z</time>
      </trkpt>
      <trkpt lat="45.55192" lon="6.04849">
        <ele>1081</ele>
        <time>2021-06-27T10:06:24.071Z</time>
      </trkpt>
      <trkpt lat="45.55193" lon="6.0485">
        <ele>1082</ele>
        <time>2021-06-27T10:06:25.071Z</time>
      </trkpt>
      <trkpt lat="45.55193" lon="6.0485">
        <ele>1082</ele>
        <time>2021-06-27T10:06:26.070Z</time>
      </trkpt>
      <trkpt lat="45.55193" lon="6.0485">
        <ele>1082</ele>
        <time>2021-06-27T10:06:27.070Z</time>
      </trkpt>
      <trkpt lat="45.55193" lon="6.0485">
        <ele>1082</ele>
        <time>2021-06-27T10:06:28.071Z</time>
      </trkpt>
      <trkpt lat="45.55193" lon="6.04848">
        <ele>1082</ele>
        <time>2021-06-27T10:06:29.070Z</time>
      </trkpt>
      <trkpt lat="45.55193" lon="6.04848">
        <ele>1082</ele>
        <time>2021-06-27T10:06:30.071Z</time>
      </trkpt>
      <trkpt lat="45.55192" lon="6.04848">
        <ele>1082</ele>
        <time>2021-06-27T10:06:31.070Z</time>
      </trkpt>
      <trkpt lat="45.55192" lon="6.04848">
        <ele>1082</ele>
        <time>2021-06-27T10:06:32.071Z</time>
      </trkpt>
      <trkpt lat="45.55192" lon="6.04848">
        <ele>1083</ele>
        <time>2021-06-27T10:06:33.071Z</time>
      </trkpt>
      <trkpt lat="45.55192" lon="6.04848">
        <ele>1083</ele>
        <time>2021-06-27T10:06:34.070Z</time>
      </trkpt>
      <trkpt lat="45.55192" lon="6.04848">
        <ele>1083</ele>
        <time>2021-06-27T10:06:35.071Z</time>
      </trkpt>
      <trkpt lat="45.55193" lon="6.04848">
        <ele>1083</ele>
        <time>2021-06-27T10:06:36.071Z</time>
      </trkpt>
      <trkpt lat="45.55192" lon="6.04846">
        <ele>1083</ele>
        <time>2021-06-27T10:06:37.070Z</time>
      </trkpt>
      <trkpt lat="45.55191" lon="6.04844">
        <ele>1083</ele>
        <time>2021-06-27T10:06:38.070Z</time>
      </trkpt>
      <trkpt lat="45.5519" lon="6.04845">
        <ele>1082</ele>
        <time>2021-06-27T10:06:39.071Z</time>
      </trkpt>
      <trkpt lat="45.55189" lon="6.04847">
        <ele>1081</ele>
        <time>2021-06-27T10:06:40.071Z</time>
      </trkpt>
      <trkpt lat="45.55189" lon="6.04847">
        <ele>1081</ele>
        <time>2021-06-27T10:06:41.071Z</time>
      </trkpt>
      <trkpt lat="45.55189" lon="6.04846">
        <ele>1080</ele>
        <time>2021-06-27T10:06:42.071Z</time>
      </trkpt>
      <trkpt lat="45.55189" lon="6.04847">
        <ele>1080</ele>
        <time>2021-06-27T10:06:43.071Z</time>
      </trkpt>
      <trkpt lat="45.55188" lon="6.04847">
        <ele>1080</ele>
        <time>2021-06-27T10:06:44.071Z</time>
      </trkpt>
      <trkpt lat="45.55187" lon="6.04846">
        <ele>1081</ele>
        <time>2021-06-27T10:06:45.071Z</time>
      </trkpt>
      <trkpt lat="45.55187" lon="6.04845">
        <ele>1081</ele>
        <time>2021-06-27T10:06:46.071Z</time>
      </trkpt>
      <trkpt lat="45.55187" lon="6.04845">
        <ele>1081</ele>
        <time>2021-06-27T10:06:47.071Z</time>
      </trkpt>
      <trkpt lat="45.55187" lon="6.04845">
        <ele>1081</ele>
        <time>2021-06-27T10:06:48.070Z</time>
      </trkpt>
      <trkpt lat="45.55187" lon="6.04845">
        <ele>1081</ele>
        <time>2021-06-27T10:06:49.071Z</time>
      </trkpt>
      <trkpt lat="45.55187" lon="6.04846">
        <ele>1082</ele>
        <time>2021-06-27T10:06:50.071Z</time>
      </trkpt>
      <trkpt lat="45.55188" lon="6.04847">
        <ele>1082</ele>
        <time>2021-06-27T10:06:51.071Z</time>
      </trkpt>
      <trkpt lat="45.55189" lon="6.04848">
        <ele>1082</ele>
        <time>2021-06-27T10:06:52.071Z</time>
      </trkpt>
      <trkpt lat="45.55189" lon="6.04849">
        <ele>1083</ele>
        <time>2021-06-27T10:06:53.071Z</time>
      </trkpt>
      <trkpt lat="45.55189" lon="6.04849">
        <ele>1083</ele>
        <time>2021-06-27T10:06:54.071Z</time>
      </trkpt>
      <trkpt lat="45.5519" lon="6.04849">
        <ele>1084</ele>
        <time>2021-06-27T10:06:55.071Z</time>
      </trkpt>
      <trkpt lat="45.55189" lon="6.04849">
        <ele>1084</ele>
        <time>2021-06-27T10:06:56.071Z</time>
      </trkpt>
      <trkpt lat="45.55189" lon="6.0485">
        <ele>1085</ele>
        <time>2021-06-27T10:06:57.071Z</time>
      </trkpt>
      <trkpt lat="45.5519" lon="6.0485">
        <ele>1085</ele>
        <time>2021-06-27T10:06:58.071Z</time>
      </trkpt>
      <trkpt lat="45.5519" lon="6.0485">
        <ele>1086</ele>
        <time>2021-06-27T10:06:59.071Z</time>
      </trkpt>
      <trkpt lat="45.5519" lon="6.04851">
        <ele>1086</ele>
        <time>2021-06-27T10:07:00.071Z</time>
      </trkpt>
      <trkpt lat="45.5519" lon="6.04851">
        <ele>1086</ele>
        <time>2021-06-27T10:07:01.070Z</time>
      </trkpt>
      <trkpt lat="45.5519" lon="6.04851">
        <ele>1086</ele>
        <time>2021-06-27T10:07:02.071Z</time>
      </trkpt>
      <trkpt lat="45.5519" lon="6.0485">
        <ele>1087</ele>
        <time>2021-06-27T10:07:03.071Z</time>
      </trkpt>
      <trkpt lat="45.5519" lon="6.04848">
        <ele>1087</ele>
        <time>2021-06-27T10:07:04.071Z</time>
      </trkpt>
      <trkpt lat="45.5519" lon="6.04846">
        <ele>1087</ele>
        <time>2021-06-27T10:07:05.070Z</time>
      </trkpt>
      <trkpt lat="45.55191" lon="6.04846">
        <ele>1087</ele>
        <time>2021-06-27T10:07:06.071Z</time>
      </trkpt>
      <trkpt lat="45.55192" lon="6.04847">
        <ele>1088</ele>
        <time>2021-06-27T10:07:07.070Z</time>
      </trkpt>
      <trkpt lat="45.55193" lon="6.04849">
        <ele>1088</ele>
        <time>2021-06-27T10:07:08.070Z</time>
      </trkpt>
      <trkpt lat="45.55192" lon="6.04849">
        <ele>1088</ele>
        <time>2021-06-27T10:07:09.071Z</time>
      </trkpt>
      <trkpt lat="45.55192" lon="6.04848">
        <ele>1088</ele>
        <time>2021-06-27T10:07:10.070Z</time>
      </trkpt>
      <trkpt lat="45.55192" lon="6.04848">
        <ele>1088</ele>
        <time>2021-06-27T10:07:11.071Z</time>
      </trkpt>
      <trkpt lat="45.5519" lon="6.04849">
        <ele>1088</ele>
        <time>2021-06-27T10:07:12.071Z</time>
      </trkpt>
      <trkpt lat="45.5519" lon="6.04851">
        <ele>1088</ele>
        <time>2021-06-27T10:07:13.071Z</time>
      </trkpt>
      <trkpt lat="45.5519" lon="6.04852">
        <ele>1088</ele>
        <time>2021-06-27T10:07:14.070Z</time>
      </trkpt>
      <trkpt lat="45.5519" lon="6.04852">
        <ele>1088</ele>
        <time>2021-06-27T10:07:15.071Z</time>
      </trkpt>
      <trkpt lat="45.55191" lon="6.04852">
        <ele>1088</ele>
        <time>2021-06-27T10:07:16.071Z</time>
      </trkpt>
      <trkpt lat="45.55191" lon="6.04853">
        <ele>1089</ele>
        <time>2021-06-27T10:07:17.071Z</time>
      </trkpt>
      <trkpt lat="45.55191" lon="6.04853">
        <ele>1089</ele>
        <time>2021-06-27T10:07:18.071Z</time>
      </trkpt>
      <trkpt lat="45.55191" lon="6.04853">
        <ele>1089</ele>
        <time>2021-06-27T10:07:19.071Z</time>
      </trkpt>
      <trkpt lat="45.55191" lon="6.04852">
        <ele>1088</ele>
        <time>2021-06-27T10:07:20.071Z</time>
      </trkpt>
      <trkpt lat="45.55192" lon="6.0485">
        <ele>1087</ele>
        <time>2021-06-27T10:07:21.071Z</time>
      </trkpt>
      <trkpt lat="45.55193" lon="6.04849">
        <ele>1086</ele>
        <time>2021-06-27T10:07:22.071Z</time>
      </trkpt>
      <trkpt lat="45.55193" lon="6.04848">
        <ele>1085</ele>
        <time>2021-06-27T10:07:23.071Z</time>
      </trkpt>
      <trkpt lat="45.55193" lon="6.04849">
        <ele>1085</ele>
        <time>2021-06-27T10:07:24.071Z</time>
      </trkpt>
      <trkpt lat="45.55193" lon="6.04849">
        <ele>1084</ele>
        <time>2021-06-27T10:07:25.070Z</time>
      </trkpt>
      <trkpt lat="45.55194" lon="6.0485">
        <ele>1084</ele>
        <time>2021-06-27T10:07:26.071Z</time>
      </trkpt>
      <trkpt lat="45.55195" lon="6.0485">
        <ele>1084</ele>
        <time>2021-06-27T10:07:27.071Z</time>
      </trkpt>
      <trkpt lat="45.55196" lon="6.0485">
        <ele>1083</ele>
        <time>2021-06-27T10:07:28.071Z</time>
      </trkpt>
      <trkpt lat="45.55196" lon="6.0485">
        <ele>1083</ele>
        <time>2021-06-27T10:07:29.071Z</time>
      </trkpt>
      <trkpt lat="45.55196" lon="6.0485">
        <ele>1082</ele>
        <time>2021-06-27T10:07:30.070Z</time>
      </trkpt>
      <trkpt lat="45.55197" lon="6.04849">
        <ele>1082</ele>
        <time>2021-06-27T10:07:31.071Z</time>
      </trkpt>
      <trkpt lat="45.55197" lon="6.04848">
        <ele>1082</ele>
        <time>2021-06-27T10:07:32.071Z</time>
      </trkpt>
      <trkpt lat="45.55198" lon="6.04846">
        <ele>1082</ele>
        <time>2021-06-27T10:07:33.070Z</time>
      </trkpt>
      <trkpt lat="45.55198" lon="6.04845">
        <ele>1082</ele>
        <time>2021-06-27T10:07:34.070Z</time>
      </trkpt>
      <trkpt lat="45.55199" lon="6.04843">
        <ele>1082</ele>
        <time>2021-06-27T10:07:35.071Z</time>
      </trkpt>
      <trkpt lat="45.55199" lon="6.04842">
        <ele>1083</ele>
        <time>2021-06-27T10:07:36.071Z</time>
      </trkpt>
      <trkpt lat="45.55201" lon="6.04841">
        <ele>1083</ele>
        <time>2021-06-27T10:07:37.071Z</time>
      </trkpt>
      <trkpt lat="45.55202" lon="6.04841">
        <ele>1083</ele>
        <time>2021-06-27T10:07:38.070Z</time>
      </trkpt>
      <trkpt lat="45.55203" lon="6.0484">
        <ele>1084</ele>
        <time>2021-06-27T10:07:39.071Z</time>
      </trkpt>
      <trkpt lat="45.55204" lon="6.0484">
        <ele>1084</ele>
        <time>2021-06-27T10:07:40.070Z</time>
      </trkpt>
      <trkpt lat="45.55205" lon="6.04839">
        <ele>1084</ele>
        <time>2021-06-27T10:07:41.071Z</time>
      </trkpt>
      <trkpt lat="45.55206" lon="6.04839">
        <ele>1084</ele>
        <time>2021-06-27T10:07:42.071Z</time>
      </trkpt>
      <trkpt lat="45.55206" lon="6.04838">
        <ele>1084</ele>
        <time>2021-06-27T10:07:43.071Z</time>
      </trkpt>
      <trkpt lat="45.55206" lon="6.04838">
        <ele>1084</ele>
        <time>2021-06-27T10:07:44.071Z</time>
      </trkpt>
      <trkpt lat="45.55208" lon="6.04838">
        <ele>1083</ele>
        <time>2021-06-27T10:07:45.071Z</time>
      </trkpt>
      <trkpt lat="45.55209" lon="6.04837">
        <ele>1083</ele>
        <time>2021-06-27T10:07:46.071Z</time>
      </trkpt>
      <trkpt lat="45.55211" lon="6.04837">
        <ele>1083</ele>
        <time>2021-06-27T10:07:47.071Z</time>
      </trkpt>
      <trkpt lat="45.55212" lon="6.04837">
        <ele>1082</ele>
        <time>2021-06-27T10:07:48.071Z</time>
      </trkpt>
      <trkpt lat="45.55213" lon="6.04836">
        <ele>1082</ele>
        <time>2021-06-27T10:07:49.071Z</time>
      </trkpt>
      <trkpt lat="45.55214" lon="6.04835">
        <ele>1083</ele>
        <time>2021-06-27T10:07:50.071Z</time>
      </trkpt>
      <trkpt lat="45.55214" lon="6.04834">
        <ele>1083</ele>
        <time>2021-06-27T10:07:51.070Z</time>
      </trkpt>
      <trkpt lat="45.55214" lon="6.04833">
        <ele>1083</ele>
        <time>2021-06-27T10:07:52.071Z</time>
      </trkpt>
      <trkpt lat="45.55215" lon="6.04832">
        <ele>1084</ele>
        <time>2021-06-27T10:07:53.071Z</time>
      </trkpt>
      <trkpt lat="45.55215" lon="6.04832">
        <ele>1084</ele>
        <time>2021-06-27T10:07:54.070Z</time>
      </trkpt>
      <trkpt lat="45.55215" lon="6.04832">
        <ele>1084</ele>
        <time>2021-06-27T10:07:55.071Z</time>
      </trkpt>
      <trkpt lat="45.55215" lon="6.04832">
        <ele>1085</ele>
        <time>2021-06-27T10:07:56.071Z</time>
      </trkpt>
      <trkpt lat="45.55216" lon="6.04831">
        <ele>1085</ele>
        <time>2021-06-27T10:07:57.071Z</time>
      </trkpt>
      <trkpt lat="45.55217" lon="6.0483">
        <ele>1085</ele>
        <time>2021-06-27T10:07:58.070Z</time>
      </trkpt>
      <trkpt lat="45.55218" lon="6.0483">
        <ele>1086</ele>
        <time>2021-06-27T10:07:59.071Z</time>
      </trkpt>
      <trkpt lat="45.5522" lon="6.0483">
        <ele>1086</ele>
        <time>2021-06-27T10:08:00.071Z</time>
      </trkpt>
      <trkpt lat="45.55221" lon="6.0483">
        <ele>1086</ele>
        <time>2021-06-27T10:08:01.071Z</time>
      </trkpt>
      <trkpt lat="45.55223" lon="6.0483">
        <ele>1086</ele>
        <time>2021-06-27T10:08:02.071Z</time>
      </trkpt>
      <trkpt lat="45.55224" lon="6.0483">
        <ele>1086</ele>
        <time>2021-06-27T10:08:03.071Z</time>
      </trkpt>
      <trkpt lat="45.55225" lon="6.0483">
        <ele>1086</ele>
        <time>2021-06-27T10:08:04.071Z</time>
      </trkpt>
      <trkpt lat="45.55226" lon="6.0483">
        <ele>1085</ele>
        <time>2021-06-27T10:08:05.071Z</time>
      </trkpt>
      <trkpt lat="45.55228" lon="6.0483">
        <ele>1085</ele>
        <time>2021-06-27T10:08:06.070Z</time>
      </trkpt>
      <trkpt lat="45.5523" lon="6.0483">
        <ele>1085</ele>
        <time>2021-06-27T10:08:07.071Z</time>
      </trkpt>
      <trkpt lat="45.55232" lon="6.04831">
        <ele>1085</ele>
        <time>2021-06-27T10:08:08.071Z</time>
      </trkpt>
      <trkpt lat="45.55233" lon="6.04831">
        <ele>1085</ele>
        <time>2021-06-27T10:08:09.070Z</time>
      </trkpt>
      <trkpt lat="45.55235" lon="6.04831">
        <ele>1085</ele>
        <time>2021-06-27T10:08:10.071Z</time>
      </trkpt>
      <trkpt lat="45.55236" lon="6.04831">
        <ele>1085</ele>
        <time>2021-06-27T10:08:11.071Z</time>
      </trkpt>
      <trkpt lat="45.55237" lon="6.0483">
        <ele>1086</ele>
        <time>2021-06-27T10:08:12.071Z</time>
      </trkpt>
      <trkpt lat="45.55237" lon="6.04829">
        <ele>1086</ele>
        <time>2021-06-27T10:08:13.070Z</time>
      </trkpt>
      <trkpt lat="45.55238" lon="6.04828">
        <ele>1086</ele>
        <time>2021-06-27T10:08:14.071Z</time>
      </trkpt>
      <trkpt lat="45.55238" lon="6.04827">
        <ele>1086</ele>
        <time>2021-06-27T10:08:15.071Z</time>
      </trkpt>
      <trkpt lat="45.55238" lon="6.04826">
        <ele>1087</ele>
        <time>2021-06-27T10:08:16.071Z</time>
      </trkpt>
      <trkpt lat="45.55239" lon="6.04825">
        <ele>1087</ele>
        <time>2021-06-27T10:08:17.071Z</time>
      </trkpt>
      <trkpt lat="45.55239" lon="6.04823">
        <ele>1088</ele>
        <time>2021-06-27T10:08:18.071Z</time>
      </trkpt>
      <trkpt lat="45.5524" lon="6.04822">
        <ele>1088</ele>
        <time>2021-06-27T10:08:19.071Z</time>
      </trkpt>
      <trkpt lat="45.55241" lon="6.04821">
        <ele>1089</ele>
        <time>2021-06-27T10:08:20.071Z</time>
      </trkpt>
      <trkpt lat="45.55242" lon="6.0482">
        <ele>1089</ele>
        <time>2021-06-27T10:08:21.071Z</time>
      </trkpt>
      <trkpt lat="45.55242" lon="6.04818">
        <ele>1089</ele>
        <time>2021-06-27T10:08:22.071Z</time>
      </trkpt>
      <trkpt lat="45.55243" lon="6.04818">
        <ele>1090</ele>
        <time>2021-06-27T10:08:23.070Z</time>
      </trkpt>
      <trkpt lat="45.55244" lon="6.04817">
        <ele>1091</ele>
        <time>2021-06-27T10:08:24.071Z</time>
      </trkpt>
      <trkpt lat="45.55245" lon="6.04816">
        <ele>1092</ele>
        <time>2021-06-27T10:08:25.071Z</time>
      </trkpt>
      <trkpt lat="45.55246" lon="6.04816">
        <ele>1092</ele>
        <time>2021-06-27T10:08:26.071Z</time>
      </trkpt>
      <trkpt lat="45.55247" lon="6.04816">
        <ele>1093</ele>
        <time>2021-06-27T10:08:27.071Z</time>
      </trkpt>
      <trkpt lat="45.55249" lon="6.04816">
        <ele>1093</ele>
        <time>2021-06-27T10:08:28.071Z</time>
      </trkpt>
      <trkpt lat="45.55251" lon="6.04816">
        <ele>1093</ele>
        <time>2021-06-27T10:08:29.071Z</time>
      </trkpt>
      <trkpt lat="45.55252" lon="6.04816">
        <ele>1093</ele>
        <time>2021-06-27T10:08:30.071Z</time>
      </trkpt>
      <trkpt lat="45.55254" lon="6.04816">
        <ele>1093</ele>
        <time>2021-06-27T10:08:31.070Z</time>
      </trkpt>
      <trkpt lat="45.55255" lon="6.04815">
        <ele>1093</ele>
        <time>2021-06-27T10:08:32.071Z</time>
      </trkpt>
      <trkpt lat="45.55256" lon="6.04814">
        <ele>1092</ele>
        <time>2021-06-27T10:08:33.071Z</time>
      </trkpt>
      <trkpt lat="45.55257" lon="6.04813">
        <ele>1091</ele>
        <time>2021-06-27T10:08:34.070Z</time>
      </trkpt>
      <trkpt lat="45.55258" lon="6.04813">
        <ele>1091</ele>
        <time>2021-06-27T10:08:35.071Z</time>
      </trkpt>
      <trkpt lat="45.55259" lon="6.04812">
        <ele>1090</ele>
        <time>2021-06-27T10:08:36.071Z</time>
      </trkpt>
      <trkpt lat="45.5526" lon="6.04811">
        <ele>1090</ele>
        <time>2021-06-27T10:08:37.071Z</time>
      </trkpt>
      <trkpt lat="45.55261" lon="6.04807">
        <ele>1090</ele>
        <time>2021-06-27T10:08:38.071Z</time>
      </trkpt>
      <trkpt lat="45.55261" lon="6.04804">
        <ele>1089</ele>
        <time>2021-06-27T10:08:39.071Z</time>
      </trkpt>
      <trkpt lat="45.55262" lon="6.04802">
        <ele>1089</ele>
        <time>2021-06-27T10:08:40.070Z</time>
      </trkpt>
      <trkpt lat="45.55263" lon="6.04801">
        <ele>1089</ele>
        <time>2021-06-27T10:08:41.071Z</time>
      </trkpt>
      <trkpt lat="45.55263" lon="6.04799">
        <ele>1089</ele>
        <time>2021-06-27T10:08:42.071Z</time>
      </trkpt>
      <trkpt lat="45.55264" lon="6.04798">
        <ele>1089</ele>
        <time>2021-06-27T10:08:43.071Z</time>
      </trkpt>
      <trkpt lat="45.55265" lon="6.04797">
        <ele>1089</ele>
        <time>2021-06-27T10:08:44.071Z</time>
      </trkpt>
      <trkpt lat="45.55266" lon="6.04796">
        <ele>1089</ele>
        <time>2021-06-27T10:08:45.071Z</time>
      </trkpt>
      <trkpt lat="45.55267" lon="6.04795">
        <ele>1089</ele>
        <time>2021-06-27T10:08:46.070Z</time>
      </trkpt>
      <trkpt lat="45.55268" lon="6.04794">
        <ele>1089</ele>
        <time>2021-06-27T10:08:47.071Z</time>
      </trkpt>
      <trkpt lat="45.55269" lon="6.04793">
        <ele>1089</ele>
        <time>2021-06-27T10:08:48.071Z</time>
      </trkpt>
      <trkpt lat="45.5527" lon="6.04792">
        <ele>1088</ele>
        <time>2021-06-27T10:08:49.070Z</time>
      </trkpt>
      <trkpt lat="45.5527" lon="6.04791">
        <ele>1088</ele>
        <time>2021-06-27T10:08:50.071Z</time>
      </trkpt>
      <trkpt lat="45.55271" lon="6.0479">
        <ele>1088</ele>
        <time>2021-06-27T10:08:51.071Z</time>
      </trkpt>
      <trkpt lat="45.55272" lon="6.0479">
        <ele>1087</ele>
        <time>2021-06-27T10:08:52.070Z</time>
      </trkpt>
      <trkpt lat="45.55272" lon="6.04789">
        <ele>1086</ele>
        <time>2021-06-27T10:08:53.071Z</time>
      </trkpt>
      <trkpt lat="45.55272" lon="6.04787">
        <ele>1086</ele>
        <time>2021-06-27T10:08:54.071Z</time>
      </trkpt>
      <trkpt lat="45.55273" lon="6.04786">
        <ele>1086</ele>
        <time>2021-06-27T10:08:55.070Z</time>
      </trkpt>
      <trkpt lat="45.55275" lon="6.04785">
        <ele>1086</ele>
        <time>2021-06-27T10:08:56.070Z</time>
      </trkpt>
      <trkpt lat="45.55276" lon="6.04783">
        <ele>1086</ele>
        <time>2021-06-27T10:08:57.071Z</time>
      </trkpt>
      <trkpt lat="45.55277" lon="6.04782">
        <ele>1086</ele>
        <time>2021-06-27T10:08:58.071Z</time>
      </trkpt>
      <trkpt lat="45.55278" lon="6.04781">
        <ele>1086</ele>
        <time>2021-06-27T10:08:59.071Z</time>
      </trkpt>
      <trkpt lat="45.55279" lon="6.04779">
        <ele>1086</ele>
        <time>2021-06-27T10:09:00.071Z</time>
      </trkpt>
      <trkpt lat="45.5528" lon="6.04778">
        <ele>1086</ele>
        <time>2021-06-27T10:09:01.071Z</time>
      </trkpt>
      <trkpt lat="45.55281" lon="6.04778">
        <ele>1086</ele>
        <time>2021-06-27T10:09:02.070Z</time>
      </trkpt>
      <trkpt lat="45.55283" lon="6.04778">
        <ele>1086</ele>
        <time>2021-06-27T10:09:03.070Z</time>
      </trkpt>
      <trkpt lat="45.55283" lon="6.04778">
        <ele>1086</ele>
        <time>2021-06-27T10:09:04.071Z</time>
      </trkpt>
      <trkpt lat="45.55284" lon="6.04778">
        <ele>1086</ele>
        <time>2021-06-27T10:09:05.071Z</time>
      </trkpt>
      <trkpt lat="45.55285" lon="6.04778">
        <ele>1086</ele>
        <time>2021-06-27T10:09:06.071Z</time>
      </trkpt>
      <trkpt lat="45.55286" lon="6.04778">
        <ele>1085</ele>
        <time>2021-06-27T10:09:07.071Z</time>
      </trkpt>
      <trkpt lat="45.55287" lon="6.04778">
        <ele>1085</ele>
        <time>2021-06-27T10:09:08.071Z</time>
      </trkpt>
      <trkpt lat="45.55288" lon="6.04778">
        <ele>1084</ele>
        <time>2021-06-27T10:09:09.071Z</time>
      </trkpt>
      <trkpt lat="45.5529" lon="6.04777">
        <ele>1084</ele>
        <time>2021-06-27T10:09:10.070Z</time>
      </trkpt>
      <trkpt lat="45.55291" lon="6.04777">
        <ele>1083</ele>
        <time>2021-06-27T10:09:11.071Z</time>
      </trkpt>
      <trkpt lat="45.55292" lon="6.04777">
        <ele>1082</ele>
        <time>2021-06-27T10:09:12.071Z</time>
      </trkpt>
      <trkpt lat="45.55293" lon="6.04777">
        <ele>1081</ele>
        <time>2021-06-27T10:09:13.071Z</time>
      </trkpt>
      <trkpt lat="45.55294" lon="6.04777">
        <ele>1080</ele>
        <time>2021-06-27T10:09:14.070Z</time>
      </trkpt>
      <trkpt lat="45.55295" lon="6.04777">
        <ele>1079</ele>
        <time>2021-06-27T10:09:15.071Z</time>
      </trkpt>
      <trkpt lat="45.55296" lon="6.04776">
        <ele>1078</ele>
        <time>2021-06-27T10:09:16.070Z</time>
      </trkpt>
      <trkpt lat="45.55298" lon="6.04776">
        <ele>1078</ele>
        <time>2021-06-27T10:09:17.071Z</time>
      </trkpt>
      <trkpt lat="45.55299" lon="6.04776">
        <ele>1078</ele>
        <time>2021-06-27T10:09:18.071Z</time>
      </trkpt>
      <trkpt lat="45.553" lon="6.04776">
        <ele>1078</ele>
        <time>2021-06-27T10:09:19.071Z</time>
      </trkpt>
      <trkpt lat="45.553" lon="6.04775">
        <ele>1078</ele>
        <time>2021-06-27T10:09:20.070Z</time>
      </trkpt>
      <trkpt lat="45.55302" lon="6.04774">
        <ele>1077</ele>
        <time>2021-06-27T10:09:21.071Z</time>
      </trkpt>
      <trkpt lat="45.55304" lon="6.04774">
        <ele>1077</ele>
        <time>2021-06-27T10:09:22.070Z</time>
      </trkpt>
      <trkpt lat="45.55305" lon="6.04773">
        <ele>1077</ele>
        <time>2021-06-27T10:09:23.071Z</time>
      </trkpt>
      <trkpt lat="45.55307" lon="6.04774">
        <ele>1077</ele>
        <time>2021-06-27T10:09:24.070Z</time>
      </trkpt>
      <trkpt lat="45.55308" lon="6.04773">
        <ele>1077</ele>
        <time>2021-06-27T10:09:25.071Z</time>
      </trkpt>
      <trkpt lat="45.55309" lon="6.04774">
        <ele>1077</ele>
        <time>2021-06-27T10:09:26.071Z</time>
      </trkpt>
      <trkpt lat="45.55309" lon="6.04774">
        <ele>1077</ele>
        <time>2021-06-27T10:09:27.071Z</time>
      </trkpt>
      <trkpt lat="45.5531" lon="6.04774">
        <ele>1076</ele>
        <time>2021-06-27T10:09:28.071Z</time>
      </trkpt>
      <trkpt lat="45.5531" lon="6.04773">
        <ele>1076</ele>
        <time>2021-06-27T10:09:29.070Z</time>
      </trkpt>
      <trkpt lat="45.55311" lon="6.04772">
        <ele>1076</ele>
        <time>2021-06-27T10:09:30.071Z</time>
      </trkpt>
      <trkpt lat="45.5531" lon="6.04771">
        <ele>1076</ele>
        <time>2021-06-27T10:09:31.070Z</time>
      </trkpt>
      <trkpt lat="45.5531" lon="6.0477">
        <ele>1076</ele>
        <time>2021-06-27T10:09:32.070Z</time>
      </trkpt>
      <trkpt lat="45.5531" lon="6.04769">
        <ele>1077</ele>
        <time>2021-06-27T10:09:33.071Z</time>
      </trkpt>
      <trkpt lat="45.5531" lon="6.04769">
        <ele>1077</ele>
        <time>2021-06-27T10:09:34.071Z</time>
      </trkpt>
      <trkpt lat="45.5531" lon="6.04769">
        <ele>1077</ele>
        <time>2021-06-27T10:09:35.071Z</time>
      </trkpt>
      <trkpt lat="45.5531" lon="6.04769">
        <ele>1078</ele>
        <time>2021-06-27T10:09:36.071Z</time>
      </trkpt>
      <trkpt lat="45.55311" lon="6.04769">
        <ele>1078</ele>
        <time>2021-06-27T10:09:37.071Z</time>
      </trkpt>
      <trkpt lat="45.55312" lon="6.04769">
        <ele>1078</ele>
        <time>2021-06-27T10:09:38.071Z</time>
      </trkpt>
      <trkpt lat="45.55312" lon="6.04769">
        <ele>1078</ele>
        <time>2021-06-27T10:09:39.071Z</time>
      </trkpt>
      <trkpt lat="45.55312" lon="6.04769">
        <ele>1077</ele>
        <time>2021-06-27T10:09:40.071Z</time>
      </trkpt>
      <trkpt lat="45.55312" lon="6.04769">
        <ele>1077</ele>
        <time>2021-06-27T10:09:41.070Z</time>
      </trkpt>
      <trkpt lat="45.55312" lon="6.04769">
        <ele>1077</ele>
        <time>2021-06-27T10:09:42.071Z</time>
      </trkpt>
      <trkpt lat="45.55312" lon="6.04769">
        <ele>1077</ele>
        <time>2021-06-27T10:09:43.071Z</time>
      </trkpt>
      <trkpt lat="45.55312" lon="6.0477">
        <ele>1076</ele>
        <time>2021-06-27T10:09:44.070Z</time>
      </trkpt>
      <trkpt lat="45.55313" lon="6.0477">
        <ele>1076</ele>
        <time>2021-06-27T10:09:45.071Z</time>
      </trkpt>
      <trkpt lat="45.55313" lon="6.0477">
        <ele>1076</ele>
        <time>2021-06-27T10:09:46.071Z</time>
      </trkpt>
      <trkpt lat="45.55313" lon="6.0477">
        <ele>1076</ele>
        <time>2021-06-27T10:09:47.071Z</time>
      </trkpt>
      <trkpt lat="45.55313" lon="6.0477">
        <ele>1076</ele>
        <time>2021-06-27T10:09:48.071Z</time>
      </trkpt>
      <trkpt lat="45.55313" lon="6.0477">
        <ele>1076</ele>
        <time>2021-06-27T10:09:49.070Z</time>
      </trkpt>
      <trkpt lat="45.55312" lon="6.04771">
        <ele>1076</ele>
        <time>2021-06-27T10:09:50.071Z</time>
      </trkpt>
      <trkpt lat="45.55312" lon="6.04771">
        <ele>1076</ele>
        <time>2021-06-27T10:09:51.071Z</time>
      </trkpt>
      <trkpt lat="45.55312" lon="6.04771">
        <ele>1077</ele>
        <time>2021-06-27T10:09:52.071Z</time>
      </trkpt>
      <trkpt lat="45.55313" lon="6.0477">
        <ele>1077</ele>
        <time>2021-06-27T10:09:53.071Z</time>
      </trkpt>
      <trkpt lat="45.55313" lon="6.0477">
        <ele>1078</ele>
        <time>2021-06-27T10:09:54.070Z</time>
      </trkpt>
      <trkpt lat="45.55313" lon="6.0477">
        <ele>1078</ele>
        <time>2021-06-27T10:09:55.071Z</time>
      </trkpt>
      <trkpt lat="45.55313" lon="6.0477">
        <ele>1079</ele>
        <time>2021-06-27T10:09:56.071Z</time>
      </trkpt>
      <trkpt lat="45.55313" lon="6.0477">
        <ele>1079</ele>
        <time>2021-06-27T10:09:57.070Z</time>
      </trkpt>
      <trkpt lat="45.55313" lon="6.0477">
        <ele>1078</ele>
        <time>2021-06-27T10:09:58.070Z</time>
      </trkpt>
      <trkpt lat="45.55313" lon="6.0477">
        <ele>1078</ele>
        <time>2021-06-27T10:09:59.071Z</time>
      </trkpt>
      <trkpt lat="45.55313" lon="6.04771">
        <ele>1077</ele>
        <time>2021-06-27T10:10:00.071Z</time>
      </trkpt>
      <trkpt lat="45.55314" lon="6.04772">
        <ele>1077</ele>
        <time>2021-06-27T10:10:01.070Z</time>
      </trkpt>
      <trkpt lat="45.55314" lon="6.04772">
        <ele>1076</ele>
        <time>2021-06-27T10:10:02.070Z</time>
      </trkpt>
      <trkpt lat="45.55313" lon="6.04772">
        <ele>1075</ele>
        <time>2021-06-27T10:10:03.071Z</time>
      </trkpt>
      <trkpt lat="45.55313" lon="6.04772">
        <ele>1074</ele>
        <time>2021-06-27T10:10:04.071Z</time>
      </trkpt>
      <trkpt lat="45.55313" lon="6.04773">
        <ele>1073</ele>
        <time>2021-06-27T10:10:05.071Z</time>
      </trkpt>
      <trkpt lat="45.55314" lon="6.04772">
        <ele>1072</ele>
        <time>2021-06-27T10:10:06.071Z</time>
      </trkpt>
      <trkpt lat="45.55314" lon="6.04773">
        <ele>1072</ele>
        <time>2021-06-27T10:10:07.070Z</time>
      </trkpt>
      <trkpt lat="45.55314" lon="6.04772">
        <ele>1071</ele>
        <time>2021-06-27T10:10:08.070Z</time>
      </trkpt>
      <trkpt lat="45.55315" lon="6.04772">
        <ele>1071</ele>
        <time>2021-06-27T10:10:09.070Z</time>
      </trkpt>
      <trkpt lat="45.55316" lon="6.04772">
        <ele>1071</ele>
        <time>2021-06-27T10:10:10.071Z</time>
      </trkpt>
      <trkpt lat="45.55316" lon="6.04772">
        <ele>1071</ele>
        <time>2021-06-27T10:10:11.071Z</time>
      </trkpt>
      <trkpt lat="45.55317" lon="6.04772">
        <ele>1071</ele>
        <time>2021-06-27T10:10:12.070Z</time>
      </trkpt>
      <trkpt lat="45.55317" lon="6.04772">
        <ele>1071</ele>
        <time>2021-06-27T10:10:13.071Z</time>
      </trkpt>
      <trkpt lat="45.55318" lon="6.04772">
        <ele>1071</ele>
        <time>2021-06-27T10:10:14.071Z</time>
      </trkpt>
      <trkpt lat="45.5532" lon="6.04773">
        <ele>1071</ele>
        <time>2021-06-27T10:10:15.071Z</time>
      </trkpt>
      <trkpt lat="45.5532" lon="6.04772">
        <ele>1071</ele>
        <time>2021-06-27T10:10:16.071Z</time>
      </trkpt>
      <trkpt lat="45.55321" lon="6.04772">
        <ele>1071</ele>
        <time>2021-06-27T10:10:17.071Z</time>
      </trkpt>
      <trkpt lat="45.55322" lon="6.04771">
        <ele>1070</ele>
        <time>2021-06-27T10:10:18.071Z</time>
      </trkpt>
      <trkpt lat="45.55323" lon="6.04771">
        <ele>1070</ele>
        <time>2021-06-27T10:10:19.071Z</time>
      </trkpt>
      <trkpt lat="45.55325" lon="6.0477">
        <ele>1070</ele>
        <time>2021-06-27T10:10:20.070Z</time>
      </trkpt>
      <trkpt lat="45.55325" lon="6.0477">
        <ele>1070</ele>
        <time>2021-06-27T10:10:21.071Z</time>
      </trkpt>
      <trkpt lat="45.55326" lon="6.04769">
        <ele>1070</ele>
        <time>2021-06-27T10:10:22.071Z</time>
      </trkpt>
      <trkpt lat="45.55327" lon="6.04769">
        <ele>1070</ele>
        <time>2021-06-27T10:10:23.071Z</time>
      </trkpt>
      <trkpt lat="45.55328" lon="6.04769">
        <ele>1070</ele>
        <time>2021-06-27T10:10:24.071Z</time>
      </trkpt>
      <trkpt lat="45.55328" lon="6.04769">
        <ele>1070</ele>
        <time>2021-06-27T10:10:25.070Z</time>
      </trkpt>
      <trkpt lat="45.55329" lon="6.04769">
        <ele>1070</ele>
        <time>2021-06-27T10:10:26.071Z</time>
      </trkpt>
      <trkpt lat="45.5533" lon="6.04768">
        <ele>1070</ele>
        <time>2021-06-27T10:10:27.071Z</time>
      </trkpt>
      <trkpt lat="45.55331" lon="6.04768">
        <ele>1070</ele>
        <time>2021-06-27T10:10:28.070Z</time>
      </trkpt>
      <trkpt lat="45.55332" lon="6.04768">
        <ele>1070</ele>
        <time>2021-06-27T10:10:29.071Z</time>
      </trkpt>
      <trkpt lat="45.55333" lon="6.04768">
        <ele>1069</ele>
        <time>2021-06-27T10:10:30.071Z</time>
      </trkpt>
      <trkpt lat="45.55334" lon="6.04768">
        <ele>1069</ele>
        <time>2021-06-27T10:10:31.071Z</time>
      </trkpt>
      <trkpt lat="45.55335" lon="6.04767">
        <ele>1069</ele>
        <time>2021-06-27T10:10:32.071Z</time>
      </trkpt>
      <trkpt lat="45.55336" lon="6.04767">
        <ele>1069</ele>
        <time>2021-06-27T10:10:33.071Z</time>
      </trkpt>
      <trkpt lat="45.55337" lon="6.04767">
        <ele>1069</ele>
        <time>2021-06-27T10:10:34.071Z</time>
      </trkpt>
      <trkpt lat="45.55338" lon="6.04767">
        <ele>1069</ele>
        <time>2021-06-27T10:10:35.071Z</time>
      </trkpt>
      <trkpt lat="45.55339" lon="6.04767">
        <ele>1069</ele>
        <time>2021-06-27T10:10:36.071Z</time>
      </trkpt>
      <trkpt lat="45.5534" lon="6.04767">
        <ele>1069</ele>
        <time>2021-06-27T10:10:37.071Z</time>
      </trkpt>
      <trkpt lat="45.55341" lon="6.04766">
        <ele>1070</ele>
        <time>2021-06-27T10:10:38.070Z</time>
      </trkpt>
      <trkpt lat="45.55341" lon="6.04766">
        <ele>1070</ele>
        <time>2021-06-27T10:10:39.071Z</time>
      </trkpt>
      <trkpt lat="45.55341" lon="6.04766">
        <ele>1070</ele>
        <time>2021-06-27T10:10:40.070Z</time>
      </trkpt>
      <trkpt lat="45.55342" lon="6.04765">
        <ele>1070</ele>
        <time>2021-06-27T10:10:41.071Z</time>
      </trkpt>
      <trkpt lat="45.55343" lon="6.04765">
        <ele>1070</ele>
        <time>2021-06-27T10:10:42.071Z</time>
      </trkpt>
      <trkpt lat="45.55344" lon="6.04765">
        <ele>1069</ele>
        <time>2021-06-27T10:10:43.071Z</time>
      </trkpt>
      <trkpt lat="45.55345" lon="6.04764">
        <ele>1069</ele>
        <time>2021-06-27T10:10:44.071Z</time>
      </trkpt>
      <trkpt lat="45.55345" lon="6.04764">
        <ele>1069</ele>
        <time>2021-06-27T10:10:45.071Z</time>
      </trkpt>
      <trkpt lat="45.55346" lon="6.04763">
        <ele>1070</ele>
        <time>2021-06-27T10:10:46.071Z</time>
      </trkpt>
      <trkpt lat="45.55347" lon="6.04763">
        <ele>1070</ele>
        <time>2021-06-27T10:10:47.071Z</time>
      </trkpt>
      <trkpt lat="45.55348" lon="6.0476">
        <ele>1071</ele>
        <time>2021-06-27T10:10:48.070Z</time>
      </trkpt>
      <trkpt lat="45.55349" lon="6.04759">
        <ele>1071</ele>
        <time>2021-06-27T10:10:49.071Z</time>
      </trkpt>
      <trkpt lat="45.5535" lon="6.04758">
        <ele>1071</ele>
        <time>2021-06-27T10:10:50.071Z</time>
      </trkpt>
      <trkpt lat="45.55351" lon="6.04757">
        <ele>1071</ele>
        <time>2021-06-27T10:10:51.071Z</time>
      </trkpt>
      <trkpt lat="45.55352" lon="6.04756">
        <ele>1071</ele>
        <time>2021-06-27T10:10:52.071Z</time>
      </trkpt>
      <trkpt lat="45.55353" lon="6.04756">
        <ele>1071</ele>
        <time>2021-06-27T10:10:53.070Z</time>
      </trkpt>
      <trkpt lat="45.55354" lon="6.04755">
        <ele>1071</ele>
        <time>2021-06-27T10:10:54.071Z</time>
      </trkpt>
      <trkpt lat="45.55355" lon="6.04754">
        <ele>1071</ele>
        <time>2021-06-27T10:10:55.070Z</time>
      </trkpt>
      <trkpt lat="45.55356" lon="6.04755">
        <ele>1070</ele>
        <time>2021-06-27T10:10:56.071Z</time>
      </trkpt>
      <trkpt lat="45.55356" lon="6.04754">
        <ele>1070</ele>
        <time>2021-06-27T10:10:57.071Z</time>
      </trkpt>
      <trkpt lat="45.55358" lon="6.04753">
        <ele>1070</ele>
        <time>2021-06-27T10:10:58.071Z</time>
      </trkpt>
      <trkpt lat="45.55358" lon="6.04753">
        <ele>1070</ele>
        <time>2021-06-27T10:10:59.071Z</time>
      </trkpt>
      <trkpt lat="45.55359" lon="6.04752">
        <ele>1070</ele>
        <time>2021-06-27T10:11:00.070Z</time>
      </trkpt>
      <trkpt lat="45.55359" lon="6.04751">
        <ele>1070</ele>
        <time>2021-06-27T10:11:01.071Z</time>
      </trkpt>
      <trkpt lat="45.55359" lon="6.0475">
        <ele>1069</ele>
        <time>2021-06-27T10:11:02.071Z</time>
      </trkpt>
      <trkpt lat="45.5536" lon="6.04749">
        <ele>1069</ele>
        <time>2021-06-27T10:11:03.071Z</time>
      </trkpt>
      <trkpt lat="45.55361" lon="6.04748">
        <ele>1070</ele>
        <time>2021-06-27T10:11:04.071Z</time>
      </trkpt>
      <trkpt lat="45.55362" lon="6.04747">
        <ele>1069</ele>
        <time>2021-06-27T10:11:05.071Z</time>
      </trkpt>
      <trkpt lat="45.55362" lon="6.04746">
        <ele>1069</ele>
        <time>2021-06-27T10:11:06.071Z</time>
      </trkpt>
      <trkpt lat="45.55362" lon="6.04745">
        <ele>1069</ele>
        <time>2021-06-27T10:11:07.071Z</time>
      </trkpt>
      <trkpt lat="45.55363" lon="6.04745">
        <ele>1068</ele>
        <time>2021-06-27T10:11:08.071Z</time>
      </trkpt>
      <trkpt lat="45.55364" lon="6.04745">
        <ele>1068</ele>
        <time>2021-06-27T10:11:09.070Z</time>
      </trkpt>
      <trkpt lat="45.55365" lon="6.04745">
        <ele>1067</ele>
        <time>2021-06-27T10:11:10.071Z</time>
      </trkpt>
      <trkpt lat="45.55366" lon="6.04744">
        <ele>1067</ele>
        <time>2021-06-27T10:11:11.070Z</time>
      </trkpt>
      <trkpt lat="45.55367" lon="6.04744">
        <ele>1066</ele>
        <time>2021-06-27T10:11:12.071Z</time>
      </trkpt>
      <trkpt lat="45.55368" lon="6.04743">
        <ele>1065</ele>
        <time>2021-06-27T10:11:13.070Z</time>
      </trkpt>
      <trkpt lat="45.55369" lon="6.04743">
        <ele>1065</ele>
        <time>2021-06-27T10:11:14.070Z</time>
      </trkpt>
      <trkpt lat="45.55369" lon="6.04743">
        <ele>1064</ele>
        <time>2021-06-27T10:11:15.071Z</time>
      </trkpt>
      <trkpt lat="45.5537" lon="6.04742">
        <ele>1063</ele>
        <time>2021-06-27T10:11:16.071Z</time>
      </trkpt>
      <trkpt lat="45.55371" lon="6.04742">
        <ele>1063</ele>
        <time>2021-06-27T10:11:17.070Z</time>
      </trkpt>
      <trkpt lat="45.55372" lon="6.04742">
        <ele>1063</ele>
        <time>2021-06-27T10:11:18.071Z</time>
      </trkpt>
      <trkpt lat="45.55373" lon="6.04741">
        <ele>1063</ele>
        <time>2021-06-27T10:11:19.071Z</time>
      </trkpt>
      <trkpt lat="45.55373" lon="6.04741">
        <ele>1063</ele>
        <time>2021-06-27T10:11:20.071Z</time>
      </trkpt>
      <trkpt lat="45.55375" lon="6.0474">
        <ele>1063</ele>
        <time>2021-06-27T10:11:21.071Z</time>
      </trkpt>
      <trkpt lat="45.55376" lon="6.04739">
        <ele>1062</ele>
        <time>2021-06-27T10:11:22.071Z</time>
      </trkpt>
      <trkpt lat="45.55378" lon="6.04739">
        <ele>1063</ele>
        <time>2021-06-27T10:11:23.071Z</time>
      </trkpt>
      <trkpt lat="45.55379" lon="6.04738">
        <ele>1063</ele>
        <time>2021-06-27T10:11:24.070Z</time>
      </trkpt>
      <trkpt lat="45.5538" lon="6.04738">
        <ele>1062</ele>
        <time>2021-06-27T10:11:25.071Z</time>
      </trkpt>
      <trkpt lat="45.55381" lon="6.04737">
        <ele>1062</ele>
        <time>2021-06-27T10:11:26.071Z</time>
      </trkpt>
      <trkpt lat="45.55382" lon="6.04737">
        <ele>1062</ele>
        <time>2021-06-27T10:11:27.071Z</time>
      </trkpt>
      <trkpt lat="45.55383" lon="6.04736">
        <ele>1062</ele>
        <time>2021-06-27T10:11:28.071Z</time>
      </trkpt>
      <trkpt lat="45.55384" lon="6.04736">
        <ele>1062</ele>
        <time>2021-06-27T10:11:29.071Z</time>
      </trkpt>
      <trkpt lat="45.55385" lon="6.04735">
        <ele>1062</ele>
        <time>2021-06-27T10:11:30.071Z</time>
      </trkpt>
      <trkpt lat="45.55387" lon="6.04734">
        <ele>1062</ele>
        <time>2021-06-27T10:11:31.071Z</time>
      </trkpt>
      <trkpt lat="45.55387" lon="6.04733">
        <ele>1062</ele>
        <time>2021-06-27T10:11:32.071Z</time>
      </trkpt>
      <trkpt lat="45.55389" lon="6.04731">
        <ele>1062</ele>
        <time>2021-06-27T10:11:33.071Z</time>
      </trkpt>
      <trkpt lat="45.55389" lon="6.04731">
        <ele>1062</ele>
        <time>2021-06-27T10:11:34.071Z</time>
      </trkpt>
      <trkpt lat="45.5539" lon="6.04731">
        <ele>1062</ele>
        <time>2021-06-27T10:11:35.071Z</time>
      </trkpt>
      <trkpt lat="45.55392" lon="6.04731">
        <ele>1061</ele>
        <time>2021-06-27T10:11:36.071Z</time>
      </trkpt>
      <trkpt lat="45.55393" lon="6.0473">
        <ele>1060</ele>
        <time>2021-06-27T10:11:37.071Z</time>
      </trkpt>
      <trkpt lat="45.55394" lon="6.0473">
        <ele>1059</ele>
        <time>2021-06-27T10:11:38.071Z</time>
      </trkpt>
      <trkpt lat="45.55394" lon="6.0473">
        <ele>1059</ele>
        <time>2021-06-27T10:11:39.070Z</time>
      </trkpt>
      <trkpt lat="45.55395" lon="6.04729">
        <ele>1058</ele>
        <time>2021-06-27T10:11:40.071Z</time>
      </trkpt>
      <trkpt lat="45.55396" lon="6.04728">
        <ele>1058</ele>
        <time>2021-06-27T10:11:41.071Z</time>
      </trkpt>
      <trkpt lat="45.55396" lon="6.04727">
        <ele>1057</ele>
        <time>2021-06-27T10:11:42.071Z</time>
      </trkpt>
      <trkpt lat="45.55397" lon="6.04727">
        <ele>1057</ele>
        <time>2021-06-27T10:11:43.071Z</time>
      </trkpt>
      <trkpt lat="45.55399" lon="6.04726">
        <ele>1056</ele>
        <time>2021-06-27T10:11:44.070Z</time>
      </trkpt>
      <trkpt lat="45.554" lon="6.04726">
        <ele>1056</ele>
        <time>2021-06-27T10:11:45.071Z</time>
      </trkpt>
      <trkpt lat="45.55401" lon="6.04725">
        <ele>1056</ele>
        <time>2021-06-27T10:11:46.071Z</time>
      </trkpt>
      <trkpt lat="45.55401" lon="6.04724">
        <ele>1056</ele>
        <time>2021-06-27T10:11:47.071Z</time>
      </trkpt>
      <trkpt lat="45.554" lon="6.04723">
        <ele>1055</ele>
        <time>2021-06-27T10:11:48.070Z</time>
      </trkpt>
      <trkpt lat="45.554" lon="6.04723">
        <ele>1054</ele>
        <time>2021-06-27T10:11:49.071Z</time>
      </trkpt>
      <trkpt lat="45.55401" lon="6.04723">
        <ele>1054</ele>
        <time>2021-06-27T10:11:50.071Z</time>
      </trkpt>
      <trkpt lat="45.55401" lon="6.04723">
        <ele>1053</ele>
        <time>2021-06-27T10:11:51.071Z</time>
      </trkpt>
      <trkpt lat="45.55402" lon="6.04723">
        <ele>1053</ele>
        <time>2021-06-27T10:11:52.071Z</time>
      </trkpt>
      <trkpt lat="45.55402" lon="6.04723">
        <ele>1052</ele>
        <time>2021-06-27T10:11:53.071Z</time>
      </trkpt>
      <trkpt lat="45.55404" lon="6.04723">
        <ele>1052</ele>
        <time>2021-06-27T10:11:54.071Z</time>
      </trkpt>
      <trkpt lat="45.55405" lon="6.04723">
        <ele>1052</ele>
        <time>2021-06-27T10:11:55.070Z</time>
      </trkpt>
      <trkpt lat="45.55406" lon="6.04722">
        <ele>1051</ele>
        <time>2021-06-27T10:11:56.070Z</time>
      </trkpt>
      <trkpt lat="45.55407" lon="6.04722">
        <ele>1051</ele>
        <time>2021-06-27T10:11:57.071Z</time>
      </trkpt>
      <trkpt lat="45.55408" lon="6.04722">
        <ele>1051</ele>
        <time>2021-06-27T10:11:58.071Z</time>
      </trkpt>
      <trkpt lat="45.55408" lon="6.04721">
        <ele>1050</ele>
        <time>2021-06-27T10:11:59.070Z</time>
      </trkpt>
      <trkpt lat="45.55408" lon="6.0472">
        <ele>1050</ele>
        <time>2021-06-27T10:12:00.071Z</time>
      </trkpt>
      <trkpt lat="45.55407" lon="6.0472">
        <ele>1050</ele>
        <time>2021-06-27T10:12:01.071Z</time>
      </trkpt>
      <trkpt lat="45.55407" lon="6.04719">
        <ele>1050</ele>
        <time>2021-06-27T10:12:02.071Z</time>
      </trkpt>
      <trkpt lat="45.55407" lon="6.04719">
        <ele>1049</ele>
        <time>2021-06-27T10:12:03.071Z</time>
      </trkpt>
      <trkpt lat="45.55406" lon="6.04719">
        <ele>1049</ele>
        <time>2021-06-27T10:12:04.071Z</time>
      </trkpt>
      <trkpt lat="45.55406" lon="6.0472">
        <ele>1049</ele>
        <time>2021-06-27T10:12:05.071Z</time>
      </trkpt>
      <trkpt lat="45.55406" lon="6.0472">
        <ele>1048</ele>
        <time>2021-06-27T10:12:06.071Z</time>
      </trkpt>
      <trkpt lat="45.55406" lon="6.0472">
        <ele>1047</ele>
        <time>2021-06-27T10:12:07.071Z</time>
      </trkpt>
      <trkpt lat="45.55406" lon="6.0472">
        <ele>1046</ele>
        <time>2021-06-27T10:12:08.071Z</time>
      </trkpt>
      <trkpt lat="45.55406" lon="6.04721">
        <ele>1046</ele>
        <time>2021-06-27T10:12:09.071Z</time>
      </trkpt>
      <trkpt lat="45.55406" lon="6.0472">
        <ele>1045</ele>
        <time>2021-06-27T10:12:10.070Z</time>
      </trkpt>
      <trkpt lat="45.55406" lon="6.0472">
        <ele>1044</ele>
        <time>2021-06-27T10:12:11.070Z</time>
      </trkpt>
      <trkpt lat="45.55405" lon="6.0472">
        <ele>1043</ele>
        <time>2021-06-27T10:12:12.070Z</time>
      </trkpt>
      <trkpt lat="45.55405" lon="6.04719">
        <ele>1042</ele>
        <time>2021-06-27T10:12:13.071Z</time>
      </trkpt>
      <trkpt lat="45.55404" lon="6.04718">
        <ele>1042</ele>
        <time>2021-06-27T10:12:14.070Z</time>
      </trkpt>
      <trkpt lat="45.55404" lon="6.04718">
        <ele>1042</ele>
        <time>2021-06-27T10:12:15.070Z</time>
      </trkpt>
      <trkpt lat="45.55404" lon="6.04717">
        <ele>1042</ele>
        <time>2021-06-27T10:12:16.071Z</time>
      </trkpt>
      <trkpt lat="45.55403" lon="6.04717">
        <ele>1042</ele>
        <time>2021-06-27T10:12:17.071Z</time>
      </trkpt>
      <trkpt lat="45.55403" lon="6.04716">
        <ele>1042</ele>
        <time>2021-06-27T10:12:18.070Z</time>
      </trkpt>
      <trkpt lat="45.55402" lon="6.04716">
        <ele>1041</ele>
        <time>2021-06-27T10:12:19.071Z</time>
      </trkpt>
      <trkpt lat="45.55401" lon="6.04716">
        <ele>1041</ele>
        <time>2021-06-27T10:12:20.070Z</time>
      </trkpt>
      <trkpt lat="45.554" lon="6.04716">
        <ele>1041</ele>
        <time>2021-06-27T10:12:21.071Z</time>
      </trkpt>
      <trkpt lat="45.55399" lon="6.04715">
        <ele>1041</ele>
        <time>2021-06-27T10:12:22.070Z</time>
      </trkpt>
      <trkpt lat="45.55399" lon="6.04714">
        <ele>1040</ele>
        <time>2021-06-27T10:12:23.071Z</time>
      </trkpt>
      <trkpt lat="45.55398" lon="6.04713">
        <ele>1040</ele>
        <time>2021-06-27T10:12:24.071Z</time>
      </trkpt>
      <trkpt lat="45.55397" lon="6.04712">
        <ele>1040</ele>
        <time>2021-06-27T10:12:25.070Z</time>
      </trkpt>
      <trkpt lat="45.55397" lon="6.04711">
        <ele>1039</ele>
        <time>2021-06-27T10:12:26.071Z</time>
      </trkpt>
      <trkpt lat="45.55396" lon="6.04711">
        <ele>1039</ele>
        <time>2021-06-27T10:12:27.071Z</time>
      </trkpt>
      <trkpt lat="45.55395" lon="6.04711">
        <ele>1039</ele>
        <time>2021-06-27T10:12:28.071Z</time>
      </trkpt>
      <trkpt lat="45.55394" lon="6.0471">
        <ele>1038</ele>
        <time>2021-06-27T10:12:29.071Z</time>
      </trkpt>
      <trkpt lat="45.55393" lon="6.04708">
        <ele>1038</ele>
        <time>2021-06-27T10:12:30.071Z</time>
      </trkpt>
      <trkpt lat="45.55392" lon="6.04707">
        <ele>1038</ele>
        <time>2021-06-27T10:12:31.071Z</time>
      </trkpt>
      <trkpt lat="45.55392" lon="6.04706">
        <ele>1037</ele>
        <time>2021-06-27T10:12:32.071Z</time>
      </trkpt>
      <trkpt lat="45.55392" lon="6.04705">
        <ele>1036</ele>
        <time>2021-06-27T10:12:33.071Z</time>
      </trkpt>
      <trkpt lat="45.55392" lon="6.04706">
        <ele>1035</ele>
        <time>2021-06-27T10:12:34.070Z</time>
      </trkpt>
      <trkpt lat="45.55392" lon="6.04706">
        <ele>1034</ele>
        <time>2021-06-27T10:12:35.071Z</time>
      </trkpt>
      <trkpt lat="45.55392" lon="6.04706">
        <ele>1033</ele>
        <time>2021-06-27T10:12:36.070Z</time>
      </trkpt>
      <trkpt lat="45.55392" lon="6.04706">
        <ele>1032</ele>
        <time>2021-06-27T10:12:37.071Z</time>
      </trkpt>
      <trkpt lat="45.55391" lon="6.04706">
        <ele>1031</ele>
        <time>2021-06-27T10:12:38.070Z</time>
      </trkpt>
      <trkpt lat="45.5539" lon="6.04705">
        <ele>1030</ele>
        <time>2021-06-27T10:12:39.070Z</time>
      </trkpt>
      <trkpt lat="45.5539" lon="6.04705">
        <ele>1029</ele>
        <time>2021-06-27T10:12:40.070Z</time>
      </trkpt>
      <trkpt lat="45.55389" lon="6.04704">
        <ele>1029</ele>
        <time>2021-06-27T10:12:41.070Z</time>
      </trkpt>
      <trkpt lat="45.55389" lon="6.04704">
        <ele>1028</ele>
        <time>2021-06-27T10:12:42.070Z</time>
      </trkpt>
      <trkpt lat="45.55389" lon="6.04705">
        <ele>1027</ele>
        <time>2021-06-27T10:12:43.070Z</time>
      </trkpt>
      <trkpt lat="45.55389" lon="6.04705">
        <ele>1026</ele>
        <time>2021-06-27T10:12:44.071Z</time>
      </trkpt>
      <trkpt lat="45.55389" lon="6.04705">
        <ele>1025</ele>
        <time>2021-06-27T10:12:45.071Z</time>
      </trkpt>
      <trkpt lat="45.55389" lon="6.04706">
        <ele>1024</ele>
        <time>2021-06-27T10:12:46.070Z</time>
      </trkpt>
      <trkpt lat="45.55389" lon="6.04706">
        <ele>1023</ele>
        <time>2021-06-27T10:12:47.071Z</time>
      </trkpt>
      <trkpt lat="45.55389" lon="6.04707">
        <ele>1023</ele>
        <time>2021-06-27T10:12:48.071Z</time>
      </trkpt>
      <trkpt lat="45.55388" lon="6.04706">
        <ele>1022</ele>
        <time>2021-06-27T10:12:49.071Z</time>
      </trkpt>
      <trkpt lat="45.55388" lon="6.04706">
        <ele>1022</ele>
        <time>2021-06-27T10:12:50.071Z</time>
      </trkpt>
      <trkpt lat="45.55388" lon="6.04706">
        <ele>1022</ele>
        <time>2021-06-27T10:12:51.071Z</time>
      </trkpt>
      <trkpt lat="45.55388" lon="6.04706">
        <ele>1022</ele>
        <time>2021-06-27T10:12:52.071Z</time>
      </trkpt>
      <trkpt lat="45.55387" lon="6.04707">
        <ele>1022</ele>
        <time>2021-06-27T10:12:53.070Z</time>
      </trkpt>
      <trkpt lat="45.55387" lon="6.04708">
        <ele>1022</ele>
        <time>2021-06-27T10:12:54.070Z</time>
      </trkpt>
      <trkpt lat="45.55387" lon="6.04708">
        <ele>1022</ele>
        <time>2021-06-27T10:12:55.071Z</time>
      </trkpt>
      <trkpt lat="45.55387" lon="6.04708">
        <ele>1023</ele>
        <time>2021-06-27T10:12:56.070Z</time>
      </trkpt>
      <trkpt lat="45.55387" lon="6.04708">
        <ele>1023</ele>
        <time>2021-06-27T10:12:57.071Z</time>
      </trkpt>
      <trkpt lat="45.55387" lon="6.04708">
        <ele>1024</ele>
        <time>2021-06-27T10:12:58.071Z</time>
      </trkpt>
      <trkpt lat="45.55387" lon="6.04708">
        <ele>1024</ele>
        <time>2021-06-27T10:12:59.070Z</time>
      </trkpt>
      <trkpt lat="45.55388" lon="6.04708">
        <ele>1024</ele>
        <time>2021-06-27T10:13:00.071Z</time>
      </trkpt>
      <trkpt lat="45.55388" lon="6.04708">
        <ele>1025</ele>
        <time>2021-06-27T10:13:01.071Z</time>
      </trkpt>
      <trkpt lat="45.55389" lon="6.04708">
        <ele>1025</ele>
        <time>2021-06-27T10:13:02.071Z</time>
      </trkpt>
      <trkpt lat="45.55389" lon="6.04708">
        <ele>1025</ele>
        <time>2021-06-27T10:13:03.071Z</time>
      </trkpt>
      <trkpt lat="45.5539" lon="6.04708">
        <ele>1025</ele>
        <time>2021-06-27T10:13:04.071Z</time>
      </trkpt>
      <trkpt lat="45.5539" lon="6.04708">
        <ele>1025</ele>
        <time>2021-06-27T10:13:05.071Z</time>
      </trkpt>
      <trkpt lat="45.5539" lon="6.04708">
        <ele>1025</ele>
        <time>2021-06-27T10:13:06.071Z</time>
      </trkpt>
      <trkpt lat="45.5539" lon="6.04707">
        <ele>1025</ele>
        <time>2021-06-27T10:13:07.071Z</time>
      </trkpt>
      <trkpt lat="45.55391" lon="6.04707">
        <ele>1025</ele>
        <time>2021-06-27T10:13:08.071Z</time>
      </trkpt>
      <trkpt lat="45.55391" lon="6.04707">
        <ele>1025</ele>
        <time>2021-06-27T10:13:09.070Z</time>
      </trkpt>
      <trkpt lat="45.55391" lon="6.04707">
        <ele>1025</ele>
        <time>2021-06-27T10:13:10.070Z</time>
      </trkpt>
      <trkpt lat="45.55391" lon="6.04707">
        <ele>1024</ele>
        <time>2021-06-27T10:13:11.071Z</time>
      </trkpt>
      <trkpt lat="45.55391" lon="6.04706">
        <ele>1024</ele>
        <time>2021-06-27T10:13:12.071Z</time>
      </trkpt>
      <trkpt lat="45.55391" lon="6.04704">
        <ele>1024</ele>
        <time>2021-06-27T10:13:13.071Z</time>
      </trkpt>
      <trkpt lat="45.55391" lon="6.04703">
        <ele>1024</ele>
        <time>2021-06-27T10:13:14.071Z</time>
      </trkpt>
      <trkpt lat="45.55391" lon="6.04702">
        <ele>1023</ele>
        <time>2021-06-27T10:13:15.070Z</time>
      </trkpt>
      <trkpt lat="45.55391" lon="6.04702">
        <ele>1023</ele>
        <time>2021-06-27T10:13:16.071Z</time>
      </trkpt>
      <trkpt lat="45.55391" lon="6.04701">
        <ele>1023</ele>
        <time>2021-06-27T10:13:17.070Z</time>
      </trkpt>
      <trkpt lat="45.55391" lon="6.047">
        <ele>1023</ele>
        <time>2021-06-27T10:13:18.071Z</time>
      </trkpt>
      <trkpt lat="45.55392" lon="6.04698">
        <ele>1023</ele>
        <time>2021-06-27T10:13:19.071Z</time>
      </trkpt>
      <trkpt lat="45.55392" lon="6.04697">
        <ele>1023</ele>
        <time>2021-06-27T10:13:20.071Z</time>
      </trkpt>
      <trkpt lat="45.55392" lon="6.04697">
        <ele>1023</ele>
        <time>2021-06-27T10:13:21.070Z</time>
      </trkpt>
      <trkpt lat="45.55392" lon="6.04697">
        <ele>1024</ele>
        <time>2021-06-27T10:13:22.071Z</time>
      </trkpt>
      <trkpt lat="45.55392" lon="6.04696">
        <ele>1024</ele>
        <time>2021-06-27T10:13:23.071Z</time>
      </trkpt>
      <trkpt lat="45.55391" lon="6.04696">
        <ele>1024</ele>
        <time>2021-06-27T10:13:24.071Z</time>
      </trkpt>
      <trkpt lat="45.5539" lon="6.04696">
        <ele>1024</ele>
        <time>2021-06-27T10:13:25.071Z</time>
      </trkpt>
      <trkpt lat="45.5539" lon="6.04697">
        <ele>1025</ele>
        <time>2021-06-27T10:13:26.070Z</time>
      </trkpt>
      <trkpt lat="45.5539" lon="6.04697">
        <ele>1025</ele>
        <time>2021-06-27T10:13:27.071Z</time>
      </trkpt>
      <trkpt lat="45.55389" lon="6.04698">
        <ele>1026</ele>
        <time>2021-06-27T10:13:28.070Z</time>
      </trkpt>
      <trkpt lat="45.55389" lon="6.04698">
        <ele>1026</ele>
        <time>2021-06-27T10:13:29.071Z</time>
      </trkpt>
      <trkpt lat="45.55389" lon="6.04698">
        <ele>1027</ele>
        <time>2021-06-27T10:13:30.071Z</time>
      </trkpt>
      <trkpt lat="45.55388" lon="6.04698">
        <ele>1027</ele>
        <time>2021-06-27T10:13:31.070Z</time>
      </trkpt>
      <trkpt lat="45.55388" lon="6.04699">
        <ele>1028</ele>
        <time>2021-06-27T10:13:32.070Z</time>
      </trkpt>
      <trkpt lat="45.55388" lon="6.047">
        <ele>1029</ele>
        <time>2021-06-27T10:13:33.071Z</time>
      </trkpt>
      <trkpt lat="45.55387" lon="6.047">
        <ele>1029</ele>
        <time>2021-06-27T10:13:34.071Z</time>
      </trkpt>
      <trkpt lat="45.55387" lon="6.04701">
        <ele>1030</ele>
        <time>2021-06-27T10:13:35.071Z</time>
      </trkpt>
      <trkpt lat="45.55387" lon="6.04701">
        <ele>1030</ele>
        <time>2021-06-27T10:13:36.071Z</time>
      </trkpt>
      <trkpt lat="45.55387" lon="6.04701">
        <ele>1030</ele>
        <time>2021-06-27T10:13:37.071Z</time>
      </trkpt>
      <trkpt lat="45.55387" lon="6.04701">
        <ele>1030</ele>
        <time>2021-06-27T10:13:38.071Z</time>
      </trkpt>
      <trkpt lat="45.55387" lon="6.04701">
        <ele>1030</ele>
        <time>2021-06-27T10:13:39.071Z</time>
      </trkpt>
      <trkpt lat="45.55387" lon="6.04701">
        <ele>1030</ele>
        <time>2021-06-27T10:13:40.071Z</time>
      </trkpt>
      <trkpt lat="45.55386" lon="6.04702">
        <ele>1030</ele>
        <time>2021-06-27T10:13:41.071Z</time>
      </trkpt>
      <trkpt lat="45.55385" lon="6.04702">
        <ele>1030</ele>
        <time>2021-06-27T10:13:42.071Z</time>
      </trkpt>
      <trkpt lat="45.55385" lon="6.04702">
        <ele>1030</ele>
        <time>2021-06-27T10:13:43.071Z</time>
      </trkpt>
      <trkpt lat="45.55385" lon="6.04702">
        <ele>1030</ele>
        <time>2021-06-27T10:13:44.070Z</time>
      </trkpt>
      <trkpt lat="45.55384" lon="6.04702">
        <ele>1030</ele>
        <time>2021-06-27T10:13:45.070Z</time>
      </trkpt>
      <trkpt lat="45.55384" lon="6.04702">
        <ele>1030</ele>
        <time>2021-06-27T10:13:46.071Z</time>
      </trkpt>
      <trkpt lat="45.55384" lon="6.04701">
        <ele>1030</ele>
        <time>2021-06-27T10:13:47.071Z</time>
      </trkpt>
      <trkpt lat="45.55384" lon="6.04701">
        <ele>1031</ele>
        <time>2021-06-27T10:13:48.071Z</time>
      </trkpt>
      <trkpt lat="45.55384" lon="6.047">
        <ele>1031</ele>
        <time>2021-06-27T10:13:49.071Z</time>
      </trkpt>
      <trkpt lat="45.55384" lon="6.047">
        <ele>1031</ele>
        <time>2021-06-27T10:13:50.071Z</time>
      </trkpt>
      <trkpt lat="45.55384" lon="6.04701">
        <ele>1032</ele>
        <time>2021-06-27T10:13:51.071Z</time>
      </trkpt>
      <trkpt lat="45.55384" lon="6.04701">
        <ele>1032</ele>
        <time>2021-06-27T10:13:52.071Z</time>
      </trkpt>
      <trkpt lat="45.55385" lon="6.04701">
        <ele>1032</ele>
        <time>2021-06-27T10:13:53.071Z</time>
      </trkpt>
      <trkpt lat="45.55385" lon="6.04701">
        <ele>1033</ele>
        <time>2021-06-27T10:13:54.071Z</time>
      </trkpt>
      <trkpt lat="45.55385" lon="6.04702">
        <ele>1033</ele>
        <time>2021-06-27T10:13:55.070Z</time>
      </trkpt>
      <trkpt lat="45.55386" lon="6.04703">
        <ele>1033</ele>
        <time>2021-06-27T10:13:56.071Z</time>
      </trkpt>
      <trkpt lat="45.55386" lon="6.04704">
        <ele>1033</ele>
        <time>2021-06-27T10:13:57.071Z</time>
      </trkpt>
      <trkpt lat="45.55387" lon="6.04705">
        <ele>1034</ele>
        <time>2021-06-27T10:13:58.071Z</time>
      </trkpt>
      <trkpt lat="45.55387" lon="6.04705">
        <ele>1034</ele>
        <time>2021-06-27T10:13:59.070Z</time>
      </trkpt>
      <trkpt lat="45.55387" lon="6.04705">
        <ele>1033</ele>
        <time>2021-06-27T10:14:00.071Z</time>
      </trkpt>
      <trkpt lat="45.55387" lon="6.04704">
        <ele>1033</ele>
        <time>2021-06-27T10:14:01.071Z</time>
      </trkpt>
      <trkpt lat="45.55387" lon="6.04704">
        <ele>1033</ele>
        <time>2021-06-27T10:14:02.071Z</time>
      </trkpt>
      <trkpt lat="45.55387" lon="6.04704">
        <ele>1033</ele>
        <time>2021-06-27T10:14:03.071Z</time>
      </trkpt>
      <trkpt lat="45.55387" lon="6.04704">
        <ele>1032</ele>
        <time>2021-06-27T10:14:04.071Z</time>
      </trkpt>
      <trkpt lat="45.55386" lon="6.04704">
        <ele>1032</ele>
        <time>2021-06-27T10:14:05.071Z</time>
      </trkpt>
      <trkpt lat="45.55386" lon="6.04704">
        <ele>1032</ele>
        <time>2021-06-27T10:14:06.071Z</time>
      </trkpt>
      <trkpt lat="45.55386" lon="6.04704">
        <ele>1032</ele>
        <time>2021-06-27T10:14:07.071Z</time>
      </trkpt>
      <trkpt lat="45.55386" lon="6.04705">
        <ele>1032</ele>
        <time>2021-06-27T10:14:08.071Z</time>
      </trkpt>
      <trkpt lat="45.55386" lon="6.04704">
        <ele>1032</ele>
        <time>2021-06-27T10:14:09.070Z</time>
      </trkpt>
      <trkpt lat="45.55386" lon="6.04704">
        <ele>1033</ele>
        <time>2021-06-27T10:14:10.071Z</time>
      </trkpt>
      <trkpt lat="45.55386" lon="6.04704">
        <ele>1033</ele>
        <time>2021-06-27T10:14:11.071Z</time>
      </trkpt>
      <trkpt lat="45.55386" lon="6.04704">
        <ele>1033</ele>
        <time>2021-06-27T10:14:12.071Z</time>
      </trkpt>
      <trkpt lat="45.55386" lon="6.04703">
        <ele>1033</ele>
        <time>2021-06-27T10:14:13.070Z</time>
      </trkpt>
      <trkpt lat="45.55386" lon="6.04703">
        <ele>1033</ele>
        <time>2021-06-27T10:14:14.071Z</time>
      </trkpt>
      <trkpt lat="45.55386" lon="6.04702">
        <ele>1033</ele>
        <time>2021-06-27T10:14:15.071Z</time>
      </trkpt>
      <trkpt lat="45.55386" lon="6.04702">
        <ele>1033</ele>
        <time>2021-06-27T10:14:16.071Z</time>
      </trkpt>
      <trkpt lat="45.55387" lon="6.04702">
        <ele>1033</ele>
        <time>2021-06-27T10:14:17.071Z</time>
      </trkpt>
      <trkpt lat="45.55387" lon="6.04702">
        <ele>1033</ele>
        <time>2021-06-27T10:14:18.071Z</time>
      </trkpt>
      <trkpt lat="45.55387" lon="6.04702">
        <ele>1033</ele>
        <time>2021-06-27T10:14:19.071Z</time>
      </trkpt>
      <trkpt lat="45.55387" lon="6.04701">
        <ele>1033</ele>
        <time>2021-06-27T10:14:20.071Z</time>
      </trkpt>
      <trkpt lat="45.55388" lon="6.047">
        <ele>1033</ele>
        <time>2021-06-27T10:14:21.071Z</time>
      </trkpt>
      <trkpt lat="45.55388" lon="6.04699">
        <ele>1034</ele>
        <time>2021-06-27T10:14:22.071Z</time>
      </trkpt>
      <trkpt lat="45.55388" lon="6.04697">
        <ele>1034</ele>
        <time>2021-06-27T10:14:23.071Z</time>
      </trkpt>
      <trkpt lat="45.55388" lon="6.04696">
        <ele>1034</ele>
        <time>2021-06-27T10:14:24.071Z</time>
      </trkpt>
      <trkpt lat="45.55388" lon="6.04694">
        <ele>1035</ele>
        <time>2021-06-27T10:14:25.070Z</time>
      </trkpt>
      <trkpt lat="45.55388" lon="6.04694">
        <ele>1035</ele>
        <time>2021-06-27T10:14:26.071Z</time>
      </trkpt>
      <trkpt lat="45.55387" lon="6.04692">
        <ele>1035</ele>
        <time>2021-06-27T10:14:27.071Z</time>
      </trkpt>
      <trkpt lat="45.55387" lon="6.04691">
        <ele>1036</ele>
        <time>2021-06-27T10:14:28.071Z</time>
      </trkpt>
      <trkpt lat="45.55387" lon="6.04691">
        <ele>1036</ele>
        <time>2021-06-27T10:14:29.071Z</time>
      </trkpt>
      <trkpt lat="45.55387" lon="6.0469">
        <ele>1036</ele>
        <time>2021-06-27T10:14:30.071Z</time>
      </trkpt>
      <trkpt lat="45.55387" lon="6.0469">
        <ele>1036</ele>
        <time>2021-06-27T10:14:31.071Z</time>
      </trkpt>
      <trkpt lat="45.55388" lon="6.0469">
        <ele>1037</ele>
        <time>2021-06-27T10:14:32.071Z</time>
      </trkpt>
      <trkpt lat="45.55388" lon="6.0469">
        <ele>1037</ele>
        <time>2021-06-27T10:14:33.071Z</time>
      </trkpt>
      <trkpt lat="45.55388" lon="6.04689">
        <ele>1037</ele>
        <time>2021-06-27T10:14:34.071Z</time>
      </trkpt>
      <trkpt lat="45.55388" lon="6.04689">
        <ele>1037</ele>
        <time>2021-06-27T10:14:35.071Z</time>
      </trkpt>
      <trkpt lat="45.55388" lon="6.04688">
        <ele>1036</ele>
        <time>2021-06-27T10:14:36.070Z</time>
      </trkpt>
      <trkpt lat="45.55388" lon="6.04689">
        <ele>1036</ele>
        <time>2021-06-27T10:14:37.071Z</time>
      </trkpt>
      <trkpt lat="45.55388" lon="6.0469">
        <ele>1036</ele>
        <time>2021-06-27T10:14:38.071Z</time>
      </trkpt>
      <trkpt lat="45.55389" lon="6.04691">
        <ele>1036</ele>
        <time>2021-06-27T10:14:39.071Z</time>
      </trkpt>
      <trkpt lat="45.55389" lon="6.04692">
        <ele>1036</ele>
        <time>2021-06-27T10:14:40.071Z</time>
      </trkpt>
      <trkpt lat="45.5539" lon="6.04693">
        <ele>1035</ele>
        <time>2021-06-27T10:14:41.070Z</time>
      </trkpt>
      <trkpt lat="45.55391" lon="6.04694">
        <ele>1035</ele>
        <time>2021-06-27T10:14:42.071Z</time>
      </trkpt>
      <trkpt lat="45.55391" lon="6.04694">
        <ele>1035</ele>
        <time>2021-06-27T10:14:43.071Z</time>
      </trkpt>
      <trkpt lat="45.55391" lon="6.04694">
        <ele>1035</ele>
        <time>2021-06-27T10:14:44.071Z</time>
      </trkpt>
      <trkpt lat="45.55391" lon="6.04695">
        <ele>1035</ele>
        <time>2021-06-27T10:14:45.070Z</time>
      </trkpt>
      <trkpt lat="45.55391" lon="6.04695">
        <ele>1035</ele>
        <time>2021-06-27T10:14:46.071Z</time>
      </trkpt>
      <trkpt lat="45.55391" lon="6.04695">
        <ele>1035</ele>
        <time>2021-06-27T10:14:47.071Z</time>
      </trkpt>
      <trkpt lat="45.5539" lon="6.04695">
        <ele>1035</ele>
        <time>2021-06-27T10:14:48.071Z</time>
      </trkpt>
      <trkpt lat="45.5539" lon="6.04695">
        <ele>1035</ele>
        <time>2021-06-27T10:14:49.071Z</time>
      </trkpt>
      <trkpt lat="45.55389" lon="6.04695">
        <ele>1035</ele>
        <time>2021-06-27T10:14:50.070Z</time>
      </trkpt>
      <trkpt lat="45.55389" lon="6.04696">
        <ele>1035</ele>
        <time>2021-06-27T10:14:51.070Z</time>
      </trkpt>
      <trkpt lat="45.5539" lon="6.04697">
        <ele>1035</ele>
        <time>2021-06-27T10:14:52.071Z</time>
      </trkpt>
      <trkpt lat="45.55391" lon="6.04698">
        <ele>1034</ele>
        <time>2021-06-27T10:14:53.070Z</time>
      </trkpt>
      <trkpt lat="45.5539" lon="6.04697">
        <ele>1034</ele>
        <time>2021-06-27T10:14:54.071Z</time>
      </trkpt>
      <trkpt lat="45.5539" lon="6.04696">
        <ele>1034</ele>
        <time>2021-06-27T10:14:55.071Z</time>
      </trkpt>
      <trkpt lat="45.55389" lon="6.04696">
        <ele>1034</ele>
        <time>2021-06-27T10:14:56.071Z</time>
      </trkpt>
      <trkpt lat="45.55389" lon="6.04697">
        <ele>1034</ele>
        <time>2021-06-27T10:14:57.071Z</time>
      </trkpt>
      <trkpt lat="45.55389" lon="6.04697">
        <ele>1033</ele>
        <time>2021-06-27T10:14:58.071Z</time>
      </trkpt>
      <trkpt lat="45.55389" lon="6.04697">
        <ele>1033</ele>
        <time>2021-06-27T10:14:59.071Z</time>
      </trkpt>
      <trkpt lat="45.55388" lon="6.04697">
        <ele>1033</ele>
        <time>2021-06-27T10:15:00.071Z</time>
      </trkpt>
      <trkpt lat="45.55389" lon="6.04698">
        <ele>1032</ele>
        <time>2021-06-27T10:15:01.071Z</time>
      </trkpt>
      <trkpt lat="45.5539" lon="6.04699">
        <ele>1032</ele>
        <time>2021-06-27T10:15:02.071Z</time>
      </trkpt>
      <trkpt lat="45.55391" lon="6.04699">
        <ele>1032</ele>
        <time>2021-06-27T10:15:03.071Z</time>
      </trkpt>
      <trkpt lat="45.55391" lon="6.04699">
        <ele>1032</ele>
        <time>2021-06-27T10:15:04.071Z</time>
      </trkpt>
      <trkpt lat="45.55391" lon="6.04699">
        <ele>1032</ele>
        <time>2021-06-27T10:15:05.070Z</time>
      </trkpt>
      <trkpt lat="45.55392" lon="6.04699">
        <ele>1032</ele>
        <time>2021-06-27T10:15:06.070Z</time>
      </trkpt>
      <trkpt lat="45.55392" lon="6.04699">
        <ele>1032</ele>
        <time>2021-06-27T10:15:07.071Z</time>
      </trkpt>
      <trkpt lat="45.55392" lon="6.04699">
        <ele>1032</ele>
        <time>2021-06-27T10:15:08.071Z</time>
      </trkpt>
      <trkpt lat="45.55392" lon="6.04699">
        <ele>1032</ele>
        <time>2021-06-27T10:15:09.071Z</time>
      </trkpt>
      <trkpt lat="45.55392" lon="6.04698">
        <ele>1032</ele>
        <time>2021-06-27T10:15:10.071Z</time>
      </trkpt>
      <trkpt lat="45.55393" lon="6.04698">
        <ele>1032</ele>
        <time>2021-06-27T10:15:11.071Z</time>
      </trkpt>
      <trkpt lat="45.55393" lon="6.04698">
        <ele>1032</ele>
        <time>2021-06-27T10:15:12.071Z</time>
      </trkpt>
      <trkpt lat="45.55393" lon="6.04697">
        <ele>1032</ele>
        <time>2021-06-27T10:15:13.071Z</time>
      </trkpt>
      <trkpt lat="45.55394" lon="6.04697">
        <ele>1032</ele>
        <time>2021-06-27T10:15:14.071Z</time>
      </trkpt>
      <trkpt lat="45.55394" lon="6.04697">
        <ele>1032</ele>
        <time>2021-06-27T10:15:15.071Z</time>
      </trkpt>
      <trkpt lat="45.55395" lon="6.04697">
        <ele>1032</ele>
        <time>2021-06-27T10:15:16.071Z</time>
      </trkpt>
      <trkpt lat="45.55396" lon="6.04697">
        <ele>1032</ele>
        <time>2021-06-27T10:15:17.070Z</time>
      </trkpt>
      <trkpt lat="45.55396" lon="6.04697">
        <ele>1033</ele>
        <time>2021-06-27T10:15:18.070Z</time>
      </trkpt>
      <trkpt lat="45.55396" lon="6.04697">
        <ele>1033</ele>
        <time>2021-06-27T10:15:19.071Z</time>
      </trkpt>
      <trkpt lat="45.55396" lon="6.04697">
        <ele>1033</ele>
        <time>2021-06-27T10:15:20.071Z</time>
      </trkpt>
      <trkpt lat="45.55397" lon="6.04697">
        <ele>1034</ele>
        <time>2021-06-27T10:15:21.070Z</time>
      </trkpt>
      <trkpt lat="45.55397" lon="6.04697">
        <ele>1034</ele>
        <time>2021-06-27T10:15:22.071Z</time>
      </trkpt>
      <trkpt lat="45.55396" lon="6.04697">
        <ele>1035</ele>
        <time>2021-06-27T10:15:23.071Z</time>
      </trkpt>
      <trkpt lat="45.55396" lon="6.04698">
        <ele>1036</ele>
        <time>2021-06-27T10:15:24.071Z</time>
      </trkpt>
      <trkpt lat="45.55397" lon="6.04698">
        <ele>1036</ele>
        <time>2021-06-27T10:15:25.071Z</time>
      </trkpt>
      <trkpt lat="45.55397" lon="6.04699">
        <ele>1037</ele>
        <time>2021-06-27T10:15:26.070Z</time>
      </trkpt>
      <trkpt lat="45.55396" lon="6.04699">
        <ele>1037</ele>
        <time>2021-06-27T10:15:27.071Z</time>
      </trkpt>
      <trkpt lat="45.55395" lon="6.04699">
        <ele>1038</ele>
        <time>2021-06-27T10:15:28.071Z</time>
      </trkpt>
      <trkpt lat="45.55394" lon="6.04699">
        <ele>1038</ele>
        <time>2021-06-27T10:15:29.070Z</time>
      </trkpt>
      <trkpt lat="45.55393" lon="6.04699">
        <ele>1038</ele>
        <time>2021-06-27T10:15:30.071Z</time>
      </trkpt>
      <trkpt lat="45.55393" lon="6.04699">
        <ele>1038</ele>
        <time>2021-06-27T10:15:31.071Z</time>
      </trkpt>
      <trkpt lat="45.55393" lon="6.04699">
        <ele>1038</ele>
        <time>2021-06-27T10:15:32.071Z</time>
      </trkpt>
      <trkpt lat="45.55393" lon="6.047">
        <ele>1038</ele>
        <time>2021-06-27T10:15:33.070Z</time>
      </trkpt>
      <trkpt lat="45.55394" lon="6.047">
        <ele>1037</ele>
        <time>2021-06-27T10:15:34.070Z</time>
      </trkpt>
      <trkpt lat="45.55393" lon="6.04699">
        <ele>1037</ele>
        <time>2021-06-27T10:15:35.071Z</time>
      </trkpt>
      <trkpt lat="45.55393" lon="6.04699">
        <ele>1037</ele>
        <time>2021-06-27T10:15:36.071Z</time>
      </trkpt>
      <trkpt lat="45.55393" lon="6.04698">
        <ele>1037</ele>
        <time>2021-06-27T10:15:37.071Z</time>
      </trkpt>
      <trkpt lat="45.55393" lon="6.04698">
        <ele>1037</ele>
        <time>2021-06-27T10:15:38.071Z</time>
      </trkpt>
      <trkpt lat="45.55392" lon="6.04697">
        <ele>1037</ele>
        <time>2021-06-27T10:15:39.071Z</time>
      </trkpt>
      <trkpt lat="45.55392" lon="6.04697">
        <ele>1037</ele>
        <time>2021-06-27T10:15:40.071Z</time>
      </trkpt>
      <trkpt lat="45.55392" lon="6.04697">
        <ele>1036</ele>
        <time>2021-06-27T10:15:41.071Z</time>
      </trkpt>
      <trkpt lat="45.55392" lon="6.04697">
        <ele>1036</ele>
        <time>2021-06-27T10:15:42.071Z</time>
      </trkpt>
      <trkpt lat="45.55392" lon="6.04697">
        <ele>1035</ele>
        <time>2021-06-27T10:15:43.071Z</time>
      </trkpt>
      <trkpt lat="45.55392" lon="6.04697">
        <ele>1035</ele>
        <time>2021-06-27T10:15:44.071Z</time>
      </trkpt>
      <trkpt lat="45.55392" lon="6.04697">
        <ele>1035</ele>
        <time>2021-06-27T10:15:45.070Z</time>
      </trkpt>
      <trkpt lat="45.55392" lon="6.04697">
        <ele>1034</ele>
        <time>2021-06-27T10:15:46.071Z</time>
      </trkpt>
      <trkpt lat="45.55391" lon="6.04698">
        <ele>1034</ele>
        <time>2021-06-27T10:15:47.071Z</time>
      </trkpt>
      <trkpt lat="45.55391" lon="6.04698">
        <ele>1034</ele>
        <time>2021-06-27T10:15:48.071Z</time>
      </trkpt>
      <trkpt lat="45.5539" lon="6.04698">
        <ele>1034</ele>
        <time>2021-06-27T10:15:49.071Z</time>
      </trkpt>
      <trkpt lat="45.5539" lon="6.04698">
        <ele>1033</ele>
        <time>2021-06-27T10:15:50.071Z</time>
      </trkpt>
      <trkpt lat="45.5539" lon="6.04697">
        <ele>1033</ele>
        <time>2021-06-27T10:15:51.071Z</time>
      </trkpt>
      <trkpt lat="45.5539" lon="6.04697">
        <ele>1032</ele>
        <time>2021-06-27T10:15:52.071Z</time>
      </trkpt>
      <trkpt lat="45.55391" lon="6.04697">
        <ele>1031</ele>
        <time>2021-06-27T10:15:53.070Z</time>
      </trkpt>
      <trkpt lat="45.55391" lon="6.04696">
        <ele>1031</ele>
        <time>2021-06-27T10:15:54.071Z</time>
      </trkpt>
      <trkpt lat="45.55391" lon="6.04696">
        <ele>1031</ele>
        <time>2021-06-27T10:15:55.071Z</time>
      </trkpt>
      <trkpt lat="45.55391" lon="6.04696">
        <ele>1030</ele>
        <time>2021-06-27T10:15:56.071Z</time>
      </trkpt>
      <trkpt lat="45.55392" lon="6.04696">
        <ele>1030</ele>
        <time>2021-06-27T10:15:57.071Z</time>
      </trkpt>
      <trkpt lat="45.55392" lon="6.04695">
        <ele>1030</ele>
        <time>2021-06-27T10:15:58.070Z</time>
      </trkpt>
      <trkpt lat="45.55393" lon="6.04695">
        <ele>1030</ele>
        <time>2021-06-27T10:15:59.071Z</time>
      </trkpt>
      <trkpt lat="45.55393" lon="6.04696">
        <ele>1031</ele>
        <time>2021-06-27T10:16:00.071Z</time>
      </trkpt>
      <trkpt lat="45.55394" lon="6.04697">
        <ele>1031</ele>
        <time>2021-06-27T10:16:01.071Z</time>
      </trkpt>
      <trkpt lat="45.55395" lon="6.04698">
        <ele>1031</ele>
        <time>2021-06-27T10:16:02.071Z</time>
      </trkpt>
      <trkpt lat="45.55396" lon="6.04698">
        <ele>1031</ele>
        <time>2021-06-27T10:16:03.070Z</time>
      </trkpt>
      <trkpt lat="45.55396" lon="6.04698">
        <ele>1031</ele>
        <time>2021-06-27T10:16:04.071Z</time>
      </trkpt>
      <trkpt lat="45.55396" lon="6.04698">
        <ele>1031</ele>
        <time>2021-06-27T10:16:05.071Z</time>
      </trkpt>
      <trkpt lat="45.55397" lon="6.04699">
        <ele>1031</ele>
        <time>2021-06-27T10:16:06.070Z</time>
      </trkpt>
      <trkpt lat="45.55397" lon="6.04698">
        <ele>1032</ele>
        <time>2021-06-27T10:16:07.070Z</time>
      </trkpt>
      <trkpt lat="45.55398" lon="6.04697">
        <ele>1032</ele>
        <time>2021-06-27T10:16:08.071Z</time>
      </trkpt>
      <trkpt lat="45.55398" lon="6.04697">
        <ele>1032</ele>
        <time>2021-06-27T10:16:09.071Z</time>
      </trkpt>
      <trkpt lat="45.55399" lon="6.04696">
        <ele>1032</ele>
        <time>2021-06-27T10:16:10.071Z</time>
      </trkpt>
      <trkpt lat="45.554" lon="6.04697">
        <ele>1032</ele>
        <time>2021-06-27T10:16:11.070Z</time>
      </trkpt>
      <trkpt lat="45.554" lon="6.04697">
        <ele>1032</ele>
        <time>2021-06-27T10:16:12.071Z</time>
      </trkpt>
      <trkpt lat="45.55401" lon="6.04696">
        <ele>1032</ele>
        <time>2021-06-27T10:16:13.071Z</time>
      </trkpt>
      <trkpt lat="45.55402" lon="6.04695">
        <ele>1032</ele>
        <time>2021-06-27T10:16:14.071Z</time>
      </trkpt>
      <trkpt lat="45.55402" lon="6.04695">
        <ele>1033</ele>
        <time>2021-06-27T10:16:15.071Z</time>
      </trkpt>
      <trkpt lat="45.55402" lon="6.04694">
        <ele>1033</ele>
        <time>2021-06-27T10:16:16.070Z</time>
      </trkpt>
      <trkpt lat="45.55402" lon="6.04693">
        <ele>1034</ele>
        <time>2021-06-27T10:16:17.071Z</time>
      </trkpt>
      <trkpt lat="45.55402" lon="6.04692">
        <ele>1034</ele>
        <time>2021-06-27T10:16:18.070Z</time>
      </trkpt>
      <trkpt lat="45.55403" lon="6.04691">
        <ele>1034</ele>
        <time>2021-06-27T10:16:19.071Z</time>
      </trkpt>
      <trkpt lat="45.55404" lon="6.04691">
        <ele>1034</ele>
        <time>2021-06-27T10:16:20.071Z</time>
      </trkpt>
      <trkpt lat="45.55404" lon="6.04691">
        <ele>1034</ele>
        <time>2021-06-27T10:16:21.071Z</time>
      </trkpt>
      <trkpt lat="45.55404" lon="6.0469">
        <ele>1034</ele>
        <time>2021-06-27T10:16:22.070Z</time>
      </trkpt>
      <trkpt lat="45.55405" lon="6.0469">
        <ele>1033</ele>
        <time>2021-06-27T10:16:23.070Z</time>
      </trkpt>
      <trkpt lat="45.55405" lon="6.0469">
        <ele>1033</ele>
        <time>2021-06-27T10:16:24.070Z</time>
      </trkpt>
      <trkpt lat="45.55405" lon="6.0469">
        <ele>1033</ele>
        <time>2021-06-27T10:16:25.071Z</time>
      </trkpt>
      <trkpt lat="45.55406" lon="6.0469">
        <ele>1032</ele>
        <time>2021-06-27T10:16:26.071Z</time>
      </trkpt>
      <trkpt lat="45.55407" lon="6.04689">
        <ele>1032</ele>
        <time>2021-06-27T10:16:27.070Z</time>
      </trkpt>
      <trkpt lat="45.55408" lon="6.04689">
        <ele>1031</ele>
        <time>2021-06-27T10:16:28.070Z</time>
      </trkpt>
      <trkpt lat="45.5541" lon="6.04689">
        <ele>1031</ele>
        <time>2021-06-27T10:16:29.070Z</time>
      </trkpt>
      <trkpt lat="45.5541" lon="6.04688">
        <ele>1031</ele>
        <time>2021-06-27T10:16:30.071Z</time>
      </trkpt>
      <trkpt lat="45.55411" lon="6.04688">
        <ele>1031</ele>
        <time>2021-06-27T10:16:31.071Z</time>
      </trkpt>
      <trkpt lat="45.55411" lon="6.04688">
        <ele>1031</ele>
        <time>2021-06-27T10:16:32.071Z</time>
      </trkpt>
      <trkpt lat="45.55411" lon="6.04688">
        <ele>1031</ele>
        <time>2021-06-27T10:16:33.071Z</time>
      </trkpt>
      <trkpt lat="45.55411" lon="6.04688">
        <ele>1031</ele>
        <time>2021-06-27T10:16:34.071Z</time>
      </trkpt>
      <trkpt lat="45.55411" lon="6.04688">
        <ele>1032</ele>
        <time>2021-06-27T10:16:35.071Z</time>
      </trkpt>
      <trkpt lat="45.55411" lon="6.04688">
        <ele>1032</ele>
        <time>2021-06-27T10:16:36.071Z</time>
      </trkpt>
      <trkpt lat="45.55411" lon="6.04687">
        <ele>1031</ele>
        <time>2021-06-27T10:16:37.071Z</time>
      </trkpt>
      <trkpt lat="45.55411" lon="6.04686">
        <ele>1031</ele>
        <time>2021-06-27T10:16:38.071Z</time>
      </trkpt>
      <trkpt lat="45.55411" lon="6.04685">
        <ele>1031</ele>
        <time>2021-06-27T10:16:39.071Z</time>
      </trkpt>
      <trkpt lat="45.55412" lon="6.04685">
        <ele>1031</ele>
        <time>2021-06-27T10:16:40.071Z</time>
      </trkpt>
      <trkpt lat="45.55413" lon="6.04684">
        <ele>1032</ele>
        <time>2021-06-27T10:16:41.071Z</time>
      </trkpt>
      <trkpt lat="45.55413" lon="6.04683">
        <ele>1031</ele>
        <time>2021-06-27T10:16:42.071Z</time>
      </trkpt>
      <trkpt lat="45.55414" lon="6.04683">
        <ele>1031</ele>
        <time>2021-06-27T10:16:43.070Z</time>
      </trkpt>
      <trkpt lat="45.55415" lon="6.04682">
        <ele>1031</ele>
        <time>2021-06-27T10:16:44.071Z</time>
      </trkpt>
      <trkpt lat="45.55415" lon="6.04682">
        <ele>1030</ele>
        <time>2021-06-27T10:16:45.071Z</time>
      </trkpt>
      <trkpt lat="45.55416" lon="6.04681">
        <ele>1030</ele>
        <time>2021-06-27T10:16:46.070Z</time>
      </trkpt>
      <trkpt lat="45.55416" lon="6.0468">
        <ele>1030</ele>
        <time>2021-06-27T10:16:47.071Z</time>
      </trkpt>
      <trkpt lat="45.55416" lon="6.04679">
        <ele>1030</ele>
        <time>2021-06-27T10:16:48.071Z</time>
      </trkpt>
      <trkpt lat="45.55417" lon="6.04678">
        <ele>1030</ele>
        <time>2021-06-27T10:16:49.071Z</time>
      </trkpt>
      <trkpt lat="45.55417" lon="6.04677">
        <ele>1030</ele>
        <time>2021-06-27T10:16:50.071Z</time>
      </trkpt>
      <trkpt lat="45.55417" lon="6.04677">
        <ele>1030</ele>
        <time>2021-06-27T10:16:51.071Z</time>
      </trkpt>
      <trkpt lat="45.55417" lon="6.04676">
        <ele>1030</ele>
        <time>2021-06-27T10:16:52.071Z</time>
      </trkpt>
      <trkpt lat="45.55417" lon="6.04675">
        <ele>1030</ele>
        <time>2021-06-27T10:16:53.071Z</time>
      </trkpt>
      <trkpt lat="45.55417" lon="6.04675">
        <ele>1030</ele>
        <time>2021-06-27T10:16:54.071Z</time>
      </trkpt>
      <trkpt lat="45.55418" lon="6.04673">
        <ele>1030</ele>
        <time>2021-06-27T10:16:55.071Z</time>
      </trkpt>
      <trkpt lat="45.55419" lon="6.04672">
        <ele>1029</ele>
        <time>2021-06-27T10:16:56.071Z</time>
      </trkpt>
      <trkpt lat="45.55419" lon="6.04671">
        <ele>1029</ele>
        <time>2021-06-27T10:16:57.071Z</time>
      </trkpt>
      <trkpt lat="45.55419" lon="6.0467">
        <ele>1028</ele>
        <time>2021-06-27T10:16:58.071Z</time>
      </trkpt>
      <trkpt lat="45.5542" lon="6.04669">
        <ele>1028</ele>
        <time>2021-06-27T10:16:59.071Z</time>
      </trkpt>
      <trkpt lat="45.55421" lon="6.04668">
        <ele>1028</ele>
        <time>2021-06-27T10:17:00.071Z</time>
      </trkpt>
      <trkpt lat="45.55422" lon="6.04667">
        <ele>1027</ele>
        <time>2021-06-27T10:17:01.070Z</time>
      </trkpt>
      <trkpt lat="45.55422" lon="6.04667">
        <ele>1027</ele>
        <time>2021-06-27T10:17:02.071Z</time>
      </trkpt>
      <trkpt lat="45.55423" lon="6.04667">
        <ele>1027</ele>
        <time>2021-06-27T10:17:03.071Z</time>
      </trkpt>
      <trkpt lat="45.55424" lon="6.04666">
        <ele>1026</ele>
        <time>2021-06-27T10:17:04.070Z</time>
      </trkpt>
      <trkpt lat="45.55424" lon="6.04665">
        <ele>1026</ele>
        <time>2021-06-27T10:17:05.071Z</time>
      </trkpt>
      <trkpt lat="45.55425" lon="6.04665">
        <ele>1025</ele>
        <time>2021-06-27T10:17:06.071Z</time>
      </trkpt>
      <trkpt lat="45.55425" lon="6.04665">
        <ele>1025</ele>
        <time>2021-06-27T10:17:07.071Z</time>
      </trkpt>
      <trkpt lat="45.55426" lon="6.04665">
        <ele>1025</ele>
        <time>2021-06-27T10:17:08.071Z</time>
      </trkpt>
      <trkpt lat="45.55426" lon="6.04665">
        <ele>1025</ele>
        <time>2021-06-27T10:17:09.071Z</time>
      </trkpt>
      <trkpt lat="45.55427" lon="6.04664">
        <ele>1024</ele>
        <time>2021-06-27T10:17:10.071Z</time>
      </trkpt>
      <trkpt lat="45.55427" lon="6.04664">
        <ele>1024</ele>
        <time>2021-06-27T10:17:11.070Z</time>
      </trkpt>
      <trkpt lat="45.55428" lon="6.04663">
        <ele>1024</ele>
        <time>2021-06-27T10:17:12.070Z</time>
      </trkpt>
      <trkpt lat="45.55428" lon="6.04662">
        <ele>1023</ele>
        <time>2021-06-27T10:17:13.071Z</time>
      </trkpt>
      <trkpt lat="45.55429" lon="6.04661">
        <ele>1023</ele>
        <time>2021-06-27T10:17:14.071Z</time>
      </trkpt>
      <trkpt lat="45.5543" lon="6.04661">
        <ele>1023</ele>
        <time>2021-06-27T10:17:15.071Z</time>
      </trkpt>
      <trkpt lat="45.5543" lon="6.04661">
        <ele>1022</ele>
        <time>2021-06-27T10:17:16.071Z</time>
      </trkpt>
      <trkpt lat="45.55431" lon="6.0466">
        <ele>1022</ele>
        <time>2021-06-27T10:17:17.071Z</time>
      </trkpt>
      <trkpt lat="45.5543" lon="6.04659">
        <ele>1022</ele>
        <time>2021-06-27T10:17:18.071Z</time>
      </trkpt>
      <trkpt lat="45.5543" lon="6.04658">
        <ele>1022</ele>
        <time>2021-06-27T10:17:19.070Z</time>
      </trkpt>
      <trkpt lat="45.55431" lon="6.04658">
        <ele>1022</ele>
        <time>2021-06-27T10:17:20.071Z</time>
      </trkpt>
      <trkpt lat="45.55431" lon="6.04658">
        <ele>1021</ele>
        <time>2021-06-27T10:17:21.071Z</time>
      </trkpt>
      <trkpt lat="45.55432" lon="6.04658">
        <ele>1021</ele>
        <time>2021-06-27T10:17:22.071Z</time>
      </trkpt>
      <trkpt lat="45.55433" lon="6.04657">
        <ele>1020</ele>
        <time>2021-06-27T10:17:23.071Z</time>
      </trkpt>
      <trkpt lat="45.55433" lon="6.04657">
        <ele>1020</ele>
        <time>2021-06-27T10:17:24.070Z</time>
      </trkpt>
      <trkpt lat="45.55433" lon="6.04657">
        <ele>1020</ele>
        <time>2021-06-27T10:17:25.071Z</time>
      </trkpt>
      <trkpt lat="45.55434" lon="6.04657">
        <ele>1020</ele>
        <time>2021-06-27T10:17:26.070Z</time>
      </trkpt>
      <trkpt lat="45.55434" lon="6.04657">
        <ele>1020</ele>
        <time>2021-06-27T10:17:27.071Z</time>
      </trkpt>
      <trkpt lat="45.55434" lon="6.04657">
        <ele>1020</ele>
        <time>2021-06-27T10:17:28.071Z</time>
      </trkpt>
      <trkpt lat="45.55434" lon="6.04656">
        <ele>1019</ele>
        <time>2021-06-27T10:17:29.071Z</time>
      </trkpt>
      <trkpt lat="45.55435" lon="6.04656">
        <ele>1019</ele>
        <time>2021-06-27T10:17:30.071Z</time>
      </trkpt>
      <trkpt lat="45.55435" lon="6.04655">
        <ele>1019</ele>
        <time>2021-06-27T10:17:31.071Z</time>
      </trkpt>
      <trkpt lat="45.55436" lon="6.04654">
        <ele>1019</ele>
        <time>2021-06-27T10:17:32.071Z</time>
      </trkpt>
      <trkpt lat="45.55437" lon="6.04654">
        <ele>1019</ele>
        <time>2021-06-27T10:17:33.071Z</time>
      </trkpt>
      <trkpt lat="45.55437" lon="6.04653">
        <ele>1019</ele>
        <time>2021-06-27T10:17:34.071Z</time>
      </trkpt>
      <trkpt lat="45.55437" lon="6.04652">
        <ele>1019</ele>
        <time>2021-06-27T10:17:35.071Z</time>
      </trkpt>
      <trkpt lat="45.55438" lon="6.04652">
        <ele>1019</ele>
        <time>2021-06-27T10:17:36.071Z</time>
      </trkpt>
      <trkpt lat="45.55438" lon="6.04652">
        <ele>1019</ele>
        <time>2021-06-27T10:17:37.071Z</time>
      </trkpt>
      <trkpt lat="45.55438" lon="6.04652">
        <ele>1019</ele>
        <time>2021-06-27T10:17:38.071Z</time>
      </trkpt>
      <trkpt lat="45.55438" lon="6.04652">
        <ele>1019</ele>
        <time>2021-06-27T10:17:39.070Z</time>
      </trkpt>
      <trkpt lat="45.55439" lon="6.04651">
        <ele>1019</ele>
        <time>2021-06-27T10:17:40.071Z</time>
      </trkpt>
      <trkpt lat="45.55439" lon="6.0465">
        <ele>1019</ele>
        <time>2021-06-27T10:17:41.071Z</time>
      </trkpt>
      <trkpt lat="45.5544" lon="6.04649">
        <ele>1019</ele>
        <time>2021-06-27T10:17:42.071Z</time>
      </trkpt>
      <trkpt lat="45.5544" lon="6.04648">
        <ele>1019</ele>
        <time>2021-06-27T10:17:43.071Z</time>
      </trkpt>
      <trkpt lat="45.55442" lon="6.04647">
        <ele>1019</ele>
        <time>2021-06-27T10:17:44.070Z</time>
      </trkpt>
      <trkpt lat="45.55444" lon="6.04646">
        <ele>1019</ele>
        <time>2021-06-27T10:17:45.071Z</time>
      </trkpt>
      <trkpt lat="45.55444" lon="6.04646">
        <ele>1019</ele>
        <time>2021-06-27T10:17:46.071Z</time>
      </trkpt>
      <trkpt lat="45.55445" lon="6.04644">
        <ele>1019</ele>
        <time>2021-06-27T10:17:47.071Z</time>
      </trkpt>
      <trkpt lat="45.55445" lon="6.04644">
        <ele>1019</ele>
        <time>2021-06-27T10:17:48.071Z</time>
      </trkpt>
      <trkpt lat="45.55445" lon="6.04643">
        <ele>1019</ele>
        <time>2021-06-27T10:17:49.070Z</time>
      </trkpt>
      <trkpt lat="45.55446" lon="6.04642">
        <ele>1018</ele>
        <time>2021-06-27T10:17:50.071Z</time>
      </trkpt>
      <trkpt lat="45.55446" lon="6.04641">
        <ele>1018</ele>
        <time>2021-06-27T10:17:51.071Z</time>
      </trkpt>
      <trkpt lat="45.55447" lon="6.0464">
        <ele>1017</ele>
        <time>2021-06-27T10:17:52.071Z</time>
      </trkpt>
      <trkpt lat="45.55447" lon="6.04639">
        <ele>1017</ele>
        <time>2021-06-27T10:17:53.071Z</time>
      </trkpt>
      <trkpt lat="45.55446" lon="6.04639">
        <ele>1017</ele>
        <time>2021-06-27T10:17:54.071Z</time>
      </trkpt>
      <trkpt lat="45.55447" lon="6.04638">
        <ele>1017</ele>
        <time>2021-06-27T10:17:55.071Z</time>
      </trkpt>
      <trkpt lat="45.55447" lon="6.04638">
        <ele>1017</ele>
        <time>2021-06-27T10:17:56.071Z</time>
      </trkpt>
      <trkpt lat="45.55447" lon="6.04637">
        <ele>1016</ele>
        <time>2021-06-27T10:17:57.070Z</time>
      </trkpt>
      <trkpt lat="45.55447" lon="6.04637">
        <ele>1016</ele>
        <time>2021-06-27T10:17:58.071Z</time>
      </trkpt>
      <trkpt lat="45.55447" lon="6.04636">
        <ele>1016</ele>
        <time>2021-06-27T10:17:59.071Z</time>
      </trkpt>
      <trkpt lat="45.55448" lon="6.04635">
        <ele>1016</ele>
        <time>2021-06-27T10:18:00.071Z</time>
      </trkpt>
      <trkpt lat="45.55448" lon="6.04634">
        <ele>1016</ele>
        <time>2021-06-27T10:18:01.071Z</time>
      </trkpt>
      <trkpt lat="45.55449" lon="6.04633">
        <ele>1016</ele>
        <time>2021-06-27T10:18:02.070Z</time>
      </trkpt>
      <trkpt lat="45.5545" lon="6.04632">
        <ele>1015</ele>
        <time>2021-06-27T10:18:03.070Z</time>
      </trkpt>
      <trkpt lat="45.55451" lon="6.04631">
        <ele>1015</ele>
        <time>2021-06-27T10:18:04.071Z</time>
      </trkpt>
      <trkpt lat="45.55453" lon="6.0463">
        <ele>1014</ele>
        <time>2021-06-27T10:18:05.071Z</time>
      </trkpt>
      <trkpt lat="45.55455" lon="6.0463">
        <ele>1014</ele>
        <time>2021-06-27T10:18:06.070Z</time>
      </trkpt>
      <trkpt lat="45.55456" lon="6.04629">
        <ele>1014</ele>
        <time>2021-06-27T10:18:07.071Z</time>
      </trkpt>
      <trkpt lat="45.55457" lon="6.04629">
        <ele>1013</ele>
        <time>2021-06-27T10:18:08.071Z</time>
      </trkpt>
      <trkpt lat="45.55457" lon="6.04628">
        <ele>1013</ele>
        <time>2021-06-27T10:18:09.071Z</time>
      </trkpt>
      <trkpt lat="45.55458" lon="6.04627">
        <ele>1013</ele>
        <time>2021-06-27T10:18:10.071Z</time>
      </trkpt>
      <trkpt lat="45.55458" lon="6.04627">
        <ele>1013</ele>
        <time>2021-06-27T10:18:11.071Z</time>
      </trkpt>
      <trkpt lat="45.55459" lon="6.04627">
        <ele>1013</ele>
        <time>2021-06-27T10:18:12.071Z</time>
      </trkpt>
      <trkpt lat="45.55459" lon="6.04626">
        <ele>1013</ele>
        <time>2021-06-27T10:18:13.070Z</time>
      </trkpt>
      <trkpt lat="45.5546" lon="6.04626">
        <ele>1013</ele>
        <time>2021-06-27T10:18:14.071Z</time>
      </trkpt>
      <trkpt lat="45.55461" lon="6.04625">
        <ele>1013</ele>
        <time>2021-06-27T10:18:15.071Z</time>
      </trkpt>
      <trkpt lat="45.55462" lon="6.04626">
        <ele>1013</ele>
        <time>2021-06-27T10:18:16.071Z</time>
      </trkpt>
      <trkpt lat="45.55463" lon="6.04627">
        <ele>1013</ele>
        <time>2021-06-27T10:18:17.071Z</time>
      </trkpt>
      <trkpt lat="45.55464" lon="6.04628">
        <ele>1013</ele>
        <time>2021-06-27T10:18:18.070Z</time>
      </trkpt>
      <trkpt lat="45.55464" lon="6.04628">
        <ele>1013</ele>
        <time>2021-06-27T10:18:19.071Z</time>
      </trkpt>
      <trkpt lat="45.55465" lon="6.04627">
        <ele>1012</ele>
        <time>2021-06-27T10:18:20.071Z</time>
      </trkpt>
      <trkpt lat="45.55466" lon="6.04627">
        <ele>1012</ele>
        <time>2021-06-27T10:18:21.071Z</time>
      </trkpt>
      <trkpt lat="45.55467" lon="6.04626">
        <ele>1011</ele>
        <time>2021-06-27T10:18:22.070Z</time>
      </trkpt>
      <trkpt lat="45.55467" lon="6.04625">
        <ele>1010</ele>
        <time>2021-06-27T10:18:23.071Z</time>
      </trkpt>
      <trkpt lat="45.55468" lon="6.04623">
        <ele>1009</ele>
        <time>2021-06-27T10:18:24.071Z</time>
      </trkpt>
      <trkpt lat="45.55468" lon="6.04622">
        <ele>1009</ele>
        <time>2021-06-27T10:18:25.071Z</time>
      </trkpt>
      <trkpt lat="45.55469" lon="6.04621">
        <ele>1008</ele>
        <time>2021-06-27T10:18:26.070Z</time>
      </trkpt>
      <trkpt lat="45.5547" lon="6.0462">
        <ele>1008</ele>
        <time>2021-06-27T10:18:27.070Z</time>
      </trkpt>
      <trkpt lat="45.5547" lon="6.0462">
        <ele>1007</ele>
        <time>2021-06-27T10:18:28.071Z</time>
      </trkpt>
      <trkpt lat="45.55471" lon="6.04619">
        <ele>1006</ele>
        <time>2021-06-27T10:18:29.071Z</time>
      </trkpt>
      <trkpt lat="45.55473" lon="6.04619">
        <ele>1006</ele>
        <time>2021-06-27T10:18:30.071Z</time>
      </trkpt>
      <trkpt lat="45.55474" lon="6.04619">
        <ele>1005</ele>
        <time>2021-06-27T10:18:31.071Z</time>
      </trkpt>
      <trkpt lat="45.55476" lon="6.04618">
        <ele>1004</ele>
        <time>2021-06-27T10:18:32.071Z</time>
      </trkpt>
      <trkpt lat="45.55478" lon="6.04618">
        <ele>1003</ele>
        <time>2021-06-27T10:18:33.071Z</time>
      </trkpt>
      <trkpt lat="45.5548" lon="6.04617">
        <ele>1003</ele>
        <time>2021-06-27T10:18:34.071Z</time>
      </trkpt>
      <trkpt lat="45.55482" lon="6.04617">
        <ele>1003</ele>
        <time>2021-06-27T10:18:35.071Z</time>
      </trkpt>
      <trkpt lat="45.55484" lon="6.04616">
        <ele>1003</ele>
        <time>2021-06-27T10:18:36.071Z</time>
      </trkpt>
      <trkpt lat="45.55486" lon="6.04616">
        <ele>1003</ele>
        <time>2021-06-27T10:18:37.071Z</time>
      </trkpt>
      <trkpt lat="45.55487" lon="6.04615">
        <ele>1004</ele>
        <time>2021-06-27T10:18:38.070Z</time>
      </trkpt>
      <trkpt lat="45.55488" lon="6.04615">
        <ele>1004</ele>
        <time>2021-06-27T10:18:39.071Z</time>
      </trkpt>
      <trkpt lat="45.5549" lon="6.04616">
        <ele>1004</ele>
        <time>2021-06-27T10:18:40.071Z</time>
      </trkpt>
      <trkpt lat="45.55492" lon="6.04617">
        <ele>1004</ele>
        <time>2021-06-27T10:18:41.070Z</time>
      </trkpt>
      <trkpt lat="45.55495" lon="6.04618">
        <ele>1004</ele>
        <time>2021-06-27T10:18:42.070Z</time>
      </trkpt>
      <trkpt lat="45.55496" lon="6.04619">
        <ele>1003</ele>
        <time>2021-06-27T10:18:43.070Z</time>
      </trkpt>
      <trkpt lat="45.55497" lon="6.0462">
        <ele>1003</ele>
        <time>2021-06-27T10:18:44.071Z</time>
      </trkpt>
      <trkpt lat="45.55499" lon="6.0462">
        <ele>1003</ele>
        <time>2021-06-27T10:18:45.071Z</time>
      </trkpt>
      <trkpt lat="45.555" lon="6.04621">
        <ele>1003</ele>
        <time>2021-06-27T10:18:46.070Z</time>
      </trkpt>
      <trkpt lat="45.55501" lon="6.04622">
        <ele>1003</ele>
        <time>2021-06-27T10:18:47.071Z</time>
      </trkpt>
      <trkpt lat="45.55502" lon="6.04622">
        <ele>1002</ele>
        <time>2021-06-27T10:18:48.071Z</time>
      </trkpt>
      <trkpt lat="45.55503" lon="6.04623">
        <ele>1002</ele>
        <time>2021-06-27T10:18:49.070Z</time>
      </trkpt>
      <trkpt lat="45.55504" lon="6.04624">
        <ele>1001</ele>
        <time>2021-06-27T10:18:50.071Z</time>
      </trkpt>
      <trkpt lat="45.55504" lon="6.04624">
        <ele>1001</ele>
        <time>2021-06-27T10:18:51.071Z</time>
      </trkpt>
      <trkpt lat="45.55505" lon="6.04625">
        <ele>1000</ele>
        <time>2021-06-27T10:18:52.071Z</time>
      </trkpt>
      <trkpt lat="45.55506" lon="6.04625">
        <ele>999</ele>
        <time>2021-06-27T10:18:53.071Z</time>
      </trkpt>
      <trkpt lat="45.55507" lon="6.04625">
        <ele>999</ele>
        <time>2021-06-27T10:18:54.071Z</time>
      </trkpt>
      <trkpt lat="45.55509" lon="6.04625">
        <ele>999</ele>
        <time>2021-06-27T10:18:55.070Z</time>
      </trkpt>
      <trkpt lat="45.5551" lon="6.04626">
        <ele>999</ele>
        <time>2021-06-27T10:18:56.071Z</time>
      </trkpt>
      <trkpt lat="45.55511" lon="6.04626">
        <ele>999</ele>
        <time>2021-06-27T10:18:57.071Z</time>
      </trkpt>
      <trkpt lat="45.55513" lon="6.04627">
        <ele>1000</ele>
        <time>2021-06-27T10:18:58.071Z</time>
      </trkpt>
      <trkpt lat="45.55514" lon="6.04628">
        <ele>1000</ele>
        <time>2021-06-27T10:18:59.071Z</time>
      </trkpt>
      <trkpt lat="45.55515" lon="6.04628">
        <ele>1000</ele>
        <time>2021-06-27T10:19:00.071Z</time>
      </trkpt>
      <trkpt lat="45.55517" lon="6.04628">
        <ele>1000</ele>
        <time>2021-06-27T10:19:01.071Z</time>
      </trkpt>
      <trkpt lat="45.55518" lon="6.04629">
        <ele>1000</ele>
        <time>2021-06-27T10:19:02.071Z</time>
      </trkpt>
      <trkpt lat="45.5552" lon="6.04628">
        <ele>1000</ele>
        <time>2021-06-27T10:19:03.071Z</time>
      </trkpt>
      <trkpt lat="45.55522" lon="6.04629">
        <ele>1000</ele>
        <time>2021-06-27T10:19:04.071Z</time>
      </trkpt>
      <trkpt lat="45.55524" lon="6.04628">
        <ele>1000</ele>
        <time>2021-06-27T10:19:05.070Z</time>
      </trkpt>
      <trkpt lat="45.55526" lon="6.04627">
        <ele>1000</ele>
        <time>2021-06-27T10:19:06.071Z</time>
      </trkpt>
      <trkpt lat="45.55527" lon="6.04626">
        <ele>1000</ele>
        <time>2021-06-27T10:19:07.070Z</time>
      </trkpt>
      <trkpt lat="45.55529" lon="6.04626">
        <ele>1000</ele>
        <time>2021-06-27T10:19:08.070Z</time>
      </trkpt>
      <trkpt lat="45.5553" lon="6.04625">
        <ele>1000</ele>
        <time>2021-06-27T10:19:09.071Z</time>
      </trkpt>
      <trkpt lat="45.55532" lon="6.04625">
        <ele>1000</ele>
        <time>2021-06-27T10:19:10.071Z</time>
      </trkpt>
      <trkpt lat="45.55533" lon="6.04625">
        <ele>1000</ele>
        <time>2021-06-27T10:19:11.071Z</time>
      </trkpt>
      <trkpt lat="45.55535" lon="6.04626">
        <ele>1000</ele>
        <time>2021-06-27T10:19:12.071Z</time>
      </trkpt>
      <trkpt lat="45.55536" lon="6.04626">
        <ele>1000</ele>
        <time>2021-06-27T10:19:13.071Z</time>
      </trkpt>
      <trkpt lat="45.55538" lon="6.04626">
        <ele>1000</ele>
        <time>2021-06-27T10:19:14.070Z</time>
      </trkpt>
      <trkpt lat="45.55539" lon="6.04627">
        <ele>1000</ele>
        <time>2021-06-27T10:19:15.071Z</time>
      </trkpt>
      <trkpt lat="45.5554" lon="6.04627">
        <ele>1000</ele>
        <time>2021-06-27T10:19:16.071Z</time>
      </trkpt>
      <trkpt lat="45.55542" lon="6.04627">
        <ele>1000</ele>
        <time>2021-06-27T10:19:17.071Z</time>
      </trkpt>
      <trkpt lat="45.55543" lon="6.04628">
        <ele>999</ele>
        <time>2021-06-27T10:19:18.071Z</time>
      </trkpt>
      <trkpt lat="45.55544" lon="6.04629">
        <ele>999</ele>
        <time>2021-06-27T10:19:19.071Z</time>
      </trkpt>
      <trkpt lat="45.55546" lon="6.04629">
        <ele>999</ele>
        <time>2021-06-27T10:19:20.071Z</time>
      </trkpt>
      <trkpt lat="45.55547" lon="6.04628">
        <ele>999</ele>
        <time>2021-06-27T10:19:21.071Z</time>
      </trkpt>
      <trkpt lat="45.55548" lon="6.04628">
        <ele>999</ele>
        <time>2021-06-27T10:19:22.071Z</time>
      </trkpt>
      <trkpt lat="45.55549" lon="6.04627">
        <ele>999</ele>
        <time>2021-06-27T10:19:23.071Z</time>
      </trkpt>
      <trkpt lat="45.5555" lon="6.04626">
        <ele>999</ele>
        <time>2021-06-27T10:19:24.071Z</time>
      </trkpt>
      <trkpt lat="45.55551" lon="6.04626">
        <ele>999</ele>
        <time>2021-06-27T10:19:25.071Z</time>
      </trkpt>
      <trkpt lat="45.55552" lon="6.04626">
        <ele>999</ele>
        <time>2021-06-27T10:19:26.070Z</time>
      </trkpt>
      <trkpt lat="45.55554" lon="6.04626">
        <ele>998</ele>
        <time>2021-06-27T10:19:27.071Z</time>
      </trkpt>
      <trkpt lat="45.55555" lon="6.04626">
        <ele>998</ele>
        <time>2021-06-27T10:19:28.071Z</time>
      </trkpt>
      <trkpt lat="45.55557" lon="6.04626">
        <ele>997</ele>
        <time>2021-06-27T10:19:29.071Z</time>
      </trkpt>
      <trkpt lat="45.55558" lon="6.04626">
        <ele>997</ele>
        <time>2021-06-27T10:19:30.071Z</time>
      </trkpt>
      <trkpt lat="45.5556" lon="6.04628">
        <ele>997</ele>
        <time>2021-06-27T10:19:31.071Z</time>
      </trkpt>
      <trkpt lat="45.55561" lon="6.04629">
        <ele>996</ele>
        <time>2021-06-27T10:19:32.071Z</time>
      </trkpt>
      <trkpt lat="45.55562" lon="6.04629">
        <ele>996</ele>
        <time>2021-06-27T10:19:33.071Z</time>
      </trkpt>
      <trkpt lat="45.55564" lon="6.04629">
        <ele>995</ele>
        <time>2021-06-27T10:19:34.071Z</time>
      </trkpt>
      <trkpt lat="45.55565" lon="6.0463">
        <ele>994</ele>
        <time>2021-06-27T10:19:35.071Z</time>
      </trkpt>
      <trkpt lat="45.55567" lon="6.0463">
        <ele>994</ele>
        <time>2021-06-27T10:19:36.071Z</time>
      </trkpt>
      <trkpt lat="45.55568" lon="6.04631">
        <ele>994</ele>
        <time>2021-06-27T10:19:37.071Z</time>
      </trkpt>
      <trkpt lat="45.55569" lon="6.04631">
        <ele>993</ele>
        <time>2021-06-27T10:19:38.071Z</time>
      </trkpt>
      <trkpt lat="45.55571" lon="6.04631">
        <ele>993</ele>
        <time>2021-06-27T10:19:39.071Z</time>
      </trkpt>
      <trkpt lat="45.55572" lon="6.04631">
        <ele>993</ele>
        <time>2021-06-27T10:19:40.071Z</time>
      </trkpt>
      <trkpt lat="45.55574" lon="6.04631">
        <ele>993</ele>
        <time>2021-06-27T10:19:41.070Z</time>
      </trkpt>
      <trkpt lat="45.55575" lon="6.04631">
        <ele>993</ele>
        <time>2021-06-27T10:19:42.071Z</time>
      </trkpt>
      <trkpt lat="45.55577" lon="6.04631">
        <ele>994</ele>
        <time>2021-06-27T10:19:43.071Z</time>
      </trkpt>
      <trkpt lat="45.55579" lon="6.0463">
        <ele>995</ele>
        <time>2021-06-27T10:19:44.071Z</time>
      </trkpt>
      <trkpt lat="45.5558" lon="6.04629">
        <ele>996</ele>
        <time>2021-06-27T10:19:45.071Z</time>
      </trkpt>
      <trkpt lat="45.55582" lon="6.04629">
        <ele>996</ele>
        <time>2021-06-27T10:19:46.071Z</time>
      </trkpt>
      <trkpt lat="45.55583" lon="6.04629">
        <ele>998</ele>
        <time>2021-06-27T10:19:47.071Z</time>
      </trkpt>
      <trkpt lat="45.55585" lon="6.04628">
        <ele>999</ele>
        <time>2021-06-27T10:19:48.071Z</time>
      </trkpt>
      <trkpt lat="45.55587" lon="6.04627">
        <ele>1000</ele>
        <time>2021-06-27T10:19:49.071Z</time>
      </trkpt>
      <trkpt lat="45.55589" lon="6.04627">
        <ele>1001</ele>
        <time>2021-06-27T10:19:50.071Z</time>
      </trkpt>
      <trkpt lat="45.5559" lon="6.04627">
        <ele>1001</ele>
        <time>2021-06-27T10:19:51.071Z</time>
      </trkpt>
      <trkpt lat="45.5559" lon="6.04627">
        <ele>1001</ele>
        <time>2021-06-27T10:19:52.071Z</time>
      </trkpt>
      <trkpt lat="45.55591" lon="6.04628">
        <ele>1001</ele>
        <time>2021-06-27T10:19:53.071Z</time>
      </trkpt>
      <trkpt lat="45.55593" lon="6.04628">
        <ele>1000</ele>
        <time>2021-06-27T10:19:54.070Z</time>
      </trkpt>
      <trkpt lat="45.55594" lon="6.04629">
        <ele>1000</ele>
        <time>2021-06-27T10:19:55.071Z</time>
      </trkpt>
      <trkpt lat="45.55595" lon="6.04629">
        <ele>999</ele>
        <time>2021-06-27T10:19:56.071Z</time>
      </trkpt>
      <trkpt lat="45.55596" lon="6.04629">
        <ele>999</ele>
        <time>2021-06-27T10:19:57.071Z</time>
      </trkpt>
      <trkpt lat="45.55598" lon="6.04629">
        <ele>999</ele>
        <time>2021-06-27T10:19:58.071Z</time>
      </trkpt>
      <trkpt lat="45.55599" lon="6.04629">
        <ele>999</ele>
        <time>2021-06-27T10:19:59.071Z</time>
      </trkpt>
      <trkpt lat="45.55601" lon="6.04629">
        <ele>999</ele>
        <time>2021-06-27T10:20:00.071Z</time>
      </trkpt>
      <trkpt lat="45.55602" lon="6.0463">
        <ele>999</ele>
        <time>2021-06-27T10:20:01.070Z</time>
      </trkpt>
      <trkpt lat="45.55604" lon="6.04631">
        <ele>1000</ele>
        <time>2021-06-27T10:20:02.071Z</time>
      </trkpt>
      <trkpt lat="45.55605" lon="6.04631">
        <ele>1000</ele>
        <time>2021-06-27T10:20:03.071Z</time>
      </trkpt>
      <trkpt lat="45.55606" lon="6.04631">
        <ele>999</ele>
        <time>2021-06-27T10:20:04.071Z</time>
      </trkpt>
      <trkpt lat="45.55608" lon="6.04632">
        <ele>999</ele>
        <time>2021-06-27T10:20:05.071Z</time>
      </trkpt>
      <trkpt lat="45.5561" lon="6.04632">
        <ele>999</ele>
        <time>2021-06-27T10:20:06.071Z</time>
      </trkpt>
      <trkpt lat="45.5561" lon="6.04633">
        <ele>998</ele>
        <time>2021-06-27T10:20:07.071Z</time>
      </trkpt>
      <trkpt lat="45.55611" lon="6.04634">
        <ele>997</ele>
        <time>2021-06-27T10:20:08.071Z</time>
      </trkpt>
      <trkpt lat="45.55612" lon="6.04634">
        <ele>997</ele>
        <time>2021-06-27T10:20:09.071Z</time>
      </trkpt>
      <trkpt lat="45.55612" lon="6.04634">
        <ele>997</ele>
        <time>2021-06-27T10:20:10.071Z</time>
      </trkpt>
      <trkpt lat="45.55613" lon="6.04635">
        <ele>996</ele>
        <time>2021-06-27T10:20:11.071Z</time>
      </trkpt>
      <trkpt lat="45.55615" lon="6.04635">
        <ele>995</ele>
        <time>2021-06-27T10:20:12.071Z</time>
      </trkpt>
      <trkpt lat="45.55616" lon="6.04636">
        <ele>995</ele>
        <time>2021-06-27T10:20:13.071Z</time>
      </trkpt>
      <trkpt lat="45.55618" lon="6.04637">
        <ele>994</ele>
        <time>2021-06-27T10:20:14.071Z</time>
      </trkpt>
      <trkpt lat="45.5562" lon="6.04638">
        <ele>993</ele>
        <time>2021-06-27T10:20:15.071Z</time>
      </trkpt>
      <trkpt lat="45.55621" lon="6.04638">
        <ele>992</ele>
        <time>2021-06-27T10:20:16.071Z</time>
      </trkpt>
      <trkpt lat="45.55622" lon="6.0464">
        <ele>991</ele>
        <time>2021-06-27T10:20:17.070Z</time>
      </trkpt>
      <trkpt lat="45.55624" lon="6.04642">
        <ele>991</ele>
        <time>2021-06-27T10:20:18.070Z</time>
      </trkpt>
      <trkpt lat="45.55624" lon="6.04643">
        <ele>991</ele>
        <time>2021-06-27T10:20:19.070Z</time>
      </trkpt>
      <trkpt lat="45.55626" lon="6.04644">
        <ele>991</ele>
        <time>2021-06-27T10:20:20.071Z</time>
      </trkpt>
      <trkpt lat="45.55627" lon="6.04646">
        <ele>991</ele>
        <time>2021-06-27T10:20:21.071Z</time>
      </trkpt>
      <trkpt lat="45.55628" lon="6.04647">
        <ele>991</ele>
        <time>2021-06-27T10:20:22.071Z</time>
      </trkpt>
      <trkpt lat="45.55629" lon="6.04648">
        <ele>991</ele>
        <time>2021-06-27T10:20:23.070Z</time>
      </trkpt>
      <trkpt lat="45.5563" lon="6.04649">
        <ele>991</ele>
        <time>2021-06-27T10:20:24.071Z</time>
      </trkpt>
      <trkpt lat="45.55631" lon="6.0465">
        <ele>991</ele>
        <time>2021-06-27T10:20:25.070Z</time>
      </trkpt>
      <trkpt lat="45.55632" lon="6.04651">
        <ele>991</ele>
        <time>2021-06-27T10:20:26.071Z</time>
      </trkpt>
      <trkpt lat="45.55633" lon="6.04652">
        <ele>991</ele>
        <time>2021-06-27T10:20:27.071Z</time>
      </trkpt>
      <trkpt lat="45.55634" lon="6.04652">
        <ele>991</ele>
        <time>2021-06-27T10:20:28.070Z</time>
      </trkpt>
      <trkpt lat="45.55635" lon="6.04654">
        <ele>991</ele>
        <time>2021-06-27T10:20:29.070Z</time>
      </trkpt>
      <trkpt lat="45.55637" lon="6.04654">
        <ele>992</ele>
        <time>2021-06-27T10:20:30.071Z</time>
      </trkpt>
      <trkpt lat="45.55638" lon="6.04655">
        <ele>992</ele>
        <time>2021-06-27T10:20:31.070Z</time>
      </trkpt>
      <trkpt lat="45.55639" lon="6.04655">
        <ele>992</ele>
        <time>2021-06-27T10:20:32.071Z</time>
      </trkpt>
      <trkpt lat="45.5564" lon="6.04656">
        <ele>992</ele>
        <time>2021-06-27T10:20:33.071Z</time>
      </trkpt>
      <trkpt lat="45.55642" lon="6.04657">
        <ele>991</ele>
        <time>2021-06-27T10:20:34.071Z</time>
      </trkpt>
      <trkpt lat="45.55643" lon="6.04657">
        <ele>991</ele>
        <time>2021-06-27T10:20:35.071Z</time>
      </trkpt>
      <trkpt lat="45.55645" lon="6.04657">
        <ele>991</ele>
        <time>2021-06-27T10:20:36.071Z</time>
      </trkpt>
      <trkpt lat="45.55645" lon="6.04658">
        <ele>992</ele>
        <time>2021-06-27T10:20:37.071Z</time>
      </trkpt>
      <trkpt lat="45.55646" lon="6.04659">
        <ele>992</ele>
        <time>2021-06-27T10:20:38.071Z</time>
      </trkpt>
      <trkpt lat="45.55647" lon="6.04659">
        <ele>992</ele>
        <time>2021-06-27T10:20:39.071Z</time>
      </trkpt>
      <trkpt lat="45.55648" lon="6.0466">
        <ele>992</ele>
        <time>2021-06-27T10:20:40.071Z</time>
      </trkpt>
      <trkpt lat="45.55649" lon="6.04662">
        <ele>992</ele>
        <time>2021-06-27T10:20:41.071Z</time>
      </trkpt>
      <trkpt lat="45.55651" lon="6.04662">
        <ele>992</ele>
        <time>2021-06-27T10:20:42.070Z</time>
      </trkpt>
      <trkpt lat="45.55652" lon="6.04663">
        <ele>991</ele>
        <time>2021-06-27T10:20:43.071Z</time>
      </trkpt>
      <trkpt lat="45.55654" lon="6.04664">
        <ele>991</ele>
        <time>2021-06-27T10:20:44.071Z</time>
      </trkpt>
      <trkpt lat="45.55655" lon="6.04666">
        <ele>991</ele>
        <time>2021-06-27T10:20:45.071Z</time>
      </trkpt>
      <trkpt lat="45.55656" lon="6.04666">
        <ele>991</ele>
        <time>2021-06-27T10:20:46.071Z</time>
      </trkpt>
      <trkpt lat="45.55657" lon="6.04668">
        <ele>990</ele>
        <time>2021-06-27T10:20:47.070Z</time>
      </trkpt>
      <trkpt lat="45.55658" lon="6.04668">
        <ele>990</ele>
        <time>2021-06-27T10:20:48.071Z</time>
      </trkpt>
      <trkpt lat="45.5566" lon="6.04668">
        <ele>989</ele>
        <time>2021-06-27T10:20:49.071Z</time>
      </trkpt>
      <trkpt lat="45.55661" lon="6.04669">
        <ele>989</ele>
        <time>2021-06-27T10:20:50.071Z</time>
      </trkpt>
      <trkpt lat="45.55661" lon="6.0467">
        <ele>988</ele>
        <time>2021-06-27T10:20:51.071Z</time>
      </trkpt>
      <trkpt lat="45.55662" lon="6.04671">
        <ele>988</ele>
        <time>2021-06-27T10:20:52.070Z</time>
      </trkpt>
      <trkpt lat="45.55662" lon="6.04673">
        <ele>987</ele>
        <time>2021-06-27T10:20:53.071Z</time>
      </trkpt>
      <trkpt lat="45.55662" lon="6.04674">
        <ele>987</ele>
        <time>2021-06-27T10:20:54.071Z</time>
      </trkpt>
      <trkpt lat="45.55663" lon="6.04675">
        <ele>987</ele>
        <time>2021-06-27T10:20:55.070Z</time>
      </trkpt>
      <trkpt lat="45.55664" lon="6.04676">
        <ele>986</ele>
        <time>2021-06-27T10:20:56.071Z</time>
      </trkpt>
      <trkpt lat="45.55664" lon="6.04677">
        <ele>986</ele>
        <time>2021-06-27T10:20:57.070Z</time>
      </trkpt>
      <trkpt lat="45.55665" lon="6.04679">
        <ele>986</ele>
        <time>2021-06-27T10:20:58.070Z</time>
      </trkpt>
      <trkpt lat="45.55667" lon="6.0468">
        <ele>986</ele>
        <time>2021-06-27T10:20:59.071Z</time>
      </trkpt>
      <trkpt lat="45.55669" lon="6.0468">
        <ele>985</ele>
        <time>2021-06-27T10:21:00.071Z</time>
      </trkpt>
      <trkpt lat="45.5567" lon="6.04681">
        <ele>985</ele>
        <time>2021-06-27T10:21:01.071Z</time>
      </trkpt>
      <trkpt lat="45.5567" lon="6.0468">
        <ele>985</ele>
        <time>2021-06-27T10:21:02.071Z</time>
      </trkpt>
      <trkpt lat="45.55671" lon="6.0468">
        <ele>985</ele>
        <time>2021-06-27T10:21:03.070Z</time>
      </trkpt>
      <trkpt lat="45.55672" lon="6.04681">
        <ele>985</ele>
        <time>2021-06-27T10:21:04.071Z</time>
      </trkpt>
      <trkpt lat="45.55673" lon="6.04682">
        <ele>985</ele>
        <time>2021-06-27T10:21:05.071Z</time>
      </trkpt>
      <trkpt lat="45.55674" lon="6.04684">
        <ele>985</ele>
        <time>2021-06-27T10:21:06.071Z</time>
      </trkpt>
      <trkpt lat="45.55675" lon="6.04684">
        <ele>985</ele>
        <time>2021-06-27T10:21:07.071Z</time>
      </trkpt>
      <trkpt lat="45.55676" lon="6.04685">
        <ele>986</ele>
        <time>2021-06-27T10:21:08.071Z</time>
      </trkpt>
      <trkpt lat="45.55678" lon="6.04686">
        <ele>986</ele>
        <time>2021-06-27T10:21:09.071Z</time>
      </trkpt>
      <trkpt lat="45.55678" lon="6.04688">
        <ele>986</ele>
        <time>2021-06-27T10:21:10.071Z</time>
      </trkpt>
      <trkpt lat="45.55679" lon="6.04689">
        <ele>986</ele>
        <time>2021-06-27T10:21:11.071Z</time>
      </trkpt>
      <trkpt lat="45.5568" lon="6.04691">
        <ele>986</ele>
        <time>2021-06-27T10:21:12.071Z</time>
      </trkpt>
      <trkpt lat="45.5568" lon="6.04691">
        <ele>986</ele>
        <time>2021-06-27T10:21:13.070Z</time>
      </trkpt>
      <trkpt lat="45.5568" lon="6.04692">
        <ele>987</ele>
        <time>2021-06-27T10:21:14.070Z</time>
      </trkpt>
      <trkpt lat="45.5568" lon="6.04692">
        <ele>987</ele>
        <time>2021-06-27T10:21:15.070Z</time>
      </trkpt>
      <trkpt lat="45.5568" lon="6.04694">
        <ele>987</ele>
        <time>2021-06-27T10:21:16.070Z</time>
      </trkpt>
      <trkpt lat="45.5568" lon="6.04695">
        <ele>987</ele>
        <time>2021-06-27T10:21:17.071Z</time>
      </trkpt>
      <trkpt lat="45.55681" lon="6.04695">
        <ele>987</ele>
        <time>2021-06-27T10:21:18.071Z</time>
      </trkpt>
      <trkpt lat="45.55682" lon="6.04695">
        <ele>987</ele>
        <time>2021-06-27T10:21:19.070Z</time>
      </trkpt>
      <trkpt lat="45.55682" lon="6.04695">
        <ele>988</ele>
        <time>2021-06-27T10:21:20.070Z</time>
      </trkpt>
      <trkpt lat="45.55683" lon="6.04695">
        <ele>988</ele>
        <time>2021-06-27T10:21:21.071Z</time>
      </trkpt>
      <trkpt lat="45.55683" lon="6.04696">
        <ele>988</ele>
        <time>2021-06-27T10:21:22.071Z</time>
      </trkpt>
      <trkpt lat="45.55684" lon="6.04697">
        <ele>988</ele>
        <time>2021-06-27T10:21:23.071Z</time>
      </trkpt>
      <trkpt lat="45.55683" lon="6.04698">
        <ele>988</ele>
        <time>2021-06-27T10:21:24.071Z</time>
      </trkpt>
      <trkpt lat="45.55684" lon="6.04699">
        <ele>988</ele>
        <time>2021-06-27T10:21:25.071Z</time>
      </trkpt>
      <trkpt lat="45.55684" lon="6.047">
        <ele>988</ele>
        <time>2021-06-27T10:21:26.070Z</time>
      </trkpt>
      <trkpt lat="45.55685" lon="6.047">
        <ele>988</ele>
        <time>2021-06-27T10:21:27.071Z</time>
      </trkpt>
      <trkpt lat="45.55687" lon="6.047">
        <ele>988</ele>
        <time>2021-06-27T10:21:28.070Z</time>
      </trkpt>
      <trkpt lat="45.55688" lon="6.047">
        <ele>988</ele>
        <time>2021-06-27T10:21:29.071Z</time>
      </trkpt>
      <trkpt lat="45.55689" lon="6.047">
        <ele>988</ele>
        <time>2021-06-27T10:21:30.070Z</time>
      </trkpt>
      <trkpt lat="45.55688" lon="6.04701">
        <ele>988</ele>
        <time>2021-06-27T10:21:31.071Z</time>
      </trkpt>
      <trkpt lat="45.55688" lon="6.04701">
        <ele>988</ele>
        <time>2021-06-27T10:21:32.071Z</time>
      </trkpt>
      <trkpt lat="45.55689" lon="6.04701">
        <ele>988</ele>
        <time>2021-06-27T10:21:33.071Z</time>
      </trkpt>
      <trkpt lat="45.55689" lon="6.04701">
        <ele>988</ele>
        <time>2021-06-27T10:21:34.071Z</time>
      </trkpt>
      <trkpt lat="45.55689" lon="6.04701">
        <ele>987</ele>
        <time>2021-06-27T10:21:35.071Z</time>
      </trkpt>
      <trkpt lat="45.55689" lon="6.04701">
        <ele>987</ele>
        <time>2021-06-27T10:21:36.071Z</time>
      </trkpt>
      <trkpt lat="45.5569" lon="6.04701">
        <ele>987</ele>
        <time>2021-06-27T10:21:37.071Z</time>
      </trkpt>
      <trkpt lat="45.5569" lon="6.04701">
        <ele>986</ele>
        <time>2021-06-27T10:21:38.071Z</time>
      </trkpt>
      <trkpt lat="45.5569" lon="6.047">
        <ele>986</ele>
        <time>2021-06-27T10:21:39.071Z</time>
      </trkpt>
      <trkpt lat="45.5569" lon="6.047">
        <ele>987</ele>
        <time>2021-06-27T10:21:40.071Z</time>
      </trkpt>
      <trkpt lat="45.55691" lon="6.047">
        <ele>987</ele>
        <time>2021-06-27T10:21:41.071Z</time>
      </trkpt>
      <trkpt lat="45.55691" lon="6.047">
        <ele>987</ele>
        <time>2021-06-27T10:21:42.071Z</time>
      </trkpt>
      <trkpt lat="45.55691" lon="6.047">
        <ele>986</ele>
        <time>2021-06-27T10:21:43.071Z</time>
      </trkpt>
      <trkpt lat="45.55691" lon="6.047">
        <ele>986</ele>
        <time>2021-06-27T10:21:44.071Z</time>
      </trkpt>
      <trkpt lat="45.55691" lon="6.047">
        <ele>986</ele>
        <time>2021-06-27T10:21:45.071Z</time>
      </trkpt>
      <trkpt lat="45.55692" lon="6.047">
        <ele>986</ele>
        <time>2021-06-27T10:21:46.070Z</time>
      </trkpt>
      <trkpt lat="45.55692" lon="6.047">
        <ele>986</ele>
        <time>2021-06-27T10:21:47.071Z</time>
      </trkpt>
      <trkpt lat="45.55693" lon="6.04701">
        <ele>986</ele>
        <time>2021-06-27T10:21:48.070Z</time>
      </trkpt>
      <trkpt lat="45.55692" lon="6.04701">
        <ele>986</ele>
        <time>2021-06-27T10:21:49.071Z</time>
      </trkpt>
      <trkpt lat="45.55692" lon="6.04702">
        <ele>986</ele>
        <time>2021-06-27T10:21:50.070Z</time>
      </trkpt>
      <trkpt lat="45.55693" lon="6.04703">
        <ele>986</ele>
        <time>2021-06-27T10:21:51.070Z</time>
      </trkpt>
      <trkpt lat="45.55692" lon="6.04704">
        <ele>986</ele>
        <time>2021-06-27T10:21:52.071Z</time>
      </trkpt>
      <trkpt lat="45.55692" lon="6.04705">
        <ele>985</ele>
        <time>2021-06-27T10:21:53.071Z</time>
      </trkpt>
      <trkpt lat="45.55692" lon="6.04705">
        <ele>985</ele>
        <time>2021-06-27T10:21:54.071Z</time>
      </trkpt>
      <trkpt lat="45.55694" lon="6.04705">
        <ele>985</ele>
        <time>2021-06-27T10:21:55.070Z</time>
      </trkpt>
      <trkpt lat="45.55694" lon="6.04705">
        <ele>985</ele>
        <time>2021-06-27T10:21:56.070Z</time>
      </trkpt>
      <trkpt lat="45.55695" lon="6.04705">
        <ele>985</ele>
        <time>2021-06-27T10:21:57.070Z</time>
      </trkpt>
      <trkpt lat="45.55696" lon="6.04704">
        <ele>985</ele>
        <time>2021-06-27T10:21:58.071Z</time>
      </trkpt>
      <trkpt lat="45.55697" lon="6.04705">
        <ele>985</ele>
        <time>2021-06-27T10:21:59.071Z</time>
      </trkpt>
      <trkpt lat="45.55697" lon="6.04705">
        <ele>984</ele>
        <time>2021-06-27T10:22:00.070Z</time>
      </trkpt>
      <trkpt lat="45.55698" lon="6.04706">
        <ele>984</ele>
        <time>2021-06-27T10:22:01.070Z</time>
      </trkpt>
      <trkpt lat="45.55699" lon="6.04707">
        <ele>984</ele>
        <time>2021-06-27T10:22:02.071Z</time>
      </trkpt>
      <trkpt lat="45.557" lon="6.04707">
        <ele>983</ele>
        <time>2021-06-27T10:22:03.071Z</time>
      </trkpt>
      <trkpt lat="45.55701" lon="6.04708">
        <ele>983</ele>
        <time>2021-06-27T10:22:04.071Z</time>
      </trkpt>
      <trkpt lat="45.55702" lon="6.04709">
        <ele>983</ele>
        <time>2021-06-27T10:22:05.070Z</time>
      </trkpt>
      <trkpt lat="45.55702" lon="6.0471">
        <ele>983</ele>
        <time>2021-06-27T10:22:06.071Z</time>
      </trkpt>
      <trkpt lat="45.55703" lon="6.0471">
        <ele>983</ele>
        <time>2021-06-27T10:22:07.071Z</time>
      </trkpt>
      <trkpt lat="45.55704" lon="6.04711">
        <ele>984</ele>
        <time>2021-06-27T10:22:08.071Z</time>
      </trkpt>
      <trkpt lat="45.55705" lon="6.04712">
        <ele>984</ele>
        <time>2021-06-27T10:22:09.071Z</time>
      </trkpt>
      <trkpt lat="45.55705" lon="6.04712">
        <ele>984</ele>
        <time>2021-06-27T10:22:10.070Z</time>
      </trkpt>
      <trkpt lat="45.55706" lon="6.04712">
        <ele>984</ele>
        <time>2021-06-27T10:22:11.071Z</time>
      </trkpt>
      <trkpt lat="45.55707" lon="6.04712">
        <ele>984</ele>
        <time>2021-06-27T10:22:12.071Z</time>
      </trkpt>
      <trkpt lat="45.55708" lon="6.04713">
        <ele>984</ele>
        <time>2021-06-27T10:22:13.071Z</time>
      </trkpt>
      <trkpt lat="45.55709" lon="6.04714">
        <ele>985</ele>
        <time>2021-06-27T10:22:14.070Z</time>
      </trkpt>
      <trkpt lat="45.55709" lon="6.04715">
        <ele>985</ele>
        <time>2021-06-27T10:22:15.071Z</time>
      </trkpt>
      <trkpt lat="45.55709" lon="6.04715">
        <ele>985</ele>
        <time>2021-06-27T10:22:16.071Z</time>
      </trkpt>
      <trkpt lat="45.55709" lon="6.04716">
        <ele>985</ele>
        <time>2021-06-27T10:22:17.071Z</time>
      </trkpt>
      <trkpt lat="45.5571" lon="6.04717">
        <ele>985</ele>
        <time>2021-06-27T10:22:18.071Z</time>
      </trkpt>
      <trkpt lat="45.55711" lon="6.04719">
        <ele>985</ele>
        <time>2021-06-27T10:22:19.070Z</time>
      </trkpt>
      <trkpt lat="45.55712" lon="6.04721">
        <ele>985</ele>
        <time>2021-06-27T10:22:20.070Z</time>
      </trkpt>
      <trkpt lat="45.55713" lon="6.04722">
        <ele>985</ele>
        <time>2021-06-27T10:22:21.070Z</time>
      </trkpt>
      <trkpt lat="45.55713" lon="6.04722">
        <ele>985</ele>
        <time>2021-06-27T10:22:22.071Z</time>
      </trkpt>
      <trkpt lat="45.55714" lon="6.04722">
        <ele>985</ele>
        <time>2021-06-27T10:22:23.070Z</time>
      </trkpt>
      <trkpt lat="45.55715" lon="6.04724">
        <ele>985</ele>
        <time>2021-06-27T10:22:24.070Z</time>
      </trkpt>
      <trkpt lat="45.55717" lon="6.04725">
        <ele>985</ele>
        <time>2021-06-27T10:22:25.071Z</time>
      </trkpt>
      <trkpt lat="45.55718" lon="6.04726">
        <ele>985</ele>
        <time>2021-06-27T10:22:26.070Z</time>
      </trkpt>
      <trkpt lat="45.55719" lon="6.04728">
        <ele>985</ele>
        <time>2021-06-27T10:22:27.071Z</time>
      </trkpt>
      <trkpt lat="45.55719" lon="6.04728">
        <ele>985</ele>
        <time>2021-06-27T10:22:28.070Z</time>
      </trkpt>
      <trkpt lat="45.5572" lon="6.04729">
        <ele>986</ele>
        <time>2021-06-27T10:22:29.071Z</time>
      </trkpt>
      <trkpt lat="45.55721" lon="6.0473">
        <ele>986</ele>
        <time>2021-06-27T10:22:30.071Z</time>
      </trkpt>
      <trkpt lat="45.55721" lon="6.04731">
        <ele>986</ele>
        <time>2021-06-27T10:22:31.071Z</time>
      </trkpt>
      <trkpt lat="45.55722" lon="6.04732">
        <ele>986</ele>
        <time>2021-06-27T10:22:32.071Z</time>
      </trkpt>
      <trkpt lat="45.55722" lon="6.04733">
        <ele>987</ele>
        <time>2021-06-27T10:22:33.070Z</time>
      </trkpt>
      <trkpt lat="45.55723" lon="6.04733">
        <ele>987</ele>
        <time>2021-06-27T10:22:34.071Z</time>
      </trkpt>
      <trkpt lat="45.55723" lon="6.04734">
        <ele>987</ele>
        <time>2021-06-27T10:22:35.071Z</time>
      </trkpt>
      <trkpt lat="45.55724" lon="6.04735">
        <ele>987</ele>
        <time>2021-06-27T10:22:36.071Z</time>
      </trkpt>
      <trkpt lat="45.55725" lon="6.04737">
        <ele>987</ele>
        <time>2021-06-27T10:22:37.070Z</time>
      </trkpt>
      <trkpt lat="45.55725" lon="6.04738">
        <ele>987</ele>
        <time>2021-06-27T10:22:38.071Z</time>
      </trkpt>
      <trkpt lat="45.55725" lon="6.04739">
        <ele>988</ele>
        <time>2021-06-27T10:22:39.071Z</time>
      </trkpt>
      <trkpt lat="45.55726" lon="6.04741">
        <ele>988</ele>
        <time>2021-06-27T10:22:40.071Z</time>
      </trkpt>
      <trkpt lat="45.55726" lon="6.04742">
        <ele>988</ele>
        <time>2021-06-27T10:22:41.071Z</time>
      </trkpt>
      <trkpt lat="45.55726" lon="6.04744">
        <ele>988</ele>
        <time>2021-06-27T10:22:42.070Z</time>
      </trkpt>
      <trkpt lat="45.55727" lon="6.04745">
        <ele>988</ele>
        <time>2021-06-27T10:22:43.071Z</time>
      </trkpt>
      <trkpt lat="45.55728" lon="6.04746">
        <ele>988</ele>
        <time>2021-06-27T10:22:44.071Z</time>
      </trkpt>
      <trkpt lat="45.55729" lon="6.04748">
        <ele>988</ele>
        <time>2021-06-27T10:22:45.071Z</time>
      </trkpt>
      <trkpt lat="45.5573" lon="6.04749">
        <ele>989</ele>
        <time>2021-06-27T10:22:46.071Z</time>
      </trkpt>
      <trkpt lat="45.5573" lon="6.04751">
        <ele>989</ele>
        <time>2021-06-27T10:22:47.071Z</time>
      </trkpt>
      <trkpt lat="45.55731" lon="6.04753">
        <ele>989</ele>
        <time>2021-06-27T10:22:48.071Z</time>
      </trkpt>
      <trkpt lat="45.55732" lon="6.04754">
        <ele>989</ele>
        <time>2021-06-27T10:22:49.071Z</time>
      </trkpt>
      <trkpt lat="45.55733" lon="6.04756">
        <ele>989</ele>
        <time>2021-06-27T10:22:50.071Z</time>
      </trkpt>
      <trkpt lat="45.55735" lon="6.04757">
        <ele>989</ele>
        <time>2021-06-27T10:22:51.071Z</time>
      </trkpt>
      <trkpt lat="45.55736" lon="6.04759">
        <ele>989</ele>
        <time>2021-06-27T10:22:52.071Z</time>
      </trkpt>
      <trkpt lat="45.55738" lon="6.0476">
        <ele>989</ele>
        <time>2021-06-27T10:22:53.071Z</time>
      </trkpt>
      <trkpt lat="45.55739" lon="6.04761">
        <ele>989</ele>
        <time>2021-06-27T10:22:54.071Z</time>
      </trkpt>
      <trkpt lat="45.5574" lon="6.04761">
        <ele>989</ele>
        <time>2021-06-27T10:22:55.071Z</time>
      </trkpt>
      <trkpt lat="45.5574" lon="6.04762">
        <ele>989</ele>
        <time>2021-06-27T10:22:56.071Z</time>
      </trkpt>
      <trkpt lat="45.55741" lon="6.04762">
        <ele>989</ele>
        <time>2021-06-27T10:22:57.071Z</time>
      </trkpt>
      <trkpt lat="45.55741" lon="6.04762">
        <ele>989</ele>
        <time>2021-06-27T10:22:58.071Z</time>
      </trkpt>
      <trkpt lat="45.5574" lon="6.04763">
        <ele>989</ele>
        <time>2021-06-27T10:22:59.071Z</time>
      </trkpt>
      <trkpt lat="45.5574" lon="6.04764">
        <ele>989</ele>
        <time>2021-06-27T10:23:00.071Z</time>
      </trkpt>
      <trkpt lat="45.5574" lon="6.04764">
        <ele>990</ele>
        <time>2021-06-27T10:23:01.070Z</time>
      </trkpt>
      <trkpt lat="45.5574" lon="6.04764">
        <ele>990</ele>
        <time>2021-06-27T10:23:02.071Z</time>
      </trkpt>
      <trkpt lat="45.5574" lon="6.04764">
        <ele>991</ele>
        <time>2021-06-27T10:23:03.070Z</time>
      </trkpt>
      <trkpt lat="45.5574" lon="6.04764">
        <ele>991</ele>
        <time>2021-06-27T10:23:04.071Z</time>
      </trkpt>
      <trkpt lat="45.5574" lon="6.04764">
        <ele>991</ele>
        <time>2021-06-27T10:23:05.071Z</time>
      </trkpt>
      <trkpt lat="45.5574" lon="6.04764">
        <ele>991</ele>
        <time>2021-06-27T10:23:06.071Z</time>
      </trkpt>
      <trkpt lat="45.5574" lon="6.04764">
        <ele>992</ele>
        <time>2021-06-27T10:23:07.071Z</time>
      </trkpt>
      <trkpt lat="45.5574" lon="6.04764">
        <ele>992</ele>
        <time>2021-06-27T10:23:08.071Z</time>
      </trkpt>
      <trkpt lat="45.55739" lon="6.04765">
        <ele>993</ele>
        <time>2021-06-27T10:23:09.071Z</time>
      </trkpt>
      <trkpt lat="45.55739" lon="6.04765">
        <ele>993</ele>
        <time>2021-06-27T10:23:10.071Z</time>
      </trkpt>
      <trkpt lat="45.55738" lon="6.04766">
        <ele>994</ele>
        <time>2021-06-27T10:23:11.070Z</time>
      </trkpt>
      <trkpt lat="45.55739" lon="6.04767">
        <ele>994</ele>
        <time>2021-06-27T10:23:12.070Z</time>
      </trkpt>
      <trkpt lat="45.5574" lon="6.04767">
        <ele>995</ele>
        <time>2021-06-27T10:23:13.071Z</time>
      </trkpt>
      <trkpt lat="45.55741" lon="6.04768">
        <ele>995</ele>
        <time>2021-06-27T10:23:14.071Z</time>
      </trkpt>
      <trkpt lat="45.55741" lon="6.04768">
        <ele>995</ele>
        <time>2021-06-27T10:23:15.071Z</time>
      </trkpt>
      <trkpt lat="45.5574" lon="6.04769">
        <ele>995</ele>
        <time>2021-06-27T10:23:16.070Z</time>
      </trkpt>
      <trkpt lat="45.5574" lon="6.04771">
        <ele>995</ele>
        <time>2021-06-27T10:23:17.071Z</time>
      </trkpt>
      <trkpt lat="45.5574" lon="6.04772">
        <ele>995</ele>
        <time>2021-06-27T10:23:18.071Z</time>
      </trkpt>
      <trkpt lat="45.5574" lon="6.04772">
        <ele>995</ele>
        <time>2021-06-27T10:23:19.071Z</time>
      </trkpt>
      <trkpt lat="45.5574" lon="6.04773">
        <ele>996</ele>
        <time>2021-06-27T10:23:20.070Z</time>
      </trkpt>
      <trkpt lat="45.5574" lon="6.04774">
        <ele>996</ele>
        <time>2021-06-27T10:23:21.071Z</time>
      </trkpt>
      <trkpt lat="45.55739" lon="6.04775">
        <ele>996</ele>
        <time>2021-06-27T10:23:22.070Z</time>
      </trkpt>
      <trkpt lat="45.5574" lon="6.04776">
        <ele>996</ele>
        <time>2021-06-27T10:23:23.071Z</time>
      </trkpt>
      <trkpt lat="45.5574" lon="6.04778">
        <ele>996</ele>
        <time>2021-06-27T10:23:24.071Z</time>
      </trkpt>
      <trkpt lat="45.55739" lon="6.04779">
        <ele>996</ele>
        <time>2021-06-27T10:23:25.071Z</time>
      </trkpt>
      <trkpt lat="45.55739" lon="6.0478">
        <ele>996</ele>
        <time>2021-06-27T10:23:26.071Z</time>
      </trkpt>
      <trkpt lat="45.5574" lon="6.04782">
        <ele>996</ele>
        <time>2021-06-27T10:23:27.071Z</time>
      </trkpt>
      <trkpt lat="45.5574" lon="6.04783">
        <ele>996</ele>
        <time>2021-06-27T10:23:28.071Z</time>
      </trkpt>
      <trkpt lat="45.55741" lon="6.04785">
        <ele>996</ele>
        <time>2021-06-27T10:23:29.071Z</time>
      </trkpt>
      <trkpt lat="45.55742" lon="6.04786">
        <ele>996</ele>
        <time>2021-06-27T10:23:30.070Z</time>
      </trkpt>
      <trkpt lat="45.55743" lon="6.04788">
        <ele>996</ele>
        <time>2021-06-27T10:23:31.071Z</time>
      </trkpt>
      <trkpt lat="45.55745" lon="6.04788">
        <ele>996</ele>
        <time>2021-06-27T10:23:32.071Z</time>
      </trkpt>
      <trkpt lat="45.55746" lon="6.0479">
        <ele>996</ele>
        <time>2021-06-27T10:23:33.070Z</time>
      </trkpt>
      <trkpt lat="45.55746" lon="6.04792">
        <ele>996</ele>
        <time>2021-06-27T10:23:34.070Z</time>
      </trkpt>
      <trkpt lat="45.55746" lon="6.04794">
        <ele>997</ele>
        <time>2021-06-27T10:23:35.071Z</time>
      </trkpt>
      <trkpt lat="45.55746" lon="6.04795">
        <ele>997</ele>
        <time>2021-06-27T10:23:36.071Z</time>
      </trkpt>
      <trkpt lat="45.55746" lon="6.04797">
        <ele>997</ele>
        <time>2021-06-27T10:23:37.070Z</time>
      </trkpt>
      <trkpt lat="45.55747" lon="6.04798">
        <ele>997</ele>
        <time>2021-06-27T10:23:38.071Z</time>
      </trkpt>
      <trkpt lat="45.55747" lon="6.048">
        <ele>997</ele>
        <time>2021-06-27T10:23:39.071Z</time>
      </trkpt>
      <trkpt lat="45.55747" lon="6.04801">
        <ele>998</ele>
        <time>2021-06-27T10:23:40.071Z</time>
      </trkpt>
      <trkpt lat="45.55748" lon="6.04803">
        <ele>998</ele>
        <time>2021-06-27T10:23:41.070Z</time>
      </trkpt>
      <trkpt lat="45.55748" lon="6.04804">
        <ele>998</ele>
        <time>2021-06-27T10:23:42.071Z</time>
      </trkpt>
      <trkpt lat="45.55748" lon="6.04805">
        <ele>998</ele>
        <time>2021-06-27T10:23:43.071Z</time>
      </trkpt>
      <trkpt lat="45.55749" lon="6.04806">
        <ele>998</ele>
        <time>2021-06-27T10:23:44.070Z</time>
      </trkpt>
      <trkpt lat="45.5575" lon="6.04807">
        <ele>999</ele>
        <time>2021-06-27T10:23:45.071Z</time>
      </trkpt>
      <trkpt lat="45.5575" lon="6.04809">
        <ele>999</ele>
        <time>2021-06-27T10:23:46.071Z</time>
      </trkpt>
      <trkpt lat="45.5575" lon="6.0481">
        <ele>999</ele>
        <time>2021-06-27T10:23:47.071Z</time>
      </trkpt>
      <trkpt lat="45.55751" lon="6.04812">
        <ele>999</ele>
        <time>2021-06-27T10:23:48.071Z</time>
      </trkpt>
      <trkpt lat="45.55751" lon="6.04814">
        <ele>1000</ele>
        <time>2021-06-27T10:23:49.070Z</time>
      </trkpt>
      <trkpt lat="45.55752" lon="6.04816">
        <ele>1000</ele>
        <time>2021-06-27T10:23:50.071Z</time>
      </trkpt>
      <trkpt lat="45.55752" lon="6.04817">
        <ele>1000</ele>
        <time>2021-06-27T10:23:51.071Z</time>
      </trkpt>
      <trkpt lat="45.55753" lon="6.04819">
        <ele>1000</ele>
        <time>2021-06-27T10:23:52.070Z</time>
      </trkpt>
      <trkpt lat="45.55754" lon="6.04819">
        <ele>1000</ele>
        <time>2021-06-27T10:23:53.071Z</time>
      </trkpt>
      <trkpt lat="45.55755" lon="6.0482">
        <ele>1000</ele>
        <time>2021-06-27T10:23:54.071Z</time>
      </trkpt>
      <trkpt lat="45.55757" lon="6.04821">
        <ele>1000</ele>
        <time>2021-06-27T10:23:55.071Z</time>
      </trkpt>
      <trkpt lat="45.55757" lon="6.04821">
        <ele>1000</ele>
        <time>2021-06-27T10:23:56.071Z</time>
      </trkpt>
      <trkpt lat="45.55756" lon="6.04822">
        <ele>1001</ele>
        <time>2021-06-27T10:23:57.071Z</time>
      </trkpt>
      <trkpt lat="45.55756" lon="6.04823">
        <ele>1001</ele>
        <time>2021-06-27T10:23:58.071Z</time>
      </trkpt>
      <trkpt lat="45.55756" lon="6.04824">
        <ele>1002</ele>
        <time>2021-06-27T10:23:59.070Z</time>
      </trkpt>
      <trkpt lat="45.55756" lon="6.04825">
        <ele>1002</ele>
        <time>2021-06-27T10:24:00.071Z</time>
      </trkpt>
      <trkpt lat="45.55756" lon="6.04826">
        <ele>1002</ele>
        <time>2021-06-27T10:24:01.071Z</time>
      </trkpt>
      <trkpt lat="45.55757" lon="6.04826">
        <ele>1002</ele>
        <time>2021-06-27T10:24:02.071Z</time>
      </trkpt>
      <trkpt lat="45.55758" lon="6.04827">
        <ele>1003</ele>
        <time>2021-06-27T10:24:03.070Z</time>
      </trkpt>
      <trkpt lat="45.55759" lon="6.04828">
        <ele>1003</ele>
        <time>2021-06-27T10:24:04.071Z</time>
      </trkpt>
      <trkpt lat="45.5576" lon="6.04828">
        <ele>1003</ele>
        <time>2021-06-27T10:24:05.070Z</time>
      </trkpt>
      <trkpt lat="45.55761" lon="6.04828">
        <ele>1003</ele>
        <time>2021-06-27T10:24:06.071Z</time>
      </trkpt>
      <trkpt lat="45.55761" lon="6.04829">
        <ele>1004</ele>
        <time>2021-06-27T10:24:07.070Z</time>
      </trkpt>
      <trkpt lat="45.55761" lon="6.04831">
        <ele>1004</ele>
        <time>2021-06-27T10:24:08.070Z</time>
      </trkpt>
      <trkpt lat="45.55761" lon="6.04832">
        <ele>1004</ele>
        <time>2021-06-27T10:24:09.071Z</time>
      </trkpt>
      <trkpt lat="45.55762" lon="6.04833">
        <ele>1004</ele>
        <time>2021-06-27T10:24:10.071Z</time>
      </trkpt>
      <trkpt lat="45.55762" lon="6.04834">
        <ele>1004</ele>
        <time>2021-06-27T10:24:11.071Z</time>
      </trkpt>
      <trkpt lat="45.55763" lon="6.04835">
        <ele>1004</ele>
        <time>2021-06-27T10:24:12.071Z</time>
      </trkpt>
      <trkpt lat="45.55763" lon="6.04836">
        <ele>1004</ele>
        <time>2021-06-27T10:24:13.071Z</time>
      </trkpt>
      <trkpt lat="45.55764" lon="6.04837">
        <ele>1004</ele>
        <time>2021-06-27T10:24:14.071Z</time>
      </trkpt>
      <trkpt lat="45.55765" lon="6.04839">
        <ele>1004</ele>
        <time>2021-06-27T10:24:15.070Z</time>
      </trkpt>
      <trkpt lat="45.55766" lon="6.04841">
        <ele>1004</ele>
        <time>2021-06-27T10:24:16.070Z</time>
      </trkpt>
      <trkpt lat="45.55767" lon="6.04842">
        <ele>1004</ele>
        <time>2021-06-27T10:24:17.070Z</time>
      </trkpt>
      <trkpt lat="45.55767" lon="6.04844">
        <ele>1004</ele>
        <time>2021-06-27T10:24:18.071Z</time>
      </trkpt>
      <trkpt lat="45.55768" lon="6.04845">
        <ele>1004</ele>
        <time>2021-06-27T10:24:19.071Z</time>
      </trkpt>
      <trkpt lat="45.55769" lon="6.04847">
        <ele>1004</ele>
        <time>2021-06-27T10:24:20.071Z</time>
      </trkpt>
      <trkpt lat="45.5577" lon="6.04848">
        <ele>1004</ele>
        <time>2021-06-27T10:24:21.071Z</time>
      </trkpt>
      <trkpt lat="45.55772" lon="6.04849">
        <ele>1004</ele>
        <time>2021-06-27T10:24:22.071Z</time>
      </trkpt>
      <trkpt lat="45.55773" lon="6.0485">
        <ele>1004</ele>
        <time>2021-06-27T10:24:23.070Z</time>
      </trkpt>
      <trkpt lat="45.55774" lon="6.0485">
        <ele>1004</ele>
        <time>2021-06-27T10:24:24.071Z</time>
      </trkpt>
      <trkpt lat="45.55775" lon="6.04851">
        <ele>1004</ele>
        <time>2021-06-27T10:24:25.071Z</time>
      </trkpt>
      <trkpt lat="45.55777" lon="6.04851">
        <ele>1004</ele>
        <time>2021-06-27T10:24:26.071Z</time>
      </trkpt>
      <trkpt lat="45.55778" lon="6.04853">
        <ele>1004</ele>
        <time>2021-06-27T10:24:27.071Z</time>
      </trkpt>
      <trkpt lat="45.5578" lon="6.04855">
        <ele>1004</ele>
        <time>2021-06-27T10:24:28.071Z</time>
      </trkpt>
      <trkpt lat="45.55781" lon="6.04856">
        <ele>1003</ele>
        <time>2021-06-27T10:24:29.071Z</time>
      </trkpt>
      <trkpt lat="45.55781" lon="6.04857">
        <ele>1003</ele>
        <time>2021-06-27T10:24:30.071Z</time>
      </trkpt>
      <trkpt lat="45.55782" lon="6.04857">
        <ele>1003</ele>
        <time>2021-06-27T10:24:31.071Z</time>
      </trkpt>
      <trkpt lat="45.55782" lon="6.04859">
        <ele>1003</ele>
        <time>2021-06-27T10:24:32.071Z</time>
      </trkpt>
      <trkpt lat="45.55782" lon="6.04859">
        <ele>1003</ele>
        <time>2021-06-27T10:24:33.071Z</time>
      </trkpt>
      <trkpt lat="45.55782" lon="6.0486">
        <ele>1003</ele>
        <time>2021-06-27T10:24:34.071Z</time>
      </trkpt>
      <trkpt lat="45.55782" lon="6.04862">
        <ele>1003</ele>
        <time>2021-06-27T10:24:35.071Z</time>
      </trkpt>
      <trkpt lat="45.55783" lon="6.04863">
        <ele>1003</ele>
        <time>2021-06-27T10:24:36.071Z</time>
      </trkpt>
      <trkpt lat="45.55783" lon="6.04864">
        <ele>1003</ele>
        <time>2021-06-27T10:24:37.071Z</time>
      </trkpt>
      <trkpt lat="45.55783" lon="6.04865">
        <ele>1003</ele>
        <time>2021-06-27T10:24:38.071Z</time>
      </trkpt>
      <trkpt lat="45.55784" lon="6.04866">
        <ele>1004</ele>
        <time>2021-06-27T10:24:39.070Z</time>
      </trkpt>
      <trkpt lat="45.55784" lon="6.04867">
        <ele>1004</ele>
        <time>2021-06-27T10:24:40.071Z</time>
      </trkpt>
      <trkpt lat="45.55784" lon="6.04868">
        <ele>1004</ele>
        <time>2021-06-27T10:24:41.070Z</time>
      </trkpt>
      <trkpt lat="45.55784" lon="6.0487">
        <ele>1004</ele>
        <time>2021-06-27T10:24:42.070Z</time>
      </trkpt>
      <trkpt lat="45.55785" lon="6.04871">
        <ele>1004</ele>
        <time>2021-06-27T10:24:43.071Z</time>
      </trkpt>
      <trkpt lat="45.55786" lon="6.04873">
        <ele>1004</ele>
        <time>2021-06-27T10:24:44.070Z</time>
      </trkpt>
      <trkpt lat="45.55787" lon="6.04874">
        <ele>1004</ele>
        <time>2021-06-27T10:24:45.070Z</time>
      </trkpt>
      <trkpt lat="45.55789" lon="6.04875">
        <ele>1004</ele>
        <time>2021-06-27T10:24:46.070Z</time>
      </trkpt>
      <trkpt lat="45.5579" lon="6.04876">
        <ele>1004</ele>
        <time>2021-06-27T10:24:47.071Z</time>
      </trkpt>
      <trkpt lat="45.55791" lon="6.04877">
        <ele>1005</ele>
        <time>2021-06-27T10:24:48.071Z</time>
      </trkpt>
      <trkpt lat="45.55791" lon="6.04878">
        <ele>1005</ele>
        <time>2021-06-27T10:24:49.071Z</time>
      </trkpt>
      <trkpt lat="45.55792" lon="6.04879">
        <ele>1005</ele>
        <time>2021-06-27T10:24:50.071Z</time>
      </trkpt>
      <trkpt lat="45.55792" lon="6.0488">
        <ele>1005</ele>
        <time>2021-06-27T10:24:51.070Z</time>
      </trkpt>
      <trkpt lat="45.55793" lon="6.04881">
        <ele>1006</ele>
        <time>2021-06-27T10:24:52.071Z</time>
      </trkpt>
      <trkpt lat="45.55794" lon="6.04882">
        <ele>1006</ele>
        <time>2021-06-27T10:24:53.071Z</time>
      </trkpt>
      <trkpt lat="45.55795" lon="6.04882">
        <ele>1006</ele>
        <time>2021-06-27T10:24:54.071Z</time>
      </trkpt>
      <trkpt lat="45.55796" lon="6.04883">
        <ele>1006</ele>
        <time>2021-06-27T10:24:55.071Z</time>
      </trkpt>
      <trkpt lat="45.55797" lon="6.04884">
        <ele>1006</ele>
        <time>2021-06-27T10:24:56.070Z</time>
      </trkpt>
      <trkpt lat="45.55796" lon="6.04885">
        <ele>1007</ele>
        <time>2021-06-27T10:24:57.071Z</time>
      </trkpt>
      <trkpt lat="45.55797" lon="6.04885">
        <ele>1007</ele>
        <time>2021-06-27T10:24:58.070Z</time>
      </trkpt>
      <trkpt lat="45.55797" lon="6.04886">
        <ele>1006</ele>
        <time>2021-06-27T10:24:59.071Z</time>
      </trkpt>
      <trkpt lat="45.55797" lon="6.04887">
        <ele>1006</ele>
        <time>2021-06-27T10:25:00.071Z</time>
      </trkpt>
      <trkpt lat="45.55798" lon="6.04887">
        <ele>1006</ele>
        <time>2021-06-27T10:25:01.071Z</time>
      </trkpt>
      <trkpt lat="45.55798" lon="6.04887">
        <ele>1006</ele>
        <time>2021-06-27T10:25:02.071Z</time>
      </trkpt>
      <trkpt lat="45.55799" lon="6.04887">
        <ele>1006</ele>
        <time>2021-06-27T10:25:03.071Z</time>
      </trkpt>
      <trkpt lat="45.558" lon="6.04887">
        <ele>1006</ele>
        <time>2021-06-27T10:25:04.071Z</time>
      </trkpt>
      <trkpt lat="45.55803" lon="6.04888">
        <ele>1007</ele>
        <time>2021-06-27T10:25:05.071Z</time>
      </trkpt>
      <trkpt lat="45.55803" lon="6.04888">
        <ele>1007</ele>
        <time>2021-06-27T10:25:06.071Z</time>
      </trkpt>
      <trkpt lat="45.55804" lon="6.04888">
        <ele>1007</ele>
        <time>2021-06-27T10:25:07.071Z</time>
      </trkpt>
      <trkpt lat="45.55805" lon="6.04888">
        <ele>1007</ele>
        <time>2021-06-27T10:25:08.071Z</time>
      </trkpt>
      <trkpt lat="45.55807" lon="6.0489">
        <ele>1007</ele>
        <time>2021-06-27T10:25:09.070Z</time>
      </trkpt>
      <trkpt lat="45.55807" lon="6.04891">
        <ele>1007</ele>
        <time>2021-06-27T10:25:10.071Z</time>
      </trkpt>
      <trkpt lat="45.55809" lon="6.04892">
        <ele>1007</ele>
        <time>2021-06-27T10:25:11.071Z</time>
      </trkpt>
      <trkpt lat="45.55809" lon="6.04893">
        <ele>1007</ele>
        <time>2021-06-27T10:25:12.071Z</time>
      </trkpt>
      <trkpt lat="45.55809" lon="6.04894">
        <ele>1007</ele>
        <time>2021-06-27T10:25:13.071Z</time>
      </trkpt>
      <trkpt lat="45.55809" lon="6.04895">
        <ele>1008</ele>
        <time>2021-06-27T10:25:14.070Z</time>
      </trkpt>
      <trkpt lat="45.5581" lon="6.04895">
        <ele>1008</ele>
        <time>2021-06-27T10:25:15.071Z</time>
      </trkpt>
      <trkpt lat="45.55811" lon="6.04895">
        <ele>1008</ele>
        <time>2021-06-27T10:25:16.071Z</time>
      </trkpt>
      <trkpt lat="45.55812" lon="6.04896">
        <ele>1009</ele>
        <time>2021-06-27T10:25:17.071Z</time>
      </trkpt>
      <trkpt lat="45.55812" lon="6.04897">
        <ele>1010</ele>
        <time>2021-06-27T10:25:18.071Z</time>
      </trkpt>
      <trkpt lat="45.55812" lon="6.04897">
        <ele>1011</ele>
        <time>2021-06-27T10:25:19.070Z</time>
      </trkpt>
      <trkpt lat="45.55813" lon="6.04898">
        <ele>1011</ele>
        <time>2021-06-27T10:25:20.070Z</time>
      </trkpt>
      <trkpt lat="45.55814" lon="6.04899">
        <ele>1012</ele>
        <time>2021-06-27T10:25:21.071Z</time>
      </trkpt>
      <trkpt lat="45.55815" lon="6.04899">
        <ele>1012</ele>
        <time>2021-06-27T10:25:22.071Z</time>
      </trkpt>
      <trkpt lat="45.55816" lon="6.049">
        <ele>1012</ele>
        <time>2021-06-27T10:25:23.071Z</time>
      </trkpt>
      <trkpt lat="45.55817" lon="6.04901">
        <ele>1012</ele>
        <time>2021-06-27T10:25:24.071Z</time>
      </trkpt>
      <trkpt lat="45.55817" lon="6.04902">
        <ele>1012</ele>
        <time>2021-06-27T10:25:25.070Z</time>
      </trkpt>
      <trkpt lat="45.55818" lon="6.04903">
        <ele>1012</ele>
        <time>2021-06-27T10:25:26.071Z</time>
      </trkpt>
      <trkpt lat="45.55819" lon="6.04903">
        <ele>1012</ele>
        <time>2021-06-27T10:25:27.071Z</time>
      </trkpt>
      <trkpt lat="45.55819" lon="6.04904">
        <ele>1012</ele>
        <time>2021-06-27T10:25:28.071Z</time>
      </trkpt>
      <trkpt lat="45.5582" lon="6.04904">
        <ele>1011</ele>
        <time>2021-06-27T10:25:29.071Z</time>
      </trkpt>
      <trkpt lat="45.55821" lon="6.04905">
        <ele>1011</ele>
        <time>2021-06-27T10:25:30.070Z</time>
      </trkpt>
      <trkpt lat="45.55822" lon="6.04906">
        <ele>1010</ele>
        <time>2021-06-27T10:25:31.071Z</time>
      </trkpt>
      <trkpt lat="45.55824" lon="6.04907">
        <ele>1010</ele>
        <time>2021-06-27T10:25:32.071Z</time>
      </trkpt>
      <trkpt lat="45.55824" lon="6.04908">
        <ele>1010</ele>
        <time>2021-06-27T10:25:33.070Z</time>
      </trkpt>
      <trkpt lat="45.55825" lon="6.04909">
        <ele>1009</ele>
        <time>2021-06-27T10:25:34.071Z</time>
      </trkpt>
      <trkpt lat="45.55826" lon="6.0491">
        <ele>1009</ele>
        <time>2021-06-27T10:25:35.071Z</time>
      </trkpt>
      <trkpt lat="45.55827" lon="6.04911">
        <ele>1008</ele>
        <time>2021-06-27T10:25:36.071Z</time>
      </trkpt>
      <trkpt lat="45.55828" lon="6.04912">
        <ele>1008</ele>
        <time>2021-06-27T10:25:37.071Z</time>
      </trkpt>
      <trkpt lat="45.55829" lon="6.04913">
        <ele>1008</ele>
        <time>2021-06-27T10:25:38.070Z</time>
      </trkpt>
      <trkpt lat="45.5583" lon="6.04914">
        <ele>1008</ele>
        <time>2021-06-27T10:25:39.071Z</time>
      </trkpt>
      <trkpt lat="45.55831" lon="6.04914">
        <ele>1008</ele>
        <time>2021-06-27T10:25:40.071Z</time>
      </trkpt>
      <trkpt lat="45.55832" lon="6.04914">
        <ele>1008</ele>
        <time>2021-06-27T10:25:41.071Z</time>
      </trkpt>
      <trkpt lat="45.55833" lon="6.04915">
        <ele>1009</ele>
        <time>2021-06-27T10:25:42.071Z</time>
      </trkpt>
      <trkpt lat="45.55835" lon="6.04917">
        <ele>1009</ele>
        <time>2021-06-27T10:25:43.070Z</time>
      </trkpt>
      <trkpt lat="45.55836" lon="6.04918">
        <ele>1009</ele>
        <time>2021-06-27T10:25:44.070Z</time>
      </trkpt>
      <trkpt lat="45.55838" lon="6.04918">
        <ele>1009</ele>
        <time>2021-06-27T10:25:45.071Z</time>
      </trkpt>
      <trkpt lat="45.55839" lon="6.0492">
        <ele>1009</ele>
        <time>2021-06-27T10:25:46.071Z</time>
      </trkpt>
      <trkpt lat="45.5584" lon="6.04921">
        <ele>1009</ele>
        <time>2021-06-27T10:25:47.071Z</time>
      </trkpt>
      <trkpt lat="45.55841" lon="6.04922">
        <ele>1010</ele>
        <time>2021-06-27T10:25:48.070Z</time>
      </trkpt>
      <trkpt lat="45.55841" lon="6.04923">
        <ele>1010</ele>
        <time>2021-06-27T10:25:49.071Z</time>
      </trkpt>
      <trkpt lat="45.5584" lon="6.04925">
        <ele>1010</ele>
        <time>2021-06-27T10:25:50.071Z</time>
      </trkpt>
      <trkpt lat="45.55841" lon="6.04926">
        <ele>1010</ele>
        <time>2021-06-27T10:25:51.071Z</time>
      </trkpt>
      <trkpt lat="45.55841" lon="6.04927">
        <ele>1011</ele>
        <time>2021-06-27T10:25:52.071Z</time>
      </trkpt>
      <trkpt lat="45.55842" lon="6.04929">
        <ele>1011</ele>
        <time>2021-06-27T10:25:53.071Z</time>
      </trkpt>
      <trkpt lat="45.55843" lon="6.0493">
        <ele>1011</ele>
        <time>2021-06-27T10:25:54.071Z</time>
      </trkpt>
      <trkpt lat="45.55844" lon="6.04931">
        <ele>1011</ele>
        <time>2021-06-27T10:25:55.071Z</time>
      </trkpt>
      <trkpt lat="45.55845" lon="6.04932">
        <ele>1011</ele>
        <time>2021-06-27T10:25:56.071Z</time>
      </trkpt>
      <trkpt lat="45.55845" lon="6.04934">
        <ele>1010</ele>
        <time>2021-06-27T10:25:57.071Z</time>
      </trkpt>
      <trkpt lat="45.55845" lon="6.04935">
        <ele>1010</ele>
        <time>2021-06-27T10:25:58.071Z</time>
      </trkpt>
      <trkpt lat="45.55845" lon="6.04937">
        <ele>1009</ele>
        <time>2021-06-27T10:25:59.070Z</time>
      </trkpt>
      <trkpt lat="45.55845" lon="6.04939">
        <ele>1009</ele>
        <time>2021-06-27T10:26:00.071Z</time>
      </trkpt>
      <trkpt lat="45.55844" lon="6.0494">
        <ele>1008</ele>
        <time>2021-06-27T10:26:01.071Z</time>
      </trkpt>
      <trkpt lat="45.55843" lon="6.04941">
        <ele>1008</ele>
        <time>2021-06-27T10:26:02.071Z</time>
      </trkpt>
      <trkpt lat="45.55842" lon="6.04943">
        <ele>1007</ele>
        <time>2021-06-27T10:26:03.071Z</time>
      </trkpt>
      <trkpt lat="45.55842" lon="6.04944">
        <ele>1007</ele>
        <time>2021-06-27T10:26:04.071Z</time>
      </trkpt>
      <trkpt lat="45.55842" lon="6.04946">
        <ele>1006</ele>
        <time>2021-06-27T10:26:05.070Z</time>
      </trkpt>
      <trkpt lat="45.55842" lon="6.04947">
        <ele>1005</ele>
        <time>2021-06-27T10:26:06.071Z</time>
      </trkpt>
      <trkpt lat="45.55843" lon="6.04949">
        <ele>1004</ele>
        <time>2021-06-27T10:26:07.071Z</time>
      </trkpt>
      <trkpt lat="45.55842" lon="6.04951">
        <ele>1004</ele>
        <time>2021-06-27T10:26:08.071Z</time>
      </trkpt>
      <trkpt lat="45.55842" lon="6.04952">
        <ele>1003</ele>
        <time>2021-06-27T10:26:09.071Z</time>
      </trkpt>
      <trkpt lat="45.55841" lon="6.04954">
        <ele>1002</ele>
        <time>2021-06-27T10:26:10.070Z</time>
      </trkpt>
      <trkpt lat="45.55842" lon="6.04956">
        <ele>1002</ele>
        <time>2021-06-27T10:26:11.071Z</time>
      </trkpt>
      <trkpt lat="45.55842" lon="6.04957">
        <ele>1001</ele>
        <time>2021-06-27T10:26:12.071Z</time>
      </trkpt>
      <trkpt lat="45.55842" lon="6.04959">
        <ele>1001</ele>
        <time>2021-06-27T10:26:13.071Z</time>
      </trkpt>
      <trkpt lat="45.55841" lon="6.0496">
        <ele>1001</ele>
        <time>2021-06-27T10:26:14.071Z</time>
      </trkpt>
      <trkpt lat="45.55841" lon="6.0496">
        <ele>1001</ele>
        <time>2021-06-27T10:26:15.071Z</time>
      </trkpt>
      <trkpt lat="45.55841" lon="6.04962">
        <ele>1001</ele>
        <time>2021-06-27T10:26:16.071Z</time>
      </trkpt>
      <trkpt lat="45.55841" lon="6.04963">
        <ele>1001</ele>
        <time>2021-06-27T10:26:17.071Z</time>
      </trkpt>
      <trkpt lat="45.55841" lon="6.04964">
        <ele>1001</ele>
        <time>2021-06-27T10:26:18.071Z</time>
      </trkpt>
      <trkpt lat="45.55841" lon="6.04965">
        <ele>1001</ele>
        <time>2021-06-27T10:26:19.071Z</time>
      </trkpt>
      <trkpt lat="45.55841" lon="6.04967">
        <ele>1001</ele>
        <time>2021-06-27T10:26:20.071Z</time>
      </trkpt>
      <trkpt lat="45.55841" lon="6.04968">
        <ele>1001</ele>
        <time>2021-06-27T10:26:21.070Z</time>
      </trkpt>
      <trkpt lat="45.55841" lon="6.0497">
        <ele>1001</ele>
        <time>2021-06-27T10:26:22.071Z</time>
      </trkpt>
      <trkpt lat="45.55841" lon="6.04971">
        <ele>1000</ele>
        <time>2021-06-27T10:26:23.071Z</time>
      </trkpt>
      <trkpt lat="45.55841" lon="6.04973">
        <ele>1000</ele>
        <time>2021-06-27T10:26:24.071Z</time>
      </trkpt>
      <trkpt lat="45.55841" lon="6.04974">
        <ele>1000</ele>
        <time>2021-06-27T10:26:25.071Z</time>
      </trkpt>
      <trkpt lat="45.55841" lon="6.04976">
        <ele>1000</ele>
        <time>2021-06-27T10:26:26.071Z</time>
      </trkpt>
      <trkpt lat="45.5584" lon="6.04978">
        <ele>1000</ele>
        <time>2021-06-27T10:26:27.070Z</time>
      </trkpt>
      <trkpt lat="45.5584" lon="6.0498">
        <ele>1000</ele>
        <time>2021-06-27T10:26:28.071Z</time>
      </trkpt>
      <trkpt lat="45.5584" lon="6.04981">
        <ele>1001</ele>
        <time>2021-06-27T10:26:29.071Z</time>
      </trkpt>
      <trkpt lat="45.5584" lon="6.04982">
        <ele>1001</ele>
        <time>2021-06-27T10:26:30.071Z</time>
      </trkpt>
      <trkpt lat="45.55841" lon="6.04982">
        <ele>1001</ele>
        <time>2021-06-27T10:26:31.071Z</time>
      </trkpt>
      <trkpt lat="45.55841" lon="6.04983">
        <ele>1001</ele>
        <time>2021-06-27T10:26:32.071Z</time>
      </trkpt>
      <trkpt lat="45.55841" lon="6.04983">
        <ele>1002</ele>
        <time>2021-06-27T10:26:33.071Z</time>
      </trkpt>
      <trkpt lat="45.55841" lon="6.04985">
        <ele>1002</ele>
        <time>2021-06-27T10:26:34.071Z</time>
      </trkpt>
      <trkpt lat="45.55842" lon="6.04987">
        <ele>1003</ele>
        <time>2021-06-27T10:26:35.071Z</time>
      </trkpt>
      <trkpt lat="45.55842" lon="6.04989">
        <ele>1003</ele>
        <time>2021-06-27T10:26:36.071Z</time>
      </trkpt>
      <trkpt lat="45.55842" lon="6.0499">
        <ele>1004</ele>
        <time>2021-06-27T10:26:37.071Z</time>
      </trkpt>
      <trkpt lat="45.55842" lon="6.04991">
        <ele>1005</ele>
        <time>2021-06-27T10:26:38.071Z</time>
      </trkpt>
      <trkpt lat="45.5584" lon="6.04992">
        <ele>1006</ele>
        <time>2021-06-27T10:26:39.071Z</time>
      </trkpt>
      <trkpt lat="45.55841" lon="6.04993">
        <ele>1007</ele>
        <time>2021-06-27T10:26:40.070Z</time>
      </trkpt>
      <trkpt lat="45.55841" lon="6.04994">
        <ele>1007</ele>
        <time>2021-06-27T10:26:41.071Z</time>
      </trkpt>
      <trkpt lat="45.55842" lon="6.04995">
        <ele>1008</ele>
        <time>2021-06-27T10:26:42.071Z</time>
      </trkpt>
      <trkpt lat="45.55842" lon="6.04996">
        <ele>1009</ele>
        <time>2021-06-27T10:26:43.071Z</time>
      </trkpt>
      <trkpt lat="45.55842" lon="6.04997">
        <ele>1009</ele>
        <time>2021-06-27T10:26:44.071Z</time>
      </trkpt>
      <trkpt lat="45.55842" lon="6.04998">
        <ele>1010</ele>
        <time>2021-06-27T10:26:45.071Z</time>
      </trkpt>
      <trkpt lat="45.55842" lon="6.04999">
        <ele>1011</ele>
        <time>2021-06-27T10:26:46.071Z</time>
      </trkpt>
      <trkpt lat="45.55842" lon="6.05">
        <ele>1012</ele>
        <time>2021-06-27T10:26:47.071Z</time>
      </trkpt>
      <trkpt lat="45.55842" lon="6.05001">
        <ele>1013</ele>
        <time>2021-06-27T10:26:48.071Z</time>
      </trkpt>
      <trkpt lat="45.55842" lon="6.05002">
        <ele>1014</ele>
        <time>2021-06-27T10:26:49.070Z</time>
      </trkpt>
      <trkpt lat="45.55843" lon="6.05002">
        <ele>1014</ele>
        <time>2021-06-27T10:26:50.071Z</time>
      </trkpt>
      <trkpt lat="45.55843" lon="6.05003">
        <ele>1015</ele>
        <time>2021-06-27T10:26:51.071Z</time>
      </trkpt>
      <trkpt lat="45.55843" lon="6.05004">
        <ele>1016</ele>
        <time>2021-06-27T10:26:52.071Z</time>
      </trkpt>
      <trkpt lat="45.55844" lon="6.05006">
        <ele>1017</ele>
        <time>2021-06-27T10:26:53.071Z</time>
      </trkpt>
      <trkpt lat="45.55843" lon="6.05007">
        <ele>1017</ele>
        <time>2021-06-27T10:26:54.070Z</time>
      </trkpt>
      <trkpt lat="45.55843" lon="6.05009">
        <ele>1018</ele>
        <time>2021-06-27T10:26:55.071Z</time>
      </trkpt>
      <trkpt lat="45.55844" lon="6.0501">
        <ele>1019</ele>
        <time>2021-06-27T10:26:56.071Z</time>
      </trkpt>
      <trkpt lat="45.55844" lon="6.05011">
        <ele>1020</ele>
        <time>2021-06-27T10:26:57.070Z</time>
      </trkpt>
      <trkpt lat="45.55845" lon="6.05012">
        <ele>1021</ele>
        <time>2021-06-27T10:26:58.071Z</time>
      </trkpt>
      <trkpt lat="45.55847" lon="6.05013">
        <ele>1021</ele>
        <time>2021-06-27T10:26:59.071Z</time>
      </trkpt>
      <trkpt lat="45.55847" lon="6.05014">
        <ele>1022</ele>
        <time>2021-06-27T10:27:00.071Z</time>
      </trkpt>
      <trkpt lat="45.55847" lon="6.05015">
        <ele>1023</ele>
        <time>2021-06-27T10:27:01.071Z</time>
      </trkpt>
      <trkpt lat="45.55848" lon="6.05016">
        <ele>1024</ele>
        <time>2021-06-27T10:27:02.071Z</time>
      </trkpt>
      <trkpt lat="45.55848" lon="6.05018">
        <ele>1024</ele>
        <time>2021-06-27T10:27:03.071Z</time>
      </trkpt>
      <trkpt lat="45.55848" lon="6.0502">
        <ele>1025</ele>
        <time>2021-06-27T10:27:04.070Z</time>
      </trkpt>
      <trkpt lat="45.55848" lon="6.05022">
        <ele>1025</ele>
        <time>2021-06-27T10:27:05.071Z</time>
      </trkpt>
      <trkpt lat="45.55849" lon="6.05024">
        <ele>1026</ele>
        <time>2021-06-27T10:27:06.071Z</time>
      </trkpt>
      <trkpt lat="45.55849" lon="6.05025">
        <ele>1026</ele>
        <time>2021-06-27T10:27:07.070Z</time>
      </trkpt>
      <trkpt lat="45.55849" lon="6.05026">
        <ele>1026</ele>
        <time>2021-06-27T10:27:08.070Z</time>
      </trkpt>
      <trkpt lat="45.55849" lon="6.05027">
        <ele>1027</ele>
        <time>2021-06-27T10:27:09.070Z</time>
      </trkpt>
      <trkpt lat="45.55849" lon="6.05028">
        <ele>1027</ele>
        <time>2021-06-27T10:27:10.071Z</time>
      </trkpt>
      <trkpt lat="45.55849" lon="6.05029">
        <ele>1027</ele>
        <time>2021-06-27T10:27:11.071Z</time>
      </trkpt>
      <trkpt lat="45.5585" lon="6.0503">
        <ele>1027</ele>
        <time>2021-06-27T10:27:12.071Z</time>
      </trkpt>
      <trkpt lat="45.55851" lon="6.05031">
        <ele>1028</ele>
        <time>2021-06-27T10:27:13.071Z</time>
      </trkpt>
      <trkpt lat="45.55851" lon="6.05032">
        <ele>1028</ele>
        <time>2021-06-27T10:27:14.071Z</time>
      </trkpt>
      <trkpt lat="45.55851" lon="6.05033">
        <ele>1028</ele>
        <time>2021-06-27T10:27:15.071Z</time>
      </trkpt>
      <trkpt lat="45.55851" lon="6.05034">
        <ele>1029</ele>
        <time>2021-06-27T10:27:16.070Z</time>
      </trkpt>
      <trkpt lat="45.55852" lon="6.05035">
        <ele>1030</ele>
        <time>2021-06-27T10:27:17.071Z</time>
      </trkpt>
      <trkpt lat="45.55852" lon="6.05036">
        <ele>1030</ele>
        <time>2021-06-27T10:27:18.071Z</time>
      </trkpt>
      <trkpt lat="45.55852" lon="6.05038">
        <ele>1031</ele>
        <time>2021-06-27T10:27:19.071Z</time>
      </trkpt>
      <trkpt lat="45.55853" lon="6.05039">
        <ele>1032</ele>
        <time>2021-06-27T10:27:20.071Z</time>
      </trkpt>
      <trkpt lat="45.55853" lon="6.0504">
        <ele>1032</ele>
        <time>2021-06-27T10:27:21.071Z</time>
      </trkpt>
      <trkpt lat="45.55854" lon="6.05042">
        <ele>1033</ele>
        <time>2021-06-27T10:27:22.070Z</time>
      </trkpt>
      <trkpt lat="45.55855" lon="6.05042">
        <ele>1033</ele>
        <time>2021-06-27T10:27:23.071Z</time>
      </trkpt>
      <trkpt lat="45.55856" lon="6.05043">
        <ele>1034</ele>
        <time>2021-06-27T10:27:24.071Z</time>
      </trkpt>
      <trkpt lat="45.55857" lon="6.05045">
        <ele>1034</ele>
        <time>2021-06-27T10:27:25.071Z</time>
      </trkpt>
      <trkpt lat="45.55858" lon="6.05046">
        <ele>1035</ele>
        <time>2021-06-27T10:27:26.071Z</time>
      </trkpt>
      <trkpt lat="45.55858" lon="6.05048">
        <ele>1035</ele>
        <time>2021-06-27T10:27:27.071Z</time>
      </trkpt>
      <trkpt lat="45.55858" lon="6.0505">
        <ele>1036</ele>
        <time>2021-06-27T10:27:28.071Z</time>
      </trkpt>
      <trkpt lat="45.55858" lon="6.05051">
        <ele>1037</ele>
        <time>2021-06-27T10:27:29.071Z</time>
      </trkpt>
      <trkpt lat="45.55857" lon="6.05053">
        <ele>1038</ele>
        <time>2021-06-27T10:27:30.071Z</time>
      </trkpt>
      <trkpt lat="45.55858" lon="6.05054">
        <ele>1038</ele>
        <time>2021-06-27T10:27:31.071Z</time>
      </trkpt>
      <trkpt lat="45.55857" lon="6.05056">
        <ele>1038</ele>
        <time>2021-06-27T10:27:32.070Z</time>
      </trkpt>
      <trkpt lat="45.55857" lon="6.05057">
        <ele>1038</ele>
        <time>2021-06-27T10:27:33.071Z</time>
      </trkpt>
      <trkpt lat="45.55857" lon="6.05058">
        <ele>1037</ele>
        <time>2021-06-27T10:27:34.071Z</time>
      </trkpt>
      <trkpt lat="45.55857" lon="6.0506">
        <ele>1037</ele>
        <time>2021-06-27T10:27:35.071Z</time>
      </trkpt>
      <trkpt lat="45.55857" lon="6.05061">
        <ele>1037</ele>
        <time>2021-06-27T10:27:36.071Z</time>
      </trkpt>
      <trkpt lat="45.55858" lon="6.05062">
        <ele>1037</ele>
        <time>2021-06-27T10:27:37.070Z</time>
      </trkpt>
      <trkpt lat="45.55858" lon="6.05063">
        <ele>1037</ele>
        <time>2021-06-27T10:27:38.070Z</time>
      </trkpt>
      <trkpt lat="45.55858" lon="6.05064">
        <ele>1037</ele>
        <time>2021-06-27T10:27:39.071Z</time>
      </trkpt>
      <trkpt lat="45.55858" lon="6.05066">
        <ele>1037</ele>
        <time>2021-06-27T10:27:40.071Z</time>
      </trkpt>
      <trkpt lat="45.55859" lon="6.05068">
        <ele>1038</ele>
        <time>2021-06-27T10:27:41.071Z</time>
      </trkpt>
      <trkpt lat="45.55859" lon="6.05069">
        <ele>1038</ele>
        <time>2021-06-27T10:27:42.071Z</time>
      </trkpt>
      <trkpt lat="45.55859" lon="6.0507">
        <ele>1038</ele>
        <time>2021-06-27T10:27:43.070Z</time>
      </trkpt>
      <trkpt lat="45.55859" lon="6.05071">
        <ele>1038</ele>
        <time>2021-06-27T10:27:44.071Z</time>
      </trkpt>
      <trkpt lat="45.5586" lon="6.05072">
        <ele>1037</ele>
        <time>2021-06-27T10:27:45.071Z</time>
      </trkpt>
      <trkpt lat="45.5586" lon="6.05074">
        <ele>1037</ele>
        <time>2021-06-27T10:27:46.071Z</time>
      </trkpt>
      <trkpt lat="45.55861" lon="6.05075">
        <ele>1036</ele>
        <time>2021-06-27T10:27:47.071Z</time>
      </trkpt>
      <trkpt lat="45.55861" lon="6.05076">
        <ele>1036</ele>
        <time>2021-06-27T10:27:48.070Z</time>
      </trkpt>
      <trkpt lat="45.55862" lon="6.05077">
        <ele>1035</ele>
        <time>2021-06-27T10:27:49.071Z</time>
      </trkpt>
      <trkpt lat="45.55862" lon="6.05079">
        <ele>1034</ele>
        <time>2021-06-27T10:27:50.071Z</time>
      </trkpt>
      <trkpt lat="45.55863" lon="6.0508">
        <ele>1034</ele>
        <time>2021-06-27T10:27:51.071Z</time>
      </trkpt>
      <trkpt lat="45.55863" lon="6.05081">
        <ele>1034</ele>
        <time>2021-06-27T10:27:52.071Z</time>
      </trkpt>
      <trkpt lat="45.55863" lon="6.05082">
        <ele>1034</ele>
        <time>2021-06-27T10:27:53.071Z</time>
      </trkpt>
      <trkpt lat="45.55863" lon="6.05083">
        <ele>1033</ele>
        <time>2021-06-27T10:27:54.071Z</time>
      </trkpt>
      <trkpt lat="45.55864" lon="6.05084">
        <ele>1033</ele>
        <time>2021-06-27T10:27:55.071Z</time>
      </trkpt>
      <trkpt lat="45.55864" lon="6.05085">
        <ele>1033</ele>
        <time>2021-06-27T10:27:56.071Z</time>
      </trkpt>
      <trkpt lat="45.55864" lon="6.05086">
        <ele>1033</ele>
        <time>2021-06-27T10:27:57.071Z</time>
      </trkpt>
      <trkpt lat="45.55865" lon="6.05087">
        <ele>1034</ele>
        <time>2021-06-27T10:27:58.070Z</time>
      </trkpt>
      <trkpt lat="45.55865" lon="6.05088">
        <ele>1034</ele>
        <time>2021-06-27T10:27:59.071Z</time>
      </trkpt>
      <trkpt lat="45.55865" lon="6.05091">
        <ele>1034</ele>
        <time>2021-06-27T10:28:00.071Z</time>
      </trkpt>
      <trkpt lat="45.55864" lon="6.05092">
        <ele>1034</ele>
        <time>2021-06-27T10:28:01.071Z</time>
      </trkpt>
      <trkpt lat="45.55865" lon="6.05093">
        <ele>1034</ele>
        <time>2021-06-27T10:28:02.071Z</time>
      </trkpt>
      <trkpt lat="45.55866" lon="6.05093">
        <ele>1034</ele>
        <time>2021-06-27T10:28:03.071Z</time>
      </trkpt>
      <trkpt lat="45.55867" lon="6.05094">
        <ele>1034</ele>
        <time>2021-06-27T10:28:04.070Z</time>
      </trkpt>
      <trkpt lat="45.55868" lon="6.05095">
        <ele>1034</ele>
        <time>2021-06-27T10:28:05.071Z</time>
      </trkpt>
      <trkpt lat="45.55868" lon="6.05096">
        <ele>1035</ele>
        <time>2021-06-27T10:28:06.071Z</time>
      </trkpt>
      <trkpt lat="45.55869" lon="6.05097">
        <ele>1035</ele>
        <time>2021-06-27T10:28:07.071Z</time>
      </trkpt>
      <trkpt lat="45.5587" lon="6.05099">
        <ele>1035</ele>
        <time>2021-06-27T10:28:08.071Z</time>
      </trkpt>
      <trkpt lat="45.5587" lon="6.051">
        <ele>1036</ele>
        <time>2021-06-27T10:28:09.071Z</time>
      </trkpt>
      <trkpt lat="45.5587" lon="6.05101">
        <ele>1036</ele>
        <time>2021-06-27T10:28:10.070Z</time>
      </trkpt>
      <trkpt lat="45.55871" lon="6.05102">
        <ele>1036</ele>
        <time>2021-06-27T10:28:11.071Z</time>
      </trkpt>
      <trkpt lat="45.55871" lon="6.05103">
        <ele>1037</ele>
        <time>2021-06-27T10:28:12.071Z</time>
      </trkpt>
      <trkpt lat="45.55872" lon="6.05105">
        <ele>1037</ele>
        <time>2021-06-27T10:28:13.071Z</time>
      </trkpt>
      <trkpt lat="45.55872" lon="6.05106">
        <ele>1038</ele>
        <time>2021-06-27T10:28:14.071Z</time>
      </trkpt>
      <trkpt lat="45.55872" lon="6.05106">
        <ele>1038</ele>
        <time>2021-06-27T10:28:15.070Z</time>
      </trkpt>
      <trkpt lat="45.55873" lon="6.05107">
        <ele>1038</ele>
        <time>2021-06-27T10:28:16.071Z</time>
      </trkpt>
      <trkpt lat="45.55874" lon="6.05108">
        <ele>1039</ele>
        <time>2021-06-27T10:28:17.070Z</time>
      </trkpt>
      <trkpt lat="45.55874" lon="6.05109">
        <ele>1039</ele>
        <time>2021-06-27T10:28:18.071Z</time>
      </trkpt>
      <trkpt lat="45.55874" lon="6.0511">
        <ele>1040</ele>
        <time>2021-06-27T10:28:19.071Z</time>
      </trkpt>
      <trkpt lat="45.55874" lon="6.05112">
        <ele>1040</ele>
        <time>2021-06-27T10:28:20.071Z</time>
      </trkpt>
      <trkpt lat="45.55874" lon="6.05113">
        <ele>1040</ele>
        <time>2021-06-27T10:28:21.071Z</time>
      </trkpt>
      <trkpt lat="45.55875" lon="6.05114">
        <ele>1041</ele>
        <time>2021-06-27T10:28:22.071Z</time>
      </trkpt>
      <trkpt lat="45.55875" lon="6.05115">
        <ele>1041</ele>
        <time>2021-06-27T10:28:23.071Z</time>
      </trkpt>
      <trkpt lat="45.55876" lon="6.05116">
        <ele>1042</ele>
        <time>2021-06-27T10:28:24.071Z</time>
      </trkpt>
      <trkpt lat="45.55877" lon="6.05117">
        <ele>1043</ele>
        <time>2021-06-27T10:28:25.071Z</time>
      </trkpt>
      <trkpt lat="45.55877" lon="6.05118">
        <ele>1043</ele>
        <time>2021-06-27T10:28:26.071Z</time>
      </trkpt>
      <trkpt lat="45.55877" lon="6.0512">
        <ele>1044</ele>
        <time>2021-06-27T10:28:27.071Z</time>
      </trkpt>
      <trkpt lat="45.55877" lon="6.05122">
        <ele>1044</ele>
        <time>2021-06-27T10:28:28.071Z</time>
      </trkpt>
      <trkpt lat="45.55877" lon="6.05124">
        <ele>1045</ele>
        <time>2021-06-27T10:28:29.071Z</time>
      </trkpt>
      <trkpt lat="45.55876" lon="6.05126">
        <ele>1045</ele>
        <time>2021-06-27T10:28:30.071Z</time>
      </trkpt>
      <trkpt lat="45.55876" lon="6.05128">
        <ele>1045</ele>
        <time>2021-06-27T10:28:31.070Z</time>
      </trkpt>
      <trkpt lat="45.55875" lon="6.05129">
        <ele>1046</ele>
        <time>2021-06-27T10:28:32.071Z</time>
      </trkpt>
      <trkpt lat="45.55875" lon="6.0513">
        <ele>1046</ele>
        <time>2021-06-27T10:28:33.071Z</time>
      </trkpt>
      <trkpt lat="45.55874" lon="6.05131">
        <ele>1046</ele>
        <time>2021-06-27T10:28:34.071Z</time>
      </trkpt>
      <trkpt lat="45.55873" lon="6.05132">
        <ele>1046</ele>
        <time>2021-06-27T10:28:35.071Z</time>
      </trkpt>
      <trkpt lat="45.55873" lon="6.05134">
        <ele>1046</ele>
        <time>2021-06-27T10:28:36.070Z</time>
      </trkpt>
      <trkpt lat="45.55872" lon="6.05135">
        <ele>1046</ele>
        <time>2021-06-27T10:28:37.070Z</time>
      </trkpt>
      <trkpt lat="45.55872" lon="6.05137">
        <ele>1046</ele>
        <time>2021-06-27T10:28:38.071Z</time>
      </trkpt>
      <trkpt lat="45.55871" lon="6.05137">
        <ele>1045</ele>
        <time>2021-06-27T10:28:39.071Z</time>
      </trkpt>
      <trkpt lat="45.55871" lon="6.05138">
        <ele>1045</ele>
        <time>2021-06-27T10:28:40.071Z</time>
      </trkpt>
      <trkpt lat="45.5587" lon="6.05139">
        <ele>1045</ele>
        <time>2021-06-27T10:28:41.071Z</time>
      </trkpt>
      <trkpt lat="45.5587" lon="6.0514">
        <ele>1045</ele>
        <time>2021-06-27T10:28:42.070Z</time>
      </trkpt>
      <trkpt lat="45.5587" lon="6.05141">
        <ele>1045</ele>
        <time>2021-06-27T10:28:43.071Z</time>
      </trkpt>
      <trkpt lat="45.5587" lon="6.05142">
        <ele>1045</ele>
        <time>2021-06-27T10:28:44.071Z</time>
      </trkpt>
      <trkpt lat="45.5587" lon="6.05144">
        <ele>1045</ele>
        <time>2021-06-27T10:28:45.071Z</time>
      </trkpt>
      <trkpt lat="45.5587" lon="6.05145">
        <ele>1044</ele>
        <time>2021-06-27T10:28:46.071Z</time>
      </trkpt>
      <trkpt lat="45.5587" lon="6.05146">
        <ele>1044</ele>
        <time>2021-06-27T10:28:47.071Z</time>
      </trkpt>
      <trkpt lat="45.5587" lon="6.05146">
        <ele>1044</ele>
        <time>2021-06-27T10:28:48.071Z</time>
      </trkpt>
      <trkpt lat="45.5587" lon="6.05147">
        <ele>1044</ele>
        <time>2021-06-27T10:28:49.071Z</time>
      </trkpt>
      <trkpt lat="45.5587" lon="6.05148">
        <ele>1044</ele>
        <time>2021-06-27T10:28:50.071Z</time>
      </trkpt>
      <trkpt lat="45.5587" lon="6.05149">
        <ele>1044</ele>
        <time>2021-06-27T10:28:51.071Z</time>
      </trkpt>
      <trkpt lat="45.5587" lon="6.0515">
        <ele>1044</ele>
        <time>2021-06-27T10:28:52.070Z</time>
      </trkpt>
      <trkpt lat="45.55869" lon="6.05152">
        <ele>1044</ele>
        <time>2021-06-27T10:28:53.071Z</time>
      </trkpt>
      <trkpt lat="45.55869" lon="6.05153">
        <ele>1044</ele>
        <time>2021-06-27T10:28:54.070Z</time>
      </trkpt>
      <trkpt lat="45.55869" lon="6.05155">
        <ele>1044</ele>
        <time>2021-06-27T10:28:55.071Z</time>
      </trkpt>
      <trkpt lat="45.55869" lon="6.05156">
        <ele>1044</ele>
        <time>2021-06-27T10:28:56.071Z</time>
      </trkpt>
      <trkpt lat="45.5587" lon="6.05158">
        <ele>1044</ele>
        <time>2021-06-27T10:28:57.071Z</time>
      </trkpt>
      <trkpt lat="45.5587" lon="6.0516">
        <ele>1044</ele>
        <time>2021-06-27T10:28:58.071Z</time>
      </trkpt>
      <trkpt lat="45.5587" lon="6.05162">
        <ele>1044</ele>
        <time>2021-06-27T10:28:59.071Z</time>
      </trkpt>
      <trkpt lat="45.5587" lon="6.05163">
        <ele>1043</ele>
        <time>2021-06-27T10:29:00.071Z</time>
      </trkpt>
      <trkpt lat="45.55869" lon="6.05165">
        <ele>1043</ele>
        <time>2021-06-27T10:29:01.071Z</time>
      </trkpt>
      <trkpt lat="45.55869" lon="6.05167">
        <ele>1043</ele>
        <time>2021-06-27T10:29:02.071Z</time>
      </trkpt>
      <trkpt lat="45.55869" lon="6.05168">
        <ele>1043</ele>
        <time>2021-06-27T10:29:03.070Z</time>
      </trkpt>
      <trkpt lat="45.55869" lon="6.05169">
        <ele>1043</ele>
        <time>2021-06-27T10:29:04.071Z</time>
      </trkpt>
      <trkpt lat="45.55869" lon="6.05171">
        <ele>1042</ele>
        <time>2021-06-27T10:29:05.071Z</time>
      </trkpt>
      <trkpt lat="45.55869" lon="6.05172">
        <ele>1041</ele>
        <time>2021-06-27T10:29:06.071Z</time>
      </trkpt>
      <trkpt lat="45.5587" lon="6.05174">
        <ele>1041</ele>
        <time>2021-06-27T10:29:07.071Z</time>
      </trkpt>
      <trkpt lat="45.5587" lon="6.05175">
        <ele>1040</ele>
        <time>2021-06-27T10:29:08.071Z</time>
      </trkpt>
      <trkpt lat="45.55871" lon="6.05177">
        <ele>1040</ele>
        <time>2021-06-27T10:29:09.071Z</time>
      </trkpt>
      <trkpt lat="45.55871" lon="6.05177">
        <ele>1039</ele>
        <time>2021-06-27T10:29:10.070Z</time>
      </trkpt>
      <trkpt lat="45.55872" lon="6.05178">
        <ele>1039</ele>
        <time>2021-06-27T10:29:11.071Z</time>
      </trkpt>
      <trkpt lat="45.55872" lon="6.05179">
        <ele>1038</ele>
        <time>2021-06-27T10:29:12.071Z</time>
      </trkpt>
      <trkpt lat="45.55872" lon="6.05181">
        <ele>1038</ele>
        <time>2021-06-27T10:29:13.071Z</time>
      </trkpt>
      <trkpt lat="45.55872" lon="6.05181">
        <ele>1038</ele>
        <time>2021-06-27T10:29:14.071Z</time>
      </trkpt>
      <trkpt lat="45.55871" lon="6.05182">
        <ele>1038</ele>
        <time>2021-06-27T10:29:15.071Z</time>
      </trkpt>
      <trkpt lat="45.5587" lon="6.05183">
        <ele>1038</ele>
        <time>2021-06-27T10:29:16.071Z</time>
      </trkpt>
      <trkpt lat="45.5587" lon="6.05183">
        <ele>1038</ele>
        <time>2021-06-27T10:29:17.071Z</time>
      </trkpt>
      <trkpt lat="45.5587" lon="6.05183">
        <ele>1038</ele>
        <time>2021-06-27T10:29:18.071Z</time>
      </trkpt>
      <trkpt lat="45.5587" lon="6.05183">
        <ele>1039</ele>
        <time>2021-06-27T10:29:19.071Z</time>
      </trkpt>
      <trkpt lat="45.55869" lon="6.05183">
        <ele>1039</ele>
        <time>2021-06-27T10:29:20.071Z</time>
      </trkpt>
      <trkpt lat="45.55869" lon="6.05183">
        <ele>1039</ele>
        <time>2021-06-27T10:29:21.071Z</time>
      </trkpt>
      <trkpt lat="45.55869" lon="6.05183">
        <ele>1040</ele>
        <time>2021-06-27T10:29:22.070Z</time>
      </trkpt>
      <trkpt lat="45.55869" lon="6.05184">
        <ele>1041</ele>
        <time>2021-06-27T10:29:23.070Z</time>
      </trkpt>
      <trkpt lat="45.5587" lon="6.05184">
        <ele>1041</ele>
        <time>2021-06-27T10:29:24.071Z</time>
      </trkpt>
      <trkpt lat="45.5587" lon="6.05184">
        <ele>1042</ele>
        <time>2021-06-27T10:29:25.070Z</time>
      </trkpt>
      <trkpt lat="45.55871" lon="6.05185">
        <ele>1042</ele>
        <time>2021-06-27T10:29:26.070Z</time>
      </trkpt>
      <trkpt lat="45.55872" lon="6.05186">
        <ele>1043</ele>
        <time>2021-06-27T10:29:27.070Z</time>
      </trkpt>
      <trkpt lat="45.55874" lon="6.05187">
        <ele>1043</ele>
        <time>2021-06-27T10:29:28.071Z</time>
      </trkpt>
      <trkpt lat="45.55874" lon="6.05187">
        <ele>1043</ele>
        <time>2021-06-27T10:29:29.071Z</time>
      </trkpt>
      <trkpt lat="45.55875" lon="6.05188">
        <ele>1044</ele>
        <time>2021-06-27T10:29:30.071Z</time>
      </trkpt>
      <trkpt lat="45.55876" lon="6.05189">
        <ele>1044</ele>
        <time>2021-06-27T10:29:31.071Z</time>
      </trkpt>
      <trkpt lat="45.55876" lon="6.0519">
        <ele>1044</ele>
        <time>2021-06-27T10:29:32.070Z</time>
      </trkpt>
      <trkpt lat="45.55876" lon="6.05191">
        <ele>1044</ele>
        <time>2021-06-27T10:29:33.071Z</time>
      </trkpt>
      <trkpt lat="45.55876" lon="6.05192">
        <ele>1044</ele>
        <time>2021-06-27T10:29:34.071Z</time>
      </trkpt>
      <trkpt lat="45.55876" lon="6.05193">
        <ele>1044</ele>
        <time>2021-06-27T10:29:35.071Z</time>
      </trkpt>
      <trkpt lat="45.55877" lon="6.05194">
        <ele>1043</ele>
        <time>2021-06-27T10:29:36.071Z</time>
      </trkpt>
      <trkpt lat="45.55877" lon="6.05194">
        <ele>1042</ele>
        <time>2021-06-27T10:29:37.070Z</time>
      </trkpt>
      <trkpt lat="45.55877" lon="6.05195">
        <ele>1042</ele>
        <time>2021-06-27T10:29:38.070Z</time>
      </trkpt>
      <trkpt lat="45.55877" lon="6.05196">
        <ele>1041</ele>
        <time>2021-06-27T10:29:39.071Z</time>
      </trkpt>
      <trkpt lat="45.55877" lon="6.05196">
        <ele>1041</ele>
        <time>2021-06-27T10:29:40.071Z</time>
      </trkpt>
      <trkpt lat="45.55878" lon="6.05197">
        <ele>1041</ele>
        <time>2021-06-27T10:29:41.071Z</time>
      </trkpt>
      <trkpt lat="45.55878" lon="6.05198">
        <ele>1042</ele>
        <time>2021-06-27T10:29:42.071Z</time>
      </trkpt>
      <trkpt lat="45.55879" lon="6.05199">
        <ele>1042</ele>
        <time>2021-06-27T10:29:43.070Z</time>
      </trkpt>
      <trkpt lat="45.55879" lon="6.052">
        <ele>1042</ele>
        <time>2021-06-27T10:29:44.071Z</time>
      </trkpt>
      <trkpt lat="45.55879" lon="6.05201">
        <ele>1042</ele>
        <time>2021-06-27T10:29:45.071Z</time>
      </trkpt>
      <trkpt lat="45.5588" lon="6.05202">
        <ele>1041</ele>
        <time>2021-06-27T10:29:46.071Z</time>
      </trkpt>
      <trkpt lat="45.5588" lon="6.05203">
        <ele>1041</ele>
        <time>2021-06-27T10:29:47.071Z</time>
      </trkpt>
      <trkpt lat="45.5588" lon="6.05204">
        <ele>1041</ele>
        <time>2021-06-27T10:29:48.070Z</time>
      </trkpt>
      <trkpt lat="45.55881" lon="6.05205">
        <ele>1041</ele>
        <time>2021-06-27T10:29:49.071Z</time>
      </trkpt>
      <trkpt lat="45.55881" lon="6.05206">
        <ele>1041</ele>
        <time>2021-06-27T10:29:50.071Z</time>
      </trkpt>
      <trkpt lat="45.55881" lon="6.05206">
        <ele>1041</ele>
        <time>2021-06-27T10:29:51.071Z</time>
      </trkpt>
      <trkpt lat="45.55881" lon="6.05206">
        <ele>1041</ele>
        <time>2021-06-27T10:29:52.070Z</time>
      </trkpt>
      <trkpt lat="45.55882" lon="6.05207">
        <ele>1041</ele>
        <time>2021-06-27T10:29:53.071Z</time>
      </trkpt>
      <trkpt lat="45.55883" lon="6.05207">
        <ele>1041</ele>
        <time>2021-06-27T10:29:54.070Z</time>
      </trkpt>
      <trkpt lat="45.55883" lon="6.05207">
        <ele>1041</ele>
        <time>2021-06-27T10:29:55.070Z</time>
      </trkpt>
      <trkpt lat="45.55884" lon="6.05209">
        <ele>1042</ele>
        <time>2021-06-27T10:29:56.071Z</time>
      </trkpt>
      <trkpt lat="45.55885" lon="6.0521">
        <ele>1042</ele>
        <time>2021-06-27T10:29:57.071Z</time>
      </trkpt>
      <trkpt lat="45.55886" lon="6.05211">
        <ele>1042</ele>
        <time>2021-06-27T10:29:58.071Z</time>
      </trkpt>
      <trkpt lat="45.55886" lon="6.05211">
        <ele>1042</ele>
        <time>2021-06-27T10:29:59.070Z</time>
      </trkpt>
      <trkpt lat="45.55887" lon="6.05213">
        <ele>1042</ele>
        <time>2021-06-27T10:30:00.071Z</time>
      </trkpt>
      <trkpt lat="45.55888" lon="6.05213">
        <ele>1042</ele>
        <time>2021-06-27T10:30:01.071Z</time>
      </trkpt>
      <trkpt lat="45.55888" lon="6.05213">
        <ele>1042</ele>
        <time>2021-06-27T10:30:02.071Z</time>
      </trkpt>
      <trkpt lat="45.55889" lon="6.05213">
        <ele>1042</ele>
        <time>2021-06-27T10:30:03.071Z</time>
      </trkpt>
      <trkpt lat="45.5589" lon="6.05214">
        <ele>1042</ele>
        <time>2021-06-27T10:30:04.070Z</time>
      </trkpt>
      <trkpt lat="45.55891" lon="6.05215">
        <ele>1042</ele>
        <time>2021-06-27T10:30:05.071Z</time>
      </trkpt>
      <trkpt lat="45.55892" lon="6.05215">
        <ele>1042</ele>
        <time>2021-06-27T10:30:06.071Z</time>
      </trkpt>
      <trkpt lat="45.55893" lon="6.05215">
        <ele>1042</ele>
        <time>2021-06-27T10:30:07.071Z</time>
      </trkpt>
      <trkpt lat="45.55895" lon="6.05216">
        <ele>1042</ele>
        <time>2021-06-27T10:30:08.070Z</time>
      </trkpt>
      <trkpt lat="45.55896" lon="6.05216">
        <ele>1042</ele>
        <time>2021-06-27T10:30:09.070Z</time>
      </trkpt>
      <trkpt lat="45.55896" lon="6.05216">
        <ele>1042</ele>
        <time>2021-06-27T10:30:10.070Z</time>
      </trkpt>
      <trkpt lat="45.55896" lon="6.05216">
        <ele>1042</ele>
        <time>2021-06-27T10:30:11.071Z</time>
      </trkpt>
      <trkpt lat="45.55897" lon="6.05217">
        <ele>1042</ele>
        <time>2021-06-27T10:30:12.070Z</time>
      </trkpt>
      <trkpt lat="45.55897" lon="6.05217">
        <ele>1042</ele>
        <time>2021-06-27T10:30:13.070Z</time>
      </trkpt>
      <trkpt lat="45.55898" lon="6.05218">
        <ele>1042</ele>
        <time>2021-06-27T10:30:14.071Z</time>
      </trkpt>
      <trkpt lat="45.55899" lon="6.05218">
        <ele>1042</ele>
        <time>2021-06-27T10:30:15.071Z</time>
      </trkpt>
      <trkpt lat="45.559" lon="6.05219">
        <ele>1042</ele>
        <time>2021-06-27T10:30:16.071Z</time>
      </trkpt>
      <trkpt lat="45.55901" lon="6.05219">
        <ele>1042</ele>
        <time>2021-06-27T10:30:17.071Z</time>
      </trkpt>
      <trkpt lat="45.55902" lon="6.0522">
        <ele>1042</ele>
        <time>2021-06-27T10:30:18.070Z</time>
      </trkpt>
      <trkpt lat="45.55903" lon="6.0522">
        <ele>1042</ele>
        <time>2021-06-27T10:30:19.071Z</time>
      </trkpt>
      <trkpt lat="45.55904" lon="6.0522">
        <ele>1043</ele>
        <time>2021-06-27T10:30:20.071Z</time>
      </trkpt>
      <trkpt lat="45.55904" lon="6.0522">
        <ele>1043</ele>
        <time>2021-06-27T10:30:21.070Z</time>
      </trkpt>
      <trkpt lat="45.55905" lon="6.05221">
        <ele>1043</ele>
        <time>2021-06-27T10:30:22.071Z</time>
      </trkpt>
      <trkpt lat="45.55906" lon="6.05222">
        <ele>1043</ele>
        <time>2021-06-27T10:30:23.071Z</time>
      </trkpt>
      <trkpt lat="45.55906" lon="6.05222">
        <ele>1044</ele>
        <time>2021-06-27T10:30:24.071Z</time>
      </trkpt>
      <trkpt lat="45.55907" lon="6.0522">
        <ele>1044</ele>
        <time>2021-06-27T10:30:25.071Z</time>
      </trkpt>
      <trkpt lat="45.55908" lon="6.05219">
        <ele>1044</ele>
        <time>2021-06-27T10:30:26.070Z</time>
      </trkpt>
      <trkpt lat="45.55909" lon="6.05219">
        <ele>1045</ele>
        <time>2021-06-27T10:30:27.071Z</time>
      </trkpt>
      <trkpt lat="45.55909" lon="6.05219">
        <ele>1045</ele>
        <time>2021-06-27T10:30:28.071Z</time>
      </trkpt>
      <trkpt lat="45.5591" lon="6.05219">
        <ele>1045</ele>
        <time>2021-06-27T10:30:29.071Z</time>
      </trkpt>
      <trkpt lat="45.55911" lon="6.05219">
        <ele>1045</ele>
        <time>2021-06-27T10:30:30.071Z</time>
      </trkpt>
      <trkpt lat="45.55912" lon="6.05219">
        <ele>1045</ele>
        <time>2021-06-27T10:30:31.071Z</time>
      </trkpt>
      <trkpt lat="45.55913" lon="6.05218">
        <ele>1045</ele>
        <time>2021-06-27T10:30:32.071Z</time>
      </trkpt>
      <trkpt lat="45.55913" lon="6.05218">
        <ele>1045</ele>
        <time>2021-06-27T10:30:33.070Z</time>
      </trkpt>
      <trkpt lat="45.55913" lon="6.05218">
        <ele>1045</ele>
        <time>2021-06-27T10:30:34.070Z</time>
      </trkpt>
      <trkpt lat="45.55914" lon="6.05219">
        <ele>1045</ele>
        <time>2021-06-27T10:30:35.071Z</time>
      </trkpt>
      <trkpt lat="45.55915" lon="6.05219">
        <ele>1045</ele>
        <time>2021-06-27T10:30:36.071Z</time>
      </trkpt>
      <trkpt lat="45.55916" lon="6.05219">
        <ele>1045</ele>
        <time>2021-06-27T10:30:37.071Z</time>
      </trkpt>
      <trkpt lat="45.55917" lon="6.05219">
        <ele>1045</ele>
        <time>2021-06-27T10:30:38.071Z</time>
      </trkpt>
      <trkpt lat="45.55917" lon="6.05219">
        <ele>1046</ele>
        <time>2021-06-27T10:30:39.070Z</time>
      </trkpt>
      <trkpt lat="45.55919" lon="6.0522">
        <ele>1046</ele>
        <time>2021-06-27T10:30:40.071Z</time>
      </trkpt>
      <trkpt lat="45.5592" lon="6.05221">
        <ele>1047</ele>
        <time>2021-06-27T10:30:41.071Z</time>
      </trkpt>
      <trkpt lat="45.55921" lon="6.05223">
        <ele>1047</ele>
        <time>2021-06-27T10:30:42.070Z</time>
      </trkpt>
      <trkpt lat="45.55922" lon="6.05224">
        <ele>1048</ele>
        <time>2021-06-27T10:30:43.071Z</time>
      </trkpt>
      <trkpt lat="45.55922" lon="6.05225">
        <ele>1048</ele>
        <time>2021-06-27T10:30:44.071Z</time>
      </trkpt>
      <trkpt lat="45.55923" lon="6.05226">
        <ele>1048</ele>
        <time>2021-06-27T10:30:45.071Z</time>
      </trkpt>
      <trkpt lat="45.55923" lon="6.05228">
        <ele>1048</ele>
        <time>2021-06-27T10:30:46.071Z</time>
      </trkpt>
      <trkpt lat="45.55924" lon="6.05229">
        <ele>1048</ele>
        <time>2021-06-27T10:30:47.071Z</time>
      </trkpt>
      <trkpt lat="45.55924" lon="6.05229">
        <ele>1048</ele>
        <time>2021-06-27T10:30:48.070Z</time>
      </trkpt>
      <trkpt lat="45.55924" lon="6.0523">
        <ele>1049</ele>
        <time>2021-06-27T10:30:49.071Z</time>
      </trkpt>
      <trkpt lat="45.55925" lon="6.05231">
        <ele>1049</ele>
        <time>2021-06-27T10:30:50.071Z</time>
      </trkpt>
      <trkpt lat="45.55925" lon="6.05232">
        <ele>1050</ele>
        <time>2021-06-27T10:30:51.071Z</time>
      </trkpt>
      <trkpt lat="45.55926" lon="6.05234">
        <ele>1050</ele>
        <time>2021-06-27T10:30:52.071Z</time>
      </trkpt>
      <trkpt lat="45.55927" lon="6.05235">
        <ele>1051</ele>
        <time>2021-06-27T10:30:53.071Z</time>
      </trkpt>
      <trkpt lat="45.55928" lon="6.05236">
        <ele>1051</ele>
        <time>2021-06-27T10:30:54.071Z</time>
      </trkpt>
      <trkpt lat="45.55929" lon="6.05238">
        <ele>1051</ele>
        <time>2021-06-27T10:30:55.070Z</time>
      </trkpt>
      <trkpt lat="45.5593" lon="6.0524">
        <ele>1052</ele>
        <time>2021-06-27T10:30:56.071Z</time>
      </trkpt>
      <trkpt lat="45.5593" lon="6.05241">
        <ele>1052</ele>
        <time>2021-06-27T10:30:57.071Z</time>
      </trkpt>
      <trkpt lat="45.5593" lon="6.05243">
        <ele>1053</ele>
        <time>2021-06-27T10:30:58.070Z</time>
      </trkpt>
      <trkpt lat="45.55931" lon="6.05245">
        <ele>1053</ele>
        <time>2021-06-27T10:30:59.071Z</time>
      </trkpt>
      <trkpt lat="45.55932" lon="6.05248">
        <ele>1054</ele>
        <time>2021-06-27T10:31:00.071Z</time>
      </trkpt>
      <trkpt lat="45.55933" lon="6.05248">
        <ele>1054</ele>
        <time>2021-06-27T10:31:01.071Z</time>
      </trkpt>
      <trkpt lat="45.55933" lon="6.05249">
        <ele>1054</ele>
        <time>2021-06-27T10:31:02.071Z</time>
      </trkpt>
      <trkpt lat="45.55934" lon="6.05249">
        <ele>1054</ele>
        <time>2021-06-27T10:31:03.071Z</time>
      </trkpt>
      <trkpt lat="45.55935" lon="6.05249">
        <ele>1054</ele>
        <time>2021-06-27T10:31:04.071Z</time>
      </trkpt>
      <trkpt lat="45.55936" lon="6.0525">
        <ele>1055</ele>
        <time>2021-06-27T10:31:05.070Z</time>
      </trkpt>
      <trkpt lat="45.55937" lon="6.05251">
        <ele>1055</ele>
        <time>2021-06-27T10:31:06.071Z</time>
      </trkpt>
      <trkpt lat="45.55938" lon="6.05252">
        <ele>1056</ele>
        <time>2021-06-27T10:31:07.071Z</time>
      </trkpt>
      <trkpt lat="45.55939" lon="6.05253">
        <ele>1056</ele>
        <time>2021-06-27T10:31:08.071Z</time>
      </trkpt>
      <trkpt lat="45.5594" lon="6.05254">
        <ele>1057</ele>
        <time>2021-06-27T10:31:09.071Z</time>
      </trkpt>
      <trkpt lat="45.55941" lon="6.05255">
        <ele>1058</ele>
        <time>2021-06-27T10:31:10.071Z</time>
      </trkpt>
      <trkpt lat="45.55942" lon="6.05256">
        <ele>1059</ele>
        <time>2021-06-27T10:31:11.070Z</time>
      </trkpt>
      <trkpt lat="45.55943" lon="6.05257">
        <ele>1059</ele>
        <time>2021-06-27T10:31:12.071Z</time>
      </trkpt>
      <trkpt lat="45.55943" lon="6.05257">
        <ele>1060</ele>
        <time>2021-06-27T10:31:13.070Z</time>
      </trkpt>
      <trkpt lat="45.55944" lon="6.05257">
        <ele>1061</ele>
        <time>2021-06-27T10:31:14.071Z</time>
      </trkpt>
      <trkpt lat="45.55944" lon="6.05258">
        <ele>1061</ele>
        <time>2021-06-27T10:31:15.071Z</time>
      </trkpt>
      <trkpt lat="45.55944" lon="6.05259">
        <ele>1062</ele>
        <time>2021-06-27T10:31:16.070Z</time>
      </trkpt>
      <trkpt lat="45.55944" lon="6.05259">
        <ele>1062</ele>
        <time>2021-06-27T10:31:17.070Z</time>
      </trkpt>
      <trkpt lat="45.55945" lon="6.05261">
        <ele>1063</ele>
        <time>2021-06-27T10:31:18.071Z</time>
      </trkpt>
      <trkpt lat="45.55945" lon="6.05263">
        <ele>1063</ele>
        <time>2021-06-27T10:31:19.071Z</time>
      </trkpt>
      <trkpt lat="45.55945" lon="6.05264">
        <ele>1063</ele>
        <time>2021-06-27T10:31:20.071Z</time>
      </trkpt>
      <trkpt lat="45.55946" lon="6.05266">
        <ele>1063</ele>
        <time>2021-06-27T10:31:21.070Z</time>
      </trkpt>
      <trkpt lat="45.55947" lon="6.05266">
        <ele>1064</ele>
        <time>2021-06-27T10:31:22.070Z</time>
      </trkpt>
      <trkpt lat="45.55948" lon="6.05267">
        <ele>1064</ele>
        <time>2021-06-27T10:31:23.070Z</time>
      </trkpt>
      <trkpt lat="45.55949" lon="6.05268">
        <ele>1064</ele>
        <time>2021-06-27T10:31:24.071Z</time>
      </trkpt>
      <trkpt lat="45.5595" lon="6.05269">
        <ele>1065</ele>
        <time>2021-06-27T10:31:25.071Z</time>
      </trkpt>
      <trkpt lat="45.5595" lon="6.0527">
        <ele>1065</ele>
        <time>2021-06-27T10:31:26.071Z</time>
      </trkpt>
      <trkpt lat="45.55951" lon="6.05271">
        <ele>1065</ele>
        <time>2021-06-27T10:31:27.071Z</time>
      </trkpt>
      <trkpt lat="45.55951" lon="6.05272">
        <ele>1065</ele>
        <time>2021-06-27T10:31:28.071Z</time>
      </trkpt>
      <trkpt lat="45.55952" lon="6.05274">
        <ele>1065</ele>
        <time>2021-06-27T10:31:29.071Z</time>
      </trkpt>
      <trkpt lat="45.55952" lon="6.05274">
        <ele>1065</ele>
        <time>2021-06-27T10:31:30.071Z</time>
      </trkpt>
      <trkpt lat="45.55953" lon="6.05276">
        <ele>1065</ele>
        <time>2021-06-27T10:31:31.071Z</time>
      </trkpt>
      <trkpt lat="45.55954" lon="6.05278">
        <ele>1064</ele>
        <time>2021-06-27T10:31:32.071Z</time>
      </trkpt>
      <trkpt lat="45.55954" lon="6.05281">
        <ele>1063</ele>
        <time>2021-06-27T10:31:33.071Z</time>
      </trkpt>
      <trkpt lat="45.55954" lon="6.05282">
        <ele>1062</ele>
        <time>2021-06-27T10:31:34.071Z</time>
      </trkpt>
      <trkpt lat="45.55955" lon="6.05283">
        <ele>1062</ele>
        <time>2021-06-27T10:31:35.071Z</time>
      </trkpt>
      <trkpt lat="45.55955" lon="6.05284">
        <ele>1061</ele>
        <time>2021-06-27T10:31:36.071Z</time>
      </trkpt>
      <trkpt lat="45.55955" lon="6.05285">
        <ele>1061</ele>
        <time>2021-06-27T10:31:37.071Z</time>
      </trkpt>
      <trkpt lat="45.55955" lon="6.05287">
        <ele>1060</ele>
        <time>2021-06-27T10:31:38.071Z</time>
      </trkpt>
      <trkpt lat="45.55954" lon="6.05289">
        <ele>1059</ele>
        <time>2021-06-27T10:31:39.071Z</time>
      </trkpt>
      <trkpt lat="45.55955" lon="6.0529">
        <ele>1058</ele>
        <time>2021-06-27T10:31:40.070Z</time>
      </trkpt>
      <trkpt lat="45.55955" lon="6.05292">
        <ele>1058</ele>
        <time>2021-06-27T10:31:41.071Z</time>
      </trkpt>
      <trkpt lat="45.55956" lon="6.05293">
        <ele>1057</ele>
        <time>2021-06-27T10:31:42.071Z</time>
      </trkpt>
      <trkpt lat="45.55956" lon="6.05294">
        <ele>1056</ele>
        <time>2021-06-27T10:31:43.071Z</time>
      </trkpt>
      <trkpt lat="45.55956" lon="6.05296">
        <ele>1055</ele>
        <time>2021-06-27T10:31:44.071Z</time>
      </trkpt>
      <trkpt lat="45.55956" lon="6.05297">
        <ele>1055</ele>
        <time>2021-06-27T10:31:45.071Z</time>
      </trkpt>
      <trkpt lat="45.55956" lon="6.05299">
        <ele>1054</ele>
        <time>2021-06-27T10:31:46.071Z</time>
      </trkpt>
      <trkpt lat="45.55957" lon="6.053">
        <ele>1053</ele>
        <time>2021-06-27T10:31:47.071Z</time>
      </trkpt>
      <trkpt lat="45.55957" lon="6.05301">
        <ele>1053</ele>
        <time>2021-06-27T10:31:48.071Z</time>
      </trkpt>
      <trkpt lat="45.55956" lon="6.05302">
        <ele>1052</ele>
        <time>2021-06-27T10:31:49.071Z</time>
      </trkpt>
      <trkpt lat="45.55956" lon="6.05303">
        <ele>1052</ele>
        <time>2021-06-27T10:31:50.071Z</time>
      </trkpt>
      <trkpt lat="45.55955" lon="6.05304">
        <ele>1052</ele>
        <time>2021-06-27T10:31:51.070Z</time>
      </trkpt>
      <trkpt lat="45.55955" lon="6.05306">
        <ele>1051</ele>
        <time>2021-06-27T10:31:52.071Z</time>
      </trkpt>
      <trkpt lat="45.55956" lon="6.05308">
        <ele>1051</ele>
        <time>2021-06-27T10:31:53.071Z</time>
      </trkpt>
      <trkpt lat="45.55956" lon="6.0531">
        <ele>1051</ele>
        <time>2021-06-27T10:31:54.071Z</time>
      </trkpt>
      <trkpt lat="45.55955" lon="6.05312">
        <ele>1051</ele>
        <time>2021-06-27T10:31:55.071Z</time>
      </trkpt>
      <trkpt lat="45.55954" lon="6.05312">
        <ele>1051</ele>
        <time>2021-06-27T10:31:56.071Z</time>
      </trkpt>
      <trkpt lat="45.55953" lon="6.05313">
        <ele>1051</ele>
        <time>2021-06-27T10:31:57.071Z</time>
      </trkpt>
      <trkpt lat="45.55953" lon="6.05314">
        <ele>1052</ele>
        <time>2021-06-27T10:31:58.071Z</time>
      </trkpt>
      <trkpt lat="45.55952" lon="6.05314">
        <ele>1053</ele>
        <time>2021-06-27T10:31:59.070Z</time>
      </trkpt>
      <trkpt lat="45.55953" lon="6.05315">
        <ele>1053</ele>
        <time>2021-06-27T10:32:00.071Z</time>
      </trkpt>
      <trkpt lat="45.55953" lon="6.05316">
        <ele>1054</ele>
        <time>2021-06-27T10:32:01.071Z</time>
      </trkpt>
      <trkpt lat="45.55953" lon="6.05317">
        <ele>1054</ele>
        <time>2021-06-27T10:32:02.071Z</time>
      </trkpt>
      <trkpt lat="45.55953" lon="6.05318">
        <ele>1055</ele>
        <time>2021-06-27T10:32:03.071Z</time>
      </trkpt>
      <trkpt lat="45.55953" lon="6.05318">
        <ele>1056</ele>
        <time>2021-06-27T10:32:04.070Z</time>
      </trkpt>
      <trkpt lat="45.55954" lon="6.05319">
        <ele>1057</ele>
        <time>2021-06-27T10:32:05.071Z</time>
      </trkpt>
      <trkpt lat="45.55955" lon="6.05319">
        <ele>1057</ele>
        <time>2021-06-27T10:32:06.071Z</time>
      </trkpt>
      <trkpt lat="45.55955" lon="6.0532">
        <ele>1058</ele>
        <time>2021-06-27T10:32:07.071Z</time>
      </trkpt>
      <trkpt lat="45.55956" lon="6.05321">
        <ele>1059</ele>
        <time>2021-06-27T10:32:08.070Z</time>
      </trkpt>
      <trkpt lat="45.55956" lon="6.05322">
        <ele>1060</ele>
        <time>2021-06-27T10:32:09.071Z</time>
      </trkpt>
      <trkpt lat="45.55956" lon="6.05323">
        <ele>1061</ele>
        <time>2021-06-27T10:32:10.071Z</time>
      </trkpt>
      <trkpt lat="45.55957" lon="6.05324">
        <ele>1061</ele>
        <time>2021-06-27T10:32:11.070Z</time>
      </trkpt>
      <trkpt lat="45.55957" lon="6.05326">
        <ele>1062</ele>
        <time>2021-06-27T10:32:12.070Z</time>
      </trkpt>
      <trkpt lat="45.55958" lon="6.05327">
        <ele>1062</ele>
        <time>2021-06-27T10:32:13.071Z</time>
      </trkpt>
      <trkpt lat="45.55958" lon="6.05329">
        <ele>1063</ele>
        <time>2021-06-27T10:32:14.071Z</time>
      </trkpt>
      <trkpt lat="45.55959" lon="6.0533">
        <ele>1063</ele>
        <time>2021-06-27T10:32:15.070Z</time>
      </trkpt>
      <trkpt lat="45.55959" lon="6.05331">
        <ele>1064</ele>
        <time>2021-06-27T10:32:16.071Z</time>
      </trkpt>
      <trkpt lat="45.55959" lon="6.05332">
        <ele>1065</ele>
        <time>2021-06-27T10:32:17.071Z</time>
      </trkpt>
      <trkpt lat="45.55959" lon="6.05333">
        <ele>1065</ele>
        <time>2021-06-27T10:32:18.071Z</time>
      </trkpt>
      <trkpt lat="45.55959" lon="6.05335">
        <ele>1066</ele>
        <time>2021-06-27T10:32:19.071Z</time>
      </trkpt>
      <trkpt lat="45.55959" lon="6.05336">
        <ele>1066</ele>
        <time>2021-06-27T10:32:20.070Z</time>
      </trkpt>
      <trkpt lat="45.55959" lon="6.05338">
        <ele>1066</ele>
        <time>2021-06-27T10:32:21.071Z</time>
      </trkpt>
      <trkpt lat="45.55959" lon="6.05339">
        <ele>1067</ele>
        <time>2021-06-27T10:32:22.071Z</time>
      </trkpt>
      <trkpt lat="45.5596" lon="6.0534">
        <ele>1067</ele>
        <time>2021-06-27T10:32:23.071Z</time>
      </trkpt>
      <trkpt lat="45.5596" lon="6.05342">
        <ele>1067</ele>
        <time>2021-06-27T10:32:24.070Z</time>
      </trkpt>
      <trkpt lat="45.55961" lon="6.05344">
        <ele>1068</ele>
        <time>2021-06-27T10:32:25.071Z</time>
      </trkpt>
      <trkpt lat="45.55961" lon="6.05345">
        <ele>1068</ele>
        <time>2021-06-27T10:32:26.070Z</time>
      </trkpt>
      <trkpt lat="45.55961" lon="6.05346">
        <ele>1068</ele>
        <time>2021-06-27T10:32:27.071Z</time>
      </trkpt>
      <trkpt lat="45.55962" lon="6.05348">
        <ele>1069</ele>
        <time>2021-06-27T10:32:28.071Z</time>
      </trkpt>
      <trkpt lat="45.55961" lon="6.05349">
        <ele>1069</ele>
        <time>2021-06-27T10:32:29.071Z</time>
      </trkpt>
      <trkpt lat="45.55961" lon="6.05351">
        <ele>1070</ele>
        <time>2021-06-27T10:32:30.071Z</time>
      </trkpt>
      <trkpt lat="45.55961" lon="6.05352">
        <ele>1071</ele>
        <time>2021-06-27T10:32:31.071Z</time>
      </trkpt>
      <trkpt lat="45.55961" lon="6.05353">
        <ele>1071</ele>
        <time>2021-06-27T10:32:32.071Z</time>
      </trkpt>
      <trkpt lat="45.55962" lon="6.05355">
        <ele>1072</ele>
        <time>2021-06-27T10:32:33.070Z</time>
      </trkpt>
      <trkpt lat="45.55962" lon="6.05356">
        <ele>1072</ele>
        <time>2021-06-27T10:32:34.071Z</time>
      </trkpt>
      <trkpt lat="45.55962" lon="6.05357">
        <ele>1072</ele>
        <time>2021-06-27T10:32:35.071Z</time>
      </trkpt>
      <trkpt lat="45.55962" lon="6.05359">
        <ele>1072</ele>
        <time>2021-06-27T10:32:36.071Z</time>
      </trkpt>
      <trkpt lat="45.55962" lon="6.0536">
        <ele>1071</ele>
        <time>2021-06-27T10:32:37.071Z</time>
      </trkpt>
      <trkpt lat="45.55961" lon="6.05362">
        <ele>1071</ele>
        <time>2021-06-27T10:32:38.071Z</time>
      </trkpt>
      <trkpt lat="45.55961" lon="6.05363">
        <ele>1071</ele>
        <time>2021-06-27T10:32:39.071Z</time>
      </trkpt>
      <trkpt lat="45.55961" lon="6.05364">
        <ele>1071</ele>
        <time>2021-06-27T10:32:40.071Z</time>
      </trkpt>
      <trkpt lat="45.55961" lon="6.05365">
        <ele>1071</ele>
        <time>2021-06-27T10:32:41.071Z</time>
      </trkpt>
      <trkpt lat="45.55961" lon="6.05367">
        <ele>1072</ele>
        <time>2021-06-27T10:32:42.071Z</time>
      </trkpt>
      <trkpt lat="45.55962" lon="6.05368">
        <ele>1072</ele>
        <time>2021-06-27T10:32:43.070Z</time>
      </trkpt>
      <trkpt lat="45.55962" lon="6.05369">
        <ele>1073</ele>
        <time>2021-06-27T10:32:44.070Z</time>
      </trkpt>
      <trkpt lat="45.55963" lon="6.05371">
        <ele>1073</ele>
        <time>2021-06-27T10:32:45.071Z</time>
      </trkpt>
      <trkpt lat="45.55964" lon="6.05372">
        <ele>1074</ele>
        <time>2021-06-27T10:32:46.071Z</time>
      </trkpt>
      <trkpt lat="45.55964" lon="6.05373">
        <ele>1074</ele>
        <time>2021-06-27T10:32:47.071Z</time>
      </trkpt>
      <trkpt lat="45.55964" lon="6.05374">
        <ele>1074</ele>
        <time>2021-06-27T10:32:48.071Z</time>
      </trkpt>
      <trkpt lat="45.55965" lon="6.05376">
        <ele>1074</ele>
        <time>2021-06-27T10:32:49.071Z</time>
      </trkpt>
      <trkpt lat="45.55965" lon="6.05376">
        <ele>1074</ele>
        <time>2021-06-27T10:32:50.071Z</time>
      </trkpt>
      <trkpt lat="45.55965" lon="6.05378">
        <ele>1074</ele>
        <time>2021-06-27T10:32:51.071Z</time>
      </trkpt>
      <trkpt lat="45.55966" lon="6.05379">
        <ele>1075</ele>
        <time>2021-06-27T10:32:52.070Z</time>
      </trkpt>
      <trkpt lat="45.55966" lon="6.0538">
        <ele>1075</ele>
        <time>2021-06-27T10:32:53.070Z</time>
      </trkpt>
      <trkpt lat="45.55966" lon="6.05381">
        <ele>1075</ele>
        <time>2021-06-27T10:32:54.070Z</time>
      </trkpt>
      <trkpt lat="45.55967" lon="6.05382">
        <ele>1076</ele>
        <time>2021-06-27T10:32:55.071Z</time>
      </trkpt>
      <trkpt lat="45.55967" lon="6.05383">
        <ele>1077</ele>
        <time>2021-06-27T10:32:56.071Z</time>
      </trkpt>
      <trkpt lat="45.55968" lon="6.05385">
        <ele>1077</ele>
        <time>2021-06-27T10:32:57.071Z</time>
      </trkpt>
      <trkpt lat="45.55968" lon="6.05386">
        <ele>1077</ele>
        <time>2021-06-27T10:32:58.071Z</time>
      </trkpt>
      <trkpt lat="45.55967" lon="6.05388">
        <ele>1078</ele>
        <time>2021-06-27T10:32:59.071Z</time>
      </trkpt>
      <trkpt lat="45.55967" lon="6.0539">
        <ele>1078</ele>
        <time>2021-06-27T10:33:00.071Z</time>
      </trkpt>
      <trkpt lat="45.55967" lon="6.05392">
        <ele>1078</ele>
        <time>2021-06-27T10:33:01.071Z</time>
      </trkpt>
      <trkpt lat="45.55967" lon="6.05393">
        <ele>1078</ele>
        <time>2021-06-27T10:33:02.071Z</time>
      </trkpt>
      <trkpt lat="45.55967" lon="6.05394">
        <ele>1079</ele>
        <time>2021-06-27T10:33:03.070Z</time>
      </trkpt>
      <trkpt lat="45.55968" lon="6.05395">
        <ele>1079</ele>
        <time>2021-06-27T10:33:04.071Z</time>
      </trkpt>
      <trkpt lat="45.55968" lon="6.05396">
        <ele>1079</ele>
        <time>2021-06-27T10:33:05.071Z</time>
      </trkpt>
      <trkpt lat="45.55968" lon="6.05397">
        <ele>1079</ele>
        <time>2021-06-27T10:33:06.070Z</time>
      </trkpt>
      <trkpt lat="45.55968" lon="6.05398">
        <ele>1079</ele>
        <time>2021-06-27T10:33:07.071Z</time>
      </trkpt>
      <trkpt lat="45.55967" lon="6.054">
        <ele>1079</ele>
        <time>2021-06-27T10:33:08.071Z</time>
      </trkpt>
      <trkpt lat="45.55967" lon="6.05401">
        <ele>1078</ele>
        <time>2021-06-27T10:33:09.070Z</time>
      </trkpt>
      <trkpt lat="45.55968" lon="6.05402">
        <ele>1078</ele>
        <time>2021-06-27T10:33:10.071Z</time>
      </trkpt>
      <trkpt lat="45.55968" lon="6.05404">
        <ele>1078</ele>
        <time>2021-06-27T10:33:11.071Z</time>
      </trkpt>
      <trkpt lat="45.55968" lon="6.05405">
        <ele>1078</ele>
        <time>2021-06-27T10:33:12.071Z</time>
      </trkpt>
      <trkpt lat="45.55968" lon="6.05406">
        <ele>1078</ele>
        <time>2021-06-27T10:33:13.071Z</time>
      </trkpt>
      <trkpt lat="45.55968" lon="6.05407">
        <ele>1078</ele>
        <time>2021-06-27T10:33:14.070Z</time>
      </trkpt>
      <trkpt lat="45.55968" lon="6.05408">
        <ele>1078</ele>
        <time>2021-06-27T10:33:15.070Z</time>
      </trkpt>
      <trkpt lat="45.55968" lon="6.0541">
        <ele>1078</ele>
        <time>2021-06-27T10:33:16.071Z</time>
      </trkpt>
      <trkpt lat="45.55968" lon="6.05411">
        <ele>1078</ele>
        <time>2021-06-27T10:33:17.070Z</time>
      </trkpt>
      <trkpt lat="45.55969" lon="6.05413">
        <ele>1077</ele>
        <time>2021-06-27T10:33:18.071Z</time>
      </trkpt>
      <trkpt lat="45.5597" lon="6.05413">
        <ele>1077</ele>
        <time>2021-06-27T10:33:19.071Z</time>
      </trkpt>
      <trkpt lat="45.5597" lon="6.05414">
        <ele>1077</ele>
        <time>2021-06-27T10:33:20.071Z</time>
      </trkpt>
      <trkpt lat="45.5597" lon="6.05415">
        <ele>1077</ele>
        <time>2021-06-27T10:33:21.071Z</time>
      </trkpt>
      <trkpt lat="45.55971" lon="6.05417">
        <ele>1077</ele>
        <time>2021-06-27T10:33:22.070Z</time>
      </trkpt>
      <trkpt lat="45.55971" lon="6.05419">
        <ele>1077</ele>
        <time>2021-06-27T10:33:23.071Z</time>
      </trkpt>
      <trkpt lat="45.55972" lon="6.0542">
        <ele>1078</ele>
        <time>2021-06-27T10:33:24.071Z</time>
      </trkpt>
      <trkpt lat="45.55972" lon="6.05421">
        <ele>1078</ele>
        <time>2021-06-27T10:33:25.071Z</time>
      </trkpt>
      <trkpt lat="45.55973" lon="6.05422">
        <ele>1078</ele>
        <time>2021-06-27T10:33:26.071Z</time>
      </trkpt>
      <trkpt lat="45.55973" lon="6.05424">
        <ele>1078</ele>
        <time>2021-06-27T10:33:27.070Z</time>
      </trkpt>
      <trkpt lat="45.55974" lon="6.05425">
        <ele>1078</ele>
        <time>2021-06-27T10:33:28.071Z</time>
      </trkpt>
      <trkpt lat="45.55975" lon="6.05426">
        <ele>1078</ele>
        <time>2021-06-27T10:33:29.070Z</time>
      </trkpt>
      <trkpt lat="45.55975" lon="6.05427">
        <ele>1078</ele>
        <time>2021-06-27T10:33:30.071Z</time>
      </trkpt>
      <trkpt lat="45.55975" lon="6.05428">
        <ele>1078</ele>
        <time>2021-06-27T10:33:31.071Z</time>
      </trkpt>
      <trkpt lat="45.55976" lon="6.0543">
        <ele>1078</ele>
        <time>2021-06-27T10:33:32.070Z</time>
      </trkpt>
      <trkpt lat="45.55977" lon="6.05431">
        <ele>1078</ele>
        <time>2021-06-27T10:33:33.071Z</time>
      </trkpt>
      <trkpt lat="45.55978" lon="6.05431">
        <ele>1078</ele>
        <time>2021-06-27T10:33:34.071Z</time>
      </trkpt>
      <trkpt lat="45.55978" lon="6.05433">
        <ele>1078</ele>
        <time>2021-06-27T10:33:35.071Z</time>
      </trkpt>
      <trkpt lat="45.55979" lon="6.05434">
        <ele>1078</ele>
        <time>2021-06-27T10:33:36.071Z</time>
      </trkpt>
      <trkpt lat="45.55979" lon="6.05436">
        <ele>1078</ele>
        <time>2021-06-27T10:33:37.071Z</time>
      </trkpt>
      <trkpt lat="45.55978" lon="6.05437">
        <ele>1079</ele>
        <time>2021-06-27T10:33:38.070Z</time>
      </trkpt>
      <trkpt lat="45.55978" lon="6.05438">
        <ele>1079</ele>
        <time>2021-06-27T10:33:39.070Z</time>
      </trkpt>
      <trkpt lat="45.55979" lon="6.05438">
        <ele>1079</ele>
        <time>2021-06-27T10:33:40.071Z</time>
      </trkpt>
      <trkpt lat="45.55979" lon="6.05439">
        <ele>1079</ele>
        <time>2021-06-27T10:33:41.070Z</time>
      </trkpt>
      <trkpt lat="45.55979" lon="6.0544">
        <ele>1079</ele>
        <time>2021-06-27T10:33:42.071Z</time>
      </trkpt>
      <trkpt lat="45.55979" lon="6.05441">
        <ele>1079</ele>
        <time>2021-06-27T10:33:43.071Z</time>
      </trkpt>
      <trkpt lat="45.5598" lon="6.05441">
        <ele>1080</ele>
        <time>2021-06-27T10:33:44.071Z</time>
      </trkpt>
      <trkpt lat="45.5598" lon="6.05442">
        <ele>1080</ele>
        <time>2021-06-27T10:33:45.071Z</time>
      </trkpt>
      <trkpt lat="45.5598" lon="6.05443">
        <ele>1080</ele>
        <time>2021-06-27T10:33:46.071Z</time>
      </trkpt>
      <trkpt lat="45.5598" lon="6.05444">
        <ele>1080</ele>
        <time>2021-06-27T10:33:47.070Z</time>
      </trkpt>
      <trkpt lat="45.55979" lon="6.05445">
        <ele>1081</ele>
        <time>2021-06-27T10:33:48.071Z</time>
      </trkpt>
      <trkpt lat="45.5598" lon="6.05446">
        <ele>1081</ele>
        <time>2021-06-27T10:33:49.071Z</time>
      </trkpt>
      <trkpt lat="45.55981" lon="6.05447">
        <ele>1082</ele>
        <time>2021-06-27T10:33:50.071Z</time>
      </trkpt>
      <trkpt lat="45.55982" lon="6.05448">
        <ele>1082</ele>
        <time>2021-06-27T10:33:51.071Z</time>
      </trkpt>
      <trkpt lat="45.55983" lon="6.0545">
        <ele>1082</ele>
        <time>2021-06-27T10:33:52.071Z</time>
      </trkpt>
      <trkpt lat="45.55983" lon="6.05451">
        <ele>1082</ele>
        <time>2021-06-27T10:33:53.071Z</time>
      </trkpt>
      <trkpt lat="45.55983" lon="6.05452">
        <ele>1082</ele>
        <time>2021-06-27T10:33:54.071Z</time>
      </trkpt>
      <trkpt lat="45.55983" lon="6.05453">
        <ele>1082</ele>
        <time>2021-06-27T10:33:55.070Z</time>
      </trkpt>
      <trkpt lat="45.55982" lon="6.05454">
        <ele>1082</ele>
        <time>2021-06-27T10:33:56.070Z</time>
      </trkpt>
      <trkpt lat="45.55982" lon="6.05455">
        <ele>1082</ele>
        <time>2021-06-27T10:33:57.071Z</time>
      </trkpt>
      <trkpt lat="45.55982" lon="6.05457">
        <ele>1082</ele>
        <time>2021-06-27T10:33:58.071Z</time>
      </trkpt>
      <trkpt lat="45.55983" lon="6.05459">
        <ele>1082</ele>
        <time>2021-06-27T10:33:59.071Z</time>
      </trkpt>
      <trkpt lat="45.55984" lon="6.0546">
        <ele>1083</ele>
        <time>2021-06-27T10:34:00.071Z</time>
      </trkpt>
      <trkpt lat="45.55984" lon="6.05462">
        <ele>1083</ele>
        <time>2021-06-27T10:34:01.071Z</time>
      </trkpt>
      <trkpt lat="45.55984" lon="6.05464">
        <ele>1083</ele>
        <time>2021-06-27T10:34:02.070Z</time>
      </trkpt>
      <trkpt lat="45.55984" lon="6.05465">
        <ele>1084</ele>
        <time>2021-06-27T10:34:03.070Z</time>
      </trkpt>
      <trkpt lat="45.55984" lon="6.05467">
        <ele>1084</ele>
        <time>2021-06-27T10:34:04.071Z</time>
      </trkpt>
      <trkpt lat="45.55983" lon="6.05468">
        <ele>1084</ele>
        <time>2021-06-27T10:34:05.071Z</time>
      </trkpt>
      <trkpt lat="45.55983" lon="6.05469">
        <ele>1084</ele>
        <time>2021-06-27T10:34:06.071Z</time>
      </trkpt>
      <trkpt lat="45.55983" lon="6.05471">
        <ele>1084</ele>
        <time>2021-06-27T10:34:07.071Z</time>
      </trkpt>
      <trkpt lat="45.55983" lon="6.05472">
        <ele>1084</ele>
        <time>2021-06-27T10:34:08.071Z</time>
      </trkpt>
      <trkpt lat="45.55983" lon="6.05473">
        <ele>1084</ele>
        <time>2021-06-27T10:34:09.070Z</time>
      </trkpt>
      <trkpt lat="45.55983" lon="6.05474">
        <ele>1084</ele>
        <time>2021-06-27T10:34:10.071Z</time>
      </trkpt>
      <trkpt lat="45.55982" lon="6.05474">
        <ele>1084</ele>
        <time>2021-06-27T10:34:11.071Z</time>
      </trkpt>
      <trkpt lat="45.55982" lon="6.05475">
        <ele>1085</ele>
        <time>2021-06-27T10:34:12.071Z</time>
      </trkpt>
      <trkpt lat="45.55982" lon="6.05475">
        <ele>1086</ele>
        <time>2021-06-27T10:34:13.071Z</time>
      </trkpt>
      <trkpt lat="45.55982" lon="6.05476">
        <ele>1086</ele>
        <time>2021-06-27T10:34:14.071Z</time>
      </trkpt>
      <trkpt lat="45.55983" lon="6.05475">
        <ele>1086</ele>
        <time>2021-06-27T10:34:15.071Z</time>
      </trkpt>
      <trkpt lat="45.55983" lon="6.05475">
        <ele>1086</ele>
        <time>2021-06-27T10:34:16.070Z</time>
      </trkpt>
      <trkpt lat="45.55983" lon="6.05476">
        <ele>1086</ele>
        <time>2021-06-27T10:34:17.071Z</time>
      </trkpt>
      <trkpt lat="45.55983" lon="6.05476">
        <ele>1087</ele>
        <time>2021-06-27T10:34:18.071Z</time>
      </trkpt>
      <trkpt lat="45.55984" lon="6.05477">
        <ele>1087</ele>
        <time>2021-06-27T10:34:19.071Z</time>
      </trkpt>
      <trkpt lat="45.55985" lon="6.05478">
        <ele>1087</ele>
        <time>2021-06-27T10:34:20.070Z</time>
      </trkpt>
      <trkpt lat="45.55986" lon="6.05479">
        <ele>1088</ele>
        <time>2021-06-27T10:34:21.071Z</time>
      </trkpt>
      <trkpt lat="45.55986" lon="6.0548">
        <ele>1088</ele>
        <time>2021-06-27T10:34:22.071Z</time>
      </trkpt>
      <trkpt lat="45.55985" lon="6.05481">
        <ele>1088</ele>
        <time>2021-06-27T10:34:23.070Z</time>
      </trkpt>
      <trkpt lat="45.55985" lon="6.05482">
        <ele>1088</ele>
        <time>2021-06-27T10:34:24.071Z</time>
      </trkpt>
      <trkpt lat="45.55985" lon="6.05484">
        <ele>1089</ele>
        <time>2021-06-27T10:34:25.071Z</time>
      </trkpt>
      <trkpt lat="45.55985" lon="6.05485">
        <ele>1089</ele>
        <time>2021-06-27T10:34:26.070Z</time>
      </trkpt>
      <trkpt lat="45.55985" lon="6.05487">
        <ele>1089</ele>
        <time>2021-06-27T10:34:27.071Z</time>
      </trkpt>
      <trkpt lat="45.55985" lon="6.05488">
        <ele>1090</ele>
        <time>2021-06-27T10:34:28.071Z</time>
      </trkpt>
      <trkpt lat="45.55985" lon="6.05489">
        <ele>1090</ele>
        <time>2021-06-27T10:34:29.071Z</time>
      </trkpt>
      <trkpt lat="45.55984" lon="6.05491">
        <ele>1090</ele>
        <time>2021-06-27T10:34:30.071Z</time>
      </trkpt>
      <trkpt lat="45.55985" lon="6.05491">
        <ele>1090</ele>
        <time>2021-06-27T10:34:31.071Z</time>
      </trkpt>
      <trkpt lat="45.55985" lon="6.05492">
        <ele>1090</ele>
        <time>2021-06-27T10:34:32.071Z</time>
      </trkpt>
      <trkpt lat="45.55985" lon="6.05492">
        <ele>1090</ele>
        <time>2021-06-27T10:34:33.070Z</time>
      </trkpt>
      <trkpt lat="45.55986" lon="6.05491">
        <ele>1090</ele>
        <time>2021-06-27T10:34:34.071Z</time>
      </trkpt>
      <trkpt lat="45.55986" lon="6.05491">
        <ele>1090</ele>
        <time>2021-06-27T10:34:35.071Z</time>
      </trkpt>
      <trkpt lat="45.55986" lon="6.05491">
        <ele>1090</ele>
        <time>2021-06-27T10:34:36.071Z</time>
      </trkpt>
      <trkpt lat="45.55987" lon="6.05492">
        <ele>1090</ele>
        <time>2021-06-27T10:34:37.071Z</time>
      </trkpt>
      <trkpt lat="45.55987" lon="6.05493">
        <ele>1089</ele>
        <time>2021-06-27T10:34:38.071Z</time>
      </trkpt>
      <trkpt lat="45.55986" lon="6.05493">
        <ele>1089</ele>
        <time>2021-06-27T10:34:39.071Z</time>
      </trkpt>
      <trkpt lat="45.55986" lon="6.05494">
        <ele>1089</ele>
        <time>2021-06-27T10:34:40.071Z</time>
      </trkpt>
      <trkpt lat="45.55985" lon="6.05494">
        <ele>1089</ele>
        <time>2021-06-27T10:34:41.071Z</time>
      </trkpt>
      <trkpt lat="45.55985" lon="6.05495">
        <ele>1089</ele>
        <time>2021-06-27T10:34:42.071Z</time>
      </trkpt>
      <trkpt lat="45.55985" lon="6.05495">
        <ele>1089</ele>
        <time>2021-06-27T10:34:43.071Z</time>
      </trkpt>
      <trkpt lat="45.55985" lon="6.05496">
        <ele>1089</ele>
        <time>2021-06-27T10:34:44.071Z</time>
      </trkpt>
      <trkpt lat="45.55985" lon="6.05496">
        <ele>1089</ele>
        <time>2021-06-27T10:34:45.071Z</time>
      </trkpt>
      <trkpt lat="45.55985" lon="6.05497">
        <ele>1089</ele>
        <time>2021-06-27T10:34:46.071Z</time>
      </trkpt>
      <trkpt lat="45.55985" lon="6.05497">
        <ele>1089</ele>
        <time>2021-06-27T10:34:47.071Z</time>
      </trkpt>
      <trkpt lat="45.55985" lon="6.05498">
        <ele>1089</ele>
        <time>2021-06-27T10:34:48.071Z</time>
      </trkpt>
      <trkpt lat="45.55985" lon="6.05499">
        <ele>1089</ele>
        <time>2021-06-27T10:34:49.071Z</time>
      </trkpt>
      <trkpt lat="45.55985" lon="6.05499">
        <ele>1089</ele>
        <time>2021-06-27T10:34:50.071Z</time>
      </trkpt>
      <trkpt lat="45.55984" lon="6.055">
        <ele>1089</ele>
        <time>2021-06-27T10:34:51.071Z</time>
      </trkpt>
      <trkpt lat="45.55984" lon="6.05501">
        <ele>1089</ele>
        <time>2021-06-27T10:34:52.070Z</time>
      </trkpt>
      <trkpt lat="45.55983" lon="6.05501">
        <ele>1090</ele>
        <time>2021-06-27T10:34:53.071Z</time>
      </trkpt>
      <trkpt lat="45.55983" lon="6.05501">
        <ele>1090</ele>
        <time>2021-06-27T10:34:54.071Z</time>
      </trkpt>
      <trkpt lat="45.55983" lon="6.05501">
        <ele>1090</ele>
        <time>2021-06-27T10:34:55.071Z</time>
      </trkpt>
      <trkpt lat="45.55983" lon="6.05502">
        <ele>1090</ele>
        <time>2021-06-27T10:34:56.071Z</time>
      </trkpt>
      <trkpt lat="45.55983" lon="6.05502">
        <ele>1091</ele>
        <time>2021-06-27T10:34:57.070Z</time>
      </trkpt>
      <trkpt lat="45.55983" lon="6.05503">
        <ele>1091</ele>
        <time>2021-06-27T10:34:58.070Z</time>
      </trkpt>
      <trkpt lat="45.55983" lon="6.05504">
        <ele>1091</ele>
        <time>2021-06-27T10:34:59.070Z</time>
      </trkpt>
      <trkpt lat="45.55984" lon="6.05504">
        <ele>1091</ele>
        <time>2021-06-27T10:35:00.071Z</time>
      </trkpt>
      <trkpt lat="45.55984" lon="6.05505">
        <ele>1092</ele>
        <time>2021-06-27T10:35:01.070Z</time>
      </trkpt>
      <trkpt lat="45.55984" lon="6.05505">
        <ele>1092</ele>
        <time>2021-06-27T10:35:02.071Z</time>
      </trkpt>
      <trkpt lat="45.55985" lon="6.05506">
        <ele>1092</ele>
        <time>2021-06-27T10:35:03.070Z</time>
      </trkpt>
      <trkpt lat="45.55985" lon="6.05507">
        <ele>1092</ele>
        <time>2021-06-27T10:35:04.071Z</time>
      </trkpt>
      <trkpt lat="45.55986" lon="6.05507">
        <ele>1092</ele>
        <time>2021-06-27T10:35:05.071Z</time>
      </trkpt>
      <trkpt lat="45.55986" lon="6.05508">
        <ele>1092</ele>
        <time>2021-06-27T10:35:06.071Z</time>
      </trkpt>
      <trkpt lat="45.55986" lon="6.05509">
        <ele>1092</ele>
        <time>2021-06-27T10:35:07.070Z</time>
      </trkpt>
      <trkpt lat="45.55985" lon="6.05511">
        <ele>1092</ele>
        <time>2021-06-27T10:35:08.071Z</time>
      </trkpt>
      <trkpt lat="45.55985" lon="6.05511">
        <ele>1092</ele>
        <time>2021-06-27T10:35:09.071Z</time>
      </trkpt>
      <trkpt lat="45.55986" lon="6.05512">
        <ele>1091</ele>
        <time>2021-06-27T10:35:10.071Z</time>
      </trkpt>
      <trkpt lat="45.55986" lon="6.05514">
        <ele>1091</ele>
        <time>2021-06-27T10:35:11.071Z</time>
      </trkpt>
      <trkpt lat="45.55987" lon="6.05515">
        <ele>1091</ele>
        <time>2021-06-27T10:35:12.071Z</time>
      </trkpt>
      <trkpt lat="45.55987" lon="6.05516">
        <ele>1091</ele>
        <time>2021-06-27T10:35:13.070Z</time>
      </trkpt>
      <trkpt lat="45.55987" lon="6.05517">
        <ele>1090</ele>
        <time>2021-06-27T10:35:14.071Z</time>
      </trkpt>
      <trkpt lat="45.55987" lon="6.05518">
        <ele>1090</ele>
        <time>2021-06-27T10:35:15.071Z</time>
      </trkpt>
      <trkpt lat="45.55988" lon="6.05519">
        <ele>1090</ele>
        <time>2021-06-27T10:35:16.070Z</time>
      </trkpt>
      <trkpt lat="45.55989" lon="6.0552">
        <ele>1090</ele>
        <time>2021-06-27T10:35:17.071Z</time>
      </trkpt>
      <trkpt lat="45.5599" lon="6.05521">
        <ele>1090</ele>
        <time>2021-06-27T10:35:18.071Z</time>
      </trkpt>
      <trkpt lat="45.5599" lon="6.05522">
        <ele>1090</ele>
        <time>2021-06-27T10:35:19.071Z</time>
      </trkpt>
      <trkpt lat="45.5599" lon="6.05523">
        <ele>1091</ele>
        <time>2021-06-27T10:35:20.071Z</time>
      </trkpt>
      <trkpt lat="45.5599" lon="6.05524">
        <ele>1091</ele>
        <time>2021-06-27T10:35:21.071Z</time>
      </trkpt>
      <trkpt lat="45.55991" lon="6.05525">
        <ele>1091</ele>
        <time>2021-06-27T10:35:22.070Z</time>
      </trkpt>
      <trkpt lat="45.55992" lon="6.05526">
        <ele>1092</ele>
        <time>2021-06-27T10:35:23.071Z</time>
      </trkpt>
      <trkpt lat="45.55992" lon="6.05528">
        <ele>1092</ele>
        <time>2021-06-27T10:35:24.070Z</time>
      </trkpt>
      <trkpt lat="45.55993" lon="6.05529">
        <ele>1092</ele>
        <time>2021-06-27T10:35:25.070Z</time>
      </trkpt>
      <trkpt lat="45.55993" lon="6.0553">
        <ele>1092</ele>
        <time>2021-06-27T10:35:26.071Z</time>
      </trkpt>
      <trkpt lat="45.55993" lon="6.05532">
        <ele>1092</ele>
        <time>2021-06-27T10:35:27.071Z</time>
      </trkpt>
      <trkpt lat="45.55993" lon="6.05533">
        <ele>1092</ele>
        <time>2021-06-27T10:35:28.070Z</time>
      </trkpt>
      <trkpt lat="45.55993" lon="6.05535">
        <ele>1092</ele>
        <time>2021-06-27T10:35:29.071Z</time>
      </trkpt>
      <trkpt lat="45.55993" lon="6.05536">
        <ele>1092</ele>
        <time>2021-06-27T10:35:30.071Z</time>
      </trkpt>
      <trkpt lat="45.55993" lon="6.05538">
        <ele>1091</ele>
        <time>2021-06-27T10:35:31.071Z</time>
      </trkpt>
      <trkpt lat="45.55994" lon="6.05539">
        <ele>1091</ele>
        <time>2021-06-27T10:35:32.071Z</time>
      </trkpt>
      <trkpt lat="45.55995" lon="6.0554">
        <ele>1091</ele>
        <time>2021-06-27T10:35:33.071Z</time>
      </trkpt>
      <trkpt lat="45.55995" lon="6.0554">
        <ele>1090</ele>
        <time>2021-06-27T10:35:34.070Z</time>
      </trkpt>
      <trkpt lat="45.55996" lon="6.0554">
        <ele>1090</ele>
        <time>2021-06-27T10:35:35.071Z</time>
      </trkpt>
      <trkpt lat="45.55997" lon="6.05541">
        <ele>1091</ele>
        <time>2021-06-27T10:35:36.071Z</time>
      </trkpt>
      <trkpt lat="45.55998" lon="6.05541">
        <ele>1090</ele>
        <time>2021-06-27T10:35:37.071Z</time>
      </trkpt>
      <trkpt lat="45.55998" lon="6.05542">
        <ele>1090</ele>
        <time>2021-06-27T10:35:38.070Z</time>
      </trkpt>
      <trkpt lat="45.55999" lon="6.05543">
        <ele>1090</ele>
        <time>2021-06-27T10:35:39.070Z</time>
      </trkpt>
      <trkpt lat="45.55999" lon="6.05544">
        <ele>1090</ele>
        <time>2021-06-27T10:35:40.071Z</time>
      </trkpt>
      <trkpt lat="45.55999" lon="6.05545">
        <ele>1090</ele>
        <time>2021-06-27T10:35:41.071Z</time>
      </trkpt>
      <trkpt lat="45.55999" lon="6.05545">
        <ele>1090</ele>
        <time>2021-06-27T10:35:42.070Z</time>
      </trkpt>
      <trkpt lat="45.56" lon="6.05545">
        <ele>1089</ele>
        <time>2021-06-27T10:35:43.071Z</time>
      </trkpt>
      <trkpt lat="45.56" lon="6.05548">
        <ele>1089</ele>
        <time>2021-06-27T10:35:44.071Z</time>
      </trkpt>
      <trkpt lat="45.56" lon="6.0555">
        <ele>1089</ele>
        <time>2021-06-27T10:35:45.071Z</time>
      </trkpt>
      <trkpt lat="45.55999" lon="6.05551">
        <ele>1088</ele>
        <time>2021-06-27T10:35:46.070Z</time>
      </trkpt>
      <trkpt lat="45.55999" lon="6.05552">
        <ele>1088</ele>
        <time>2021-06-27T10:35:47.071Z</time>
      </trkpt>
      <trkpt lat="45.55999" lon="6.05553">
        <ele>1088</ele>
        <time>2021-06-27T10:35:48.071Z</time>
      </trkpt>
      <trkpt lat="45.55999" lon="6.05553">
        <ele>1087</ele>
        <time>2021-06-27T10:35:49.071Z</time>
      </trkpt>
      <trkpt lat="45.55999" lon="6.05554">
        <ele>1088</ele>
        <time>2021-06-27T10:35:50.071Z</time>
      </trkpt>
      <trkpt lat="45.55999" lon="6.05555">
        <ele>1088</ele>
        <time>2021-06-27T10:35:51.071Z</time>
      </trkpt>
      <trkpt lat="45.55999" lon="6.05556">
        <ele>1088</ele>
        <time>2021-06-27T10:35:52.071Z</time>
      </trkpt>
      <trkpt lat="45.55999" lon="6.05557">
        <ele>1088</ele>
        <time>2021-06-27T10:35:53.071Z</time>
      </trkpt>
      <trkpt lat="45.55999" lon="6.05558">
        <ele>1089</ele>
        <time>2021-06-27T10:35:54.071Z</time>
      </trkpt>
      <trkpt lat="45.55999" lon="6.05558">
        <ele>1090</ele>
        <time>2021-06-27T10:35:55.071Z</time>
      </trkpt>
      <trkpt lat="45.55999" lon="6.05559">
        <ele>1090</ele>
        <time>2021-06-27T10:35:56.071Z</time>
      </trkpt>
      <trkpt lat="45.55999" lon="6.0556">
        <ele>1090</ele>
        <time>2021-06-27T10:35:57.071Z</time>
      </trkpt>
      <trkpt lat="45.55999" lon="6.0556">
        <ele>1091</ele>
        <time>2021-06-27T10:35:58.071Z</time>
      </trkpt>
      <trkpt lat="45.55999" lon="6.0556">
        <ele>1091</ele>
        <time>2021-06-27T10:35:59.071Z</time>
      </trkpt>
      <trkpt lat="45.55999" lon="6.05562">
        <ele>1091</ele>
        <time>2021-06-27T10:36:00.071Z</time>
      </trkpt>
      <trkpt lat="45.56" lon="6.05563">
        <ele>1091</ele>
        <time>2021-06-27T10:36:01.070Z</time>
      </trkpt>
      <trkpt lat="45.56001" lon="6.05564">
        <ele>1092</ele>
        <time>2021-06-27T10:36:02.071Z</time>
      </trkpt>
      <trkpt lat="45.56001" lon="6.05565">
        <ele>1092</ele>
        <time>2021-06-27T10:36:03.071Z</time>
      </trkpt>
      <trkpt lat="45.56002" lon="6.05567">
        <ele>1092</ele>
        <time>2021-06-27T10:36:04.071Z</time>
      </trkpt>
      <trkpt lat="45.56002" lon="6.05569">
        <ele>1093</ele>
        <time>2021-06-27T10:36:05.070Z</time>
      </trkpt>
      <trkpt lat="45.56002" lon="6.0557">
        <ele>1094</ele>
        <time>2021-06-27T10:36:06.071Z</time>
      </trkpt>
      <trkpt lat="45.56003" lon="6.05571">
        <ele>1094</ele>
        <time>2021-06-27T10:36:07.071Z</time>
      </trkpt>
      <trkpt lat="45.56003" lon="6.05572">
        <ele>1094</ele>
        <time>2021-06-27T10:36:08.071Z</time>
      </trkpt>
      <trkpt lat="45.56003" lon="6.05573">
        <ele>1095</ele>
        <time>2021-06-27T10:36:09.071Z</time>
      </trkpt>
      <trkpt lat="45.56003" lon="6.05574">
        <ele>1095</ele>
        <time>2021-06-27T10:36:10.070Z</time>
      </trkpt>
      <trkpt lat="45.56003" lon="6.05574">
        <ele>1095</ele>
        <time>2021-06-27T10:36:11.071Z</time>
      </trkpt>
      <trkpt lat="45.56003" lon="6.05576">
        <ele>1095</ele>
        <time>2021-06-27T10:36:12.070Z</time>
      </trkpt>
      <trkpt lat="45.56003" lon="6.05577">
        <ele>1096</ele>
        <time>2021-06-27T10:36:13.071Z</time>
      </trkpt>
      <trkpt lat="45.56003" lon="6.05578">
        <ele>1096</ele>
        <time>2021-06-27T10:36:14.071Z</time>
      </trkpt>
      <trkpt lat="45.56003" lon="6.05579">
        <ele>1097</ele>
        <time>2021-06-27T10:36:15.071Z</time>
      </trkpt>
      <trkpt lat="45.56003" lon="6.05579">
        <ele>1098</ele>
        <time>2021-06-27T10:36:16.071Z</time>
      </trkpt>
      <trkpt lat="45.56003" lon="6.05581">
        <ele>1098</ele>
        <time>2021-06-27T10:36:17.071Z</time>
      </trkpt>
      <trkpt lat="45.56003" lon="6.05582">
        <ele>1098</ele>
        <time>2021-06-27T10:36:18.071Z</time>
      </trkpt>
      <trkpt lat="45.56003" lon="6.05583">
        <ele>1099</ele>
        <time>2021-06-27T10:36:19.071Z</time>
      </trkpt>
      <trkpt lat="45.56003" lon="6.05584">
        <ele>1099</ele>
        <time>2021-06-27T10:36:20.071Z</time>
      </trkpt>
      <trkpt lat="45.56002" lon="6.05585">
        <ele>1099</ele>
        <time>2021-06-27T10:36:21.070Z</time>
      </trkpt>
      <trkpt lat="45.56002" lon="6.05586">
        <ele>1099</ele>
        <time>2021-06-27T10:36:22.071Z</time>
      </trkpt>
      <trkpt lat="45.56001" lon="6.05588">
        <ele>1099</ele>
        <time>2021-06-27T10:36:23.071Z</time>
      </trkpt>
      <trkpt lat="45.56001" lon="6.05589">
        <ele>1099</ele>
        <time>2021-06-27T10:36:24.071Z</time>
      </trkpt>
      <trkpt lat="45.56001" lon="6.0559">
        <ele>1099</ele>
        <time>2021-06-27T10:36:25.071Z</time>
      </trkpt>
      <trkpt lat="45.56001" lon="6.05592">
        <ele>1098</ele>
        <time>2021-06-27T10:36:26.071Z</time>
      </trkpt>
      <trkpt lat="45.56001" lon="6.05593">
        <ele>1098</ele>
        <time>2021-06-27T10:36:27.071Z</time>
      </trkpt>
      <trkpt lat="45.56" lon="6.05595">
        <ele>1098</ele>
        <time>2021-06-27T10:36:28.071Z</time>
      </trkpt>
      <trkpt lat="45.56" lon="6.05596">
        <ele>1097</ele>
        <time>2021-06-27T10:36:29.071Z</time>
      </trkpt>
      <trkpt lat="45.55999" lon="6.05598">
        <ele>1097</ele>
        <time>2021-06-27T10:36:30.071Z</time>
      </trkpt>
      <trkpt lat="45.55999" lon="6.05599">
        <ele>1096</ele>
        <time>2021-06-27T10:36:31.071Z</time>
      </trkpt>
      <trkpt lat="45.55999" lon="6.056">
        <ele>1095</ele>
        <time>2021-06-27T10:36:32.070Z</time>
      </trkpt>
      <trkpt lat="45.55999" lon="6.05601">
        <ele>1094</ele>
        <time>2021-06-27T10:36:33.071Z</time>
      </trkpt>
      <trkpt lat="45.55999" lon="6.05603">
        <ele>1093</ele>
        <time>2021-06-27T10:36:34.071Z</time>
      </trkpt>
      <trkpt lat="45.55999" lon="6.05604">
        <ele>1093</ele>
        <time>2021-06-27T10:36:35.070Z</time>
      </trkpt>
      <trkpt lat="45.55999" lon="6.05605">
        <ele>1092</ele>
        <time>2021-06-27T10:36:36.071Z</time>
      </trkpt>
      <trkpt lat="45.55998" lon="6.05606">
        <ele>1092</ele>
        <time>2021-06-27T10:36:37.071Z</time>
      </trkpt>
      <trkpt lat="45.55998" lon="6.05607">
        <ele>1092</ele>
        <time>2021-06-27T10:36:38.070Z</time>
      </trkpt>
      <trkpt lat="45.55998" lon="6.05608">
        <ele>1091</ele>
        <time>2021-06-27T10:36:39.071Z</time>
      </trkpt>
      <trkpt lat="45.55998" lon="6.05609">
        <ele>1091</ele>
        <time>2021-06-27T10:36:40.071Z</time>
      </trkpt>
      <trkpt lat="45.55998" lon="6.05611">
        <ele>1091</ele>
        <time>2021-06-27T10:36:41.071Z</time>
      </trkpt>
      <trkpt lat="45.55998" lon="6.05613">
        <ele>1092</ele>
        <time>2021-06-27T10:36:42.070Z</time>
      </trkpt>
      <trkpt lat="45.55996" lon="6.05615">
        <ele>1092</ele>
        <time>2021-06-27T10:36:43.071Z</time>
      </trkpt>
      <trkpt lat="45.55996" lon="6.05617">
        <ele>1092</ele>
        <time>2021-06-27T10:36:44.071Z</time>
      </trkpt>
      <trkpt lat="45.55996" lon="6.05619">
        <ele>1092</ele>
        <time>2021-06-27T10:36:45.071Z</time>
      </trkpt>
      <trkpt lat="45.55996" lon="6.0562">
        <ele>1092</ele>
        <time>2021-06-27T10:36:46.070Z</time>
      </trkpt>
      <trkpt lat="45.55997" lon="6.0562">
        <ele>1093</ele>
        <time>2021-06-27T10:36:47.071Z</time>
      </trkpt>
      <trkpt lat="45.55997" lon="6.05621">
        <ele>1093</ele>
        <time>2021-06-27T10:36:48.071Z</time>
      </trkpt>
      <trkpt lat="45.55997" lon="6.05622">
        <ele>1094</ele>
        <time>2021-06-27T10:36:49.071Z</time>
      </trkpt>
      <trkpt lat="45.55998" lon="6.05622">
        <ele>1094</ele>
        <time>2021-06-27T10:36:50.071Z</time>
      </trkpt>
      <trkpt lat="45.55998" lon="6.05623">
        <ele>1095</ele>
        <time>2021-06-27T10:36:51.070Z</time>
      </trkpt>
      <trkpt lat="45.55998" lon="6.05624">
        <ele>1095</ele>
        <time>2021-06-27T10:36:52.071Z</time>
      </trkpt>
      <trkpt lat="45.55998" lon="6.05624">
        <ele>1095</ele>
        <time>2021-06-27T10:36:53.071Z</time>
      </trkpt>
      <trkpt lat="45.55999" lon="6.05625">
        <ele>1095</ele>
        <time>2021-06-27T10:36:54.070Z</time>
      </trkpt>
      <trkpt lat="45.55999" lon="6.05626">
        <ele>1095</ele>
        <time>2021-06-27T10:36:55.071Z</time>
      </trkpt>
      <trkpt lat="45.55999" lon="6.05627">
        <ele>1095</ele>
        <time>2021-06-27T10:36:56.071Z</time>
      </trkpt>
      <trkpt lat="45.55998" lon="6.05628">
        <ele>1095</ele>
        <time>2021-06-27T10:36:57.070Z</time>
      </trkpt>
      <trkpt lat="45.55998" lon="6.05629">
        <ele>1095</ele>
        <time>2021-06-27T10:36:58.071Z</time>
      </trkpt>
      <trkpt lat="45.55998" lon="6.05631">
        <ele>1095</ele>
        <time>2021-06-27T10:36:59.071Z</time>
      </trkpt>
      <trkpt lat="45.55998" lon="6.05632">
        <ele>1095</ele>
        <time>2021-06-27T10:37:00.071Z</time>
      </trkpt>
      <trkpt lat="45.55998" lon="6.05634">
        <ele>1095</ele>
        <time>2021-06-27T10:37:01.071Z</time>
      </trkpt>
      <trkpt lat="45.55998" lon="6.05635">
        <ele>1096</ele>
        <time>2021-06-27T10:37:02.071Z</time>
      </trkpt>
      <trkpt lat="45.55998" lon="6.05636">
        <ele>1096</ele>
        <time>2021-06-27T10:37:03.071Z</time>
      </trkpt>
      <trkpt lat="45.55999" lon="6.05637">
        <ele>1096</ele>
        <time>2021-06-27T10:37:04.071Z</time>
      </trkpt>
      <trkpt lat="45.55999" lon="6.05638">
        <ele>1096</ele>
        <time>2021-06-27T10:37:05.071Z</time>
      </trkpt>
      <trkpt lat="45.55998" lon="6.0564">
        <ele>1096</ele>
        <time>2021-06-27T10:37:06.071Z</time>
      </trkpt>
      <trkpt lat="45.55998" lon="6.05643">
        <ele>1096</ele>
        <time>2021-06-27T10:37:07.071Z</time>
      </trkpt>
      <trkpt lat="45.55997" lon="6.05645">
        <ele>1097</ele>
        <time>2021-06-27T10:37:08.071Z</time>
      </trkpt>
      <trkpt lat="45.55997" lon="6.05646">
        <ele>1097</ele>
        <time>2021-06-27T10:37:09.071Z</time>
      </trkpt>
      <trkpt lat="45.55997" lon="6.05647">
        <ele>1097</ele>
        <time>2021-06-27T10:37:10.070Z</time>
      </trkpt>
      <trkpt lat="45.55997" lon="6.05649">
        <ele>1097</ele>
        <time>2021-06-27T10:37:11.071Z</time>
      </trkpt>
      <trkpt lat="45.55997" lon="6.0565">
        <ele>1098</ele>
        <time>2021-06-27T10:37:12.071Z</time>
      </trkpt>
      <trkpt lat="45.55996" lon="6.0565">
        <ele>1098</ele>
        <time>2021-06-27T10:37:13.071Z</time>
      </trkpt>
      <trkpt lat="45.55996" lon="6.05651">
        <ele>1098</ele>
        <time>2021-06-27T10:37:14.071Z</time>
      </trkpt>
      <trkpt lat="45.55996" lon="6.05652">
        <ele>1098</ele>
        <time>2021-06-27T10:37:15.071Z</time>
      </trkpt>
      <trkpt lat="45.55996" lon="6.05653">
        <ele>1098</ele>
        <time>2021-06-27T10:37:16.071Z</time>
      </trkpt>
      <trkpt lat="45.55996" lon="6.05654">
        <ele>1098</ele>
        <time>2021-06-27T10:37:17.071Z</time>
      </trkpt>
      <trkpt lat="45.55996" lon="6.05655">
        <ele>1098</ele>
        <time>2021-06-27T10:37:18.071Z</time>
      </trkpt>
      <trkpt lat="45.55996" lon="6.05656">
        <ele>1098</ele>
        <time>2021-06-27T10:37:19.071Z</time>
      </trkpt>
      <trkpt lat="45.55996" lon="6.05657">
        <ele>1099</ele>
        <time>2021-06-27T10:37:20.071Z</time>
      </trkpt>
      <trkpt lat="45.55996" lon="6.05659">
        <ele>1099</ele>
        <time>2021-06-27T10:37:21.070Z</time>
      </trkpt>
      <trkpt lat="45.55996" lon="6.05659">
        <ele>1099</ele>
        <time>2021-06-27T10:37:22.071Z</time>
      </trkpt>
      <trkpt lat="45.55996" lon="6.0566">
        <ele>1099</ele>
        <time>2021-06-27T10:37:23.071Z</time>
      </trkpt>
      <trkpt lat="45.55996" lon="6.05662">
        <ele>1099</ele>
        <time>2021-06-27T10:37:24.071Z</time>
      </trkpt>
      <trkpt lat="45.55996" lon="6.05663">
        <ele>1099</ele>
        <time>2021-06-27T10:37:25.070Z</time>
      </trkpt>
      <trkpt lat="45.55995" lon="6.05664">
        <ele>1100</ele>
        <time>2021-06-27T10:37:26.071Z</time>
      </trkpt>
      <trkpt lat="45.55995" lon="6.05665">
        <ele>1100</ele>
        <time>2021-06-27T10:37:27.070Z</time>
      </trkpt>
      <trkpt lat="45.55996" lon="6.05666">
        <ele>1101</ele>
        <time>2021-06-27T10:37:28.070Z</time>
      </trkpt>
      <trkpt lat="45.55996" lon="6.05667">
        <ele>1102</ele>
        <time>2021-06-27T10:37:29.071Z</time>
      </trkpt>
      <trkpt lat="45.55995" lon="6.05668">
        <ele>1102</ele>
        <time>2021-06-27T10:37:30.070Z</time>
      </trkpt>
      <trkpt lat="45.55996" lon="6.05668">
        <ele>1103</ele>
        <time>2021-06-27T10:37:31.071Z</time>
      </trkpt>
      <trkpt lat="45.55996" lon="6.05668">
        <ele>1103</ele>
        <time>2021-06-27T10:37:32.071Z</time>
      </trkpt>
      <trkpt lat="45.55996" lon="6.05669">
        <ele>1104</ele>
        <time>2021-06-27T10:37:33.071Z</time>
      </trkpt>
      <trkpt lat="45.55997" lon="6.0567">
        <ele>1104</ele>
        <time>2021-06-27T10:37:34.071Z</time>
      </trkpt>
      <trkpt lat="45.55997" lon="6.05672">
        <ele>1104</ele>
        <time>2021-06-27T10:37:35.071Z</time>
      </trkpt>
      <trkpt lat="45.55997" lon="6.05674">
        <ele>1104</ele>
        <time>2021-06-27T10:37:36.071Z</time>
      </trkpt>
      <trkpt lat="45.55997" lon="6.05674">
        <ele>1104</ele>
        <time>2021-06-27T10:37:37.071Z</time>
      </trkpt>
      <trkpt lat="45.55996" lon="6.05675">
        <ele>1104</ele>
        <time>2021-06-27T10:37:38.071Z</time>
      </trkpt>
      <trkpt lat="45.55997" lon="6.05676">
        <ele>1104</ele>
        <time>2021-06-27T10:37:39.070Z</time>
      </trkpt>
      <trkpt lat="45.55997" lon="6.05676">
        <ele>1104</ele>
        <time>2021-06-27T10:37:40.070Z</time>
      </trkpt>
      <trkpt lat="45.55998" lon="6.05677">
        <ele>1104</ele>
        <time>2021-06-27T10:37:41.071Z</time>
      </trkpt>
      <trkpt lat="45.55998" lon="6.05677">
        <ele>1104</ele>
        <time>2021-06-27T10:37:42.070Z</time>
      </trkpt>
      <trkpt lat="45.55998" lon="6.05678">
        <ele>1105</ele>
        <time>2021-06-27T10:37:43.070Z</time>
      </trkpt>
      <trkpt lat="45.55998" lon="6.05678">
        <ele>1105</ele>
        <time>2021-06-27T10:37:44.071Z</time>
      </trkpt>
      <trkpt lat="45.55998" lon="6.05679">
        <ele>1106</ele>
        <time>2021-06-27T10:37:45.071Z</time>
      </trkpt>
      <trkpt lat="45.55998" lon="6.0568">
        <ele>1107</ele>
        <time>2021-06-27T10:37:46.071Z</time>
      </trkpt>
      <trkpt lat="45.55998" lon="6.0568">
        <ele>1107</ele>
        <time>2021-06-27T10:37:47.071Z</time>
      </trkpt>
      <trkpt lat="45.55998" lon="6.05681">
        <ele>1108</ele>
        <time>2021-06-27T10:37:48.071Z</time>
      </trkpt>
      <trkpt lat="45.55998" lon="6.05683">
        <ele>1108</ele>
        <time>2021-06-27T10:37:49.071Z</time>
      </trkpt>
      <trkpt lat="45.55998" lon="6.05684">
        <ele>1109</ele>
        <time>2021-06-27T10:37:50.071Z</time>
      </trkpt>
      <trkpt lat="45.55998" lon="6.05685">
        <ele>1110</ele>
        <time>2021-06-27T10:37:51.071Z</time>
      </trkpt>
      <trkpt lat="45.55999" lon="6.05686">
        <ele>1110</ele>
        <time>2021-06-27T10:37:52.071Z</time>
      </trkpt>
      <trkpt lat="45.56" lon="6.05686">
        <ele>1111</ele>
        <time>2021-06-27T10:37:53.070Z</time>
      </trkpt>
      <trkpt lat="45.56" lon="6.05688">
        <ele>1111</ele>
        <time>2021-06-27T10:37:54.071Z</time>
      </trkpt>
      <trkpt lat="45.56" lon="6.05689">
        <ele>1111</ele>
        <time>2021-06-27T10:37:55.071Z</time>
      </trkpt>
      <trkpt lat="45.56" lon="6.05691">
        <ele>1111</ele>
        <time>2021-06-27T10:37:56.070Z</time>
      </trkpt>
      <trkpt lat="45.56" lon="6.05692">
        <ele>1111</ele>
        <time>2021-06-27T10:37:57.071Z</time>
      </trkpt>
      <trkpt lat="45.55999" lon="6.05693">
        <ele>1112</ele>
        <time>2021-06-27T10:37:58.071Z</time>
      </trkpt>
      <trkpt lat="45.55999" lon="6.05695">
        <ele>1112</ele>
        <time>2021-06-27T10:37:59.070Z</time>
      </trkpt>
      <trkpt lat="45.55999" lon="6.05695">
        <ele>1112</ele>
        <time>2021-06-27T10:38:00.071Z</time>
      </trkpt>
      <trkpt lat="45.55999" lon="6.05696">
        <ele>1112</ele>
        <time>2021-06-27T10:38:01.070Z</time>
      </trkpt>
      <trkpt lat="45.55999" lon="6.05697">
        <ele>1112</ele>
        <time>2021-06-27T10:38:02.070Z</time>
      </trkpt>
      <trkpt lat="45.56" lon="6.05698">
        <ele>1112</ele>
        <time>2021-06-27T10:38:03.071Z</time>
      </trkpt>
      <trkpt lat="45.56" lon="6.05698">
        <ele>1113</ele>
        <time>2021-06-27T10:38:04.071Z</time>
      </trkpt>
      <trkpt lat="45.56" lon="6.05699">
        <ele>1113</ele>
        <time>2021-06-27T10:38:05.071Z</time>
      </trkpt>
      <trkpt lat="45.56" lon="6.057">
        <ele>1113</ele>
        <time>2021-06-27T10:38:06.071Z</time>
      </trkpt>
      <trkpt lat="45.56" lon="6.05701">
        <ele>1114</ele>
        <time>2021-06-27T10:38:07.070Z</time>
      </trkpt>
      <trkpt lat="45.56" lon="6.05702">
        <ele>1114</ele>
        <time>2021-06-27T10:38:08.070Z</time>
      </trkpt>
      <trkpt lat="45.56" lon="6.05702">
        <ele>1115</ele>
        <time>2021-06-27T10:38:09.070Z</time>
      </trkpt>
      <trkpt lat="45.56" lon="6.05703">
        <ele>1115</ele>
        <time>2021-06-27T10:38:10.071Z</time>
      </trkpt>
      <trkpt lat="45.56" lon="6.05704">
        <ele>1115</ele>
        <time>2021-06-27T10:38:11.071Z</time>
      </trkpt>
      <trkpt lat="45.56" lon="6.05705">
        <ele>1115</ele>
        <time>2021-06-27T10:38:12.071Z</time>
      </trkpt>
      <trkpt lat="45.56" lon="6.05707">
        <ele>1115</ele>
        <time>2021-06-27T10:38:13.071Z</time>
      </trkpt>
      <trkpt lat="45.56" lon="6.0571">
        <ele>1115</ele>
        <time>2021-06-27T10:38:14.071Z</time>
      </trkpt>
      <trkpt lat="45.56" lon="6.05711">
        <ele>1115</ele>
        <time>2021-06-27T10:38:15.071Z</time>
      </trkpt>
      <trkpt lat="45.56" lon="6.05713">
        <ele>1115</ele>
        <time>2021-06-27T10:38:16.070Z</time>
      </trkpt>
      <trkpt lat="45.55999" lon="6.05714">
        <ele>1115</ele>
        <time>2021-06-27T10:38:17.071Z</time>
      </trkpt>
      <trkpt lat="45.56" lon="6.05715">
        <ele>1115</ele>
        <time>2021-06-27T10:38:18.071Z</time>
      </trkpt>
      <trkpt lat="45.56" lon="6.05717">
        <ele>1115</ele>
        <time>2021-06-27T10:38:19.071Z</time>
      </trkpt>
      <trkpt lat="45.56001" lon="6.05718">
        <ele>1115</ele>
        <time>2021-06-27T10:38:20.071Z</time>
      </trkpt>
      <trkpt lat="45.56001" lon="6.0572">
        <ele>1115</ele>
        <time>2021-06-27T10:38:21.071Z</time>
      </trkpt>
      <trkpt lat="45.56001" lon="6.05721">
        <ele>1116</ele>
        <time>2021-06-27T10:38:22.070Z</time>
      </trkpt>
      <trkpt lat="45.56002" lon="6.05722">
        <ele>1116</ele>
        <time>2021-06-27T10:38:23.071Z</time>
      </trkpt>
      <trkpt lat="45.56002" lon="6.05722">
        <ele>1116</ele>
        <time>2021-06-27T10:38:24.071Z</time>
      </trkpt>
      <trkpt lat="45.56002" lon="6.05723">
        <ele>1117</ele>
        <time>2021-06-27T10:38:25.071Z</time>
      </trkpt>
      <trkpt lat="45.56002" lon="6.05724">
        <ele>1117</ele>
        <time>2021-06-27T10:38:26.071Z</time>
      </trkpt>
      <trkpt lat="45.56002" lon="6.05725">
        <ele>1117</ele>
        <time>2021-06-27T10:38:27.071Z</time>
      </trkpt>
      <trkpt lat="45.56002" lon="6.05727">
        <ele>1117</ele>
        <time>2021-06-27T10:38:28.070Z</time>
      </trkpt>
      <trkpt lat="45.56003" lon="6.05727">
        <ele>1117</ele>
        <time>2021-06-27T10:38:29.070Z</time>
      </trkpt>
      <trkpt lat="45.56003" lon="6.05728">
        <ele>1118</ele>
        <time>2021-06-27T10:38:30.071Z</time>
      </trkpt>
      <trkpt lat="45.56003" lon="6.05729">
        <ele>1118</ele>
        <time>2021-06-27T10:38:31.071Z</time>
      </trkpt>
      <trkpt lat="45.56003" lon="6.0573">
        <ele>1118</ele>
        <time>2021-06-27T10:38:32.071Z</time>
      </trkpt>
      <trkpt lat="45.56003" lon="6.05731">
        <ele>1119</ele>
        <time>2021-06-27T10:38:33.071Z</time>
      </trkpt>
      <trkpt lat="45.56003" lon="6.05732">
        <ele>1119</ele>
        <time>2021-06-27T10:38:34.071Z</time>
      </trkpt>
      <trkpt lat="45.56003" lon="6.05733">
        <ele>1120</ele>
        <time>2021-06-27T10:38:35.071Z</time>
      </trkpt>
      <trkpt lat="45.56003" lon="6.05734">
        <ele>1120</ele>
        <time>2021-06-27T10:38:36.070Z</time>
      </trkpt>
      <trkpt lat="45.56004" lon="6.05735">
        <ele>1121</ele>
        <time>2021-06-27T10:38:37.070Z</time>
      </trkpt>
      <trkpt lat="45.56004" lon="6.05736">
        <ele>1121</ele>
        <time>2021-06-27T10:38:38.071Z</time>
      </trkpt>
      <trkpt lat="45.56003" lon="6.05739">
        <ele>1122</ele>
        <time>2021-06-27T10:38:39.070Z</time>
      </trkpt>
      <trkpt lat="45.56003" lon="6.05741">
        <ele>1122</ele>
        <time>2021-06-27T10:38:40.071Z</time>
      </trkpt>
      <trkpt lat="45.56001" lon="6.05744">
        <ele>1122</ele>
        <time>2021-06-27T10:38:41.071Z</time>
      </trkpt>
      <trkpt lat="45.56" lon="6.05746">
        <ele>1122</ele>
        <time>2021-06-27T10:38:42.071Z</time>
      </trkpt>
      <trkpt lat="45.56001" lon="6.05747">
        <ele>1122</ele>
        <time>2021-06-27T10:38:43.071Z</time>
      </trkpt>
      <trkpt lat="45.56001" lon="6.05748">
        <ele>1122</ele>
        <time>2021-06-27T10:38:44.071Z</time>
      </trkpt>
      <trkpt lat="45.56001" lon="6.05749">
        <ele>1122</ele>
        <time>2021-06-27T10:38:45.071Z</time>
      </trkpt>
      <trkpt lat="45.56001" lon="6.05751">
        <ele>1122</ele>
        <time>2021-06-27T10:38:46.071Z</time>
      </trkpt>
      <trkpt lat="45.56001" lon="6.05752">
        <ele>1122</ele>
        <time>2021-06-27T10:38:47.070Z</time>
      </trkpt>
      <trkpt lat="45.56" lon="6.05753">
        <ele>1122</ele>
        <time>2021-06-27T10:38:48.071Z</time>
      </trkpt>
      <trkpt lat="45.56001" lon="6.05755">
        <ele>1122</ele>
        <time>2021-06-27T10:38:49.070Z</time>
      </trkpt>
      <trkpt lat="45.56001" lon="6.05756">
        <ele>1122</ele>
        <time>2021-06-27T10:38:50.071Z</time>
      </trkpt>
      <trkpt lat="45.56001" lon="6.05757">
        <ele>1122</ele>
        <time>2021-06-27T10:38:51.071Z</time>
      </trkpt>
      <trkpt lat="45.56001" lon="6.05759">
        <ele>1122</ele>
        <time>2021-06-27T10:38:52.070Z</time>
      </trkpt>
      <trkpt lat="45.56001" lon="6.0576">
        <ele>1123</ele>
        <time>2021-06-27T10:38:53.071Z</time>
      </trkpt>
      <trkpt lat="45.56002" lon="6.05761">
        <ele>1123</ele>
        <time>2021-06-27T10:38:54.070Z</time>
      </trkpt>
      <trkpt lat="45.56002" lon="6.05762">
        <ele>1123</ele>
        <time>2021-06-27T10:38:55.071Z</time>
      </trkpt>
      <trkpt lat="45.56003" lon="6.05762">
        <ele>1123</ele>
        <time>2021-06-27T10:38:56.071Z</time>
      </trkpt>
      <trkpt lat="45.56002" lon="6.05763">
        <ele>1124</ele>
        <time>2021-06-27T10:38:57.071Z</time>
      </trkpt>
      <trkpt lat="45.56002" lon="6.05765">
        <ele>1124</ele>
        <time>2021-06-27T10:38:58.071Z</time>
      </trkpt>
      <trkpt lat="45.56001" lon="6.05767">
        <ele>1124</ele>
        <time>2021-06-27T10:38:59.071Z</time>
      </trkpt>
      <trkpt lat="45.56002" lon="6.05768">
        <ele>1124</ele>
        <time>2021-06-27T10:39:00.071Z</time>
      </trkpt>
      <trkpt lat="45.56002" lon="6.0577">
        <ele>1125</ele>
        <time>2021-06-27T10:39:01.071Z</time>
      </trkpt>
      <trkpt lat="45.56002" lon="6.05771">
        <ele>1125</ele>
        <time>2021-06-27T10:39:02.071Z</time>
      </trkpt>
      <trkpt lat="45.56003" lon="6.05772">
        <ele>1125</ele>
        <time>2021-06-27T10:39:03.070Z</time>
      </trkpt>
      <trkpt lat="45.56003" lon="6.05773">
        <ele>1125</ele>
        <time>2021-06-27T10:39:04.070Z</time>
      </trkpt>
      <trkpt lat="45.56003" lon="6.05775">
        <ele>1125</ele>
        <time>2021-06-27T10:39:05.071Z</time>
      </trkpt>
      <trkpt lat="45.56003" lon="6.05776">
        <ele>1125</ele>
        <time>2021-06-27T10:39:06.071Z</time>
      </trkpt>
      <trkpt lat="45.56003" lon="6.05777">
        <ele>1125</ele>
        <time>2021-06-27T10:39:07.071Z</time>
      </trkpt>
      <trkpt lat="45.56003" lon="6.05778">
        <ele>1125</ele>
        <time>2021-06-27T10:39:08.070Z</time>
      </trkpt>
      <trkpt lat="45.56003" lon="6.05779">
        <ele>1125</ele>
        <time>2021-06-27T10:39:09.071Z</time>
      </trkpt>
      <trkpt lat="45.56003" lon="6.05779">
        <ele>1125</ele>
        <time>2021-06-27T10:39:10.071Z</time>
      </trkpt>
      <trkpt lat="45.56003" lon="6.0578">
        <ele>1125</ele>
        <time>2021-06-27T10:39:11.071Z</time>
      </trkpt>
      <trkpt lat="45.56004" lon="6.05781">
        <ele>1126</ele>
        <time>2021-06-27T10:39:12.071Z</time>
      </trkpt>
      <trkpt lat="45.56004" lon="6.05782">
        <ele>1126</ele>
        <time>2021-06-27T10:39:13.071Z</time>
      </trkpt>
      <trkpt lat="45.56004" lon="6.05783">
        <ele>1127</ele>
        <time>2021-06-27T10:39:14.071Z</time>
      </trkpt>
      <trkpt lat="45.56005" lon="6.05783">
        <ele>1127</ele>
        <time>2021-06-27T10:39:15.070Z</time>
      </trkpt>
      <trkpt lat="45.56005" lon="6.05785">
        <ele>1128</ele>
        <time>2021-06-27T10:39:16.070Z</time>
      </trkpt>
      <trkpt lat="45.56005" lon="6.05786">
        <ele>1129</ele>
        <time>2021-06-27T10:39:17.070Z</time>
      </trkpt>
      <trkpt lat="45.56005" lon="6.05787">
        <ele>1130</ele>
        <time>2021-06-27T10:39:18.070Z</time>
      </trkpt>
      <trkpt lat="45.56005" lon="6.05788">
        <ele>1131</ele>
        <time>2021-06-27T10:39:19.070Z</time>
      </trkpt>
      <trkpt lat="45.56005" lon="6.05789">
        <ele>1132</ele>
        <time>2021-06-27T10:39:20.070Z</time>
      </trkpt>
      <trkpt lat="45.56005" lon="6.05789">
        <ele>1133</ele>
        <time>2021-06-27T10:39:21.071Z</time>
      </trkpt>
      <trkpt lat="45.56005" lon="6.05789">
        <ele>1133</ele>
        <time>2021-06-27T10:39:22.070Z</time>
      </trkpt>
      <trkpt lat="45.56005" lon="6.0579">
        <ele>1134</ele>
        <time>2021-06-27T10:39:23.071Z</time>
      </trkpt>
      <trkpt lat="45.56006" lon="6.05789">
        <ele>1134</ele>
        <time>2021-06-27T10:39:24.070Z</time>
      </trkpt>
      <trkpt lat="45.56007" lon="6.0579">
        <ele>1134</ele>
        <time>2021-06-27T10:39:25.071Z</time>
      </trkpt>
      <trkpt lat="45.56008" lon="6.05791">
        <ele>1135</ele>
        <time>2021-06-27T10:39:26.071Z</time>
      </trkpt>
      <trkpt lat="45.56008" lon="6.05792">
        <ele>1135</ele>
        <time>2021-06-27T10:39:27.070Z</time>
      </trkpt>
      <trkpt lat="45.56009" lon="6.05792">
        <ele>1135</ele>
        <time>2021-06-27T10:39:28.071Z</time>
      </trkpt>
      <trkpt lat="45.56009" lon="6.05792">
        <ele>1135</ele>
        <time>2021-06-27T10:39:29.071Z</time>
      </trkpt>
      <trkpt lat="45.56009" lon="6.05792">
        <ele>1136</ele>
        <time>2021-06-27T10:39:30.071Z</time>
      </trkpt>
      <trkpt lat="45.5601" lon="6.05793">
        <ele>1136</ele>
        <time>2021-06-27T10:39:31.071Z</time>
      </trkpt>
      <trkpt lat="45.56011" lon="6.05793">
        <ele>1136</ele>
        <time>2021-06-27T10:39:32.071Z</time>
      </trkpt>
      <trkpt lat="45.56012" lon="6.05794">
        <ele>1136</ele>
        <time>2021-06-27T10:39:33.070Z</time>
      </trkpt>
      <trkpt lat="45.56012" lon="6.05794">
        <ele>1136</ele>
        <time>2021-06-27T10:39:34.071Z</time>
      </trkpt>
      <trkpt lat="45.56013" lon="6.05795">
        <ele>1136</ele>
        <time>2021-06-27T10:39:35.071Z</time>
      </trkpt>
      <trkpt lat="45.56014" lon="6.05795">
        <ele>1136</ele>
        <time>2021-06-27T10:39:36.071Z</time>
      </trkpt>
      <trkpt lat="45.56015" lon="6.05797">
        <ele>1137</ele>
        <time>2021-06-27T10:39:37.071Z</time>
      </trkpt>
      <trkpt lat="45.56017" lon="6.05797">
        <ele>1137</ele>
        <time>2021-06-27T10:39:38.070Z</time>
      </trkpt>
      <trkpt lat="45.56018" lon="6.05798">
        <ele>1138</ele>
        <time>2021-06-27T10:39:39.071Z</time>
      </trkpt>
      <trkpt lat="45.5602" lon="6.058">
        <ele>1138</ele>
        <time>2021-06-27T10:39:40.070Z</time>
      </trkpt>
      <trkpt lat="45.56021" lon="6.05801">
        <ele>1139</ele>
        <time>2021-06-27T10:39:41.070Z</time>
      </trkpt>
      <trkpt lat="45.56022" lon="6.05803">
        <ele>1139</ele>
        <time>2021-06-27T10:39:42.071Z</time>
      </trkpt>
      <trkpt lat="45.56023" lon="6.05804">
        <ele>1140</ele>
        <time>2021-06-27T10:39:43.071Z</time>
      </trkpt>
      <trkpt lat="45.56025" lon="6.05806">
        <ele>1141</ele>
        <time>2021-06-27T10:39:44.071Z</time>
      </trkpt>
      <trkpt lat="45.56027" lon="6.05807">
        <ele>1141</ele>
        <time>2021-06-27T10:39:45.070Z</time>
      </trkpt>
      <trkpt lat="45.56029" lon="6.05809">
        <ele>1142</ele>
        <time>2021-06-27T10:39:46.071Z</time>
      </trkpt>
      <trkpt lat="45.56031" lon="6.0581">
        <ele>1142</ele>
        <time>2021-06-27T10:39:47.071Z</time>
      </trkpt>
      <trkpt lat="45.56031" lon="6.05813">
        <ele>1142</ele>
        <time>2021-06-27T10:39:48.071Z</time>
      </trkpt>
      <trkpt lat="45.56031" lon="6.05815">
        <ele>1142</ele>
        <time>2021-06-27T10:39:49.071Z</time>
      </trkpt>
      <trkpt lat="45.56031" lon="6.05816">
        <ele>1143</ele>
        <time>2021-06-27T10:39:50.071Z</time>
      </trkpt>
      <trkpt lat="45.56032" lon="6.05816">
        <ele>1143</ele>
        <time>2021-06-27T10:39:51.070Z</time>
      </trkpt>
      <trkpt lat="45.56032" lon="6.05817">
        <ele>1143</ele>
        <time>2021-06-27T10:39:52.071Z</time>
      </trkpt>
      <trkpt lat="45.56033" lon="6.05817">
        <ele>1143</ele>
        <time>2021-06-27T10:39:53.071Z</time>
      </trkpt>
      <trkpt lat="45.56033" lon="6.05818">
        <ele>1143</ele>
        <time>2021-06-27T10:39:54.071Z</time>
      </trkpt>
      <trkpt lat="45.56034" lon="6.05818">
        <ele>1144</ele>
        <time>2021-06-27T10:39:55.071Z</time>
      </trkpt>
      <trkpt lat="45.56034" lon="6.05819">
        <ele>1144</ele>
        <time>2021-06-27T10:39:56.070Z</time>
      </trkpt>
      <trkpt lat="45.56034" lon="6.0582">
        <ele>1144</ele>
        <time>2021-06-27T10:39:57.071Z</time>
      </trkpt>
      <trkpt lat="45.56035" lon="6.0582">
        <ele>1144</ele>
        <time>2021-06-27T10:39:58.071Z</time>
      </trkpt>
      <trkpt lat="45.56035" lon="6.05821">
        <ele>1144</ele>
        <time>2021-06-27T10:39:59.071Z</time>
      </trkpt>
      <trkpt lat="45.56035" lon="6.05822">
        <ele>1144</ele>
        <time>2021-06-27T10:40:00.071Z</time>
      </trkpt>
      <trkpt lat="45.56036" lon="6.05823">
        <ele>1144</ele>
        <time>2021-06-27T10:40:01.070Z</time>
      </trkpt>
      <trkpt lat="45.56036" lon="6.05824">
        <ele>1144</ele>
        <time>2021-06-27T10:40:02.071Z</time>
      </trkpt>
      <trkpt lat="45.56036" lon="6.05825">
        <ele>1143</ele>
        <time>2021-06-27T10:40:03.071Z</time>
      </trkpt>
      <trkpt lat="45.56037" lon="6.05825">
        <ele>1143</ele>
        <time>2021-06-27T10:40:04.071Z</time>
      </trkpt>
      <trkpt lat="45.56037" lon="6.05826">
        <ele>1143</ele>
        <time>2021-06-27T10:40:05.071Z</time>
      </trkpt>
      <trkpt lat="45.56037" lon="6.05827">
        <ele>1143</ele>
        <time>2021-06-27T10:40:06.071Z</time>
      </trkpt>
      <trkpt lat="45.56038" lon="6.05829">
        <ele>1143</ele>
        <time>2021-06-27T10:40:07.070Z</time>
      </trkpt>
      <trkpt lat="45.56039" lon="6.05829">
        <ele>1143</ele>
        <time>2021-06-27T10:40:08.071Z</time>
      </trkpt>
      <trkpt lat="45.5604" lon="6.0583">
        <ele>1143</ele>
        <time>2021-06-27T10:40:09.071Z</time>
      </trkpt>
      <trkpt lat="45.56041" lon="6.05831">
        <ele>1144</ele>
        <time>2021-06-27T10:40:10.071Z</time>
      </trkpt>
      <trkpt lat="45.56041" lon="6.05832">
        <ele>1144</ele>
        <time>2021-06-27T10:40:11.071Z</time>
      </trkpt>
      <trkpt lat="45.56042" lon="6.05833">
        <ele>1145</ele>
        <time>2021-06-27T10:40:12.070Z</time>
      </trkpt>
      <trkpt lat="45.56042" lon="6.05834">
        <ele>1146</ele>
        <time>2021-06-27T10:40:13.071Z</time>
      </trkpt>
      <trkpt lat="45.56043" lon="6.05835">
        <ele>1147</ele>
        <time>2021-06-27T10:40:14.071Z</time>
      </trkpt>
      <trkpt lat="45.56043" lon="6.05835">
        <ele>1147</ele>
        <time>2021-06-27T10:40:15.071Z</time>
      </trkpt>
      <trkpt lat="45.56043" lon="6.05836">
        <ele>1147</ele>
        <time>2021-06-27T10:40:16.071Z</time>
      </trkpt>
      <trkpt lat="45.56043" lon="6.05837">
        <ele>1147</ele>
        <time>2021-06-27T10:40:17.070Z</time>
      </trkpt>
      <trkpt lat="45.56043" lon="6.05837">
        <ele>1147</ele>
        <time>2021-06-27T10:40:18.071Z</time>
      </trkpt>
      <trkpt lat="45.56043" lon="6.05838">
        <ele>1147</ele>
        <time>2021-06-27T10:40:19.070Z</time>
      </trkpt>
      <trkpt lat="45.56043" lon="6.05839">
        <ele>1146</ele>
        <time>2021-06-27T10:40:20.071Z</time>
      </trkpt>
      <trkpt lat="45.56044" lon="6.05839">
        <ele>1146</ele>
        <time>2021-06-27T10:40:21.071Z</time>
      </trkpt>
      <trkpt lat="45.56044" lon="6.0584">
        <ele>1146</ele>
        <time>2021-06-27T10:40:22.071Z</time>
      </trkpt>
      <trkpt lat="45.56043" lon="6.05841">
        <ele>1145</ele>
        <time>2021-06-27T10:40:23.071Z</time>
      </trkpt>
      <trkpt lat="45.56043" lon="6.05841">
        <ele>1145</ele>
        <time>2021-06-27T10:40:24.071Z</time>
      </trkpt>
      <trkpt lat="45.56043" lon="6.05842">
        <ele>1145</ele>
        <time>2021-06-27T10:40:25.071Z</time>
      </trkpt>
      <trkpt lat="45.56043" lon="6.05843">
        <ele>1145</ele>
        <time>2021-06-27T10:40:26.071Z</time>
      </trkpt>
      <trkpt lat="45.56043" lon="6.05843">
        <ele>1144</ele>
        <time>2021-06-27T10:40:27.071Z</time>
      </trkpt>
      <trkpt lat="45.56044" lon="6.05844">
        <ele>1144</ele>
        <time>2021-06-27T10:40:28.071Z</time>
      </trkpt>
      <trkpt lat="45.56044" lon="6.05844">
        <ele>1144</ele>
        <time>2021-06-27T10:40:29.070Z</time>
      </trkpt>
      <trkpt lat="45.56045" lon="6.05845">
        <ele>1143</ele>
        <time>2021-06-27T10:40:30.071Z</time>
      </trkpt>
      <trkpt lat="45.56046" lon="6.05845">
        <ele>1143</ele>
        <time>2021-06-27T10:40:31.070Z</time>
      </trkpt>
      <trkpt lat="45.56047" lon="6.05846">
        <ele>1142</ele>
        <time>2021-06-27T10:40:32.071Z</time>
      </trkpt>
      <trkpt lat="45.56048" lon="6.05848">
        <ele>1142</ele>
        <time>2021-06-27T10:40:33.071Z</time>
      </trkpt>
      <trkpt lat="45.56049" lon="6.05849">
        <ele>1141</ele>
        <time>2021-06-27T10:40:34.071Z</time>
      </trkpt>
      <trkpt lat="45.5605" lon="6.05851">
        <ele>1141</ele>
        <time>2021-06-27T10:40:35.071Z</time>
      </trkpt>
      <trkpt lat="45.5605" lon="6.05854">
        <ele>1140</ele>
        <time>2021-06-27T10:40:36.071Z</time>
      </trkpt>
      <trkpt lat="45.56049" lon="6.05856">
        <ele>1139</ele>
        <time>2021-06-27T10:40:37.071Z</time>
      </trkpt>
      <trkpt lat="45.56048" lon="6.05858">
        <ele>1138</ele>
        <time>2021-06-27T10:40:38.070Z</time>
      </trkpt>
      <trkpt lat="45.56048" lon="6.05859">
        <ele>1137</ele>
        <time>2021-06-27T10:40:39.071Z</time>
      </trkpt>
      <trkpt lat="45.56048" lon="6.0586">
        <ele>1137</ele>
        <time>2021-06-27T10:40:40.071Z</time>
      </trkpt>
      <trkpt lat="45.56048" lon="6.05861">
        <ele>1136</ele>
        <time>2021-06-27T10:40:41.070Z</time>
      </trkpt>
      <trkpt lat="45.56049" lon="6.05862">
        <ele>1136</ele>
        <time>2021-06-27T10:40:42.071Z</time>
      </trkpt>
      <trkpt lat="45.56049" lon="6.05862">
        <ele>1135</ele>
        <time>2021-06-27T10:40:43.070Z</time>
      </trkpt>
      <trkpt lat="45.56049" lon="6.05863">
        <ele>1135</ele>
        <time>2021-06-27T10:40:44.070Z</time>
      </trkpt>
      <trkpt lat="45.56049" lon="6.05864">
        <ele>1134</ele>
        <time>2021-06-27T10:40:45.071Z</time>
      </trkpt>
      <trkpt lat="45.56049" lon="6.05865">
        <ele>1134</ele>
        <time>2021-06-27T10:40:46.071Z</time>
      </trkpt>
      <trkpt lat="45.56049" lon="6.05866">
        <ele>1134</ele>
        <time>2021-06-27T10:40:47.071Z</time>
      </trkpt>
      <trkpt lat="45.56049" lon="6.05866">
        <ele>1134</ele>
        <time>2021-06-27T10:40:48.070Z</time>
      </trkpt>
      <trkpt lat="45.56049" lon="6.05867">
        <ele>1133</ele>
        <time>2021-06-27T10:40:49.071Z</time>
      </trkpt>
      <trkpt lat="45.56049" lon="6.05868">
        <ele>1133</ele>
        <time>2021-06-27T10:40:50.071Z</time>
      </trkpt>
      <trkpt lat="45.56048" lon="6.05869">
        <ele>1133</ele>
        <time>2021-06-27T10:40:51.071Z</time>
      </trkpt>
      <trkpt lat="45.56048" lon="6.0587">
        <ele>1133</ele>
        <time>2021-06-27T10:40:52.071Z</time>
      </trkpt>
      <trkpt lat="45.56048" lon="6.05871">
        <ele>1132</ele>
        <time>2021-06-27T10:40:53.071Z</time>
      </trkpt>
      <trkpt lat="45.56048" lon="6.05872">
        <ele>1133</ele>
        <time>2021-06-27T10:40:54.070Z</time>
      </trkpt>
      <trkpt lat="45.56048" lon="6.05873">
        <ele>1133</ele>
        <time>2021-06-27T10:40:55.071Z</time>
      </trkpt>
      <trkpt lat="45.56049" lon="6.05874">
        <ele>1133</ele>
        <time>2021-06-27T10:40:56.071Z</time>
      </trkpt>
      <trkpt lat="45.56049" lon="6.05875">
        <ele>1134</ele>
        <time>2021-06-27T10:40:57.071Z</time>
      </trkpt>
      <trkpt lat="45.5605" lon="6.05875">
        <ele>1135</ele>
        <time>2021-06-27T10:40:58.071Z</time>
      </trkpt>
      <trkpt lat="45.5605" lon="6.05876">
        <ele>1136</ele>
        <time>2021-06-27T10:40:59.070Z</time>
      </trkpt>
      <trkpt lat="45.56051" lon="6.05877">
        <ele>1136</ele>
        <time>2021-06-27T10:41:00.071Z</time>
      </trkpt>
      <trkpt lat="45.56052" lon="6.05879">
        <ele>1136</ele>
        <time>2021-06-27T10:41:01.071Z</time>
      </trkpt>
      <trkpt lat="45.56052" lon="6.0588">
        <ele>1136</ele>
        <time>2021-06-27T10:41:02.071Z</time>
      </trkpt>
      <trkpt lat="45.56053" lon="6.05881">
        <ele>1137</ele>
        <time>2021-06-27T10:41:03.071Z</time>
      </trkpt>
      <trkpt lat="45.56054" lon="6.05881">
        <ele>1137</ele>
        <time>2021-06-27T10:41:04.071Z</time>
      </trkpt>
      <trkpt lat="45.56054" lon="6.05883">
        <ele>1137</ele>
        <time>2021-06-27T10:41:05.071Z</time>
      </trkpt>
      <trkpt lat="45.56056" lon="6.05884">
        <ele>1138</ele>
        <time>2021-06-27T10:41:06.071Z</time>
      </trkpt>
      <trkpt lat="45.56057" lon="6.05885">
        <ele>1138</ele>
        <time>2021-06-27T10:41:07.071Z</time>
      </trkpt>
      <trkpt lat="45.56058" lon="6.05886">
        <ele>1138</ele>
        <time>2021-06-27T10:41:08.071Z</time>
      </trkpt>
      <trkpt lat="45.56059" lon="6.05888">
        <ele>1139</ele>
        <time>2021-06-27T10:41:09.071Z</time>
      </trkpt>
      <trkpt lat="45.5606" lon="6.05889">
        <ele>1140</ele>
        <time>2021-06-27T10:41:10.071Z</time>
      </trkpt>
      <trkpt lat="45.5606" lon="6.05891">
        <ele>1141</ele>
        <time>2021-06-27T10:41:11.071Z</time>
      </trkpt>
      <trkpt lat="45.5606" lon="6.05893">
        <ele>1142</ele>
        <time>2021-06-27T10:41:12.070Z</time>
      </trkpt>
      <trkpt lat="45.56059" lon="6.05893">
        <ele>1143</ele>
        <time>2021-06-27T10:41:13.071Z</time>
      </trkpt>
      <trkpt lat="45.56059" lon="6.05894">
        <ele>1143</ele>
        <time>2021-06-27T10:41:14.071Z</time>
      </trkpt>
      <trkpt lat="45.56059" lon="6.05895">
        <ele>1144</ele>
        <time>2021-06-27T10:41:15.071Z</time>
      </trkpt>
      <trkpt lat="45.5606" lon="6.05895">
        <ele>1145</ele>
        <time>2021-06-27T10:41:16.071Z</time>
      </trkpt>
      <trkpt lat="45.5606" lon="6.05896">
        <ele>1146</ele>
        <time>2021-06-27T10:41:17.070Z</time>
      </trkpt>
      <trkpt lat="45.5606" lon="6.05897">
        <ele>1147</ele>
        <time>2021-06-27T10:41:18.071Z</time>
      </trkpt>
      <trkpt lat="45.5606" lon="6.05898">
        <ele>1147</ele>
        <time>2021-06-27T10:41:19.070Z</time>
      </trkpt>
      <trkpt lat="45.5606" lon="6.05898">
        <ele>1147</ele>
        <time>2021-06-27T10:41:20.071Z</time>
      </trkpt>
      <trkpt lat="45.5606" lon="6.05899">
        <ele>1148</ele>
        <time>2021-06-27T10:41:21.071Z</time>
      </trkpt>
      <trkpt lat="45.5606" lon="6.059">
        <ele>1148</ele>
        <time>2021-06-27T10:41:22.071Z</time>
      </trkpt>
      <trkpt lat="45.5606" lon="6.05901">
        <ele>1148</ele>
        <time>2021-06-27T10:41:23.071Z</time>
      </trkpt>
      <trkpt lat="45.56061" lon="6.05902">
        <ele>1148</ele>
        <time>2021-06-27T10:41:24.070Z</time>
      </trkpt>
      <trkpt lat="45.56061" lon="6.05903">
        <ele>1149</ele>
        <time>2021-06-27T10:41:25.071Z</time>
      </trkpt>
      <trkpt lat="45.56062" lon="6.05905">
        <ele>1149</ele>
        <time>2021-06-27T10:41:26.071Z</time>
      </trkpt>
      <trkpt lat="45.56062" lon="6.05906">
        <ele>1149</ele>
        <time>2021-06-27T10:41:27.070Z</time>
      </trkpt>
      <trkpt lat="45.56062" lon="6.05907">
        <ele>1149</ele>
        <time>2021-06-27T10:41:28.071Z</time>
      </trkpt>
      <trkpt lat="45.56062" lon="6.05909">
        <ele>1149</ele>
        <time>2021-06-27T10:41:29.071Z</time>
      </trkpt>
      <trkpt lat="45.56062" lon="6.05911">
        <ele>1149</ele>
        <time>2021-06-27T10:41:30.070Z</time>
      </trkpt>
      <trkpt lat="45.56062" lon="6.05911">
        <ele>1149</ele>
        <time>2021-06-27T10:41:31.071Z</time>
      </trkpt>
      <trkpt lat="45.56062" lon="6.05912">
        <ele>1148</ele>
        <time>2021-06-27T10:41:32.071Z</time>
      </trkpt>
      <trkpt lat="45.56062" lon="6.05913">
        <ele>1148</ele>
        <time>2021-06-27T10:41:33.071Z</time>
      </trkpt>
      <trkpt lat="45.56063" lon="6.05914">
        <ele>1147</ele>
        <time>2021-06-27T10:41:34.071Z</time>
      </trkpt>
      <trkpt lat="45.56063" lon="6.05915">
        <ele>1147</ele>
        <time>2021-06-27T10:41:35.070Z</time>
      </trkpt>
      <trkpt lat="45.56064" lon="6.05916">
        <ele>1146</ele>
        <time>2021-06-27T10:41:36.071Z</time>
      </trkpt>
      <trkpt lat="45.56064" lon="6.05917">
        <ele>1146</ele>
        <time>2021-06-27T10:41:37.071Z</time>
      </trkpt>
      <trkpt lat="45.56064" lon="6.05917">
        <ele>1146</ele>
        <time>2021-06-27T10:41:38.071Z</time>
      </trkpt>
      <trkpt lat="45.56064" lon="6.05918">
        <ele>1146</ele>
        <time>2021-06-27T10:41:39.071Z</time>
      </trkpt>
      <trkpt lat="45.56065" lon="6.05919">
        <ele>1146</ele>
        <time>2021-06-27T10:41:40.071Z</time>
      </trkpt>
      <trkpt lat="45.56065" lon="6.0592">
        <ele>1146</ele>
        <time>2021-06-27T10:41:41.071Z</time>
      </trkpt>
      <trkpt lat="45.56065" lon="6.05921">
        <ele>1146</ele>
        <time>2021-06-27T10:41:42.071Z</time>
      </trkpt>
      <trkpt lat="45.56065" lon="6.05922">
        <ele>1146</ele>
        <time>2021-06-27T10:41:43.071Z</time>
      </trkpt>
      <trkpt lat="45.56065" lon="6.05923">
        <ele>1145</ele>
        <time>2021-06-27T10:41:44.071Z</time>
      </trkpt>
      <trkpt lat="45.56065" lon="6.05923">
        <ele>1144</ele>
        <time>2021-06-27T10:41:45.071Z</time>
      </trkpt>
      <trkpt lat="45.56066" lon="6.05924">
        <ele>1144</ele>
        <time>2021-06-27T10:41:46.070Z</time>
      </trkpt>
      <trkpt lat="45.56066" lon="6.05926">
        <ele>1143</ele>
        <time>2021-06-27T10:41:47.071Z</time>
      </trkpt>
      <trkpt lat="45.56067" lon="6.05927">
        <ele>1143</ele>
        <time>2021-06-27T10:41:48.071Z</time>
      </trkpt>
      <trkpt lat="45.56068" lon="6.05928">
        <ele>1143</ele>
        <time>2021-06-27T10:41:49.071Z</time>
      </trkpt>
      <trkpt lat="45.56069" lon="6.05929">
        <ele>1142</ele>
        <time>2021-06-27T10:41:50.071Z</time>
      </trkpt>
      <trkpt lat="45.56069" lon="6.0593">
        <ele>1142</ele>
        <time>2021-06-27T10:41:51.071Z</time>
      </trkpt>
      <trkpt lat="45.56069" lon="6.05931">
        <ele>1142</ele>
        <time>2021-06-27T10:41:52.071Z</time>
      </trkpt>
      <trkpt lat="45.56069" lon="6.05931">
        <ele>1141</ele>
        <time>2021-06-27T10:41:53.071Z</time>
      </trkpt>
      <trkpt lat="45.56069" lon="6.05932">
        <ele>1141</ele>
        <time>2021-06-27T10:41:54.070Z</time>
      </trkpt>
      <trkpt lat="45.56069" lon="6.05932">
        <ele>1141</ele>
        <time>2021-06-27T10:41:55.071Z</time>
      </trkpt>
      <trkpt lat="45.5607" lon="6.05933">
        <ele>1141</ele>
        <time>2021-06-27T10:41:56.071Z</time>
      </trkpt>
      <trkpt lat="45.5607" lon="6.05933">
        <ele>1141</ele>
        <time>2021-06-27T10:41:57.070Z</time>
      </trkpt>
      <trkpt lat="45.5607" lon="6.05935">
        <ele>1141</ele>
        <time>2021-06-27T10:41:58.071Z</time>
      </trkpt>
      <trkpt lat="45.5607" lon="6.05938">
        <ele>1141</ele>
        <time>2021-06-27T10:41:59.070Z</time>
      </trkpt>
      <trkpt lat="45.5607" lon="6.05941">
        <ele>1141</ele>
        <time>2021-06-27T10:42:00.071Z</time>
      </trkpt>
      <trkpt lat="45.56071" lon="6.05943">
        <ele>1141</ele>
        <time>2021-06-27T10:42:01.071Z</time>
      </trkpt>
      <trkpt lat="45.56072" lon="6.05946">
        <ele>1141</ele>
        <time>2021-06-27T10:42:02.071Z</time>
      </trkpt>
      <trkpt lat="45.56072" lon="6.05947">
        <ele>1141</ele>
        <time>2021-06-27T10:42:03.071Z</time>
      </trkpt>
      <trkpt lat="45.56071" lon="6.05948">
        <ele>1141</ele>
        <time>2021-06-27T10:42:04.070Z</time>
      </trkpt>
      <trkpt lat="45.56071" lon="6.05949">
        <ele>1141</ele>
        <time>2021-06-27T10:42:05.071Z</time>
      </trkpt>
      <trkpt lat="45.5607" lon="6.05949">
        <ele>1140</ele>
        <time>2021-06-27T10:42:06.071Z</time>
      </trkpt>
      <trkpt lat="45.56069" lon="6.05949">
        <ele>1140</ele>
        <time>2021-06-27T10:42:07.070Z</time>
      </trkpt>
      <trkpt lat="45.56069" lon="6.0595">
        <ele>1140</ele>
        <time>2021-06-27T10:42:08.071Z</time>
      </trkpt>
      <trkpt lat="45.56069" lon="6.05951">
        <ele>1139</ele>
        <time>2021-06-27T10:42:09.071Z</time>
      </trkpt>
      <trkpt lat="45.56069" lon="6.05953">
        <ele>1139</ele>
        <time>2021-06-27T10:42:10.071Z</time>
      </trkpt>
      <trkpt lat="45.56069" lon="6.05954">
        <ele>1139</ele>
        <time>2021-06-27T10:42:11.071Z</time>
      </trkpt>
      <trkpt lat="45.56069" lon="6.05955">
        <ele>1139</ele>
        <time>2021-06-27T10:42:12.071Z</time>
      </trkpt>
      <trkpt lat="45.56068" lon="6.05956">
        <ele>1139</ele>
        <time>2021-06-27T10:42:13.071Z</time>
      </trkpt>
      <trkpt lat="45.56068" lon="6.05956">
        <ele>1139</ele>
        <time>2021-06-27T10:42:14.071Z</time>
      </trkpt>
      <trkpt lat="45.56067" lon="6.05957">
        <ele>1140</ele>
        <time>2021-06-27T10:42:15.071Z</time>
      </trkpt>
      <trkpt lat="45.56067" lon="6.05958">
        <ele>1140</ele>
        <time>2021-06-27T10:42:16.071Z</time>
      </trkpt>
      <trkpt lat="45.56067" lon="6.05959">
        <ele>1141</ele>
        <time>2021-06-27T10:42:17.070Z</time>
      </trkpt>
      <trkpt lat="45.56067" lon="6.0596">
        <ele>1141</ele>
        <time>2021-06-27T10:42:18.071Z</time>
      </trkpt>
      <trkpt lat="45.56067" lon="6.05962">
        <ele>1142</ele>
        <time>2021-06-27T10:42:19.070Z</time>
      </trkpt>
      <trkpt lat="45.56067" lon="6.05963">
        <ele>1142</ele>
        <time>2021-06-27T10:42:20.071Z</time>
      </trkpt>
      <trkpt lat="45.56066" lon="6.05965">
        <ele>1143</ele>
        <time>2021-06-27T10:42:21.071Z</time>
      </trkpt>
      <trkpt lat="45.56066" lon="6.05965">
        <ele>1143</ele>
        <time>2021-06-27T10:42:22.070Z</time>
      </trkpt>
      <trkpt lat="45.56065" lon="6.05967">
        <ele>1143</ele>
        <time>2021-06-27T10:42:23.071Z</time>
      </trkpt>
      <trkpt lat="45.56064" lon="6.05968">
        <ele>1143</ele>
        <time>2021-06-27T10:42:24.071Z</time>
      </trkpt>
      <trkpt lat="45.56064" lon="6.0597">
        <ele>1143</ele>
        <time>2021-06-27T10:42:25.071Z</time>
      </trkpt>
      <trkpt lat="45.56063" lon="6.05971">
        <ele>1142</ele>
        <time>2021-06-27T10:42:26.071Z</time>
      </trkpt>
      <trkpt lat="45.56063" lon="6.05973">
        <ele>1142</ele>
        <time>2021-06-27T10:42:27.070Z</time>
      </trkpt>
      <trkpt lat="45.56063" lon="6.05974">
        <ele>1142</ele>
        <time>2021-06-27T10:42:28.071Z</time>
      </trkpt>
      <trkpt lat="45.56063" lon="6.05975">
        <ele>1141</ele>
        <time>2021-06-27T10:42:29.071Z</time>
      </trkpt>
      <trkpt lat="45.56062" lon="6.05977">
        <ele>1141</ele>
        <time>2021-06-27T10:42:30.070Z</time>
      </trkpt>
      <trkpt lat="45.56062" lon="6.05977">
        <ele>1140</ele>
        <time>2021-06-27T10:42:31.071Z</time>
      </trkpt>
      <trkpt lat="45.56061" lon="6.05978">
        <ele>1140</ele>
        <time>2021-06-27T10:42:32.071Z</time>
      </trkpt>
      <trkpt lat="45.56061" lon="6.05979">
        <ele>1139</ele>
        <time>2021-06-27T10:42:33.070Z</time>
      </trkpt>
      <trkpt lat="45.5606" lon="6.05979">
        <ele>1139</ele>
        <time>2021-06-27T10:42:34.070Z</time>
      </trkpt>
      <trkpt lat="45.5606" lon="6.0598">
        <ele>1138</ele>
        <time>2021-06-27T10:42:35.071Z</time>
      </trkpt>
      <trkpt lat="45.5606" lon="6.05981">
        <ele>1138</ele>
        <time>2021-06-27T10:42:36.071Z</time>
      </trkpt>
      <trkpt lat="45.56059" lon="6.05981">
        <ele>1138</ele>
        <time>2021-06-27T10:42:37.071Z</time>
      </trkpt>
      <trkpt lat="45.56058" lon="6.05981">
        <ele>1138</ele>
        <time>2021-06-27T10:42:38.071Z</time>
      </trkpt>
      <trkpt lat="45.56058" lon="6.05981">
        <ele>1137</ele>
        <time>2021-06-27T10:42:39.070Z</time>
      </trkpt>
      <trkpt lat="45.56057" lon="6.05982">
        <ele>1137</ele>
        <time>2021-06-27T10:42:40.071Z</time>
      </trkpt>
      <trkpt lat="45.56056" lon="6.05982">
        <ele>1137</ele>
        <time>2021-06-27T10:42:41.070Z</time>
      </trkpt>
      <trkpt lat="45.56055" lon="6.05982">
        <ele>1137</ele>
        <time>2021-06-27T10:42:42.071Z</time>
      </trkpt>
      <trkpt lat="45.56054" lon="6.05983">
        <ele>1137</ele>
        <time>2021-06-27T10:42:43.070Z</time>
      </trkpt>
      <trkpt lat="45.56054" lon="6.05984">
        <ele>1137</ele>
        <time>2021-06-27T10:42:44.071Z</time>
      </trkpt>
      <trkpt lat="45.56053" lon="6.05985">
        <ele>1137</ele>
        <time>2021-06-27T10:42:45.070Z</time>
      </trkpt>
      <trkpt lat="45.56053" lon="6.05986">
        <ele>1138</ele>
        <time>2021-06-27T10:42:46.071Z</time>
      </trkpt>
      <trkpt lat="45.56053" lon="6.05986">
        <ele>1138</ele>
        <time>2021-06-27T10:42:47.071Z</time>
      </trkpt>
      <trkpt lat="45.56052" lon="6.05986">
        <ele>1139</ele>
        <time>2021-06-27T10:42:48.071Z</time>
      </trkpt>
      <trkpt lat="45.56052" lon="6.05986">
        <ele>1139</ele>
        <time>2021-06-27T10:42:49.071Z</time>
      </trkpt>
      <trkpt lat="45.56052" lon="6.05987">
        <ele>1139</ele>
        <time>2021-06-27T10:42:50.070Z</time>
      </trkpt>
      <trkpt lat="45.56052" lon="6.05987">
        <ele>1139</ele>
        <time>2021-06-27T10:42:51.071Z</time>
      </trkpt>
      <trkpt lat="45.56052" lon="6.05987">
        <ele>1139</ele>
        <time>2021-06-27T10:42:52.071Z</time>
      </trkpt>
      <trkpt lat="45.56052" lon="6.05988">
        <ele>1139</ele>
        <time>2021-06-27T10:42:53.071Z</time>
      </trkpt>
      <trkpt lat="45.56051" lon="6.05989">
        <ele>1139</ele>
        <time>2021-06-27T10:42:54.071Z</time>
      </trkpt>
      <trkpt lat="45.5605" lon="6.0599">
        <ele>1139</ele>
        <time>2021-06-27T10:42:55.071Z</time>
      </trkpt>
      <trkpt lat="45.5605" lon="6.05991">
        <ele>1139</ele>
        <time>2021-06-27T10:42:56.071Z</time>
      </trkpt>
      <trkpt lat="45.5605" lon="6.05992">
        <ele>1140</ele>
        <time>2021-06-27T10:42:57.071Z</time>
      </trkpt>
      <trkpt lat="45.56051" lon="6.05992">
        <ele>1140</ele>
        <time>2021-06-27T10:42:58.071Z</time>
      </trkpt>
      <trkpt lat="45.56052" lon="6.05992">
        <ele>1140</ele>
        <time>2021-06-27T10:42:59.071Z</time>
      </trkpt>
      <trkpt lat="45.56053" lon="6.05992">
        <ele>1141</ele>
        <time>2021-06-27T10:43:00.070Z</time>
      </trkpt>
      <trkpt lat="45.56054" lon="6.05992">
        <ele>1142</ele>
        <time>2021-06-27T10:43:01.071Z</time>
      </trkpt>
      <trkpt lat="45.56055" lon="6.05991">
        <ele>1143</ele>
        <time>2021-06-27T10:43:02.071Z</time>
      </trkpt>
      <trkpt lat="45.56056" lon="6.05991">
        <ele>1145</ele>
        <time>2021-06-27T10:43:03.071Z</time>
      </trkpt>
      <trkpt lat="45.56056" lon="6.0599">
        <ele>1146</ele>
        <time>2021-06-27T10:43:04.071Z</time>
      </trkpt>
      <trkpt lat="45.56057" lon="6.05989">
        <ele>1148</ele>
        <time>2021-06-27T10:43:05.071Z</time>
      </trkpt>
      <trkpt lat="45.56058" lon="6.0599">
        <ele>1149</ele>
        <time>2021-06-27T10:43:06.071Z</time>
      </trkpt>
      <trkpt lat="45.56059" lon="6.05989">
        <ele>1151</ele>
        <time>2021-06-27T10:43:07.070Z</time>
      </trkpt>
      <trkpt lat="45.56059" lon="6.05989">
        <ele>1152</ele>
        <time>2021-06-27T10:43:08.071Z</time>
      </trkpt>
      <trkpt lat="45.5606" lon="6.05987">
        <ele>1153</ele>
        <time>2021-06-27T10:43:09.070Z</time>
      </trkpt>
      <trkpt lat="45.56061" lon="6.05987">
        <ele>1154</ele>
        <time>2021-06-27T10:43:10.071Z</time>
      </trkpt>
      <trkpt lat="45.56062" lon="6.05986">
        <ele>1154</ele>
        <time>2021-06-27T10:43:11.071Z</time>
      </trkpt>
      <trkpt lat="45.56063" lon="6.05985">
        <ele>1155</ele>
        <time>2021-06-27T10:43:12.070Z</time>
      </trkpt>
      <trkpt lat="45.56064" lon="6.05984">
        <ele>1156</ele>
        <time>2021-06-27T10:43:13.071Z</time>
      </trkpt>
      <trkpt lat="45.56066" lon="6.05984">
        <ele>1156</ele>
        <time>2021-06-27T10:43:14.071Z</time>
      </trkpt>
      <trkpt lat="45.56067" lon="6.05983">
        <ele>1157</ele>
        <time>2021-06-27T10:43:15.070Z</time>
      </trkpt>
      <trkpt lat="45.56067" lon="6.05983">
        <ele>1158</ele>
        <time>2021-06-27T10:43:16.071Z</time>
      </trkpt>
      <trkpt lat="45.56068" lon="6.05982">
        <ele>1159</ele>
        <time>2021-06-27T10:43:17.071Z</time>
      </trkpt>
      <trkpt lat="45.56069" lon="6.05981">
        <ele>1160</ele>
        <time>2021-06-27T10:43:18.071Z</time>
      </trkpt>
      <trkpt lat="45.5607" lon="6.0598">
        <ele>1161</ele>
        <time>2021-06-27T10:43:19.071Z</time>
      </trkpt>
      <trkpt lat="45.56071" lon="6.05979">
        <ele>1162</ele>
        <time>2021-06-27T10:43:20.071Z</time>
      </trkpt>
      <trkpt lat="45.56072" lon="6.05978">
        <ele>1163</ele>
        <time>2021-06-27T10:43:21.071Z</time>
      </trkpt>
      <trkpt lat="45.56073" lon="6.05977">
        <ele>1164</ele>
        <time>2021-06-27T10:43:22.070Z</time>
      </trkpt>
      <trkpt lat="45.56074" lon="6.05977">
        <ele>1166</ele>
        <time>2021-06-27T10:43:23.071Z</time>
      </trkpt>
      <trkpt lat="45.56076" lon="6.05977">
        <ele>1166</ele>
        <time>2021-06-27T10:43:24.071Z</time>
      </trkpt>
      <trkpt lat="45.56077" lon="6.05977">
        <ele>1167</ele>
        <time>2021-06-27T10:43:25.070Z</time>
      </trkpt>
      <trkpt lat="45.56078" lon="6.05977">
        <ele>1167</ele>
        <time>2021-06-27T10:43:26.071Z</time>
      </trkpt>
      <trkpt lat="45.56079" lon="6.05978">
        <ele>1168</ele>
        <time>2021-06-27T10:43:27.071Z</time>
      </trkpt>
      <trkpt lat="45.56081" lon="6.05979">
        <ele>1168</ele>
        <time>2021-06-27T10:43:28.071Z</time>
      </trkpt>
      <trkpt lat="45.56082" lon="6.05979">
        <ele>1168</ele>
        <time>2021-06-27T10:43:29.071Z</time>
      </trkpt>
      <trkpt lat="45.56084" lon="6.0598">
        <ele>1169</ele>
        <time>2021-06-27T10:43:30.071Z</time>
      </trkpt>
      <trkpt lat="45.56085" lon="6.05979">
        <ele>1169</ele>
        <time>2021-06-27T10:43:31.070Z</time>
      </trkpt>
      <trkpt lat="45.56086" lon="6.05977">
        <ele>1169</ele>
        <time>2021-06-27T10:43:32.071Z</time>
      </trkpt>
      <trkpt lat="45.56086" lon="6.05976">
        <ele>1170</ele>
        <time>2021-06-27T10:43:33.070Z</time>
      </trkpt>
      <trkpt lat="45.56088" lon="6.05976">
        <ele>1170</ele>
        <time>2021-06-27T10:43:34.070Z</time>
      </trkpt>
      <trkpt lat="45.56088" lon="6.05975">
        <ele>1170</ele>
        <time>2021-06-27T10:43:35.071Z</time>
      </trkpt>
      <trkpt lat="45.56089" lon="6.05974">
        <ele>1170</ele>
        <time>2021-06-27T10:43:36.071Z</time>
      </trkpt>
      <trkpt lat="45.56089" lon="6.05973">
        <ele>1171</ele>
        <time>2021-06-27T10:43:37.071Z</time>
      </trkpt>
      <trkpt lat="45.5609" lon="6.05973">
        <ele>1171</ele>
        <time>2021-06-27T10:43:38.071Z</time>
      </trkpt>
      <trkpt lat="45.56091" lon="6.05973">
        <ele>1171</ele>
        <time>2021-06-27T10:43:39.071Z</time>
      </trkpt>
      <trkpt lat="45.56091" lon="6.05972">
        <ele>1171</ele>
        <time>2021-06-27T10:43:40.070Z</time>
      </trkpt>
      <trkpt lat="45.56092" lon="6.05971">
        <ele>1172</ele>
        <time>2021-06-27T10:43:41.071Z</time>
      </trkpt>
      <trkpt lat="45.56093" lon="6.05971">
        <ele>1172</ele>
        <time>2021-06-27T10:43:42.071Z</time>
      </trkpt>
      <trkpt lat="45.56093" lon="6.0597">
        <ele>1172</ele>
        <time>2021-06-27T10:43:43.071Z</time>
      </trkpt>
      <trkpt lat="45.56094" lon="6.05969">
        <ele>1172</ele>
        <time>2021-06-27T10:43:44.071Z</time>
      </trkpt>
      <trkpt lat="45.56095" lon="6.0597">
        <ele>1173</ele>
        <time>2021-06-27T10:43:45.070Z</time>
      </trkpt>
      <trkpt lat="45.56096" lon="6.0597">
        <ele>1172</ele>
        <time>2021-06-27T10:43:46.071Z</time>
      </trkpt>
      <trkpt lat="45.56097" lon="6.0597">
        <ele>1172</ele>
        <time>2021-06-27T10:43:47.071Z</time>
      </trkpt>
      <trkpt lat="45.56098" lon="6.0597">
        <ele>1172</ele>
        <time>2021-06-27T10:43:48.071Z</time>
      </trkpt>
      <trkpt lat="45.56099" lon="6.05969">
        <ele>1172</ele>
        <time>2021-06-27T10:43:49.071Z</time>
      </trkpt>
      <trkpt lat="45.56101" lon="6.05968">
        <ele>1172</ele>
        <time>2021-06-27T10:43:50.071Z</time>
      </trkpt>
      <trkpt lat="45.56102" lon="6.05968">
        <ele>1172</ele>
        <time>2021-06-27T10:43:51.071Z</time>
      </trkpt>
      <trkpt lat="45.56103" lon="6.05968">
        <ele>1173</ele>
        <time>2021-06-27T10:43:52.071Z</time>
      </trkpt>
      <trkpt lat="45.56105" lon="6.05968">
        <ele>1174</ele>
        <time>2021-06-27T10:43:53.071Z</time>
      </trkpt>
      <trkpt lat="45.56107" lon="6.05968">
        <ele>1176</ele>
        <time>2021-06-27T10:43:54.071Z</time>
      </trkpt>
      <trkpt lat="45.56108" lon="6.05967">
        <ele>1177</ele>
        <time>2021-06-27T10:43:55.071Z</time>
      </trkpt>
      <trkpt lat="45.56109" lon="6.05967">
        <ele>1179</ele>
        <time>2021-06-27T10:43:56.070Z</time>
      </trkpt>
      <trkpt lat="45.5611" lon="6.05967">
        <ele>1180</ele>
        <time>2021-06-27T10:43:57.071Z</time>
      </trkpt>
      <trkpt lat="45.56111" lon="6.05966">
        <ele>1181</ele>
        <time>2021-06-27T10:43:58.071Z</time>
      </trkpt>
      <trkpt lat="45.56111" lon="6.05967">
        <ele>1182</ele>
        <time>2021-06-27T10:43:59.071Z</time>
      </trkpt>
      <trkpt lat="45.56113" lon="6.05967">
        <ele>1183</ele>
        <time>2021-06-27T10:44:00.070Z</time>
      </trkpt>
      <trkpt lat="45.56114" lon="6.05968">
        <ele>1183</ele>
        <time>2021-06-27T10:44:01.070Z</time>
      </trkpt>
      <trkpt lat="45.56115" lon="6.0597">
        <ele>1184</ele>
        <time>2021-06-27T10:44:02.071Z</time>
      </trkpt>
      <trkpt lat="45.56116" lon="6.05971">
        <ele>1184</ele>
        <time>2021-06-27T10:44:03.071Z</time>
      </trkpt>
      <trkpt lat="45.56117" lon="6.05971">
        <ele>1185</ele>
        <time>2021-06-27T10:44:04.071Z</time>
      </trkpt>
      <trkpt lat="45.56118" lon="6.05971">
        <ele>1185</ele>
        <time>2021-06-27T10:44:05.071Z</time>
      </trkpt>
      <trkpt lat="45.56119" lon="6.05971">
        <ele>1186</ele>
        <time>2021-06-27T10:44:06.071Z</time>
      </trkpt>
      <trkpt lat="45.56119" lon="6.05971">
        <ele>1187</ele>
        <time>2021-06-27T10:44:07.071Z</time>
      </trkpt>
      <trkpt lat="45.56118" lon="6.05971">
        <ele>1188</ele>
        <time>2021-06-27T10:44:08.071Z</time>
      </trkpt>
      <trkpt lat="45.56117" lon="6.0597">
        <ele>1189</ele>
        <time>2021-06-27T10:44:09.071Z</time>
      </trkpt>
      <trkpt lat="45.56117" lon="6.0597">
        <ele>1190</ele>
        <time>2021-06-27T10:44:10.071Z</time>
      </trkpt>
      <trkpt lat="45.56116" lon="6.0597">
        <ele>1191</ele>
        <time>2021-06-27T10:44:11.071Z</time>
      </trkpt>
      <trkpt lat="45.56116" lon="6.0597">
        <ele>1191</ele>
        <time>2021-06-27T10:44:12.070Z</time>
      </trkpt>
      <trkpt lat="45.56115" lon="6.0597">
        <ele>1192</ele>
        <time>2021-06-27T10:44:13.071Z</time>
      </trkpt>
      <trkpt lat="45.56115" lon="6.0597">
        <ele>1192</ele>
        <time>2021-06-27T10:44:14.071Z</time>
      </trkpt>
      <trkpt lat="45.56115" lon="6.0597">
        <ele>1192</ele>
        <time>2021-06-27T10:44:15.071Z</time>
      </trkpt>
      <trkpt lat="45.56115" lon="6.0597">
        <ele>1192</ele>
        <time>2021-06-27T10:44:16.071Z</time>
      </trkpt>
      <trkpt lat="45.56115" lon="6.05969">
        <ele>1191</ele>
        <time>2021-06-27T10:44:17.070Z</time>
      </trkpt>
      <trkpt lat="45.56114" lon="6.05969">
        <ele>1191</ele>
        <time>2021-06-27T10:44:18.071Z</time>
      </trkpt>
      <trkpt lat="45.56114" lon="6.05969">
        <ele>1191</ele>
        <time>2021-06-27T10:44:19.071Z</time>
      </trkpt>
      <trkpt lat="45.56115" lon="6.05969">
        <ele>1191</ele>
        <time>2021-06-27T10:44:20.070Z</time>
      </trkpt>
      <trkpt lat="45.56115" lon="6.05969">
        <ele>1190</ele>
        <time>2021-06-27T10:44:21.070Z</time>
      </trkpt>
      <trkpt lat="45.56115" lon="6.05968">
        <ele>1190</ele>
        <time>2021-06-27T10:44:22.070Z</time>
      </trkpt>
      <trkpt lat="45.56115" lon="6.05968">
        <ele>1190</ele>
        <time>2021-06-27T10:44:23.071Z</time>
      </trkpt>
      <trkpt lat="45.56115" lon="6.05967">
        <ele>1189</ele>
        <time>2021-06-27T10:44:24.070Z</time>
      </trkpt>
      <trkpt lat="45.56114" lon="6.05965">
        <ele>1188</ele>
        <time>2021-06-27T10:44:25.071Z</time>
      </trkpt>
      <trkpt lat="45.56113" lon="6.05964">
        <ele>1188</ele>
        <time>2021-06-27T10:44:26.071Z</time>
      </trkpt>
      <trkpt lat="45.56112" lon="6.05962">
        <ele>1187</ele>
        <time>2021-06-27T10:44:27.071Z</time>
      </trkpt>
      <trkpt lat="45.56112" lon="6.05962">
        <ele>1187</ele>
        <time>2021-06-27T10:44:28.071Z</time>
      </trkpt>
      <trkpt lat="45.56112" lon="6.05963">
        <ele>1186</ele>
        <time>2021-06-27T10:44:29.071Z</time>
      </trkpt>
      <trkpt lat="45.56111" lon="6.05964">
        <ele>1186</ele>
        <time>2021-06-27T10:44:30.071Z</time>
      </trkpt>
      <trkpt lat="45.56111" lon="6.05964">
        <ele>1185</ele>
        <time>2021-06-27T10:44:31.071Z</time>
      </trkpt>
      <trkpt lat="45.56111" lon="6.05965">
        <ele>1185</ele>
        <time>2021-06-27T10:44:32.071Z</time>
      </trkpt>
      <trkpt lat="45.56111" lon="6.05965">
        <ele>1185</ele>
        <time>2021-06-27T10:44:33.071Z</time>
      </trkpt>
      <trkpt lat="45.56111" lon="6.05965">
        <ele>1184</ele>
        <time>2021-06-27T10:44:34.071Z</time>
      </trkpt>
      <trkpt lat="45.56112" lon="6.05965">
        <ele>1184</ele>
        <time>2021-06-27T10:44:35.071Z</time>
      </trkpt>
      <trkpt lat="45.56112" lon="6.05965">
        <ele>1184</ele>
        <time>2021-06-27T10:44:36.071Z</time>
      </trkpt>
      <trkpt lat="45.56112" lon="6.05964">
        <ele>1183</ele>
        <time>2021-06-27T10:44:37.071Z</time>
      </trkpt>
      <trkpt lat="45.56113" lon="6.05964">
        <ele>1183</ele>
        <time>2021-06-27T10:44:38.070Z</time>
      </trkpt>
      <trkpt lat="45.56113" lon="6.05963">
        <ele>1183</ele>
        <time>2021-06-27T10:44:39.071Z</time>
      </trkpt>
      <trkpt lat="45.56114" lon="6.05963">
        <ele>1183</ele>
        <time>2021-06-27T10:44:40.071Z</time>
      </trkpt>
      <trkpt lat="45.56115" lon="6.05962">
        <ele>1183</ele>
        <time>2021-06-27T10:44:41.071Z</time>
      </trkpt>
      <trkpt lat="45.56116" lon="6.05962">
        <ele>1183</ele>
        <time>2021-06-27T10:44:42.071Z</time>
      </trkpt>
      <trkpt lat="45.56117" lon="6.05962">
        <ele>1183</ele>
        <time>2021-06-27T10:44:43.071Z</time>
      </trkpt>
      <trkpt lat="45.56118" lon="6.05962">
        <ele>1182</ele>
        <time>2021-06-27T10:44:44.070Z</time>
      </trkpt>
      <trkpt lat="45.56119" lon="6.05962">
        <ele>1182</ele>
        <time>2021-06-27T10:44:45.070Z</time>
      </trkpt>
      <trkpt lat="45.56119" lon="6.05962">
        <ele>1181</ele>
        <time>2021-06-27T10:44:46.071Z</time>
      </trkpt>
      <trkpt lat="45.5612" lon="6.05961">
        <ele>1181</ele>
        <time>2021-06-27T10:44:47.071Z</time>
      </trkpt>
      <trkpt lat="45.56121" lon="6.05961">
        <ele>1180</ele>
        <time>2021-06-27T10:44:48.071Z</time>
      </trkpt>
      <trkpt lat="45.56121" lon="6.05961">
        <ele>1180</ele>
        <time>2021-06-27T10:44:49.071Z</time>
      </trkpt>
      <trkpt lat="45.56122" lon="6.05961">
        <ele>1180</ele>
        <time>2021-06-27T10:44:50.071Z</time>
      </trkpt>
      <trkpt lat="45.56123" lon="6.05961">
        <ele>1180</ele>
        <time>2021-06-27T10:44:51.071Z</time>
      </trkpt>
      <trkpt lat="45.56124" lon="6.05961">
        <ele>1180</ele>
        <time>2021-06-27T10:44:52.071Z</time>
      </trkpt>
      <trkpt lat="45.56125" lon="6.0596">
        <ele>1180</ele>
        <time>2021-06-27T10:44:53.071Z</time>
      </trkpt>
      <trkpt lat="45.56126" lon="6.05961">
        <ele>1180</ele>
        <time>2021-06-27T10:44:54.070Z</time>
      </trkpt>
      <trkpt lat="45.56127" lon="6.05961">
        <ele>1180</ele>
        <time>2021-06-27T10:44:55.071Z</time>
      </trkpt>
      <trkpt lat="45.56127" lon="6.05961">
        <ele>1181</ele>
        <time>2021-06-27T10:44:56.071Z</time>
      </trkpt>
      <trkpt lat="45.56127" lon="6.0596">
        <ele>1181</ele>
        <time>2021-06-27T10:44:57.071Z</time>
      </trkpt>
      <trkpt lat="45.56127" lon="6.05959">
        <ele>1181</ele>
        <time>2021-06-27T10:44:58.071Z</time>
      </trkpt>
      <trkpt lat="45.56127" lon="6.05959">
        <ele>1181</ele>
        <time>2021-06-27T10:44:59.070Z</time>
      </trkpt>
      <trkpt lat="45.56127" lon="6.05958">
        <ele>1181</ele>
        <time>2021-06-27T10:45:00.070Z</time>
      </trkpt>
      <trkpt lat="45.56127" lon="6.05957">
        <ele>1181</ele>
        <time>2021-06-27T10:45:01.071Z</time>
      </trkpt>
      <trkpt lat="45.56128" lon="6.05958">
        <ele>1181</ele>
        <time>2021-06-27T10:45:02.071Z</time>
      </trkpt>
      <trkpt lat="45.56128" lon="6.05958">
        <ele>1181</ele>
        <time>2021-06-27T10:45:03.071Z</time>
      </trkpt>
      <trkpt lat="45.56129" lon="6.05958">
        <ele>1181</ele>
        <time>2021-06-27T10:45:04.071Z</time>
      </trkpt>
      <trkpt lat="45.5613" lon="6.05958">
        <ele>1181</ele>
        <time>2021-06-27T10:45:05.070Z</time>
      </trkpt>
      <trkpt lat="45.5613" lon="6.05958">
        <ele>1181</ele>
        <time>2021-06-27T10:45:06.071Z</time>
      </trkpt>
      <trkpt lat="45.56131" lon="6.05958">
        <ele>1182</ele>
        <time>2021-06-27T10:45:07.071Z</time>
      </trkpt>
      <trkpt lat="45.56133" lon="6.05957">
        <ele>1183</ele>
        <time>2021-06-27T10:45:08.071Z</time>
      </trkpt>
      <trkpt lat="45.56133" lon="6.05956">
        <ele>1183</ele>
        <time>2021-06-27T10:45:09.071Z</time>
      </trkpt>
      <trkpt lat="45.56134" lon="6.05955">
        <ele>1183</ele>
        <time>2021-06-27T10:45:10.070Z</time>
      </trkpt>
      <trkpt lat="45.56135" lon="6.05954">
        <ele>1183</ele>
        <time>2021-06-27T10:45:11.071Z</time>
      </trkpt>
      <trkpt lat="45.56135" lon="6.05953">
        <ele>1184</ele>
        <time>2021-06-27T10:45:12.071Z</time>
      </trkpt>
      <trkpt lat="45.56136" lon="6.05953">
        <ele>1184</ele>
        <time>2021-06-27T10:45:13.071Z</time>
      </trkpt>
      <trkpt lat="45.56137" lon="6.05954">
        <ele>1184</ele>
        <time>2021-06-27T10:45:14.071Z</time>
      </trkpt>
      <trkpt lat="45.56137" lon="6.05954">
        <ele>1184</ele>
        <time>2021-06-27T10:45:15.071Z</time>
      </trkpt>
      <trkpt lat="45.56138" lon="6.05954">
        <ele>1185</ele>
        <time>2021-06-27T10:45:16.070Z</time>
      </trkpt>
      <trkpt lat="45.56139" lon="6.05954">
        <ele>1185</ele>
        <time>2021-06-27T10:45:17.071Z</time>
      </trkpt>
      <trkpt lat="45.5614" lon="6.05954">
        <ele>1185</ele>
        <time>2021-06-27T10:45:18.071Z</time>
      </trkpt>
      <trkpt lat="45.56141" lon="6.05954">
        <ele>1185</ele>
        <time>2021-06-27T10:45:19.070Z</time>
      </trkpt>
      <trkpt lat="45.56142" lon="6.05954">
        <ele>1184</ele>
        <time>2021-06-27T10:45:20.071Z</time>
      </trkpt>
      <trkpt lat="45.56142" lon="6.05953">
        <ele>1184</ele>
        <time>2021-06-27T10:45:21.070Z</time>
      </trkpt>
      <trkpt lat="45.56142" lon="6.05953">
        <ele>1184</ele>
        <time>2021-06-27T10:45:22.071Z</time>
      </trkpt>
      <trkpt lat="45.56143" lon="6.05952">
        <ele>1184</ele>
        <time>2021-06-27T10:45:23.071Z</time>
      </trkpt>
      <trkpt lat="45.56143" lon="6.05951">
        <ele>1184</ele>
        <time>2021-06-27T10:45:24.071Z</time>
      </trkpt>
      <trkpt lat="45.56143" lon="6.0595">
        <ele>1183</ele>
        <time>2021-06-27T10:45:25.071Z</time>
      </trkpt>
      <trkpt lat="45.56144" lon="6.0595">
        <ele>1183</ele>
        <time>2021-06-27T10:45:26.070Z</time>
      </trkpt>
      <trkpt lat="45.56144" lon="6.05949">
        <ele>1183</ele>
        <time>2021-06-27T10:45:27.071Z</time>
      </trkpt>
      <trkpt lat="45.56144" lon="6.05947">
        <ele>1182</ele>
        <time>2021-06-27T10:45:28.071Z</time>
      </trkpt>
      <trkpt lat="45.56144" lon="6.05946">
        <ele>1182</ele>
        <time>2021-06-27T10:45:29.070Z</time>
      </trkpt>
      <trkpt lat="45.56145" lon="6.05945">
        <ele>1182</ele>
        <time>2021-06-27T10:45:30.070Z</time>
      </trkpt>
      <trkpt lat="45.56146" lon="6.05944">
        <ele>1182</ele>
        <time>2021-06-27T10:45:31.071Z</time>
      </trkpt>
      <trkpt lat="45.56147" lon="6.05944">
        <ele>1182</ele>
        <time>2021-06-27T10:45:32.071Z</time>
      </trkpt>
      <trkpt lat="45.56148" lon="6.05943">
        <ele>1182</ele>
        <time>2021-06-27T10:45:33.071Z</time>
      </trkpt>
      <trkpt lat="45.56149" lon="6.05943">
        <ele>1182</ele>
        <time>2021-06-27T10:45:34.070Z</time>
      </trkpt>
      <trkpt lat="45.5615" lon="6.05942">
        <ele>1181</ele>
        <time>2021-06-27T10:45:35.071Z</time>
      </trkpt>
      <trkpt lat="45.56151" lon="6.05942">
        <ele>1181</ele>
        <time>2021-06-27T10:45:36.071Z</time>
      </trkpt>
      <trkpt lat="45.56152" lon="6.05942">
        <ele>1181</ele>
        <time>2021-06-27T10:45:37.071Z</time>
      </trkpt>
      <trkpt lat="45.56152" lon="6.05942">
        <ele>1181</ele>
        <time>2021-06-27T10:45:38.071Z</time>
      </trkpt>
      <trkpt lat="45.56153" lon="6.05942">
        <ele>1182</ele>
        <time>2021-06-27T10:45:39.071Z</time>
      </trkpt>
      <trkpt lat="45.56153" lon="6.05941">
        <ele>1182</ele>
        <time>2021-06-27T10:45:40.070Z</time>
      </trkpt>
      <trkpt lat="45.56154" lon="6.0594">
        <ele>1182</ele>
        <time>2021-06-27T10:45:41.071Z</time>
      </trkpt>
      <trkpt lat="45.56155" lon="6.0594">
        <ele>1182</ele>
        <time>2021-06-27T10:45:42.071Z</time>
      </trkpt>
      <trkpt lat="45.56156" lon="6.05939">
        <ele>1182</ele>
        <time>2021-06-27T10:45:43.071Z</time>
      </trkpt>
      <trkpt lat="45.56156" lon="6.05937">
        <ele>1182</ele>
        <time>2021-06-27T10:45:44.071Z</time>
      </trkpt>
      <trkpt lat="45.56156" lon="6.05936">
        <ele>1182</ele>
        <time>2021-06-27T10:45:45.071Z</time>
      </trkpt>
      <trkpt lat="45.56157" lon="6.05936">
        <ele>1182</ele>
        <time>2021-06-27T10:45:46.071Z</time>
      </trkpt>
      <trkpt lat="45.56158" lon="6.05936">
        <ele>1182</ele>
        <time>2021-06-27T10:45:47.071Z</time>
      </trkpt>
      <trkpt lat="45.56158" lon="6.05935">
        <ele>1182</ele>
        <time>2021-06-27T10:45:48.071Z</time>
      </trkpt>
      <trkpt lat="45.56159" lon="6.05934">
        <ele>1183</ele>
        <time>2021-06-27T10:45:49.071Z</time>
      </trkpt>
      <trkpt lat="45.56159" lon="6.05932">
        <ele>1184</ele>
        <time>2021-06-27T10:45:50.071Z</time>
      </trkpt>
      <trkpt lat="45.56159" lon="6.05931">
        <ele>1184</ele>
        <time>2021-06-27T10:45:51.071Z</time>
      </trkpt>
      <trkpt lat="45.5616" lon="6.0593">
        <ele>1184</ele>
        <time>2021-06-27T10:45:52.071Z</time>
      </trkpt>
      <trkpt lat="45.5616" lon="6.05929">
        <ele>1185</ele>
        <time>2021-06-27T10:45:53.071Z</time>
      </trkpt>
      <trkpt lat="45.56161" lon="6.05928">
        <ele>1185</ele>
        <time>2021-06-27T10:45:54.071Z</time>
      </trkpt>
      <trkpt lat="45.56163" lon="6.05927">
        <ele>1185</ele>
        <time>2021-06-27T10:45:55.071Z</time>
      </trkpt>
      <trkpt lat="45.56164" lon="6.05926">
        <ele>1185</ele>
        <time>2021-06-27T10:45:56.070Z</time>
      </trkpt>
      <trkpt lat="45.56164" lon="6.05925">
        <ele>1185</ele>
        <time>2021-06-27T10:45:57.071Z</time>
      </trkpt>
      <trkpt lat="45.56165" lon="6.05925">
        <ele>1185</ele>
        <time>2021-06-27T10:45:58.071Z</time>
      </trkpt>
      <trkpt lat="45.56165" lon="6.05925">
        <ele>1185</ele>
        <time>2021-06-27T10:45:59.071Z</time>
      </trkpt>
      <trkpt lat="45.56165" lon="6.05924">
        <ele>1185</ele>
        <time>2021-06-27T10:46:00.071Z</time>
      </trkpt>
      <trkpt lat="45.56166" lon="6.05924">
        <ele>1185</ele>
        <time>2021-06-27T10:46:01.070Z</time>
      </trkpt>
      <trkpt lat="45.56166" lon="6.05924">
        <ele>1185</ele>
        <time>2021-06-27T10:46:02.071Z</time>
      </trkpt>
      <trkpt lat="45.56167" lon="6.05924">
        <ele>1184</ele>
        <time>2021-06-27T10:46:03.071Z</time>
      </trkpt>
      <trkpt lat="45.56168" lon="6.05924">
        <ele>1184</ele>
        <time>2021-06-27T10:46:04.071Z</time>
      </trkpt>
      <trkpt lat="45.56169" lon="6.05924">
        <ele>1184</ele>
        <time>2021-06-27T10:46:05.071Z</time>
      </trkpt>
      <trkpt lat="45.56169" lon="6.05923">
        <ele>1184</ele>
        <time>2021-06-27T10:46:06.071Z</time>
      </trkpt>
      <trkpt lat="45.56169" lon="6.05923">
        <ele>1184</ele>
        <time>2021-06-27T10:46:07.070Z</time>
      </trkpt>
      <trkpt lat="45.56169" lon="6.05923">
        <ele>1184</ele>
        <time>2021-06-27T10:46:08.071Z</time>
      </trkpt>
      <trkpt lat="45.5617" lon="6.05923">
        <ele>1185</ele>
        <time>2021-06-27T10:46:09.071Z</time>
      </trkpt>
      <trkpt lat="45.5617" lon="6.05922">
        <ele>1185</ele>
        <time>2021-06-27T10:46:10.070Z</time>
      </trkpt>
      <trkpt lat="45.56171" lon="6.05921">
        <ele>1185</ele>
        <time>2021-06-27T10:46:11.070Z</time>
      </trkpt>
      <trkpt lat="45.56172" lon="6.0592">
        <ele>1185</ele>
        <time>2021-06-27T10:46:12.071Z</time>
      </trkpt>
      <trkpt lat="45.56172" lon="6.05919">
        <ele>1185</ele>
        <time>2021-06-27T10:46:13.071Z</time>
      </trkpt>
      <trkpt lat="45.56172" lon="6.05918">
        <ele>1185</ele>
        <time>2021-06-27T10:46:14.071Z</time>
      </trkpt>
      <trkpt lat="45.56173" lon="6.05917">
        <ele>1185</ele>
        <time>2021-06-27T10:46:15.071Z</time>
      </trkpt>
      <trkpt lat="45.56173" lon="6.05916">
        <ele>1186</ele>
        <time>2021-06-27T10:46:16.071Z</time>
      </trkpt>
      <trkpt lat="45.56174" lon="6.05915">
        <ele>1186</ele>
        <time>2021-06-27T10:46:17.071Z</time>
      </trkpt>
      <trkpt lat="45.56175" lon="6.05915">
        <ele>1186</ele>
        <time>2021-06-27T10:46:18.070Z</time>
      </trkpt>
      <trkpt lat="45.56176" lon="6.05914">
        <ele>1187</ele>
        <time>2021-06-27T10:46:19.071Z</time>
      </trkpt>
      <trkpt lat="45.56177" lon="6.05914">
        <ele>1187</ele>
        <time>2021-06-27T10:46:20.071Z</time>
      </trkpt>
      <trkpt lat="45.56178" lon="6.05913">
        <ele>1188</ele>
        <time>2021-06-27T10:46:21.071Z</time>
      </trkpt>
      <trkpt lat="45.56179" lon="6.05912">
        <ele>1188</ele>
        <time>2021-06-27T10:46:22.071Z</time>
      </trkpt>
      <trkpt lat="45.56179" lon="6.05911">
        <ele>1189</ele>
        <time>2021-06-27T10:46:23.070Z</time>
      </trkpt>
      <trkpt lat="45.5618" lon="6.0591">
        <ele>1189</ele>
        <time>2021-06-27T10:46:24.071Z</time>
      </trkpt>
      <trkpt lat="45.56181" lon="6.0591">
        <ele>1190</ele>
        <time>2021-06-27T10:46:25.070Z</time>
      </trkpt>
      <trkpt lat="45.56181" lon="6.05909">
        <ele>1190</ele>
        <time>2021-06-27T10:46:26.071Z</time>
      </trkpt>
      <trkpt lat="45.56181" lon="6.05908">
        <ele>1190</ele>
        <time>2021-06-27T10:46:27.070Z</time>
      </trkpt>
      <trkpt lat="45.5618" lon="6.05906">
        <ele>1190</ele>
        <time>2021-06-27T10:46:28.071Z</time>
      </trkpt>
      <trkpt lat="45.5618" lon="6.05905">
        <ele>1190</ele>
        <time>2021-06-27T10:46:29.071Z</time>
      </trkpt>
      <trkpt lat="45.56181" lon="6.05904">
        <ele>1190</ele>
        <time>2021-06-27T10:46:30.071Z</time>
      </trkpt>
      <trkpt lat="45.56182" lon="6.05903">
        <ele>1190</ele>
        <time>2021-06-27T10:46:31.071Z</time>
      </trkpt>
      <trkpt lat="45.56182" lon="6.05902">
        <ele>1190</ele>
        <time>2021-06-27T10:46:32.071Z</time>
      </trkpt>
      <trkpt lat="45.56183" lon="6.05902">
        <ele>1190</ele>
        <time>2021-06-27T10:46:33.070Z</time>
      </trkpt>
      <trkpt lat="45.56183" lon="6.05901">
        <ele>1190</ele>
        <time>2021-06-27T10:46:34.070Z</time>
      </trkpt>
      <trkpt lat="45.56184" lon="6.05901">
        <ele>1189</ele>
        <time>2021-06-27T10:46:35.071Z</time>
      </trkpt>
      <trkpt lat="45.56185" lon="6.059">
        <ele>1189</ele>
        <time>2021-06-27T10:46:36.071Z</time>
      </trkpt>
      <trkpt lat="45.56185" lon="6.059">
        <ele>1189</ele>
        <time>2021-06-27T10:46:37.071Z</time>
      </trkpt>
      <trkpt lat="45.56186" lon="6.059">
        <ele>1189</ele>
        <time>2021-06-27T10:46:38.071Z</time>
      </trkpt>
      <trkpt lat="45.56187" lon="6.059">
        <ele>1189</ele>
        <time>2021-06-27T10:46:39.070Z</time>
      </trkpt>
      <trkpt lat="45.56188" lon="6.05899">
        <ele>1189</ele>
        <time>2021-06-27T10:46:40.071Z</time>
      </trkpt>
      <trkpt lat="45.56188" lon="6.05898">
        <ele>1189</ele>
        <time>2021-06-27T10:46:41.070Z</time>
      </trkpt>
      <trkpt lat="45.56189" lon="6.05897">
        <ele>1188</ele>
        <time>2021-06-27T10:46:42.071Z</time>
      </trkpt>
      <trkpt lat="45.5619" lon="6.05897">
        <ele>1188</ele>
        <time>2021-06-27T10:46:43.071Z</time>
      </trkpt>
      <trkpt lat="45.56192" lon="6.05897">
        <ele>1188</ele>
        <time>2021-06-27T10:46:44.070Z</time>
      </trkpt>
      <trkpt lat="45.56193" lon="6.05897">
        <ele>1189</ele>
        <time>2021-06-27T10:46:45.070Z</time>
      </trkpt>
      <trkpt lat="45.56194" lon="6.05896">
        <ele>1189</ele>
        <time>2021-06-27T10:46:46.071Z</time>
      </trkpt>
      <trkpt lat="45.56195" lon="6.05895">
        <ele>1189</ele>
        <time>2021-06-27T10:46:47.071Z</time>
      </trkpt>
      <trkpt lat="45.56196" lon="6.05895">
        <ele>1189</ele>
        <time>2021-06-27T10:46:48.071Z</time>
      </trkpt>
      <trkpt lat="45.56197" lon="6.05894">
        <ele>1189</ele>
        <time>2021-06-27T10:46:49.071Z</time>
      </trkpt>
      <trkpt lat="45.56197" lon="6.05894">
        <ele>1189</ele>
        <time>2021-06-27T10:46:50.071Z</time>
      </trkpt>
      <trkpt lat="45.56198" lon="6.05893">
        <ele>1189</ele>
        <time>2021-06-27T10:46:51.071Z</time>
      </trkpt>
      <trkpt lat="45.56199" lon="6.05893">
        <ele>1190</ele>
        <time>2021-06-27T10:46:52.071Z</time>
      </trkpt>
      <trkpt lat="45.562" lon="6.05893">
        <ele>1190</ele>
        <time>2021-06-27T10:46:53.071Z</time>
      </trkpt>
      <trkpt lat="45.562" lon="6.05892">
        <ele>1190</ele>
        <time>2021-06-27T10:46:54.071Z</time>
      </trkpt>
      <trkpt lat="45.56201" lon="6.05892">
        <ele>1190</ele>
        <time>2021-06-27T10:46:55.070Z</time>
      </trkpt>
      <trkpt lat="45.56202" lon="6.0589">
        <ele>1190</ele>
        <time>2021-06-27T10:46:56.071Z</time>
      </trkpt>
      <trkpt lat="45.56202" lon="6.05889">
        <ele>1190</ele>
        <time>2021-06-27T10:46:57.071Z</time>
      </trkpt>
      <trkpt lat="45.56202" lon="6.05889">
        <ele>1190</ele>
        <time>2021-06-27T10:46:58.071Z</time>
      </trkpt>
      <trkpt lat="45.56203" lon="6.05888">
        <ele>1190</ele>
        <time>2021-06-27T10:46:59.071Z</time>
      </trkpt>
      <trkpt lat="45.56203" lon="6.05887">
        <ele>1190</ele>
        <time>2021-06-27T10:47:00.071Z</time>
      </trkpt>
      <trkpt lat="45.56203" lon="6.05887">
        <ele>1190</ele>
        <time>2021-06-27T10:47:01.070Z</time>
      </trkpt>
      <trkpt lat="45.56204" lon="6.05886">
        <ele>1190</ele>
        <time>2021-06-27T10:47:02.071Z</time>
      </trkpt>
      <trkpt lat="45.56204" lon="6.05885">
        <ele>1190</ele>
        <time>2021-06-27T10:47:03.071Z</time>
      </trkpt>
      <trkpt lat="45.56205" lon="6.05885">
        <ele>1190</ele>
        <time>2021-06-27T10:47:04.071Z</time>
      </trkpt>
      <trkpt lat="45.56205" lon="6.05884">
        <ele>1189</ele>
        <time>2021-06-27T10:47:05.070Z</time>
      </trkpt>
      <trkpt lat="45.56206" lon="6.05883">
        <ele>1189</ele>
        <time>2021-06-27T10:47:06.070Z</time>
      </trkpt>
      <trkpt lat="45.56206" lon="6.05882">
        <ele>1188</ele>
        <time>2021-06-27T10:47:07.071Z</time>
      </trkpt>
      <trkpt lat="45.56207" lon="6.05882">
        <ele>1188</ele>
        <time>2021-06-27T10:47:08.071Z</time>
      </trkpt>
      <trkpt lat="45.56208" lon="6.05881">
        <ele>1187</ele>
        <time>2021-06-27T10:47:09.071Z</time>
      </trkpt>
      <trkpt lat="45.56208" lon="6.0588">
        <ele>1187</ele>
        <time>2021-06-27T10:47:10.071Z</time>
      </trkpt>
      <trkpt lat="45.56209" lon="6.0588">
        <ele>1188</ele>
        <time>2021-06-27T10:47:11.070Z</time>
      </trkpt>
      <trkpt lat="45.5621" lon="6.05879">
        <ele>1188</ele>
        <time>2021-06-27T10:47:12.070Z</time>
      </trkpt>
      <trkpt lat="45.56211" lon="6.05879">
        <ele>1188</ele>
        <time>2021-06-27T10:47:13.071Z</time>
      </trkpt>
      <trkpt lat="45.56212" lon="6.05878">
        <ele>1189</ele>
        <time>2021-06-27T10:47:14.071Z</time>
      </trkpt>
      <trkpt lat="45.56213" lon="6.05877">
        <ele>1188</ele>
        <time>2021-06-27T10:47:15.071Z</time>
      </trkpt>
      <trkpt lat="45.56214" lon="6.05877">
        <ele>1188</ele>
        <time>2021-06-27T10:47:16.071Z</time>
      </trkpt>
      <trkpt lat="45.56215" lon="6.05877">
        <ele>1188</ele>
        <time>2021-06-27T10:47:17.071Z</time>
      </trkpt>
      <trkpt lat="45.56215" lon="6.05876">
        <ele>1188</ele>
        <time>2021-06-27T10:47:18.071Z</time>
      </trkpt>
      <trkpt lat="45.56216" lon="6.05876">
        <ele>1188</ele>
        <time>2021-06-27T10:47:19.071Z</time>
      </trkpt>
      <trkpt lat="45.56217" lon="6.05876">
        <ele>1188</ele>
        <time>2021-06-27T10:47:20.071Z</time>
      </trkpt>
      <trkpt lat="45.56217" lon="6.05875">
        <ele>1188</ele>
        <time>2021-06-27T10:47:21.071Z</time>
      </trkpt>
      <trkpt lat="45.56218" lon="6.05875">
        <ele>1188</ele>
        <time>2021-06-27T10:47:22.071Z</time>
      </trkpt>
      <trkpt lat="45.56218" lon="6.05874">
        <ele>1188</ele>
        <time>2021-06-27T10:47:23.071Z</time>
      </trkpt>
      <trkpt lat="45.56219" lon="6.05874">
        <ele>1189</ele>
        <time>2021-06-27T10:47:24.070Z</time>
      </trkpt>
      <trkpt lat="45.5622" lon="6.05873">
        <ele>1189</ele>
        <time>2021-06-27T10:47:25.071Z</time>
      </trkpt>
      <trkpt lat="45.5622" lon="6.05872">
        <ele>1190</ele>
        <time>2021-06-27T10:47:26.071Z</time>
      </trkpt>
      <trkpt lat="45.56221" lon="6.05871">
        <ele>1190</ele>
        <time>2021-06-27T10:47:27.071Z</time>
      </trkpt>
      <trkpt lat="45.56222" lon="6.05871">
        <ele>1190</ele>
        <time>2021-06-27T10:47:28.071Z</time>
      </trkpt>
      <trkpt lat="45.56224" lon="6.05872">
        <ele>1191</ele>
        <time>2021-06-27T10:47:29.070Z</time>
      </trkpt>
      <trkpt lat="45.56224" lon="6.05872">
        <ele>1191</ele>
        <time>2021-06-27T10:47:30.071Z</time>
      </trkpt>
      <trkpt lat="45.56224" lon="6.05872">
        <ele>1191</ele>
        <time>2021-06-27T10:47:31.070Z</time>
      </trkpt>
      <trkpt lat="45.56225" lon="6.05873">
        <ele>1192</ele>
        <time>2021-06-27T10:47:32.070Z</time>
      </trkpt>
      <trkpt lat="45.56225" lon="6.05873">
        <ele>1192</ele>
        <time>2021-06-27T10:47:33.071Z</time>
      </trkpt>
      <trkpt lat="45.56225" lon="6.05873">
        <ele>1192</ele>
        <time>2021-06-27T10:47:34.070Z</time>
      </trkpt>
      <trkpt lat="45.56224" lon="6.05872">
        <ele>1193</ele>
        <time>2021-06-27T10:47:35.071Z</time>
      </trkpt>
      <trkpt lat="45.56224" lon="6.05872">
        <ele>1193</ele>
        <time>2021-06-27T10:47:36.071Z</time>
      </trkpt>
      <trkpt lat="45.56223" lon="6.05872">
        <ele>1192</ele>
        <time>2021-06-27T10:47:37.070Z</time>
      </trkpt>
      <trkpt lat="45.56223" lon="6.05871">
        <ele>1192</ele>
        <time>2021-06-27T10:47:38.071Z</time>
      </trkpt>
      <trkpt lat="45.56223" lon="6.05871">
        <ele>1191</ele>
        <time>2021-06-27T10:47:39.071Z</time>
      </trkpt>
      <trkpt lat="45.56223" lon="6.05871">
        <ele>1191</ele>
        <time>2021-06-27T10:47:40.071Z</time>
      </trkpt>
      <trkpt lat="45.56224" lon="6.05872">
        <ele>1191</ele>
        <time>2021-06-27T10:47:41.071Z</time>
      </trkpt>
      <trkpt lat="45.56224" lon="6.05873">
        <ele>1192</ele>
        <time>2021-06-27T10:47:42.071Z</time>
      </trkpt>
      <trkpt lat="45.56225" lon="6.05873">
        <ele>1192</ele>
        <time>2021-06-27T10:47:43.071Z</time>
      </trkpt>
      <trkpt lat="45.56226" lon="6.05873">
        <ele>1192</ele>
        <time>2021-06-27T10:47:44.071Z</time>
      </trkpt>
      <trkpt lat="45.56228" lon="6.05874">
        <ele>1193</ele>
        <time>2021-06-27T10:47:45.070Z</time>
      </trkpt>
      <trkpt lat="45.56229" lon="6.05875">
        <ele>1193</ele>
        <time>2021-06-27T10:47:46.070Z</time>
      </trkpt>
      <trkpt lat="45.5623" lon="6.05875">
        <ele>1194</ele>
        <time>2021-06-27T10:47:47.070Z</time>
      </trkpt>
      <trkpt lat="45.56231" lon="6.05876">
        <ele>1195</ele>
        <time>2021-06-27T10:47:48.070Z</time>
      </trkpt>
      <trkpt lat="45.56232" lon="6.05877">
        <ele>1195</ele>
        <time>2021-06-27T10:47:49.071Z</time>
      </trkpt>
      <trkpt lat="45.56233" lon="6.05877">
        <ele>1196</ele>
        <time>2021-06-27T10:47:50.070Z</time>
      </trkpt>
      <trkpt lat="45.56234" lon="6.05878">
        <ele>1196</ele>
        <time>2021-06-27T10:47:51.070Z</time>
      </trkpt>
      <trkpt lat="45.56235" lon="6.05878">
        <ele>1197</ele>
        <time>2021-06-27T10:47:52.070Z</time>
      </trkpt>
      <trkpt lat="45.56235" lon="6.05879">
        <ele>1197</ele>
        <time>2021-06-27T10:47:53.071Z</time>
      </trkpt>
      <trkpt lat="45.56236" lon="6.05879">
        <ele>1198</ele>
        <time>2021-06-27T10:47:54.071Z</time>
      </trkpt>
      <trkpt lat="45.56237" lon="6.05879">
        <ele>1198</ele>
        <time>2021-06-27T10:47:55.071Z</time>
      </trkpt>
      <trkpt lat="45.56238" lon="6.05878">
        <ele>1199</ele>
        <time>2021-06-27T10:47:56.070Z</time>
      </trkpt>
      <trkpt lat="45.56238" lon="6.05878">
        <ele>1199</ele>
        <time>2021-06-27T10:47:57.071Z</time>
      </trkpt>
      <trkpt lat="45.56239" lon="6.05878">
        <ele>1200</ele>
        <time>2021-06-27T10:47:58.071Z</time>
      </trkpt>
      <trkpt lat="45.5624" lon="6.05877">
        <ele>1200</ele>
        <time>2021-06-27T10:47:59.071Z</time>
      </trkpt>
      <trkpt lat="45.56242" lon="6.05878">
        <ele>1200</ele>
        <time>2021-06-27T10:48:00.071Z</time>
      </trkpt>
      <trkpt lat="45.56243" lon="6.05878">
        <ele>1200</ele>
        <time>2021-06-27T10:48:01.070Z</time>
      </trkpt>
      <trkpt lat="45.56244" lon="6.05878">
        <ele>1201</ele>
        <time>2021-06-27T10:48:02.070Z</time>
      </trkpt>
      <trkpt lat="45.56245" lon="6.05878">
        <ele>1201</ele>
        <time>2021-06-27T10:48:03.071Z</time>
      </trkpt>
      <trkpt lat="45.56245" lon="6.05879">
        <ele>1202</ele>
        <time>2021-06-27T10:48:04.070Z</time>
      </trkpt>
      <trkpt lat="45.56246" lon="6.0588">
        <ele>1202</ele>
        <time>2021-06-27T10:48:05.070Z</time>
      </trkpt>
      <trkpt lat="45.56247" lon="6.05881">
        <ele>1202</ele>
        <time>2021-06-27T10:48:06.070Z</time>
      </trkpt>
      <trkpt lat="45.56247" lon="6.05882">
        <ele>1202</ele>
        <time>2021-06-27T10:48:07.070Z</time>
      </trkpt>
      <trkpt lat="45.56247" lon="6.05883">
        <ele>1202</ele>
        <time>2021-06-27T10:48:08.070Z</time>
      </trkpt>
      <trkpt lat="45.56248" lon="6.05883">
        <ele>1202</ele>
        <time>2021-06-27T10:48:09.071Z</time>
      </trkpt>
      <trkpt lat="45.56249" lon="6.05883">
        <ele>1202</ele>
        <time>2021-06-27T10:48:10.071Z</time>
      </trkpt>
      <trkpt lat="45.5625" lon="6.05884">
        <ele>1201</ele>
        <time>2021-06-27T10:48:11.070Z</time>
      </trkpt>
      <trkpt lat="45.56251" lon="6.05885">
        <ele>1201</ele>
        <time>2021-06-27T10:48:12.071Z</time>
      </trkpt>
      <trkpt lat="45.56252" lon="6.05886">
        <ele>1201</ele>
        <time>2021-06-27T10:48:13.071Z</time>
      </trkpt>
      <trkpt lat="45.56253" lon="6.05886">
        <ele>1200</ele>
        <time>2021-06-27T10:48:14.071Z</time>
      </trkpt>
      <trkpt lat="45.56254" lon="6.05887">
        <ele>1200</ele>
        <time>2021-06-27T10:48:15.071Z</time>
      </trkpt>
      <trkpt lat="45.56254" lon="6.05887">
        <ele>1199</ele>
        <time>2021-06-27T10:48:16.071Z</time>
      </trkpt>
      <trkpt lat="45.56255" lon="6.05888">
        <ele>1199</ele>
        <time>2021-06-27T10:48:17.070Z</time>
      </trkpt>
      <trkpt lat="45.56256" lon="6.05888">
        <ele>1198</ele>
        <time>2021-06-27T10:48:18.071Z</time>
      </trkpt>
      <trkpt lat="45.56256" lon="6.05889">
        <ele>1198</ele>
        <time>2021-06-27T10:48:19.070Z</time>
      </trkpt>
      <trkpt lat="45.56256" lon="6.05889">
        <ele>1198</ele>
        <time>2021-06-27T10:48:20.070Z</time>
      </trkpt>
      <trkpt lat="45.56256" lon="6.0589">
        <ele>1199</ele>
        <time>2021-06-27T10:48:21.071Z</time>
      </trkpt>
      <trkpt lat="45.56257" lon="6.0589">
        <ele>1200</ele>
        <time>2021-06-27T10:48:22.070Z</time>
      </trkpt>
      <trkpt lat="45.56259" lon="6.05891">
        <ele>1200</ele>
        <time>2021-06-27T10:48:23.070Z</time>
      </trkpt>
      <trkpt lat="45.5626" lon="6.05892">
        <ele>1201</ele>
        <time>2021-06-27T10:48:24.070Z</time>
      </trkpt>
      <trkpt lat="45.56261" lon="6.05892">
        <ele>1202</ele>
        <time>2021-06-27T10:48:25.071Z</time>
      </trkpt>
      <trkpt lat="45.56262" lon="6.05892">
        <ele>1203</ele>
        <time>2021-06-27T10:48:26.071Z</time>
      </trkpt>
      <trkpt lat="45.56263" lon="6.05893">
        <ele>1204</ele>
        <time>2021-06-27T10:48:27.071Z</time>
      </trkpt>
      <trkpt lat="45.56263" lon="6.05894">
        <ele>1205</ele>
        <time>2021-06-27T10:48:28.071Z</time>
      </trkpt>
      <trkpt lat="45.56264" lon="6.05894">
        <ele>1206</ele>
        <time>2021-06-27T10:48:29.071Z</time>
      </trkpt>
      <trkpt lat="45.56265" lon="6.05896">
        <ele>1207</ele>
        <time>2021-06-27T10:48:30.071Z</time>
      </trkpt>
      <trkpt lat="45.56266" lon="6.05897">
        <ele>1208</ele>
        <time>2021-06-27T10:48:31.071Z</time>
      </trkpt>
      <trkpt lat="45.56267" lon="6.05897">
        <ele>1209</ele>
        <time>2021-06-27T10:48:32.070Z</time>
      </trkpt>
      <trkpt lat="45.56269" lon="6.05898">
        <ele>1209</ele>
        <time>2021-06-27T10:48:33.071Z</time>
      </trkpt>
      <trkpt lat="45.56269" lon="6.05899">
        <ele>1210</ele>
        <time>2021-06-27T10:48:34.071Z</time>
      </trkpt>
      <trkpt lat="45.5627" lon="6.05899">
        <ele>1211</ele>
        <time>2021-06-27T10:48:35.071Z</time>
      </trkpt>
      <trkpt lat="45.56272" lon="6.05899">
        <ele>1212</ele>
        <time>2021-06-27T10:48:36.071Z</time>
      </trkpt>
      <trkpt lat="45.56272" lon="6.05899">
        <ele>1213</ele>
        <time>2021-06-27T10:48:37.071Z</time>
      </trkpt>
      <trkpt lat="45.56273" lon="6.059">
        <ele>1214</ele>
        <time>2021-06-27T10:48:38.071Z</time>
      </trkpt>
      <trkpt lat="45.56273" lon="6.05902">
        <ele>1214</ele>
        <time>2021-06-27T10:48:39.071Z</time>
      </trkpt>
      <trkpt lat="45.56272" lon="6.05903">
        <ele>1215</ele>
        <time>2021-06-27T10:48:40.071Z</time>
      </trkpt>
      <trkpt lat="45.56272" lon="6.05904">
        <ele>1215</ele>
        <time>2021-06-27T10:48:41.070Z</time>
      </trkpt>
      <trkpt lat="45.56273" lon="6.05905">
        <ele>1216</ele>
        <time>2021-06-27T10:48:42.070Z</time>
      </trkpt>
      <trkpt lat="45.56273" lon="6.05906">
        <ele>1216</ele>
        <time>2021-06-27T10:48:43.071Z</time>
      </trkpt>
      <trkpt lat="45.56273" lon="6.05906">
        <ele>1217</ele>
        <time>2021-06-27T10:48:44.071Z</time>
      </trkpt>
      <trkpt lat="45.56274" lon="6.05907">
        <ele>1217</ele>
        <time>2021-06-27T10:48:45.071Z</time>
      </trkpt>
      <trkpt lat="45.56275" lon="6.05908">
        <ele>1217</ele>
        <time>2021-06-27T10:48:46.070Z</time>
      </trkpt>
      <trkpt lat="45.56276" lon="6.05909">
        <ele>1218</ele>
        <time>2021-06-27T10:48:47.071Z</time>
      </trkpt>
      <trkpt lat="45.56277" lon="6.0591">
        <ele>1218</ele>
        <time>2021-06-27T10:48:48.071Z</time>
      </trkpt>
      <trkpt lat="45.56277" lon="6.0591">
        <ele>1218</ele>
        <time>2021-06-27T10:48:49.071Z</time>
      </trkpt>
      <trkpt lat="45.56277" lon="6.05911">
        <ele>1219</ele>
        <time>2021-06-27T10:48:50.071Z</time>
      </trkpt>
      <trkpt lat="45.56278" lon="6.05912">
        <ele>1219</ele>
        <time>2021-06-27T10:48:51.071Z</time>
      </trkpt>
      <trkpt lat="45.56277" lon="6.05912">
        <ele>1219</ele>
        <time>2021-06-27T10:48:52.071Z</time>
      </trkpt>
      <trkpt lat="45.56277" lon="6.05913">
        <ele>1219</ele>
        <time>2021-06-27T10:48:53.071Z</time>
      </trkpt>
      <trkpt lat="45.56277" lon="6.05914">
        <ele>1220</ele>
        <time>2021-06-27T10:48:54.071Z</time>
      </trkpt>
      <trkpt lat="45.56277" lon="6.05914">
        <ele>1220</ele>
        <time>2021-06-27T10:48:55.071Z</time>
      </trkpt>
      <trkpt lat="45.56276" lon="6.05914">
        <ele>1220</ele>
        <time>2021-06-27T10:48:56.071Z</time>
      </trkpt>
      <trkpt lat="45.56276" lon="6.05914">
        <ele>1220</ele>
        <time>2021-06-27T10:48:57.071Z</time>
      </trkpt>
      <trkpt lat="45.56276" lon="6.05914">
        <ele>1219</ele>
        <time>2021-06-27T10:48:58.070Z</time>
      </trkpt>
      <trkpt lat="45.56276" lon="6.05914">
        <ele>1219</ele>
        <time>2021-06-27T10:48:59.070Z</time>
      </trkpt>
      <trkpt lat="45.56276" lon="6.05914">
        <ele>1218</ele>
        <time>2021-06-27T10:49:00.070Z</time>
      </trkpt>
      <trkpt lat="45.56276" lon="6.05914">
        <ele>1218</ele>
        <time>2021-06-27T10:49:01.071Z</time>
      </trkpt>
      <trkpt lat="45.56275" lon="6.05915">
        <ele>1218</ele>
        <time>2021-06-27T10:49:02.070Z</time>
      </trkpt>
      <trkpt lat="45.56275" lon="6.05915">
        <ele>1219</ele>
        <time>2021-06-27T10:49:03.071Z</time>
      </trkpt>
      <trkpt lat="45.56276" lon="6.05916">
        <ele>1219</ele>
        <time>2021-06-27T10:49:04.071Z</time>
      </trkpt>
      <trkpt lat="45.56276" lon="6.05916">
        <ele>1220</ele>
        <time>2021-06-27T10:49:05.071Z</time>
      </trkpt>
      <trkpt lat="45.56276" lon="6.05916">
        <ele>1220</ele>
        <time>2021-06-27T10:49:06.070Z</time>
      </trkpt>
      <trkpt lat="45.56276" lon="6.05916">
        <ele>1220</ele>
        <time>2021-06-27T10:49:07.070Z</time>
      </trkpt>
      <trkpt lat="45.56276" lon="6.05916">
        <ele>1221</ele>
        <time>2021-06-27T10:49:08.071Z</time>
      </trkpt>
      <trkpt lat="45.56277" lon="6.05916">
        <ele>1221</ele>
        <time>2021-06-27T10:49:09.071Z</time>
      </trkpt>
      <trkpt lat="45.56276" lon="6.05915">
        <ele>1221</ele>
        <time>2021-06-27T10:49:10.071Z</time>
      </trkpt>
      <trkpt lat="45.56276" lon="6.05916">
        <ele>1221</ele>
        <time>2021-06-27T10:49:11.071Z</time>
      </trkpt>
      <trkpt lat="45.56275" lon="6.05916">
        <ele>1221</ele>
        <time>2021-06-27T10:49:12.071Z</time>
      </trkpt>
      <trkpt lat="45.56275" lon="6.05917">
        <ele>1221</ele>
        <time>2021-06-27T10:49:13.071Z</time>
      </trkpt>
      <trkpt lat="45.56275" lon="6.05917">
        <ele>1221</ele>
        <time>2021-06-27T10:49:14.071Z</time>
      </trkpt>
      <trkpt lat="45.56275" lon="6.05917">
        <ele>1221</ele>
        <time>2021-06-27T10:49:15.071Z</time>
      </trkpt>
      <trkpt lat="45.56275" lon="6.05918">
        <ele>1220</ele>
        <time>2021-06-27T10:49:16.070Z</time>
      </trkpt>
      <trkpt lat="45.56274" lon="6.05917">
        <ele>1220</ele>
        <time>2021-06-27T10:49:17.070Z</time>
      </trkpt>
      <trkpt lat="45.56274" lon="6.05916">
        <ele>1220</ele>
        <time>2021-06-27T10:49:18.071Z</time>
      </trkpt>
      <trkpt lat="45.56273" lon="6.05916">
        <ele>1219</ele>
        <time>2021-06-27T10:49:19.071Z</time>
      </trkpt>
      <trkpt lat="45.56273" lon="6.05916">
        <ele>1219</ele>
        <time>2021-06-27T10:49:20.071Z</time>
      </trkpt>
      <trkpt lat="45.56273" lon="6.05915">
        <ele>1218</ele>
        <time>2021-06-27T10:49:21.070Z</time>
      </trkpt>
      <trkpt lat="45.56272" lon="6.05914">
        <ele>1217</ele>
        <time>2021-06-27T10:49:22.071Z</time>
      </trkpt>
      <trkpt lat="45.56272" lon="6.05913">
        <ele>1217</ele>
        <time>2021-06-27T10:49:23.071Z</time>
      </trkpt>
      <trkpt lat="45.56271" lon="6.05912">
        <ele>1216</ele>
        <time>2021-06-27T10:49:24.071Z</time>
      </trkpt>
      <trkpt lat="45.56271" lon="6.05912">
        <ele>1216</ele>
        <time>2021-06-27T10:49:25.070Z</time>
      </trkpt>
      <trkpt lat="45.56271" lon="6.05913">
        <ele>1215</ele>
        <time>2021-06-27T10:49:26.070Z</time>
      </trkpt>
      <trkpt lat="45.5627" lon="6.05913">
        <ele>1215</ele>
        <time>2021-06-27T10:49:27.071Z</time>
      </trkpt>
      <trkpt lat="45.5627" lon="6.05913">
        <ele>1213</ele>
        <time>2021-06-27T10:49:28.070Z</time>
      </trkpt>
      <trkpt lat="45.56269" lon="6.05913">
        <ele>1212</ele>
        <time>2021-06-27T10:49:29.070Z</time>
      </trkpt>
      <trkpt lat="45.56269" lon="6.05912">
        <ele>1212</ele>
        <time>2021-06-27T10:49:30.071Z</time>
      </trkpt>
      <trkpt lat="45.56268" lon="6.05911">
        <ele>1211</ele>
        <time>2021-06-27T10:49:31.071Z</time>
      </trkpt>
      <trkpt lat="45.56268" lon="6.05911">
        <ele>1210</ele>
        <time>2021-06-27T10:49:32.071Z</time>
      </trkpt>
      <trkpt lat="45.56267" lon="6.0591">
        <ele>1209</ele>
        <time>2021-06-27T10:49:33.071Z</time>
      </trkpt>
      <trkpt lat="45.56266" lon="6.05909">
        <ele>1209</ele>
        <time>2021-06-27T10:49:34.071Z</time>
      </trkpt>
      <trkpt lat="45.56265" lon="6.05909">
        <ele>1208</ele>
        <time>2021-06-27T10:49:35.071Z</time>
      </trkpt>
      <trkpt lat="45.56264" lon="6.05909">
        <ele>1208</ele>
        <time>2021-06-27T10:49:36.071Z</time>
      </trkpt>
      <trkpt lat="45.56264" lon="6.05909">
        <ele>1207</ele>
        <time>2021-06-27T10:49:37.071Z</time>
      </trkpt>
      <trkpt lat="45.56264" lon="6.05909">
        <ele>1208</ele>
        <time>2021-06-27T10:49:38.071Z</time>
      </trkpt>
      <trkpt lat="45.56263" lon="6.05909">
        <ele>1208</ele>
        <time>2021-06-27T10:49:39.071Z</time>
      </trkpt>
      <trkpt lat="45.56263" lon="6.05909">
        <ele>1208</ele>
        <time>2021-06-27T10:49:40.071Z</time>
      </trkpt>
      <trkpt lat="45.56263" lon="6.05908">
        <ele>1208</ele>
        <time>2021-06-27T10:49:41.071Z</time>
      </trkpt>
      <trkpt lat="45.56263" lon="6.05907">
        <ele>1208</ele>
        <time>2021-06-27T10:49:42.071Z</time>
      </trkpt>
      <trkpt lat="45.56263" lon="6.05907">
        <ele>1209</ele>
        <time>2021-06-27T10:49:43.071Z</time>
      </trkpt>
      <trkpt lat="45.56263" lon="6.05906">
        <ele>1209</ele>
        <time>2021-06-27T10:49:44.070Z</time>
      </trkpt>
      <trkpt lat="45.56262" lon="6.05906">
        <ele>1209</ele>
        <time>2021-06-27T10:49:45.071Z</time>
      </trkpt>
      <trkpt lat="45.56262" lon="6.05907">
        <ele>1209</ele>
        <time>2021-06-27T10:49:46.071Z</time>
      </trkpt>
      <trkpt lat="45.5626" lon="6.05907">
        <ele>1209</ele>
        <time>2021-06-27T10:49:47.071Z</time>
      </trkpt>
      <trkpt lat="45.5626" lon="6.05907">
        <ele>1209</ele>
        <time>2021-06-27T10:49:48.071Z</time>
      </trkpt>
      <trkpt lat="45.5626" lon="6.05907">
        <ele>1209</ele>
        <time>2021-06-27T10:49:49.071Z</time>
      </trkpt>
      <trkpt lat="45.5626" lon="6.05907">
        <ele>1209</ele>
        <time>2021-06-27T10:49:50.071Z</time>
      </trkpt>
      <trkpt lat="45.56259" lon="6.05907">
        <ele>1209</ele>
        <time>2021-06-27T10:49:51.071Z</time>
      </trkpt>
      <trkpt lat="45.56259" lon="6.05907">
        <ele>1209</ele>
        <time>2021-06-27T10:49:52.070Z</time>
      </trkpt>
      <trkpt lat="45.56258" lon="6.05907">
        <ele>1209</ele>
        <time>2021-06-27T10:49:53.071Z</time>
      </trkpt>
      <trkpt lat="45.56257" lon="6.05907">
        <ele>1208</ele>
        <time>2021-06-27T10:49:54.071Z</time>
      </trkpt>
      <trkpt lat="45.56257" lon="6.05907">
        <ele>1208</ele>
        <time>2021-06-27T10:49:55.070Z</time>
      </trkpt>
      <trkpt lat="45.56256" lon="6.05906">
        <ele>1208</ele>
        <time>2021-06-27T10:49:56.071Z</time>
      </trkpt>
      <trkpt lat="45.56255" lon="6.05906">
        <ele>1208</ele>
        <time>2021-06-27T10:49:57.071Z</time>
      </trkpt>
      <trkpt lat="45.56255" lon="6.05906">
        <ele>1208</ele>
        <time>2021-06-27T10:49:58.070Z</time>
      </trkpt>
      <trkpt lat="45.56254" lon="6.05907">
        <ele>1208</ele>
        <time>2021-06-27T10:49:59.070Z</time>
      </trkpt>
      <trkpt lat="45.56254" lon="6.05908">
        <ele>1208</ele>
        <time>2021-06-27T10:50:00.070Z</time>
      </trkpt>
      <trkpt lat="45.56254" lon="6.05908">
        <ele>1208</ele>
        <time>2021-06-27T10:50:01.071Z</time>
      </trkpt>
      <trkpt lat="45.56253" lon="6.05909">
        <ele>1208</ele>
        <time>2021-06-27T10:50:02.071Z</time>
      </trkpt>
      <trkpt lat="45.56252" lon="6.0591">
        <ele>1209</ele>
        <time>2021-06-27T10:50:03.071Z</time>
      </trkpt>
      <trkpt lat="45.56251" lon="6.05911">
        <ele>1209</ele>
        <time>2021-06-27T10:50:04.070Z</time>
      </trkpt>
      <trkpt lat="45.56251" lon="6.05912">
        <ele>1210</ele>
        <time>2021-06-27T10:50:05.070Z</time>
      </trkpt>
      <trkpt lat="45.56252" lon="6.05913">
        <ele>1210</ele>
        <time>2021-06-27T10:50:06.071Z</time>
      </trkpt>
      <trkpt lat="45.56252" lon="6.05915">
        <ele>1210</ele>
        <time>2021-06-27T10:50:07.071Z</time>
      </trkpt>
      <trkpt lat="45.56252" lon="6.05916">
        <ele>1210</ele>
        <time>2021-06-27T10:50:08.071Z</time>
      </trkpt>
      <trkpt lat="45.56252" lon="6.05917">
        <ele>1211</ele>
        <time>2021-06-27T10:50:09.071Z</time>
      </trkpt>
      <trkpt lat="45.56252" lon="6.05918">
        <ele>1211</ele>
        <time>2021-06-27T10:50:10.071Z</time>
      </trkpt>
      <trkpt lat="45.56252" lon="6.05919">
        <ele>1211</ele>
        <time>2021-06-27T10:50:11.071Z</time>
      </trkpt>
      <trkpt lat="45.56251" lon="6.05918">
        <ele>1211</ele>
        <time>2021-06-27T10:50:12.071Z</time>
      </trkpt>
      <trkpt lat="45.5625" lon="6.05918">
        <ele>1211</ele>
        <time>2021-06-27T10:50:13.071Z</time>
      </trkpt>
      <trkpt lat="45.56249" lon="6.05919">
        <ele>1211</ele>
        <time>2021-06-27T10:50:14.071Z</time>
      </trkpt>
      <trkpt lat="45.56249" lon="6.05919">
        <ele>1211</ele>
        <time>2021-06-27T10:50:15.071Z</time>
      </trkpt>
      <trkpt lat="45.56249" lon="6.05919">
        <ele>1211</ele>
        <time>2021-06-27T10:50:16.071Z</time>
      </trkpt>
      <trkpt lat="45.56249" lon="6.0592">
        <ele>1211</ele>
        <time>2021-06-27T10:50:17.070Z</time>
      </trkpt>
      <trkpt lat="45.56248" lon="6.05921">
        <ele>1212</ele>
        <time>2021-06-27T10:50:18.070Z</time>
      </trkpt>
      <trkpt lat="45.56248" lon="6.05921">
        <ele>1212</ele>
        <time>2021-06-27T10:50:19.070Z</time>
      </trkpt>
      <trkpt lat="45.56247" lon="6.05922">
        <ele>1212</ele>
        <time>2021-06-27T10:50:20.070Z</time>
      </trkpt>
      <trkpt lat="45.56247" lon="6.05923">
        <ele>1213</ele>
        <time>2021-06-27T10:50:21.071Z</time>
      </trkpt>
      <trkpt lat="45.56247" lon="6.05924">
        <ele>1213</ele>
        <time>2021-06-27T10:50:22.070Z</time>
      </trkpt>
      <trkpt lat="45.56248" lon="6.05925">
        <ele>1213</ele>
        <time>2021-06-27T10:50:23.071Z</time>
      </trkpt>
      <trkpt lat="45.56247" lon="6.05926">
        <ele>1213</ele>
        <time>2021-06-27T10:50:24.071Z</time>
      </trkpt>
      <trkpt lat="45.56247" lon="6.05927">
        <ele>1213</ele>
        <time>2021-06-27T10:50:25.071Z</time>
      </trkpt>
      <trkpt lat="45.56247" lon="6.05928">
        <ele>1213</ele>
        <time>2021-06-27T10:50:26.071Z</time>
      </trkpt>
      <trkpt lat="45.56246" lon="6.05929">
        <ele>1213</ele>
        <time>2021-06-27T10:50:27.070Z</time>
      </trkpt>
      <trkpt lat="45.56246" lon="6.05929">
        <ele>1213</ele>
        <time>2021-06-27T10:50:28.071Z</time>
      </trkpt>
      <trkpt lat="45.56245" lon="6.05929">
        <ele>1213</ele>
        <time>2021-06-27T10:50:29.071Z</time>
      </trkpt>
      <trkpt lat="45.56244" lon="6.0593">
        <ele>1214</ele>
        <time>2021-06-27T10:50:30.071Z</time>
      </trkpt>
      <trkpt lat="45.56244" lon="6.0593">
        <ele>1214</ele>
        <time>2021-06-27T10:50:31.071Z</time>
      </trkpt>
      <trkpt lat="45.56244" lon="6.05931">
        <ele>1214</ele>
        <time>2021-06-27T10:50:32.071Z</time>
      </trkpt>
      <trkpt lat="45.56244" lon="6.05932">
        <ele>1214</ele>
        <time>2021-06-27T10:50:33.071Z</time>
      </trkpt>
      <trkpt lat="45.56244" lon="6.05933">
        <ele>1214</ele>
        <time>2021-06-27T10:50:34.071Z</time>
      </trkpt>
      <trkpt lat="45.56244" lon="6.05934">
        <ele>1214</ele>
        <time>2021-06-27T10:50:35.070Z</time>
      </trkpt>
      <trkpt lat="45.56243" lon="6.05934">
        <ele>1214</ele>
        <time>2021-06-27T10:50:36.070Z</time>
      </trkpt>
      <trkpt lat="45.56242" lon="6.05934">
        <ele>1214</ele>
        <time>2021-06-27T10:50:37.071Z</time>
      </trkpt>
      <trkpt lat="45.56242" lon="6.05935">
        <ele>1214</ele>
        <time>2021-06-27T10:50:38.070Z</time>
      </trkpt>
      <trkpt lat="45.56241" lon="6.05936">
        <ele>1214</ele>
        <time>2021-06-27T10:50:39.071Z</time>
      </trkpt>
      <trkpt lat="45.56241" lon="6.05937">
        <ele>1214</ele>
        <time>2021-06-27T10:50:40.071Z</time>
      </trkpt>
      <trkpt lat="45.5624" lon="6.05938">
        <ele>1214</ele>
        <time>2021-06-27T10:50:41.071Z</time>
      </trkpt>
      <trkpt lat="45.56239" lon="6.05939">
        <ele>1214</ele>
        <time>2021-06-27T10:50:42.071Z</time>
      </trkpt>
      <trkpt lat="45.56238" lon="6.05939">
        <ele>1214</ele>
        <time>2021-06-27T10:50:43.071Z</time>
      </trkpt>
      <trkpt lat="45.56237" lon="6.0594">
        <ele>1214</ele>
        <time>2021-06-27T10:50:44.071Z</time>
      </trkpt>
      <trkpt lat="45.56237" lon="6.05941">
        <ele>1214</ele>
        <time>2021-06-27T10:50:45.071Z</time>
      </trkpt>
      <trkpt lat="45.56237" lon="6.05942">
        <ele>1215</ele>
        <time>2021-06-27T10:50:46.071Z</time>
      </trkpt>
      <trkpt lat="45.56237" lon="6.05943">
        <ele>1215</ele>
        <time>2021-06-27T10:50:47.071Z</time>
      </trkpt>
      <trkpt lat="45.56237" lon="6.05943">
        <ele>1216</ele>
        <time>2021-06-27T10:50:48.071Z</time>
      </trkpt>
      <trkpt lat="45.56237" lon="6.05945">
        <ele>1216</ele>
        <time>2021-06-27T10:50:49.070Z</time>
      </trkpt>
      <trkpt lat="45.56238" lon="6.05946">
        <ele>1217</ele>
        <time>2021-06-27T10:50:50.071Z</time>
      </trkpt>
      <trkpt lat="45.56238" lon="6.05947">
        <ele>1217</ele>
        <time>2021-06-27T10:50:51.071Z</time>
      </trkpt>
      <trkpt lat="45.56238" lon="6.05947">
        <ele>1218</ele>
        <time>2021-06-27T10:50:52.071Z</time>
      </trkpt>
      <trkpt lat="45.56239" lon="6.05948">
        <ele>1218</ele>
        <time>2021-06-27T10:50:53.071Z</time>
      </trkpt>
      <trkpt lat="45.56239" lon="6.05948">
        <ele>1219</ele>
        <time>2021-06-27T10:50:54.071Z</time>
      </trkpt>
      <trkpt lat="45.5624" lon="6.0595">
        <ele>1219</ele>
        <time>2021-06-27T10:50:55.070Z</time>
      </trkpt>
      <trkpt lat="45.5624" lon="6.05951">
        <ele>1220</ele>
        <time>2021-06-27T10:50:56.071Z</time>
      </trkpt>
      <trkpt lat="45.56239" lon="6.05952">
        <ele>1220</ele>
        <time>2021-06-27T10:50:57.071Z</time>
      </trkpt>
      <trkpt lat="45.56239" lon="6.05953">
        <ele>1221</ele>
        <time>2021-06-27T10:50:58.071Z</time>
      </trkpt>
      <trkpt lat="45.56239" lon="6.05953">
        <ele>1221</ele>
        <time>2021-06-27T10:50:59.070Z</time>
      </trkpt>
      <trkpt lat="45.5624" lon="6.05955">
        <ele>1222</ele>
        <time>2021-06-27T10:51:00.071Z</time>
      </trkpt>
      <trkpt lat="45.5624" lon="6.05956">
        <ele>1222</ele>
        <time>2021-06-27T10:51:01.071Z</time>
      </trkpt>
      <trkpt lat="45.5624" lon="6.05957">
        <ele>1222</ele>
        <time>2021-06-27T10:51:02.071Z</time>
      </trkpt>
      <trkpt lat="45.56241" lon="6.05958">
        <ele>1222</ele>
        <time>2021-06-27T10:51:03.071Z</time>
      </trkpt>
      <trkpt lat="45.56241" lon="6.05958">
        <ele>1222</ele>
        <time>2021-06-27T10:51:04.071Z</time>
      </trkpt>
      <trkpt lat="45.56241" lon="6.0596">
        <ele>1222</ele>
        <time>2021-06-27T10:51:05.071Z</time>
      </trkpt>
      <trkpt lat="45.56241" lon="6.05961">
        <ele>1222</ele>
        <time>2021-06-27T10:51:06.071Z</time>
      </trkpt>
      <trkpt lat="45.56241" lon="6.05963">
        <ele>1222</ele>
        <time>2021-06-27T10:51:07.071Z</time>
      </trkpt>
      <trkpt lat="45.56241" lon="6.05964">
        <ele>1222</ele>
        <time>2021-06-27T10:51:08.070Z</time>
      </trkpt>
      <trkpt lat="45.5624" lon="6.05964">
        <ele>1222</ele>
        <time>2021-06-27T10:51:09.071Z</time>
      </trkpt>
      <trkpt lat="45.56239" lon="6.05965">
        <ele>1222</ele>
        <time>2021-06-27T10:51:10.071Z</time>
      </trkpt>
      <trkpt lat="45.56239" lon="6.05966">
        <ele>1222</ele>
        <time>2021-06-27T10:51:11.070Z</time>
      </trkpt>
      <trkpt lat="45.56239" lon="6.05966">
        <ele>1222</ele>
        <time>2021-06-27T10:51:12.071Z</time>
      </trkpt>
      <trkpt lat="45.56239" lon="6.05966">
        <ele>1222</ele>
        <time>2021-06-27T10:51:13.071Z</time>
      </trkpt>
      <trkpt lat="45.5624" lon="6.05966">
        <ele>1222</ele>
        <time>2021-06-27T10:51:14.071Z</time>
      </trkpt>
      <trkpt lat="45.56239" lon="6.05966">
        <ele>1222</ele>
        <time>2021-06-27T10:51:15.071Z</time>
      </trkpt>
      <trkpt lat="45.56239" lon="6.05965">
        <ele>1221</ele>
        <time>2021-06-27T10:51:16.071Z</time>
      </trkpt>
      <trkpt lat="45.56239" lon="6.05965">
        <ele>1221</ele>
        <time>2021-06-27T10:51:17.071Z</time>
      </trkpt>
      <trkpt lat="45.5624" lon="6.05964">
        <ele>1221</ele>
        <time>2021-06-27T10:51:18.071Z</time>
      </trkpt>
      <trkpt lat="45.5624" lon="6.05964">
        <ele>1220</ele>
        <time>2021-06-27T10:51:19.070Z</time>
      </trkpt>
      <trkpt lat="45.5624" lon="6.05963">
        <ele>1220</ele>
        <time>2021-06-27T10:51:20.071Z</time>
      </trkpt>
      <trkpt lat="45.5624" lon="6.05962">
        <ele>1219</ele>
        <time>2021-06-27T10:51:21.071Z</time>
      </trkpt>
      <trkpt lat="45.56239" lon="6.05962">
        <ele>1219</ele>
        <time>2021-06-27T10:51:22.071Z</time>
      </trkpt>
      <trkpt lat="45.56239" lon="6.05961">
        <ele>1219</ele>
        <time>2021-06-27T10:51:23.071Z</time>
      </trkpt>
      <trkpt lat="45.5624" lon="6.05962">
        <ele>1219</ele>
        <time>2021-06-27T10:51:24.070Z</time>
      </trkpt>
      <trkpt lat="45.5624" lon="6.05963">
        <ele>1219</ele>
        <time>2021-06-27T10:51:25.071Z</time>
      </trkpt>
      <trkpt lat="45.5624" lon="6.05964">
        <ele>1219</ele>
        <time>2021-06-27T10:51:26.071Z</time>
      </trkpt>
      <trkpt lat="45.5624" lon="6.05965">
        <ele>1220</ele>
        <time>2021-06-27T10:51:27.071Z</time>
      </trkpt>
      <trkpt lat="45.56239" lon="6.05966">
        <ele>1220</ele>
        <time>2021-06-27T10:51:28.071Z</time>
      </trkpt>
      <trkpt lat="45.56239" lon="6.05966">
        <ele>1220</ele>
        <time>2021-06-27T10:51:29.071Z</time>
      </trkpt>
      <trkpt lat="45.56238" lon="6.05967">
        <ele>1220</ele>
        <time>2021-06-27T10:51:30.070Z</time>
      </trkpt>
      <trkpt lat="45.56238" lon="6.05968">
        <ele>1220</ele>
        <time>2021-06-27T10:51:31.071Z</time>
      </trkpt>
      <trkpt lat="45.56238" lon="6.05969">
        <ele>1220</ele>
        <time>2021-06-27T10:51:32.071Z</time>
      </trkpt>
      <trkpt lat="45.56238" lon="6.05969">
        <ele>1220</ele>
        <time>2021-06-27T10:51:33.071Z</time>
      </trkpt>
      <trkpt lat="45.56237" lon="6.0597">
        <ele>1220</ele>
        <time>2021-06-27T10:51:34.071Z</time>
      </trkpt>
      <trkpt lat="45.56237" lon="6.0597">
        <ele>1219</ele>
        <time>2021-06-27T10:51:35.070Z</time>
      </trkpt>
      <trkpt lat="45.56237" lon="6.05971">
        <ele>1219</ele>
        <time>2021-06-27T10:51:36.071Z</time>
      </trkpt>
      <trkpt lat="45.56236" lon="6.05972">
        <ele>1219</ele>
        <time>2021-06-27T10:51:37.071Z</time>
      </trkpt>
      <trkpt lat="45.56236" lon="6.05973">
        <ele>1219</ele>
        <time>2021-06-27T10:51:38.071Z</time>
      </trkpt>
      <trkpt lat="45.56236" lon="6.05974">
        <ele>1219</ele>
        <time>2021-06-27T10:51:39.071Z</time>
      </trkpt>
      <trkpt lat="45.56236" lon="6.05975">
        <ele>1219</ele>
        <time>2021-06-27T10:51:40.070Z</time>
      </trkpt>
      <trkpt lat="45.56236" lon="6.05975">
        <ele>1219</ele>
        <time>2021-06-27T10:51:41.071Z</time>
      </trkpt>
      <trkpt lat="45.56237" lon="6.05977">
        <ele>1219</ele>
        <time>2021-06-27T10:51:42.071Z</time>
      </trkpt>
      <trkpt lat="45.56237" lon="6.05978">
        <ele>1219</ele>
        <time>2021-06-27T10:51:43.071Z</time>
      </trkpt>
      <trkpt lat="45.56237" lon="6.05978">
        <ele>1219</ele>
        <time>2021-06-27T10:51:44.071Z</time>
      </trkpt>
      <trkpt lat="45.56238" lon="6.05979">
        <ele>1220</ele>
        <time>2021-06-27T10:51:45.071Z</time>
      </trkpt>
      <trkpt lat="45.56238" lon="6.05979">
        <ele>1220</ele>
        <time>2021-06-27T10:51:46.070Z</time>
      </trkpt>
      <trkpt lat="45.56238" lon="6.0598">
        <ele>1221</ele>
        <time>2021-06-27T10:51:47.071Z</time>
      </trkpt>
      <trkpt lat="45.56238" lon="6.05981">
        <ele>1221</ele>
        <time>2021-06-27T10:51:48.070Z</time>
      </trkpt>
      <trkpt lat="45.56238" lon="6.05982">
        <ele>1222</ele>
        <time>2021-06-27T10:51:49.071Z</time>
      </trkpt>
      <trkpt lat="45.56238" lon="6.05983">
        <ele>1222</ele>
        <time>2021-06-27T10:51:50.071Z</time>
      </trkpt>
      <trkpt lat="45.56238" lon="6.05984">
        <ele>1223</ele>
        <time>2021-06-27T10:51:51.071Z</time>
      </trkpt>
      <trkpt lat="45.56238" lon="6.05985">
        <ele>1223</ele>
        <time>2021-06-27T10:51:52.071Z</time>
      </trkpt>
      <trkpt lat="45.56238" lon="6.05986">
        <ele>1224</ele>
        <time>2021-06-27T10:51:53.070Z</time>
      </trkpt>
      <trkpt lat="45.56236" lon="6.05986">
        <ele>1225</ele>
        <time>2021-06-27T10:51:54.071Z</time>
      </trkpt>
      <trkpt lat="45.56235" lon="6.05988">
        <ele>1225</ele>
        <time>2021-06-27T10:51:55.071Z</time>
      </trkpt>
      <trkpt lat="45.56234" lon="6.0599">
        <ele>1226</ele>
        <time>2021-06-27T10:51:56.070Z</time>
      </trkpt>
      <trkpt lat="45.56234" lon="6.05991">
        <ele>1227</ele>
        <time>2021-06-27T10:51:57.071Z</time>
      </trkpt>
      <trkpt lat="45.56232" lon="6.05991">
        <ele>1227</ele>
        <time>2021-06-27T10:51:58.071Z</time>
      </trkpt>
      <trkpt lat="45.56232" lon="6.05991">
        <ele>1228</ele>
        <time>2021-06-27T10:51:59.071Z</time>
      </trkpt>
      <trkpt lat="45.56232" lon="6.05991">
        <ele>1229</ele>
        <time>2021-06-27T10:52:00.071Z</time>
      </trkpt>
      <trkpt lat="45.56232" lon="6.05991">
        <ele>1229</ele>
        <time>2021-06-27T10:52:01.071Z</time>
      </trkpt>
      <trkpt lat="45.56232" lon="6.05991">
        <ele>1229</ele>
        <time>2021-06-27T10:52:02.071Z</time>
      </trkpt>
      <trkpt lat="45.56232" lon="6.05991">
        <ele>1230</ele>
        <time>2021-06-27T10:52:03.071Z</time>
      </trkpt>
      <trkpt lat="45.56232" lon="6.05992">
        <ele>1230</ele>
        <time>2021-06-27T10:52:04.070Z</time>
      </trkpt>
      <trkpt lat="45.5623" lon="6.05993">
        <ele>1231</ele>
        <time>2021-06-27T10:52:05.071Z</time>
      </trkpt>
      <trkpt lat="45.5623" lon="6.05994">
        <ele>1231</ele>
        <time>2021-06-27T10:52:06.071Z</time>
      </trkpt>
      <trkpt lat="45.56229" lon="6.05994">
        <ele>1231</ele>
        <time>2021-06-27T10:52:07.071Z</time>
      </trkpt>
      <trkpt lat="45.56229" lon="6.05995">
        <ele>1232</ele>
        <time>2021-06-27T10:52:08.071Z</time>
      </trkpt>
      <trkpt lat="45.56229" lon="6.05997">
        <ele>1232</ele>
        <time>2021-06-27T10:52:09.071Z</time>
      </trkpt>
      <trkpt lat="45.56229" lon="6.05998">
        <ele>1232</ele>
        <time>2021-06-27T10:52:10.071Z</time>
      </trkpt>
      <trkpt lat="45.56228" lon="6.05998">
        <ele>1233</ele>
        <time>2021-06-27T10:52:11.071Z</time>
      </trkpt>
      <trkpt lat="45.56229" lon="6.05999">
        <ele>1233</ele>
        <time>2021-06-27T10:52:12.071Z</time>
      </trkpt>
      <trkpt lat="45.56229" lon="6.05999">
        <ele>1233</ele>
        <time>2021-06-27T10:52:13.071Z</time>
      </trkpt>
      <trkpt lat="45.56229" lon="6.06">
        <ele>1234</ele>
        <time>2021-06-27T10:52:14.071Z</time>
      </trkpt>
      <trkpt lat="45.5623" lon="6.06001">
        <ele>1235</ele>
        <time>2021-06-27T10:52:15.071Z</time>
      </trkpt>
      <trkpt lat="45.5623" lon="6.06002">
        <ele>1235</ele>
        <time>2021-06-27T10:52:16.070Z</time>
      </trkpt>
      <trkpt lat="45.5623" lon="6.06003">
        <ele>1236</ele>
        <time>2021-06-27T10:52:17.071Z</time>
      </trkpt>
      <trkpt lat="45.5623" lon="6.06004">
        <ele>1236</ele>
        <time>2021-06-27T10:52:18.071Z</time>
      </trkpt>
      <trkpt lat="45.5623" lon="6.06005">
        <ele>1237</ele>
        <time>2021-06-27T10:52:19.071Z</time>
      </trkpt>
      <trkpt lat="45.5623" lon="6.06006">
        <ele>1237</ele>
        <time>2021-06-27T10:52:20.070Z</time>
      </trkpt>
      <trkpt lat="45.5623" lon="6.06006">
        <ele>1237</ele>
        <time>2021-06-27T10:52:21.070Z</time>
      </trkpt>
      <trkpt lat="45.56229" lon="6.06007">
        <ele>1237</ele>
        <time>2021-06-27T10:52:22.071Z</time>
      </trkpt>
      <trkpt lat="45.56229" lon="6.06007">
        <ele>1237</ele>
        <time>2021-06-27T10:52:23.071Z</time>
      </trkpt>
      <trkpt lat="45.56229" lon="6.06008">
        <ele>1237</ele>
        <time>2021-06-27T10:52:24.071Z</time>
      </trkpt>
      <trkpt lat="45.56229" lon="6.06009">
        <ele>1237</ele>
        <time>2021-06-27T10:52:25.071Z</time>
      </trkpt>
      <trkpt lat="45.56229" lon="6.0601">
        <ele>1236</ele>
        <time>2021-06-27T10:52:26.070Z</time>
      </trkpt>
      <trkpt lat="45.56229" lon="6.06011">
        <ele>1236</ele>
        <time>2021-06-27T10:52:27.071Z</time>
      </trkpt>
      <trkpt lat="45.5623" lon="6.06012">
        <ele>1236</ele>
        <time>2021-06-27T10:52:28.071Z</time>
      </trkpt>
      <trkpt lat="45.56231" lon="6.06013">
        <ele>1235</ele>
        <time>2021-06-27T10:52:29.071Z</time>
      </trkpt>
      <trkpt lat="45.56231" lon="6.06014">
        <ele>1235</ele>
        <time>2021-06-27T10:52:30.071Z</time>
      </trkpt>
      <trkpt lat="45.56231" lon="6.06015">
        <ele>1235</ele>
        <time>2021-06-27T10:52:31.071Z</time>
      </trkpt>
      <trkpt lat="45.56231" lon="6.06016">
        <ele>1234</ele>
        <time>2021-06-27T10:52:32.071Z</time>
      </trkpt>
      <trkpt lat="45.56231" lon="6.06017">
        <ele>1234</ele>
        <time>2021-06-27T10:52:33.071Z</time>
      </trkpt>
      <trkpt lat="45.56231" lon="6.06018">
        <ele>1233</ele>
        <time>2021-06-27T10:52:34.071Z</time>
      </trkpt>
      <trkpt lat="45.56231" lon="6.06019">
        <ele>1233</ele>
        <time>2021-06-27T10:52:35.070Z</time>
      </trkpt>
      <trkpt lat="45.56231" lon="6.06019">
        <ele>1233</ele>
        <time>2021-06-27T10:52:36.071Z</time>
      </trkpt>
      <trkpt lat="45.5623" lon="6.0602">
        <ele>1233</ele>
        <time>2021-06-27T10:52:37.070Z</time>
      </trkpt>
      <trkpt lat="45.5623" lon="6.0602">
        <ele>1233</ele>
        <time>2021-06-27T10:52:38.070Z</time>
      </trkpt>
      <trkpt lat="45.5623" lon="6.0602">
        <ele>1233</ele>
        <time>2021-06-27T10:52:39.070Z</time>
      </trkpt>
      <trkpt lat="45.5623" lon="6.06021">
        <ele>1233</ele>
        <time>2021-06-27T10:52:40.071Z</time>
      </trkpt>
      <trkpt lat="45.5623" lon="6.06021">
        <ele>1232</ele>
        <time>2021-06-27T10:52:41.071Z</time>
      </trkpt>
      <trkpt lat="45.5623" lon="6.06022">
        <ele>1232</ele>
        <time>2021-06-27T10:52:42.071Z</time>
      </trkpt>
      <trkpt lat="45.5623" lon="6.06023">
        <ele>1232</ele>
        <time>2021-06-27T10:52:43.071Z</time>
      </trkpt>
      <trkpt lat="45.56231" lon="6.06025">
        <ele>1231</ele>
        <time>2021-06-27T10:52:44.071Z</time>
      </trkpt>
      <trkpt lat="45.56231" lon="6.06025">
        <ele>1231</ele>
        <time>2021-06-27T10:52:45.070Z</time>
      </trkpt>
      <trkpt lat="45.5623" lon="6.06026">
        <ele>1231</ele>
        <time>2021-06-27T10:52:46.071Z</time>
      </trkpt>
      <trkpt lat="45.5623" lon="6.06027">
        <ele>1231</ele>
        <time>2021-06-27T10:52:47.070Z</time>
      </trkpt>
      <trkpt lat="45.5623" lon="6.06028">
        <ele>1231</ele>
        <time>2021-06-27T10:52:48.071Z</time>
      </trkpt>
      <trkpt lat="45.5623" lon="6.06029">
        <ele>1231</ele>
        <time>2021-06-27T10:52:49.071Z</time>
      </trkpt>
      <trkpt lat="45.5623" lon="6.0603">
        <ele>1231</ele>
        <time>2021-06-27T10:52:50.070Z</time>
      </trkpt>
      <trkpt lat="45.56229" lon="6.0603">
        <ele>1231</ele>
        <time>2021-06-27T10:52:51.071Z</time>
      </trkpt>
      <trkpt lat="45.56229" lon="6.06031">
        <ele>1231</ele>
        <time>2021-06-27T10:52:52.071Z</time>
      </trkpt>
      <trkpt lat="45.56228" lon="6.06032">
        <ele>1231</ele>
        <time>2021-06-27T10:52:53.071Z</time>
      </trkpt>
      <trkpt lat="45.56228" lon="6.06034">
        <ele>1231</ele>
        <time>2021-06-27T10:52:54.071Z</time>
      </trkpt>
      <trkpt lat="45.56227" lon="6.06035">
        <ele>1231</ele>
        <time>2021-06-27T10:52:55.070Z</time>
      </trkpt>
      <trkpt lat="45.56226" lon="6.06035">
        <ele>1230</ele>
        <time>2021-06-27T10:52:56.071Z</time>
      </trkpt>
      <trkpt lat="45.56225" lon="6.06036">
        <ele>1230</ele>
        <time>2021-06-27T10:52:57.071Z</time>
      </trkpt>
      <trkpt lat="45.56224" lon="6.06035">
        <ele>1230</ele>
        <time>2021-06-27T10:52:58.070Z</time>
      </trkpt>
      <trkpt lat="45.56225" lon="6.06036">
        <ele>1229</ele>
        <time>2021-06-27T10:52:59.071Z</time>
      </trkpt>
      <trkpt lat="45.56226" lon="6.06036">
        <ele>1229</ele>
        <time>2021-06-27T10:53:00.070Z</time>
      </trkpt>
      <trkpt lat="45.56226" lon="6.06036">
        <ele>1229</ele>
        <time>2021-06-27T10:53:01.071Z</time>
      </trkpt>
      <trkpt lat="45.56227" lon="6.06037">
        <ele>1229</ele>
        <time>2021-06-27T10:53:02.071Z</time>
      </trkpt>
      <trkpt lat="45.56228" lon="6.06037">
        <ele>1230</ele>
        <time>2021-06-27T10:53:03.071Z</time>
      </trkpt>
      <trkpt lat="45.56229" lon="6.06037">
        <ele>1230</ele>
        <time>2021-06-27T10:53:04.071Z</time>
      </trkpt>
      <trkpt lat="45.56229" lon="6.06037">
        <ele>1230</ele>
        <time>2021-06-27T10:53:05.070Z</time>
      </trkpt>
      <trkpt lat="45.56229" lon="6.06037">
        <ele>1230</ele>
        <time>2021-06-27T10:53:06.070Z</time>
      </trkpt>
      <trkpt lat="45.56228" lon="6.06038">
        <ele>1231</ele>
        <time>2021-06-27T10:53:07.071Z</time>
      </trkpt>
      <trkpt lat="45.56228" lon="6.06038">
        <ele>1232</ele>
        <time>2021-06-27T10:53:08.070Z</time>
      </trkpt>
      <trkpt lat="45.56228" lon="6.06039">
        <ele>1232</ele>
        <time>2021-06-27T10:53:09.071Z</time>
      </trkpt>
      <trkpt lat="45.56228" lon="6.06039">
        <ele>1233</ele>
        <time>2021-06-27T10:53:10.071Z</time>
      </trkpt>
      <trkpt lat="45.56228" lon="6.06039">
        <ele>1233</ele>
        <time>2021-06-27T10:53:11.070Z</time>
      </trkpt>
      <trkpt lat="45.56228" lon="6.0604">
        <ele>1233</ele>
        <time>2021-06-27T10:53:12.070Z</time>
      </trkpt>
      <trkpt lat="45.56228" lon="6.0604">
        <ele>1234</ele>
        <time>2021-06-27T10:53:13.071Z</time>
      </trkpt>
      <trkpt lat="45.56228" lon="6.0604">
        <ele>1234</ele>
        <time>2021-06-27T10:53:14.070Z</time>
      </trkpt>
      <trkpt lat="45.56228" lon="6.0604">
        <ele>1234</ele>
        <time>2021-06-27T10:53:15.071Z</time>
      </trkpt>
      <trkpt lat="45.56228" lon="6.0604">
        <ele>1235</ele>
        <time>2021-06-27T10:53:16.070Z</time>
      </trkpt>
      <trkpt lat="45.56228" lon="6.0604">
        <ele>1236</ele>
        <time>2021-06-27T10:53:17.071Z</time>
      </trkpt>
      <trkpt lat="45.56228" lon="6.06041">
        <ele>1236</ele>
        <time>2021-06-27T10:53:18.071Z</time>
      </trkpt>
      <trkpt lat="45.56228" lon="6.06042">
        <ele>1237</ele>
        <time>2021-06-27T10:53:19.071Z</time>
      </trkpt>
      <trkpt lat="45.56228" lon="6.06042">
        <ele>1237</ele>
        <time>2021-06-27T10:53:20.071Z</time>
      </trkpt>
      <trkpt lat="45.56227" lon="6.06042">
        <ele>1237</ele>
        <time>2021-06-27T10:53:21.071Z</time>
      </trkpt>
      <trkpt lat="45.56227" lon="6.06042">
        <ele>1237</ele>
        <time>2021-06-27T10:53:22.070Z</time>
      </trkpt>
      <trkpt lat="45.56227" lon="6.06043">
        <ele>1237</ele>
        <time>2021-06-27T10:53:23.071Z</time>
      </trkpt>
      <trkpt lat="45.56227" lon="6.06044">
        <ele>1237</ele>
        <time>2021-06-27T10:53:24.070Z</time>
      </trkpt>
      <trkpt lat="45.56227" lon="6.06044">
        <ele>1237</ele>
        <time>2021-06-27T10:53:25.071Z</time>
      </trkpt>
      <trkpt lat="45.56227" lon="6.06045">
        <ele>1237</ele>
        <time>2021-06-27T10:53:26.071Z</time>
      </trkpt>
      <trkpt lat="45.56227" lon="6.06046">
        <ele>1238</ele>
        <time>2021-06-27T10:53:27.071Z</time>
      </trkpt>
      <trkpt lat="45.56227" lon="6.06046">
        <ele>1238</ele>
        <time>2021-06-27T10:53:28.071Z</time>
      </trkpt>
      <trkpt lat="45.56227" lon="6.06046">
        <ele>1238</ele>
        <time>2021-06-27T10:53:29.070Z</time>
      </trkpt>
      <trkpt lat="45.56227" lon="6.06048">
        <ele>1238</ele>
        <time>2021-06-27T10:53:30.071Z</time>
      </trkpt>
      <trkpt lat="45.56228" lon="6.06049">
        <ele>1238</ele>
        <time>2021-06-27T10:53:31.071Z</time>
      </trkpt>
      <trkpt lat="45.56229" lon="6.0605">
        <ele>1237</ele>
        <time>2021-06-27T10:53:32.071Z</time>
      </trkpt>
      <trkpt lat="45.56229" lon="6.06052">
        <ele>1237</ele>
        <time>2021-06-27T10:53:33.071Z</time>
      </trkpt>
      <trkpt lat="45.56229" lon="6.06053">
        <ele>1237</ele>
        <time>2021-06-27T10:53:34.070Z</time>
      </trkpt>
      <trkpt lat="45.5623" lon="6.06053">
        <ele>1236</ele>
        <time>2021-06-27T10:53:35.071Z</time>
      </trkpt>
      <trkpt lat="45.5623" lon="6.06054">
        <ele>1236</ele>
        <time>2021-06-27T10:53:36.071Z</time>
      </trkpt>
      <trkpt lat="45.5623" lon="6.06055">
        <ele>1236</ele>
        <time>2021-06-27T10:53:37.071Z</time>
      </trkpt>
      <trkpt lat="45.56231" lon="6.06056">
        <ele>1236</ele>
        <time>2021-06-27T10:53:38.070Z</time>
      </trkpt>
      <trkpt lat="45.56232" lon="6.06056">
        <ele>1236</ele>
        <time>2021-06-27T10:53:39.071Z</time>
      </trkpt>
      <trkpt lat="45.56232" lon="6.06057">
        <ele>1236</ele>
        <time>2021-06-27T10:53:40.071Z</time>
      </trkpt>
      <trkpt lat="45.56232" lon="6.06057">
        <ele>1236</ele>
        <time>2021-06-27T10:53:41.071Z</time>
      </trkpt>
      <trkpt lat="45.56232" lon="6.06057">
        <ele>1236</ele>
        <time>2021-06-27T10:53:42.071Z</time>
      </trkpt>
      <trkpt lat="45.56233" lon="6.06059">
        <ele>1236</ele>
        <time>2021-06-27T10:53:43.071Z</time>
      </trkpt>
      <trkpt lat="45.56233" lon="6.0606">
        <ele>1237</ele>
        <time>2021-06-27T10:53:44.071Z</time>
      </trkpt>
      <trkpt lat="45.56233" lon="6.06063">
        <ele>1237</ele>
        <time>2021-06-27T10:53:45.070Z</time>
      </trkpt>
      <trkpt lat="45.56232" lon="6.06064">
        <ele>1237</ele>
        <time>2021-06-27T10:53:46.071Z</time>
      </trkpt>
      <trkpt lat="45.56232" lon="6.06065">
        <ele>1238</ele>
        <time>2021-06-27T10:53:47.071Z</time>
      </trkpt>
      <trkpt lat="45.56232" lon="6.06065">
        <ele>1238</ele>
        <time>2021-06-27T10:53:48.071Z</time>
      </trkpt>
      <trkpt lat="45.56232" lon="6.06066">
        <ele>1238</ele>
        <time>2021-06-27T10:53:49.071Z</time>
      </trkpt>
      <trkpt lat="45.56232" lon="6.06066">
        <ele>1239</ele>
        <time>2021-06-27T10:53:50.071Z</time>
      </trkpt>
      <trkpt lat="45.56232" lon="6.06065">
        <ele>1239</ele>
        <time>2021-06-27T10:53:51.071Z</time>
      </trkpt>
      <trkpt lat="45.56232" lon="6.06065">
        <ele>1240</ele>
        <time>2021-06-27T10:53:52.071Z</time>
      </trkpt>
      <trkpt lat="45.56232" lon="6.06064">
        <ele>1241</ele>
        <time>2021-06-27T10:53:53.070Z</time>
      </trkpt>
      <trkpt lat="45.56233" lon="6.06063">
        <ele>1241</ele>
        <time>2021-06-27T10:53:54.070Z</time>
      </trkpt>
      <trkpt lat="45.56233" lon="6.06064">
        <ele>1242</ele>
        <time>2021-06-27T10:53:55.070Z</time>
      </trkpt>
      <trkpt lat="45.56234" lon="6.06064">
        <ele>1242</ele>
        <time>2021-06-27T10:53:56.071Z</time>
      </trkpt>
      <trkpt lat="45.56235" lon="6.06064">
        <ele>1243</ele>
        <time>2021-06-27T10:53:57.071Z</time>
      </trkpt>
      <trkpt lat="45.56236" lon="6.06064">
        <ele>1243</ele>
        <time>2021-06-27T10:53:58.071Z</time>
      </trkpt>
      <trkpt lat="45.56236" lon="6.06063">
        <ele>1243</ele>
        <time>2021-06-27T10:53:59.071Z</time>
      </trkpt>
      <trkpt lat="45.56236" lon="6.06062">
        <ele>1243</ele>
        <time>2021-06-27T10:54:00.071Z</time>
      </trkpt>
      <trkpt lat="45.56237" lon="6.06061">
        <ele>1244</ele>
        <time>2021-06-27T10:54:01.071Z</time>
      </trkpt>
      <trkpt lat="45.56237" lon="6.06061">
        <ele>1244</ele>
        <time>2021-06-27T10:54:02.071Z</time>
      </trkpt>
      <trkpt lat="45.56238" lon="6.06061">
        <ele>1245</ele>
        <time>2021-06-27T10:54:03.071Z</time>
      </trkpt>
      <trkpt lat="45.56238" lon="6.0606">
        <ele>1245</ele>
        <time>2021-06-27T10:54:04.071Z</time>
      </trkpt>
      <trkpt lat="45.56238" lon="6.06059">
        <ele>1246</ele>
        <time>2021-06-27T10:54:05.071Z</time>
      </trkpt>
      <trkpt lat="45.56238" lon="6.06057">
        <ele>1246</ele>
        <time>2021-06-27T10:54:06.070Z</time>
      </trkpt>
      <trkpt lat="45.56239" lon="6.06057">
        <ele>1247</ele>
        <time>2021-06-27T10:54:07.071Z</time>
      </trkpt>
      <trkpt lat="45.56239" lon="6.06056">
        <ele>1247</ele>
        <time>2021-06-27T10:54:08.070Z</time>
      </trkpt>
      <trkpt lat="45.56238" lon="6.06056">
        <ele>1247</ele>
        <time>2021-06-27T10:54:09.071Z</time>
      </trkpt>
      <trkpt lat="45.56238" lon="6.06055">
        <ele>1248</ele>
        <time>2021-06-27T10:54:10.071Z</time>
      </trkpt>
      <trkpt lat="45.56238" lon="6.06054">
        <ele>1249</ele>
        <time>2021-06-27T10:54:11.071Z</time>
      </trkpt>
      <trkpt lat="45.56238" lon="6.06054">
        <ele>1249</ele>
        <time>2021-06-27T10:54:12.071Z</time>
      </trkpt>
      <trkpt lat="45.56239" lon="6.06054">
        <ele>1250</ele>
        <time>2021-06-27T10:54:13.071Z</time>
      </trkpt>
      <trkpt lat="45.5624" lon="6.06054">
        <ele>1251</ele>
        <time>2021-06-27T10:54:14.070Z</time>
      </trkpt>
      <trkpt lat="45.56241" lon="6.06055">
        <ele>1252</ele>
        <time>2021-06-27T10:54:15.071Z</time>
      </trkpt>
      <trkpt lat="45.56242" lon="6.06055">
        <ele>1252</ele>
        <time>2021-06-27T10:54:16.071Z</time>
      </trkpt>
      <trkpt lat="45.56243" lon="6.06056">
        <ele>1252</ele>
        <time>2021-06-27T10:54:17.071Z</time>
      </trkpt>
      <trkpt lat="45.56244" lon="6.06055">
        <ele>1252</ele>
        <time>2021-06-27T10:54:18.071Z</time>
      </trkpt>
      <trkpt lat="45.56244" lon="6.06055">
        <ele>1252</ele>
        <time>2021-06-27T10:54:19.071Z</time>
      </trkpt>
      <trkpt lat="45.56244" lon="6.06055">
        <ele>1253</ele>
        <time>2021-06-27T10:54:20.071Z</time>
      </trkpt>
      <trkpt lat="45.56244" lon="6.06055">
        <ele>1253</ele>
        <time>2021-06-27T10:54:21.071Z</time>
      </trkpt>
      <trkpt lat="45.56245" lon="6.06056">
        <ele>1253</ele>
        <time>2021-06-27T10:54:22.071Z</time>
      </trkpt>
      <trkpt lat="45.56245" lon="6.06056">
        <ele>1254</ele>
        <time>2021-06-27T10:54:23.071Z</time>
      </trkpt>
      <trkpt lat="45.56245" lon="6.06057">
        <ele>1254</ele>
        <time>2021-06-27T10:54:24.070Z</time>
      </trkpt>
      <trkpt lat="45.56245" lon="6.06059">
        <ele>1255</ele>
        <time>2021-06-27T10:54:25.071Z</time>
      </trkpt>
      <trkpt lat="45.56245" lon="6.06061">
        <ele>1255</ele>
        <time>2021-06-27T10:54:26.071Z</time>
      </trkpt>
      <trkpt lat="45.56245" lon="6.06062">
        <ele>1255</ele>
        <time>2021-06-27T10:54:27.071Z</time>
      </trkpt>
      <trkpt lat="45.56245" lon="6.06064">
        <ele>1255</ele>
        <time>2021-06-27T10:54:28.071Z</time>
      </trkpt>
      <trkpt lat="45.56245" lon="6.06066">
        <ele>1256</ele>
        <time>2021-06-27T10:54:29.070Z</time>
      </trkpt>
      <trkpt lat="45.56246" lon="6.06067">
        <ele>1256</ele>
        <time>2021-06-27T10:54:30.071Z</time>
      </trkpt>
      <trkpt lat="45.56247" lon="6.06067">
        <ele>1256</ele>
        <time>2021-06-27T10:54:31.071Z</time>
      </trkpt>
      <trkpt lat="45.56248" lon="6.06068">
        <ele>1256</ele>
        <time>2021-06-27T10:54:32.071Z</time>
      </trkpt>
      <trkpt lat="45.56248" lon="6.06068">
        <ele>1257</ele>
        <time>2021-06-27T10:54:33.071Z</time>
      </trkpt>
      <trkpt lat="45.56249" lon="6.06069">
        <ele>1257</ele>
        <time>2021-06-27T10:54:34.071Z</time>
      </trkpt>
      <trkpt lat="45.56249" lon="6.0607">
        <ele>1257</ele>
        <time>2021-06-27T10:54:35.071Z</time>
      </trkpt>
      <trkpt lat="45.56248" lon="6.06071">
        <ele>1257</ele>
        <time>2021-06-27T10:54:36.070Z</time>
      </trkpt>
      <trkpt lat="45.56248" lon="6.06072">
        <ele>1257</ele>
        <time>2021-06-27T10:54:37.070Z</time>
      </trkpt>
      <trkpt lat="45.56248" lon="6.06072">
        <ele>1257</ele>
        <time>2021-06-27T10:54:38.071Z</time>
      </trkpt>
      <trkpt lat="45.56248" lon="6.06072">
        <ele>1257</ele>
        <time>2021-06-27T10:54:39.071Z</time>
      </trkpt>
      <trkpt lat="45.56248" lon="6.06073">
        <ele>1257</ele>
        <time>2021-06-27T10:54:40.070Z</time>
      </trkpt>
      <trkpt lat="45.56248" lon="6.06074">
        <ele>1257</ele>
        <time>2021-06-27T10:54:41.071Z</time>
      </trkpt>
      <trkpt lat="45.56248" lon="6.06075">
        <ele>1257</ele>
        <time>2021-06-27T10:54:42.071Z</time>
      </trkpt>
      <trkpt lat="45.56248" lon="6.06076">
        <ele>1258</ele>
        <time>2021-06-27T10:54:43.071Z</time>
      </trkpt>
      <trkpt lat="45.56248" lon="6.06077">
        <ele>1258</ele>
        <time>2021-06-27T10:54:44.071Z</time>
      </trkpt>
      <trkpt lat="45.56249" lon="6.06077">
        <ele>1259</ele>
        <time>2021-06-27T10:54:45.070Z</time>
      </trkpt>
      <trkpt lat="45.5625" lon="6.06078">
        <ele>1260</ele>
        <time>2021-06-27T10:54:46.071Z</time>
      </trkpt>
      <trkpt lat="45.56251" lon="6.0608">
        <ele>1260</ele>
        <time>2021-06-27T10:54:47.071Z</time>
      </trkpt>
      <trkpt lat="45.56252" lon="6.06082">
        <ele>1261</ele>
        <time>2021-06-27T10:54:48.070Z</time>
      </trkpt>
      <trkpt lat="45.56251" lon="6.06084">
        <ele>1261</ele>
        <time>2021-06-27T10:54:49.071Z</time>
      </trkpt>
      <trkpt lat="45.5625" lon="6.06085">
        <ele>1261</ele>
        <time>2021-06-27T10:54:50.071Z</time>
      </trkpt>
      <trkpt lat="45.5625" lon="6.06086">
        <ele>1262</ele>
        <time>2021-06-27T10:54:51.071Z</time>
      </trkpt>
      <trkpt lat="45.56249" lon="6.06086">
        <ele>1262</ele>
        <time>2021-06-27T10:54:52.071Z</time>
      </trkpt>
      <trkpt lat="45.56249" lon="6.06086">
        <ele>1262</ele>
        <time>2021-06-27T10:54:53.070Z</time>
      </trkpt>
      <trkpt lat="45.56249" lon="6.06087">
        <ele>1263</ele>
        <time>2021-06-27T10:54:54.071Z</time>
      </trkpt>
      <trkpt lat="45.56249" lon="6.06088">
        <ele>1263</ele>
        <time>2021-06-27T10:54:55.071Z</time>
      </trkpt>
      <trkpt lat="45.56249" lon="6.06089">
        <ele>1264</ele>
        <time>2021-06-27T10:54:56.071Z</time>
      </trkpt>
      <trkpt lat="45.56249" lon="6.0609">
        <ele>1264</ele>
        <time>2021-06-27T10:54:57.070Z</time>
      </trkpt>
      <trkpt lat="45.56249" lon="6.0609">
        <ele>1265</ele>
        <time>2021-06-27T10:54:58.070Z</time>
      </trkpt>
      <trkpt lat="45.56248" lon="6.06089">
        <ele>1265</ele>
        <time>2021-06-27T10:54:59.071Z</time>
      </trkpt>
      <trkpt lat="45.56247" lon="6.06088">
        <ele>1265</ele>
        <time>2021-06-27T10:55:00.071Z</time>
      </trkpt>
      <trkpt lat="45.56246" lon="6.06087">
        <ele>1265</ele>
        <time>2021-06-27T10:55:01.071Z</time>
      </trkpt>
      <trkpt lat="45.56246" lon="6.06087">
        <ele>1264</ele>
        <time>2021-06-27T10:55:02.071Z</time>
      </trkpt>
      <trkpt lat="45.56245" lon="6.06087">
        <ele>1264</ele>
        <time>2021-06-27T10:55:03.071Z</time>
      </trkpt>
      <trkpt lat="45.56245" lon="6.06086">
        <ele>1264</ele>
        <time>2021-06-27T10:55:04.070Z</time>
      </trkpt>
      <trkpt lat="45.56245" lon="6.06086">
        <ele>1263</ele>
        <time>2021-06-27T10:55:05.071Z</time>
      </trkpt>
      <trkpt lat="45.56244" lon="6.06086">
        <ele>1263</ele>
        <time>2021-06-27T10:55:06.071Z</time>
      </trkpt>
      <trkpt lat="45.56244" lon="6.06086">
        <ele>1263</ele>
        <time>2021-06-27T10:55:07.071Z</time>
      </trkpt>
      <trkpt lat="45.56243" lon="6.06085">
        <ele>1262</ele>
        <time>2021-06-27T10:55:08.071Z</time>
      </trkpt>
      <trkpt lat="45.56243" lon="6.06085">
        <ele>1261</ele>
        <time>2021-06-27T10:55:09.071Z</time>
      </trkpt>
      <trkpt lat="45.56243" lon="6.06084">
        <ele>1261</ele>
        <time>2021-06-27T10:55:10.071Z</time>
      </trkpt>
      <trkpt lat="45.56243" lon="6.06084">
        <ele>1260</ele>
        <time>2021-06-27T10:55:11.071Z</time>
      </trkpt>
      <trkpt lat="45.56242" lon="6.06084">
        <ele>1259</ele>
        <time>2021-06-27T10:55:12.070Z</time>
      </trkpt>
      <trkpt lat="45.56242" lon="6.06084">
        <ele>1258</ele>
        <time>2021-06-27T10:55:13.070Z</time>
      </trkpt>
      <trkpt lat="45.56242" lon="6.06084">
        <ele>1258</ele>
        <time>2021-06-27T10:55:14.071Z</time>
      </trkpt>
      <trkpt lat="45.56242" lon="6.06084">
        <ele>1258</ele>
        <time>2021-06-27T10:55:15.071Z</time>
      </trkpt>
      <trkpt lat="45.56242" lon="6.06084">
        <ele>1258</ele>
        <time>2021-06-27T10:55:16.071Z</time>
      </trkpt>
      <trkpt lat="45.5624" lon="6.06083">
        <ele>1258</ele>
        <time>2021-06-27T10:55:17.071Z</time>
      </trkpt>
      <trkpt lat="45.5624" lon="6.06085">
        <ele>1258</ele>
        <time>2021-06-27T10:55:18.070Z</time>
      </trkpt>
      <trkpt lat="45.5624" lon="6.06087">
        <ele>1258</ele>
        <time>2021-06-27T10:55:19.071Z</time>
      </trkpt>
      <trkpt lat="45.56239" lon="6.0609">
        <ele>1259</ele>
        <time>2021-06-27T10:55:20.070Z</time>
      </trkpt>
      <trkpt lat="45.5624" lon="6.06091">
        <ele>1259</ele>
        <time>2021-06-27T10:55:21.071Z</time>
      </trkpt>
      <trkpt lat="45.5624" lon="6.06092">
        <ele>1259</ele>
        <time>2021-06-27T10:55:22.071Z</time>
      </trkpt>
      <trkpt lat="45.56241" lon="6.06093">
        <ele>1259</ele>
        <time>2021-06-27T10:55:23.071Z</time>
      </trkpt>
      <trkpt lat="45.56242" lon="6.06094">
        <ele>1259</ele>
        <time>2021-06-27T10:55:24.071Z</time>
      </trkpt>
      <trkpt lat="45.56242" lon="6.06094">
        <ele>1260</ele>
        <time>2021-06-27T10:55:25.071Z</time>
      </trkpt>
      <trkpt lat="45.56242" lon="6.06094">
        <ele>1260</ele>
        <time>2021-06-27T10:55:26.070Z</time>
      </trkpt>
      <trkpt lat="45.56242" lon="6.06095">
        <ele>1260</ele>
        <time>2021-06-27T10:55:27.071Z</time>
      </trkpt>
      <trkpt lat="45.56242" lon="6.06095">
        <ele>1261</ele>
        <time>2021-06-27T10:55:28.071Z</time>
      </trkpt>
      <trkpt lat="45.56242" lon="6.06095">
        <ele>1261</ele>
        <time>2021-06-27T10:55:29.071Z</time>
      </trkpt>
      <trkpt lat="45.56242" lon="6.06095">
        <ele>1262</ele>
        <time>2021-06-27T10:55:30.071Z</time>
      </trkpt>
      <trkpt lat="45.56241" lon="6.06096">
        <ele>1262</ele>
        <time>2021-06-27T10:55:31.070Z</time>
      </trkpt>
      <trkpt lat="45.56241" lon="6.06097">
        <ele>1262</ele>
        <time>2021-06-27T10:55:32.070Z</time>
      </trkpt>
      <trkpt lat="45.56241" lon="6.06097">
        <ele>1262</ele>
        <time>2021-06-27T10:55:33.071Z</time>
      </trkpt>
      <trkpt lat="45.5624" lon="6.06098">
        <ele>1263</ele>
        <time>2021-06-27T10:55:34.071Z</time>
      </trkpt>
      <trkpt lat="45.5624" lon="6.06098">
        <ele>1263</ele>
        <time>2021-06-27T10:55:35.071Z</time>
      </trkpt>
      <trkpt lat="45.5624" lon="6.06099">
        <ele>1263</ele>
        <time>2021-06-27T10:55:36.071Z</time>
      </trkpt>
      <trkpt lat="45.5624" lon="6.061">
        <ele>1263</ele>
        <time>2021-06-27T10:55:37.070Z</time>
      </trkpt>
      <trkpt lat="45.5624" lon="6.061">
        <ele>1264</ele>
        <time>2021-06-27T10:55:38.071Z</time>
      </trkpt>
      <trkpt lat="45.5624" lon="6.061">
        <ele>1264</ele>
        <time>2021-06-27T10:55:39.070Z</time>
      </trkpt>
      <trkpt lat="45.5624" lon="6.06099">
        <ele>1265</ele>
        <time>2021-06-27T10:55:40.071Z</time>
      </trkpt>
      <trkpt lat="45.5624" lon="6.06099">
        <ele>1265</ele>
        <time>2021-06-27T10:55:41.071Z</time>
      </trkpt>
      <trkpt lat="45.5624" lon="6.06099">
        <ele>1265</ele>
        <time>2021-06-27T10:55:42.071Z</time>
      </trkpt>
      <trkpt lat="45.5624" lon="6.061">
        <ele>1266</ele>
        <time>2021-06-27T10:55:43.071Z</time>
      </trkpt>
      <trkpt lat="45.5624" lon="6.06101">
        <ele>1266</ele>
        <time>2021-06-27T10:55:44.071Z</time>
      </trkpt>
      <trkpt lat="45.5624" lon="6.06102">
        <ele>1266</ele>
        <time>2021-06-27T10:55:45.071Z</time>
      </trkpt>
      <trkpt lat="45.5624" lon="6.06102">
        <ele>1267</ele>
        <time>2021-06-27T10:55:46.071Z</time>
      </trkpt>
      <trkpt lat="45.5624" lon="6.06103">
        <ele>1267</ele>
        <time>2021-06-27T10:55:47.071Z</time>
      </trkpt>
      <trkpt lat="45.5624" lon="6.06103">
        <ele>1268</ele>
        <time>2021-06-27T10:55:48.071Z</time>
      </trkpt>
      <trkpt lat="45.56241" lon="6.06104">
        <ele>1268</ele>
        <time>2021-06-27T10:55:49.070Z</time>
      </trkpt>
      <trkpt lat="45.56241" lon="6.06105">
        <ele>1268</ele>
        <time>2021-06-27T10:55:50.071Z</time>
      </trkpt>
      <trkpt lat="45.56241" lon="6.06105">
        <ele>1269</ele>
        <time>2021-06-27T10:55:51.070Z</time>
      </trkpt>
      <trkpt lat="45.56242" lon="6.06105">
        <ele>1269</ele>
        <time>2021-06-27T10:55:52.071Z</time>
      </trkpt>
      <trkpt lat="45.56242" lon="6.06105">
        <ele>1270</ele>
        <time>2021-06-27T10:55:53.071Z</time>
      </trkpt>
      <trkpt lat="45.56242" lon="6.06105">
        <ele>1270</ele>
        <time>2021-06-27T10:55:54.070Z</time>
      </trkpt>
      <trkpt lat="45.56243" lon="6.06105">
        <ele>1271</ele>
        <time>2021-06-27T10:55:55.071Z</time>
      </trkpt>
      <trkpt lat="45.56244" lon="6.06105">
        <ele>1271</ele>
        <time>2021-06-27T10:55:56.071Z</time>
      </trkpt>
      <trkpt lat="45.56245" lon="6.06106">
        <ele>1272</ele>
        <time>2021-06-27T10:55:57.070Z</time>
      </trkpt>
      <trkpt lat="45.56245" lon="6.06108">
        <ele>1272</ele>
        <time>2021-06-27T10:55:58.071Z</time>
      </trkpt>
      <trkpt lat="45.56246" lon="6.06109">
        <ele>1273</ele>
        <time>2021-06-27T10:55:59.071Z</time>
      </trkpt>
      <trkpt lat="45.56246" lon="6.0611">
        <ele>1274</ele>
        <time>2021-06-27T10:56:00.071Z</time>
      </trkpt>
      <trkpt lat="45.56247" lon="6.06111">
        <ele>1275</ele>
        <time>2021-06-27T10:56:01.070Z</time>
      </trkpt>
      <trkpt lat="45.56248" lon="6.06113">
        <ele>1275</ele>
        <time>2021-06-27T10:56:02.070Z</time>
      </trkpt>
      <trkpt lat="45.56249" lon="6.06115">
        <ele>1276</ele>
        <time>2021-06-27T10:56:03.070Z</time>
      </trkpt>
      <trkpt lat="45.56249" lon="6.06116">
        <ele>1277</ele>
        <time>2021-06-27T10:56:04.071Z</time>
      </trkpt>
      <trkpt lat="45.56249" lon="6.06118">
        <ele>1277</ele>
        <time>2021-06-27T10:56:05.071Z</time>
      </trkpt>
      <trkpt lat="45.56249" lon="6.06121">
        <ele>1278</ele>
        <time>2021-06-27T10:56:06.071Z</time>
      </trkpt>
      <trkpt lat="45.56249" lon="6.06121">
        <ele>1278</ele>
        <time>2021-06-27T10:56:07.071Z</time>
      </trkpt>
      <trkpt lat="45.56249" lon="6.06122">
        <ele>1278</ele>
        <time>2021-06-27T10:56:08.071Z</time>
      </trkpt>
      <trkpt lat="45.5625" lon="6.06123">
        <ele>1279</ele>
        <time>2021-06-27T10:56:09.071Z</time>
      </trkpt>
      <trkpt lat="45.56251" lon="6.06124">
        <ele>1279</ele>
        <time>2021-06-27T10:56:10.071Z</time>
      </trkpt>
      <trkpt lat="45.56251" lon="6.06126">
        <ele>1279</ele>
        <time>2021-06-27T10:56:11.071Z</time>
      </trkpt>
      <trkpt lat="45.5625" lon="6.06127">
        <ele>1279</ele>
        <time>2021-06-27T10:56:12.070Z</time>
      </trkpt>
      <trkpt lat="45.5625" lon="6.06128">
        <ele>1279</ele>
        <time>2021-06-27T10:56:13.070Z</time>
      </trkpt>
      <trkpt lat="45.5625" lon="6.06129">
        <ele>1279</ele>
        <time>2021-06-27T10:56:14.071Z</time>
      </trkpt>
      <trkpt lat="45.5625" lon="6.0613">
        <ele>1279</ele>
        <time>2021-06-27T10:56:15.071Z</time>
      </trkpt>
      <trkpt lat="45.5625" lon="6.06131">
        <ele>1279</ele>
        <time>2021-06-27T10:56:16.071Z</time>
      </trkpt>
      <trkpt lat="45.56251" lon="6.06132">
        <ele>1279</ele>
        <time>2021-06-27T10:56:17.071Z</time>
      </trkpt>
      <trkpt lat="45.56251" lon="6.06133">
        <ele>1279</ele>
        <time>2021-06-27T10:56:18.070Z</time>
      </trkpt>
      <trkpt lat="45.5625" lon="6.06134">
        <ele>1279</ele>
        <time>2021-06-27T10:56:19.071Z</time>
      </trkpt>
      <trkpt lat="45.5625" lon="6.06134">
        <ele>1279</ele>
        <time>2021-06-27T10:56:20.071Z</time>
      </trkpt>
      <trkpt lat="45.5625" lon="6.06135">
        <ele>1279</ele>
        <time>2021-06-27T10:56:21.071Z</time>
      </trkpt>
      <trkpt lat="45.5625" lon="6.06134">
        <ele>1279</ele>
        <time>2021-06-27T10:56:22.071Z</time>
      </trkpt>
      <trkpt lat="45.56251" lon="6.06135">
        <ele>1279</ele>
        <time>2021-06-27T10:56:23.070Z</time>
      </trkpt>
      <trkpt lat="45.56251" lon="6.06134">
        <ele>1280</ele>
        <time>2021-06-27T10:56:24.071Z</time>
      </trkpt>
      <trkpt lat="45.56252" lon="6.06134">
        <ele>1280</ele>
        <time>2021-06-27T10:56:25.071Z</time>
      </trkpt>
      <trkpt lat="45.56252" lon="6.06133">
        <ele>1280</ele>
        <time>2021-06-27T10:56:26.071Z</time>
      </trkpt>
      <trkpt lat="45.56253" lon="6.06133">
        <ele>1281</ele>
        <time>2021-06-27T10:56:27.071Z</time>
      </trkpt>
      <trkpt lat="45.56253" lon="6.06133">
        <ele>1281</ele>
        <time>2021-06-27T10:56:28.070Z</time>
      </trkpt>
      <trkpt lat="45.56254" lon="6.06133">
        <ele>1282</ele>
        <time>2021-06-27T10:56:29.071Z</time>
      </trkpt>
      <trkpt lat="45.56254" lon="6.06132">
        <ele>1282</ele>
        <time>2021-06-27T10:56:30.070Z</time>
      </trkpt>
      <trkpt lat="45.56255" lon="6.06132">
        <ele>1282</ele>
        <time>2021-06-27T10:56:31.071Z</time>
      </trkpt>
      <trkpt lat="45.56255" lon="6.06131">
        <ele>1282</ele>
        <time>2021-06-27T10:56:32.071Z</time>
      </trkpt>
      <trkpt lat="45.56256" lon="6.06131">
        <ele>1282</ele>
        <time>2021-06-27T10:56:33.071Z</time>
      </trkpt>
      <trkpt lat="45.56256" lon="6.0613">
        <ele>1282</ele>
        <time>2021-06-27T10:56:34.071Z</time>
      </trkpt>
      <trkpt lat="45.56256" lon="6.06129">
        <ele>1283</ele>
        <time>2021-06-27T10:56:35.070Z</time>
      </trkpt>
      <trkpt lat="45.56255" lon="6.06127">
        <ele>1283</ele>
        <time>2021-06-27T10:56:36.070Z</time>
      </trkpt>
      <trkpt lat="45.56255" lon="6.06125">
        <ele>1283</ele>
        <time>2021-06-27T10:56:37.071Z</time>
      </trkpt>
      <trkpt lat="45.56256" lon="6.06125">
        <ele>1283</ele>
        <time>2021-06-27T10:56:38.071Z</time>
      </trkpt>
      <trkpt lat="45.56257" lon="6.06125">
        <ele>1283</ele>
        <time>2021-06-27T10:56:39.071Z</time>
      </trkpt>
      <trkpt lat="45.56257" lon="6.06125">
        <ele>1283</ele>
        <time>2021-06-27T10:56:40.071Z</time>
      </trkpt>
      <trkpt lat="45.56258" lon="6.06125">
        <ele>1284</ele>
        <time>2021-06-27T10:56:41.070Z</time>
      </trkpt>
      <trkpt lat="45.56258" lon="6.06125">
        <ele>1284</ele>
        <time>2021-06-27T10:56:42.071Z</time>
      </trkpt>
      <trkpt lat="45.56258" lon="6.06124">
        <ele>1284</ele>
        <time>2021-06-27T10:56:43.071Z</time>
      </trkpt>
      <trkpt lat="45.56258" lon="6.06124">
        <ele>1284</ele>
        <time>2021-06-27T10:56:44.071Z</time>
      </trkpt>
      <trkpt lat="45.56259" lon="6.06124">
        <ele>1285</ele>
        <time>2021-06-27T10:56:45.071Z</time>
      </trkpt>
      <trkpt lat="45.56259" lon="6.06123">
        <ele>1285</ele>
        <time>2021-06-27T10:56:46.070Z</time>
      </trkpt>
      <trkpt lat="45.56259" lon="6.06122">
        <ele>1285</ele>
        <time>2021-06-27T10:56:47.071Z</time>
      </trkpt>
      <trkpt lat="45.5626" lon="6.06121">
        <ele>1285</ele>
        <time>2021-06-27T10:56:48.070Z</time>
      </trkpt>
      <trkpt lat="45.5626" lon="6.06121">
        <ele>1286</ele>
        <time>2021-06-27T10:56:49.071Z</time>
      </trkpt>
      <trkpt lat="45.56261" lon="6.0612">
        <ele>1286</ele>
        <time>2021-06-27T10:56:50.070Z</time>
      </trkpt>
      <trkpt lat="45.56262" lon="6.0612">
        <ele>1286</ele>
        <time>2021-06-27T10:56:51.071Z</time>
      </trkpt>
      <trkpt lat="45.56262" lon="6.0612">
        <ele>1287</ele>
        <time>2021-06-27T10:56:52.071Z</time>
      </trkpt>
      <trkpt lat="45.56262" lon="6.06119">
        <ele>1286</ele>
        <time>2021-06-27T10:56:53.071Z</time>
      </trkpt>
      <trkpt lat="45.56262" lon="6.06118">
        <ele>1286</ele>
        <time>2021-06-27T10:56:54.071Z</time>
      </trkpt>
      <trkpt lat="45.56261" lon="6.06118">
        <ele>1286</ele>
        <time>2021-06-27T10:56:55.071Z</time>
      </trkpt>
      <trkpt lat="45.56262" lon="6.06117">
        <ele>1286</ele>
        <time>2021-06-27T10:56:56.070Z</time>
      </trkpt>
      <trkpt lat="45.56262" lon="6.06117">
        <ele>1286</ele>
        <time>2021-06-27T10:56:57.071Z</time>
      </trkpt>
      <trkpt lat="45.56263" lon="6.06117">
        <ele>1286</ele>
        <time>2021-06-27T10:56:58.070Z</time>
      </trkpt>
      <trkpt lat="45.56263" lon="6.06117">
        <ele>1286</ele>
        <time>2021-06-27T10:56:59.071Z</time>
      </trkpt>
      <trkpt lat="45.56263" lon="6.06117">
        <ele>1286</ele>
        <time>2021-06-27T10:57:00.071Z</time>
      </trkpt>
      <trkpt lat="45.56264" lon="6.06118">
        <ele>1286</ele>
        <time>2021-06-27T10:57:01.071Z</time>
      </trkpt>
      <trkpt lat="45.56264" lon="6.0612">
        <ele>1285</ele>
        <time>2021-06-27T10:57:02.071Z</time>
      </trkpt>
      <trkpt lat="45.56265" lon="6.06122">
        <ele>1285</ele>
        <time>2021-06-27T10:57:03.070Z</time>
      </trkpt>
      <trkpt lat="45.56265" lon="6.06123">
        <ele>1285</ele>
        <time>2021-06-27T10:57:04.071Z</time>
      </trkpt>
      <trkpt lat="45.56266" lon="6.06125">
        <ele>1284</ele>
        <time>2021-06-27T10:57:05.071Z</time>
      </trkpt>
      <trkpt lat="45.56266" lon="6.06126">
        <ele>1284</ele>
        <time>2021-06-27T10:57:06.071Z</time>
      </trkpt>
      <trkpt lat="45.56266" lon="6.06126">
        <ele>1284</ele>
        <time>2021-06-27T10:57:07.071Z</time>
      </trkpt>
      <trkpt lat="45.56266" lon="6.06127">
        <ele>1284</ele>
        <time>2021-06-27T10:57:08.071Z</time>
      </trkpt>
      <trkpt lat="45.56266" lon="6.06128">
        <ele>1283</ele>
        <time>2021-06-27T10:57:09.070Z</time>
      </trkpt>
      <trkpt lat="45.56266" lon="6.06129">
        <ele>1283</ele>
        <time>2021-06-27T10:57:10.070Z</time>
      </trkpt>
      <trkpt lat="45.56266" lon="6.0613">
        <ele>1284</ele>
        <time>2021-06-27T10:57:11.071Z</time>
      </trkpt>
      <trkpt lat="45.56266" lon="6.06132">
        <ele>1284</ele>
        <time>2021-06-27T10:57:12.071Z</time>
      </trkpt>
      <trkpt lat="45.56266" lon="6.06133">
        <ele>1284</ele>
        <time>2021-06-27T10:57:13.071Z</time>
      </trkpt>
      <trkpt lat="45.56266" lon="6.06133">
        <ele>1284</ele>
        <time>2021-06-27T10:57:14.071Z</time>
      </trkpt>
      <trkpt lat="45.56266" lon="6.06134">
        <ele>1284</ele>
        <time>2021-06-27T10:57:15.071Z</time>
      </trkpt>
      <trkpt lat="45.56266" lon="6.06135">
        <ele>1284</ele>
        <time>2021-06-27T10:57:16.070Z</time>
      </trkpt>
      <trkpt lat="45.56266" lon="6.06137">
        <ele>1284</ele>
        <time>2021-06-27T10:57:17.071Z</time>
      </trkpt>
      <trkpt lat="45.56266" lon="6.06137">
        <ele>1284</ele>
        <time>2021-06-27T10:57:18.071Z</time>
      </trkpt>
      <trkpt lat="45.56267" lon="6.06138">
        <ele>1285</ele>
        <time>2021-06-27T10:57:19.071Z</time>
      </trkpt>
      <trkpt lat="45.56267" lon="6.06138">
        <ele>1285</ele>
        <time>2021-06-27T10:57:20.071Z</time>
      </trkpt>
      <trkpt lat="45.56268" lon="6.06138">
        <ele>1285</ele>
        <time>2021-06-27T10:57:21.070Z</time>
      </trkpt>
      <trkpt lat="45.56268" lon="6.06138">
        <ele>1286</ele>
        <time>2021-06-27T10:57:22.070Z</time>
      </trkpt>
      <trkpt lat="45.56269" lon="6.06137">
        <ele>1287</ele>
        <time>2021-06-27T10:57:23.071Z</time>
      </trkpt>
      <trkpt lat="45.56269" lon="6.06136">
        <ele>1287</ele>
        <time>2021-06-27T10:57:24.071Z</time>
      </trkpt>
      <trkpt lat="45.56268" lon="6.06135">
        <ele>1288</ele>
        <time>2021-06-27T10:57:25.070Z</time>
      </trkpt>
      <trkpt lat="45.56268" lon="6.06134">
        <ele>1289</ele>
        <time>2021-06-27T10:57:26.071Z</time>
      </trkpt>
      <trkpt lat="45.56268" lon="6.06133">
        <ele>1290</ele>
        <time>2021-06-27T10:57:27.071Z</time>
      </trkpt>
      <trkpt lat="45.56268" lon="6.06133">
        <ele>1291</ele>
        <time>2021-06-27T10:57:28.071Z</time>
      </trkpt>
      <trkpt lat="45.56269" lon="6.06133">
        <ele>1292</ele>
        <time>2021-06-27T10:57:29.071Z</time>
      </trkpt>
      <trkpt lat="45.56269" lon="6.06133">
        <ele>1292</ele>
        <time>2021-06-27T10:57:30.071Z</time>
      </trkpt>
      <trkpt lat="45.5627" lon="6.06133">
        <ele>1293</ele>
        <time>2021-06-27T10:57:31.071Z</time>
      </trkpt>
      <trkpt lat="45.5627" lon="6.06133">
        <ele>1293</ele>
        <time>2021-06-27T10:57:32.070Z</time>
      </trkpt>
      <trkpt lat="45.56271" lon="6.06132">
        <ele>1293</ele>
        <time>2021-06-27T10:57:33.071Z</time>
      </trkpt>
      <trkpt lat="45.56272" lon="6.06131">
        <ele>1293</ele>
        <time>2021-06-27T10:57:34.071Z</time>
      </trkpt>
      <trkpt lat="45.56273" lon="6.06131">
        <ele>1293</ele>
        <time>2021-06-27T10:57:35.070Z</time>
      </trkpt>
      <trkpt lat="45.56273" lon="6.0613">
        <ele>1293</ele>
        <time>2021-06-27T10:57:36.070Z</time>
      </trkpt>
      <trkpt lat="45.56273" lon="6.06129">
        <ele>1293</ele>
        <time>2021-06-27T10:57:37.071Z</time>
      </trkpt>
      <trkpt lat="45.56273" lon="6.06128">
        <ele>1293</ele>
        <time>2021-06-27T10:57:38.071Z</time>
      </trkpt>
      <trkpt lat="45.56273" lon="6.06127">
        <ele>1293</ele>
        <time>2021-06-27T10:57:39.070Z</time>
      </trkpt>
      <trkpt lat="45.56273" lon="6.06126">
        <ele>1293</ele>
        <time>2021-06-27T10:57:40.071Z</time>
      </trkpt>
      <trkpt lat="45.56273" lon="6.06126">
        <ele>1293</ele>
        <time>2021-06-27T10:57:41.071Z</time>
      </trkpt>
      <trkpt lat="45.56274" lon="6.06125">
        <ele>1293</ele>
        <time>2021-06-27T10:57:42.071Z</time>
      </trkpt>
      <trkpt lat="45.56274" lon="6.06125">
        <ele>1293</ele>
        <time>2021-06-27T10:57:43.071Z</time>
      </trkpt>
      <trkpt lat="45.56274" lon="6.06125">
        <ele>1293</ele>
        <time>2021-06-27T10:57:44.071Z</time>
      </trkpt>
      <trkpt lat="45.56275" lon="6.06125">
        <ele>1292</ele>
        <time>2021-06-27T10:57:45.071Z</time>
      </trkpt>
      <trkpt lat="45.56275" lon="6.06124">
        <ele>1293</ele>
        <time>2021-06-27T10:57:46.070Z</time>
      </trkpt>
      <trkpt lat="45.56275" lon="6.06124">
        <ele>1293</ele>
        <time>2021-06-27T10:57:47.071Z</time>
      </trkpt>
      <trkpt lat="45.56276" lon="6.06124">
        <ele>1293</ele>
        <time>2021-06-27T10:57:48.071Z</time>
      </trkpt>
      <trkpt lat="45.56277" lon="6.06124">
        <ele>1293</ele>
        <time>2021-06-27T10:57:49.071Z</time>
      </trkpt>
      <trkpt lat="45.56277" lon="6.06124">
        <ele>1292</ele>
        <time>2021-06-27T10:57:50.071Z</time>
      </trkpt>
      <trkpt lat="45.56278" lon="6.06124">
        <ele>1293</ele>
        <time>2021-06-27T10:57:51.070Z</time>
      </trkpt>
      <trkpt lat="45.56279" lon="6.06124">
        <ele>1293</ele>
        <time>2021-06-27T10:57:52.070Z</time>
      </trkpt>
      <trkpt lat="45.56279" lon="6.06124">
        <ele>1293</ele>
        <time>2021-06-27T10:57:53.071Z</time>
      </trkpt>
      <trkpt lat="45.5628" lon="6.06125">
        <ele>1294</ele>
        <time>2021-06-27T10:57:54.071Z</time>
      </trkpt>
      <trkpt lat="45.5628" lon="6.06126">
        <ele>1294</ele>
        <time>2021-06-27T10:57:55.071Z</time>
      </trkpt>
      <trkpt lat="45.56282" lon="6.06129">
        <ele>1294</ele>
        <time>2021-06-27T10:57:56.071Z</time>
      </trkpt>
      <trkpt lat="45.56283" lon="6.06131">
        <ele>1294</ele>
        <time>2021-06-27T10:57:57.070Z</time>
      </trkpt>
      <trkpt lat="45.56283" lon="6.06132">
        <ele>1295</ele>
        <time>2021-06-27T10:57:58.071Z</time>
      </trkpt>
      <trkpt lat="45.56284" lon="6.06134">
        <ele>1295</ele>
        <time>2021-06-27T10:57:59.070Z</time>
      </trkpt>
      <trkpt lat="45.56284" lon="6.06134">
        <ele>1295</ele>
        <time>2021-06-27T10:58:00.070Z</time>
      </trkpt>
      <trkpt lat="45.56284" lon="6.06135">
        <ele>1295</ele>
        <time>2021-06-27T10:58:01.070Z</time>
      </trkpt>
      <trkpt lat="45.56285" lon="6.06136">
        <ele>1295</ele>
        <time>2021-06-27T10:58:02.070Z</time>
      </trkpt>
      <trkpt lat="45.56285" lon="6.06136">
        <ele>1296</ele>
        <time>2021-06-27T10:58:03.070Z</time>
      </trkpt>
      <trkpt lat="45.56285" lon="6.06136">
        <ele>1296</ele>
        <time>2021-06-27T10:58:04.070Z</time>
      </trkpt>
      <trkpt lat="45.56285" lon="6.06137">
        <ele>1296</ele>
        <time>2021-06-27T10:58:05.070Z</time>
      </trkpt>
      <trkpt lat="45.56285" lon="6.06138">
        <ele>1297</ele>
        <time>2021-06-27T10:58:06.071Z</time>
      </trkpt>
      <trkpt lat="45.56285" lon="6.06139">
        <ele>1298</ele>
        <time>2021-06-27T10:58:07.071Z</time>
      </trkpt>
      <trkpt lat="45.56285" lon="6.0614">
        <ele>1298</ele>
        <time>2021-06-27T10:58:08.071Z</time>
      </trkpt>
      <trkpt lat="45.56286" lon="6.06141">
        <ele>1299</ele>
        <time>2021-06-27T10:58:09.071Z</time>
      </trkpt>
      <trkpt lat="45.56286" lon="6.06142">
        <ele>1299</ele>
        <time>2021-06-27T10:58:10.070Z</time>
      </trkpt>
      <trkpt lat="45.56286" lon="6.06144">
        <ele>1300</ele>
        <time>2021-06-27T10:58:11.071Z</time>
      </trkpt>
      <trkpt lat="45.56286" lon="6.06146">
        <ele>1300</ele>
        <time>2021-06-27T10:58:12.071Z</time>
      </trkpt>
      <trkpt lat="45.56286" lon="6.06146">
        <ele>1301</ele>
        <time>2021-06-27T10:58:13.071Z</time>
      </trkpt>
      <trkpt lat="45.56286" lon="6.06147">
        <ele>1302</ele>
        <time>2021-06-27T10:58:14.071Z</time>
      </trkpt>
      <trkpt lat="45.56286" lon="6.06147">
        <ele>1302</ele>
        <time>2021-06-27T10:58:15.071Z</time>
      </trkpt>
      <trkpt lat="45.56287" lon="6.06148">
        <ele>1303</ele>
        <time>2021-06-27T10:58:16.071Z</time>
      </trkpt>
      <trkpt lat="45.56287" lon="6.06148">
        <ele>1304</ele>
        <time>2021-06-27T10:58:17.071Z</time>
      </trkpt>
      <trkpt lat="45.56287" lon="6.06148">
        <ele>1305</ele>
        <time>2021-06-27T10:58:18.071Z</time>
      </trkpt>
      <trkpt lat="45.56287" lon="6.06147">
        <ele>1305</ele>
        <time>2021-06-27T10:58:19.071Z</time>
      </trkpt>
      <trkpt lat="45.56286" lon="6.06146">
        <ele>1305</ele>
        <time>2021-06-27T10:58:20.071Z</time>
      </trkpt>
      <trkpt lat="45.56287" lon="6.06146">
        <ele>1306</ele>
        <time>2021-06-27T10:58:21.070Z</time>
      </trkpt>
      <trkpt lat="45.56287" lon="6.06145">
        <ele>1306</ele>
        <time>2021-06-27T10:58:22.070Z</time>
      </trkpt>
      <trkpt lat="45.56287" lon="6.06145">
        <ele>1305</ele>
        <time>2021-06-27T10:58:23.071Z</time>
      </trkpt>
      <trkpt lat="45.56287" lon="6.06144">
        <ele>1305</ele>
        <time>2021-06-27T10:58:24.071Z</time>
      </trkpt>
      <trkpt lat="45.56288" lon="6.06143">
        <ele>1305</ele>
        <time>2021-06-27T10:58:25.070Z</time>
      </trkpt>
      <trkpt lat="45.56288" lon="6.06142">
        <ele>1305</ele>
        <time>2021-06-27T10:58:26.070Z</time>
      </trkpt>
      <trkpt lat="45.56288" lon="6.06141">
        <ele>1304</ele>
        <time>2021-06-27T10:58:27.071Z</time>
      </trkpt>
      <trkpt lat="45.56288" lon="6.0614">
        <ele>1304</ele>
        <time>2021-06-27T10:58:28.071Z</time>
      </trkpt>
      <trkpt lat="45.56288" lon="6.06138">
        <ele>1303</ele>
        <time>2021-06-27T10:58:29.070Z</time>
      </trkpt>
      <trkpt lat="45.56289" lon="6.06137">
        <ele>1303</ele>
        <time>2021-06-27T10:58:30.071Z</time>
      </trkpt>
      <trkpt lat="45.56289" lon="6.06136">
        <ele>1303</ele>
        <time>2021-06-27T10:58:31.071Z</time>
      </trkpt>
      <trkpt lat="45.56289" lon="6.06135">
        <ele>1303</ele>
        <time>2021-06-27T10:58:32.071Z</time>
      </trkpt>
      <trkpt lat="45.56289" lon="6.06135">
        <ele>1303</ele>
        <time>2021-06-27T10:58:33.071Z</time>
      </trkpt>
      <trkpt lat="45.56289" lon="6.06134">
        <ele>1303</ele>
        <time>2021-06-27T10:58:34.071Z</time>
      </trkpt>
      <trkpt lat="45.56289" lon="6.06134">
        <ele>1303</ele>
        <time>2021-06-27T10:58:35.071Z</time>
      </trkpt>
      <trkpt lat="45.56289" lon="6.06133">
        <ele>1303</ele>
        <time>2021-06-27T10:58:36.071Z</time>
      </trkpt>
      <trkpt lat="45.56289" lon="6.06132">
        <ele>1303</ele>
        <time>2021-06-27T10:58:37.071Z</time>
      </trkpt>
      <trkpt lat="45.56289" lon="6.06131">
        <ele>1304</ele>
        <time>2021-06-27T10:58:38.070Z</time>
      </trkpt>
      <trkpt lat="45.5629" lon="6.06131">
        <ele>1304</ele>
        <time>2021-06-27T10:58:39.070Z</time>
      </trkpt>
      <trkpt lat="45.56291" lon="6.06131">
        <ele>1304</ele>
        <time>2021-06-27T10:58:40.071Z</time>
      </trkpt>
      <trkpt lat="45.56292" lon="6.06131">
        <ele>1304</ele>
        <time>2021-06-27T10:58:41.071Z</time>
      </trkpt>
      <trkpt lat="45.56292" lon="6.06131">
        <ele>1303</ele>
        <time>2021-06-27T10:58:42.070Z</time>
      </trkpt>
      <trkpt lat="45.56293" lon="6.0613">
        <ele>1303</ele>
        <time>2021-06-27T10:58:43.071Z</time>
      </trkpt>
      <trkpt lat="45.56294" lon="6.0613">
        <ele>1302</ele>
        <time>2021-06-27T10:58:44.071Z</time>
      </trkpt>
      <trkpt lat="45.56294" lon="6.06129">
        <ele>1302</ele>
        <time>2021-06-27T10:58:45.071Z</time>
      </trkpt>
      <trkpt lat="45.56294" lon="6.06128">
        <ele>1302</ele>
        <time>2021-06-27T10:58:46.071Z</time>
      </trkpt>
      <trkpt lat="45.56293" lon="6.06126">
        <ele>1302</ele>
        <time>2021-06-27T10:58:47.071Z</time>
      </trkpt>
      <trkpt lat="45.56293" lon="6.06125">
        <ele>1302</ele>
        <time>2021-06-27T10:58:48.071Z</time>
      </trkpt>
      <trkpt lat="45.56293" lon="6.06124">
        <ele>1303</ele>
        <time>2021-06-27T10:58:49.071Z</time>
      </trkpt>
      <trkpt lat="45.56294" lon="6.06124">
        <ele>1302</ele>
        <time>2021-06-27T10:58:50.070Z</time>
      </trkpt>
      <trkpt lat="45.56294" lon="6.06124">
        <ele>1302</ele>
        <time>2021-06-27T10:58:51.071Z</time>
      </trkpt>
      <trkpt lat="45.56295" lon="6.06124">
        <ele>1303</ele>
        <time>2021-06-27T10:58:52.071Z</time>
      </trkpt>
      <trkpt lat="45.56296" lon="6.06123">
        <ele>1303</ele>
        <time>2021-06-27T10:58:53.071Z</time>
      </trkpt>
      <trkpt lat="45.56297" lon="6.06123">
        <ele>1303</ele>
        <time>2021-06-27T10:58:54.071Z</time>
      </trkpt>
      <trkpt lat="45.56298" lon="6.06123">
        <ele>1303</ele>
        <time>2021-06-27T10:58:55.071Z</time>
      </trkpt>
      <trkpt lat="45.56299" lon="6.06123">
        <ele>1303</ele>
        <time>2021-06-27T10:58:56.071Z</time>
      </trkpt>
      <trkpt lat="45.563" lon="6.06123">
        <ele>1303</ele>
        <time>2021-06-27T10:58:57.071Z</time>
      </trkpt>
      <trkpt lat="45.56301" lon="6.06123">
        <ele>1304</ele>
        <time>2021-06-27T10:58:58.071Z</time>
      </trkpt>
      <trkpt lat="45.56301" lon="6.06124">
        <ele>1305</ele>
        <time>2021-06-27T10:58:59.070Z</time>
      </trkpt>
      <trkpt lat="45.56302" lon="6.06124">
        <ele>1305</ele>
        <time>2021-06-27T10:59:00.071Z</time>
      </trkpt>
      <trkpt lat="45.56302" lon="6.06125">
        <ele>1306</ele>
        <time>2021-06-27T10:59:01.071Z</time>
      </trkpt>
      <trkpt lat="45.56302" lon="6.06125">
        <ele>1307</ele>
        <time>2021-06-27T10:59:02.071Z</time>
      </trkpt>
      <trkpt lat="45.56302" lon="6.06125">
        <ele>1308</ele>
        <time>2021-06-27T10:59:03.071Z</time>
      </trkpt>
      <trkpt lat="45.56302" lon="6.06125">
        <ele>1310</ele>
        <time>2021-06-27T10:59:04.071Z</time>
      </trkpt>
      <trkpt lat="45.56302" lon="6.06126">
        <ele>1312</ele>
        <time>2021-06-27T10:59:05.070Z</time>
      </trkpt>
      <trkpt lat="45.56302" lon="6.06126">
        <ele>1313</ele>
        <time>2021-06-27T10:59:06.071Z</time>
      </trkpt>
      <trkpt lat="45.56302" lon="6.06126">
        <ele>1314</ele>
        <time>2021-06-27T10:59:07.071Z</time>
      </trkpt>
      <trkpt lat="45.56302" lon="6.06127">
        <ele>1315</ele>
        <time>2021-06-27T10:59:08.071Z</time>
      </trkpt>
      <trkpt lat="45.56302" lon="6.06127">
        <ele>1316</ele>
        <time>2021-06-27T10:59:09.071Z</time>
      </trkpt>
      <trkpt lat="45.56303" lon="6.06127">
        <ele>1317</ele>
        <time>2021-06-27T10:59:10.070Z</time>
      </trkpt>
      <trkpt lat="45.56303" lon="6.06128">
        <ele>1318</ele>
        <time>2021-06-27T10:59:11.071Z</time>
      </trkpt>
      <trkpt lat="45.56303" lon="6.06128">
        <ele>1319</ele>
        <time>2021-06-27T10:59:12.071Z</time>
      </trkpt>
      <trkpt lat="45.56303" lon="6.06128">
        <ele>1320</ele>
        <time>2021-06-27T10:59:13.071Z</time>
      </trkpt>
      <trkpt lat="45.56303" lon="6.06128">
        <ele>1320</ele>
        <time>2021-06-27T10:59:14.071Z</time>
      </trkpt>
      <trkpt lat="45.56303" lon="6.06128">
        <ele>1321</ele>
        <time>2021-06-27T10:59:15.071Z</time>
      </trkpt>
      <trkpt lat="45.56303" lon="6.06128">
        <ele>1321</ele>
        <time>2021-06-27T10:59:16.071Z</time>
      </trkpt>
      <trkpt lat="45.56303" lon="6.06128">
        <ele>1322</ele>
        <time>2021-06-27T10:59:17.070Z</time>
      </trkpt>
      <trkpt lat="45.56303" lon="6.06129">
        <ele>1322</ele>
        <time>2021-06-27T10:59:18.071Z</time>
      </trkpt>
      <trkpt lat="45.56303" lon="6.06128">
        <ele>1322</ele>
        <time>2021-06-27T10:59:19.071Z</time>
      </trkpt>
      <trkpt lat="45.56303" lon="6.06128">
        <ele>1322</ele>
        <time>2021-06-27T10:59:20.071Z</time>
      </trkpt>
      <trkpt lat="45.56303" lon="6.06128">
        <ele>1322</ele>
        <time>2021-06-27T10:59:21.070Z</time>
      </trkpt>
      <trkpt lat="45.56303" lon="6.06128">
        <ele>1322</ele>
        <time>2021-06-27T10:59:22.071Z</time>
      </trkpt>
      <trkpt lat="45.56303" lon="6.06128">
        <ele>1323</ele>
        <time>2021-06-27T10:59:23.071Z</time>
      </trkpt>
      <trkpt lat="45.56303" lon="6.06128">
        <ele>1323</ele>
        <time>2021-06-27T10:59:24.071Z</time>
      </trkpt>
      <trkpt lat="45.56303" lon="6.06128">
        <ele>1324</ele>
        <time>2021-06-27T10:59:25.071Z</time>
      </trkpt>
      <trkpt lat="45.56303" lon="6.06129">
        <ele>1325</ele>
        <time>2021-06-27T10:59:26.071Z</time>
      </trkpt>
      <trkpt lat="45.56303" lon="6.06129">
        <ele>1326</ele>
        <time>2021-06-27T10:59:27.070Z</time>
      </trkpt>
      <trkpt lat="45.56303" lon="6.06129">
        <ele>1328</ele>
        <time>2021-06-27T10:59:28.071Z</time>
      </trkpt>
      <trkpt lat="45.56303" lon="6.06129">
        <ele>1330</ele>
        <time>2021-06-27T10:59:29.070Z</time>
      </trkpt>
      <trkpt lat="45.56302" lon="6.06129">
        <ele>1332</ele>
        <time>2021-06-27T10:59:30.071Z</time>
      </trkpt>
      <trkpt lat="45.56302" lon="6.06129">
        <ele>1334</ele>
        <time>2021-06-27T10:59:31.071Z</time>
      </trkpt>
      <trkpt lat="45.56303" lon="6.06129">
        <ele>1336</ele>
        <time>2021-06-27T10:59:32.071Z</time>
      </trkpt>
      <trkpt lat="45.56302" lon="6.0613">
        <ele>1338</ele>
        <time>2021-06-27T10:59:33.071Z</time>
      </trkpt>
      <trkpt lat="45.56302" lon="6.0613">
        <ele>1340</ele>
        <time>2021-06-27T10:59:34.071Z</time>
      </trkpt>
      <trkpt lat="45.56302" lon="6.0613">
        <ele>1342</ele>
        <time>2021-06-27T10:59:35.071Z</time>
      </trkpt>
      <trkpt lat="45.56302" lon="6.0613">
        <ele>1344</ele>
        <time>2021-06-27T10:59:36.071Z</time>
      </trkpt>
      <trkpt lat="45.56302" lon="6.0613">
        <ele>1344</ele>
        <time>2021-06-27T10:59:37.071Z</time>
      </trkpt>
      <trkpt lat="45.56302" lon="6.0613">
        <ele>1345</ele>
        <time>2021-06-27T10:59:38.071Z</time>
      </trkpt>
      <trkpt lat="45.56302" lon="6.0613">
        <ele>1345</ele>
        <time>2021-06-27T10:59:39.071Z</time>
      </trkpt>
      <trkpt lat="45.56302" lon="6.06129">
        <ele>1345</ele>
        <time>2021-06-27T10:59:40.071Z</time>
      </trkpt>
      <trkpt lat="45.56301" lon="6.06129">
        <ele>1344</ele>
        <time>2021-06-27T10:59:41.071Z</time>
      </trkpt>
      <trkpt lat="45.56301" lon="6.06129">
        <ele>1343</ele>
        <time>2021-06-27T10:59:42.071Z</time>
      </trkpt>
      <trkpt lat="45.56302" lon="6.06129">
        <ele>1343</ele>
        <time>2021-06-27T10:59:43.071Z</time>
      </trkpt>
      <trkpt lat="45.56302" lon="6.06129">
        <ele>1342</ele>
        <time>2021-06-27T10:59:44.071Z</time>
      </trkpt>
      <trkpt lat="45.56302" lon="6.06129">
        <ele>1341</ele>
        <time>2021-06-27T10:59:45.071Z</time>
      </trkpt>
      <trkpt lat="45.56301" lon="6.06128">
        <ele>1340</ele>
        <time>2021-06-27T10:59:46.071Z</time>
      </trkpt>
      <trkpt lat="45.56301" lon="6.06129">
        <ele>1339</ele>
        <time>2021-06-27T10:59:47.071Z</time>
      </trkpt>
      <trkpt lat="45.563" lon="6.06129">
        <ele>1338</ele>
        <time>2021-06-27T10:59:48.070Z</time>
      </trkpt>
      <trkpt lat="45.563" lon="6.06129">
        <ele>1337</ele>
        <time>2021-06-27T10:59:49.071Z</time>
      </trkpt>
      <trkpt lat="45.56301" lon="6.06129">
        <ele>1336</ele>
        <time>2021-06-27T10:59:50.071Z</time>
      </trkpt>
      <trkpt lat="45.56301" lon="6.06128">
        <ele>1334</ele>
        <time>2021-06-27T10:59:51.071Z</time>
      </trkpt>
      <trkpt lat="45.56301" lon="6.06128">
        <ele>1333</ele>
        <time>2021-06-27T10:59:52.071Z</time>
      </trkpt>
      <trkpt lat="45.56301" lon="6.06128">
        <ele>1331</ele>
        <time>2021-06-27T10:59:53.070Z</time>
      </trkpt>
      <trkpt lat="45.563" lon="6.06128">
        <ele>1329</ele>
        <time>2021-06-27T10:59:54.070Z</time>
      </trkpt>
      <trkpt lat="45.563" lon="6.06128">
        <ele>1327</ele>
        <time>2021-06-27T10:59:55.071Z</time>
      </trkpt>
      <trkpt lat="45.563" lon="6.06128">
        <ele>1325</ele>
        <time>2021-06-27T10:59:56.071Z</time>
      </trkpt>
      <trkpt lat="45.563" lon="6.06128">
        <ele>1323</ele>
        <time>2021-06-27T10:59:57.071Z</time>
      </trkpt>
      <trkpt lat="45.563" lon="6.06128">
        <ele>1322</ele>
        <time>2021-06-27T10:59:58.071Z</time>
      </trkpt>
      <trkpt lat="45.563" lon="6.06128">
        <ele>1320</ele>
        <time>2021-06-27T10:59:59.071Z</time>
      </trkpt>
      <trkpt lat="45.563" lon="6.06128">
        <ele>1319</ele>
        <time>2021-06-27T11:00:00.070Z</time>
      </trkpt>
      <trkpt lat="45.56299" lon="6.06128">
        <ele>1319</ele>
        <time>2021-06-27T11:00:01.071Z</time>
      </trkpt>
      <trkpt lat="45.56299" lon="6.06128">
        <ele>1318</ele>
        <time>2021-06-27T11:00:02.070Z</time>
      </trkpt>
      <trkpt lat="45.56299" lon="6.06128">
        <ele>1318</ele>
        <time>2021-06-27T11:00:03.071Z</time>
      </trkpt>
      <trkpt lat="45.56299" lon="6.06128">
        <ele>1317</ele>
        <time>2021-06-27T11:00:04.070Z</time>
      </trkpt>
      <trkpt lat="45.56299" lon="6.06128">
        <ele>1316</ele>
        <time>2021-06-27T11:00:05.071Z</time>
      </trkpt>
      <trkpt lat="45.56299" lon="6.06128">
        <ele>1315</ele>
        <time>2021-06-27T11:00:06.071Z</time>
      </trkpt>
      <trkpt lat="45.56299" lon="6.06128">
        <ele>1314</ele>
        <time>2021-06-27T11:00:07.071Z</time>
      </trkpt>
      <trkpt lat="45.56299" lon="6.06128">
        <ele>1313</ele>
        <time>2021-06-27T11:00:08.071Z</time>
      </trkpt>
      <trkpt lat="45.56299" lon="6.06128">
        <ele>1312</ele>
        <time>2021-06-27T11:00:09.071Z</time>
      </trkpt>
      <trkpt lat="45.56298" lon="6.06128">
        <ele>1312</ele>
        <time>2021-06-27T11:00:10.071Z</time>
      </trkpt>
      <trkpt lat="45.56298" lon="6.06128">
        <ele>1312</ele>
        <time>2021-06-27T11:00:11.071Z</time>
      </trkpt>
      <trkpt lat="45.56298" lon="6.06128">
        <ele>1311</ele>
        <time>2021-06-27T11:00:12.071Z</time>
      </trkpt>
      <trkpt lat="45.56298" lon="6.06128">
        <ele>1312</ele>
        <time>2021-06-27T11:00:13.071Z</time>
      </trkpt>
      <trkpt lat="45.56298" lon="6.06128">
        <ele>1312</ele>
        <time>2021-06-27T11:00:14.071Z</time>
      </trkpt>
      <trkpt lat="45.56298" lon="6.06129">
        <ele>1313</ele>
        <time>2021-06-27T11:00:15.070Z</time>
      </trkpt>
      <trkpt lat="45.56298" lon="6.06129">
        <ele>1313</ele>
        <time>2021-06-27T11:00:16.071Z</time>
      </trkpt>
      <trkpt lat="45.56298" lon="6.06129">
        <ele>1314</ele>
        <time>2021-06-27T11:00:17.070Z</time>
      </trkpt>
      <trkpt lat="45.56298" lon="6.0613">
        <ele>1314</ele>
        <time>2021-06-27T11:00:18.071Z</time>
      </trkpt>
      <trkpt lat="45.56298" lon="6.06129">
        <ele>1314</ele>
        <time>2021-06-27T11:00:19.070Z</time>
      </trkpt>
      <trkpt lat="45.56298" lon="6.06129">
        <ele>1314</ele>
        <time>2021-06-27T11:00:20.071Z</time>
      </trkpt>
      <trkpt lat="45.56298" lon="6.06129">
        <ele>1314</ele>
        <time>2021-06-27T11:00:21.071Z</time>
      </trkpt>
      <trkpt lat="45.56299" lon="6.06129">
        <ele>1314</ele>
        <time>2021-06-27T11:00:22.071Z</time>
      </trkpt>
      <trkpt lat="45.56299" lon="6.06129">
        <ele>1314</ele>
        <time>2021-06-27T11:00:23.071Z</time>
      </trkpt>
      <trkpt lat="45.56299" lon="6.06129">
        <ele>1313</ele>
        <time>2021-06-27T11:00:24.071Z</time>
      </trkpt>
      <trkpt lat="45.56299" lon="6.06129">
        <ele>1313</ele>
        <time>2021-06-27T11:00:25.071Z</time>
      </trkpt>
      <trkpt lat="45.56299" lon="6.0613">
        <ele>1312</ele>
        <time>2021-06-27T11:00:26.071Z</time>
      </trkpt>
      <trkpt lat="45.56299" lon="6.0613">
        <ele>1311</ele>
        <time>2021-06-27T11:00:27.071Z</time>
      </trkpt>
      <trkpt lat="45.56299" lon="6.0613">
        <ele>1311</ele>
        <time>2021-06-27T11:00:28.070Z</time>
      </trkpt>
      <trkpt lat="45.56299" lon="6.06129">
        <ele>1310</ele>
        <time>2021-06-27T11:00:29.070Z</time>
      </trkpt>
      <trkpt lat="45.56299" lon="6.0613">
        <ele>1308</ele>
        <time>2021-06-27T11:00:30.071Z</time>
      </trkpt>
      <trkpt lat="45.56299" lon="6.06129">
        <ele>1307</ele>
        <time>2021-06-27T11:00:31.070Z</time>
      </trkpt>
      <trkpt lat="45.563" lon="6.06129">
        <ele>1306</ele>
        <time>2021-06-27T11:00:32.071Z</time>
      </trkpt>
      <trkpt lat="45.563" lon="6.0613">
        <ele>1306</ele>
        <time>2021-06-27T11:00:33.071Z</time>
      </trkpt>
      <trkpt lat="45.563" lon="6.06129">
        <ele>1305</ele>
        <time>2021-06-27T11:00:34.071Z</time>
      </trkpt>
      <trkpt lat="45.56299" lon="6.06129">
        <ele>1304</ele>
        <time>2021-06-27T11:00:35.071Z</time>
      </trkpt>
      <trkpt lat="45.56299" lon="6.06129">
        <ele>1302</ele>
        <time>2021-06-27T11:00:36.071Z</time>
      </trkpt>
      <trkpt lat="45.56299" lon="6.06129">
        <ele>1301</ele>
        <time>2021-06-27T11:00:37.071Z</time>
      </trkpt>
      <trkpt lat="45.56299" lon="6.06129">
        <ele>1300</ele>
        <time>2021-06-27T11:00:38.071Z</time>
      </trkpt>
      <trkpt lat="45.56299" lon="6.06129">
        <ele>1298</ele>
        <time>2021-06-27T11:00:39.071Z</time>
      </trkpt>
      <trkpt lat="45.56299" lon="6.0613">
        <ele>1298</ele>
        <time>2021-06-27T11:00:40.071Z</time>
      </trkpt>
      <trkpt lat="45.56299" lon="6.0613">
        <ele>1297</ele>
        <time>2021-06-27T11:00:41.071Z</time>
      </trkpt>
      <trkpt lat="45.563" lon="6.0613">
        <ele>1297</ele>
        <time>2021-06-27T11:00:42.071Z</time>
      </trkpt>
      <trkpt lat="45.563" lon="6.06131">
        <ele>1296</ele>
        <time>2021-06-27T11:00:43.071Z</time>
      </trkpt>
      <trkpt lat="45.563" lon="6.06131">
        <ele>1296</ele>
        <time>2021-06-27T11:00:44.071Z</time>
      </trkpt>
      <trkpt lat="45.563" lon="6.06131">
        <ele>1296</ele>
        <time>2021-06-27T11:00:45.071Z</time>
      </trkpt>
      <trkpt lat="45.563" lon="6.06131">
        <ele>1295</ele>
        <time>2021-06-27T11:00:46.071Z</time>
      </trkpt>
      <trkpt lat="45.563" lon="6.06131">
        <ele>1295</ele>
        <time>2021-06-27T11:00:47.071Z</time>
      </trkpt>
      <trkpt lat="45.563" lon="6.06131">
        <ele>1295</ele>
        <time>2021-06-27T11:00:48.071Z</time>
      </trkpt>
      <trkpt lat="45.56301" lon="6.06131">
        <ele>1295</ele>
        <time>2021-06-27T11:00:49.071Z</time>
      </trkpt>
      <trkpt lat="45.56301" lon="6.06131">
        <ele>1295</ele>
        <time>2021-06-27T11:00:50.071Z</time>
      </trkpt>
      <trkpt lat="45.56301" lon="6.06131">
        <ele>1295</ele>
        <time>2021-06-27T11:00:51.070Z</time>
      </trkpt>
      <trkpt lat="45.56301" lon="6.06131">
        <ele>1296</ele>
        <time>2021-06-27T11:00:52.071Z</time>
      </trkpt>
      <trkpt lat="45.56302" lon="6.06131">
        <ele>1297</ele>
        <time>2021-06-27T11:00:53.071Z</time>
      </trkpt>
      <trkpt lat="45.56302" lon="6.06131">
        <ele>1298</ele>
        <time>2021-06-27T11:00:54.071Z</time>
      </trkpt>
      <trkpt lat="45.56302" lon="6.06131">
        <ele>1299</ele>
        <time>2021-06-27T11:00:55.071Z</time>
      </trkpt>
      <trkpt lat="45.56302" lon="6.06131">
        <ele>1300</ele>
        <time>2021-06-27T11:00:56.071Z</time>
      </trkpt>
      <trkpt lat="45.56302" lon="6.06132">
        <ele>1301</ele>
        <time>2021-06-27T11:00:57.071Z</time>
      </trkpt>
      <trkpt lat="45.56303" lon="6.06132">
        <ele>1302</ele>
        <time>2021-06-27T11:00:58.071Z</time>
      </trkpt>
      <trkpt lat="45.56303" lon="6.06133">
        <ele>1303</ele>
        <time>2021-06-27T11:00:59.071Z</time>
      </trkpt>
      <trkpt lat="45.56303" lon="6.06134">
        <ele>1305</ele>
        <time>2021-06-27T11:01:00.071Z</time>
      </trkpt>
      <trkpt lat="45.56303" lon="6.06135">
        <ele>1306</ele>
        <time>2021-06-27T11:01:01.070Z</time>
      </trkpt>
      <trkpt lat="45.56303" lon="6.06136">
        <ele>1307</ele>
        <time>2021-06-27T11:01:02.070Z</time>
      </trkpt>
      <trkpt lat="45.56303" lon="6.06137">
        <ele>1308</ele>
        <time>2021-06-27T11:01:03.070Z</time>
      </trkpt>
      <trkpt lat="45.56303" lon="6.06137">
        <ele>1309</ele>
        <time>2021-06-27T11:01:04.070Z</time>
      </trkpt>
      <trkpt lat="45.56303" lon="6.06137">
        <ele>1309</ele>
        <time>2021-06-27T11:01:05.070Z</time>
      </trkpt>
      <trkpt lat="45.56303" lon="6.06138">
        <ele>1310</ele>
        <time>2021-06-27T11:01:06.070Z</time>
      </trkpt>
      <trkpt lat="45.56304" lon="6.06138">
        <ele>1310</ele>
        <time>2021-06-27T11:01:07.071Z</time>
      </trkpt>
      <trkpt lat="45.56305" lon="6.06139">
        <ele>1311</ele>
        <time>2021-06-27T11:01:08.071Z</time>
      </trkpt>
      <trkpt lat="45.56306" lon="6.0614">
        <ele>1311</ele>
        <time>2021-06-27T11:01:09.070Z</time>
      </trkpt>
      <trkpt lat="45.56306" lon="6.0614">
        <ele>1311</ele>
        <time>2021-06-27T11:01:10.071Z</time>
      </trkpt>
      <trkpt lat="45.56307" lon="6.06141">
        <ele>1311</ele>
        <time>2021-06-27T11:01:11.071Z</time>
      </trkpt>
      <trkpt lat="45.56306" lon="6.06141">
        <ele>1311</ele>
        <time>2021-06-27T11:01:12.070Z</time>
      </trkpt>
      <trkpt lat="45.56306" lon="6.06142">
        <ele>1311</ele>
        <time>2021-06-27T11:01:13.071Z</time>
      </trkpt>
      <trkpt lat="45.56306" lon="6.06143">
        <ele>1312</ele>
        <time>2021-06-27T11:01:14.071Z</time>
      </trkpt>
      <trkpt lat="45.56307" lon="6.06143">
        <ele>1312</ele>
        <time>2021-06-27T11:01:15.071Z</time>
      </trkpt>
      <trkpt lat="45.56307" lon="6.06143">
        <ele>1312</ele>
        <time>2021-06-27T11:01:16.071Z</time>
      </trkpt>
      <trkpt lat="45.56307" lon="6.06144">
        <ele>1312</ele>
        <time>2021-06-27T11:01:17.071Z</time>
      </trkpt>
      <trkpt lat="45.56307" lon="6.06144">
        <ele>1312</ele>
        <time>2021-06-27T11:01:18.070Z</time>
      </trkpt>
      <trkpt lat="45.56308" lon="6.06145">
        <ele>1312</ele>
        <time>2021-06-27T11:01:19.071Z</time>
      </trkpt>
      <trkpt lat="45.56308" lon="6.06146">
        <ele>1312</ele>
        <time>2021-06-27T11:01:20.071Z</time>
      </trkpt>
      <trkpt lat="45.56308" lon="6.06147">
        <ele>1313</ele>
        <time>2021-06-27T11:01:21.070Z</time>
      </trkpt>
      <trkpt lat="45.56308" lon="6.06148">
        <ele>1313</ele>
        <time>2021-06-27T11:01:22.071Z</time>
      </trkpt>
      <trkpt lat="45.56309" lon="6.06148">
        <ele>1313</ele>
        <time>2021-06-27T11:01:23.071Z</time>
      </trkpt>
      <trkpt lat="45.56309" lon="6.06149">
        <ele>1314</ele>
        <time>2021-06-27T11:01:24.071Z</time>
      </trkpt>
      <trkpt lat="45.5631" lon="6.0615">
        <ele>1315</ele>
        <time>2021-06-27T11:01:25.071Z</time>
      </trkpt>
      <trkpt lat="45.5631" lon="6.0615">
        <ele>1315</ele>
        <time>2021-06-27T11:01:26.070Z</time>
      </trkpt>
      <trkpt lat="45.5631" lon="6.06151">
        <ele>1315</ele>
        <time>2021-06-27T11:01:27.070Z</time>
      </trkpt>
      <trkpt lat="45.56311" lon="6.06152">
        <ele>1315</ele>
        <time>2021-06-27T11:01:28.071Z</time>
      </trkpt>
      <trkpt lat="45.56311" lon="6.06153">
        <ele>1316</ele>
        <time>2021-06-27T11:01:29.071Z</time>
      </trkpt>
      <trkpt lat="45.56312" lon="6.06154">
        <ele>1316</ele>
        <time>2021-06-27T11:01:30.071Z</time>
      </trkpt>
      <trkpt lat="45.56312" lon="6.06155">
        <ele>1316</ele>
        <time>2021-06-27T11:01:31.071Z</time>
      </trkpt>
      <trkpt lat="45.56312" lon="6.06156">
        <ele>1317</ele>
        <time>2021-06-27T11:01:32.070Z</time>
      </trkpt>
      <trkpt lat="45.56313" lon="6.06157">
        <ele>1317</ele>
        <time>2021-06-27T11:01:33.071Z</time>
      </trkpt>
      <trkpt lat="45.56313" lon="6.06158">
        <ele>1317</ele>
        <time>2021-06-27T11:01:34.071Z</time>
      </trkpt>
      <trkpt lat="45.56313" lon="6.06159">
        <ele>1317</ele>
        <time>2021-06-27T11:01:35.071Z</time>
      </trkpt>
      <trkpt lat="45.56312" lon="6.0616">
        <ele>1317</ele>
        <time>2021-06-27T11:01:36.071Z</time>
      </trkpt>
      <trkpt lat="45.56312" lon="6.06161">
        <ele>1317</ele>
        <time>2021-06-27T11:01:37.071Z</time>
      </trkpt>
      <trkpt lat="45.56312" lon="6.06161">
        <ele>1317</ele>
        <time>2021-06-27T11:01:38.071Z</time>
      </trkpt>
      <trkpt lat="45.56311" lon="6.06162">
        <ele>1318</ele>
        <time>2021-06-27T11:01:39.071Z</time>
      </trkpt>
      <trkpt lat="45.56311" lon="6.06162">
        <ele>1318</ele>
        <time>2021-06-27T11:01:40.070Z</time>
      </trkpt>
      <trkpt lat="45.5631" lon="6.06162">
        <ele>1318</ele>
        <time>2021-06-27T11:01:41.071Z</time>
      </trkpt>
      <trkpt lat="45.56309" lon="6.06163">
        <ele>1319</ele>
        <time>2021-06-27T11:01:42.071Z</time>
      </trkpt>
      <trkpt lat="45.56308" lon="6.06164">
        <ele>1319</ele>
        <time>2021-06-27T11:01:43.071Z</time>
      </trkpt>
      <trkpt lat="45.56307" lon="6.06165">
        <ele>1320</ele>
        <time>2021-06-27T11:01:44.071Z</time>
      </trkpt>
      <trkpt lat="45.56307" lon="6.06167">
        <ele>1320</ele>
        <time>2021-06-27T11:01:45.071Z</time>
      </trkpt>
      <trkpt lat="45.56306" lon="6.06169">
        <ele>1320</ele>
        <time>2021-06-27T11:01:46.071Z</time>
      </trkpt>
      <trkpt lat="45.56306" lon="6.0617">
        <ele>1320</ele>
        <time>2021-06-27T11:01:47.071Z</time>
      </trkpt>
      <trkpt lat="45.56306" lon="6.06172">
        <ele>1320</ele>
        <time>2021-06-27T11:01:48.071Z</time>
      </trkpt>
      <trkpt lat="45.56305" lon="6.06173">
        <ele>1320</ele>
        <time>2021-06-27T11:01:49.071Z</time>
      </trkpt>
      <trkpt lat="45.56305" lon="6.06174">
        <ele>1320</ele>
        <time>2021-06-27T11:01:50.071Z</time>
      </trkpt>
      <trkpt lat="45.56305" lon="6.06175">
        <ele>1320</ele>
        <time>2021-06-27T11:01:51.070Z</time>
      </trkpt>
      <trkpt lat="45.56305" lon="6.06176">
        <ele>1320</ele>
        <time>2021-06-27T11:01:52.071Z</time>
      </trkpt>
      <trkpt lat="45.56305" lon="6.06177">
        <ele>1320</ele>
        <time>2021-06-27T11:01:53.070Z</time>
      </trkpt>
      <trkpt lat="45.56303" lon="6.06178">
        <ele>1320</ele>
        <time>2021-06-27T11:01:54.070Z</time>
      </trkpt>
      <trkpt lat="45.56302" lon="6.06178">
        <ele>1320</ele>
        <time>2021-06-27T11:01:55.071Z</time>
      </trkpt>
      <trkpt lat="45.56302" lon="6.06179">
        <ele>1320</ele>
        <time>2021-06-27T11:01:56.071Z</time>
      </trkpt>
      <trkpt lat="45.56301" lon="6.0618">
        <ele>1320</ele>
        <time>2021-06-27T11:01:57.071Z</time>
      </trkpt>
      <trkpt lat="45.56301" lon="6.06181">
        <ele>1320</ele>
        <time>2021-06-27T11:01:58.071Z</time>
      </trkpt>
      <trkpt lat="45.56301" lon="6.06182">
        <ele>1320</ele>
        <time>2021-06-27T11:01:59.071Z</time>
      </trkpt>
      <trkpt lat="45.563" lon="6.06182">
        <ele>1320</ele>
        <time>2021-06-27T11:02:00.071Z</time>
      </trkpt>
      <trkpt lat="45.563" lon="6.06183">
        <ele>1320</ele>
        <time>2021-06-27T11:02:01.070Z</time>
      </trkpt>
      <trkpt lat="45.56299" lon="6.06183">
        <ele>1320</ele>
        <time>2021-06-27T11:02:02.071Z</time>
      </trkpt>
      <trkpt lat="45.56299" lon="6.06183">
        <ele>1319</ele>
        <time>2021-06-27T11:02:03.071Z</time>
      </trkpt>
      <trkpt lat="45.56298" lon="6.06184">
        <ele>1319</ele>
        <time>2021-06-27T11:02:04.071Z</time>
      </trkpt>
      <trkpt lat="45.56298" lon="6.06185">
        <ele>1319</ele>
        <time>2021-06-27T11:02:05.071Z</time>
      </trkpt>
      <trkpt lat="45.56297" lon="6.06185">
        <ele>1318</ele>
        <time>2021-06-27T11:02:06.070Z</time>
      </trkpt>
      <trkpt lat="45.56297" lon="6.06186">
        <ele>1318</ele>
        <time>2021-06-27T11:02:07.071Z</time>
      </trkpt>
      <trkpt lat="45.56297" lon="6.06187">
        <ele>1318</ele>
        <time>2021-06-27T11:02:08.071Z</time>
      </trkpt>
      <trkpt lat="45.56296" lon="6.06188">
        <ele>1318</ele>
        <time>2021-06-27T11:02:09.071Z</time>
      </trkpt>
      <trkpt lat="45.56296" lon="6.06188">
        <ele>1318</ele>
        <time>2021-06-27T11:02:10.071Z</time>
      </trkpt>
      <trkpt lat="45.56295" lon="6.06189">
        <ele>1318</ele>
        <time>2021-06-27T11:02:11.071Z</time>
      </trkpt>
      <trkpt lat="45.56295" lon="6.0619">
        <ele>1318</ele>
        <time>2021-06-27T11:02:12.071Z</time>
      </trkpt>
      <trkpt lat="45.56296" lon="6.06191">
        <ele>1318</ele>
        <time>2021-06-27T11:02:13.071Z</time>
      </trkpt>
      <trkpt lat="45.56296" lon="6.06192">
        <ele>1318</ele>
        <time>2021-06-27T11:02:14.071Z</time>
      </trkpt>
      <trkpt lat="45.56296" lon="6.06193">
        <ele>1318</ele>
        <time>2021-06-27T11:02:15.071Z</time>
      </trkpt>
      <trkpt lat="45.56295" lon="6.06194">
        <ele>1317</ele>
        <time>2021-06-27T11:02:16.071Z</time>
      </trkpt>
      <trkpt lat="45.56295" lon="6.06194">
        <ele>1317</ele>
        <time>2021-06-27T11:02:17.071Z</time>
      </trkpt>
      <trkpt lat="45.56295" lon="6.06194">
        <ele>1317</ele>
        <time>2021-06-27T11:02:18.071Z</time>
      </trkpt>
      <trkpt lat="45.56295" lon="6.06194">
        <ele>1317</ele>
        <time>2021-06-27T11:02:19.071Z</time>
      </trkpt>
      <trkpt lat="45.56295" lon="6.06193">
        <ele>1316</ele>
        <time>2021-06-27T11:02:20.071Z</time>
      </trkpt>
      <trkpt lat="45.56295" lon="6.06192">
        <ele>1316</ele>
        <time>2021-06-27T11:02:21.070Z</time>
      </trkpt>
      <trkpt lat="45.56295" lon="6.06191">
        <ele>1316</ele>
        <time>2021-06-27T11:02:22.071Z</time>
      </trkpt>
      <trkpt lat="45.56296" lon="6.06191">
        <ele>1316</ele>
        <time>2021-06-27T11:02:23.071Z</time>
      </trkpt>
      <trkpt lat="45.56296" lon="6.06191">
        <ele>1316</ele>
        <time>2021-06-27T11:02:24.071Z</time>
      </trkpt>
      <trkpt lat="45.56297" lon="6.0619">
        <ele>1316</ele>
        <time>2021-06-27T11:02:25.071Z</time>
      </trkpt>
      <trkpt lat="45.56298" lon="6.06189">
        <ele>1317</ele>
        <time>2021-06-27T11:02:26.071Z</time>
      </trkpt>
      <trkpt lat="45.56299" lon="6.06188">
        <ele>1317</ele>
        <time>2021-06-27T11:02:27.071Z</time>
      </trkpt>
      <trkpt lat="45.563" lon="6.06188">
        <ele>1317</ele>
        <time>2021-06-27T11:02:28.071Z</time>
      </trkpt>
      <trkpt lat="45.563" lon="6.06187">
        <ele>1317</ele>
        <time>2021-06-27T11:02:29.071Z</time>
      </trkpt>
      <trkpt lat="45.56301" lon="6.06186">
        <ele>1317</ele>
        <time>2021-06-27T11:02:30.070Z</time>
      </trkpt>
      <trkpt lat="45.56301" lon="6.06186">
        <ele>1317</ele>
        <time>2021-06-27T11:02:31.071Z</time>
      </trkpt>
      <trkpt lat="45.56302" lon="6.06185">
        <ele>1318</ele>
        <time>2021-06-27T11:02:32.071Z</time>
      </trkpt>
      <trkpt lat="45.56302" lon="6.06184">
        <ele>1318</ele>
        <time>2021-06-27T11:02:33.070Z</time>
      </trkpt>
      <trkpt lat="45.56304" lon="6.06185">
        <ele>1319</ele>
        <time>2021-06-27T11:02:34.071Z</time>
      </trkpt>
      <trkpt lat="45.56304" lon="6.06185">
        <ele>1319</ele>
        <time>2021-06-27T11:02:35.070Z</time>
      </trkpt>
      <trkpt lat="45.56305" lon="6.06185">
        <ele>1320</ele>
        <time>2021-06-27T11:02:36.070Z</time>
      </trkpt>
      <trkpt lat="45.56305" lon="6.06185">
        <ele>1321</ele>
        <time>2021-06-27T11:02:37.071Z</time>
      </trkpt>
      <trkpt lat="45.56306" lon="6.06185">
        <ele>1321</ele>
        <time>2021-06-27T11:02:38.071Z</time>
      </trkpt>
      <trkpt lat="45.56306" lon="6.06185">
        <ele>1322</ele>
        <time>2021-06-27T11:02:39.071Z</time>
      </trkpt>
      <trkpt lat="45.56307" lon="6.06186">
        <ele>1322</ele>
        <time>2021-06-27T11:02:40.071Z</time>
      </trkpt>
      <trkpt lat="45.56308" lon="6.06186">
        <ele>1323</ele>
        <time>2021-06-27T11:02:41.071Z</time>
      </trkpt>
      <trkpt lat="45.56308" lon="6.06186">
        <ele>1323</ele>
        <time>2021-06-27T11:02:42.071Z</time>
      </trkpt>
      <trkpt lat="45.56308" lon="6.06186">
        <ele>1323</ele>
        <time>2021-06-27T11:02:43.071Z</time>
      </trkpt>
      <trkpt lat="45.56308" lon="6.06186">
        <ele>1324</ele>
        <time>2021-06-27T11:02:44.071Z</time>
      </trkpt>
      <trkpt lat="45.56309" lon="6.06185">
        <ele>1324</ele>
        <time>2021-06-27T11:02:45.071Z</time>
      </trkpt>
      <trkpt lat="45.5631" lon="6.06185">
        <ele>1324</ele>
        <time>2021-06-27T11:02:46.071Z</time>
      </trkpt>
      <trkpt lat="45.5631" lon="6.06184">
        <ele>1324</ele>
        <time>2021-06-27T11:02:47.071Z</time>
      </trkpt>
      <trkpt lat="45.56311" lon="6.06184">
        <ele>1325</ele>
        <time>2021-06-27T11:02:48.071Z</time>
      </trkpt>
      <trkpt lat="45.56311" lon="6.06184">
        <ele>1325</ele>
        <time>2021-06-27T11:02:49.071Z</time>
      </trkpt>
      <trkpt lat="45.56312" lon="6.06183">
        <ele>1326</ele>
        <time>2021-06-27T11:02:50.071Z</time>
      </trkpt>
      <trkpt lat="45.56313" lon="6.06183">
        <ele>1326</ele>
        <time>2021-06-27T11:02:51.071Z</time>
      </trkpt>
      <trkpt lat="45.56313" lon="6.06183">
        <ele>1326</ele>
        <time>2021-06-27T11:02:52.070Z</time>
      </trkpt>
      <trkpt lat="45.56314" lon="6.06182">
        <ele>1327</ele>
        <time>2021-06-27T11:02:53.071Z</time>
      </trkpt>
      <trkpt lat="45.56315" lon="6.06182">
        <ele>1327</ele>
        <time>2021-06-27T11:02:54.071Z</time>
      </trkpt>
      <trkpt lat="45.56316" lon="6.06182">
        <ele>1328</ele>
        <time>2021-06-27T11:02:55.071Z</time>
      </trkpt>
      <trkpt lat="45.56316" lon="6.06182">
        <ele>1328</ele>
        <time>2021-06-27T11:02:56.070Z</time>
      </trkpt>
      <trkpt lat="45.56317" lon="6.06182">
        <ele>1329</ele>
        <time>2021-06-27T11:02:57.071Z</time>
      </trkpt>
      <trkpt lat="45.56317" lon="6.06182">
        <ele>1329</ele>
        <time>2021-06-27T11:02:58.070Z</time>
      </trkpt>
      <trkpt lat="45.56318" lon="6.06182">
        <ele>1329</ele>
        <time>2021-06-27T11:02:59.071Z</time>
      </trkpt>
      <trkpt lat="45.56319" lon="6.06182">
        <ele>1329</ele>
        <time>2021-06-27T11:03:00.071Z</time>
      </trkpt>
      <trkpt lat="45.56319" lon="6.06182">
        <ele>1329</ele>
        <time>2021-06-27T11:03:01.070Z</time>
      </trkpt>
      <trkpt lat="45.5632" lon="6.06182">
        <ele>1329</ele>
        <time>2021-06-27T11:03:02.071Z</time>
      </trkpt>
      <trkpt lat="45.5632" lon="6.06183">
        <ele>1328</ele>
        <time>2021-06-27T11:03:03.070Z</time>
      </trkpt>
      <trkpt lat="45.5632" lon="6.06183">
        <ele>1328</ele>
        <time>2021-06-27T11:03:04.070Z</time>
      </trkpt>
      <trkpt lat="45.5632" lon="6.06184">
        <ele>1327</ele>
        <time>2021-06-27T11:03:05.071Z</time>
      </trkpt>
      <trkpt lat="45.5632" lon="6.06185">
        <ele>1327</ele>
        <time>2021-06-27T11:03:06.071Z</time>
      </trkpt>
      <trkpt lat="45.5632" lon="6.06185">
        <ele>1326</ele>
        <time>2021-06-27T11:03:07.071Z</time>
      </trkpt>
      <trkpt lat="45.5632" lon="6.06186">
        <ele>1326</ele>
        <time>2021-06-27T11:03:08.071Z</time>
      </trkpt>
      <trkpt lat="45.5632" lon="6.06187">
        <ele>1326</ele>
        <time>2021-06-27T11:03:09.071Z</time>
      </trkpt>
      <trkpt lat="45.5632" lon="6.06188">
        <ele>1327</ele>
        <time>2021-06-27T11:03:10.071Z</time>
      </trkpt>
      <trkpt lat="45.5632" lon="6.06189">
        <ele>1327</ele>
        <time>2021-06-27T11:03:11.070Z</time>
      </trkpt>
      <trkpt lat="45.5632" lon="6.06189">
        <ele>1328</ele>
        <time>2021-06-27T11:03:12.071Z</time>
      </trkpt>
      <trkpt lat="45.5632" lon="6.0619">
        <ele>1329</ele>
        <time>2021-06-27T11:03:13.071Z</time>
      </trkpt>
      <trkpt lat="45.56319" lon="6.0619">
        <ele>1329</ele>
        <time>2021-06-27T11:03:14.071Z</time>
      </trkpt>
      <trkpt lat="45.56319" lon="6.0619">
        <ele>1330</ele>
        <time>2021-06-27T11:03:15.071Z</time>
      </trkpt>
      <trkpt lat="45.56319" lon="6.0619">
        <ele>1330</ele>
        <time>2021-06-27T11:03:16.071Z</time>
      </trkpt>
      <trkpt lat="45.56319" lon="6.06191">
        <ele>1330</ele>
        <time>2021-06-27T11:03:17.071Z</time>
      </trkpt>
      <trkpt lat="45.56319" lon="6.06191">
        <ele>1331</ele>
        <time>2021-06-27T11:03:18.071Z</time>
      </trkpt>
      <trkpt lat="45.56319" lon="6.06192">
        <ele>1331</ele>
        <time>2021-06-27T11:03:19.070Z</time>
      </trkpt>
      <trkpt lat="45.56318" lon="6.06194">
        <ele>1331</ele>
        <time>2021-06-27T11:03:20.071Z</time>
      </trkpt>
      <trkpt lat="45.56317" lon="6.06195">
        <ele>1331</ele>
        <time>2021-06-27T11:03:21.071Z</time>
      </trkpt>
      <trkpt lat="45.56316" lon="6.06196">
        <ele>1332</ele>
        <time>2021-06-27T11:03:22.071Z</time>
      </trkpt>
      <trkpt lat="45.56315" lon="6.06197">
        <ele>1332</ele>
        <time>2021-06-27T11:03:23.071Z</time>
      </trkpt>
      <trkpt lat="45.56315" lon="6.06197">
        <ele>1332</ele>
        <time>2021-06-27T11:03:24.070Z</time>
      </trkpt>
      <trkpt lat="45.56314" lon="6.06197">
        <ele>1332</ele>
        <time>2021-06-27T11:03:25.071Z</time>
      </trkpt>
      <trkpt lat="45.56313" lon="6.06198">
        <ele>1332</ele>
        <time>2021-06-27T11:03:26.071Z</time>
      </trkpt>
      <trkpt lat="45.56313" lon="6.06198">
        <ele>1332</ele>
        <time>2021-06-27T11:03:27.070Z</time>
      </trkpt>
      <trkpt lat="45.56312" lon="6.06198">
        <ele>1332</ele>
        <time>2021-06-27T11:03:28.071Z</time>
      </trkpt>
      <trkpt lat="45.56311" lon="6.06198">
        <ele>1332</ele>
        <time>2021-06-27T11:03:29.071Z</time>
      </trkpt>
      <trkpt lat="45.56311" lon="6.06199">
        <ele>1332</ele>
        <time>2021-06-27T11:03:30.071Z</time>
      </trkpt>
      <trkpt lat="45.56311" lon="6.062">
        <ele>1333</ele>
        <time>2021-06-27T11:03:31.071Z</time>
      </trkpt>
      <trkpt lat="45.56311" lon="6.06201">
        <ele>1334</ele>
        <time>2021-06-27T11:03:32.071Z</time>
      </trkpt>
      <trkpt lat="45.5631" lon="6.06202">
        <ele>1334</ele>
        <time>2021-06-27T11:03:33.071Z</time>
      </trkpt>
      <trkpt lat="45.5631" lon="6.06204">
        <ele>1335</ele>
        <time>2021-06-27T11:03:34.071Z</time>
      </trkpt>
      <trkpt lat="45.56309" lon="6.06206">
        <ele>1336</ele>
        <time>2021-06-27T11:03:35.070Z</time>
      </trkpt>
      <trkpt lat="45.56308" lon="6.0621">
        <ele>1336</ele>
        <time>2021-06-27T11:03:36.071Z</time>
      </trkpt>
      <trkpt lat="45.56308" lon="6.06212">
        <ele>1337</ele>
        <time>2021-06-27T11:03:37.071Z</time>
      </trkpt>
      <trkpt lat="45.56307" lon="6.06215">
        <ele>1337</ele>
        <time>2021-06-27T11:03:38.070Z</time>
      </trkpt>
      <trkpt lat="45.56307" lon="6.06217">
        <ele>1337</ele>
        <time>2021-06-27T11:03:39.070Z</time>
      </trkpt>
      <trkpt lat="45.56306" lon="6.06219">
        <ele>1337</ele>
        <time>2021-06-27T11:03:40.070Z</time>
      </trkpt>
      <trkpt lat="45.56306" lon="6.06219">
        <ele>1338</ele>
        <time>2021-06-27T11:03:41.070Z</time>
      </trkpt>
      <trkpt lat="45.56306" lon="6.0622">
        <ele>1338</ele>
        <time>2021-06-27T11:03:42.070Z</time>
      </trkpt>
      <trkpt lat="45.56306" lon="6.0622">
        <ele>1339</ele>
        <time>2021-06-27T11:03:43.070Z</time>
      </trkpt>
      <trkpt lat="45.56305" lon="6.06221">
        <ele>1339</ele>
        <time>2021-06-27T11:03:44.071Z</time>
      </trkpt>
      <trkpt lat="45.56305" lon="6.06221">
        <ele>1339</ele>
        <time>2021-06-27T11:03:45.071Z</time>
      </trkpt>
      <trkpt lat="45.56305" lon="6.06222">
        <ele>1339</ele>
        <time>2021-06-27T11:03:46.070Z</time>
      </trkpt>
      <trkpt lat="45.56306" lon="6.06224">
        <ele>1339</ele>
        <time>2021-06-27T11:03:47.071Z</time>
      </trkpt>
      <trkpt lat="45.56305" lon="6.06225">
        <ele>1339</ele>
        <time>2021-06-27T11:03:48.070Z</time>
      </trkpt>
      <trkpt lat="45.56305" lon="6.06226">
        <ele>1338</ele>
        <time>2021-06-27T11:03:49.071Z</time>
      </trkpt>
      <trkpt lat="45.56305" lon="6.06226">
        <ele>1338</ele>
        <time>2021-06-27T11:03:50.070Z</time>
      </trkpt>
      <trkpt lat="45.56305" lon="6.06227">
        <ele>1338</ele>
        <time>2021-06-27T11:03:51.071Z</time>
      </trkpt>
      <trkpt lat="45.56304" lon="6.06228">
        <ele>1338</ele>
        <time>2021-06-27T11:03:52.071Z</time>
      </trkpt>
      <trkpt lat="45.56304" lon="6.06228">
        <ele>1338</ele>
        <time>2021-06-27T11:03:53.071Z</time>
      </trkpt>
      <trkpt lat="45.56303" lon="6.0623">
        <ele>1339</ele>
        <time>2021-06-27T11:03:54.071Z</time>
      </trkpt>
      <trkpt lat="45.56303" lon="6.06231">
        <ele>1339</ele>
        <time>2021-06-27T11:03:55.071Z</time>
      </trkpt>
      <trkpt lat="45.56303" lon="6.06231">
        <ele>1339</ele>
        <time>2021-06-27T11:03:56.071Z</time>
      </trkpt>
      <trkpt lat="45.56302" lon="6.06233">
        <ele>1339</ele>
        <time>2021-06-27T11:03:57.071Z</time>
      </trkpt>
      <trkpt lat="45.56302" lon="6.06233">
        <ele>1340</ele>
        <time>2021-06-27T11:03:58.071Z</time>
      </trkpt>
      <trkpt lat="45.56302" lon="6.06234">
        <ele>1340</ele>
        <time>2021-06-27T11:03:59.071Z</time>
      </trkpt>
      <trkpt lat="45.56301" lon="6.06235">
        <ele>1340</ele>
        <time>2021-06-27T11:04:00.071Z</time>
      </trkpt>
      <trkpt lat="45.56301" lon="6.06236">
        <ele>1340</ele>
        <time>2021-06-27T11:04:01.071Z</time>
      </trkpt>
      <trkpt lat="45.563" lon="6.06237">
        <ele>1340</ele>
        <time>2021-06-27T11:04:02.071Z</time>
      </trkpt>
      <trkpt lat="45.563" lon="6.06237">
        <ele>1340</ele>
        <time>2021-06-27T11:04:03.071Z</time>
      </trkpt>
      <trkpt lat="45.56299" lon="6.06239">
        <ele>1341</ele>
        <time>2021-06-27T11:04:04.070Z</time>
      </trkpt>
      <trkpt lat="45.56299" lon="6.0624">
        <ele>1341</ele>
        <time>2021-06-27T11:04:05.071Z</time>
      </trkpt>
      <trkpt lat="45.56298" lon="6.06241">
        <ele>1341</ele>
        <time>2021-06-27T11:04:06.071Z</time>
      </trkpt>
      <trkpt lat="45.56298" lon="6.06241">
        <ele>1341</ele>
        <time>2021-06-27T11:04:07.070Z</time>
      </trkpt>
      <trkpt lat="45.56298" lon="6.06241">
        <ele>1341</ele>
        <time>2021-06-27T11:04:08.070Z</time>
      </trkpt>
      <trkpt lat="45.56297" lon="6.06241">
        <ele>1340</ele>
        <time>2021-06-27T11:04:09.071Z</time>
      </trkpt>
      <trkpt lat="45.56296" lon="6.06242">
        <ele>1340</ele>
        <time>2021-06-27T11:04:10.070Z</time>
      </trkpt>
      <trkpt lat="45.56296" lon="6.06242">
        <ele>1340</ele>
        <time>2021-06-27T11:04:11.071Z</time>
      </trkpt>
      <trkpt lat="45.56296" lon="6.06243">
        <ele>1340</ele>
        <time>2021-06-27T11:04:12.070Z</time>
      </trkpt>
      <trkpt lat="45.56296" lon="6.06244">
        <ele>1341</ele>
        <time>2021-06-27T11:04:13.071Z</time>
      </trkpt>
      <trkpt lat="45.56296" lon="6.06245">
        <ele>1341</ele>
        <time>2021-06-27T11:04:14.071Z</time>
      </trkpt>
      <trkpt lat="45.56295" lon="6.06245">
        <ele>1341</ele>
        <time>2021-06-27T11:04:15.071Z</time>
      </trkpt>
      <trkpt lat="45.56294" lon="6.06245">
        <ele>1341</ele>
        <time>2021-06-27T11:04:16.070Z</time>
      </trkpt>
      <trkpt lat="45.56293" lon="6.06246">
        <ele>1341</ele>
        <time>2021-06-27T11:04:17.071Z</time>
      </trkpt>
      <trkpt lat="45.56293" lon="6.06247">
        <ele>1342</ele>
        <time>2021-06-27T11:04:18.071Z</time>
      </trkpt>
      <trkpt lat="45.56292" lon="6.06248">
        <ele>1342</ele>
        <time>2021-06-27T11:04:19.070Z</time>
      </trkpt>
      <trkpt lat="45.56292" lon="6.06249">
        <ele>1343</ele>
        <time>2021-06-27T11:04:20.070Z</time>
      </trkpt>
      <trkpt lat="45.56292" lon="6.0625">
        <ele>1343</ele>
        <time>2021-06-27T11:04:21.071Z</time>
      </trkpt>
      <trkpt lat="45.56291" lon="6.06252">
        <ele>1344</ele>
        <time>2021-06-27T11:04:22.071Z</time>
      </trkpt>
      <trkpt lat="45.56291" lon="6.06252">
        <ele>1345</ele>
        <time>2021-06-27T11:04:23.071Z</time>
      </trkpt>
      <trkpt lat="45.56291" lon="6.06253">
        <ele>1345</ele>
        <time>2021-06-27T11:04:24.071Z</time>
      </trkpt>
      <trkpt lat="45.56291" lon="6.06254">
        <ele>1346</ele>
        <time>2021-06-27T11:04:25.071Z</time>
      </trkpt>
      <trkpt lat="45.56291" lon="6.06255">
        <ele>1346</ele>
        <time>2021-06-27T11:04:26.070Z</time>
      </trkpt>
      <trkpt lat="45.5629" lon="6.06256">
        <ele>1347</ele>
        <time>2021-06-27T11:04:27.070Z</time>
      </trkpt>
      <trkpt lat="45.5629" lon="6.06257">
        <ele>1348</ele>
        <time>2021-06-27T11:04:28.070Z</time>
      </trkpt>
      <trkpt lat="45.5629" lon="6.0626">
        <ele>1349</ele>
        <time>2021-06-27T11:04:29.071Z</time>
      </trkpt>
      <trkpt lat="45.5629" lon="6.06261">
        <ele>1349</ele>
        <time>2021-06-27T11:04:30.071Z</time>
      </trkpt>
      <trkpt lat="45.5629" lon="6.06263">
        <ele>1350</ele>
        <time>2021-06-27T11:04:31.070Z</time>
      </trkpt>
      <trkpt lat="45.5629" lon="6.06263">
        <ele>1351</ele>
        <time>2021-06-27T11:04:32.070Z</time>
      </trkpt>
      <trkpt lat="45.56289" lon="6.06264">
        <ele>1351</ele>
        <time>2021-06-27T11:04:33.071Z</time>
      </trkpt>
      <trkpt lat="45.56288" lon="6.06266">
        <ele>1352</ele>
        <time>2021-06-27T11:04:34.071Z</time>
      </trkpt>
      <trkpt lat="45.56287" lon="6.06268">
        <ele>1352</ele>
        <time>2021-06-27T11:04:35.070Z</time>
      </trkpt>
      <trkpt lat="45.56287" lon="6.06269">
        <ele>1352</ele>
        <time>2021-06-27T11:04:36.071Z</time>
      </trkpt>
      <trkpt lat="45.56287" lon="6.0627">
        <ele>1352</ele>
        <time>2021-06-27T11:04:37.071Z</time>
      </trkpt>
      <trkpt lat="45.56287" lon="6.06272">
        <ele>1352</ele>
        <time>2021-06-27T11:04:38.071Z</time>
      </trkpt>
      <trkpt lat="45.56287" lon="6.06273">
        <ele>1351</ele>
        <time>2021-06-27T11:04:39.071Z</time>
      </trkpt>
      <trkpt lat="45.56288" lon="6.06273">
        <ele>1351</ele>
        <time>2021-06-27T11:04:40.070Z</time>
      </trkpt>
      <trkpt lat="45.56287" lon="6.06274">
        <ele>1350</ele>
        <time>2021-06-27T11:04:41.071Z</time>
      </trkpt>
      <trkpt lat="45.56288" lon="6.06275">
        <ele>1349</ele>
        <time>2021-06-27T11:04:42.071Z</time>
      </trkpt>
      <trkpt lat="45.56287" lon="6.06277">
        <ele>1349</ele>
        <time>2021-06-27T11:04:43.070Z</time>
      </trkpt>
      <trkpt lat="45.56287" lon="6.06278">
        <ele>1348</ele>
        <time>2021-06-27T11:04:44.070Z</time>
      </trkpt>
      <trkpt lat="45.56287" lon="6.06279">
        <ele>1348</ele>
        <time>2021-06-27T11:04:45.071Z</time>
      </trkpt>
      <trkpt lat="45.56288" lon="6.06279">
        <ele>1348</ele>
        <time>2021-06-27T11:04:46.071Z</time>
      </trkpt>
      <trkpt lat="45.56288" lon="6.0628">
        <ele>1348</ele>
        <time>2021-06-27T11:04:47.071Z</time>
      </trkpt>
      <trkpt lat="45.56289" lon="6.06281">
        <ele>1348</ele>
        <time>2021-06-27T11:04:48.070Z</time>
      </trkpt>
      <trkpt lat="45.56289" lon="6.06282">
        <ele>1348</ele>
        <time>2021-06-27T11:04:49.071Z</time>
      </trkpt>
      <trkpt lat="45.56288" lon="6.06282">
        <ele>1348</ele>
        <time>2021-06-27T11:04:50.070Z</time>
      </trkpt>
      <trkpt lat="45.56287" lon="6.06283">
        <ele>1348</ele>
        <time>2021-06-27T11:04:51.071Z</time>
      </trkpt>
      <trkpt lat="45.56287" lon="6.06283">
        <ele>1348</ele>
        <time>2021-06-27T11:04:52.070Z</time>
      </trkpt>
      <trkpt lat="45.56286" lon="6.06283">
        <ele>1348</ele>
        <time>2021-06-27T11:04:53.071Z</time>
      </trkpt>
      <trkpt lat="45.56285" lon="6.06284">
        <ele>1349</ele>
        <time>2021-06-27T11:04:54.070Z</time>
      </trkpt>
      <trkpt lat="45.56284" lon="6.06285">
        <ele>1350</ele>
        <time>2021-06-27T11:04:55.071Z</time>
      </trkpt>
      <trkpt lat="45.56283" lon="6.06286">
        <ele>1350</ele>
        <time>2021-06-27T11:04:56.070Z</time>
      </trkpt>
      <trkpt lat="45.56283" lon="6.06287">
        <ele>1350</ele>
        <time>2021-06-27T11:04:57.071Z</time>
      </trkpt>
      <trkpt lat="45.56282" lon="6.06287">
        <ele>1350</ele>
        <time>2021-06-27T11:04:58.071Z</time>
      </trkpt>
      <trkpt lat="45.56281" lon="6.06288">
        <ele>1350</ele>
        <time>2021-06-27T11:04:59.070Z</time>
      </trkpt>
      <trkpt lat="45.56281" lon="6.06289">
        <ele>1350</ele>
        <time>2021-06-27T11:05:00.071Z</time>
      </trkpt>
      <trkpt lat="45.56281" lon="6.0629">
        <ele>1350</ele>
        <time>2021-06-27T11:05:01.071Z</time>
      </trkpt>
      <trkpt lat="45.56281" lon="6.06291">
        <ele>1350</ele>
        <time>2021-06-27T11:05:02.071Z</time>
      </trkpt>
      <trkpt lat="45.56281" lon="6.06291">
        <ele>1350</ele>
        <time>2021-06-27T11:05:03.071Z</time>
      </trkpt>
      <trkpt lat="45.56281" lon="6.06293">
        <ele>1350</ele>
        <time>2021-06-27T11:05:04.071Z</time>
      </trkpt>
      <trkpt lat="45.56281" lon="6.06294">
        <ele>1350</ele>
        <time>2021-06-27T11:05:05.070Z</time>
      </trkpt>
      <trkpt lat="45.56281" lon="6.06295">
        <ele>1350</ele>
        <time>2021-06-27T11:05:06.070Z</time>
      </trkpt>
      <trkpt lat="45.56281" lon="6.06296">
        <ele>1351</ele>
        <time>2021-06-27T11:05:07.071Z</time>
      </trkpt>
      <trkpt lat="45.56281" lon="6.06297">
        <ele>1351</ele>
        <time>2021-06-27T11:05:08.071Z</time>
      </trkpt>
      <trkpt lat="45.56282" lon="6.06298">
        <ele>1351</ele>
        <time>2021-06-27T11:05:09.071Z</time>
      </trkpt>
      <trkpt lat="45.56282" lon="6.06299">
        <ele>1351</ele>
        <time>2021-06-27T11:05:10.071Z</time>
      </trkpt>
      <trkpt lat="45.56282" lon="6.063">
        <ele>1352</ele>
        <time>2021-06-27T11:05:11.071Z</time>
      </trkpt>
      <trkpt lat="45.56283" lon="6.06301">
        <ele>1352</ele>
        <time>2021-06-27T11:05:12.071Z</time>
      </trkpt>
      <trkpt lat="45.56283" lon="6.06303">
        <ele>1352</ele>
        <time>2021-06-27T11:05:13.071Z</time>
      </trkpt>
      <trkpt lat="45.56284" lon="6.06303">
        <ele>1352</ele>
        <time>2021-06-27T11:05:14.070Z</time>
      </trkpt>
      <trkpt lat="45.56284" lon="6.06304">
        <ele>1353</ele>
        <time>2021-06-27T11:05:15.071Z</time>
      </trkpt>
      <trkpt lat="45.56283" lon="6.06305">
        <ele>1353</ele>
        <time>2021-06-27T11:05:16.071Z</time>
      </trkpt>
      <trkpt lat="45.56283" lon="6.06306">
        <ele>1354</ele>
        <time>2021-06-27T11:05:17.070Z</time>
      </trkpt>
      <trkpt lat="45.56284" lon="6.06307">
        <ele>1353</ele>
        <time>2021-06-27T11:05:18.070Z</time>
      </trkpt>
      <trkpt lat="45.56284" lon="6.06308">
        <ele>1353</ele>
        <time>2021-06-27T11:05:19.070Z</time>
      </trkpt>
      <trkpt lat="45.56285" lon="6.06308">
        <ele>1352</ele>
        <time>2021-06-27T11:05:20.071Z</time>
      </trkpt>
      <trkpt lat="45.56286" lon="6.06309">
        <ele>1351</ele>
        <time>2021-06-27T11:05:21.071Z</time>
      </trkpt>
      <trkpt lat="45.56286" lon="6.0631">
        <ele>1351</ele>
        <time>2021-06-27T11:05:22.071Z</time>
      </trkpt>
      <trkpt lat="45.56285" lon="6.0631">
        <ele>1350</ele>
        <time>2021-06-27T11:05:23.071Z</time>
      </trkpt>
      <trkpt lat="45.56285" lon="6.0631">
        <ele>1350</ele>
        <time>2021-06-27T11:05:24.070Z</time>
      </trkpt>
      <trkpt lat="45.56284" lon="6.0631">
        <ele>1350</ele>
        <time>2021-06-27T11:05:25.071Z</time>
      </trkpt>
      <trkpt lat="45.56283" lon="6.0631">
        <ele>1350</ele>
        <time>2021-06-27T11:05:26.071Z</time>
      </trkpt>
      <trkpt lat="45.56283" lon="6.0631">
        <ele>1349</ele>
        <time>2021-06-27T11:05:27.071Z</time>
      </trkpt>
      <trkpt lat="45.56282" lon="6.06311">
        <ele>1349</ele>
        <time>2021-06-27T11:05:28.071Z</time>
      </trkpt>
      <trkpt lat="45.56282" lon="6.06311">
        <ele>1349</ele>
        <time>2021-06-27T11:05:29.071Z</time>
      </trkpt>
      <trkpt lat="45.56282" lon="6.0631">
        <ele>1349</ele>
        <time>2021-06-27T11:05:30.071Z</time>
      </trkpt>
      <trkpt lat="45.56282" lon="6.06309">
        <ele>1348</ele>
        <time>2021-06-27T11:05:31.071Z</time>
      </trkpt>
      <trkpt lat="45.56282" lon="6.06309">
        <ele>1349</ele>
        <time>2021-06-27T11:05:32.071Z</time>
      </trkpt>
      <trkpt lat="45.56282" lon="6.06309">
        <ele>1349</ele>
        <time>2021-06-27T11:05:33.071Z</time>
      </trkpt>
      <trkpt lat="45.56283" lon="6.06309">
        <ele>1349</ele>
        <time>2021-06-27T11:05:34.071Z</time>
      </trkpt>
      <trkpt lat="45.56283" lon="6.0631">
        <ele>1349</ele>
        <time>2021-06-27T11:05:35.071Z</time>
      </trkpt>
      <trkpt lat="45.56283" lon="6.0631">
        <ele>1349</ele>
        <time>2021-06-27T11:05:36.070Z</time>
      </trkpt>
      <trkpt lat="45.56284" lon="6.06311">
        <ele>1350</ele>
        <time>2021-06-27T11:05:37.071Z</time>
      </trkpt>
      <trkpt lat="45.56284" lon="6.06311">
        <ele>1350</ele>
        <time>2021-06-27T11:05:38.070Z</time>
      </trkpt>
      <trkpt lat="45.56284" lon="6.06312">
        <ele>1350</ele>
        <time>2021-06-27T11:05:39.070Z</time>
      </trkpt>
      <trkpt lat="45.56284" lon="6.06311">
        <ele>1350</ele>
        <time>2021-06-27T11:05:40.071Z</time>
      </trkpt>
      <trkpt lat="45.56284" lon="6.0631">
        <ele>1351</ele>
        <time>2021-06-27T11:05:41.070Z</time>
      </trkpt>
      <trkpt lat="45.56284" lon="6.0631">
        <ele>1351</ele>
        <time>2021-06-27T11:05:42.071Z</time>
      </trkpt>
      <trkpt lat="45.56284" lon="6.0631">
        <ele>1352</ele>
        <time>2021-06-27T11:05:43.070Z</time>
      </trkpt>
      <trkpt lat="45.56284" lon="6.0631">
        <ele>1352</ele>
        <time>2021-06-27T11:05:44.071Z</time>
      </trkpt>
      <trkpt lat="45.56284" lon="6.0631">
        <ele>1353</ele>
        <time>2021-06-27T11:05:45.071Z</time>
      </trkpt>
      <trkpt lat="45.56285" lon="6.06311">
        <ele>1354</ele>
        <time>2021-06-27T11:05:46.070Z</time>
      </trkpt>
      <trkpt lat="45.56285" lon="6.06311">
        <ele>1354</ele>
        <time>2021-06-27T11:05:47.071Z</time>
      </trkpt>
      <trkpt lat="45.56285" lon="6.06312">
        <ele>1354</ele>
        <time>2021-06-27T11:05:48.070Z</time>
      </trkpt>
      <trkpt lat="45.56286" lon="6.06312">
        <ele>1354</ele>
        <time>2021-06-27T11:05:49.071Z</time>
      </trkpt>
      <trkpt lat="45.56286" lon="6.06313">
        <ele>1355</ele>
        <time>2021-06-27T11:05:50.071Z</time>
      </trkpt>
      <trkpt lat="45.56286" lon="6.06314">
        <ele>1355</ele>
        <time>2021-06-27T11:05:51.071Z</time>
      </trkpt>
      <trkpt lat="45.56286" lon="6.06314">
        <ele>1355</ele>
        <time>2021-06-27T11:05:52.071Z</time>
      </trkpt>
      <trkpt lat="45.56285" lon="6.06315">
        <ele>1355</ele>
        <time>2021-06-27T11:05:53.071Z</time>
      </trkpt>
      <trkpt lat="45.56285" lon="6.06316">
        <ele>1355</ele>
        <time>2021-06-27T11:05:54.071Z</time>
      </trkpt>
      <trkpt lat="45.56285" lon="6.06317">
        <ele>1355</ele>
        <time>2021-06-27T11:05:55.071Z</time>
      </trkpt>
      <trkpt lat="45.56284" lon="6.06318">
        <ele>1355</ele>
        <time>2021-06-27T11:05:56.071Z</time>
      </trkpt>
      <trkpt lat="45.56284" lon="6.06318">
        <ele>1355</ele>
        <time>2021-06-27T11:05:57.070Z</time>
      </trkpt>
      <trkpt lat="45.56283" lon="6.06319">
        <ele>1355</ele>
        <time>2021-06-27T11:05:58.070Z</time>
      </trkpt>
      <trkpt lat="45.56283" lon="6.06319">
        <ele>1355</ele>
        <time>2021-06-27T11:05:59.071Z</time>
      </trkpt>
      <trkpt lat="45.56282" lon="6.0632">
        <ele>1354</ele>
        <time>2021-06-27T11:06:00.071Z</time>
      </trkpt>
      <trkpt lat="45.56282" lon="6.06321">
        <ele>1354</ele>
        <time>2021-06-27T11:06:01.071Z</time>
      </trkpt>
      <trkpt lat="45.56282" lon="6.06321">
        <ele>1354</ele>
        <time>2021-06-27T11:06:02.071Z</time>
      </trkpt>
      <trkpt lat="45.56282" lon="6.06321">
        <ele>1353</ele>
        <time>2021-06-27T11:06:03.071Z</time>
      </trkpt>
      <trkpt lat="45.56282" lon="6.06322">
        <ele>1353</ele>
        <time>2021-06-27T11:06:04.071Z</time>
      </trkpt>
      <trkpt lat="45.56282" lon="6.06322">
        <ele>1352</ele>
        <time>2021-06-27T11:06:05.070Z</time>
      </trkpt>
      <trkpt lat="45.56282" lon="6.06324">
        <ele>1352</ele>
        <time>2021-06-27T11:06:06.070Z</time>
      </trkpt>
      <trkpt lat="45.56282" lon="6.06325">
        <ele>1352</ele>
        <time>2021-06-27T11:06:07.071Z</time>
      </trkpt>
      <trkpt lat="45.56282" lon="6.06326">
        <ele>1352</ele>
        <time>2021-06-27T11:06:08.071Z</time>
      </trkpt>
      <trkpt lat="45.56282" lon="6.06327">
        <ele>1352</ele>
        <time>2021-06-27T11:06:09.071Z</time>
      </trkpt>
      <trkpt lat="45.56283" lon="6.06327">
        <ele>1352</ele>
        <time>2021-06-27T11:06:10.071Z</time>
      </trkpt>
      <trkpt lat="45.56282" lon="6.06328">
        <ele>1353</ele>
        <time>2021-06-27T11:06:11.070Z</time>
      </trkpt>
      <trkpt lat="45.56282" lon="6.06329">
        <ele>1353</ele>
        <time>2021-06-27T11:06:12.071Z</time>
      </trkpt>
      <trkpt lat="45.56282" lon="6.0633">
        <ele>1353</ele>
        <time>2021-06-27T11:06:13.070Z</time>
      </trkpt>
      <trkpt lat="45.56281" lon="6.0633">
        <ele>1354</ele>
        <time>2021-06-27T11:06:14.071Z</time>
      </trkpt>
      <trkpt lat="45.56281" lon="6.06331">
        <ele>1354</ele>
        <time>2021-06-27T11:06:15.071Z</time>
      </trkpt>
      <trkpt lat="45.56281" lon="6.06332">
        <ele>1355</ele>
        <time>2021-06-27T11:06:16.071Z</time>
      </trkpt>
      <trkpt lat="45.56282" lon="6.06334">
        <ele>1355</ele>
        <time>2021-06-27T11:06:17.071Z</time>
      </trkpt>
      <trkpt lat="45.56284" lon="6.06336">
        <ele>1356</ele>
        <time>2021-06-27T11:06:18.071Z</time>
      </trkpt>
      <trkpt lat="45.56284" lon="6.06338">
        <ele>1356</ele>
        <time>2021-06-27T11:06:19.071Z</time>
      </trkpt>
      <trkpt lat="45.56285" lon="6.06338">
        <ele>1357</ele>
        <time>2021-06-27T11:06:20.071Z</time>
      </trkpt>
      <trkpt lat="45.56285" lon="6.06338">
        <ele>1357</ele>
        <time>2021-06-27T11:06:21.071Z</time>
      </trkpt>
      <trkpt lat="45.56285" lon="6.06337">
        <ele>1358</ele>
        <time>2021-06-27T11:06:22.071Z</time>
      </trkpt>
      <trkpt lat="45.56285" lon="6.06337">
        <ele>1358</ele>
        <time>2021-06-27T11:06:23.070Z</time>
      </trkpt>
      <trkpt lat="45.56285" lon="6.06337">
        <ele>1358</ele>
        <time>2021-06-27T11:06:24.071Z</time>
      </trkpt>
      <trkpt lat="45.56286" lon="6.06338">
        <ele>1358</ele>
        <time>2021-06-27T11:06:25.070Z</time>
      </trkpt>
      <trkpt lat="45.56287" lon="6.06338">
        <ele>1358</ele>
        <time>2021-06-27T11:06:26.071Z</time>
      </trkpt>
      <trkpt lat="45.56287" lon="6.06338">
        <ele>1358</ele>
        <time>2021-06-27T11:06:27.071Z</time>
      </trkpt>
      <trkpt lat="45.56287" lon="6.06338">
        <ele>1358</ele>
        <time>2021-06-27T11:06:28.070Z</time>
      </trkpt>
      <trkpt lat="45.56287" lon="6.06337">
        <ele>1358</ele>
        <time>2021-06-27T11:06:29.071Z</time>
      </trkpt>
      <trkpt lat="45.56288" lon="6.06338">
        <ele>1358</ele>
        <time>2021-06-27T11:06:30.071Z</time>
      </trkpt>
      <trkpt lat="45.56288" lon="6.06338">
        <ele>1358</ele>
        <time>2021-06-27T11:06:31.071Z</time>
      </trkpt>
      <trkpt lat="45.56289" lon="6.06338">
        <ele>1358</ele>
        <time>2021-06-27T11:06:32.071Z</time>
      </trkpt>
      <trkpt lat="45.56289" lon="6.06338">
        <ele>1358</ele>
        <time>2021-06-27T11:06:33.070Z</time>
      </trkpt>
      <trkpt lat="45.56289" lon="6.06338">
        <ele>1358</ele>
        <time>2021-06-27T11:06:34.071Z</time>
      </trkpt>
      <trkpt lat="45.5629" lon="6.0634">
        <ele>1357</ele>
        <time>2021-06-27T11:06:35.070Z</time>
      </trkpt>
      <trkpt lat="45.5629" lon="6.06342">
        <ele>1357</ele>
        <time>2021-06-27T11:06:36.071Z</time>
      </trkpt>
      <trkpt lat="45.56289" lon="6.06342">
        <ele>1357</ele>
        <time>2021-06-27T11:06:37.071Z</time>
      </trkpt>
      <trkpt lat="45.56289" lon="6.06343">
        <ele>1358</ele>
        <time>2021-06-27T11:06:38.071Z</time>
      </trkpt>
      <trkpt lat="45.56289" lon="6.06344">
        <ele>1358</ele>
        <time>2021-06-27T11:06:39.071Z</time>
      </trkpt>
      <trkpt lat="45.56288" lon="6.06344">
        <ele>1358</ele>
        <time>2021-06-27T11:06:40.071Z</time>
      </trkpt>
      <trkpt lat="45.56288" lon="6.06345">
        <ele>1359</ele>
        <time>2021-06-27T11:06:41.071Z</time>
      </trkpt>
      <trkpt lat="45.56288" lon="6.06345">
        <ele>1359</ele>
        <time>2021-06-27T11:06:42.071Z</time>
      </trkpt>
      <trkpt lat="45.56289" lon="6.06346">
        <ele>1360</ele>
        <time>2021-06-27T11:06:43.071Z</time>
      </trkpt>
      <trkpt lat="45.56289" lon="6.06347">
        <ele>1360</ele>
        <time>2021-06-27T11:06:44.070Z</time>
      </trkpt>
      <trkpt lat="45.56288" lon="6.06348">
        <ele>1361</ele>
        <time>2021-06-27T11:06:45.070Z</time>
      </trkpt>
      <trkpt lat="45.56288" lon="6.06349">
        <ele>1361</ele>
        <time>2021-06-27T11:06:46.071Z</time>
      </trkpt>
      <trkpt lat="45.56288" lon="6.0635">
        <ele>1362</ele>
        <time>2021-06-27T11:06:47.071Z</time>
      </trkpt>
      <trkpt lat="45.56288" lon="6.0635">
        <ele>1362</ele>
        <time>2021-06-27T11:06:48.071Z</time>
      </trkpt>
      <trkpt lat="45.56287" lon="6.06352">
        <ele>1362</ele>
        <time>2021-06-27T11:06:49.071Z</time>
      </trkpt>
      <trkpt lat="45.56287" lon="6.06352">
        <ele>1363</ele>
        <time>2021-06-27T11:06:50.071Z</time>
      </trkpt>
      <trkpt lat="45.56287" lon="6.06353">
        <ele>1363</ele>
        <time>2021-06-27T11:06:51.071Z</time>
      </trkpt>
      <trkpt lat="45.56287" lon="6.06354">
        <ele>1364</ele>
        <time>2021-06-27T11:06:52.071Z</time>
      </trkpt>
      <trkpt lat="45.56288" lon="6.06354">
        <ele>1364</ele>
        <time>2021-06-27T11:06:53.071Z</time>
      </trkpt>
      <trkpt lat="45.56288" lon="6.06354">
        <ele>1365</ele>
        <time>2021-06-27T11:06:54.071Z</time>
      </trkpt>
      <trkpt lat="45.56288" lon="6.06355">
        <ele>1365</ele>
        <time>2021-06-27T11:06:55.070Z</time>
      </trkpt>
      <trkpt lat="45.56288" lon="6.06355">
        <ele>1366</ele>
        <time>2021-06-27T11:06:56.071Z</time>
      </trkpt>
      <trkpt lat="45.56287" lon="6.06356">
        <ele>1366</ele>
        <time>2021-06-27T11:06:57.071Z</time>
      </trkpt>
      <trkpt lat="45.56287" lon="6.06357">
        <ele>1367</ele>
        <time>2021-06-27T11:06:58.071Z</time>
      </trkpt>
      <trkpt lat="45.56287" lon="6.06357">
        <ele>1367</ele>
        <time>2021-06-27T11:06:59.071Z</time>
      </trkpt>
      <trkpt lat="45.56287" lon="6.06358">
        <ele>1367</ele>
        <time>2021-06-27T11:07:00.071Z</time>
      </trkpt>
      <trkpt lat="45.56287" lon="6.06359">
        <ele>1368</ele>
        <time>2021-06-27T11:07:01.071Z</time>
      </trkpt>
      <trkpt lat="45.56288" lon="6.0636">
        <ele>1368</ele>
        <time>2021-06-27T11:07:02.071Z</time>
      </trkpt>
      <trkpt lat="45.56288" lon="6.06361">
        <ele>1369</ele>
        <time>2021-06-27T11:07:03.071Z</time>
      </trkpt>
      <trkpt lat="45.56287" lon="6.06362">
        <ele>1369</ele>
        <time>2021-06-27T11:07:04.071Z</time>
      </trkpt>
      <trkpt lat="45.56288" lon="6.06363">
        <ele>1370</ele>
        <time>2021-06-27T11:07:05.071Z</time>
      </trkpt>
      <trkpt lat="45.56288" lon="6.06363">
        <ele>1370</ele>
        <time>2021-06-27T11:07:06.070Z</time>
      </trkpt>
      <trkpt lat="45.56288" lon="6.06363">
        <ele>1370</ele>
        <time>2021-06-27T11:07:07.070Z</time>
      </trkpt>
      <trkpt lat="45.56289" lon="6.06364">
        <ele>1370</ele>
        <time>2021-06-27T11:07:08.071Z</time>
      </trkpt>
      <trkpt lat="45.56288" lon="6.06364">
        <ele>1369</ele>
        <time>2021-06-27T11:07:09.071Z</time>
      </trkpt>
      <trkpt lat="45.56287" lon="6.06364">
        <ele>1369</ele>
        <time>2021-06-27T11:07:10.070Z</time>
      </trkpt>
      <trkpt lat="45.56287" lon="6.06365">
        <ele>1369</ele>
        <time>2021-06-27T11:07:11.070Z</time>
      </trkpt>
      <trkpt lat="45.56285" lon="6.06365">
        <ele>1369</ele>
        <time>2021-06-27T11:07:12.071Z</time>
      </trkpt>
      <trkpt lat="45.56284" lon="6.06365">
        <ele>1370</ele>
        <time>2021-06-27T11:07:13.070Z</time>
      </trkpt>
      <trkpt lat="45.56284" lon="6.06366">
        <ele>1370</ele>
        <time>2021-06-27T11:07:14.071Z</time>
      </trkpt>
      <trkpt lat="45.56284" lon="6.06366">
        <ele>1371</ele>
        <time>2021-06-27T11:07:15.071Z</time>
      </trkpt>
      <trkpt lat="45.56284" lon="6.06367">
        <ele>1371</ele>
        <time>2021-06-27T11:07:16.071Z</time>
      </trkpt>
      <trkpt lat="45.56285" lon="6.06367">
        <ele>1372</ele>
        <time>2021-06-27T11:07:17.071Z</time>
      </trkpt>
      <trkpt lat="45.56285" lon="6.06368">
        <ele>1373</ele>
        <time>2021-06-27T11:07:18.071Z</time>
      </trkpt>
      <trkpt lat="45.56285" lon="6.06368">
        <ele>1373</ele>
        <time>2021-06-27T11:07:19.071Z</time>
      </trkpt>
      <trkpt lat="45.56285" lon="6.06369">
        <ele>1374</ele>
        <time>2021-06-27T11:07:20.071Z</time>
      </trkpt>
      <trkpt lat="45.56285" lon="6.06369">
        <ele>1375</ele>
        <time>2021-06-27T11:07:21.071Z</time>
      </trkpt>
      <trkpt lat="45.56285" lon="6.0637">
        <ele>1375</ele>
        <time>2021-06-27T11:07:22.070Z</time>
      </trkpt>
      <trkpt lat="45.56285" lon="6.06371">
        <ele>1376</ele>
        <time>2021-06-27T11:07:23.071Z</time>
      </trkpt>
      <trkpt lat="45.56285" lon="6.06372">
        <ele>1376</ele>
        <time>2021-06-27T11:07:24.070Z</time>
      </trkpt>
      <trkpt lat="45.56285" lon="6.06373">
        <ele>1377</ele>
        <time>2021-06-27T11:07:25.071Z</time>
      </trkpt>
      <trkpt lat="45.56285" lon="6.06374">
        <ele>1378</ele>
        <time>2021-06-27T11:07:26.071Z</time>
      </trkpt>
      <trkpt lat="45.56284" lon="6.06374">
        <ele>1378</ele>
        <time>2021-06-27T11:07:27.070Z</time>
      </trkpt>
      <trkpt lat="45.56283" lon="6.06374">
        <ele>1379</ele>
        <time>2021-06-27T11:07:28.071Z</time>
      </trkpt>
      <trkpt lat="45.56283" lon="6.06374">
        <ele>1380</ele>
        <time>2021-06-27T11:07:29.071Z</time>
      </trkpt>
      <trkpt lat="45.56282" lon="6.06374">
        <ele>1380</ele>
        <time>2021-06-27T11:07:30.071Z</time>
      </trkpt>
      <trkpt lat="45.56282" lon="6.06373">
        <ele>1381</ele>
        <time>2021-06-27T11:07:31.071Z</time>
      </trkpt>
      <trkpt lat="45.56282" lon="6.06374">
        <ele>1382</ele>
        <time>2021-06-27T11:07:32.070Z</time>
      </trkpt>
      <trkpt lat="45.56281" lon="6.06374">
        <ele>1382</ele>
        <time>2021-06-27T11:07:33.070Z</time>
      </trkpt>
      <trkpt lat="45.56281" lon="6.06375">
        <ele>1383</ele>
        <time>2021-06-27T11:07:34.071Z</time>
      </trkpt>
      <trkpt lat="45.5628" lon="6.06375">
        <ele>1383</ele>
        <time>2021-06-27T11:07:35.071Z</time>
      </trkpt>
      <trkpt lat="45.56279" lon="6.06375">
        <ele>1383</ele>
        <time>2021-06-27T11:07:36.071Z</time>
      </trkpt>
      <trkpt lat="45.56279" lon="6.06376">
        <ele>1383</ele>
        <time>2021-06-27T11:07:37.071Z</time>
      </trkpt>
      <trkpt lat="45.56279" lon="6.06376">
        <ele>1383</ele>
        <time>2021-06-27T11:07:38.070Z</time>
      </trkpt>
      <trkpt lat="45.56278" lon="6.06376">
        <ele>1383</ele>
        <time>2021-06-27T11:07:39.071Z</time>
      </trkpt>
      <trkpt lat="45.56278" lon="6.06376">
        <ele>1383</ele>
        <time>2021-06-27T11:07:40.070Z</time>
      </trkpt>
      <trkpt lat="45.56277" lon="6.06376">
        <ele>1382</ele>
        <time>2021-06-27T11:07:41.071Z</time>
      </trkpt>
      <trkpt lat="45.56277" lon="6.06377">
        <ele>1382</ele>
        <time>2021-06-27T11:07:42.071Z</time>
      </trkpt>
      <trkpt lat="45.56276" lon="6.06377">
        <ele>1382</ele>
        <time>2021-06-27T11:07:43.070Z</time>
      </trkpt>
      <trkpt lat="45.56275" lon="6.06378">
        <ele>1382</ele>
        <time>2021-06-27T11:07:44.071Z</time>
      </trkpt>
      <trkpt lat="45.56275" lon="6.06378">
        <ele>1382</ele>
        <time>2021-06-27T11:07:45.071Z</time>
      </trkpt>
      <trkpt lat="45.56274" lon="6.06379">
        <ele>1381</ele>
        <time>2021-06-27T11:07:46.071Z</time>
      </trkpt>
      <trkpt lat="45.56274" lon="6.06379">
        <ele>1381</ele>
        <time>2021-06-27T11:07:47.071Z</time>
      </trkpt>
      <trkpt lat="45.56274" lon="6.0638">
        <ele>1381</ele>
        <time>2021-06-27T11:07:48.071Z</time>
      </trkpt>
      <trkpt lat="45.56274" lon="6.0638">
        <ele>1381</ele>
        <time>2021-06-27T11:07:49.071Z</time>
      </trkpt>
      <trkpt lat="45.56274" lon="6.06381">
        <ele>1381</ele>
        <time>2021-06-27T11:07:50.070Z</time>
      </trkpt>
      <trkpt lat="45.56273" lon="6.06381">
        <ele>1381</ele>
        <time>2021-06-27T11:07:51.071Z</time>
      </trkpt>
      <trkpt lat="45.56273" lon="6.06381">
        <ele>1381</ele>
        <time>2021-06-27T11:07:52.071Z</time>
      </trkpt>
      <trkpt lat="45.56273" lon="6.06381">
        <ele>1381</ele>
        <time>2021-06-27T11:07:53.071Z</time>
      </trkpt>
      <trkpt lat="45.56273" lon="6.06381">
        <ele>1382</ele>
        <time>2021-06-27T11:07:54.070Z</time>
      </trkpt>
      <trkpt lat="45.56273" lon="6.06382">
        <ele>1382</ele>
        <time>2021-06-27T11:07:55.071Z</time>
      </trkpt>
      <trkpt lat="45.56274" lon="6.06382">
        <ele>1383</ele>
        <time>2021-06-27T11:07:56.071Z</time>
      </trkpt>
      <trkpt lat="45.56274" lon="6.06382">
        <ele>1383</ele>
        <time>2021-06-27T11:07:57.070Z</time>
      </trkpt>
      <trkpt lat="45.56275" lon="6.06382">
        <ele>1384</ele>
        <time>2021-06-27T11:07:58.070Z</time>
      </trkpt>
      <trkpt lat="45.56276" lon="6.06382">
        <ele>1384</ele>
        <time>2021-06-27T11:07:59.070Z</time>
      </trkpt>
      <trkpt lat="45.56277" lon="6.06382">
        <ele>1384</ele>
        <time>2021-06-27T11:08:00.071Z</time>
      </trkpt>
      <trkpt lat="45.56278" lon="6.06383">
        <ele>1384</ele>
        <time>2021-06-27T11:08:01.071Z</time>
      </trkpt>
      <trkpt lat="45.56278" lon="6.06383">
        <ele>1384</ele>
        <time>2021-06-27T11:08:02.070Z</time>
      </trkpt>
      <trkpt lat="45.56278" lon="6.06383">
        <ele>1384</ele>
        <time>2021-06-27T11:08:03.071Z</time>
      </trkpt>
      <trkpt lat="45.56278" lon="6.06384">
        <ele>1383</ele>
        <time>2021-06-27T11:08:04.071Z</time>
      </trkpt>
      <trkpt lat="45.56278" lon="6.06385">
        <ele>1383</ele>
        <time>2021-06-27T11:08:05.071Z</time>
      </trkpt>
      <trkpt lat="45.56278" lon="6.06386">
        <ele>1382</ele>
        <time>2021-06-27T11:08:06.071Z</time>
      </trkpt>
      <trkpt lat="45.56278" lon="6.06386">
        <ele>1381</ele>
        <time>2021-06-27T11:08:07.071Z</time>
      </trkpt>
      <trkpt lat="45.56278" lon="6.06387">
        <ele>1381</ele>
        <time>2021-06-27T11:08:08.071Z</time>
      </trkpt>
      <trkpt lat="45.56278" lon="6.06388">
        <ele>1381</ele>
        <time>2021-06-27T11:08:09.071Z</time>
      </trkpt>
      <trkpt lat="45.56279" lon="6.06389">
        <ele>1380</ele>
        <time>2021-06-27T11:08:10.070Z</time>
      </trkpt>
      <trkpt lat="45.5628" lon="6.06389">
        <ele>1380</ele>
        <time>2021-06-27T11:08:11.071Z</time>
      </trkpt>
      <trkpt lat="45.56282" lon="6.06389">
        <ele>1380</ele>
        <time>2021-06-27T11:08:12.071Z</time>
      </trkpt>
      <trkpt lat="45.56283" lon="6.06388">
        <ele>1380</ele>
        <time>2021-06-27T11:08:13.071Z</time>
      </trkpt>
      <trkpt lat="45.56284" lon="6.06388">
        <ele>1381</ele>
        <time>2021-06-27T11:08:14.071Z</time>
      </trkpt>
      <trkpt lat="45.56284" lon="6.06388">
        <ele>1381</ele>
        <time>2021-06-27T11:08:15.071Z</time>
      </trkpt>
      <trkpt lat="45.56285" lon="6.06388">
        <ele>1381</ele>
        <time>2021-06-27T11:08:16.071Z</time>
      </trkpt>
      <trkpt lat="45.56285" lon="6.06389">
        <ele>1382</ele>
        <time>2021-06-27T11:08:17.071Z</time>
      </trkpt>
      <trkpt lat="45.56286" lon="6.06388">
        <ele>1382</ele>
        <time>2021-06-27T11:08:18.071Z</time>
      </trkpt>
      <trkpt lat="45.56287" lon="6.06388">
        <ele>1382</ele>
        <time>2021-06-27T11:08:19.071Z</time>
      </trkpt>
      <trkpt lat="45.56288" lon="6.06388">
        <ele>1383</ele>
        <time>2021-06-27T11:08:20.071Z</time>
      </trkpt>
      <trkpt lat="45.56288" lon="6.06388">
        <ele>1383</ele>
        <time>2021-06-27T11:08:21.070Z</time>
      </trkpt>
      <trkpt lat="45.56289" lon="6.06389">
        <ele>1384</ele>
        <time>2021-06-27T11:08:22.071Z</time>
      </trkpt>
      <trkpt lat="45.5629" lon="6.06389">
        <ele>1384</ele>
        <time>2021-06-27T11:08:23.071Z</time>
      </trkpt>
      <trkpt lat="45.5629" lon="6.0639">
        <ele>1385</ele>
        <time>2021-06-27T11:08:24.071Z</time>
      </trkpt>
      <trkpt lat="45.5629" lon="6.0639">
        <ele>1385</ele>
        <time>2021-06-27T11:08:25.071Z</time>
      </trkpt>
      <trkpt lat="45.5629" lon="6.06391">
        <ele>1386</ele>
        <time>2021-06-27T11:08:26.071Z</time>
      </trkpt>
      <trkpt lat="45.5629" lon="6.06391">
        <ele>1386</ele>
        <time>2021-06-27T11:08:27.071Z</time>
      </trkpt>
      <trkpt lat="45.56289" lon="6.06392">
        <ele>1387</ele>
        <time>2021-06-27T11:08:28.071Z</time>
      </trkpt>
      <trkpt lat="45.56289" lon="6.06393">
        <ele>1387</ele>
        <time>2021-06-27T11:08:29.071Z</time>
      </trkpt>
      <trkpt lat="45.56288" lon="6.06394">
        <ele>1388</ele>
        <time>2021-06-27T11:08:30.070Z</time>
      </trkpt>
      <trkpt lat="45.56288" lon="6.06394">
        <ele>1389</ele>
        <time>2021-06-27T11:08:31.071Z</time>
      </trkpt>
      <trkpt lat="45.56288" lon="6.06395">
        <ele>1390</ele>
        <time>2021-06-27T11:08:32.071Z</time>
      </trkpt>
      <trkpt lat="45.56287" lon="6.06395">
        <ele>1390</ele>
        <time>2021-06-27T11:08:33.070Z</time>
      </trkpt>
      <trkpt lat="45.56286" lon="6.06395">
        <ele>1391</ele>
        <time>2021-06-27T11:08:34.071Z</time>
      </trkpt>
      <trkpt lat="45.56285" lon="6.06396">
        <ele>1391</ele>
        <time>2021-06-27T11:08:35.070Z</time>
      </trkpt>
      <trkpt lat="45.56284" lon="6.06397">
        <ele>1392</ele>
        <time>2021-06-27T11:08:36.070Z</time>
      </trkpt>
      <trkpt lat="45.56284" lon="6.06398">
        <ele>1393</ele>
        <time>2021-06-27T11:08:37.070Z</time>
      </trkpt>
      <trkpt lat="45.56284" lon="6.06398">
        <ele>1393</ele>
        <time>2021-06-27T11:08:38.071Z</time>
      </trkpt>
      <trkpt lat="45.56284" lon="6.06399">
        <ele>1394</ele>
        <time>2021-06-27T11:08:39.071Z</time>
      </trkpt>
      <trkpt lat="45.56284" lon="6.064">
        <ele>1395</ele>
        <time>2021-06-27T11:08:40.070Z</time>
      </trkpt>
      <trkpt lat="45.56284" lon="6.06401">
        <ele>1396</ele>
        <time>2021-06-27T11:08:41.071Z</time>
      </trkpt>
      <trkpt lat="45.56284" lon="6.06401">
        <ele>1396</ele>
        <time>2021-06-27T11:08:42.071Z</time>
      </trkpt>
      <trkpt lat="45.56283" lon="6.06401">
        <ele>1397</ele>
        <time>2021-06-27T11:08:43.071Z</time>
      </trkpt>
      <trkpt lat="45.56283" lon="6.06401">
        <ele>1397</ele>
        <time>2021-06-27T11:08:44.071Z</time>
      </trkpt>
      <trkpt lat="45.56283" lon="6.06402">
        <ele>1398</ele>
        <time>2021-06-27T11:08:45.071Z</time>
      </trkpt>
      <trkpt lat="45.56282" lon="6.06401">
        <ele>1398</ele>
        <time>2021-06-27T11:08:46.071Z</time>
      </trkpt>
      <trkpt lat="45.56283" lon="6.06401">
        <ele>1399</ele>
        <time>2021-06-27T11:08:47.071Z</time>
      </trkpt>
      <trkpt lat="45.56283" lon="6.06402">
        <ele>1399</ele>
        <time>2021-06-27T11:08:48.071Z</time>
      </trkpt>
      <trkpt lat="45.56284" lon="6.06402">
        <ele>1399</ele>
        <time>2021-06-27T11:08:49.071Z</time>
      </trkpt>
      <trkpt lat="45.56285" lon="6.06402">
        <ele>1399</ele>
        <time>2021-06-27T11:08:50.070Z</time>
      </trkpt>
      <trkpt lat="45.56286" lon="6.06403">
        <ele>1399</ele>
        <time>2021-06-27T11:08:51.070Z</time>
      </trkpt>
      <trkpt lat="45.56287" lon="6.06404">
        <ele>1399</ele>
        <time>2021-06-27T11:08:52.071Z</time>
      </trkpt>
      <trkpt lat="45.56287" lon="6.06405">
        <ele>1399</ele>
        <time>2021-06-27T11:08:53.071Z</time>
      </trkpt>
      <trkpt lat="45.56288" lon="6.06405">
        <ele>1399</ele>
        <time>2021-06-27T11:08:54.071Z</time>
      </trkpt>
      <trkpt lat="45.56289" lon="6.06405">
        <ele>1399</ele>
        <time>2021-06-27T11:08:55.071Z</time>
      </trkpt>
      <trkpt lat="45.5629" lon="6.06405">
        <ele>1398</ele>
        <time>2021-06-27T11:08:56.071Z</time>
      </trkpt>
      <trkpt lat="45.5629" lon="6.06406">
        <ele>1398</ele>
        <time>2021-06-27T11:08:57.071Z</time>
      </trkpt>
      <trkpt lat="45.5629" lon="6.06406">
        <ele>1397</ele>
        <time>2021-06-27T11:08:58.071Z</time>
      </trkpt>
      <trkpt lat="45.5629" lon="6.06407">
        <ele>1397</ele>
        <time>2021-06-27T11:08:59.071Z</time>
      </trkpt>
      <trkpt lat="45.5629" lon="6.06407">
        <ele>1397</ele>
        <time>2021-06-27T11:09:00.071Z</time>
      </trkpt>
      <trkpt lat="45.56289" lon="6.06408">
        <ele>1397</ele>
        <time>2021-06-27T11:09:01.071Z</time>
      </trkpt>
      <trkpt lat="45.56289" lon="6.06408">
        <ele>1398</ele>
        <time>2021-06-27T11:09:02.071Z</time>
      </trkpt>
      <trkpt lat="45.56288" lon="6.06408">
        <ele>1398</ele>
        <time>2021-06-27T11:09:03.071Z</time>
      </trkpt>
      <trkpt lat="45.56289" lon="6.06408">
        <ele>1398</ele>
        <time>2021-06-27T11:09:04.070Z</time>
      </trkpt>
      <trkpt lat="45.56289" lon="6.06409">
        <ele>1398</ele>
        <time>2021-06-27T11:09:05.071Z</time>
      </trkpt>
      <trkpt lat="45.56289" lon="6.06409">
        <ele>1398</ele>
        <time>2021-06-27T11:09:06.071Z</time>
      </trkpt>
      <trkpt lat="45.5629" lon="6.0641">
        <ele>1398</ele>
        <time>2021-06-27T11:09:07.071Z</time>
      </trkpt>
      <trkpt lat="45.5629" lon="6.0641">
        <ele>1398</ele>
        <time>2021-06-27T11:09:08.070Z</time>
      </trkpt>
      <trkpt lat="45.56291" lon="6.06409">
        <ele>1398</ele>
        <time>2021-06-27T11:09:09.070Z</time>
      </trkpt>
      <trkpt lat="45.56291" lon="6.0641">
        <ele>1398</ele>
        <time>2021-06-27T11:09:10.070Z</time>
      </trkpt>
      <trkpt lat="45.56291" lon="6.0641">
        <ele>1398</ele>
        <time>2021-06-27T11:09:11.071Z</time>
      </trkpt>
      <trkpt lat="45.56292" lon="6.06411">
        <ele>1399</ele>
        <time>2021-06-27T11:09:12.071Z</time>
      </trkpt>
      <trkpt lat="45.56292" lon="6.06413">
        <ele>1399</ele>
        <time>2021-06-27T11:09:13.071Z</time>
      </trkpt>
      <trkpt lat="45.56293" lon="6.06414">
        <ele>1399</ele>
        <time>2021-06-27T11:09:14.071Z</time>
      </trkpt>
      <trkpt lat="45.56292" lon="6.06414">
        <ele>1399</ele>
        <time>2021-06-27T11:09:15.070Z</time>
      </trkpt>
      <trkpt lat="45.56292" lon="6.06413">
        <ele>1400</ele>
        <time>2021-06-27T11:09:16.071Z</time>
      </trkpt>
      <trkpt lat="45.56291" lon="6.06413">
        <ele>1400</ele>
        <time>2021-06-27T11:09:17.070Z</time>
      </trkpt>
      <trkpt lat="45.5629" lon="6.06414">
        <ele>1400</ele>
        <time>2021-06-27T11:09:18.071Z</time>
      </trkpt>
      <trkpt lat="45.5629" lon="6.06415">
        <ele>1400</ele>
        <time>2021-06-27T11:09:19.071Z</time>
      </trkpt>
      <trkpt lat="45.56291" lon="6.06416">
        <ele>1400</ele>
        <time>2021-06-27T11:09:20.070Z</time>
      </trkpt>
      <trkpt lat="45.56291" lon="6.06417">
        <ele>1400</ele>
        <time>2021-06-27T11:09:21.070Z</time>
      </trkpt>
      <trkpt lat="45.56291" lon="6.06417">
        <ele>1401</ele>
        <time>2021-06-27T11:09:22.071Z</time>
      </trkpt>
      <trkpt lat="45.5629" lon="6.06417">
        <ele>1401</ele>
        <time>2021-06-27T11:09:23.071Z</time>
      </trkpt>
      <trkpt lat="45.56289" lon="6.06416">
        <ele>1402</ele>
        <time>2021-06-27T11:09:24.071Z</time>
      </trkpt>
      <trkpt lat="45.56289" lon="6.06417">
        <ele>1402</ele>
        <time>2021-06-27T11:09:25.070Z</time>
      </trkpt>
      <trkpt lat="45.56289" lon="6.06418">
        <ele>1403</ele>
        <time>2021-06-27T11:09:26.070Z</time>
      </trkpt>
      <trkpt lat="45.56289" lon="6.06419">
        <ele>1403</ele>
        <time>2021-06-27T11:09:27.071Z</time>
      </trkpt>
      <trkpt lat="45.56289" lon="6.06419">
        <ele>1404</ele>
        <time>2021-06-27T11:09:28.071Z</time>
      </trkpt>
      <trkpt lat="45.56289" lon="6.0642">
        <ele>1404</ele>
        <time>2021-06-27T11:09:29.071Z</time>
      </trkpt>
      <trkpt lat="45.56288" lon="6.06421">
        <ele>1405</ele>
        <time>2021-06-27T11:09:30.071Z</time>
      </trkpt>
      <trkpt lat="45.56288" lon="6.06421">
        <ele>1405</ele>
        <time>2021-06-27T11:09:31.070Z</time>
      </trkpt>
      <trkpt lat="45.56287" lon="6.06421">
        <ele>1405</ele>
        <time>2021-06-27T11:09:32.071Z</time>
      </trkpt>
      <trkpt lat="45.56286" lon="6.06421">
        <ele>1405</ele>
        <time>2021-06-27T11:09:33.071Z</time>
      </trkpt>
      <trkpt lat="45.56286" lon="6.06422">
        <ele>1405</ele>
        <time>2021-06-27T11:09:34.071Z</time>
      </trkpt>
      <trkpt lat="45.56285" lon="6.06421">
        <ele>1405</ele>
        <time>2021-06-27T11:09:35.071Z</time>
      </trkpt>
      <trkpt lat="45.56285" lon="6.06421">
        <ele>1404</ele>
        <time>2021-06-27T11:09:36.070Z</time>
      </trkpt>
      <trkpt lat="45.56284" lon="6.06421">
        <ele>1404</ele>
        <time>2021-06-27T11:09:37.071Z</time>
      </trkpt>
      <trkpt lat="45.56283" lon="6.06421">
        <ele>1404</ele>
        <time>2021-06-27T11:09:38.071Z</time>
      </trkpt>
      <trkpt lat="45.56283" lon="6.06422">
        <ele>1404</ele>
        <time>2021-06-27T11:09:39.071Z</time>
      </trkpt>
      <trkpt lat="45.56283" lon="6.06422">
        <ele>1403</ele>
        <time>2021-06-27T11:09:40.071Z</time>
      </trkpt>
      <trkpt lat="45.56282" lon="6.06423">
        <ele>1403</ele>
        <time>2021-06-27T11:09:41.070Z</time>
      </trkpt>
      <trkpt lat="45.56282" lon="6.06423">
        <ele>1403</ele>
        <time>2021-06-27T11:09:42.071Z</time>
      </trkpt>
      <trkpt lat="45.56281" lon="6.06423">
        <ele>1404</ele>
        <time>2021-06-27T11:09:43.071Z</time>
      </trkpt>
      <trkpt lat="45.56281" lon="6.06423">
        <ele>1404</ele>
        <time>2021-06-27T11:09:44.071Z</time>
      </trkpt>
      <trkpt lat="45.56282" lon="6.06423">
        <ele>1404</ele>
        <time>2021-06-27T11:09:45.071Z</time>
      </trkpt>
      <trkpt lat="45.56282" lon="6.06423">
        <ele>1405</ele>
        <time>2021-06-27T11:09:46.071Z</time>
      </trkpt>
      <trkpt lat="45.56283" lon="6.06424">
        <ele>1405</ele>
        <time>2021-06-27T11:09:47.070Z</time>
      </trkpt>
      <trkpt lat="45.56284" lon="6.06424">
        <ele>1405</ele>
        <time>2021-06-27T11:09:48.071Z</time>
      </trkpt>
      <trkpt lat="45.56284" lon="6.06425">
        <ele>1406</ele>
        <time>2021-06-27T11:09:49.071Z</time>
      </trkpt>
      <trkpt lat="45.56285" lon="6.06425">
        <ele>1406</ele>
        <time>2021-06-27T11:09:50.071Z</time>
      </trkpt>
      <trkpt lat="45.56286" lon="6.06426">
        <ele>1407</ele>
        <time>2021-06-27T11:09:51.071Z</time>
      </trkpt>
      <trkpt lat="45.56286" lon="6.06426">
        <ele>1407</ele>
        <time>2021-06-27T11:09:52.071Z</time>
      </trkpt>
      <trkpt lat="45.56286" lon="6.06426">
        <ele>1407</ele>
        <time>2021-06-27T11:09:53.071Z</time>
      </trkpt>
      <trkpt lat="45.56286" lon="6.06427">
        <ele>1407</ele>
        <time>2021-06-27T11:09:54.070Z</time>
      </trkpt>
      <trkpt lat="45.56287" lon="6.06428">
        <ele>1408</ele>
        <time>2021-06-27T11:09:55.071Z</time>
      </trkpt>
      <trkpt lat="45.56288" lon="6.06429">
        <ele>1408</ele>
        <time>2021-06-27T11:09:56.071Z</time>
      </trkpt>
      <trkpt lat="45.56288" lon="6.06428">
        <ele>1409</ele>
        <time>2021-06-27T11:09:57.071Z</time>
      </trkpt>
      <trkpt lat="45.56288" lon="6.06427">
        <ele>1409</ele>
        <time>2021-06-27T11:09:58.071Z</time>
      </trkpt>
      <trkpt lat="45.56289" lon="6.06427">
        <ele>1409</ele>
        <time>2021-06-27T11:09:59.071Z</time>
      </trkpt>
      <trkpt lat="45.56288" lon="6.06428">
        <ele>1409</ele>
        <time>2021-06-27T11:10:00.070Z</time>
      </trkpt>
      <trkpt lat="45.56288" lon="6.06429">
        <ele>1409</ele>
        <time>2021-06-27T11:10:01.071Z</time>
      </trkpt>
      <trkpt lat="45.56288" lon="6.0643">
        <ele>1409</ele>
        <time>2021-06-27T11:10:02.071Z</time>
      </trkpt>
      <trkpt lat="45.56288" lon="6.06431">
        <ele>1409</ele>
        <time>2021-06-27T11:10:03.071Z</time>
      </trkpt>
      <trkpt lat="45.56288" lon="6.06431">
        <ele>1409</ele>
        <time>2021-06-27T11:10:04.071Z</time>
      </trkpt>
      <trkpt lat="45.56288" lon="6.06431">
        <ele>1410</ele>
        <time>2021-06-27T11:10:05.071Z</time>
      </trkpt>
      <trkpt lat="45.56288" lon="6.06432">
        <ele>1411</ele>
        <time>2021-06-27T11:10:06.071Z</time>
      </trkpt>
      <trkpt lat="45.56287" lon="6.06432">
        <ele>1411</ele>
        <time>2021-06-27T11:10:07.071Z</time>
      </trkpt>
      <trkpt lat="45.56286" lon="6.06432">
        <ele>1412</ele>
        <time>2021-06-27T11:10:08.071Z</time>
      </trkpt>
      <trkpt lat="45.56286" lon="6.06433">
        <ele>1413</ele>
        <time>2021-06-27T11:10:09.071Z</time>
      </trkpt>
      <trkpt lat="45.56286" lon="6.06433">
        <ele>1414</ele>
        <time>2021-06-27T11:10:10.070Z</time>
      </trkpt>
      <trkpt lat="45.56286" lon="6.06434">
        <ele>1415</ele>
        <time>2021-06-27T11:10:11.071Z</time>
      </trkpt>
      <trkpt lat="45.56285" lon="6.06434">
        <ele>1415</ele>
        <time>2021-06-27T11:10:12.071Z</time>
      </trkpt>
      <trkpt lat="45.56285" lon="6.06435">
        <ele>1416</ele>
        <time>2021-06-27T11:10:13.071Z</time>
      </trkpt>
      <trkpt lat="45.56284" lon="6.06435">
        <ele>1416</ele>
        <time>2021-06-27T11:10:14.071Z</time>
      </trkpt>
      <trkpt lat="45.56285" lon="6.06435">
        <ele>1417</ele>
        <time>2021-06-27T11:10:15.071Z</time>
      </trkpt>
      <trkpt lat="45.56284" lon="6.06434">
        <ele>1417</ele>
        <time>2021-06-27T11:10:16.070Z</time>
      </trkpt>
      <trkpt lat="45.56284" lon="6.06433">
        <ele>1418</ele>
        <time>2021-06-27T11:10:17.071Z</time>
      </trkpt>
      <trkpt lat="45.56284" lon="6.06433">
        <ele>1419</ele>
        <time>2021-06-27T11:10:18.071Z</time>
      </trkpt>
      <trkpt lat="45.56283" lon="6.06432">
        <ele>1419</ele>
        <time>2021-06-27T11:10:19.071Z</time>
      </trkpt>
      <trkpt lat="45.56282" lon="6.06431">
        <ele>1420</ele>
        <time>2021-06-27T11:10:20.071Z</time>
      </trkpt>
      <trkpt lat="45.56282" lon="6.06432">
        <ele>1420</ele>
        <time>2021-06-27T11:10:21.070Z</time>
      </trkpt>
      <trkpt lat="45.56281" lon="6.06433">
        <ele>1420</ele>
        <time>2021-06-27T11:10:22.071Z</time>
      </trkpt>
      <trkpt lat="45.5628" lon="6.06432">
        <ele>1421</ele>
        <time>2021-06-27T11:10:23.071Z</time>
      </trkpt>
      <trkpt lat="45.56279" lon="6.06432">
        <ele>1421</ele>
        <time>2021-06-27T11:10:24.071Z</time>
      </trkpt>
      <trkpt lat="45.56278" lon="6.06432">
        <ele>1421</ele>
        <time>2021-06-27T11:10:25.071Z</time>
      </trkpt>
      <trkpt lat="45.56277" lon="6.06433">
        <ele>1421</ele>
        <time>2021-06-27T11:10:26.070Z</time>
      </trkpt>
      <trkpt lat="45.56277" lon="6.06432">
        <ele>1422</ele>
        <time>2021-06-27T11:10:27.071Z</time>
      </trkpt>
      <trkpt lat="45.56277" lon="6.06431">
        <ele>1422</ele>
        <time>2021-06-27T11:10:28.071Z</time>
      </trkpt>
      <trkpt lat="45.56277" lon="6.0643">
        <ele>1422</ele>
        <time>2021-06-27T11:10:29.071Z</time>
      </trkpt>
      <trkpt lat="45.56277" lon="6.0643">
        <ele>1422</ele>
        <time>2021-06-27T11:10:30.071Z</time>
      </trkpt>
      <trkpt lat="45.56277" lon="6.06429">
        <ele>1422</ele>
        <time>2021-06-27T11:10:31.071Z</time>
      </trkpt>
      <trkpt lat="45.56277" lon="6.06427">
        <ele>1422</ele>
        <time>2021-06-27T11:10:32.071Z</time>
      </trkpt>
      <trkpt lat="45.56277" lon="6.06427">
        <ele>1422</ele>
        <time>2021-06-27T11:10:33.070Z</time>
      </trkpt>
      <trkpt lat="45.56277" lon="6.06427">
        <ele>1423</ele>
        <time>2021-06-27T11:10:34.071Z</time>
      </trkpt>
      <trkpt lat="45.56277" lon="6.06427">
        <ele>1424</ele>
        <time>2021-06-27T11:10:35.071Z</time>
      </trkpt>
      <trkpt lat="45.56277" lon="6.06427">
        <ele>1424</ele>
        <time>2021-06-27T11:10:36.071Z</time>
      </trkpt>
      <trkpt lat="45.56277" lon="6.06426">
        <ele>1425</ele>
        <time>2021-06-27T11:10:37.071Z</time>
      </trkpt>
      <trkpt lat="45.56277" lon="6.06426">
        <ele>1426</ele>
        <time>2021-06-27T11:10:38.071Z</time>
      </trkpt>
      <trkpt lat="45.56278" lon="6.06426">
        <ele>1426</ele>
        <time>2021-06-27T11:10:39.070Z</time>
      </trkpt>
      <trkpt lat="45.56278" lon="6.06426">
        <ele>1426</ele>
        <time>2021-06-27T11:10:40.071Z</time>
      </trkpt>
      <trkpt lat="45.56278" lon="6.06426">
        <ele>1426</ele>
        <time>2021-06-27T11:10:41.071Z</time>
      </trkpt>
      <trkpt lat="45.56278" lon="6.06426">
        <ele>1426</ele>
        <time>2021-06-27T11:10:42.071Z</time>
      </trkpt>
      <trkpt lat="45.56278" lon="6.06425">
        <ele>1427</ele>
        <time>2021-06-27T11:10:43.071Z</time>
      </trkpt>
      <trkpt lat="45.56278" lon="6.06425">
        <ele>1426</ele>
        <time>2021-06-27T11:10:44.071Z</time>
      </trkpt>
      <trkpt lat="45.56277" lon="6.06425">
        <ele>1427</ele>
        <time>2021-06-27T11:10:45.071Z</time>
      </trkpt>
      <trkpt lat="45.56277" lon="6.06425">
        <ele>1427</ele>
        <time>2021-06-27T11:10:46.071Z</time>
      </trkpt>
      <trkpt lat="45.56277" lon="6.06425">
        <ele>1426</ele>
        <time>2021-06-27T11:10:47.071Z</time>
      </trkpt>
      <trkpt lat="45.56277" lon="6.06426">
        <ele>1426</ele>
        <time>2021-06-27T11:10:48.070Z</time>
      </trkpt>
      <trkpt lat="45.56278" lon="6.06426">
        <ele>1426</ele>
        <time>2021-06-27T11:10:49.071Z</time>
      </trkpt>
      <trkpt lat="45.56278" lon="6.06426">
        <ele>1426</ele>
        <time>2021-06-27T11:10:50.071Z</time>
      </trkpt>
      <trkpt lat="45.56277" lon="6.06426">
        <ele>1425</ele>
        <time>2021-06-27T11:10:51.071Z</time>
      </trkpt>
      <trkpt lat="45.56276" lon="6.06425">
        <ele>1425</ele>
        <time>2021-06-27T11:10:52.071Z</time>
      </trkpt>
      <trkpt lat="45.56276" lon="6.06425">
        <ele>1424</ele>
        <time>2021-06-27T11:10:53.071Z</time>
      </trkpt>
      <trkpt lat="45.56276" lon="6.06426">
        <ele>1424</ele>
        <time>2021-06-27T11:10:54.071Z</time>
      </trkpt>
      <trkpt lat="45.56276" lon="6.06426">
        <ele>1423</ele>
        <time>2021-06-27T11:10:55.070Z</time>
      </trkpt>
      <trkpt lat="45.56276" lon="6.06425">
        <ele>1423</ele>
        <time>2021-06-27T11:10:56.070Z</time>
      </trkpt>
      <trkpt lat="45.56275" lon="6.06424">
        <ele>1422</ele>
        <time>2021-06-27T11:10:57.070Z</time>
      </trkpt>
      <trkpt lat="45.56275" lon="6.06424">
        <ele>1421</ele>
        <time>2021-06-27T11:10:58.071Z</time>
      </trkpt>
      <trkpt lat="45.56274" lon="6.06425">
        <ele>1421</ele>
        <time>2021-06-27T11:10:59.071Z</time>
      </trkpt>
      <trkpt lat="45.56274" lon="6.06425">
        <ele>1420</ele>
        <time>2021-06-27T11:11:00.071Z</time>
      </trkpt>
      <trkpt lat="45.56274" lon="6.06425">
        <ele>1420</ele>
        <time>2021-06-27T11:11:01.070Z</time>
      </trkpt>
      <trkpt lat="45.56273" lon="6.06425">
        <ele>1420</ele>
        <time>2021-06-27T11:11:02.070Z</time>
      </trkpt>
      <trkpt lat="45.56272" lon="6.06424">
        <ele>1420</ele>
        <time>2021-06-27T11:11:03.071Z</time>
      </trkpt>
      <trkpt lat="45.56272" lon="6.06424">
        <ele>1420</ele>
        <time>2021-06-27T11:11:04.071Z</time>
      </trkpt>
      <trkpt lat="45.56272" lon="6.06424">
        <ele>1420</ele>
        <time>2021-06-27T11:11:05.071Z</time>
      </trkpt>
      <trkpt lat="45.56271" lon="6.06423">
        <ele>1420</ele>
        <time>2021-06-27T11:11:06.070Z</time>
      </trkpt>
      <trkpt lat="45.56271" lon="6.06423">
        <ele>1420</ele>
        <time>2021-06-27T11:11:07.070Z</time>
      </trkpt>
      <trkpt lat="45.56272" lon="6.06423">
        <ele>1421</ele>
        <time>2021-06-27T11:11:08.071Z</time>
      </trkpt>
      <trkpt lat="45.56272" lon="6.06423">
        <ele>1421</ele>
        <time>2021-06-27T11:11:09.071Z</time>
      </trkpt>
      <trkpt lat="45.56272" lon="6.06423">
        <ele>1421</ele>
        <time>2021-06-27T11:11:10.070Z</time>
      </trkpt>
      <trkpt lat="45.56272" lon="6.06422">
        <ele>1421</ele>
        <time>2021-06-27T11:11:11.071Z</time>
      </trkpt>
      <trkpt lat="45.56273" lon="6.06422">
        <ele>1420</ele>
        <time>2021-06-27T11:11:12.071Z</time>
      </trkpt>
      <trkpt lat="45.56273" lon="6.06422">
        <ele>1420</ele>
        <time>2021-06-27T11:11:13.070Z</time>
      </trkpt>
      <trkpt lat="45.56273" lon="6.06421">
        <ele>1420</ele>
        <time>2021-06-27T11:11:14.070Z</time>
      </trkpt>
      <trkpt lat="45.56272" lon="6.0642">
        <ele>1420</ele>
        <time>2021-06-27T11:11:15.070Z</time>
      </trkpt>
      <trkpt lat="45.56272" lon="6.0642">
        <ele>1420</ele>
        <time>2021-06-27T11:11:16.071Z</time>
      </trkpt>
      <trkpt lat="45.56272" lon="6.0642">
        <ele>1421</ele>
        <time>2021-06-27T11:11:17.071Z</time>
      </trkpt>
      <trkpt lat="45.56271" lon="6.0642">
        <ele>1421</ele>
        <time>2021-06-27T11:11:18.070Z</time>
      </trkpt>
      <trkpt lat="45.5627" lon="6.06419">
        <ele>1421</ele>
        <time>2021-06-27T11:11:19.071Z</time>
      </trkpt>
      <trkpt lat="45.5627" lon="6.06419">
        <ele>1421</ele>
        <time>2021-06-27T11:11:20.071Z</time>
      </trkpt>
      <trkpt lat="45.56271" lon="6.06419">
        <ele>1422</ele>
        <time>2021-06-27T11:11:21.071Z</time>
      </trkpt>
      <trkpt lat="45.56272" lon="6.06419">
        <ele>1422</ele>
        <time>2021-06-27T11:11:22.071Z</time>
      </trkpt>
      <trkpt lat="45.56272" lon="6.06419">
        <ele>1423</ele>
        <time>2021-06-27T11:11:23.071Z</time>
      </trkpt>
      <trkpt lat="45.56272" lon="6.06418">
        <ele>1423</ele>
        <time>2021-06-27T11:11:24.071Z</time>
      </trkpt>
      <trkpt lat="45.56272" lon="6.06417">
        <ele>1423</ele>
        <time>2021-06-27T11:11:25.071Z</time>
      </trkpt>
      <trkpt lat="45.56272" lon="6.06417">
        <ele>1422</ele>
        <time>2021-06-27T11:11:26.071Z</time>
      </trkpt>
      <trkpt lat="45.56272" lon="6.06415">
        <ele>1422</ele>
        <time>2021-06-27T11:11:27.071Z</time>
      </trkpt>
      <trkpt lat="45.56272" lon="6.06415">
        <ele>1422</ele>
        <time>2021-06-27T11:11:28.071Z</time>
      </trkpt>
      <trkpt lat="45.56272" lon="6.06415">
        <ele>1421</ele>
        <time>2021-06-27T11:11:29.071Z</time>
      </trkpt>
      <trkpt lat="45.56272" lon="6.06416">
        <ele>1421</ele>
        <time>2021-06-27T11:11:30.071Z</time>
      </trkpt>
      <trkpt lat="45.56272" lon="6.06416">
        <ele>1420</ele>
        <time>2021-06-27T11:11:31.071Z</time>
      </trkpt>
      <trkpt lat="45.56272" lon="6.06415">
        <ele>1420</ele>
        <time>2021-06-27T11:11:32.071Z</time>
      </trkpt>
      <trkpt lat="45.56272" lon="6.06415">
        <ele>1420</ele>
        <time>2021-06-27T11:11:33.071Z</time>
      </trkpt>
      <trkpt lat="45.56271" lon="6.06415">
        <ele>1419</ele>
        <time>2021-06-27T11:11:34.071Z</time>
      </trkpt>
      <trkpt lat="45.56271" lon="6.06415">
        <ele>1419</ele>
        <time>2021-06-27T11:11:35.071Z</time>
      </trkpt>
      <trkpt lat="45.56271" lon="6.06415">
        <ele>1418</ele>
        <time>2021-06-27T11:11:36.070Z</time>
      </trkpt>
      <trkpt lat="45.56271" lon="6.06416">
        <ele>1418</ele>
        <time>2021-06-27T11:11:37.071Z</time>
      </trkpt>
      <trkpt lat="45.56271" lon="6.06416">
        <ele>1418</ele>
        <time>2021-06-27T11:11:38.070Z</time>
      </trkpt>
      <trkpt lat="45.56271" lon="6.06416">
        <ele>1418</ele>
        <time>2021-06-27T11:11:39.070Z</time>
      </trkpt>
      <trkpt lat="45.56271" lon="6.06416">
        <ele>1418</ele>
        <time>2021-06-27T11:11:40.070Z</time>
      </trkpt>
      <trkpt lat="45.56271" lon="6.06416">
        <ele>1418</ele>
        <time>2021-06-27T11:11:41.071Z</time>
      </trkpt>
      <trkpt lat="45.56271" lon="6.06417">
        <ele>1418</ele>
        <time>2021-06-27T11:11:42.070Z</time>
      </trkpt>
      <trkpt lat="45.56271" lon="6.06417">
        <ele>1418</ele>
        <time>2021-06-27T11:11:43.071Z</time>
      </trkpt>
      <trkpt lat="45.56271" lon="6.06417">
        <ele>1418</ele>
        <time>2021-06-27T11:11:44.070Z</time>
      </trkpt>
      <trkpt lat="45.56271" lon="6.06417">
        <ele>1418</ele>
        <time>2021-06-27T11:11:45.071Z</time>
      </trkpt>
      <trkpt lat="45.56271" lon="6.06417">
        <ele>1418</ele>
        <time>2021-06-27T11:11:46.071Z</time>
      </trkpt>
      <trkpt lat="45.56271" lon="6.06417">
        <ele>1418</ele>
        <time>2021-06-27T11:11:47.071Z</time>
      </trkpt>
      <trkpt lat="45.56271" lon="6.06418">
        <ele>1418</ele>
        <time>2021-06-27T11:11:48.071Z</time>
      </trkpt>
      <trkpt lat="45.56271" lon="6.06418">
        <ele>1419</ele>
        <time>2021-06-27T11:11:49.070Z</time>
      </trkpt>
      <trkpt lat="45.56271" lon="6.06418">
        <ele>1419</ele>
        <time>2021-06-27T11:11:50.071Z</time>
      </trkpt>
      <trkpt lat="45.56271" lon="6.06418">
        <ele>1418</ele>
        <time>2021-06-27T11:11:51.071Z</time>
      </trkpt>
      <trkpt lat="45.56271" lon="6.06419">
        <ele>1418</ele>
        <time>2021-06-27T11:11:52.071Z</time>
      </trkpt>
      <trkpt lat="45.56271" lon="6.06419">
        <ele>1417</ele>
        <time>2021-06-27T11:11:53.071Z</time>
      </trkpt>
      <trkpt lat="45.56271" lon="6.06419">
        <ele>1417</ele>
        <time>2021-06-27T11:11:54.071Z</time>
      </trkpt>
      <trkpt lat="45.5627" lon="6.0642">
        <ele>1416</ele>
        <time>2021-06-27T11:11:55.070Z</time>
      </trkpt>
      <trkpt lat="45.5627" lon="6.0642">
        <ele>1416</ele>
        <time>2021-06-27T11:11:56.071Z</time>
      </trkpt>
      <trkpt lat="45.5627" lon="6.0642">
        <ele>1416</ele>
        <time>2021-06-27T11:11:57.071Z</time>
      </trkpt>
      <trkpt lat="45.5627" lon="6.0642">
        <ele>1416</ele>
        <time>2021-06-27T11:11:58.071Z</time>
      </trkpt>
      <trkpt lat="45.5627" lon="6.0642">
        <ele>1416</ele>
        <time>2021-06-27T11:11:59.071Z</time>
      </trkpt>
      <trkpt lat="45.5627" lon="6.0642">
        <ele>1416</ele>
        <time>2021-06-27T11:12:00.070Z</time>
      </trkpt>
      <trkpt lat="45.5627" lon="6.0642">
        <ele>1416</ele>
        <time>2021-06-27T11:12:01.071Z</time>
      </trkpt>
      <trkpt lat="45.5627" lon="6.0642">
        <ele>1416</ele>
        <time>2021-06-27T11:12:02.071Z</time>
      </trkpt>
      <trkpt lat="45.56271" lon="6.06422">
        <ele>1416</ele>
        <time>2021-06-27T11:12:03.071Z</time>
      </trkpt>
      <trkpt lat="45.56271" lon="6.06423">
        <ele>1416</ele>
        <time>2021-06-27T11:12:04.071Z</time>
      </trkpt>
      <trkpt lat="45.56271" lon="6.06425">
        <ele>1415</ele>
        <time>2021-06-27T11:12:05.070Z</time>
      </trkpt>
      <trkpt lat="45.56272" lon="6.06426">
        <ele>1415</ele>
        <time>2021-06-27T11:12:06.071Z</time>
      </trkpt>
      <trkpt lat="45.56272" lon="6.06426">
        <ele>1414</ele>
        <time>2021-06-27T11:12:07.071Z</time>
      </trkpt>
      <trkpt lat="45.56272" lon="6.06426">
        <ele>1414</ele>
        <time>2021-06-27T11:12:08.071Z</time>
      </trkpt>
      <trkpt lat="45.56272" lon="6.06426">
        <ele>1413</ele>
        <time>2021-06-27T11:12:09.071Z</time>
      </trkpt>
      <trkpt lat="45.56272" lon="6.06425">
        <ele>1413</ele>
        <time>2021-06-27T11:12:10.071Z</time>
      </trkpt>
      <trkpt lat="45.56272" lon="6.06425">
        <ele>1413</ele>
        <time>2021-06-27T11:12:11.070Z</time>
      </trkpt>
      <trkpt lat="45.56272" lon="6.06424">
        <ele>1413</ele>
        <time>2021-06-27T11:12:12.071Z</time>
      </trkpt>
      <trkpt lat="45.56272" lon="6.06424">
        <ele>1413</ele>
        <time>2021-06-27T11:12:13.071Z</time>
      </trkpt>
      <trkpt lat="45.56273" lon="6.06424">
        <ele>1414</ele>
        <time>2021-06-27T11:12:14.071Z</time>
      </trkpt>
      <trkpt lat="45.56273" lon="6.06423">
        <ele>1414</ele>
        <time>2021-06-27T11:12:15.070Z</time>
      </trkpt>
      <trkpt lat="45.56273" lon="6.06423">
        <ele>1415</ele>
        <time>2021-06-27T11:12:16.071Z</time>
      </trkpt>
      <trkpt lat="45.56273" lon="6.06423">
        <ele>1415</ele>
        <time>2021-06-27T11:12:17.071Z</time>
      </trkpt>
      <trkpt lat="45.56273" lon="6.06423">
        <ele>1416</ele>
        <time>2021-06-27T11:12:18.071Z</time>
      </trkpt>
      <trkpt lat="45.56272" lon="6.06422">
        <ele>1416</ele>
        <time>2021-06-27T11:12:19.071Z</time>
      </trkpt>
      <trkpt lat="45.56272" lon="6.06422">
        <ele>1417</ele>
        <time>2021-06-27T11:12:20.071Z</time>
      </trkpt>
      <trkpt lat="45.56272" lon="6.06422">
        <ele>1417</ele>
        <time>2021-06-27T11:12:21.071Z</time>
      </trkpt>
      <trkpt lat="45.56272" lon="6.06421">
        <ele>1417</ele>
        <time>2021-06-27T11:12:22.071Z</time>
      </trkpt>
      <trkpt lat="45.56272" lon="6.06421">
        <ele>1418</ele>
        <time>2021-06-27T11:12:23.071Z</time>
      </trkpt>
      <trkpt lat="45.56272" lon="6.06422">
        <ele>1418</ele>
        <time>2021-06-27T11:12:24.071Z</time>
      </trkpt>
      <trkpt lat="45.56272" lon="6.06422">
        <ele>1418</ele>
        <time>2021-06-27T11:12:25.071Z</time>
      </trkpt>
      <trkpt lat="45.56272" lon="6.06422">
        <ele>1418</ele>
        <time>2021-06-27T11:12:26.070Z</time>
      </trkpt>
      <trkpt lat="45.56272" lon="6.06422">
        <ele>1418</ele>
        <time>2021-06-27T11:12:27.071Z</time>
      </trkpt>
      <trkpt lat="45.56272" lon="6.06422">
        <ele>1419</ele>
        <time>2021-06-27T11:12:28.071Z</time>
      </trkpt>
      <trkpt lat="45.56272" lon="6.06422">
        <ele>1419</ele>
        <time>2021-06-27T11:12:29.071Z</time>
      </trkpt>
      <trkpt lat="45.56272" lon="6.06422">
        <ele>1420</ele>
        <time>2021-06-27T11:12:30.071Z</time>
      </trkpt>
      <trkpt lat="45.56272" lon="6.06421">
        <ele>1421</ele>
        <time>2021-06-27T11:12:31.071Z</time>
      </trkpt>
      <trkpt lat="45.56272" lon="6.06422">
        <ele>1421</ele>
        <time>2021-06-27T11:12:32.071Z</time>
      </trkpt>
      <trkpt lat="45.56271" lon="6.06422">
        <ele>1422</ele>
        <time>2021-06-27T11:12:33.071Z</time>
      </trkpt>
      <trkpt lat="45.56271" lon="6.06423">
        <ele>1423</ele>
        <time>2021-06-27T11:12:34.071Z</time>
      </trkpt>
      <trkpt lat="45.56271" lon="6.06423">
        <ele>1423</ele>
        <time>2021-06-27T11:12:35.071Z</time>
      </trkpt>
      <trkpt lat="45.56272" lon="6.06423">
        <ele>1424</ele>
        <time>2021-06-27T11:12:36.070Z</time>
      </trkpt>
      <trkpt lat="45.56272" lon="6.06423">
        <ele>1425</ele>
        <time>2021-06-27T11:12:37.070Z</time>
      </trkpt>
      <trkpt lat="45.56272" lon="6.06422">
        <ele>1425</ele>
        <time>2021-06-27T11:12:38.070Z</time>
      </trkpt>
      <trkpt lat="45.56272" lon="6.06422">
        <ele>1425</ele>
        <time>2021-06-27T11:12:39.071Z</time>
      </trkpt>
      <trkpt lat="45.56272" lon="6.06422">
        <ele>1426</ele>
        <time>2021-06-27T11:12:40.071Z</time>
      </trkpt>
      <trkpt lat="45.56272" lon="6.06423">
        <ele>1426</ele>
        <time>2021-06-27T11:12:41.071Z</time>
      </trkpt>
      <trkpt lat="45.56272" lon="6.06423">
        <ele>1427</ele>
        <time>2021-06-27T11:12:42.071Z</time>
      </trkpt>
      <trkpt lat="45.56272" lon="6.06424">
        <ele>1427</ele>
        <time>2021-06-27T11:12:43.070Z</time>
      </trkpt>
      <trkpt lat="45.56272" lon="6.06424">
        <ele>1428</ele>
        <time>2021-06-27T11:12:44.071Z</time>
      </trkpt>
      <trkpt lat="45.56272" lon="6.06424">
        <ele>1428</ele>
        <time>2021-06-27T11:12:45.071Z</time>
      </trkpt>
      <trkpt lat="45.56272" lon="6.06425">
        <ele>1429</ele>
        <time>2021-06-27T11:12:46.071Z</time>
      </trkpt>
      <trkpt lat="45.56272" lon="6.06425">
        <ele>1429</ele>
        <time>2021-06-27T11:12:47.071Z</time>
      </trkpt>
      <trkpt lat="45.56272" lon="6.06425">
        <ele>1429</ele>
        <time>2021-06-27T11:12:48.070Z</time>
      </trkpt>
      <trkpt lat="45.56272" lon="6.06425">
        <ele>1428</ele>
        <time>2021-06-27T11:12:49.070Z</time>
      </trkpt>
      <trkpt lat="45.56272" lon="6.06425">
        <ele>1428</ele>
        <time>2021-06-27T11:12:50.071Z</time>
      </trkpt>
      <trkpt lat="45.56272" lon="6.06424">
        <ele>1428</ele>
        <time>2021-06-27T11:12:51.071Z</time>
      </trkpt>
      <trkpt lat="45.56272" lon="6.06424">
        <ele>1428</ele>
        <time>2021-06-27T11:12:52.070Z</time>
      </trkpt>
      <trkpt lat="45.56273" lon="6.06424">
        <ele>1428</ele>
        <time>2021-06-27T11:12:53.070Z</time>
      </trkpt>
      <trkpt lat="45.56272" lon="6.06425">
        <ele>1428</ele>
        <time>2021-06-27T11:12:54.070Z</time>
      </trkpt>
      <trkpt lat="45.56272" lon="6.06426">
        <ele>1428</ele>
        <time>2021-06-27T11:12:55.071Z</time>
      </trkpt>
      <trkpt lat="45.56272" lon="6.06427">
        <ele>1427</ele>
        <time>2021-06-27T11:12:56.071Z</time>
      </trkpt>
      <trkpt lat="45.56273" lon="6.06428">
        <ele>1425</ele>
        <time>2021-06-27T11:12:57.071Z</time>
      </trkpt>
      <trkpt lat="45.56273" lon="6.06429">
        <ele>1424</ele>
        <time>2021-06-27T11:12:58.071Z</time>
      </trkpt>
      <trkpt lat="45.56273" lon="6.06429">
        <ele>1423</ele>
        <time>2021-06-27T11:12:59.070Z</time>
      </trkpt>
      <trkpt lat="45.56273" lon="6.06428">
        <ele>1423</ele>
        <time>2021-06-27T11:13:00.071Z</time>
      </trkpt>
      <trkpt lat="45.56273" lon="6.06428">
        <ele>1422</ele>
        <time>2021-06-27T11:13:01.071Z</time>
      </trkpt>
      <trkpt lat="45.56273" lon="6.06428">
        <ele>1422</ele>
        <time>2021-06-27T11:13:02.070Z</time>
      </trkpt>
      <trkpt lat="45.56273" lon="6.06428">
        <ele>1422</ele>
        <time>2021-06-27T11:13:03.070Z</time>
      </trkpt>
      <trkpt lat="45.56273" lon="6.06429">
        <ele>1422</ele>
        <time>2021-06-27T11:13:04.070Z</time>
      </trkpt>
      <trkpt lat="45.56272" lon="6.06429">
        <ele>1422</ele>
        <time>2021-06-27T11:13:05.071Z</time>
      </trkpt>
      <trkpt lat="45.56272" lon="6.06429">
        <ele>1423</ele>
        <time>2021-06-27T11:13:06.071Z</time>
      </trkpt>
      <trkpt lat="45.56272" lon="6.06429">
        <ele>1423</ele>
        <time>2021-06-27T11:13:07.071Z</time>
      </trkpt>
      <trkpt lat="45.56272" lon="6.0643">
        <ele>1423</ele>
        <time>2021-06-27T11:13:08.071Z</time>
      </trkpt>
      <trkpt lat="45.56271" lon="6.06431">
        <ele>1424</ele>
        <time>2021-06-27T11:13:09.071Z</time>
      </trkpt>
      <trkpt lat="45.56271" lon="6.06432">
        <ele>1424</ele>
        <time>2021-06-27T11:13:10.070Z</time>
      </trkpt>
      <trkpt lat="45.56271" lon="6.06433">
        <ele>1424</ele>
        <time>2021-06-27T11:13:11.071Z</time>
      </trkpt>
      <trkpt lat="45.56272" lon="6.06433">
        <ele>1425</ele>
        <time>2021-06-27T11:13:12.071Z</time>
      </trkpt>
      <trkpt lat="45.56272" lon="6.06433">
        <ele>1425</ele>
        <time>2021-06-27T11:13:13.071Z</time>
      </trkpt>
      <trkpt lat="45.56272" lon="6.06434">
        <ele>1425</ele>
        <time>2021-06-27T11:13:14.071Z</time>
      </trkpt>
      <trkpt lat="45.56272" lon="6.06434">
        <ele>1426</ele>
        <time>2021-06-27T11:13:15.070Z</time>
      </trkpt>
      <trkpt lat="45.56272" lon="6.06434">
        <ele>1426</ele>
        <time>2021-06-27T11:13:16.070Z</time>
      </trkpt>
      <trkpt lat="45.56272" lon="6.06434">
        <ele>1426</ele>
        <time>2021-06-27T11:13:17.070Z</time>
      </trkpt>
      <trkpt lat="45.56272" lon="6.06434">
        <ele>1427</ele>
        <time>2021-06-27T11:13:18.071Z</time>
      </trkpt>
      <trkpt lat="45.56272" lon="6.06435">
        <ele>1427</ele>
        <time>2021-06-27T11:13:19.071Z</time>
      </trkpt>
      <trkpt lat="45.56272" lon="6.06436">
        <ele>1427</ele>
        <time>2021-06-27T11:13:20.070Z</time>
      </trkpt>
      <trkpt lat="45.56273" lon="6.06436">
        <ele>1427</ele>
        <time>2021-06-27T11:13:21.071Z</time>
      </trkpt>
      <trkpt lat="45.56273" lon="6.06437">
        <ele>1427</ele>
        <time>2021-06-27T11:13:22.070Z</time>
      </trkpt>
      <trkpt lat="45.56273" lon="6.06437">
        <ele>1428</ele>
        <time>2021-06-27T11:13:23.070Z</time>
      </trkpt>
      <trkpt lat="45.56274" lon="6.06437">
        <ele>1428</ele>
        <time>2021-06-27T11:13:24.070Z</time>
      </trkpt>
      <trkpt lat="45.56273" lon="6.06437">
        <ele>1429</ele>
        <time>2021-06-27T11:13:25.071Z</time>
      </trkpt>
      <trkpt lat="45.56273" lon="6.06437">
        <ele>1429</ele>
        <time>2021-06-27T11:13:26.071Z</time>
      </trkpt>
      <trkpt lat="45.56273" lon="6.06437">
        <ele>1430</ele>
        <time>2021-06-27T11:13:27.070Z</time>
      </trkpt>
      <trkpt lat="45.56272" lon="6.06436">
        <ele>1430</ele>
        <time>2021-06-27T11:13:28.070Z</time>
      </trkpt>
      <trkpt lat="45.56272" lon="6.06436">
        <ele>1430</ele>
        <time>2021-06-27T11:13:29.071Z</time>
      </trkpt>
      <trkpt lat="45.56272" lon="6.06437">
        <ele>1431</ele>
        <time>2021-06-27T11:13:30.071Z</time>
      </trkpt>
      <trkpt lat="45.56271" lon="6.06437">
        <ele>1431</ele>
        <time>2021-06-27T11:13:31.071Z</time>
      </trkpt>
      <trkpt lat="45.56271" lon="6.06437">
        <ele>1431</ele>
        <time>2021-06-27T11:13:32.070Z</time>
      </trkpt>
      <trkpt lat="45.5627" lon="6.06437">
        <ele>1431</ele>
        <time>2021-06-27T11:13:33.070Z</time>
      </trkpt>
      <trkpt lat="45.56269" lon="6.06437">
        <ele>1431</ele>
        <time>2021-06-27T11:13:34.071Z</time>
      </trkpt>
      <trkpt lat="45.56268" lon="6.06437">
        <ele>1431</ele>
        <time>2021-06-27T11:13:35.071Z</time>
      </trkpt>
      <trkpt lat="45.56267" lon="6.06437">
        <ele>1431</ele>
        <time>2021-06-27T11:13:36.070Z</time>
      </trkpt>
      <trkpt lat="45.56267" lon="6.06438">
        <ele>1430</ele>
        <time>2021-06-27T11:13:37.070Z</time>
      </trkpt>
      <trkpt lat="45.56266" lon="6.06439">
        <ele>1430</ele>
        <time>2021-06-27T11:13:38.070Z</time>
      </trkpt>
      <trkpt lat="45.56266" lon="6.0644">
        <ele>1430</ele>
        <time>2021-06-27T11:13:39.071Z</time>
      </trkpt>
      <trkpt lat="45.56265" lon="6.0644">
        <ele>1430</ele>
        <time>2021-06-27T11:13:40.071Z</time>
      </trkpt>
      <trkpt lat="45.56264" lon="6.0644">
        <ele>1430</ele>
        <time>2021-06-27T11:13:41.070Z</time>
      </trkpt>
      <trkpt lat="45.56264" lon="6.06441">
        <ele>1431</ele>
        <time>2021-06-27T11:13:42.070Z</time>
      </trkpt>
      <trkpt lat="45.56264" lon="6.06441">
        <ele>1431</ele>
        <time>2021-06-27T11:13:43.070Z</time>
      </trkpt>
      <trkpt lat="45.56263" lon="6.06442">
        <ele>1430</ele>
        <time>2021-06-27T11:13:44.070Z</time>
      </trkpt>
      <trkpt lat="45.56263" lon="6.06442">
        <ele>1430</ele>
        <time>2021-06-27T11:13:45.071Z</time>
      </trkpt>
      <trkpt lat="45.56263" lon="6.06444">
        <ele>1430</ele>
        <time>2021-06-27T11:13:46.070Z</time>
      </trkpt>
      <trkpt lat="45.56263" lon="6.06444">
        <ele>1430</ele>
        <time>2021-06-27T11:13:47.071Z</time>
      </trkpt>
      <trkpt lat="45.56262" lon="6.06444">
        <ele>1430</ele>
        <time>2021-06-27T11:13:48.070Z</time>
      </trkpt>
      <trkpt lat="45.56263" lon="6.06444">
        <ele>1431</ele>
        <time>2021-06-27T11:13:49.070Z</time>
      </trkpt>
      <trkpt lat="45.56264" lon="6.06445">
        <ele>1431</ele>
        <time>2021-06-27T11:13:50.071Z</time>
      </trkpt>
      <trkpt lat="45.56266" lon="6.06445">
        <ele>1431</ele>
        <time>2021-06-27T11:13:51.070Z</time>
      </trkpt>
      <trkpt lat="45.56267" lon="6.06445">
        <ele>1431</ele>
        <time>2021-06-27T11:13:52.070Z</time>
      </trkpt>
      <trkpt lat="45.56268" lon="6.06445">
        <ele>1432</ele>
        <time>2021-06-27T11:13:53.070Z</time>
      </trkpt>
      <trkpt lat="45.56269" lon="6.06445">
        <ele>1432</ele>
        <time>2021-06-27T11:13:54.070Z</time>
      </trkpt>
      <trkpt lat="45.56269" lon="6.06445">
        <ele>1433</ele>
        <time>2021-06-27T11:13:55.070Z</time>
      </trkpt>
      <trkpt lat="45.5627" lon="6.06445">
        <ele>1433</ele>
        <time>2021-06-27T11:13:56.070Z</time>
      </trkpt>
      <trkpt lat="45.5627" lon="6.06445">
        <ele>1433</ele>
        <time>2021-06-27T11:13:57.071Z</time>
      </trkpt>
      <trkpt lat="45.5627" lon="6.06445">
        <ele>1432</ele>
        <time>2021-06-27T11:13:58.071Z</time>
      </trkpt>
      <trkpt lat="45.56269" lon="6.06445">
        <ele>1432</ele>
        <time>2021-06-27T11:13:59.070Z</time>
      </trkpt>
      <trkpt lat="45.56269" lon="6.06445">
        <ele>1430</ele>
        <time>2021-06-27T11:14:00.071Z</time>
      </trkpt>
      <trkpt lat="45.56269" lon="6.06445">
        <ele>1429</ele>
        <time>2021-06-27T11:14:01.071Z</time>
      </trkpt>
      <trkpt lat="45.5627" lon="6.06446">
        <ele>1428</ele>
        <time>2021-06-27T11:14:02.071Z</time>
      </trkpt>
      <trkpt lat="45.5627" lon="6.06446">
        <ele>1427</ele>
        <time>2021-06-27T11:14:03.070Z</time>
      </trkpt>
      <trkpt lat="45.5627" lon="6.06446">
        <ele>1426</ele>
        <time>2021-06-27T11:14:04.071Z</time>
      </trkpt>
      <trkpt lat="45.5627" lon="6.06446">
        <ele>1425</ele>
        <time>2021-06-27T11:14:05.071Z</time>
      </trkpt>
      <trkpt lat="45.5627" lon="6.06446">
        <ele>1424</ele>
        <time>2021-06-27T11:14:06.071Z</time>
      </trkpt>
      <trkpt lat="45.56271" lon="6.06446">
        <ele>1423</ele>
        <time>2021-06-27T11:14:07.071Z</time>
      </trkpt>
      <trkpt lat="45.56271" lon="6.06446">
        <ele>1423</ele>
        <time>2021-06-27T11:14:08.071Z</time>
      </trkpt>
      <trkpt lat="45.56271" lon="6.06446">
        <ele>1423</ele>
        <time>2021-06-27T11:14:09.071Z</time>
      </trkpt>
      <trkpt lat="45.56272" lon="6.06446">
        <ele>1423</ele>
        <time>2021-06-27T11:14:10.070Z</time>
      </trkpt>
      <trkpt lat="45.56272" lon="6.06445">
        <ele>1423</ele>
        <time>2021-06-27T11:14:11.070Z</time>
      </trkpt>
      <trkpt lat="45.56272" lon="6.06444">
        <ele>1424</ele>
        <time>2021-06-27T11:14:12.071Z</time>
      </trkpt>
      <trkpt lat="45.56272" lon="6.06444">
        <ele>1425</ele>
        <time>2021-06-27T11:14:13.071Z</time>
      </trkpt>
      <trkpt lat="45.56271" lon="6.06443">
        <ele>1425</ele>
        <time>2021-06-27T11:14:14.071Z</time>
      </trkpt>
      <trkpt lat="45.56271" lon="6.06444">
        <ele>1426</ele>
        <time>2021-06-27T11:14:15.071Z</time>
      </trkpt>
      <trkpt lat="45.5627" lon="6.06444">
        <ele>1426</ele>
        <time>2021-06-27T11:14:16.071Z</time>
      </trkpt>
      <trkpt lat="45.5627" lon="6.06443">
        <ele>1426</ele>
        <time>2021-06-27T11:14:17.071Z</time>
      </trkpt>
      <trkpt lat="45.56269" lon="6.06443">
        <ele>1427</ele>
        <time>2021-06-27T11:14:18.071Z</time>
      </trkpt>
      <trkpt lat="45.56269" lon="6.06443">
        <ele>1427</ele>
        <time>2021-06-27T11:14:19.071Z</time>
      </trkpt>
      <trkpt lat="45.56268" lon="6.06444">
        <ele>1427</ele>
        <time>2021-06-27T11:14:20.070Z</time>
      </trkpt>
      <trkpt lat="45.56268" lon="6.06443">
        <ele>1428</ele>
        <time>2021-06-27T11:14:21.071Z</time>
      </trkpt>
      <trkpt lat="45.56266" lon="6.06445">
        <ele>1428</ele>
        <time>2021-06-27T11:14:22.071Z</time>
      </trkpt>
      <trkpt lat="45.56266" lon="6.06445">
        <ele>1429</ele>
        <time>2021-06-27T11:14:23.070Z</time>
      </trkpt>
      <trkpt lat="45.56265" lon="6.06445">
        <ele>1429</ele>
        <time>2021-06-27T11:14:24.071Z</time>
      </trkpt>
      <trkpt lat="45.56264" lon="6.06445">
        <ele>1431</ele>
        <time>2021-06-27T11:14:25.070Z</time>
      </trkpt>
      <trkpt lat="45.56264" lon="6.06444">
        <ele>1432</ele>
        <time>2021-06-27T11:14:26.071Z</time>
      </trkpt>
      <trkpt lat="45.56264" lon="6.06444">
        <ele>1433</ele>
        <time>2021-06-27T11:14:27.071Z</time>
      </trkpt>
      <trkpt lat="45.56265" lon="6.06444">
        <ele>1433</ele>
        <time>2021-06-27T11:14:28.071Z</time>
      </trkpt>
      <trkpt lat="45.56265" lon="6.06444">
        <ele>1434</ele>
        <time>2021-06-27T11:14:29.070Z</time>
      </trkpt>
      <trkpt lat="45.56265" lon="6.06444">
        <ele>1435</ele>
        <time>2021-06-27T11:14:30.071Z</time>
      </trkpt>
      <trkpt lat="45.56264" lon="6.06443">
        <ele>1436</ele>
        <time>2021-06-27T11:14:31.071Z</time>
      </trkpt>
      <trkpt lat="45.56263" lon="6.06443">
        <ele>1436</ele>
        <time>2021-06-27T11:14:32.071Z</time>
      </trkpt>
      <trkpt lat="45.56263" lon="6.06442">
        <ele>1436</ele>
        <time>2021-06-27T11:14:33.071Z</time>
      </trkpt>
      <trkpt lat="45.56262" lon="6.06441">
        <ele>1437</ele>
        <time>2021-06-27T11:14:34.070Z</time>
      </trkpt>
      <trkpt lat="45.56262" lon="6.06441">
        <ele>1436</ele>
        <time>2021-06-27T11:14:35.071Z</time>
      </trkpt>
      <trkpt lat="45.56261" lon="6.06441">
        <ele>1436</ele>
        <time>2021-06-27T11:14:36.071Z</time>
      </trkpt>
      <trkpt lat="45.56261" lon="6.06442">
        <ele>1436</ele>
        <time>2021-06-27T11:14:37.071Z</time>
      </trkpt>
      <trkpt lat="45.56261" lon="6.06442">
        <ele>1436</ele>
        <time>2021-06-27T11:14:38.071Z</time>
      </trkpt>
      <trkpt lat="45.56261" lon="6.06442">
        <ele>1436</ele>
        <time>2021-06-27T11:14:39.071Z</time>
      </trkpt>
      <trkpt lat="45.56261" lon="6.06443">
        <ele>1435</ele>
        <time>2021-06-27T11:14:40.070Z</time>
      </trkpt>
      <trkpt lat="45.5626" lon="6.06443">
        <ele>1435</ele>
        <time>2021-06-27T11:14:41.070Z</time>
      </trkpt>
      <trkpt lat="45.5626" lon="6.06444">
        <ele>1435</ele>
        <time>2021-06-27T11:14:42.071Z</time>
      </trkpt>
      <trkpt lat="45.56259" lon="6.06445">
        <ele>1434</ele>
        <time>2021-06-27T11:14:43.071Z</time>
      </trkpt>
      <trkpt lat="45.56258" lon="6.06445">
        <ele>1434</ele>
        <time>2021-06-27T11:14:44.071Z</time>
      </trkpt>
      <trkpt lat="45.56258" lon="6.06446">
        <ele>1433</ele>
        <time>2021-06-27T11:14:45.071Z</time>
      </trkpt>
      <trkpt lat="45.56257" lon="6.06446">
        <ele>1433</ele>
        <time>2021-06-27T11:14:46.071Z</time>
      </trkpt>
      <trkpt lat="45.56256" lon="6.06447">
        <ele>1432</ele>
        <time>2021-06-27T11:14:47.071Z</time>
      </trkpt>
      <trkpt lat="45.56255" lon="6.06448">
        <ele>1432</ele>
        <time>2021-06-27T11:14:48.071Z</time>
      </trkpt>
      <trkpt lat="45.56255" lon="6.06449">
        <ele>1431</ele>
        <time>2021-06-27T11:14:49.071Z</time>
      </trkpt>
      <trkpt lat="45.56254" lon="6.0645">
        <ele>1431</ele>
        <time>2021-06-27T11:14:50.070Z</time>
      </trkpt>
      <trkpt lat="45.56254" lon="6.06451">
        <ele>1431</ele>
        <time>2021-06-27T11:14:51.071Z</time>
      </trkpt>
      <trkpt lat="45.56253" lon="6.0645">
        <ele>1431</ele>
        <time>2021-06-27T11:14:52.071Z</time>
      </trkpt>
      <trkpt lat="45.56253" lon="6.0645">
        <ele>1431</ele>
        <time>2021-06-27T11:14:53.071Z</time>
      </trkpt>
      <trkpt lat="45.56252" lon="6.06449">
        <ele>1431</ele>
        <time>2021-06-27T11:14:54.071Z</time>
      </trkpt>
      <trkpt lat="45.56252" lon="6.06449">
        <ele>1431</ele>
        <time>2021-06-27T11:14:55.071Z</time>
      </trkpt>
      <trkpt lat="45.56252" lon="6.06449">
        <ele>1431</ele>
        <time>2021-06-27T11:14:56.071Z</time>
      </trkpt>
      <trkpt lat="45.56252" lon="6.06449">
        <ele>1431</ele>
        <time>2021-06-27T11:14:57.071Z</time>
      </trkpt>
      <trkpt lat="45.56251" lon="6.06449">
        <ele>1431</ele>
        <time>2021-06-27T11:14:58.071Z</time>
      </trkpt>
      <trkpt lat="45.56251" lon="6.06449">
        <ele>1431</ele>
        <time>2021-06-27T11:14:59.071Z</time>
      </trkpt>
      <trkpt lat="45.56251" lon="6.0645">
        <ele>1431</ele>
        <time>2021-06-27T11:15:00.070Z</time>
      </trkpt>
      <trkpt lat="45.56251" lon="6.0645">
        <ele>1432</ele>
        <time>2021-06-27T11:15:01.071Z</time>
      </trkpt>
      <trkpt lat="45.56251" lon="6.0645">
        <ele>1432</ele>
        <time>2021-06-27T11:15:02.071Z</time>
      </trkpt>
      <trkpt lat="45.56252" lon="6.06451">
        <ele>1432</ele>
        <time>2021-06-27T11:15:03.070Z</time>
      </trkpt>
      <trkpt lat="45.56251" lon="6.06451">
        <ele>1431</ele>
        <time>2021-06-27T11:15:04.070Z</time>
      </trkpt>
      <trkpt lat="45.5625" lon="6.06451">
        <ele>1431</ele>
        <time>2021-06-27T11:15:05.071Z</time>
      </trkpt>
      <trkpt lat="45.5625" lon="6.06451">
        <ele>1431</ele>
        <time>2021-06-27T11:15:06.071Z</time>
      </trkpt>
      <trkpt lat="45.56249" lon="6.06452">
        <ele>1431</ele>
        <time>2021-06-27T11:15:07.070Z</time>
      </trkpt>
      <trkpt lat="45.56249" lon="6.06452">
        <ele>1431</ele>
        <time>2021-06-27T11:15:08.071Z</time>
      </trkpt>
      <trkpt lat="45.56249" lon="6.06453">
        <ele>1432</ele>
        <time>2021-06-27T11:15:09.071Z</time>
      </trkpt>
      <trkpt lat="45.56248" lon="6.06452">
        <ele>1432</ele>
        <time>2021-06-27T11:15:10.071Z</time>
      </trkpt>
      <trkpt lat="45.56248" lon="6.06452">
        <ele>1432</ele>
        <time>2021-06-27T11:15:11.071Z</time>
      </trkpt>
      <trkpt lat="45.56249" lon="6.06453">
        <ele>1433</ele>
        <time>2021-06-27T11:15:12.071Z</time>
      </trkpt>
      <trkpt lat="45.56248" lon="6.06452">
        <ele>1434</ele>
        <time>2021-06-27T11:15:13.071Z</time>
      </trkpt>
      <trkpt lat="45.56247" lon="6.06451">
        <ele>1434</ele>
        <time>2021-06-27T11:15:14.070Z</time>
      </trkpt>
      <trkpt lat="45.56247" lon="6.06451">
        <ele>1434</ele>
        <time>2021-06-27T11:15:15.071Z</time>
      </trkpt>
      <trkpt lat="45.56246" lon="6.06451">
        <ele>1434</ele>
        <time>2021-06-27T11:15:16.071Z</time>
      </trkpt>
      <trkpt lat="45.56246" lon="6.06451">
        <ele>1435</ele>
        <time>2021-06-27T11:15:17.070Z</time>
      </trkpt>
      <trkpt lat="45.56245" lon="6.0645">
        <ele>1435</ele>
        <time>2021-06-27T11:15:18.071Z</time>
      </trkpt>
      <trkpt lat="45.56245" lon="6.06449">
        <ele>1434</ele>
        <time>2021-06-27T11:15:19.071Z</time>
      </trkpt>
      <trkpt lat="45.56244" lon="6.06449">
        <ele>1434</ele>
        <time>2021-06-27T11:15:20.071Z</time>
      </trkpt>
      <trkpt lat="45.56244" lon="6.06449">
        <ele>1433</ele>
        <time>2021-06-27T11:15:21.071Z</time>
      </trkpt>
      <trkpt lat="45.56243" lon="6.06448">
        <ele>1433</ele>
        <time>2021-06-27T11:15:22.071Z</time>
      </trkpt>
      <trkpt lat="45.56242" lon="6.06448">
        <ele>1433</ele>
        <time>2021-06-27T11:15:23.071Z</time>
      </trkpt>
      <trkpt lat="45.56242" lon="6.06449">
        <ele>1433</ele>
        <time>2021-06-27T11:15:24.071Z</time>
      </trkpt>
      <trkpt lat="45.56242" lon="6.0645">
        <ele>1433</ele>
        <time>2021-06-27T11:15:25.071Z</time>
      </trkpt>
      <trkpt lat="45.56241" lon="6.0645">
        <ele>1433</ele>
        <time>2021-06-27T11:15:26.071Z</time>
      </trkpt>
      <trkpt lat="45.56241" lon="6.0645">
        <ele>1433</ele>
        <time>2021-06-27T11:15:27.070Z</time>
      </trkpt>
      <trkpt lat="45.5624" lon="6.0645">
        <ele>1433</ele>
        <time>2021-06-27T11:15:28.071Z</time>
      </trkpt>
      <trkpt lat="45.5624" lon="6.0645">
        <ele>1433</ele>
        <time>2021-06-27T11:15:29.071Z</time>
      </trkpt>
      <trkpt lat="45.56239" lon="6.0645">
        <ele>1433</ele>
        <time>2021-06-27T11:15:30.071Z</time>
      </trkpt>
      <trkpt lat="45.56238" lon="6.0645">
        <ele>1432</ele>
        <time>2021-06-27T11:15:31.070Z</time>
      </trkpt>
      <trkpt lat="45.56238" lon="6.0645">
        <ele>1432</ele>
        <time>2021-06-27T11:15:32.071Z</time>
      </trkpt>
      <trkpt lat="45.56238" lon="6.0645">
        <ele>1432</ele>
        <time>2021-06-27T11:15:33.070Z</time>
      </trkpt>
      <trkpt lat="45.56238" lon="6.06449">
        <ele>1431</ele>
        <time>2021-06-27T11:15:34.070Z</time>
      </trkpt>
      <trkpt lat="45.56238" lon="6.06449">
        <ele>1431</ele>
        <time>2021-06-27T11:15:35.071Z</time>
      </trkpt>
      <trkpt lat="45.56238" lon="6.0645">
        <ele>1430</ele>
        <time>2021-06-27T11:15:36.070Z</time>
      </trkpt>
      <trkpt lat="45.56238" lon="6.0645">
        <ele>1430</ele>
        <time>2021-06-27T11:15:37.071Z</time>
      </trkpt>
      <trkpt lat="45.56238" lon="6.06451">
        <ele>1429</ele>
        <time>2021-06-27T11:15:38.071Z</time>
      </trkpt>
      <trkpt lat="45.56238" lon="6.06452">
        <ele>1429</ele>
        <time>2021-06-27T11:15:39.071Z</time>
      </trkpt>
      <trkpt lat="45.56238" lon="6.06452">
        <ele>1429</ele>
        <time>2021-06-27T11:15:40.071Z</time>
      </trkpt>
      <trkpt lat="45.56238" lon="6.06452">
        <ele>1429</ele>
        <time>2021-06-27T11:15:41.071Z</time>
      </trkpt>
      <trkpt lat="45.56237" lon="6.06452">
        <ele>1429</ele>
        <time>2021-06-27T11:15:42.071Z</time>
      </trkpt>
      <trkpt lat="45.56237" lon="6.06452">
        <ele>1430</ele>
        <time>2021-06-27T11:15:43.070Z</time>
      </trkpt>
      <trkpt lat="45.56237" lon="6.06453">
        <ele>1431</ele>
        <time>2021-06-27T11:15:44.070Z</time>
      </trkpt>
      <trkpt lat="45.56237" lon="6.06453">
        <ele>1431</ele>
        <time>2021-06-27T11:15:45.071Z</time>
      </trkpt>
      <trkpt lat="45.56237" lon="6.06453">
        <ele>1431</ele>
        <time>2021-06-27T11:15:46.070Z</time>
      </trkpt>
      <trkpt lat="45.56236" lon="6.06452">
        <ele>1432</ele>
        <time>2021-06-27T11:15:47.071Z</time>
      </trkpt>
      <trkpt lat="45.56235" lon="6.06451">
        <ele>1432</ele>
        <time>2021-06-27T11:15:48.070Z</time>
      </trkpt>
      <trkpt lat="45.56235" lon="6.0645">
        <ele>1432</ele>
        <time>2021-06-27T11:15:49.071Z</time>
      </trkpt>
      <trkpt lat="45.56235" lon="6.0645">
        <ele>1433</ele>
        <time>2021-06-27T11:15:50.071Z</time>
      </trkpt>
      <trkpt lat="45.56235" lon="6.06449">
        <ele>1433</ele>
        <time>2021-06-27T11:15:51.071Z</time>
      </trkpt>
      <trkpt lat="45.56235" lon="6.06449">
        <ele>1433</ele>
        <time>2021-06-27T11:15:52.071Z</time>
      </trkpt>
      <trkpt lat="45.56236" lon="6.06449">
        <ele>1434</ele>
        <time>2021-06-27T11:15:53.071Z</time>
      </trkpt>
      <trkpt lat="45.56237" lon="6.06449">
        <ele>1434</ele>
        <time>2021-06-27T11:15:54.071Z</time>
      </trkpt>
      <trkpt lat="45.56238" lon="6.06448">
        <ele>1434</ele>
        <time>2021-06-27T11:15:55.071Z</time>
      </trkpt>
      <trkpt lat="45.56239" lon="6.06448">
        <ele>1434</ele>
        <time>2021-06-27T11:15:56.070Z</time>
      </trkpt>
      <trkpt lat="45.5624" lon="6.0645">
        <ele>1434</ele>
        <time>2021-06-27T11:15:57.071Z</time>
      </trkpt>
      <trkpt lat="45.56241" lon="6.0645">
        <ele>1434</ele>
        <time>2021-06-27T11:15:58.070Z</time>
      </trkpt>
      <trkpt lat="45.56241" lon="6.0645">
        <ele>1434</ele>
        <time>2021-06-27T11:15:59.071Z</time>
      </trkpt>
      <trkpt lat="45.5624" lon="6.0645">
        <ele>1434</ele>
        <time>2021-06-27T11:16:00.070Z</time>
      </trkpt>
      <trkpt lat="45.5624" lon="6.0645">
        <ele>1434</ele>
        <time>2021-06-27T11:16:01.070Z</time>
      </trkpt>
      <trkpt lat="45.5624" lon="6.06451">
        <ele>1434</ele>
        <time>2021-06-27T11:16:02.071Z</time>
      </trkpt>
      <trkpt lat="45.5624" lon="6.06451">
        <ele>1435</ele>
        <time>2021-06-27T11:16:03.070Z</time>
      </trkpt>
      <trkpt lat="45.5624" lon="6.06451">
        <ele>1435</ele>
        <time>2021-06-27T11:16:04.071Z</time>
      </trkpt>
      <trkpt lat="45.5624" lon="6.06452">
        <ele>1435</ele>
        <time>2021-06-27T11:16:05.071Z</time>
      </trkpt>
      <trkpt lat="45.5624" lon="6.06453">
        <ele>1436</ele>
        <time>2021-06-27T11:16:06.071Z</time>
      </trkpt>
      <trkpt lat="45.5624" lon="6.06453">
        <ele>1436</ele>
        <time>2021-06-27T11:16:07.071Z</time>
      </trkpt>
      <trkpt lat="45.5624" lon="6.06453">
        <ele>1436</ele>
        <time>2021-06-27T11:16:08.071Z</time>
      </trkpt>
      <trkpt lat="45.56241" lon="6.06453">
        <ele>1437</ele>
        <time>2021-06-27T11:16:09.071Z</time>
      </trkpt>
      <trkpt lat="45.56241" lon="6.06453">
        <ele>1437</ele>
        <time>2021-06-27T11:16:10.071Z</time>
      </trkpt>
      <trkpt lat="45.5624" lon="6.06453">
        <ele>1438</ele>
        <time>2021-06-27T11:16:11.071Z</time>
      </trkpt>
      <trkpt lat="45.56241" lon="6.06453">
        <ele>1438</ele>
        <time>2021-06-27T11:16:12.070Z</time>
      </trkpt>
      <trkpt lat="45.56241" lon="6.06453">
        <ele>1439</ele>
        <time>2021-06-27T11:16:13.071Z</time>
      </trkpt>
      <trkpt lat="45.56241" lon="6.06454">
        <ele>1440</ele>
        <time>2021-06-27T11:16:14.070Z</time>
      </trkpt>
      <trkpt lat="45.56242" lon="6.06454">
        <ele>1441</ele>
        <time>2021-06-27T11:16:15.071Z</time>
      </trkpt>
      <trkpt lat="45.56242" lon="6.06454">
        <ele>1441</ele>
        <time>2021-06-27T11:16:16.071Z</time>
      </trkpt>
      <trkpt lat="45.56243" lon="6.06455">
        <ele>1442</ele>
        <time>2021-06-27T11:16:17.071Z</time>
      </trkpt>
      <trkpt lat="45.56243" lon="6.06455">
        <ele>1442</ele>
        <time>2021-06-27T11:16:18.071Z</time>
      </trkpt>
      <trkpt lat="45.56243" lon="6.06456">
        <ele>1442</ele>
        <time>2021-06-27T11:16:19.071Z</time>
      </trkpt>
      <trkpt lat="45.56243" lon="6.06457">
        <ele>1442</ele>
        <time>2021-06-27T11:16:20.071Z</time>
      </trkpt>
      <trkpt lat="45.56243" lon="6.06457">
        <ele>1442</ele>
        <time>2021-06-27T11:16:21.071Z</time>
      </trkpt>
      <trkpt lat="45.56243" lon="6.06457">
        <ele>1442</ele>
        <time>2021-06-27T11:16:22.071Z</time>
      </trkpt>
      <trkpt lat="45.56243" lon="6.06456">
        <ele>1443</ele>
        <time>2021-06-27T11:16:23.071Z</time>
      </trkpt>
      <trkpt lat="45.56243" lon="6.06455">
        <ele>1443</ele>
        <time>2021-06-27T11:16:24.070Z</time>
      </trkpt>
      <trkpt lat="45.56244" lon="6.06456">
        <ele>1443</ele>
        <time>2021-06-27T11:16:25.070Z</time>
      </trkpt>
      <trkpt lat="45.56245" lon="6.06456">
        <ele>1444</ele>
        <time>2021-06-27T11:16:26.071Z</time>
      </trkpt>
      <trkpt lat="45.56245" lon="6.06457">
        <ele>1444</ele>
        <time>2021-06-27T11:16:27.071Z</time>
      </trkpt>
      <trkpt lat="45.56246" lon="6.06459">
        <ele>1444</ele>
        <time>2021-06-27T11:16:28.071Z</time>
      </trkpt>
      <trkpt lat="45.56247" lon="6.06461">
        <ele>1444</ele>
        <time>2021-06-27T11:16:29.071Z</time>
      </trkpt>
      <trkpt lat="45.56248" lon="6.06462">
        <ele>1444</ele>
        <time>2021-06-27T11:16:30.071Z</time>
      </trkpt>
      <trkpt lat="45.56248" lon="6.06464">
        <ele>1444</ele>
        <time>2021-06-27T11:16:31.071Z</time>
      </trkpt>
      <trkpt lat="45.56249" lon="6.06465">
        <ele>1443</ele>
        <time>2021-06-27T11:16:32.070Z</time>
      </trkpt>
      <trkpt lat="45.5625" lon="6.06466">
        <ele>1443</ele>
        <time>2021-06-27T11:16:33.071Z</time>
      </trkpt>
      <trkpt lat="45.5625" lon="6.06468">
        <ele>1443</ele>
        <time>2021-06-27T11:16:34.071Z</time>
      </trkpt>
      <trkpt lat="45.56251" lon="6.06468">
        <ele>1443</ele>
        <time>2021-06-27T11:16:35.071Z</time>
      </trkpt>
      <trkpt lat="45.56252" lon="6.06468">
        <ele>1443</ele>
        <time>2021-06-27T11:16:36.071Z</time>
      </trkpt>
      <trkpt lat="45.56253" lon="6.06469">
        <ele>1443</ele>
        <time>2021-06-27T11:16:37.070Z</time>
      </trkpt>
      <trkpt lat="45.56254" lon="6.06469">
        <ele>1443</ele>
        <time>2021-06-27T11:16:38.071Z</time>
      </trkpt>
      <trkpt lat="45.56254" lon="6.06469">
        <ele>1443</ele>
        <time>2021-06-27T11:16:39.070Z</time>
      </trkpt>
      <trkpt lat="45.56255" lon="6.0647">
        <ele>1443</ele>
        <time>2021-06-27T11:16:40.071Z</time>
      </trkpt>
      <trkpt lat="45.56255" lon="6.0647">
        <ele>1443</ele>
        <time>2021-06-27T11:16:41.071Z</time>
      </trkpt>
      <trkpt lat="45.56256" lon="6.06471">
        <ele>1443</ele>
        <time>2021-06-27T11:16:42.071Z</time>
      </trkpt>
      <trkpt lat="45.56257" lon="6.06472">
        <ele>1444</ele>
        <time>2021-06-27T11:16:43.071Z</time>
      </trkpt>
      <trkpt lat="45.56258" lon="6.06472">
        <ele>1445</ele>
        <time>2021-06-27T11:16:44.071Z</time>
      </trkpt>
      <trkpt lat="45.56259" lon="6.06472">
        <ele>1445</ele>
        <time>2021-06-27T11:16:45.071Z</time>
      </trkpt>
      <trkpt lat="45.56259" lon="6.06472">
        <ele>1445</ele>
        <time>2021-06-27T11:16:46.071Z</time>
      </trkpt>
      <trkpt lat="45.5626" lon="6.06472">
        <ele>1446</ele>
        <time>2021-06-27T11:16:47.071Z</time>
      </trkpt>
      <trkpt lat="45.5626" lon="6.06472">
        <ele>1446</ele>
        <time>2021-06-27T11:16:48.071Z</time>
      </trkpt>
      <trkpt lat="45.56261" lon="6.06472">
        <ele>1446</ele>
        <time>2021-06-27T11:16:49.071Z</time>
      </trkpt>
      <trkpt lat="45.56262" lon="6.06472">
        <ele>1447</ele>
        <time>2021-06-27T11:16:50.070Z</time>
      </trkpt>
      <trkpt lat="45.56263" lon="6.06473">
        <ele>1447</ele>
        <time>2021-06-27T11:16:51.071Z</time>
      </trkpt>
      <trkpt lat="45.56263" lon="6.06473">
        <ele>1448</ele>
        <time>2021-06-27T11:16:52.070Z</time>
      </trkpt>
      <trkpt lat="45.56263" lon="6.06474">
        <ele>1448</ele>
        <time>2021-06-27T11:16:53.071Z</time>
      </trkpt>
      <trkpt lat="45.56264" lon="6.06474">
        <ele>1449</ele>
        <time>2021-06-27T11:16:54.071Z</time>
      </trkpt>
      <trkpt lat="45.56265" lon="6.06474">
        <ele>1449</ele>
        <time>2021-06-27T11:16:55.071Z</time>
      </trkpt>
      <trkpt lat="45.56266" lon="6.06474">
        <ele>1449</ele>
        <time>2021-06-27T11:16:56.071Z</time>
      </trkpt>
      <trkpt lat="45.56267" lon="6.06475">
        <ele>1450</ele>
        <time>2021-06-27T11:16:57.071Z</time>
      </trkpt>
      <trkpt lat="45.56268" lon="6.06475">
        <ele>1450</ele>
        <time>2021-06-27T11:16:58.071Z</time>
      </trkpt>
      <trkpt lat="45.56269" lon="6.06476">
        <ele>1450</ele>
        <time>2021-06-27T11:16:59.071Z</time>
      </trkpt>
      <trkpt lat="45.56269" lon="6.06477">
        <ele>1450</ele>
        <time>2021-06-27T11:17:00.071Z</time>
      </trkpt>
      <trkpt lat="45.56269" lon="6.06477">
        <ele>1449</ele>
        <time>2021-06-27T11:17:01.071Z</time>
      </trkpt>
      <trkpt lat="45.5627" lon="6.06477">
        <ele>1449</ele>
        <time>2021-06-27T11:17:02.071Z</time>
      </trkpt>
      <trkpt lat="45.5627" lon="6.06478">
        <ele>1449</ele>
        <time>2021-06-27T11:17:03.071Z</time>
      </trkpt>
      <trkpt lat="45.5627" lon="6.06478">
        <ele>1450</ele>
        <time>2021-06-27T11:17:04.071Z</time>
      </trkpt>
      <trkpt lat="45.5627" lon="6.06478">
        <ele>1450</ele>
        <time>2021-06-27T11:17:05.070Z</time>
      </trkpt>
      <trkpt lat="45.5627" lon="6.06479">
        <ele>1450</ele>
        <time>2021-06-27T11:17:06.071Z</time>
      </trkpt>
      <trkpt lat="45.5627" lon="6.06479">
        <ele>1450</ele>
        <time>2021-06-27T11:17:07.071Z</time>
      </trkpt>
      <trkpt lat="45.5627" lon="6.06479">
        <ele>1451</ele>
        <time>2021-06-27T11:17:08.070Z</time>
      </trkpt>
      <trkpt lat="45.56269" lon="6.06479">
        <ele>1451</ele>
        <time>2021-06-27T11:17:09.071Z</time>
      </trkpt>
      <trkpt lat="45.56268" lon="6.06479">
        <ele>1451</ele>
        <time>2021-06-27T11:17:10.071Z</time>
      </trkpt>
      <trkpt lat="45.56266" lon="6.0648">
        <ele>1452</ele>
        <time>2021-06-27T11:17:11.071Z</time>
      </trkpt>
      <trkpt lat="45.56266" lon="6.06481">
        <ele>1452</ele>
        <time>2021-06-27T11:17:12.071Z</time>
      </trkpt>
      <trkpt lat="45.56266" lon="6.06482">
        <ele>1452</ele>
        <time>2021-06-27T11:17:13.071Z</time>
      </trkpt>
      <trkpt lat="45.56267" lon="6.06482">
        <ele>1452</ele>
        <time>2021-06-27T11:17:14.071Z</time>
      </trkpt>
      <trkpt lat="45.56267" lon="6.06482">
        <ele>1452</ele>
        <time>2021-06-27T11:17:15.071Z</time>
      </trkpt>
      <trkpt lat="45.56267" lon="6.06482">
        <ele>1452</ele>
        <time>2021-06-27T11:17:16.070Z</time>
      </trkpt>
      <trkpt lat="45.56267" lon="6.06482">
        <ele>1452</ele>
        <time>2021-06-27T11:17:17.070Z</time>
      </trkpt>
      <trkpt lat="45.56267" lon="6.06483">
        <ele>1452</ele>
        <time>2021-06-27T11:17:18.071Z</time>
      </trkpt>
      <trkpt lat="45.56267" lon="6.06483">
        <ele>1452</ele>
        <time>2021-06-27T11:17:19.071Z</time>
      </trkpt>
      <trkpt lat="45.56266" lon="6.06483">
        <ele>1453</ele>
        <time>2021-06-27T11:17:20.071Z</time>
      </trkpt>
      <trkpt lat="45.56265" lon="6.06484">
        <ele>1453</ele>
        <time>2021-06-27T11:17:21.071Z</time>
      </trkpt>
      <trkpt lat="45.56265" lon="6.06483">
        <ele>1453</ele>
        <time>2021-06-27T11:17:22.071Z</time>
      </trkpt>
      <trkpt lat="45.56264" lon="6.06483">
        <ele>1453</ele>
        <time>2021-06-27T11:17:23.071Z</time>
      </trkpt>
      <trkpt lat="45.56263" lon="6.06483">
        <ele>1453</ele>
        <time>2021-06-27T11:17:24.071Z</time>
      </trkpt>
      <trkpt lat="45.56263" lon="6.06484">
        <ele>1454</ele>
        <time>2021-06-27T11:17:25.071Z</time>
      </trkpt>
      <trkpt lat="45.56263" lon="6.06484">
        <ele>1455</ele>
        <time>2021-06-27T11:17:26.070Z</time>
      </trkpt>
      <trkpt lat="45.56262" lon="6.06485">
        <ele>1455</ele>
        <time>2021-06-27T11:17:27.070Z</time>
      </trkpt>
      <trkpt lat="45.56261" lon="6.06485">
        <ele>1455</ele>
        <time>2021-06-27T11:17:28.071Z</time>
      </trkpt>
      <trkpt lat="45.5626" lon="6.06484">
        <ele>1455</ele>
        <time>2021-06-27T11:17:29.070Z</time>
      </trkpt>
      <trkpt lat="45.56259" lon="6.06483">
        <ele>1455</ele>
        <time>2021-06-27T11:17:30.071Z</time>
      </trkpt>
      <trkpt lat="45.56258" lon="6.06483">
        <ele>1455</ele>
        <time>2021-06-27T11:17:31.071Z</time>
      </trkpt>
      <trkpt lat="45.56257" lon="6.06483">
        <ele>1456</ele>
        <time>2021-06-27T11:17:32.071Z</time>
      </trkpt>
      <trkpt lat="45.56256" lon="6.06483">
        <ele>1456</ele>
        <time>2021-06-27T11:17:33.071Z</time>
      </trkpt>
      <trkpt lat="45.56255" lon="6.06483">
        <ele>1457</ele>
        <time>2021-06-27T11:17:34.071Z</time>
      </trkpt>
      <trkpt lat="45.56255" lon="6.06483">
        <ele>1457</ele>
        <time>2021-06-27T11:17:35.071Z</time>
      </trkpt>
      <trkpt lat="45.56254" lon="6.06482">
        <ele>1456</ele>
        <time>2021-06-27T11:17:36.071Z</time>
      </trkpt>
      <trkpt lat="45.56254" lon="6.06481">
        <ele>1456</ele>
        <time>2021-06-27T11:17:37.071Z</time>
      </trkpt>
      <trkpt lat="45.56253" lon="6.0648">
        <ele>1456</ele>
        <time>2021-06-27T11:17:38.071Z</time>
      </trkpt>
      <trkpt lat="45.56251" lon="6.06478">
        <ele>1456</ele>
        <time>2021-06-27T11:17:39.071Z</time>
      </trkpt>
      <trkpt lat="45.5625" lon="6.06477">
        <ele>1457</ele>
        <time>2021-06-27T11:17:40.070Z</time>
      </trkpt>
      <trkpt lat="45.56249" lon="6.06477">
        <ele>1457</ele>
        <time>2021-06-27T11:17:41.071Z</time>
      </trkpt>
      <trkpt lat="45.56248" lon="6.06477">
        <ele>1457</ele>
        <time>2021-06-27T11:17:42.071Z</time>
      </trkpt>
      <trkpt lat="45.56247" lon="6.06476">
        <ele>1457</ele>
        <time>2021-06-27T11:17:43.071Z</time>
      </trkpt>
      <trkpt lat="45.56246" lon="6.06476">
        <ele>1457</ele>
        <time>2021-06-27T11:17:44.071Z</time>
      </trkpt>
      <trkpt lat="45.56245" lon="6.06475">
        <ele>1457</ele>
        <time>2021-06-27T11:17:45.070Z</time>
      </trkpt>
      <trkpt lat="45.56244" lon="6.06475">
        <ele>1456</ele>
        <time>2021-06-27T11:17:46.071Z</time>
      </trkpt>
      <trkpt lat="45.56243" lon="6.06474">
        <ele>1456</ele>
        <time>2021-06-27T11:17:47.071Z</time>
      </trkpt>
      <trkpt lat="45.56243" lon="6.06474">
        <ele>1456</ele>
        <time>2021-06-27T11:17:48.070Z</time>
      </trkpt>
      <trkpt lat="45.56242" lon="6.06473">
        <ele>1455</ele>
        <time>2021-06-27T11:17:49.071Z</time>
      </trkpt>
      <trkpt lat="45.56241" lon="6.06472">
        <ele>1455</ele>
        <time>2021-06-27T11:17:50.071Z</time>
      </trkpt>
      <trkpt lat="45.5624" lon="6.06472">
        <ele>1455</ele>
        <time>2021-06-27T11:17:51.071Z</time>
      </trkpt>
      <trkpt lat="45.5624" lon="6.06472">
        <ele>1455</ele>
        <time>2021-06-27T11:17:52.071Z</time>
      </trkpt>
      <trkpt lat="45.56239" lon="6.06472">
        <ele>1455</ele>
        <time>2021-06-27T11:17:53.071Z</time>
      </trkpt>
      <trkpt lat="45.56239" lon="6.06472">
        <ele>1454</ele>
        <time>2021-06-27T11:17:54.071Z</time>
      </trkpt>
      <trkpt lat="45.56238" lon="6.06472">
        <ele>1454</ele>
        <time>2021-06-27T11:17:55.070Z</time>
      </trkpt>
      <trkpt lat="45.56237" lon="6.06471">
        <ele>1453</ele>
        <time>2021-06-27T11:17:56.071Z</time>
      </trkpt>
      <trkpt lat="45.56236" lon="6.06472">
        <ele>1452</ele>
        <time>2021-06-27T11:17:57.071Z</time>
      </trkpt>
      <trkpt lat="45.56235" lon="6.06472">
        <ele>1452</ele>
        <time>2021-06-27T11:17:58.071Z</time>
      </trkpt>
      <trkpt lat="45.56235" lon="6.06473">
        <ele>1452</ele>
        <time>2021-06-27T11:17:59.070Z</time>
      </trkpt>
      <trkpt lat="45.56234" lon="6.06473">
        <ele>1451</ele>
        <time>2021-06-27T11:18:00.071Z</time>
      </trkpt>
      <trkpt lat="45.56234" lon="6.06474">
        <ele>1451</ele>
        <time>2021-06-27T11:18:01.071Z</time>
      </trkpt>
      <trkpt lat="45.56233" lon="6.06474">
        <ele>1450</ele>
        <time>2021-06-27T11:18:02.070Z</time>
      </trkpt>
      <trkpt lat="45.56232" lon="6.06474">
        <ele>1450</ele>
        <time>2021-06-27T11:18:03.071Z</time>
      </trkpt>
      <trkpt lat="45.56232" lon="6.06475">
        <ele>1450</ele>
        <time>2021-06-27T11:18:04.071Z</time>
      </trkpt>
      <trkpt lat="45.56231" lon="6.06475">
        <ele>1451</ele>
        <time>2021-06-27T11:18:05.071Z</time>
      </trkpt>
      <trkpt lat="45.56229" lon="6.06474">
        <ele>1451</ele>
        <time>2021-06-27T11:18:06.071Z</time>
      </trkpt>
      <trkpt lat="45.56229" lon="6.06475">
        <ele>1451</ele>
        <time>2021-06-27T11:18:07.071Z</time>
      </trkpt>
      <trkpt lat="45.56229" lon="6.06476">
        <ele>1451</ele>
        <time>2021-06-27T11:18:08.071Z</time>
      </trkpt>
      <trkpt lat="45.56227" lon="6.06476">
        <ele>1451</ele>
        <time>2021-06-27T11:18:09.071Z</time>
      </trkpt>
      <trkpt lat="45.56227" lon="6.06477">
        <ele>1451</ele>
        <time>2021-06-27T11:18:10.071Z</time>
      </trkpt>
      <trkpt lat="45.56226" lon="6.06478">
        <ele>1451</ele>
        <time>2021-06-27T11:18:11.071Z</time>
      </trkpt>
      <trkpt lat="45.56225" lon="6.06478">
        <ele>1451</ele>
        <time>2021-06-27T11:18:12.071Z</time>
      </trkpt>
      <trkpt lat="45.56224" lon="6.06479">
        <ele>1451</ele>
        <time>2021-06-27T11:18:13.071Z</time>
      </trkpt>
      <trkpt lat="45.56223" lon="6.0648">
        <ele>1451</ele>
        <time>2021-06-27T11:18:14.070Z</time>
      </trkpt>
      <trkpt lat="45.56222" lon="6.06481">
        <ele>1451</ele>
        <time>2021-06-27T11:18:15.071Z</time>
      </trkpt>
      <trkpt lat="45.56221" lon="6.06481">
        <ele>1451</ele>
        <time>2021-06-27T11:18:16.071Z</time>
      </trkpt>
      <trkpt lat="45.5622" lon="6.06482">
        <ele>1451</ele>
        <time>2021-06-27T11:18:17.071Z</time>
      </trkpt>
      <trkpt lat="45.5622" lon="6.06483">
        <ele>1451</ele>
        <time>2021-06-27T11:18:18.071Z</time>
      </trkpt>
      <trkpt lat="45.56219" lon="6.06484">
        <ele>1450</ele>
        <time>2021-06-27T11:18:19.070Z</time>
      </trkpt>
      <trkpt lat="45.56219" lon="6.06486">
        <ele>1450</ele>
        <time>2021-06-27T11:18:20.071Z</time>
      </trkpt>
      <trkpt lat="45.56219" lon="6.06487">
        <ele>1450</ele>
        <time>2021-06-27T11:18:21.071Z</time>
      </trkpt>
      <trkpt lat="45.56218" lon="6.06487">
        <ele>1450</ele>
        <time>2021-06-27T11:18:22.071Z</time>
      </trkpt>
      <trkpt lat="45.56217" lon="6.06487">
        <ele>1449</ele>
        <time>2021-06-27T11:18:23.071Z</time>
      </trkpt>
      <trkpt lat="45.56217" lon="6.06488">
        <ele>1449</ele>
        <time>2021-06-27T11:18:24.070Z</time>
      </trkpt>
      <trkpt lat="45.56216" lon="6.06488">
        <ele>1449</ele>
        <time>2021-06-27T11:18:25.071Z</time>
      </trkpt>
      <trkpt lat="45.56216" lon="6.06489">
        <ele>1449</ele>
        <time>2021-06-27T11:18:26.071Z</time>
      </trkpt>
      <trkpt lat="45.56215" lon="6.06489">
        <ele>1448</ele>
        <time>2021-06-27T11:18:27.071Z</time>
      </trkpt>
      <trkpt lat="45.56214" lon="6.0649">
        <ele>1448</ele>
        <time>2021-06-27T11:18:28.071Z</time>
      </trkpt>
      <trkpt lat="45.56214" lon="6.06491">
        <ele>1447</ele>
        <time>2021-06-27T11:18:29.070Z</time>
      </trkpt>
      <trkpt lat="45.56213" lon="6.06492">
        <ele>1447</ele>
        <time>2021-06-27T11:18:30.071Z</time>
      </trkpt>
      <trkpt lat="45.56212" lon="6.06493">
        <ele>1447</ele>
        <time>2021-06-27T11:18:31.071Z</time>
      </trkpt>
      <trkpt lat="45.56211" lon="6.06493">
        <ele>1447</ele>
        <time>2021-06-27T11:18:32.071Z</time>
      </trkpt>
      <trkpt lat="45.56211" lon="6.06494">
        <ele>1448</ele>
        <time>2021-06-27T11:18:33.071Z</time>
      </trkpt>
      <trkpt lat="45.5621" lon="6.06494">
        <ele>1448</ele>
        <time>2021-06-27T11:18:34.071Z</time>
      </trkpt>
      <trkpt lat="45.5621" lon="6.06495">
        <ele>1449</ele>
        <time>2021-06-27T11:18:35.071Z</time>
      </trkpt>
      <trkpt lat="45.56209" lon="6.06495">
        <ele>1449</ele>
        <time>2021-06-27T11:18:36.071Z</time>
      </trkpt>
      <trkpt lat="45.56209" lon="6.06496">
        <ele>1449</ele>
        <time>2021-06-27T11:18:37.071Z</time>
      </trkpt>
      <trkpt lat="45.56209" lon="6.06497">
        <ele>1450</ele>
        <time>2021-06-27T11:18:38.071Z</time>
      </trkpt>
      <trkpt lat="45.56208" lon="6.06497">
        <ele>1450</ele>
        <time>2021-06-27T11:18:39.070Z</time>
      </trkpt>
      <trkpt lat="45.56208" lon="6.06498">
        <ele>1451</ele>
        <time>2021-06-27T11:18:40.071Z</time>
      </trkpt>
      <trkpt lat="45.56207" lon="6.06498">
        <ele>1452</ele>
        <time>2021-06-27T11:18:41.071Z</time>
      </trkpt>
      <trkpt lat="45.56206" lon="6.06498">
        <ele>1453</ele>
        <time>2021-06-27T11:18:42.071Z</time>
      </trkpt>
      <trkpt lat="45.56206" lon="6.06499">
        <ele>1453</ele>
        <time>2021-06-27T11:18:43.071Z</time>
      </trkpt>
      <trkpt lat="45.56206" lon="6.06499">
        <ele>1454</ele>
        <time>2021-06-27T11:18:44.071Z</time>
      </trkpt>
      <trkpt lat="45.56205" lon="6.06499">
        <ele>1455</ele>
        <time>2021-06-27T11:18:45.071Z</time>
      </trkpt>
      <trkpt lat="45.56204" lon="6.06499">
        <ele>1456</ele>
        <time>2021-06-27T11:18:46.071Z</time>
      </trkpt>
      <trkpt lat="45.56204" lon="6.065">
        <ele>1456</ele>
        <time>2021-06-27T11:18:47.071Z</time>
      </trkpt>
      <trkpt lat="45.56203" lon="6.065">
        <ele>1456</ele>
        <time>2021-06-27T11:18:48.071Z</time>
      </trkpt>
      <trkpt lat="45.56203" lon="6.06501">
        <ele>1456</ele>
        <time>2021-06-27T11:18:49.071Z</time>
      </trkpt>
      <trkpt lat="45.56203" lon="6.06501">
        <ele>1456</ele>
        <time>2021-06-27T11:18:50.071Z</time>
      </trkpt>
      <trkpt lat="45.56202" lon="6.06501">
        <ele>1456</ele>
        <time>2021-06-27T11:18:51.071Z</time>
      </trkpt>
      <trkpt lat="45.56202" lon="6.06501">
        <ele>1457</ele>
        <time>2021-06-27T11:18:52.071Z</time>
      </trkpt>
      <trkpt lat="45.56201" lon="6.06501">
        <ele>1457</ele>
        <time>2021-06-27T11:18:53.071Z</time>
      </trkpt>
      <trkpt lat="45.562" lon="6.06501">
        <ele>1457</ele>
        <time>2021-06-27T11:18:54.071Z</time>
      </trkpt>
      <trkpt lat="45.56199" lon="6.06501">
        <ele>1457</ele>
        <time>2021-06-27T11:18:55.071Z</time>
      </trkpt>
      <trkpt lat="45.56198" lon="6.06501">
        <ele>1457</ele>
        <time>2021-06-27T11:18:56.071Z</time>
      </trkpt>
      <trkpt lat="45.56198" lon="6.06502">
        <ele>1457</ele>
        <time>2021-06-27T11:18:57.070Z</time>
      </trkpt>
      <trkpt lat="45.56198" lon="6.06503">
        <ele>1456</ele>
        <time>2021-06-27T11:18:58.071Z</time>
      </trkpt>
      <trkpt lat="45.56198" lon="6.06504">
        <ele>1456</ele>
        <time>2021-06-27T11:18:59.071Z</time>
      </trkpt>
      <trkpt lat="45.56197" lon="6.06505">
        <ele>1456</ele>
        <time>2021-06-27T11:19:00.071Z</time>
      </trkpt>
      <trkpt lat="45.56197" lon="6.06505">
        <ele>1455</ele>
        <time>2021-06-27T11:19:01.071Z</time>
      </trkpt>
      <trkpt lat="45.56196" lon="6.06505">
        <ele>1455</ele>
        <time>2021-06-27T11:19:02.071Z</time>
      </trkpt>
      <trkpt lat="45.56196" lon="6.06506">
        <ele>1454</ele>
        <time>2021-06-27T11:19:03.071Z</time>
      </trkpt>
      <trkpt lat="45.56195" lon="6.06506">
        <ele>1454</ele>
        <time>2021-06-27T11:19:04.071Z</time>
      </trkpt>
      <trkpt lat="45.56194" lon="6.06506">
        <ele>1454</ele>
        <time>2021-06-27T11:19:05.071Z</time>
      </trkpt>
      <trkpt lat="45.56194" lon="6.06507">
        <ele>1455</ele>
        <time>2021-06-27T11:19:06.071Z</time>
      </trkpt>
      <trkpt lat="45.56194" lon="6.06508">
        <ele>1455</ele>
        <time>2021-06-27T11:19:07.071Z</time>
      </trkpt>
      <trkpt lat="45.56194" lon="6.06509">
        <ele>1455</ele>
        <time>2021-06-27T11:19:08.070Z</time>
      </trkpt>
      <trkpt lat="45.56193" lon="6.06509">
        <ele>1454</ele>
        <time>2021-06-27T11:19:09.071Z</time>
      </trkpt>
      <trkpt lat="45.56193" lon="6.06509">
        <ele>1454</ele>
        <time>2021-06-27T11:19:10.071Z</time>
      </trkpt>
      <trkpt lat="45.56193" lon="6.06509">
        <ele>1453</ele>
        <time>2021-06-27T11:19:11.070Z</time>
      </trkpt>
      <trkpt lat="45.56193" lon="6.06509">
        <ele>1453</ele>
        <time>2021-06-27T11:19:12.071Z</time>
      </trkpt>
      <trkpt lat="45.56192" lon="6.06508">
        <ele>1453</ele>
        <time>2021-06-27T11:19:13.070Z</time>
      </trkpt>
      <trkpt lat="45.56192" lon="6.06509">
        <ele>1453</ele>
        <time>2021-06-27T11:19:14.071Z</time>
      </trkpt>
      <trkpt lat="45.56192" lon="6.06509">
        <ele>1452</ele>
        <time>2021-06-27T11:19:15.071Z</time>
      </trkpt>
      <trkpt lat="45.56192" lon="6.06509">
        <ele>1452</ele>
        <time>2021-06-27T11:19:16.071Z</time>
      </trkpt>
      <trkpt lat="45.56192" lon="6.06508">
        <ele>1452</ele>
        <time>2021-06-27T11:19:17.071Z</time>
      </trkpt>
      <trkpt lat="45.56192" lon="6.06508">
        <ele>1452</ele>
        <time>2021-06-27T11:19:18.071Z</time>
      </trkpt>
      <trkpt lat="45.56191" lon="6.06509">
        <ele>1452</ele>
        <time>2021-06-27T11:19:19.071Z</time>
      </trkpt>
      <trkpt lat="45.5619" lon="6.06509">
        <ele>1453</ele>
        <time>2021-06-27T11:19:20.071Z</time>
      </trkpt>
      <trkpt lat="45.56189" lon="6.0651">
        <ele>1452</ele>
        <time>2021-06-27T11:19:21.070Z</time>
      </trkpt>
      <trkpt lat="45.56188" lon="6.06511">
        <ele>1452</ele>
        <time>2021-06-27T11:19:22.071Z</time>
      </trkpt>
      <trkpt lat="45.56188" lon="6.06512">
        <ele>1452</ele>
        <time>2021-06-27T11:19:23.071Z</time>
      </trkpt>
      <trkpt lat="45.56187" lon="6.06512">
        <ele>1452</ele>
        <time>2021-06-27T11:19:24.071Z</time>
      </trkpt>
      <trkpt lat="45.56186" lon="6.06513">
        <ele>1452</ele>
        <time>2021-06-27T11:19:25.071Z</time>
      </trkpt>
      <trkpt lat="45.56186" lon="6.06513">
        <ele>1453</ele>
        <time>2021-06-27T11:19:26.071Z</time>
      </trkpt>
      <trkpt lat="45.56185" lon="6.06514">
        <ele>1453</ele>
        <time>2021-06-27T11:19:27.071Z</time>
      </trkpt>
      <trkpt lat="45.56185" lon="6.06515">
        <ele>1453</ele>
        <time>2021-06-27T11:19:28.071Z</time>
      </trkpt>
      <trkpt lat="45.56185" lon="6.06515">
        <ele>1453</ele>
        <time>2021-06-27T11:19:29.071Z</time>
      </trkpt>
      <trkpt lat="45.56185" lon="6.06516">
        <ele>1452</ele>
        <time>2021-06-27T11:19:30.071Z</time>
      </trkpt>
      <trkpt lat="45.56185" lon="6.06517">
        <ele>1452</ele>
        <time>2021-06-27T11:19:31.071Z</time>
      </trkpt>
      <trkpt lat="45.56185" lon="6.06518">
        <ele>1452</ele>
        <time>2021-06-27T11:19:32.071Z</time>
      </trkpt>
      <trkpt lat="45.56185" lon="6.06519">
        <ele>1452</ele>
        <time>2021-06-27T11:19:33.071Z</time>
      </trkpt>
      <trkpt lat="45.56184" lon="6.0652">
        <ele>1453</ele>
        <time>2021-06-27T11:19:34.070Z</time>
      </trkpt>
      <trkpt lat="45.56184" lon="6.06521">
        <ele>1453</ele>
        <time>2021-06-27T11:19:35.071Z</time>
      </trkpt>
      <trkpt lat="45.56183" lon="6.06523">
        <ele>1454</ele>
        <time>2021-06-27T11:19:36.071Z</time>
      </trkpt>
      <trkpt lat="45.56183" lon="6.06524">
        <ele>1454</ele>
        <time>2021-06-27T11:19:37.070Z</time>
      </trkpt>
      <trkpt lat="45.56182" lon="6.06525">
        <ele>1454</ele>
        <time>2021-06-27T11:19:38.071Z</time>
      </trkpt>
      <trkpt lat="45.56181" lon="6.06526">
        <ele>1454</ele>
        <time>2021-06-27T11:19:39.071Z</time>
      </trkpt>
      <trkpt lat="45.5618" lon="6.06527">
        <ele>1455</ele>
        <time>2021-06-27T11:19:40.071Z</time>
      </trkpt>
      <trkpt lat="45.5618" lon="6.06528">
        <ele>1455</ele>
        <time>2021-06-27T11:19:41.071Z</time>
      </trkpt>
      <trkpt lat="45.56179" lon="6.06529">
        <ele>1456</ele>
        <time>2021-06-27T11:19:42.070Z</time>
      </trkpt>
      <trkpt lat="45.56179" lon="6.06531">
        <ele>1456</ele>
        <time>2021-06-27T11:19:43.071Z</time>
      </trkpt>
      <trkpt lat="45.56179" lon="6.06532">
        <ele>1457</ele>
        <time>2021-06-27T11:19:44.070Z</time>
      </trkpt>
      <trkpt lat="45.56178" lon="6.06534">
        <ele>1457</ele>
        <time>2021-06-27T11:19:45.070Z</time>
      </trkpt>
      <trkpt lat="45.56178" lon="6.06536">
        <ele>1458</ele>
        <time>2021-06-27T11:19:46.070Z</time>
      </trkpt>
      <trkpt lat="45.56177" lon="6.06537">
        <ele>1458</ele>
        <time>2021-06-27T11:19:47.070Z</time>
      </trkpt>
      <trkpt lat="45.56177" lon="6.06538">
        <ele>1458</ele>
        <time>2021-06-27T11:19:48.071Z</time>
      </trkpt>
      <trkpt lat="45.56177" lon="6.0654">
        <ele>1458</ele>
        <time>2021-06-27T11:19:49.070Z</time>
      </trkpt>
      <trkpt lat="45.56177" lon="6.06541">
        <ele>1458</ele>
        <time>2021-06-27T11:19:50.071Z</time>
      </trkpt>
      <trkpt lat="45.56176" lon="6.06542">
        <ele>1458</ele>
        <time>2021-06-27T11:19:51.071Z</time>
      </trkpt>
      <trkpt lat="45.56176" lon="6.06544">
        <ele>1458</ele>
        <time>2021-06-27T11:19:52.071Z</time>
      </trkpt>
      <trkpt lat="45.56175" lon="6.06545">
        <ele>1459</ele>
        <time>2021-06-27T11:19:53.071Z</time>
      </trkpt>
      <trkpt lat="45.56175" lon="6.06546">
        <ele>1459</ele>
        <time>2021-06-27T11:19:54.071Z</time>
      </trkpt>
      <trkpt lat="45.56175" lon="6.06547">
        <ele>1459</ele>
        <time>2021-06-27T11:19:55.071Z</time>
      </trkpt>
      <trkpt lat="45.56175" lon="6.06548">
        <ele>1459</ele>
        <time>2021-06-27T11:19:56.070Z</time>
      </trkpt>
      <trkpt lat="45.56175" lon="6.06549">
        <ele>1460</ele>
        <time>2021-06-27T11:19:57.071Z</time>
      </trkpt>
      <trkpt lat="45.56175" lon="6.0655">
        <ele>1460</ele>
        <time>2021-06-27T11:19:58.071Z</time>
      </trkpt>
      <trkpt lat="45.56175" lon="6.06551">
        <ele>1460</ele>
        <time>2021-06-27T11:19:59.071Z</time>
      </trkpt>
      <trkpt lat="45.56175" lon="6.06552">
        <ele>1460</ele>
        <time>2021-06-27T11:20:00.071Z</time>
      </trkpt>
      <trkpt lat="45.56174" lon="6.06553">
        <ele>1460</ele>
        <time>2021-06-27T11:20:01.070Z</time>
      </trkpt>
      <trkpt lat="45.56174" lon="6.06555">
        <ele>1460</ele>
        <time>2021-06-27T11:20:02.071Z</time>
      </trkpt>
      <trkpt lat="45.56174" lon="6.06556">
        <ele>1461</ele>
        <time>2021-06-27T11:20:03.071Z</time>
      </trkpt>
      <trkpt lat="45.56173" lon="6.06558">
        <ele>1461</ele>
        <time>2021-06-27T11:20:04.071Z</time>
      </trkpt>
      <trkpt lat="45.56173" lon="6.06559">
        <ele>1462</ele>
        <time>2021-06-27T11:20:05.071Z</time>
      </trkpt>
      <trkpt lat="45.56173" lon="6.06561">
        <ele>1462</ele>
        <time>2021-06-27T11:20:06.071Z</time>
      </trkpt>
      <trkpt lat="45.56172" lon="6.06563">
        <ele>1462</ele>
        <time>2021-06-27T11:20:07.070Z</time>
      </trkpt>
      <trkpt lat="45.56172" lon="6.06564">
        <ele>1462</ele>
        <time>2021-06-27T11:20:08.071Z</time>
      </trkpt>
      <trkpt lat="45.56171" lon="6.06565">
        <ele>1462</ele>
        <time>2021-06-27T11:20:09.071Z</time>
      </trkpt>
      <trkpt lat="45.56171" lon="6.06567">
        <ele>1462</ele>
        <time>2021-06-27T11:20:10.071Z</time>
      </trkpt>
      <trkpt lat="45.5617" lon="6.06568">
        <ele>1462</ele>
        <time>2021-06-27T11:20:11.071Z</time>
      </trkpt>
      <trkpt lat="45.5617" lon="6.06569">
        <ele>1462</ele>
        <time>2021-06-27T11:20:12.071Z</time>
      </trkpt>
      <trkpt lat="45.5617" lon="6.0657">
        <ele>1463</ele>
        <time>2021-06-27T11:20:13.071Z</time>
      </trkpt>
      <trkpt lat="45.56169" lon="6.06572">
        <ele>1463</ele>
        <time>2021-06-27T11:20:14.070Z</time>
      </trkpt>
      <trkpt lat="45.56169" lon="6.06573">
        <ele>1464</ele>
        <time>2021-06-27T11:20:15.071Z</time>
      </trkpt>
      <trkpt lat="45.56169" lon="6.06574">
        <ele>1464</ele>
        <time>2021-06-27T11:20:16.071Z</time>
      </trkpt>
      <trkpt lat="45.56168" lon="6.06575">
        <ele>1464</ele>
        <time>2021-06-27T11:20:17.071Z</time>
      </trkpt>
      <trkpt lat="45.56168" lon="6.06575">
        <ele>1465</ele>
        <time>2021-06-27T11:20:18.071Z</time>
      </trkpt>
      <trkpt lat="45.56168" lon="6.06576">
        <ele>1465</ele>
        <time>2021-06-27T11:20:19.071Z</time>
      </trkpt>
      <trkpt lat="45.56168" lon="6.06576">
        <ele>1465</ele>
        <time>2021-06-27T11:20:20.071Z</time>
      </trkpt>
      <trkpt lat="45.56168" lon="6.06576">
        <ele>1465</ele>
        <time>2021-06-27T11:20:21.071Z</time>
      </trkpt>
      <trkpt lat="45.56168" lon="6.06576">
        <ele>1465</ele>
        <time>2021-06-27T11:20:22.071Z</time>
      </trkpt>
      <trkpt lat="45.56168" lon="6.06576">
        <ele>1465</ele>
        <time>2021-06-27T11:20:23.071Z</time>
      </trkpt>
      <trkpt lat="45.56168" lon="6.06577">
        <ele>1465</ele>
        <time>2021-06-27T11:20:24.071Z</time>
      </trkpt>
      <trkpt lat="45.56168" lon="6.06578">
        <ele>1465</ele>
        <time>2021-06-27T11:20:25.071Z</time>
      </trkpt>
      <trkpt lat="45.56168" lon="6.0658">
        <ele>1465</ele>
        <time>2021-06-27T11:20:26.070Z</time>
      </trkpt>
      <trkpt lat="45.56169" lon="6.06581">
        <ele>1466</ele>
        <time>2021-06-27T11:20:27.071Z</time>
      </trkpt>
      <trkpt lat="45.56169" lon="6.06582">
        <ele>1466</ele>
        <time>2021-06-27T11:20:28.071Z</time>
      </trkpt>
      <trkpt lat="45.56169" lon="6.06582">
        <ele>1465</ele>
        <time>2021-06-27T11:20:29.071Z</time>
      </trkpt>
      <trkpt lat="45.56169" lon="6.06582">
        <ele>1466</ele>
        <time>2021-06-27T11:20:30.071Z</time>
      </trkpt>
      <trkpt lat="45.56169" lon="6.06582">
        <ele>1467</ele>
        <time>2021-06-27T11:20:31.071Z</time>
      </trkpt>
      <trkpt lat="45.5617" lon="6.06582">
        <ele>1467</ele>
        <time>2021-06-27T11:20:32.071Z</time>
      </trkpt>
      <trkpt lat="45.5617" lon="6.06582">
        <ele>1467</ele>
        <time>2021-06-27T11:20:33.071Z</time>
      </trkpt>
      <trkpt lat="45.5617" lon="6.06581">
        <ele>1467</ele>
        <time>2021-06-27T11:20:34.071Z</time>
      </trkpt>
      <trkpt lat="45.5617" lon="6.06581">
        <ele>1467</ele>
        <time>2021-06-27T11:20:35.071Z</time>
      </trkpt>
      <trkpt lat="45.5617" lon="6.06581">
        <ele>1466</ele>
        <time>2021-06-27T11:20:36.071Z</time>
      </trkpt>
      <trkpt lat="45.5617" lon="6.06581">
        <ele>1466</ele>
        <time>2021-06-27T11:20:37.071Z</time>
      </trkpt>
      <trkpt lat="45.56171" lon="6.06581">
        <ele>1465</ele>
        <time>2021-06-27T11:20:38.071Z</time>
      </trkpt>
      <trkpt lat="45.56171" lon="6.06581">
        <ele>1465</ele>
        <time>2021-06-27T11:20:39.071Z</time>
      </trkpt>
      <trkpt lat="45.56171" lon="6.06581">
        <ele>1464</ele>
        <time>2021-06-27T11:20:40.071Z</time>
      </trkpt>
      <trkpt lat="45.56171" lon="6.06581">
        <ele>1464</ele>
        <time>2021-06-27T11:20:41.071Z</time>
      </trkpt>
      <trkpt lat="45.56172" lon="6.06581">
        <ele>1463</ele>
        <time>2021-06-27T11:20:42.071Z</time>
      </trkpt>
      <trkpt lat="45.56172" lon="6.06581">
        <ele>1463</ele>
        <time>2021-06-27T11:20:43.071Z</time>
      </trkpt>
      <trkpt lat="45.56172" lon="6.06581">
        <ele>1462</ele>
        <time>2021-06-27T11:20:44.071Z</time>
      </trkpt>
      <trkpt lat="45.56171" lon="6.06581">
        <ele>1462</ele>
        <time>2021-06-27T11:20:45.070Z</time>
      </trkpt>
      <trkpt lat="45.56171" lon="6.06581">
        <ele>1461</ele>
        <time>2021-06-27T11:20:46.071Z</time>
      </trkpt>
      <trkpt lat="45.5617" lon="6.06581">
        <ele>1461</ele>
        <time>2021-06-27T11:20:47.071Z</time>
      </trkpt>
      <trkpt lat="45.56169" lon="6.06581">
        <ele>1461</ele>
        <time>2021-06-27T11:20:48.071Z</time>
      </trkpt>
      <trkpt lat="45.56169" lon="6.06581">
        <ele>1461</ele>
        <time>2021-06-27T11:20:49.071Z</time>
      </trkpt>
      <trkpt lat="45.56169" lon="6.06581">
        <ele>1461</ele>
        <time>2021-06-27T11:20:50.071Z</time>
      </trkpt>
      <trkpt lat="45.5617" lon="6.06581">
        <ele>1461</ele>
        <time>2021-06-27T11:20:51.071Z</time>
      </trkpt>
      <trkpt lat="45.5617" lon="6.06581">
        <ele>1461</ele>
        <time>2021-06-27T11:20:52.070Z</time>
      </trkpt>
      <trkpt lat="45.56171" lon="6.06581">
        <ele>1461</ele>
        <time>2021-06-27T11:20:53.071Z</time>
      </trkpt>
      <trkpt lat="45.56172" lon="6.06581">
        <ele>1461</ele>
        <time>2021-06-27T11:20:54.071Z</time>
      </trkpt>
      <trkpt lat="45.56173" lon="6.06581">
        <ele>1461</ele>
        <time>2021-06-27T11:20:55.071Z</time>
      </trkpt>
      <trkpt lat="45.56173" lon="6.06581">
        <ele>1461</ele>
        <time>2021-06-27T11:20:56.070Z</time>
      </trkpt>
      <trkpt lat="45.56174" lon="6.06581">
        <ele>1461</ele>
        <time>2021-06-27T11:20:57.071Z</time>
      </trkpt>
      <trkpt lat="45.56174" lon="6.06581">
        <ele>1462</ele>
        <time>2021-06-27T11:20:58.071Z</time>
      </trkpt>
      <trkpt lat="45.56174" lon="6.06581">
        <ele>1462</ele>
        <time>2021-06-27T11:20:59.071Z</time>
      </trkpt>
      <trkpt lat="45.56174" lon="6.06581">
        <ele>1463</ele>
        <time>2021-06-27T11:21:00.071Z</time>
      </trkpt>
      <trkpt lat="45.56174" lon="6.06581">
        <ele>1463</ele>
        <time>2021-06-27T11:21:01.070Z</time>
      </trkpt>
      <trkpt lat="45.56174" lon="6.0658">
        <ele>1463</ele>
        <time>2021-06-27T11:21:02.071Z</time>
      </trkpt>
      <trkpt lat="45.56173" lon="6.0658">
        <ele>1464</ele>
        <time>2021-06-27T11:21:03.071Z</time>
      </trkpt>
      <trkpt lat="45.56173" lon="6.06579">
        <ele>1464</ele>
        <time>2021-06-27T11:21:04.070Z</time>
      </trkpt>
      <trkpt lat="45.56173" lon="6.06579">
        <ele>1464</ele>
        <time>2021-06-27T11:21:05.070Z</time>
      </trkpt>
      <trkpt lat="45.56173" lon="6.06579">
        <ele>1465</ele>
        <time>2021-06-27T11:21:06.070Z</time>
      </trkpt>
      <trkpt lat="45.56173" lon="6.06578">
        <ele>1465</ele>
        <time>2021-06-27T11:21:07.071Z</time>
      </trkpt>
      <trkpt lat="45.56173" lon="6.06577">
        <ele>1465</ele>
        <time>2021-06-27T11:21:08.071Z</time>
      </trkpt>
      <trkpt lat="45.56173" lon="6.06576">
        <ele>1465</ele>
        <time>2021-06-27T11:21:09.070Z</time>
      </trkpt>
      <trkpt lat="45.56174" lon="6.06575">
        <ele>1466</ele>
        <time>2021-06-27T11:21:10.070Z</time>
      </trkpt>
      <trkpt lat="45.56174" lon="6.06574">
        <ele>1466</ele>
        <time>2021-06-27T11:21:11.071Z</time>
      </trkpt>
      <trkpt lat="45.56175" lon="6.06573">
        <ele>1467</ele>
        <time>2021-06-27T11:21:12.070Z</time>
      </trkpt>
      <trkpt lat="45.56176" lon="6.06573">
        <ele>1467</ele>
        <time>2021-06-27T11:21:13.070Z</time>
      </trkpt>
      <trkpt lat="45.56177" lon="6.06573">
        <ele>1467</ele>
        <time>2021-06-27T11:21:14.071Z</time>
      </trkpt>
      <trkpt lat="45.56177" lon="6.06573">
        <ele>1467</ele>
        <time>2021-06-27T11:21:15.071Z</time>
      </trkpt>
      <trkpt lat="45.56178" lon="6.06573">
        <ele>1467</ele>
        <time>2021-06-27T11:21:16.071Z</time>
      </trkpt>
      <trkpt lat="45.56178" lon="6.06573">
        <ele>1468</ele>
        <time>2021-06-27T11:21:17.071Z</time>
      </trkpt>
      <trkpt lat="45.56179" lon="6.06573">
        <ele>1468</ele>
        <time>2021-06-27T11:21:18.070Z</time>
      </trkpt>
      <trkpt lat="45.5618" lon="6.06573">
        <ele>1469</ele>
        <time>2021-06-27T11:21:19.070Z</time>
      </trkpt>
      <trkpt lat="45.56181" lon="6.06572">
        <ele>1469</ele>
        <time>2021-06-27T11:21:20.070Z</time>
      </trkpt>
      <trkpt lat="45.56181" lon="6.06572">
        <ele>1469</ele>
        <time>2021-06-27T11:21:21.071Z</time>
      </trkpt>
      <trkpt lat="45.56182" lon="6.06572">
        <ele>1469</ele>
        <time>2021-06-27T11:21:22.071Z</time>
      </trkpt>
      <trkpt lat="45.56183" lon="6.06572">
        <ele>1470</ele>
        <time>2021-06-27T11:21:23.071Z</time>
      </trkpt>
      <trkpt lat="45.56183" lon="6.06572">
        <ele>1470</ele>
        <time>2021-06-27T11:21:24.070Z</time>
      </trkpt>
      <trkpt lat="45.56184" lon="6.06572">
        <ele>1470</ele>
        <time>2021-06-27T11:21:25.070Z</time>
      </trkpt>
      <trkpt lat="45.56185" lon="6.06572">
        <ele>1470</ele>
        <time>2021-06-27T11:21:26.071Z</time>
      </trkpt>
      <trkpt lat="45.56185" lon="6.06572">
        <ele>1470</ele>
        <time>2021-06-27T11:21:27.071Z</time>
      </trkpt>
      <trkpt lat="45.56185" lon="6.06573">
        <ele>1470</ele>
        <time>2021-06-27T11:21:28.071Z</time>
      </trkpt>
      <trkpt lat="45.56186" lon="6.06573">
        <ele>1470</ele>
        <time>2021-06-27T11:21:29.071Z</time>
      </trkpt>
      <trkpt lat="45.56187" lon="6.06573">
        <ele>1470</ele>
        <time>2021-06-27T11:21:30.070Z</time>
      </trkpt>
      <trkpt lat="45.56187" lon="6.06573">
        <ele>1470</ele>
        <time>2021-06-27T11:21:31.071Z</time>
      </trkpt>
      <trkpt lat="45.56188" lon="6.06573">
        <ele>1471</ele>
        <time>2021-06-27T11:21:32.071Z</time>
      </trkpt>
      <trkpt lat="45.56188" lon="6.06573">
        <ele>1471</ele>
        <time>2021-06-27T11:21:33.071Z</time>
      </trkpt>
      <trkpt lat="45.56189" lon="6.06573">
        <ele>1471</ele>
        <time>2021-06-27T11:21:34.071Z</time>
      </trkpt>
      <trkpt lat="45.5619" lon="6.06573">
        <ele>1471</ele>
        <time>2021-06-27T11:21:35.070Z</time>
      </trkpt>
      <trkpt lat="45.5619" lon="6.06573">
        <ele>1471</ele>
        <time>2021-06-27T11:21:36.071Z</time>
      </trkpt>
      <trkpt lat="45.5619" lon="6.06572">
        <ele>1471</ele>
        <time>2021-06-27T11:21:37.071Z</time>
      </trkpt>
      <trkpt lat="45.56191" lon="6.06573">
        <ele>1471</ele>
        <time>2021-06-27T11:21:38.070Z</time>
      </trkpt>
      <trkpt lat="45.56192" lon="6.06572">
        <ele>1471</ele>
        <time>2021-06-27T11:21:39.071Z</time>
      </trkpt>
      <trkpt lat="45.56192" lon="6.06572">
        <ele>1471</ele>
        <time>2021-06-27T11:21:40.070Z</time>
      </trkpt>
      <trkpt lat="45.56193" lon="6.06572">
        <ele>1472</ele>
        <time>2021-06-27T11:21:41.071Z</time>
      </trkpt>
      <trkpt lat="45.56193" lon="6.06572">
        <ele>1472</ele>
        <time>2021-06-27T11:21:42.071Z</time>
      </trkpt>
      <trkpt lat="45.56194" lon="6.06572">
        <ele>1472</ele>
        <time>2021-06-27T11:21:43.071Z</time>
      </trkpt>
      <trkpt lat="45.56194" lon="6.06572">
        <ele>1472</ele>
        <time>2021-06-27T11:21:44.071Z</time>
      </trkpt>
      <trkpt lat="45.56195" lon="6.06572">
        <ele>1473</ele>
        <time>2021-06-27T11:21:45.071Z</time>
      </trkpt>
      <trkpt lat="45.56195" lon="6.06571">
        <ele>1473</ele>
        <time>2021-06-27T11:21:46.070Z</time>
      </trkpt>
      <trkpt lat="45.56196" lon="6.06571">
        <ele>1473</ele>
        <time>2021-06-27T11:21:47.071Z</time>
      </trkpt>
      <trkpt lat="45.56196" lon="6.0657">
        <ele>1474</ele>
        <time>2021-06-27T11:21:48.071Z</time>
      </trkpt>
      <trkpt lat="45.56197" lon="6.0657">
        <ele>1474</ele>
        <time>2021-06-27T11:21:49.071Z</time>
      </trkpt>
      <trkpt lat="45.56198" lon="6.06569">
        <ele>1475</ele>
        <time>2021-06-27T11:21:50.071Z</time>
      </trkpt>
      <trkpt lat="45.56198" lon="6.06569">
        <ele>1475</ele>
        <time>2021-06-27T11:21:51.070Z</time>
      </trkpt>
      <trkpt lat="45.56199" lon="6.06569">
        <ele>1475</ele>
        <time>2021-06-27T11:21:52.070Z</time>
      </trkpt>
      <trkpt lat="45.562" lon="6.06569">
        <ele>1476</ele>
        <time>2021-06-27T11:21:53.071Z</time>
      </trkpt>
      <trkpt lat="45.562" lon="6.06569">
        <ele>1476</ele>
        <time>2021-06-27T11:21:54.071Z</time>
      </trkpt>
      <trkpt lat="45.562" lon="6.06568">
        <ele>1476</ele>
        <time>2021-06-27T11:21:55.071Z</time>
      </trkpt>
      <trkpt lat="45.56201" lon="6.06568">
        <ele>1476</ele>
        <time>2021-06-27T11:21:56.071Z</time>
      </trkpt>
      <trkpt lat="45.56201" lon="6.06568">
        <ele>1476</ele>
        <time>2021-06-27T11:21:57.070Z</time>
      </trkpt>
      <trkpt lat="45.56202" lon="6.06568">
        <ele>1476</ele>
        <time>2021-06-27T11:21:58.071Z</time>
      </trkpt>
      <trkpt lat="45.56202" lon="6.06568">
        <ele>1476</ele>
        <time>2021-06-27T11:21:59.071Z</time>
      </trkpt>
      <trkpt lat="45.56203" lon="6.06568">
        <ele>1476</ele>
        <time>2021-06-27T11:22:00.071Z</time>
      </trkpt>
      <trkpt lat="45.56203" lon="6.06568">
        <ele>1476</ele>
        <time>2021-06-27T11:22:01.071Z</time>
      </trkpt>
      <trkpt lat="45.56204" lon="6.06568">
        <ele>1477</ele>
        <time>2021-06-27T11:22:02.071Z</time>
      </trkpt>
      <trkpt lat="45.56204" lon="6.06568">
        <ele>1477</ele>
        <time>2021-06-27T11:22:03.071Z</time>
      </trkpt>
      <trkpt lat="45.56205" lon="6.06568">
        <ele>1478</ele>
        <time>2021-06-27T11:22:04.071Z</time>
      </trkpt>
      <trkpt lat="45.56205" lon="6.06568">
        <ele>1478</ele>
        <time>2021-06-27T11:22:05.071Z</time>
      </trkpt>
      <trkpt lat="45.56206" lon="6.06568">
        <ele>1479</ele>
        <time>2021-06-27T11:22:06.071Z</time>
      </trkpt>
      <trkpt lat="45.56207" lon="6.06568">
        <ele>1479</ele>
        <time>2021-06-27T11:22:07.071Z</time>
      </trkpt>
      <trkpt lat="45.56207" lon="6.06568">
        <ele>1480</ele>
        <time>2021-06-27T11:22:08.071Z</time>
      </trkpt>
      <trkpt lat="45.56208" lon="6.06568">
        <ele>1480</ele>
        <time>2021-06-27T11:22:09.070Z</time>
      </trkpt>
      <trkpt lat="45.56209" lon="6.06568">
        <ele>1480</ele>
        <time>2021-06-27T11:22:10.071Z</time>
      </trkpt>
      <trkpt lat="45.56209" lon="6.06568">
        <ele>1481</ele>
        <time>2021-06-27T11:22:11.070Z</time>
      </trkpt>
      <trkpt lat="45.5621" lon="6.06568">
        <ele>1481</ele>
        <time>2021-06-27T11:22:12.070Z</time>
      </trkpt>
      <trkpt lat="45.5621" lon="6.06568">
        <ele>1481</ele>
        <time>2021-06-27T11:22:13.071Z</time>
      </trkpt>
      <trkpt lat="45.56211" lon="6.06568">
        <ele>1481</ele>
        <time>2021-06-27T11:22:14.071Z</time>
      </trkpt>
      <trkpt lat="45.56211" lon="6.06569">
        <ele>1482</ele>
        <time>2021-06-27T11:22:15.071Z</time>
      </trkpt>
      <trkpt lat="45.56212" lon="6.06569">
        <ele>1482</ele>
        <time>2021-06-27T11:22:16.071Z</time>
      </trkpt>
      <trkpt lat="45.56213" lon="6.06569">
        <ele>1482</ele>
        <time>2021-06-27T11:22:17.070Z</time>
      </trkpt>
      <trkpt lat="45.56213" lon="6.06569">
        <ele>1483</ele>
        <time>2021-06-27T11:22:18.071Z</time>
      </trkpt>
      <trkpt lat="45.56214" lon="6.06569">
        <ele>1483</ele>
        <time>2021-06-27T11:22:19.071Z</time>
      </trkpt>
      <trkpt lat="45.56215" lon="6.06569">
        <ele>1483</ele>
        <time>2021-06-27T11:22:20.071Z</time>
      </trkpt>
      <trkpt lat="45.56215" lon="6.06569">
        <ele>1483</ele>
        <time>2021-06-27T11:22:21.071Z</time>
      </trkpt>
      <trkpt lat="45.56216" lon="6.0657">
        <ele>1484</ele>
        <time>2021-06-27T11:22:22.071Z</time>
      </trkpt>
      <trkpt lat="45.56216" lon="6.0657">
        <ele>1484</ele>
        <time>2021-06-27T11:22:23.071Z</time>
      </trkpt>
      <trkpt lat="45.56217" lon="6.0657">
        <ele>1484</ele>
        <time>2021-06-27T11:22:24.070Z</time>
      </trkpt>
      <trkpt lat="45.56218" lon="6.0657">
        <ele>1484</ele>
        <time>2021-06-27T11:22:25.071Z</time>
      </trkpt>
      <trkpt lat="45.56218" lon="6.0657">
        <ele>1484</ele>
        <time>2021-06-27T11:22:26.071Z</time>
      </trkpt>
      <trkpt lat="45.56218" lon="6.06571">
        <ele>1484</ele>
        <time>2021-06-27T11:22:27.070Z</time>
      </trkpt>
      <trkpt lat="45.56219" lon="6.06571">
        <ele>1484</ele>
        <time>2021-06-27T11:22:28.071Z</time>
      </trkpt>
      <trkpt lat="45.56219" lon="6.06571">
        <ele>1484</ele>
        <time>2021-06-27T11:22:29.071Z</time>
      </trkpt>
      <trkpt lat="45.56219" lon="6.06571">
        <ele>1484</ele>
        <time>2021-06-27T11:22:30.071Z</time>
      </trkpt>
      <trkpt lat="45.5622" lon="6.06571">
        <ele>1484</ele>
        <time>2021-06-27T11:22:31.071Z</time>
      </trkpt>
      <trkpt lat="45.5622" lon="6.06571">
        <ele>1484</ele>
        <time>2021-06-27T11:22:32.071Z</time>
      </trkpt>
      <trkpt lat="45.56221" lon="6.06571">
        <ele>1485</ele>
        <time>2021-06-27T11:22:33.071Z</time>
      </trkpt>
      <trkpt lat="45.56221" lon="6.06572">
        <ele>1485</ele>
        <time>2021-06-27T11:22:34.071Z</time>
      </trkpt>
      <trkpt lat="45.56221" lon="6.06572">
        <ele>1485</ele>
        <time>2021-06-27T11:22:35.071Z</time>
      </trkpt>
      <trkpt lat="45.56222" lon="6.06572">
        <ele>1486</ele>
        <time>2021-06-27T11:22:36.070Z</time>
      </trkpt>
      <trkpt lat="45.56222" lon="6.06572">
        <ele>1486</ele>
        <time>2021-06-27T11:22:37.071Z</time>
      </trkpt>
      <trkpt lat="45.56223" lon="6.06572">
        <ele>1486</ele>
        <time>2021-06-27T11:22:38.071Z</time>
      </trkpt>
      <trkpt lat="45.56224" lon="6.06572">
        <ele>1487</ele>
        <time>2021-06-27T11:22:39.070Z</time>
      </trkpt>
      <trkpt lat="45.56224" lon="6.06572">
        <ele>1488</ele>
        <time>2021-06-27T11:22:40.070Z</time>
      </trkpt>
      <trkpt lat="45.56225" lon="6.06573">
        <ele>1488</ele>
        <time>2021-06-27T11:22:41.070Z</time>
      </trkpt>
      <trkpt lat="45.56226" lon="6.06573">
        <ele>1489</ele>
        <time>2021-06-27T11:22:42.071Z</time>
      </trkpt>
      <trkpt lat="45.56226" lon="6.06573">
        <ele>1489</ele>
        <time>2021-06-27T11:22:43.071Z</time>
      </trkpt>
      <trkpt lat="45.56226" lon="6.06573">
        <ele>1490</ele>
        <time>2021-06-27T11:22:44.071Z</time>
      </trkpt>
      <trkpt lat="45.56227" lon="6.06574">
        <ele>1490</ele>
        <time>2021-06-27T11:22:45.071Z</time>
      </trkpt>
      <trkpt lat="45.56227" lon="6.06574">
        <ele>1491</ele>
        <time>2021-06-27T11:22:46.070Z</time>
      </trkpt>
      <trkpt lat="45.56227" lon="6.06575">
        <ele>1491</ele>
        <time>2021-06-27T11:22:47.071Z</time>
      </trkpt>
      <trkpt lat="45.56228" lon="6.06575">
        <ele>1491</ele>
        <time>2021-06-27T11:22:48.071Z</time>
      </trkpt>
      <trkpt lat="45.56229" lon="6.06576">
        <ele>1491</ele>
        <time>2021-06-27T11:22:49.071Z</time>
      </trkpt>
      <trkpt lat="45.56229" lon="6.06576">
        <ele>1491</ele>
        <time>2021-06-27T11:22:50.071Z</time>
      </trkpt>
      <trkpt lat="45.56229" lon="6.06577">
        <ele>1492</ele>
        <time>2021-06-27T11:22:51.071Z</time>
      </trkpt>
      <trkpt lat="45.5623" lon="6.06578">
        <ele>1492</ele>
        <time>2021-06-27T11:22:52.070Z</time>
      </trkpt>
      <trkpt lat="45.56231" lon="6.06579">
        <ele>1493</ele>
        <time>2021-06-27T11:22:53.071Z</time>
      </trkpt>
      <trkpt lat="45.56231" lon="6.06579">
        <ele>1493</ele>
        <time>2021-06-27T11:22:54.071Z</time>
      </trkpt>
      <trkpt lat="45.56232" lon="6.0658">
        <ele>1493</ele>
        <time>2021-06-27T11:22:55.071Z</time>
      </trkpt>
      <trkpt lat="45.56232" lon="6.0658">
        <ele>1494</ele>
        <time>2021-06-27T11:22:56.071Z</time>
      </trkpt>
      <trkpt lat="45.56233" lon="6.06581">
        <ele>1494</ele>
        <time>2021-06-27T11:22:57.071Z</time>
      </trkpt>
      <trkpt lat="45.56233" lon="6.06581">
        <ele>1494</ele>
        <time>2021-06-27T11:22:58.071Z</time>
      </trkpt>
      <trkpt lat="45.56234" lon="6.06582">
        <ele>1495</ele>
        <time>2021-06-27T11:22:59.070Z</time>
      </trkpt>
      <trkpt lat="45.56235" lon="6.06582">
        <ele>1496</ele>
        <time>2021-06-27T11:23:00.071Z</time>
      </trkpt>
      <trkpt lat="45.56236" lon="6.06583">
        <ele>1497</ele>
        <time>2021-06-27T11:23:01.071Z</time>
      </trkpt>
      <trkpt lat="45.56237" lon="6.06583">
        <ele>1497</ele>
        <time>2021-06-27T11:23:02.071Z</time>
      </trkpt>
      <trkpt lat="45.56238" lon="6.06584">
        <ele>1498</ele>
        <time>2021-06-27T11:23:03.071Z</time>
      </trkpt>
      <trkpt lat="45.56239" lon="6.06584">
        <ele>1498</ele>
        <time>2021-06-27T11:23:04.070Z</time>
      </trkpt>
      <trkpt lat="45.5624" lon="6.06584">
        <ele>1498</ele>
        <time>2021-06-27T11:23:05.070Z</time>
      </trkpt>
      <trkpt lat="45.5624" lon="6.06585">
        <ele>1498</ele>
        <time>2021-06-27T11:23:06.071Z</time>
      </trkpt>
      <trkpt lat="45.56241" lon="6.06585">
        <ele>1498</ele>
        <time>2021-06-27T11:23:07.071Z</time>
      </trkpt>
      <trkpt lat="45.56242" lon="6.06586">
        <ele>1498</ele>
        <time>2021-06-27T11:23:08.071Z</time>
      </trkpt>
      <trkpt lat="45.56242" lon="6.06586">
        <ele>1498</ele>
        <time>2021-06-27T11:23:09.070Z</time>
      </trkpt>
      <trkpt lat="45.56243" lon="6.06586">
        <ele>1498</ele>
        <time>2021-06-27T11:23:10.070Z</time>
      </trkpt>
      <trkpt lat="45.56243" lon="6.06587">
        <ele>1498</ele>
        <time>2021-06-27T11:23:11.071Z</time>
      </trkpt>
      <trkpt lat="45.56244" lon="6.06588">
        <ele>1498</ele>
        <time>2021-06-27T11:23:12.071Z</time>
      </trkpt>
      <trkpt lat="45.56244" lon="6.06588">
        <ele>1499</ele>
        <time>2021-06-27T11:23:13.071Z</time>
      </trkpt>
      <trkpt lat="45.56245" lon="6.06588">
        <ele>1499</ele>
        <time>2021-06-27T11:23:14.071Z</time>
      </trkpt>
      <trkpt lat="45.56246" lon="6.06589">
        <ele>1499</ele>
        <time>2021-06-27T11:23:15.070Z</time>
      </trkpt>
      <trkpt lat="45.56247" lon="6.06589">
        <ele>1499</ele>
        <time>2021-06-27T11:23:16.071Z</time>
      </trkpt>
      <trkpt lat="45.56247" lon="6.0659">
        <ele>1500</ele>
        <time>2021-06-27T11:23:17.071Z</time>
      </trkpt>
      <trkpt lat="45.56247" lon="6.0659">
        <ele>1500</ele>
        <time>2021-06-27T11:23:18.071Z</time>
      </trkpt>
      <trkpt lat="45.56248" lon="6.06591">
        <ele>1501</ele>
        <time>2021-06-27T11:23:19.070Z</time>
      </trkpt>
      <trkpt lat="45.56249" lon="6.06592">
        <ele>1501</ele>
        <time>2021-06-27T11:23:20.071Z</time>
      </trkpt>
      <trkpt lat="45.5625" lon="6.06593">
        <ele>1502</ele>
        <time>2021-06-27T11:23:21.071Z</time>
      </trkpt>
      <trkpt lat="45.56251" lon="6.06593">
        <ele>1502</ele>
        <time>2021-06-27T11:23:22.071Z</time>
      </trkpt>
      <trkpt lat="45.56252" lon="6.06594">
        <ele>1503</ele>
        <time>2021-06-27T11:23:23.071Z</time>
      </trkpt>
      <trkpt lat="45.56253" lon="6.06594">
        <ele>1503</ele>
        <time>2021-06-27T11:23:24.071Z</time>
      </trkpt>
      <trkpt lat="45.56253" lon="6.06595">
        <ele>1503</ele>
        <time>2021-06-27T11:23:25.071Z</time>
      </trkpt>
      <trkpt lat="45.56254" lon="6.06596">
        <ele>1503</ele>
        <time>2021-06-27T11:23:26.071Z</time>
      </trkpt>
      <trkpt lat="45.56254" lon="6.06596">
        <ele>1503</ele>
        <time>2021-06-27T11:23:27.070Z</time>
      </trkpt>
      <trkpt lat="45.56255" lon="6.06597">
        <ele>1504</ele>
        <time>2021-06-27T11:23:28.071Z</time>
      </trkpt>
      <trkpt lat="45.56256" lon="6.06597">
        <ele>1504</ele>
        <time>2021-06-27T11:23:29.071Z</time>
      </trkpt>
      <trkpt lat="45.56257" lon="6.06598">
        <ele>1505</ele>
        <time>2021-06-27T11:23:30.071Z</time>
      </trkpt>
      <trkpt lat="45.56258" lon="6.06599">
        <ele>1505</ele>
        <time>2021-06-27T11:23:31.071Z</time>
      </trkpt>
      <trkpt lat="45.56258" lon="6.06599">
        <ele>1505</ele>
        <time>2021-06-27T11:23:32.071Z</time>
      </trkpt>
      <trkpt lat="45.56259" lon="6.066">
        <ele>1504</ele>
        <time>2021-06-27T11:23:33.071Z</time>
      </trkpt>
      <trkpt lat="45.5626" lon="6.066">
        <ele>1505</ele>
        <time>2021-06-27T11:23:34.071Z</time>
      </trkpt>
      <trkpt lat="45.56261" lon="6.06601">
        <ele>1505</ele>
        <time>2021-06-27T11:23:35.070Z</time>
      </trkpt>
      <trkpt lat="45.56261" lon="6.06602">
        <ele>1505</ele>
        <time>2021-06-27T11:23:36.070Z</time>
      </trkpt>
      <trkpt lat="45.56262" lon="6.06603">
        <ele>1506</ele>
        <time>2021-06-27T11:23:37.070Z</time>
      </trkpt>
      <trkpt lat="45.56263" lon="6.06603">
        <ele>1506</ele>
        <time>2021-06-27T11:23:38.070Z</time>
      </trkpt>
      <trkpt lat="45.56263" lon="6.06604">
        <ele>1506</ele>
        <time>2021-06-27T11:23:39.071Z</time>
      </trkpt>
      <trkpt lat="45.56264" lon="6.06604">
        <ele>1506</ele>
        <time>2021-06-27T11:23:40.070Z</time>
      </trkpt>
      <trkpt lat="45.56265" lon="6.06605">
        <ele>1506</ele>
        <time>2021-06-27T11:23:41.071Z</time>
      </trkpt>
      <trkpt lat="45.56265" lon="6.06605">
        <ele>1506</ele>
        <time>2021-06-27T11:23:42.071Z</time>
      </trkpt>
      <trkpt lat="45.56266" lon="6.06606">
        <ele>1506</ele>
        <time>2021-06-27T11:23:43.071Z</time>
      </trkpt>
      <trkpt lat="45.56268" lon="6.06606">
        <ele>1506</ele>
        <time>2021-06-27T11:23:44.071Z</time>
      </trkpt>
      <trkpt lat="45.56268" lon="6.06606">
        <ele>1507</ele>
        <time>2021-06-27T11:23:45.071Z</time>
      </trkpt>
      <trkpt lat="45.56269" lon="6.06606">
        <ele>1507</ele>
        <time>2021-06-27T11:23:46.071Z</time>
      </trkpt>
      <trkpt lat="45.5627" lon="6.06607">
        <ele>1508</ele>
        <time>2021-06-27T11:23:47.071Z</time>
      </trkpt>
      <trkpt lat="45.56271" lon="6.06607">
        <ele>1508</ele>
        <time>2021-06-27T11:23:48.071Z</time>
      </trkpt>
      <trkpt lat="45.56271" lon="6.06608">
        <ele>1508</ele>
        <time>2021-06-27T11:23:49.071Z</time>
      </trkpt>
      <trkpt lat="45.56272" lon="6.06608">
        <ele>1508</ele>
        <time>2021-06-27T11:23:50.071Z</time>
      </trkpt>
      <trkpt lat="45.56273" lon="6.06608">
        <ele>1508</ele>
        <time>2021-06-27T11:23:51.071Z</time>
      </trkpt>
      <trkpt lat="45.56274" lon="6.06608">
        <ele>1508</ele>
        <time>2021-06-27T11:23:52.071Z</time>
      </trkpt>
      <trkpt lat="45.56274" lon="6.06608">
        <ele>1508</ele>
        <time>2021-06-27T11:23:53.070Z</time>
      </trkpt>
      <trkpt lat="45.56275" lon="6.06608">
        <ele>1508</ele>
        <time>2021-06-27T11:23:54.070Z</time>
      </trkpt>
      <trkpt lat="45.56275" lon="6.06608">
        <ele>1507</ele>
        <time>2021-06-27T11:23:55.071Z</time>
      </trkpt>
      <trkpt lat="45.56276" lon="6.06608">
        <ele>1507</ele>
        <time>2021-06-27T11:23:56.071Z</time>
      </trkpt>
      <trkpt lat="45.56277" lon="6.06608">
        <ele>1507</ele>
        <time>2021-06-27T11:23:57.071Z</time>
      </trkpt>
      <trkpt lat="45.56277" lon="6.06609">
        <ele>1508</ele>
        <time>2021-06-27T11:23:58.070Z</time>
      </trkpt>
      <trkpt lat="45.56278" lon="6.06609">
        <ele>1508</ele>
        <time>2021-06-27T11:23:59.071Z</time>
      </trkpt>
      <trkpt lat="45.56279" lon="6.06609">
        <ele>1508</ele>
        <time>2021-06-27T11:24:00.070Z</time>
      </trkpt>
      <trkpt lat="45.5628" lon="6.06609">
        <ele>1508</ele>
        <time>2021-06-27T11:24:01.070Z</time>
      </trkpt>
      <trkpt lat="45.56281" lon="6.06609">
        <ele>1508</ele>
        <time>2021-06-27T11:24:02.071Z</time>
      </trkpt>
      <trkpt lat="45.56282" lon="6.06609">
        <ele>1509</ele>
        <time>2021-06-27T11:24:03.070Z</time>
      </trkpt>
      <trkpt lat="45.56283" lon="6.0661">
        <ele>1509</ele>
        <time>2021-06-27T11:24:04.071Z</time>
      </trkpt>
      <trkpt lat="45.56284" lon="6.06609">
        <ele>1509</ele>
        <time>2021-06-27T11:24:05.071Z</time>
      </trkpt>
      <trkpt lat="45.56285" lon="6.0661">
        <ele>1509</ele>
        <time>2021-06-27T11:24:06.070Z</time>
      </trkpt>
      <trkpt lat="45.56286" lon="6.0661">
        <ele>1509</ele>
        <time>2021-06-27T11:24:07.071Z</time>
      </trkpt>
      <trkpt lat="45.56287" lon="6.0661">
        <ele>1509</ele>
        <time>2021-06-27T11:24:08.071Z</time>
      </trkpt>
      <trkpt lat="45.56287" lon="6.0661">
        <ele>1508</ele>
        <time>2021-06-27T11:24:09.071Z</time>
      </trkpt>
      <trkpt lat="45.56287" lon="6.06612">
        <ele>1508</ele>
        <time>2021-06-27T11:24:10.071Z</time>
      </trkpt>
      <trkpt lat="45.56287" lon="6.06613">
        <ele>1508</ele>
        <time>2021-06-27T11:24:11.071Z</time>
      </trkpt>
      <trkpt lat="45.56288" lon="6.06614">
        <ele>1508</ele>
        <time>2021-06-27T11:24:12.071Z</time>
      </trkpt>
      <trkpt lat="45.56288" lon="6.06614">
        <ele>1508</ele>
        <time>2021-06-27T11:24:13.071Z</time>
      </trkpt>
      <trkpt lat="45.56289" lon="6.06615">
        <ele>1509</ele>
        <time>2021-06-27T11:24:14.071Z</time>
      </trkpt>
      <trkpt lat="45.5629" lon="6.06615">
        <ele>1509</ele>
        <time>2021-06-27T11:24:15.070Z</time>
      </trkpt>
      <trkpt lat="45.5629" lon="6.06615">
        <ele>1510</ele>
        <time>2021-06-27T11:24:16.071Z</time>
      </trkpt>
      <trkpt lat="45.56291" lon="6.06616">
        <ele>1510</ele>
        <time>2021-06-27T11:24:17.071Z</time>
      </trkpt>
      <trkpt lat="45.56292" lon="6.06616">
        <ele>1510</ele>
        <time>2021-06-27T11:24:18.070Z</time>
      </trkpt>
      <trkpt lat="45.56293" lon="6.06617">
        <ele>1511</ele>
        <time>2021-06-27T11:24:19.071Z</time>
      </trkpt>
      <trkpt lat="45.56294" lon="6.06617">
        <ele>1512</ele>
        <time>2021-06-27T11:24:20.071Z</time>
      </trkpt>
      <trkpt lat="45.56295" lon="6.06617">
        <ele>1512</ele>
        <time>2021-06-27T11:24:21.071Z</time>
      </trkpt>
      <trkpt lat="45.56295" lon="6.06617">
        <ele>1513</ele>
        <time>2021-06-27T11:24:22.070Z</time>
      </trkpt>
      <trkpt lat="45.56296" lon="6.06617">
        <ele>1513</ele>
        <time>2021-06-27T11:24:23.070Z</time>
      </trkpt>
      <trkpt lat="45.56297" lon="6.06617">
        <ele>1513</ele>
        <time>2021-06-27T11:24:24.070Z</time>
      </trkpt>
      <trkpt lat="45.56298" lon="6.06617">
        <ele>1514</ele>
        <time>2021-06-27T11:24:25.071Z</time>
      </trkpt>
      <trkpt lat="45.56298" lon="6.06618">
        <ele>1514</ele>
        <time>2021-06-27T11:24:26.071Z</time>
      </trkpt>
      <trkpt lat="45.56298" lon="6.06618">
        <ele>1514</ele>
        <time>2021-06-27T11:24:27.071Z</time>
      </trkpt>
      <trkpt lat="45.56299" lon="6.06619">
        <ele>1515</ele>
        <time>2021-06-27T11:24:28.071Z</time>
      </trkpt>
      <trkpt lat="45.563" lon="6.0662">
        <ele>1516</ele>
        <time>2021-06-27T11:24:29.071Z</time>
      </trkpt>
      <trkpt lat="45.563" lon="6.0662">
        <ele>1516</ele>
        <time>2021-06-27T11:24:30.070Z</time>
      </trkpt>
      <trkpt lat="45.56301" lon="6.06621">
        <ele>1517</ele>
        <time>2021-06-27T11:24:31.071Z</time>
      </trkpt>
      <trkpt lat="45.56302" lon="6.06621">
        <ele>1517</ele>
        <time>2021-06-27T11:24:32.071Z</time>
      </trkpt>
      <trkpt lat="45.56302" lon="6.06622">
        <ele>1518</ele>
        <time>2021-06-27T11:24:33.071Z</time>
      </trkpt>
      <trkpt lat="45.56303" lon="6.06623">
        <ele>1518</ele>
        <time>2021-06-27T11:24:34.071Z</time>
      </trkpt>
      <trkpt lat="45.56303" lon="6.06623">
        <ele>1518</ele>
        <time>2021-06-27T11:24:35.071Z</time>
      </trkpt>
      <trkpt lat="45.56304" lon="6.06624">
        <ele>1518</ele>
        <time>2021-06-27T11:24:36.071Z</time>
      </trkpt>
      <trkpt lat="45.56305" lon="6.06624">
        <ele>1519</ele>
        <time>2021-06-27T11:24:37.071Z</time>
      </trkpt>
      <trkpt lat="45.56305" lon="6.06624">
        <ele>1520</ele>
        <time>2021-06-27T11:24:38.071Z</time>
      </trkpt>
      <trkpt lat="45.56306" lon="6.06625">
        <ele>1521</ele>
        <time>2021-06-27T11:24:39.071Z</time>
      </trkpt>
      <trkpt lat="45.56307" lon="6.06625">
        <ele>1522</ele>
        <time>2021-06-27T11:24:40.070Z</time>
      </trkpt>
      <trkpt lat="45.56308" lon="6.06626">
        <ele>1523</ele>
        <time>2021-06-27T11:24:41.071Z</time>
      </trkpt>
      <trkpt lat="45.56308" lon="6.06627">
        <ele>1523</ele>
        <time>2021-06-27T11:24:42.071Z</time>
      </trkpt>
      <trkpt lat="45.56309" lon="6.06627">
        <ele>1524</ele>
        <time>2021-06-27T11:24:43.070Z</time>
      </trkpt>
      <trkpt lat="45.56309" lon="6.06628">
        <ele>1525</ele>
        <time>2021-06-27T11:24:44.071Z</time>
      </trkpt>
      <trkpt lat="45.56309" lon="6.06628">
        <ele>1525</ele>
        <time>2021-06-27T11:24:45.071Z</time>
      </trkpt>
      <trkpt lat="45.5631" lon="6.06628">
        <ele>1525</ele>
        <time>2021-06-27T11:24:46.071Z</time>
      </trkpt>
      <trkpt lat="45.56311" lon="6.06629">
        <ele>1526</ele>
        <time>2021-06-27T11:24:47.071Z</time>
      </trkpt>
      <trkpt lat="45.56312" lon="6.0663">
        <ele>1527</ele>
        <time>2021-06-27T11:24:48.070Z</time>
      </trkpt>
      <trkpt lat="45.56313" lon="6.06631">
        <ele>1527</ele>
        <time>2021-06-27T11:24:49.071Z</time>
      </trkpt>
      <trkpt lat="45.56313" lon="6.06631">
        <ele>1527</ele>
        <time>2021-06-27T11:24:50.071Z</time>
      </trkpt>
      <trkpt lat="45.56313" lon="6.06632">
        <ele>1527</ele>
        <time>2021-06-27T11:24:51.071Z</time>
      </trkpt>
      <trkpt lat="45.56314" lon="6.06632">
        <ele>1526</ele>
        <time>2021-06-27T11:24:52.071Z</time>
      </trkpt>
      <trkpt lat="45.56314" lon="6.06632">
        <ele>1526</ele>
        <time>2021-06-27T11:24:53.071Z</time>
      </trkpt>
      <trkpt lat="45.56315" lon="6.06633">
        <ele>1526</ele>
        <time>2021-06-27T11:24:54.071Z</time>
      </trkpt>
      <trkpt lat="45.56316" lon="6.06633">
        <ele>1526</ele>
        <time>2021-06-27T11:24:55.070Z</time>
      </trkpt>
      <trkpt lat="45.56317" lon="6.06633">
        <ele>1526</ele>
        <time>2021-06-27T11:24:56.071Z</time>
      </trkpt>
      <trkpt lat="45.56318" lon="6.06633">
        <ele>1526</ele>
        <time>2021-06-27T11:24:57.071Z</time>
      </trkpt>
      <trkpt lat="45.56319" lon="6.06633">
        <ele>1526</ele>
        <time>2021-06-27T11:24:58.071Z</time>
      </trkpt>
      <trkpt lat="45.5632" lon="6.06633">
        <ele>1525</ele>
        <time>2021-06-27T11:24:59.071Z</time>
      </trkpt>
      <trkpt lat="45.56321" lon="6.06634">
        <ele>1525</ele>
        <time>2021-06-27T11:25:00.070Z</time>
      </trkpt>
      <trkpt lat="45.56321" lon="6.06635">
        <ele>1525</ele>
        <time>2021-06-27T11:25:01.071Z</time>
      </trkpt>
      <trkpt lat="45.56322" lon="6.06635">
        <ele>1526</ele>
        <time>2021-06-27T11:25:02.071Z</time>
      </trkpt>
      <trkpt lat="45.56323" lon="6.06635">
        <ele>1526</ele>
        <time>2021-06-27T11:25:03.070Z</time>
      </trkpt>
      <trkpt lat="45.56324" lon="6.06635">
        <ele>1527</ele>
        <time>2021-06-27T11:25:04.071Z</time>
      </trkpt>
      <trkpt lat="45.56325" lon="6.06636">
        <ele>1528</ele>
        <time>2021-06-27T11:25:05.071Z</time>
      </trkpt>
      <trkpt lat="45.56325" lon="6.06636">
        <ele>1528</ele>
        <time>2021-06-27T11:25:06.071Z</time>
      </trkpt>
      <trkpt lat="45.56326" lon="6.06636">
        <ele>1528</ele>
        <time>2021-06-27T11:25:07.071Z</time>
      </trkpt>
      <trkpt lat="45.56327" lon="6.06636">
        <ele>1529</ele>
        <time>2021-06-27T11:25:08.071Z</time>
      </trkpt>
      <trkpt lat="45.56327" lon="6.06636">
        <ele>1529</ele>
        <time>2021-06-27T11:25:09.071Z</time>
      </trkpt>
      <trkpt lat="45.56328" lon="6.06637">
        <ele>1529</ele>
        <time>2021-06-27T11:25:10.071Z</time>
      </trkpt>
      <trkpt lat="45.56329" lon="6.06637">
        <ele>1529</ele>
        <time>2021-06-27T11:25:11.071Z</time>
      </trkpt>
      <trkpt lat="45.5633" lon="6.06637">
        <ele>1529</ele>
        <time>2021-06-27T11:25:12.071Z</time>
      </trkpt>
      <trkpt lat="45.56331" lon="6.06638">
        <ele>1530</ele>
        <time>2021-06-27T11:25:13.071Z</time>
      </trkpt>
      <trkpt lat="45.56332" lon="6.06638">
        <ele>1530</ele>
        <time>2021-06-27T11:25:14.071Z</time>
      </trkpt>
      <trkpt lat="45.56333" lon="6.06638">
        <ele>1530</ele>
        <time>2021-06-27T11:25:15.071Z</time>
      </trkpt>
      <trkpt lat="45.56335" lon="6.06638">
        <ele>1530</ele>
        <time>2021-06-27T11:25:16.071Z</time>
      </trkpt>
      <trkpt lat="45.56335" lon="6.06639">
        <ele>1531</ele>
        <time>2021-06-27T11:25:17.071Z</time>
      </trkpt>
      <trkpt lat="45.56336" lon="6.06639">
        <ele>1531</ele>
        <time>2021-06-27T11:25:18.071Z</time>
      </trkpt>
      <trkpt lat="45.56336" lon="6.0664">
        <ele>1532</ele>
        <time>2021-06-27T11:25:19.070Z</time>
      </trkpt>
      <trkpt lat="45.56337" lon="6.0664">
        <ele>1533</ele>
        <time>2021-06-27T11:25:20.071Z</time>
      </trkpt>
      <trkpt lat="45.56337" lon="6.06641">
        <ele>1534</ele>
        <time>2021-06-27T11:25:21.070Z</time>
      </trkpt>
      <trkpt lat="45.56338" lon="6.06642">
        <ele>1534</ele>
        <time>2021-06-27T11:25:22.070Z</time>
      </trkpt>
      <trkpt lat="45.56338" lon="6.06642">
        <ele>1535</ele>
        <time>2021-06-27T11:25:23.071Z</time>
      </trkpt>
      <trkpt lat="45.56339" lon="6.06643">
        <ele>1536</ele>
        <time>2021-06-27T11:25:24.071Z</time>
      </trkpt>
      <trkpt lat="45.5634" lon="6.06643">
        <ele>1537</ele>
        <time>2021-06-27T11:25:25.071Z</time>
      </trkpt>
      <trkpt lat="45.56341" lon="6.06643">
        <ele>1538</ele>
        <time>2021-06-27T11:25:26.070Z</time>
      </trkpt>
      <trkpt lat="45.56342" lon="6.06643">
        <ele>1538</ele>
        <time>2021-06-27T11:25:27.071Z</time>
      </trkpt>
      <trkpt lat="45.56343" lon="6.06643">
        <ele>1538</ele>
        <time>2021-06-27T11:25:28.071Z</time>
      </trkpt>
      <trkpt lat="45.56344" lon="6.06643">
        <ele>1538</ele>
        <time>2021-06-27T11:25:29.070Z</time>
      </trkpt>
      <trkpt lat="45.56345" lon="6.06644">
        <ele>1538</ele>
        <time>2021-06-27T11:25:30.071Z</time>
      </trkpt>
      <trkpt lat="45.56346" lon="6.06644">
        <ele>1538</ele>
        <time>2021-06-27T11:25:31.070Z</time>
      </trkpt>
      <trkpt lat="45.56346" lon="6.06645">
        <ele>1539</ele>
        <time>2021-06-27T11:25:32.071Z</time>
      </trkpt>
      <trkpt lat="45.56347" lon="6.06645">
        <ele>1539</ele>
        <time>2021-06-27T11:25:33.070Z</time>
      </trkpt>
      <trkpt lat="45.56348" lon="6.06646">
        <ele>1539</ele>
        <time>2021-06-27T11:25:34.071Z</time>
      </trkpt>
      <trkpt lat="45.56348" lon="6.06646">
        <ele>1539</ele>
        <time>2021-06-27T11:25:35.071Z</time>
      </trkpt>
      <trkpt lat="45.56348" lon="6.06647">
        <ele>1539</ele>
        <time>2021-06-27T11:25:36.071Z</time>
      </trkpt>
      <trkpt lat="45.56348" lon="6.06647">
        <ele>1539</ele>
        <time>2021-06-27T11:25:37.070Z</time>
      </trkpt>
      <trkpt lat="45.56349" lon="6.06647">
        <ele>1540</ele>
        <time>2021-06-27T11:25:38.071Z</time>
      </trkpt>
      <trkpt lat="45.5635" lon="6.06647">
        <ele>1540</ele>
        <time>2021-06-27T11:25:39.071Z</time>
      </trkpt>
      <trkpt lat="45.56351" lon="6.06648">
        <ele>1540</ele>
        <time>2021-06-27T11:25:40.071Z</time>
      </trkpt>
      <trkpt lat="45.56351" lon="6.06648">
        <ele>1540</ele>
        <time>2021-06-27T11:25:41.071Z</time>
      </trkpt>
      <trkpt lat="45.56352" lon="6.06649">
        <ele>1540</ele>
        <time>2021-06-27T11:25:42.071Z</time>
      </trkpt>
      <trkpt lat="45.56353" lon="6.06649">
        <ele>1540</ele>
        <time>2021-06-27T11:25:43.070Z</time>
      </trkpt>
      <trkpt lat="45.56353" lon="6.0665">
        <ele>1540</ele>
        <time>2021-06-27T11:25:44.071Z</time>
      </trkpt>
      <trkpt lat="45.56354" lon="6.0665">
        <ele>1540</ele>
        <time>2021-06-27T11:25:45.071Z</time>
      </trkpt>
      <trkpt lat="45.56354" lon="6.06651">
        <ele>1541</ele>
        <time>2021-06-27T11:25:46.071Z</time>
      </trkpt>
      <trkpt lat="45.56355" lon="6.06651">
        <ele>1541</ele>
        <time>2021-06-27T11:25:47.070Z</time>
      </trkpt>
      <trkpt lat="45.56356" lon="6.06651">
        <ele>1541</ele>
        <time>2021-06-27T11:25:48.070Z</time>
      </trkpt>
      <trkpt lat="45.56357" lon="6.06652">
        <ele>1542</ele>
        <time>2021-06-27T11:25:49.071Z</time>
      </trkpt>
      <trkpt lat="45.56357" lon="6.06652">
        <ele>1542</ele>
        <time>2021-06-27T11:25:50.071Z</time>
      </trkpt>
      <trkpt lat="45.56358" lon="6.06653">
        <ele>1542</ele>
        <time>2021-06-27T11:25:51.071Z</time>
      </trkpt>
      <trkpt lat="45.56358" lon="6.06653">
        <ele>1542</ele>
        <time>2021-06-27T11:25:52.071Z</time>
      </trkpt>
      <trkpt lat="45.56359" lon="6.06653">
        <ele>1542</ele>
        <time>2021-06-27T11:25:53.071Z</time>
      </trkpt>
      <trkpt lat="45.56359" lon="6.06654">
        <ele>1543</ele>
        <time>2021-06-27T11:25:54.071Z</time>
      </trkpt>
      <trkpt lat="45.5636" lon="6.06654">
        <ele>1543</ele>
        <time>2021-06-27T11:25:55.071Z</time>
      </trkpt>
      <trkpt lat="45.56361" lon="6.06654">
        <ele>1544</ele>
        <time>2021-06-27T11:25:56.071Z</time>
      </trkpt>
      <trkpt lat="45.56361" lon="6.06655">
        <ele>1544</ele>
        <time>2021-06-27T11:25:57.071Z</time>
      </trkpt>
      <trkpt lat="45.56362" lon="6.06655">
        <ele>1545</ele>
        <time>2021-06-27T11:25:58.071Z</time>
      </trkpt>
      <trkpt lat="45.56363" lon="6.06655">
        <ele>1546</ele>
        <time>2021-06-27T11:25:59.071Z</time>
      </trkpt>
      <trkpt lat="45.56364" lon="6.06656">
        <ele>1546</ele>
        <time>2021-06-27T11:26:00.070Z</time>
      </trkpt>
      <trkpt lat="45.56364" lon="6.06656">
        <ele>1547</ele>
        <time>2021-06-27T11:26:01.071Z</time>
      </trkpt>
      <trkpt lat="45.56365" lon="6.06656">
        <ele>1547</ele>
        <time>2021-06-27T11:26:02.070Z</time>
      </trkpt>
      <trkpt lat="45.56365" lon="6.06657">
        <ele>1547</ele>
        <time>2021-06-27T11:26:03.070Z</time>
      </trkpt>
      <trkpt lat="45.56366" lon="6.06657">
        <ele>1548</ele>
        <time>2021-06-27T11:26:04.071Z</time>
      </trkpt>
      <trkpt lat="45.56367" lon="6.06657">
        <ele>1548</ele>
        <time>2021-06-27T11:26:05.071Z</time>
      </trkpt>
      <trkpt lat="45.56367" lon="6.06656">
        <ele>1548</ele>
        <time>2021-06-27T11:26:06.070Z</time>
      </trkpt>
      <trkpt lat="45.56368" lon="6.06657">
        <ele>1548</ele>
        <time>2021-06-27T11:26:07.071Z</time>
      </trkpt>
      <trkpt lat="45.56368" lon="6.06657">
        <ele>1547</ele>
        <time>2021-06-27T11:26:08.071Z</time>
      </trkpt>
      <trkpt lat="45.56369" lon="6.06657">
        <ele>1547</ele>
        <time>2021-06-27T11:26:09.071Z</time>
      </trkpt>
      <trkpt lat="45.5637" lon="6.06658">
        <ele>1548</ele>
        <time>2021-06-27T11:26:10.071Z</time>
      </trkpt>
      <trkpt lat="45.56371" lon="6.06658">
        <ele>1548</ele>
        <time>2021-06-27T11:26:11.071Z</time>
      </trkpt>
      <trkpt lat="45.56372" lon="6.06658">
        <ele>1548</ele>
        <time>2021-06-27T11:26:12.070Z</time>
      </trkpt>
      <trkpt lat="45.56372" lon="6.06658">
        <ele>1547</ele>
        <time>2021-06-27T11:26:13.071Z</time>
      </trkpt>
      <trkpt lat="45.56373" lon="6.06658">
        <ele>1547</ele>
        <time>2021-06-27T11:26:14.071Z</time>
      </trkpt>
      <trkpt lat="45.56374" lon="6.06658">
        <ele>1547</ele>
        <time>2021-06-27T11:26:15.070Z</time>
      </trkpt>
      <trkpt lat="45.56374" lon="6.06658">
        <ele>1547</ele>
        <time>2021-06-27T11:26:16.070Z</time>
      </trkpt>
      <trkpt lat="45.56375" lon="6.06658">
        <ele>1547</ele>
        <time>2021-06-27T11:26:17.071Z</time>
      </trkpt>
      <trkpt lat="45.56376" lon="6.06658">
        <ele>1547</ele>
        <time>2021-06-27T11:26:18.071Z</time>
      </trkpt>
      <trkpt lat="45.56377" lon="6.06659">
        <ele>1548</ele>
        <time>2021-06-27T11:26:19.071Z</time>
      </trkpt>
      <trkpt lat="45.56377" lon="6.06659">
        <ele>1548</ele>
        <time>2021-06-27T11:26:20.071Z</time>
      </trkpt>
      <trkpt lat="45.56378" lon="6.06659">
        <ele>1549</ele>
        <time>2021-06-27T11:26:21.071Z</time>
      </trkpt>
      <trkpt lat="45.56378" lon="6.06659">
        <ele>1550</ele>
        <time>2021-06-27T11:26:22.071Z</time>
      </trkpt>
      <trkpt lat="45.56379" lon="6.06659">
        <ele>1550</ele>
        <time>2021-06-27T11:26:23.071Z</time>
      </trkpt>
      <trkpt lat="45.5638" lon="6.0666">
        <ele>1551</ele>
        <time>2021-06-27T11:26:24.071Z</time>
      </trkpt>
      <trkpt lat="45.5638" lon="6.0666">
        <ele>1551</ele>
        <time>2021-06-27T11:26:25.070Z</time>
      </trkpt>
      <trkpt lat="45.56381" lon="6.06661">
        <ele>1552</ele>
        <time>2021-06-27T11:26:26.070Z</time>
      </trkpt>
      <trkpt lat="45.56381" lon="6.06661">
        <ele>1552</ele>
        <time>2021-06-27T11:26:27.071Z</time>
      </trkpt>
      <trkpt lat="45.56382" lon="6.06661">
        <ele>1553</ele>
        <time>2021-06-27T11:26:28.071Z</time>
      </trkpt>
      <trkpt lat="45.56383" lon="6.0666">
        <ele>1554</ele>
        <time>2021-06-27T11:26:29.070Z</time>
      </trkpt>
      <trkpt lat="45.56384" lon="6.0666">
        <ele>1554</ele>
        <time>2021-06-27T11:26:30.070Z</time>
      </trkpt>
      <trkpt lat="45.56385" lon="6.0666">
        <ele>1555</ele>
        <time>2021-06-27T11:26:31.071Z</time>
      </trkpt>
      <trkpt lat="45.56385" lon="6.0666">
        <ele>1555</ele>
        <time>2021-06-27T11:26:32.071Z</time>
      </trkpt>
      <trkpt lat="45.56386" lon="6.0666">
        <ele>1555</ele>
        <time>2021-06-27T11:26:33.071Z</time>
      </trkpt>
      <trkpt lat="45.56386" lon="6.0666">
        <ele>1555</ele>
        <time>2021-06-27T11:26:34.071Z</time>
      </trkpt>
      <trkpt lat="45.56387" lon="6.0666">
        <ele>1555</ele>
        <time>2021-06-27T11:26:35.070Z</time>
      </trkpt>
      <trkpt lat="45.56388" lon="6.06661">
        <ele>1556</ele>
        <time>2021-06-27T11:26:36.071Z</time>
      </trkpt>
      <trkpt lat="45.56388" lon="6.06661">
        <ele>1556</ele>
        <time>2021-06-27T11:26:37.071Z</time>
      </trkpt>
      <trkpt lat="45.56389" lon="6.06662">
        <ele>1557</ele>
        <time>2021-06-27T11:26:38.071Z</time>
      </trkpt>
      <trkpt lat="45.5639" lon="6.06662">
        <ele>1558</ele>
        <time>2021-06-27T11:26:39.071Z</time>
      </trkpt>
      <trkpt lat="45.56391" lon="6.06662">
        <ele>1558</ele>
        <time>2021-06-27T11:26:40.071Z</time>
      </trkpt>
      <trkpt lat="45.56392" lon="6.06663">
        <ele>1559</ele>
        <time>2021-06-27T11:26:41.071Z</time>
      </trkpt>
      <trkpt lat="45.56393" lon="6.06663">
        <ele>1559</ele>
        <time>2021-06-27T11:26:42.071Z</time>
      </trkpt>
      <trkpt lat="45.56394" lon="6.06663">
        <ele>1560</ele>
        <time>2021-06-27T11:26:43.071Z</time>
      </trkpt>
      <trkpt lat="45.56395" lon="6.06663">
        <ele>1560</ele>
        <time>2021-06-27T11:26:44.071Z</time>
      </trkpt>
      <trkpt lat="45.56395" lon="6.06663">
        <ele>1560</ele>
        <time>2021-06-27T11:26:45.071Z</time>
      </trkpt>
      <trkpt lat="45.56396" lon="6.06663">
        <ele>1561</ele>
        <time>2021-06-27T11:26:46.071Z</time>
      </trkpt>
      <trkpt lat="45.56397" lon="6.06662">
        <ele>1561</ele>
        <time>2021-06-27T11:26:47.071Z</time>
      </trkpt>
      <trkpt lat="45.56398" lon="6.06662">
        <ele>1562</ele>
        <time>2021-06-27T11:26:48.071Z</time>
      </trkpt>
      <trkpt lat="45.56399" lon="6.06662">
        <ele>1563</ele>
        <time>2021-06-27T11:26:49.071Z</time>
      </trkpt>
      <trkpt lat="45.56399" lon="6.06661">
        <ele>1563</ele>
        <time>2021-06-27T11:26:50.071Z</time>
      </trkpt>
      <trkpt lat="45.56399" lon="6.06661">
        <ele>1563</ele>
        <time>2021-06-27T11:26:51.070Z</time>
      </trkpt>
      <trkpt lat="45.564" lon="6.0666">
        <ele>1563</ele>
        <time>2021-06-27T11:26:52.071Z</time>
      </trkpt>
      <trkpt lat="45.56401" lon="6.06661">
        <ele>1564</ele>
        <time>2021-06-27T11:26:53.071Z</time>
      </trkpt>
      <trkpt lat="45.56401" lon="6.06661">
        <ele>1564</ele>
        <time>2021-06-27T11:26:54.071Z</time>
      </trkpt>
      <trkpt lat="45.56402" lon="6.06661">
        <ele>1564</ele>
        <time>2021-06-27T11:26:55.071Z</time>
      </trkpt>
      <trkpt lat="45.56403" lon="6.06661">
        <ele>1564</ele>
        <time>2021-06-27T11:26:56.071Z</time>
      </trkpt>
      <trkpt lat="45.56404" lon="6.06662">
        <ele>1564</ele>
        <time>2021-06-27T11:26:57.070Z</time>
      </trkpt>
      <trkpt lat="45.56404" lon="6.06663">
        <ele>1564</ele>
        <time>2021-06-27T11:26:58.071Z</time>
      </trkpt>
      <trkpt lat="45.56404" lon="6.06663">
        <ele>1564</ele>
        <time>2021-06-27T11:26:59.071Z</time>
      </trkpt>
      <trkpt lat="45.56405" lon="6.06664">
        <ele>1565</ele>
        <time>2021-06-27T11:27:00.071Z</time>
      </trkpt>
      <trkpt lat="45.56406" lon="6.06665">
        <ele>1566</ele>
        <time>2021-06-27T11:27:01.071Z</time>
      </trkpt>
      <trkpt lat="45.56406" lon="6.06666">
        <ele>1566</ele>
        <time>2021-06-27T11:27:02.071Z</time>
      </trkpt>
      <trkpt lat="45.56406" lon="6.06666">
        <ele>1567</ele>
        <time>2021-06-27T11:27:03.071Z</time>
      </trkpt>
      <trkpt lat="45.56407" lon="6.06666">
        <ele>1567</ele>
        <time>2021-06-27T11:27:04.071Z</time>
      </trkpt>
      <trkpt lat="45.56407" lon="6.06667">
        <ele>1567</ele>
        <time>2021-06-27T11:27:05.071Z</time>
      </trkpt>
      <trkpt lat="45.56408" lon="6.06667">
        <ele>1568</ele>
        <time>2021-06-27T11:27:06.071Z</time>
      </trkpt>
      <trkpt lat="45.56408" lon="6.06667">
        <ele>1568</ele>
        <time>2021-06-27T11:27:07.071Z</time>
      </trkpt>
      <trkpt lat="45.56408" lon="6.06667">
        <ele>1568</ele>
        <time>2021-06-27T11:27:08.071Z</time>
      </trkpt>
      <trkpt lat="45.56409" lon="6.06667">
        <ele>1569</ele>
        <time>2021-06-27T11:27:09.071Z</time>
      </trkpt>
      <trkpt lat="45.5641" lon="6.06667">
        <ele>1569</ele>
        <time>2021-06-27T11:27:10.071Z</time>
      </trkpt>
      <trkpt lat="45.5641" lon="6.06667">
        <ele>1569</ele>
        <time>2021-06-27T11:27:11.071Z</time>
      </trkpt>
      <trkpt lat="45.56411" lon="6.06667">
        <ele>1569</ele>
        <time>2021-06-27T11:27:12.071Z</time>
      </trkpt>
      <trkpt lat="45.56411" lon="6.06668">
        <ele>1569</ele>
        <time>2021-06-27T11:27:13.070Z</time>
      </trkpt>
      <trkpt lat="45.56412" lon="6.06668">
        <ele>1570</ele>
        <time>2021-06-27T11:27:14.071Z</time>
      </trkpt>
      <trkpt lat="45.56413" lon="6.06668">
        <ele>1571</ele>
        <time>2021-06-27T11:27:15.070Z</time>
      </trkpt>
      <trkpt lat="45.56414" lon="6.06669">
        <ele>1571</ele>
        <time>2021-06-27T11:27:16.071Z</time>
      </trkpt>
      <trkpt lat="45.56415" lon="6.06669">
        <ele>1572</ele>
        <time>2021-06-27T11:27:17.071Z</time>
      </trkpt>
      <trkpt lat="45.56415" lon="6.0667">
        <ele>1572</ele>
        <time>2021-06-27T11:27:18.070Z</time>
      </trkpt>
      <trkpt lat="45.56416" lon="6.0667">
        <ele>1572</ele>
        <time>2021-06-27T11:27:19.071Z</time>
      </trkpt>
      <trkpt lat="45.56416" lon="6.0667">
        <ele>1572</ele>
        <time>2021-06-27T11:27:20.071Z</time>
      </trkpt>
      <trkpt lat="45.56417" lon="6.06671">
        <ele>1572</ele>
        <time>2021-06-27T11:27:21.070Z</time>
      </trkpt>
      <trkpt lat="45.56418" lon="6.06671">
        <ele>1572</ele>
        <time>2021-06-27T11:27:22.071Z</time>
      </trkpt>
      <trkpt lat="45.56418" lon="6.06671">
        <ele>1572</ele>
        <time>2021-06-27T11:27:23.071Z</time>
      </trkpt>
      <trkpt lat="45.56419" lon="6.06671">
        <ele>1572</ele>
        <time>2021-06-27T11:27:24.071Z</time>
      </trkpt>
      <trkpt lat="45.56419" lon="6.06671">
        <ele>1572</ele>
        <time>2021-06-27T11:27:25.071Z</time>
      </trkpt>
      <trkpt lat="45.56419" lon="6.06671">
        <ele>1572</ele>
        <time>2021-06-27T11:27:26.071Z</time>
      </trkpt>
      <trkpt lat="45.5642" lon="6.06671">
        <ele>1572</ele>
        <time>2021-06-27T11:27:27.071Z</time>
      </trkpt>
      <trkpt lat="45.56421" lon="6.06672">
        <ele>1572</ele>
        <time>2021-06-27T11:27:28.070Z</time>
      </trkpt>
      <trkpt lat="45.56421" lon="6.06672">
        <ele>1572</ele>
        <time>2021-06-27T11:27:29.071Z</time>
      </trkpt>
      <trkpt lat="45.56422" lon="6.06672">
        <ele>1572</ele>
        <time>2021-06-27T11:27:30.071Z</time>
      </trkpt>
      <trkpt lat="45.56423" lon="6.06672">
        <ele>1572</ele>
        <time>2021-06-27T11:27:31.070Z</time>
      </trkpt>
      <trkpt lat="45.56423" lon="6.06673">
        <ele>1573</ele>
        <time>2021-06-27T11:27:32.071Z</time>
      </trkpt>
      <trkpt lat="45.56423" lon="6.06673">
        <ele>1573</ele>
        <time>2021-06-27T11:27:33.071Z</time>
      </trkpt>
      <trkpt lat="45.56424" lon="6.06673">
        <ele>1573</ele>
        <time>2021-06-27T11:27:34.070Z</time>
      </trkpt>
      <trkpt lat="45.56425" lon="6.06674">
        <ele>1573</ele>
        <time>2021-06-27T11:27:35.070Z</time>
      </trkpt>
      <trkpt lat="45.56425" lon="6.06674">
        <ele>1573</ele>
        <time>2021-06-27T11:27:36.071Z</time>
      </trkpt>
      <trkpt lat="45.56426" lon="6.06674">
        <ele>1574</ele>
        <time>2021-06-27T11:27:37.070Z</time>
      </trkpt>
      <trkpt lat="45.56427" lon="6.06674">
        <ele>1575</ele>
        <time>2021-06-27T11:27:38.071Z</time>
      </trkpt>
      <trkpt lat="45.56427" lon="6.06674">
        <ele>1575</ele>
        <time>2021-06-27T11:27:39.071Z</time>
      </trkpt>
      <trkpt lat="45.56427" lon="6.06675">
        <ele>1575</ele>
        <time>2021-06-27T11:27:40.071Z</time>
      </trkpt>
      <trkpt lat="45.56428" lon="6.06675">
        <ele>1575</ele>
        <time>2021-06-27T11:27:41.071Z</time>
      </trkpt>
      <trkpt lat="45.56428" lon="6.06675">
        <ele>1575</ele>
        <time>2021-06-27T11:27:42.070Z</time>
      </trkpt>
      <trkpt lat="45.56429" lon="6.06675">
        <ele>1575</ele>
        <time>2021-06-27T11:27:43.071Z</time>
      </trkpt>
      <trkpt lat="45.56429" lon="6.06675">
        <ele>1575</ele>
        <time>2021-06-27T11:27:44.071Z</time>
      </trkpt>
      <trkpt lat="45.5643" lon="6.06675">
        <ele>1576</ele>
        <time>2021-06-27T11:27:45.071Z</time>
      </trkpt>
      <trkpt lat="45.56431" lon="6.06675">
        <ele>1576</ele>
        <time>2021-06-27T11:27:46.071Z</time>
      </trkpt>
      <trkpt lat="45.56431" lon="6.06676">
        <ele>1577</ele>
        <time>2021-06-27T11:27:47.070Z</time>
      </trkpt>
      <trkpt lat="45.56432" lon="6.06676">
        <ele>1577</ele>
        <time>2021-06-27T11:27:48.071Z</time>
      </trkpt>
      <trkpt lat="45.56433" lon="6.06676">
        <ele>1577</ele>
        <time>2021-06-27T11:27:49.071Z</time>
      </trkpt>
      <trkpt lat="45.56433" lon="6.06676">
        <ele>1577</ele>
        <time>2021-06-27T11:27:50.071Z</time>
      </trkpt>
      <trkpt lat="45.56433" lon="6.06676">
        <ele>1577</ele>
        <time>2021-06-27T11:27:51.071Z</time>
      </trkpt>
      <trkpt lat="45.56434" lon="6.06676">
        <ele>1577</ele>
        <time>2021-06-27T11:27:52.070Z</time>
      </trkpt>
      <trkpt lat="45.56434" lon="6.06677">
        <ele>1577</ele>
        <time>2021-06-27T11:27:53.071Z</time>
      </trkpt>
      <trkpt lat="45.56434" lon="6.06677">
        <ele>1576</ele>
        <time>2021-06-27T11:27:54.071Z</time>
      </trkpt>
      <trkpt lat="45.56435" lon="6.06677">
        <ele>1576</ele>
        <time>2021-06-27T11:27:55.071Z</time>
      </trkpt>
      <trkpt lat="45.56436" lon="6.06677">
        <ele>1577</ele>
        <time>2021-06-27T11:27:56.071Z</time>
      </trkpt>
      <trkpt lat="45.56437" lon="6.06677">
        <ele>1577</ele>
        <time>2021-06-27T11:27:57.071Z</time>
      </trkpt>
      <trkpt lat="45.56437" lon="6.06677">
        <ele>1578</ele>
        <time>2021-06-27T11:27:58.071Z</time>
      </trkpt>
      <trkpt lat="45.56438" lon="6.06677">
        <ele>1578</ele>
        <time>2021-06-27T11:27:59.070Z</time>
      </trkpt>
      <trkpt lat="45.5644" lon="6.06677">
        <ele>1579</ele>
        <time>2021-06-27T11:28:00.071Z</time>
      </trkpt>
      <trkpt lat="45.56441" lon="6.06678">
        <ele>1579</ele>
        <time>2021-06-27T11:28:01.070Z</time>
      </trkpt>
      <trkpt lat="45.56442" lon="6.06677">
        <ele>1580</ele>
        <time>2021-06-27T11:28:02.070Z</time>
      </trkpt>
      <trkpt lat="45.56443" lon="6.06678">
        <ele>1581</ele>
        <time>2021-06-27T11:28:03.070Z</time>
      </trkpt>
      <trkpt lat="45.56444" lon="6.06677">
        <ele>1582</ele>
        <time>2021-06-27T11:28:04.071Z</time>
      </trkpt>
      <trkpt lat="45.56444" lon="6.06678">
        <ele>1583</ele>
        <time>2021-06-27T11:28:05.071Z</time>
      </trkpt>
      <trkpt lat="45.56445" lon="6.06678">
        <ele>1583</ele>
        <time>2021-06-27T11:28:06.071Z</time>
      </trkpt>
      <trkpt lat="45.56445" lon="6.06678">
        <ele>1583</ele>
        <time>2021-06-27T11:28:07.071Z</time>
      </trkpt>
      <trkpt lat="45.56446" lon="6.06677">
        <ele>1584</ele>
        <time>2021-06-27T11:28:08.071Z</time>
      </trkpt>
      <trkpt lat="45.56446" lon="6.06677">
        <ele>1584</ele>
        <time>2021-06-27T11:28:09.070Z</time>
      </trkpt>
      <trkpt lat="45.56447" lon="6.06677">
        <ele>1584</ele>
        <time>2021-06-27T11:28:10.071Z</time>
      </trkpt>
      <trkpt lat="45.56447" lon="6.06677">
        <ele>1584</ele>
        <time>2021-06-27T11:28:11.071Z</time>
      </trkpt>
      <trkpt lat="45.56448" lon="6.06678">
        <ele>1585</ele>
        <time>2021-06-27T11:28:12.071Z</time>
      </trkpt>
      <trkpt lat="45.56448" lon="6.06678">
        <ele>1585</ele>
        <time>2021-06-27T11:28:13.071Z</time>
      </trkpt>
      <trkpt lat="45.56449" lon="6.06678">
        <ele>1585</ele>
        <time>2021-06-27T11:28:14.071Z</time>
      </trkpt>
      <trkpt lat="45.56449" lon="6.06678">
        <ele>1585</ele>
        <time>2021-06-27T11:28:15.071Z</time>
      </trkpt>
      <trkpt lat="45.5645" lon="6.06678">
        <ele>1586</ele>
        <time>2021-06-27T11:28:16.071Z</time>
      </trkpt>
      <trkpt lat="45.5645" lon="6.06678">
        <ele>1586</ele>
        <time>2021-06-27T11:28:17.071Z</time>
      </trkpt>
      <trkpt lat="45.56451" lon="6.06678">
        <ele>1587</ele>
        <time>2021-06-27T11:28:18.071Z</time>
      </trkpt>
      <trkpt lat="45.56451" lon="6.06678">
        <ele>1588</ele>
        <time>2021-06-27T11:28:19.071Z</time>
      </trkpt>
      <trkpt lat="45.56452" lon="6.06678">
        <ele>1588</ele>
        <time>2021-06-27T11:28:20.070Z</time>
      </trkpt>
      <trkpt lat="45.56452" lon="6.06678">
        <ele>1588</ele>
        <time>2021-06-27T11:28:21.071Z</time>
      </trkpt>
      <trkpt lat="45.56453" lon="6.06678">
        <ele>1589</ele>
        <time>2021-06-27T11:28:22.070Z</time>
      </trkpt>
      <trkpt lat="45.56453" lon="6.06678">
        <ele>1589</ele>
        <time>2021-06-27T11:28:23.071Z</time>
      </trkpt>
      <trkpt lat="45.56454" lon="6.06678">
        <ele>1589</ele>
        <time>2021-06-27T11:28:24.071Z</time>
      </trkpt>
      <trkpt lat="45.56454" lon="6.06678">
        <ele>1589</ele>
        <time>2021-06-27T11:28:25.070Z</time>
      </trkpt>
      <trkpt lat="45.56455" lon="6.06678">
        <ele>1589</ele>
        <time>2021-06-27T11:28:26.071Z</time>
      </trkpt>
      <trkpt lat="45.56455" lon="6.06678">
        <ele>1590</ele>
        <time>2021-06-27T11:28:27.070Z</time>
      </trkpt>
      <trkpt lat="45.56456" lon="6.06678">
        <ele>1590</ele>
        <time>2021-06-27T11:28:28.071Z</time>
      </trkpt>
      <trkpt lat="45.56456" lon="6.06678">
        <ele>1590</ele>
        <time>2021-06-27T11:28:29.071Z</time>
      </trkpt>
      <trkpt lat="45.56457" lon="6.06678">
        <ele>1590</ele>
        <time>2021-06-27T11:28:30.070Z</time>
      </trkpt>
      <trkpt lat="45.56457" lon="6.06678">
        <ele>1590</ele>
        <time>2021-06-27T11:28:31.071Z</time>
      </trkpt>
      <trkpt lat="45.56458" lon="6.06678">
        <ele>1590</ele>
        <time>2021-06-27T11:28:32.071Z</time>
      </trkpt>
      <trkpt lat="45.56459" lon="6.06678">
        <ele>1590</ele>
        <time>2021-06-27T11:28:33.071Z</time>
      </trkpt>
      <trkpt lat="45.56459" lon="6.06678">
        <ele>1591</ele>
        <time>2021-06-27T11:28:34.071Z</time>
      </trkpt>
      <trkpt lat="45.56459" lon="6.06678">
        <ele>1591</ele>
        <time>2021-06-27T11:28:35.071Z</time>
      </trkpt>
      <trkpt lat="45.56459" lon="6.06678">
        <ele>1591</ele>
        <time>2021-06-27T11:28:36.071Z</time>
      </trkpt>
      <trkpt lat="45.5646" lon="6.06678">
        <ele>1591</ele>
        <time>2021-06-27T11:28:37.071Z</time>
      </trkpt>
      <trkpt lat="45.5646" lon="6.06678">
        <ele>1590</ele>
        <time>2021-06-27T11:28:38.071Z</time>
      </trkpt>
      <trkpt lat="45.56461" lon="6.06678">
        <ele>1591</ele>
        <time>2021-06-27T11:28:39.071Z</time>
      </trkpt>
      <trkpt lat="45.56462" lon="6.06678">
        <ele>1591</ele>
        <time>2021-06-27T11:28:40.071Z</time>
      </trkpt>
      <trkpt lat="45.56462" lon="6.06678">
        <ele>1591</ele>
        <time>2021-06-27T11:28:41.071Z</time>
      </trkpt>
      <trkpt lat="45.56463" lon="6.06678">
        <ele>1591</ele>
        <time>2021-06-27T11:28:42.071Z</time>
      </trkpt>
      <trkpt lat="45.56463" lon="6.06678">
        <ele>1592</ele>
        <time>2021-06-27T11:28:43.071Z</time>
      </trkpt>
      <trkpt lat="45.56463" lon="6.06678">
        <ele>1592</ele>
        <time>2021-06-27T11:28:44.071Z</time>
      </trkpt>
      <trkpt lat="45.56464" lon="6.06679">
        <ele>1593</ele>
        <time>2021-06-27T11:28:45.071Z</time>
      </trkpt>
      <trkpt lat="45.56464" lon="6.06678">
        <ele>1593</ele>
        <time>2021-06-27T11:28:46.071Z</time>
      </trkpt>
      <trkpt lat="45.56465" lon="6.06679">
        <ele>1594</ele>
        <time>2021-06-27T11:28:47.071Z</time>
      </trkpt>
      <trkpt lat="45.56466" lon="6.06679">
        <ele>1595</ele>
        <time>2021-06-27T11:28:48.070Z</time>
      </trkpt>
      <trkpt lat="45.56466" lon="6.06678">
        <ele>1596</ele>
        <time>2021-06-27T11:28:49.071Z</time>
      </trkpt>
      <trkpt lat="45.56467" lon="6.06679">
        <ele>1597</ele>
        <time>2021-06-27T11:28:50.071Z</time>
      </trkpt>
      <trkpt lat="45.56467" lon="6.06679">
        <ele>1597</ele>
        <time>2021-06-27T11:28:51.070Z</time>
      </trkpt>
      <trkpt lat="45.56468" lon="6.06679">
        <ele>1598</ele>
        <time>2021-06-27T11:28:52.071Z</time>
      </trkpt>
      <trkpt lat="45.56468" lon="6.06679">
        <ele>1599</ele>
        <time>2021-06-27T11:28:53.070Z</time>
      </trkpt>
      <trkpt lat="45.56469" lon="6.06679">
        <ele>1599</ele>
        <time>2021-06-27T11:28:54.071Z</time>
      </trkpt>
      <trkpt lat="45.5647" lon="6.06679">
        <ele>1600</ele>
        <time>2021-06-27T11:28:55.071Z</time>
      </trkpt>
      <trkpt lat="45.56471" lon="6.06679">
        <ele>1601</ele>
        <time>2021-06-27T11:28:56.070Z</time>
      </trkpt>
      <trkpt lat="45.56471" lon="6.06679">
        <ele>1602</ele>
        <time>2021-06-27T11:28:57.070Z</time>
      </trkpt>
      <trkpt lat="45.56472" lon="6.0668">
        <ele>1603</ele>
        <time>2021-06-27T11:28:58.071Z</time>
      </trkpt>
      <trkpt lat="45.56473" lon="6.06681">
        <ele>1604</ele>
        <time>2021-06-27T11:28:59.071Z</time>
      </trkpt>
      <trkpt lat="45.56474" lon="6.06681">
        <ele>1604</ele>
        <time>2021-06-27T11:29:00.070Z</time>
      </trkpt>
      <trkpt lat="45.56474" lon="6.06682">
        <ele>1605</ele>
        <time>2021-06-27T11:29:01.071Z</time>
      </trkpt>
      <trkpt lat="45.56475" lon="6.06682">
        <ele>1605</ele>
        <time>2021-06-27T11:29:02.071Z</time>
      </trkpt>
      <trkpt lat="45.56475" lon="6.06682">
        <ele>1605</ele>
        <time>2021-06-27T11:29:03.070Z</time>
      </trkpt>
      <trkpt lat="45.56476" lon="6.06682">
        <ele>1605</ele>
        <time>2021-06-27T11:29:04.071Z</time>
      </trkpt>
      <trkpt lat="45.56477" lon="6.06682">
        <ele>1604</ele>
        <time>2021-06-27T11:29:05.071Z</time>
      </trkpt>
      <trkpt lat="45.56477" lon="6.06682">
        <ele>1604</ele>
        <time>2021-06-27T11:29:06.071Z</time>
      </trkpt>
      <trkpt lat="45.56478" lon="6.06682">
        <ele>1604</ele>
        <time>2021-06-27T11:29:07.071Z</time>
      </trkpt>
      <trkpt lat="45.56478" lon="6.06682">
        <ele>1604</ele>
        <time>2021-06-27T11:29:08.070Z</time>
      </trkpt>
      <trkpt lat="45.56479" lon="6.06682">
        <ele>1604</ele>
        <time>2021-06-27T11:29:09.071Z</time>
      </trkpt>
      <trkpt lat="45.5648" lon="6.06682">
        <ele>1604</ele>
        <time>2021-06-27T11:29:10.071Z</time>
      </trkpt>
      <trkpt lat="45.5648" lon="6.06682">
        <ele>1604</ele>
        <time>2021-06-27T11:29:11.071Z</time>
      </trkpt>
      <trkpt lat="45.56481" lon="6.06682">
        <ele>1605</ele>
        <time>2021-06-27T11:29:12.071Z</time>
      </trkpt>
      <trkpt lat="45.56481" lon="6.06682">
        <ele>1605</ele>
        <time>2021-06-27T11:29:13.071Z</time>
      </trkpt>
      <trkpt lat="45.56481" lon="6.06682">
        <ele>1605</ele>
        <time>2021-06-27T11:29:14.071Z</time>
      </trkpt>
      <trkpt lat="45.56482" lon="6.06682">
        <ele>1606</ele>
        <time>2021-06-27T11:29:15.071Z</time>
      </trkpt>
      <trkpt lat="45.56482" lon="6.06682">
        <ele>1606</ele>
        <time>2021-06-27T11:29:16.071Z</time>
      </trkpt>
      <trkpt lat="45.56482" lon="6.06682">
        <ele>1606</ele>
        <time>2021-06-27T11:29:17.070Z</time>
      </trkpt>
      <trkpt lat="45.56483" lon="6.06682">
        <ele>1606</ele>
        <time>2021-06-27T11:29:18.071Z</time>
      </trkpt>
      <trkpt lat="45.56483" lon="6.06682">
        <ele>1607</ele>
        <time>2021-06-27T11:29:19.071Z</time>
      </trkpt>
      <trkpt lat="45.56484" lon="6.06682">
        <ele>1606</ele>
        <time>2021-06-27T11:29:20.071Z</time>
      </trkpt>
      <trkpt lat="45.56484" lon="6.06681">
        <ele>1607</ele>
        <time>2021-06-27T11:29:21.071Z</time>
      </trkpt>
      <trkpt lat="45.56485" lon="6.06681">
        <ele>1607</ele>
        <time>2021-06-27T11:29:22.071Z</time>
      </trkpt>
      <trkpt lat="45.56485" lon="6.06682">
        <ele>1608</ele>
        <time>2021-06-27T11:29:23.071Z</time>
      </trkpt>
      <trkpt lat="45.56486" lon="6.06682">
        <ele>1608</ele>
        <time>2021-06-27T11:29:24.071Z</time>
      </trkpt>
      <trkpt lat="45.56486" lon="6.06682">
        <ele>1609</ele>
        <time>2021-06-27T11:29:25.070Z</time>
      </trkpt>
      <trkpt lat="45.56486" lon="6.06682">
        <ele>1609</ele>
        <time>2021-06-27T11:29:26.071Z</time>
      </trkpt>
      <trkpt lat="45.56486" lon="6.06682">
        <ele>1609</ele>
        <time>2021-06-27T11:29:27.071Z</time>
      </trkpt>
      <trkpt lat="45.56486" lon="6.06682">
        <ele>1609</ele>
        <time>2021-06-27T11:29:28.071Z</time>
      </trkpt>
      <trkpt lat="45.56487" lon="6.06682">
        <ele>1609</ele>
        <time>2021-06-27T11:29:29.071Z</time>
      </trkpt>
      <trkpt lat="45.56488" lon="6.06682">
        <ele>1610</ele>
        <time>2021-06-27T11:29:30.071Z</time>
      </trkpt>
      <trkpt lat="45.56489" lon="6.06682">
        <ele>1610</ele>
        <time>2021-06-27T11:29:31.071Z</time>
      </trkpt>
      <trkpt lat="45.56489" lon="6.06682">
        <ele>1610</ele>
        <time>2021-06-27T11:29:32.071Z</time>
      </trkpt>
      <trkpt lat="45.56489" lon="6.06683">
        <ele>1611</ele>
        <time>2021-06-27T11:29:33.071Z</time>
      </trkpt>
      <trkpt lat="45.5649" lon="6.06683">
        <ele>1611</ele>
        <time>2021-06-27T11:29:34.071Z</time>
      </trkpt>
      <trkpt lat="45.5649" lon="6.06683">
        <ele>1611</ele>
        <time>2021-06-27T11:29:35.071Z</time>
      </trkpt>
      <trkpt lat="45.56491" lon="6.06683">
        <ele>1612</ele>
        <time>2021-06-27T11:29:36.070Z</time>
      </trkpt>
      <trkpt lat="45.56491" lon="6.06683">
        <ele>1612</ele>
        <time>2021-06-27T11:29:37.070Z</time>
      </trkpt>
      <trkpt lat="45.56492" lon="6.06683">
        <ele>1613</ele>
        <time>2021-06-27T11:29:38.071Z</time>
      </trkpt>
      <trkpt lat="45.56493" lon="6.06683">
        <ele>1613</ele>
        <time>2021-06-27T11:29:39.071Z</time>
      </trkpt>
      <trkpt lat="45.56493" lon="6.06683">
        <ele>1614</ele>
        <time>2021-06-27T11:29:40.071Z</time>
      </trkpt>
      <trkpt lat="45.56494" lon="6.06683">
        <ele>1614</ele>
        <time>2021-06-27T11:29:41.071Z</time>
      </trkpt>
      <trkpt lat="45.56495" lon="6.06683">
        <ele>1615</ele>
        <time>2021-06-27T11:29:42.070Z</time>
      </trkpt>
      <trkpt lat="45.56495" lon="6.06683">
        <ele>1616</ele>
        <time>2021-06-27T11:29:43.071Z</time>
      </trkpt>
      <trkpt lat="45.56496" lon="6.06683">
        <ele>1616</ele>
        <time>2021-06-27T11:29:44.071Z</time>
      </trkpt>
      <trkpt lat="45.56496" lon="6.06683">
        <ele>1616</ele>
        <time>2021-06-27T11:29:45.071Z</time>
      </trkpt>
      <trkpt lat="45.56497" lon="6.06683">
        <ele>1616</ele>
        <time>2021-06-27T11:29:46.071Z</time>
      </trkpt>
      <trkpt lat="45.56498" lon="6.06683">
        <ele>1617</ele>
        <time>2021-06-27T11:29:47.071Z</time>
      </trkpt>
      <trkpt lat="45.56498" lon="6.06683">
        <ele>1617</ele>
        <time>2021-06-27T11:29:48.070Z</time>
      </trkpt>
      <trkpt lat="45.56498" lon="6.06683">
        <ele>1618</ele>
        <time>2021-06-27T11:29:49.071Z</time>
      </trkpt>
      <trkpt lat="45.56499" lon="6.06683">
        <ele>1618</ele>
        <time>2021-06-27T11:29:50.071Z</time>
      </trkpt>
      <trkpt lat="45.565" lon="6.06683">
        <ele>1619</ele>
        <time>2021-06-27T11:29:51.070Z</time>
      </trkpt>
      <trkpt lat="45.565" lon="6.06683">
        <ele>1619</ele>
        <time>2021-06-27T11:29:52.071Z</time>
      </trkpt>
      <trkpt lat="45.56501" lon="6.06683">
        <ele>1619</ele>
        <time>2021-06-27T11:29:53.071Z</time>
      </trkpt>
      <trkpt lat="45.56502" lon="6.06683">
        <ele>1620</ele>
        <time>2021-06-27T11:29:54.070Z</time>
      </trkpt>
      <trkpt lat="45.56502" lon="6.06683">
        <ele>1620</ele>
        <time>2021-06-27T11:29:55.070Z</time>
      </trkpt>
      <trkpt lat="45.56503" lon="6.06683">
        <ele>1620</ele>
        <time>2021-06-27T11:29:56.071Z</time>
      </trkpt>
      <trkpt lat="45.56504" lon="6.06683">
        <ele>1620</ele>
        <time>2021-06-27T11:29:57.070Z</time>
      </trkpt>
      <trkpt lat="45.56504" lon="6.06683">
        <ele>1621</ele>
        <time>2021-06-27T11:29:58.070Z</time>
      </trkpt>
      <trkpt lat="45.56505" lon="6.06683">
        <ele>1622</ele>
        <time>2021-06-27T11:29:59.070Z</time>
      </trkpt>
      <trkpt lat="45.56505" lon="6.06683">
        <ele>1622</ele>
        <time>2021-06-27T11:30:00.071Z</time>
      </trkpt>
      <trkpt lat="45.56506" lon="6.06683">
        <ele>1622</ele>
        <time>2021-06-27T11:30:01.071Z</time>
      </trkpt>
      <trkpt lat="45.56507" lon="6.06684">
        <ele>1622</ele>
        <time>2021-06-27T11:30:02.071Z</time>
      </trkpt>
      <trkpt lat="45.56508" lon="6.06684">
        <ele>1623</ele>
        <time>2021-06-27T11:30:03.071Z</time>
      </trkpt>
      <trkpt lat="45.56508" lon="6.06684">
        <ele>1623</ele>
        <time>2021-06-27T11:30:04.071Z</time>
      </trkpt>
      <trkpt lat="45.56509" lon="6.06684">
        <ele>1623</ele>
        <time>2021-06-27T11:30:05.071Z</time>
      </trkpt>
      <trkpt lat="45.56509" lon="6.06684">
        <ele>1623</ele>
        <time>2021-06-27T11:30:06.071Z</time>
      </trkpt>
      <trkpt lat="45.5651" lon="6.06684">
        <ele>1624</ele>
        <time>2021-06-27T11:30:07.071Z</time>
      </trkpt>
      <trkpt lat="45.56511" lon="6.06684">
        <ele>1624</ele>
        <time>2021-06-27T11:30:08.071Z</time>
      </trkpt>
      <trkpt lat="45.56511" lon="6.06684">
        <ele>1624</ele>
        <time>2021-06-27T11:30:09.071Z</time>
      </trkpt>
      <trkpt lat="45.56512" lon="6.06684">
        <ele>1624</ele>
        <time>2021-06-27T11:30:10.070Z</time>
      </trkpt>
      <trkpt lat="45.56512" lon="6.06684">
        <ele>1624</ele>
        <time>2021-06-27T11:30:11.071Z</time>
      </trkpt>
      <trkpt lat="45.56513" lon="6.06684">
        <ele>1625</ele>
        <time>2021-06-27T11:30:12.071Z</time>
      </trkpt>
      <trkpt lat="45.56513" lon="6.06684">
        <ele>1625</ele>
        <time>2021-06-27T11:30:13.071Z</time>
      </trkpt>
      <trkpt lat="45.56514" lon="6.06684">
        <ele>1625</ele>
        <time>2021-06-27T11:30:14.071Z</time>
      </trkpt>
      <trkpt lat="45.56515" lon="6.06684">
        <ele>1626</ele>
        <time>2021-06-27T11:30:15.071Z</time>
      </trkpt>
      <trkpt lat="45.56515" lon="6.06684">
        <ele>1626</ele>
        <time>2021-06-27T11:30:16.071Z</time>
      </trkpt>
      <trkpt lat="45.56516" lon="6.06684">
        <ele>1627</ele>
        <time>2021-06-27T11:30:17.070Z</time>
      </trkpt>
      <trkpt lat="45.56516" lon="6.06683">
        <ele>1627</ele>
        <time>2021-06-27T11:30:18.071Z</time>
      </trkpt>
      <trkpt lat="45.56517" lon="6.06683">
        <ele>1627</ele>
        <time>2021-06-27T11:30:19.071Z</time>
      </trkpt>
      <trkpt lat="45.56517" lon="6.06683">
        <ele>1627</ele>
        <time>2021-06-27T11:30:20.071Z</time>
      </trkpt>
      <trkpt lat="45.56518" lon="6.06682">
        <ele>1627</ele>
        <time>2021-06-27T11:30:21.071Z</time>
      </trkpt>
      <trkpt lat="45.56518" lon="6.06682">
        <ele>1627</ele>
        <time>2021-06-27T11:30:22.071Z</time>
      </trkpt>
      <trkpt lat="45.56519" lon="6.06682">
        <ele>1627</ele>
        <time>2021-06-27T11:30:23.071Z</time>
      </trkpt>
      <trkpt lat="45.5652" lon="6.06682">
        <ele>1627</ele>
        <time>2021-06-27T11:30:24.071Z</time>
      </trkpt>
      <trkpt lat="45.56521" lon="6.06682">
        <ele>1627</ele>
        <time>2021-06-27T11:30:25.071Z</time>
      </trkpt>
      <trkpt lat="45.56521" lon="6.06681">
        <ele>1627</ele>
        <time>2021-06-27T11:30:26.071Z</time>
      </trkpt>
      <trkpt lat="45.56522" lon="6.0668">
        <ele>1627</ele>
        <time>2021-06-27T11:30:27.071Z</time>
      </trkpt>
      <trkpt lat="45.56522" lon="6.06679">
        <ele>1628</ele>
        <time>2021-06-27T11:30:28.070Z</time>
      </trkpt>
      <trkpt lat="45.56522" lon="6.06678">
        <ele>1629</ele>
        <time>2021-06-27T11:30:29.071Z</time>
      </trkpt>
      <trkpt lat="45.56522" lon="6.06676">
        <ele>1629</ele>
        <time>2021-06-27T11:30:30.071Z</time>
      </trkpt>
      <trkpt lat="45.56523" lon="6.06675">
        <ele>1630</ele>
        <time>2021-06-27T11:30:31.071Z</time>
      </trkpt>
      <trkpt lat="45.56523" lon="6.06674">
        <ele>1630</ele>
        <time>2021-06-27T11:30:32.071Z</time>
      </trkpt>
      <trkpt lat="45.56524" lon="6.06674">
        <ele>1631</ele>
        <time>2021-06-27T11:30:33.070Z</time>
      </trkpt>
      <trkpt lat="45.56524" lon="6.06673">
        <ele>1631</ele>
        <time>2021-06-27T11:30:34.071Z</time>
      </trkpt>
      <trkpt lat="45.56525" lon="6.06672">
        <ele>1631</ele>
        <time>2021-06-27T11:30:35.071Z</time>
      </trkpt>
      <trkpt lat="45.56525" lon="6.06671">
        <ele>1631</ele>
        <time>2021-06-27T11:30:36.070Z</time>
      </trkpt>
      <trkpt lat="45.56526" lon="6.06671">
        <ele>1632</ele>
        <time>2021-06-27T11:30:37.071Z</time>
      </trkpt>
      <trkpt lat="45.56527" lon="6.0667">
        <ele>1632</ele>
        <time>2021-06-27T11:30:38.071Z</time>
      </trkpt>
      <trkpt lat="45.56527" lon="6.0667">
        <ele>1632</ele>
        <time>2021-06-27T11:30:39.071Z</time>
      </trkpt>
      <trkpt lat="45.56528" lon="6.0667">
        <ele>1632</ele>
        <time>2021-06-27T11:30:40.071Z</time>
      </trkpt>
      <trkpt lat="45.56528" lon="6.0667">
        <ele>1632</ele>
        <time>2021-06-27T11:30:41.071Z</time>
      </trkpt>
      <trkpt lat="45.56529" lon="6.06671">
        <ele>1632</ele>
        <time>2021-06-27T11:30:42.071Z</time>
      </trkpt>
      <trkpt lat="45.56529" lon="6.06671">
        <ele>1632</ele>
        <time>2021-06-27T11:30:43.071Z</time>
      </trkpt>
      <trkpt lat="45.5653" lon="6.06671">
        <ele>1633</ele>
        <time>2021-06-27T11:30:44.070Z</time>
      </trkpt>
      <trkpt lat="45.56531" lon="6.06672">
        <ele>1634</ele>
        <time>2021-06-27T11:30:45.070Z</time>
      </trkpt>
      <trkpt lat="45.56531" lon="6.06672">
        <ele>1634</ele>
        <time>2021-06-27T11:30:46.070Z</time>
      </trkpt>
      <trkpt lat="45.56532" lon="6.06673">
        <ele>1635</ele>
        <time>2021-06-27T11:30:47.070Z</time>
      </trkpt>
      <trkpt lat="45.56533" lon="6.06673">
        <ele>1636</ele>
        <time>2021-06-27T11:30:48.070Z</time>
      </trkpt>
      <trkpt lat="45.56534" lon="6.06673">
        <ele>1636</ele>
        <time>2021-06-27T11:30:49.071Z</time>
      </trkpt>
      <trkpt lat="45.56534" lon="6.06674">
        <ele>1637</ele>
        <time>2021-06-27T11:30:50.071Z</time>
      </trkpt>
      <trkpt lat="45.56536" lon="6.06674">
        <ele>1638</ele>
        <time>2021-06-27T11:30:51.071Z</time>
      </trkpt>
      <trkpt lat="45.56536" lon="6.06674">
        <ele>1638</ele>
        <time>2021-06-27T11:30:52.071Z</time>
      </trkpt>
      <trkpt lat="45.56536" lon="6.06674">
        <ele>1638</ele>
        <time>2021-06-27T11:30:53.071Z</time>
      </trkpt>
      <trkpt lat="45.56536" lon="6.06674">
        <ele>1638</ele>
        <time>2021-06-27T11:30:54.071Z</time>
      </trkpt>
      <trkpt lat="45.56537" lon="6.06674">
        <ele>1639</ele>
        <time>2021-06-27T11:30:55.071Z</time>
      </trkpt>
      <trkpt lat="45.56538" lon="6.06674">
        <ele>1639</ele>
        <time>2021-06-27T11:30:56.071Z</time>
      </trkpt>
      <trkpt lat="45.56538" lon="6.06675">
        <ele>1640</ele>
        <time>2021-06-27T11:30:57.070Z</time>
      </trkpt>
      <trkpt lat="45.56538" lon="6.06675">
        <ele>1640</ele>
        <time>2021-06-27T11:30:58.071Z</time>
      </trkpt>
      <trkpt lat="45.56539" lon="6.06675">
        <ele>1641</ele>
        <time>2021-06-27T11:30:59.070Z</time>
      </trkpt>
      <trkpt lat="45.5654" lon="6.06676">
        <ele>1641</ele>
        <time>2021-06-27T11:31:00.071Z</time>
      </trkpt>
      <trkpt lat="45.5654" lon="6.06676">
        <ele>1641</ele>
        <time>2021-06-27T11:31:01.071Z</time>
      </trkpt>
      <trkpt lat="45.56541" lon="6.06676">
        <ele>1641</ele>
        <time>2021-06-27T11:31:02.071Z</time>
      </trkpt>
      <trkpt lat="45.56541" lon="6.06676">
        <ele>1642</ele>
        <time>2021-06-27T11:31:03.070Z</time>
      </trkpt>
      <trkpt lat="45.56542" lon="6.06677">
        <ele>1642</ele>
        <time>2021-06-27T11:31:04.071Z</time>
      </trkpt>
      <trkpt lat="45.56543" lon="6.06677">
        <ele>1643</ele>
        <time>2021-06-27T11:31:05.071Z</time>
      </trkpt>
      <trkpt lat="45.56543" lon="6.06677">
        <ele>1643</ele>
        <time>2021-06-27T11:31:06.071Z</time>
      </trkpt>
      <trkpt lat="45.56544" lon="6.06678">
        <ele>1642</ele>
        <time>2021-06-27T11:31:07.071Z</time>
      </trkpt>
      <trkpt lat="45.56544" lon="6.06678">
        <ele>1642</ele>
        <time>2021-06-27T11:31:08.071Z</time>
      </trkpt>
      <trkpt lat="45.56545" lon="6.06679">
        <ele>1642</ele>
        <time>2021-06-27T11:31:09.071Z</time>
      </trkpt>
      <trkpt lat="45.56545" lon="6.06679">
        <ele>1642</ele>
        <time>2021-06-27T11:31:10.071Z</time>
      </trkpt>
      <trkpt lat="45.56546" lon="6.06679">
        <ele>1642</ele>
        <time>2021-06-27T11:31:11.070Z</time>
      </trkpt>
      <trkpt lat="45.56547" lon="6.06679">
        <ele>1643</ele>
        <time>2021-06-27T11:31:12.071Z</time>
      </trkpt>
      <trkpt lat="45.56548" lon="6.06679">
        <ele>1643</ele>
        <time>2021-06-27T11:31:13.071Z</time>
      </trkpt>
      <trkpt lat="45.56548" lon="6.0668">
        <ele>1644</ele>
        <time>2021-06-27T11:31:14.071Z</time>
      </trkpt>
      <trkpt lat="45.56549" lon="6.06681">
        <ele>1644</ele>
        <time>2021-06-27T11:31:15.071Z</time>
      </trkpt>
      <trkpt lat="45.56549" lon="6.06681">
        <ele>1644</ele>
        <time>2021-06-27T11:31:16.071Z</time>
      </trkpt>
      <trkpt lat="45.56549" lon="6.06682">
        <ele>1645</ele>
        <time>2021-06-27T11:31:17.071Z</time>
      </trkpt>
      <trkpt lat="45.5655" lon="6.06682">
        <ele>1645</ele>
        <time>2021-06-27T11:31:18.070Z</time>
      </trkpt>
      <trkpt lat="45.5655" lon="6.06683">
        <ele>1645</ele>
        <time>2021-06-27T11:31:19.071Z</time>
      </trkpt>
      <trkpt lat="45.56551" lon="6.06683">
        <ele>1645</ele>
        <time>2021-06-27T11:31:20.071Z</time>
      </trkpt>
      <trkpt lat="45.56551" lon="6.06684">
        <ele>1645</ele>
        <time>2021-06-27T11:31:21.071Z</time>
      </trkpt>
      <trkpt lat="45.56551" lon="6.06684">
        <ele>1645</ele>
        <time>2021-06-27T11:31:22.071Z</time>
      </trkpt>
      <trkpt lat="45.56552" lon="6.06684">
        <ele>1645</ele>
        <time>2021-06-27T11:31:23.071Z</time>
      </trkpt>
      <trkpt lat="45.56552" lon="6.06685">
        <ele>1646</ele>
        <time>2021-06-27T11:31:24.071Z</time>
      </trkpt>
      <trkpt lat="45.56553" lon="6.06685">
        <ele>1647</ele>
        <time>2021-06-27T11:31:25.071Z</time>
      </trkpt>
      <trkpt lat="45.56553" lon="6.06685">
        <ele>1647</ele>
        <time>2021-06-27T11:31:26.070Z</time>
      </trkpt>
      <trkpt lat="45.56553" lon="6.06686">
        <ele>1647</ele>
        <time>2021-06-27T11:31:27.071Z</time>
      </trkpt>
      <trkpt lat="45.56554" lon="6.06686">
        <ele>1647</ele>
        <time>2021-06-27T11:31:28.071Z</time>
      </trkpt>
      <trkpt lat="45.56554" lon="6.06686">
        <ele>1648</ele>
        <time>2021-06-27T11:31:29.071Z</time>
      </trkpt>
      <trkpt lat="45.56555" lon="6.06686">
        <ele>1648</ele>
        <time>2021-06-27T11:31:30.071Z</time>
      </trkpt>
      <trkpt lat="45.56555" lon="6.06687">
        <ele>1649</ele>
        <time>2021-06-27T11:31:31.071Z</time>
      </trkpt>
      <trkpt lat="45.56555" lon="6.06687">
        <ele>1649</ele>
        <time>2021-06-27T11:31:32.070Z</time>
      </trkpt>
      <trkpt lat="45.56555" lon="6.06688">
        <ele>1650</ele>
        <time>2021-06-27T11:31:33.071Z</time>
      </trkpt>
      <trkpt lat="45.56556" lon="6.06689">
        <ele>1650</ele>
        <time>2021-06-27T11:31:34.071Z</time>
      </trkpt>
      <trkpt lat="45.56556" lon="6.06689">
        <ele>1651</ele>
        <time>2021-06-27T11:31:35.071Z</time>
      </trkpt>
      <trkpt lat="45.56557" lon="6.06689">
        <ele>1651</ele>
        <time>2021-06-27T11:31:36.071Z</time>
      </trkpt>
      <trkpt lat="45.56557" lon="6.06689">
        <ele>1652</ele>
        <time>2021-06-27T11:31:37.071Z</time>
      </trkpt>
      <trkpt lat="45.56558" lon="6.06688">
        <ele>1652</ele>
        <time>2021-06-27T11:31:38.071Z</time>
      </trkpt>
      <trkpt lat="45.56558" lon="6.06688">
        <ele>1653</ele>
        <time>2021-06-27T11:31:39.071Z</time>
      </trkpt>
      <trkpt lat="45.56559" lon="6.06688">
        <ele>1653</ele>
        <time>2021-06-27T11:31:40.071Z</time>
      </trkpt>
      <trkpt lat="45.5656" lon="6.06689">
        <ele>1653</ele>
        <time>2021-06-27T11:31:41.070Z</time>
      </trkpt>
      <trkpt lat="45.5656" lon="6.06689">
        <ele>1653</ele>
        <time>2021-06-27T11:31:42.071Z</time>
      </trkpt>
      <trkpt lat="45.5656" lon="6.06689">
        <ele>1653</ele>
        <time>2021-06-27T11:31:43.071Z</time>
      </trkpt>
      <trkpt lat="45.56561" lon="6.06689">
        <ele>1653</ele>
        <time>2021-06-27T11:31:44.070Z</time>
      </trkpt>
      <trkpt lat="45.56562" lon="6.06689">
        <ele>1654</ele>
        <time>2021-06-27T11:31:45.071Z</time>
      </trkpt>
      <trkpt lat="45.56563" lon="6.0669">
        <ele>1654</ele>
        <time>2021-06-27T11:31:46.071Z</time>
      </trkpt>
      <trkpt lat="45.56563" lon="6.0669">
        <ele>1655</ele>
        <time>2021-06-27T11:31:47.071Z</time>
      </trkpt>
      <trkpt lat="45.56564" lon="6.0669">
        <ele>1656</ele>
        <time>2021-06-27T11:31:48.071Z</time>
      </trkpt>
      <trkpt lat="45.56564" lon="6.06691">
        <ele>1656</ele>
        <time>2021-06-27T11:31:49.071Z</time>
      </trkpt>
      <trkpt lat="45.56565" lon="6.06691">
        <ele>1656</ele>
        <time>2021-06-27T11:31:50.071Z</time>
      </trkpt>
      <trkpt lat="45.56565" lon="6.06691">
        <ele>1656</ele>
        <time>2021-06-27T11:31:51.071Z</time>
      </trkpt>
      <trkpt lat="45.56566" lon="6.06691">
        <ele>1656</ele>
        <time>2021-06-27T11:31:52.071Z</time>
      </trkpt>
      <trkpt lat="45.56566" lon="6.06691">
        <ele>1657</ele>
        <time>2021-06-27T11:31:53.071Z</time>
      </trkpt>
      <trkpt lat="45.56567" lon="6.06691">
        <ele>1657</ele>
        <time>2021-06-27T11:31:54.070Z</time>
      </trkpt>
      <trkpt lat="45.56567" lon="6.06691">
        <ele>1657</ele>
        <time>2021-06-27T11:31:55.071Z</time>
      </trkpt>
      <trkpt lat="45.56568" lon="6.06692">
        <ele>1657</ele>
        <time>2021-06-27T11:31:56.071Z</time>
      </trkpt>
      <trkpt lat="45.56569" lon="6.06692">
        <ele>1657</ele>
        <time>2021-06-27T11:31:57.071Z</time>
      </trkpt>
      <trkpt lat="45.56569" lon="6.06692">
        <ele>1657</ele>
        <time>2021-06-27T11:31:58.071Z</time>
      </trkpt>
      <trkpt lat="45.5657" lon="6.06691">
        <ele>1658</ele>
        <time>2021-06-27T11:31:59.070Z</time>
      </trkpt>
      <trkpt lat="45.56571" lon="6.06691">
        <ele>1658</ele>
        <time>2021-06-27T11:32:00.071Z</time>
      </trkpt>
      <trkpt lat="45.56571" lon="6.0669">
        <ele>1658</ele>
        <time>2021-06-27T11:32:01.071Z</time>
      </trkpt>
      <trkpt lat="45.56572" lon="6.0669">
        <ele>1658</ele>
        <time>2021-06-27T11:32:02.070Z</time>
      </trkpt>
      <trkpt lat="45.56572" lon="6.0669">
        <ele>1658</ele>
        <time>2021-06-27T11:32:03.071Z</time>
      </trkpt>
      <trkpt lat="45.56573" lon="6.06689">
        <ele>1658</ele>
        <time>2021-06-27T11:32:04.071Z</time>
      </trkpt>
      <trkpt lat="45.56574" lon="6.06689">
        <ele>1658</ele>
        <time>2021-06-27T11:32:05.071Z</time>
      </trkpt>
      <trkpt lat="45.56574" lon="6.06688">
        <ele>1658</ele>
        <time>2021-06-27T11:32:06.071Z</time>
      </trkpt>
      <trkpt lat="45.56574" lon="6.06688">
        <ele>1658</ele>
        <time>2021-06-27T11:32:07.070Z</time>
      </trkpt>
      <trkpt lat="45.56575" lon="6.06687">
        <ele>1659</ele>
        <time>2021-06-27T11:32:08.071Z</time>
      </trkpt>
      <trkpt lat="45.56575" lon="6.06687">
        <ele>1659</ele>
        <time>2021-06-27T11:32:09.070Z</time>
      </trkpt>
      <trkpt lat="45.56576" lon="6.06686">
        <ele>1659</ele>
        <time>2021-06-27T11:32:10.071Z</time>
      </trkpt>
      <trkpt lat="45.56576" lon="6.06685">
        <ele>1660</ele>
        <time>2021-06-27T11:32:11.071Z</time>
      </trkpt>
      <trkpt lat="45.56576" lon="6.06684">
        <ele>1661</ele>
        <time>2021-06-27T11:32:12.070Z</time>
      </trkpt>
      <trkpt lat="45.56576" lon="6.06683">
        <ele>1661</ele>
        <time>2021-06-27T11:32:13.070Z</time>
      </trkpt>
      <trkpt lat="45.56576" lon="6.06682">
        <ele>1662</ele>
        <time>2021-06-27T11:32:14.071Z</time>
      </trkpt>
      <trkpt lat="45.56577" lon="6.06682">
        <ele>1662</ele>
        <time>2021-06-27T11:32:15.071Z</time>
      </trkpt>
      <trkpt lat="45.56578" lon="6.06682">
        <ele>1663</ele>
        <time>2021-06-27T11:32:16.071Z</time>
      </trkpt>
      <trkpt lat="45.56578" lon="6.06681">
        <ele>1663</ele>
        <time>2021-06-27T11:32:17.070Z</time>
      </trkpt>
      <trkpt lat="45.5658" lon="6.06681">
        <ele>1663</ele>
        <time>2021-06-27T11:32:18.070Z</time>
      </trkpt>
      <trkpt lat="45.5658" lon="6.06681">
        <ele>1663</ele>
        <time>2021-06-27T11:32:19.070Z</time>
      </trkpt>
      <trkpt lat="45.5658" lon="6.0668">
        <ele>1664</ele>
        <time>2021-06-27T11:32:20.071Z</time>
      </trkpt>
      <trkpt lat="45.5658" lon="6.06679">
        <ele>1664</ele>
        <time>2021-06-27T11:32:21.070Z</time>
      </trkpt>
      <trkpt lat="45.5658" lon="6.06678">
        <ele>1664</ele>
        <time>2021-06-27T11:32:22.070Z</time>
      </trkpt>
      <trkpt lat="45.56581" lon="6.06676">
        <ele>1665</ele>
        <time>2021-06-27T11:32:23.071Z</time>
      </trkpt>
      <trkpt lat="45.56581" lon="6.06675">
        <ele>1665</ele>
        <time>2021-06-27T11:32:24.071Z</time>
      </trkpt>
      <trkpt lat="45.56581" lon="6.06674">
        <ele>1666</ele>
        <time>2021-06-27T11:32:25.071Z</time>
      </trkpt>
      <trkpt lat="45.56582" lon="6.06673">
        <ele>1666</ele>
        <time>2021-06-27T11:32:26.070Z</time>
      </trkpt>
      <trkpt lat="45.56582" lon="6.06673">
        <ele>1667</ele>
        <time>2021-06-27T11:32:27.070Z</time>
      </trkpt>
      <trkpt lat="45.56583" lon="6.06672">
        <ele>1668</ele>
        <time>2021-06-27T11:32:28.071Z</time>
      </trkpt>
      <trkpt lat="45.56583" lon="6.06672">
        <ele>1668</ele>
        <time>2021-06-27T11:32:29.071Z</time>
      </trkpt>
      <trkpt lat="45.56583" lon="6.06671">
        <ele>1669</ele>
        <time>2021-06-27T11:32:30.071Z</time>
      </trkpt>
      <trkpt lat="45.56583" lon="6.0667">
        <ele>1669</ele>
        <time>2021-06-27T11:32:31.071Z</time>
      </trkpt>
      <trkpt lat="45.56583" lon="6.06669">
        <ele>1669</ele>
        <time>2021-06-27T11:32:32.070Z</time>
      </trkpt>
      <trkpt lat="45.56584" lon="6.06668">
        <ele>1669</ele>
        <time>2021-06-27T11:32:33.071Z</time>
      </trkpt>
      <trkpt lat="45.56584" lon="6.06666">
        <ele>1669</ele>
        <time>2021-06-27T11:32:34.071Z</time>
      </trkpt>
      <trkpt lat="45.56584" lon="6.06666">
        <ele>1670</ele>
        <time>2021-06-27T11:32:35.071Z</time>
      </trkpt>
      <trkpt lat="45.56584" lon="6.06665">
        <ele>1670</ele>
        <time>2021-06-27T11:32:36.071Z</time>
      </trkpt>
      <trkpt lat="45.56584" lon="6.06664">
        <ele>1670</ele>
        <time>2021-06-27T11:32:37.070Z</time>
      </trkpt>
      <trkpt lat="45.56585" lon="6.06663">
        <ele>1670</ele>
        <time>2021-06-27T11:32:38.071Z</time>
      </trkpt>
      <trkpt lat="45.56585" lon="6.06662">
        <ele>1670</ele>
        <time>2021-06-27T11:32:39.071Z</time>
      </trkpt>
      <trkpt lat="45.56585" lon="6.06661">
        <ele>1670</ele>
        <time>2021-06-27T11:32:40.071Z</time>
      </trkpt>
      <trkpt lat="45.56586" lon="6.0666">
        <ele>1670</ele>
        <time>2021-06-27T11:32:41.071Z</time>
      </trkpt>
      <trkpt lat="45.56586" lon="6.06659">
        <ele>1670</ele>
        <time>2021-06-27T11:32:42.071Z</time>
      </trkpt>
      <trkpt lat="45.56586" lon="6.06657">
        <ele>1670</ele>
        <time>2021-06-27T11:32:43.071Z</time>
      </trkpt>
      <trkpt lat="45.56586" lon="6.06656">
        <ele>1671</ele>
        <time>2021-06-27T11:32:44.071Z</time>
      </trkpt>
      <trkpt lat="45.56586" lon="6.06655">
        <ele>1672</ele>
        <time>2021-06-27T11:32:45.071Z</time>
      </trkpt>
      <trkpt lat="45.56586" lon="6.06654">
        <ele>1673</ele>
        <time>2021-06-27T11:32:46.070Z</time>
      </trkpt>
      <trkpt lat="45.56586" lon="6.06653">
        <ele>1674</ele>
        <time>2021-06-27T11:32:47.071Z</time>
      </trkpt>
      <trkpt lat="45.56586" lon="6.06653">
        <ele>1675</ele>
        <time>2021-06-27T11:32:48.071Z</time>
      </trkpt>
      <trkpt lat="45.56587" lon="6.06653">
        <ele>1675</ele>
        <time>2021-06-27T11:32:49.071Z</time>
      </trkpt>
      <trkpt lat="45.56587" lon="6.06653">
        <ele>1675</ele>
        <time>2021-06-27T11:32:50.070Z</time>
      </trkpt>
      <trkpt lat="45.56587" lon="6.06653">
        <ele>1676</ele>
        <time>2021-06-27T11:32:51.071Z</time>
      </trkpt>
      <trkpt lat="45.56587" lon="6.06653">
        <ele>1677</ele>
        <time>2021-06-27T11:32:52.071Z</time>
      </trkpt>
      <trkpt lat="45.56587" lon="6.06652">
        <ele>1677</ele>
        <time>2021-06-27T11:32:53.071Z</time>
      </trkpt>
      <trkpt lat="45.56587" lon="6.06652">
        <ele>1678</ele>
        <time>2021-06-27T11:32:54.070Z</time>
      </trkpt>
      <trkpt lat="45.56587" lon="6.06652">
        <ele>1678</ele>
        <time>2021-06-27T11:32:55.070Z</time>
      </trkpt>
      <trkpt lat="45.56587" lon="6.06651">
        <ele>1679</ele>
        <time>2021-06-27T11:32:56.070Z</time>
      </trkpt>
      <trkpt lat="45.56587" lon="6.06651">
        <ele>1679</ele>
        <time>2021-06-27T11:32:57.071Z</time>
      </trkpt>
      <trkpt lat="45.56587" lon="6.06651">
        <ele>1679</ele>
        <time>2021-06-27T11:32:58.071Z</time>
      </trkpt>
      <trkpt lat="45.56587" lon="6.0665">
        <ele>1679</ele>
        <time>2021-06-27T11:32:59.071Z</time>
      </trkpt>
      <trkpt lat="45.56587" lon="6.0665">
        <ele>1679</ele>
        <time>2021-06-27T11:33:00.071Z</time>
      </trkpt>
      <trkpt lat="45.56587" lon="6.0665">
        <ele>1679</ele>
        <time>2021-06-27T11:33:01.070Z</time>
      </trkpt>
      <trkpt lat="45.56587" lon="6.0665">
        <ele>1679</ele>
        <time>2021-06-27T11:33:02.071Z</time>
      </trkpt>
      <trkpt lat="45.56587" lon="6.0665">
        <ele>1679</ele>
        <time>2021-06-27T11:33:03.070Z</time>
      </trkpt>
      <trkpt lat="45.56587" lon="6.0665">
        <ele>1680</ele>
        <time>2021-06-27T11:33:04.071Z</time>
      </trkpt>
      <trkpt lat="45.56586" lon="6.06649">
        <ele>1680</ele>
        <time>2021-06-27T11:33:05.071Z</time>
      </trkpt>
      <trkpt lat="45.56586" lon="6.0665">
        <ele>1680</ele>
        <time>2021-06-27T11:33:06.071Z</time>
      </trkpt>
      <trkpt lat="45.56586" lon="6.0665">
        <ele>1680</ele>
        <time>2021-06-27T11:33:07.070Z</time>
      </trkpt>
      <trkpt lat="45.56586" lon="6.0665">
        <ele>1680</ele>
        <time>2021-06-27T11:33:08.071Z</time>
      </trkpt>
      <trkpt lat="45.56586" lon="6.0665">
        <ele>1680</ele>
        <time>2021-06-27T11:33:09.071Z</time>
      </trkpt>
      <trkpt lat="45.56586" lon="6.0665">
        <ele>1680</ele>
        <time>2021-06-27T11:33:10.071Z</time>
      </trkpt>
      <trkpt lat="45.56586" lon="6.0665">
        <ele>1680</ele>
        <time>2021-06-27T11:33:11.071Z</time>
      </trkpt>
      <trkpt lat="45.56586" lon="6.06651">
        <ele>1681</ele>
        <time>2021-06-27T11:33:12.071Z</time>
      </trkpt>
      <trkpt lat="45.56586" lon="6.06651">
        <ele>1681</ele>
        <time>2021-06-27T11:33:13.070Z</time>
      </trkpt>
      <trkpt lat="45.56587" lon="6.06651">
        <ele>1681</ele>
        <time>2021-06-27T11:33:14.071Z</time>
      </trkpt>
      <trkpt lat="45.56586" lon="6.06651">
        <ele>1682</ele>
        <time>2021-06-27T11:33:15.071Z</time>
      </trkpt>
      <trkpt lat="45.56586" lon="6.06651">
        <ele>1682</ele>
        <time>2021-06-27T11:33:16.071Z</time>
      </trkpt>
      <trkpt lat="45.56586" lon="6.06651">
        <ele>1681</ele>
        <time>2021-06-27T11:33:17.071Z</time>
      </trkpt>
      <trkpt lat="45.56586" lon="6.06651">
        <ele>1681</ele>
        <time>2021-06-27T11:33:18.071Z</time>
      </trkpt>
      <trkpt lat="45.56586" lon="6.06651">
        <ele>1681</ele>
        <time>2021-06-27T11:33:19.071Z</time>
      </trkpt>
      <trkpt lat="45.56586" lon="6.06651">
        <ele>1681</ele>
        <time>2021-06-27T11:33:20.071Z</time>
      </trkpt>
      <trkpt lat="45.56586" lon="6.06651">
        <ele>1681</ele>
        <time>2021-06-27T11:33:21.071Z</time>
      </trkpt>
      <trkpt lat="45.56586" lon="6.06652">
        <ele>1680</ele>
        <time>2021-06-27T11:33:22.071Z</time>
      </trkpt>
      <trkpt lat="45.56586" lon="6.06652">
        <ele>1680</ele>
        <time>2021-06-27T11:33:23.071Z</time>
      </trkpt>
      <trkpt lat="45.56586" lon="6.06652">
        <ele>1680</ele>
        <time>2021-06-27T11:33:24.071Z</time>
      </trkpt>
      <trkpt lat="45.56586" lon="6.06652">
        <ele>1680</ele>
        <time>2021-06-27T11:33:25.070Z</time>
      </trkpt>
      <trkpt lat="45.56586" lon="6.06653">
        <ele>1680</ele>
        <time>2021-06-27T11:33:26.071Z</time>
      </trkpt>
      <trkpt lat="45.56586" lon="6.06653">
        <ele>1680</ele>
        <time>2021-06-27T11:33:27.070Z</time>
      </trkpt>
      <trkpt lat="45.56586" lon="6.06652">
        <ele>1680</ele>
        <time>2021-06-27T11:33:28.071Z</time>
      </trkpt>
      <trkpt lat="45.56586" lon="6.06653">
        <ele>1680</ele>
        <time>2021-06-27T11:33:29.071Z</time>
      </trkpt>
      <trkpt lat="45.56586" lon="6.06653">
        <ele>1680</ele>
        <time>2021-06-27T11:33:30.071Z</time>
      </trkpt>
      <trkpt lat="45.56586" lon="6.06653">
        <ele>1680</ele>
        <time>2021-06-27T11:33:31.071Z</time>
      </trkpt>
      <trkpt lat="45.56586" lon="6.06653">
        <ele>1679</ele>
        <time>2021-06-27T11:33:32.070Z</time>
      </trkpt>
      <trkpt lat="45.56586" lon="6.06653">
        <ele>1679</ele>
        <time>2021-06-27T11:33:33.071Z</time>
      </trkpt>
      <trkpt lat="45.56586" lon="6.06653">
        <ele>1679</ele>
        <time>2021-06-27T11:33:34.071Z</time>
      </trkpt>
      <trkpt lat="45.56586" lon="6.06653">
        <ele>1679</ele>
        <time>2021-06-27T11:33:35.071Z</time>
      </trkpt>
      <trkpt lat="45.56586" lon="6.06653">
        <ele>1679</ele>
        <time>2021-06-27T11:33:36.071Z</time>
      </trkpt>
      <trkpt lat="45.56586" lon="6.06653">
        <ele>1678</ele>
        <time>2021-06-27T11:33:37.071Z</time>
      </trkpt>
      <trkpt lat="45.56586" lon="6.06653">
        <ele>1678</ele>
        <time>2021-06-27T11:33:38.071Z</time>
      </trkpt>
      <trkpt lat="45.56586" lon="6.06653">
        <ele>1678</ele>
        <time>2021-06-27T11:33:39.071Z</time>
      </trkpt>
      <trkpt lat="45.56586" lon="6.06653">
        <ele>1678</ele>
        <time>2021-06-27T11:33:40.070Z</time>
      </trkpt>
      <trkpt lat="45.56586" lon="6.06653">
        <ele>1679</ele>
        <time>2021-06-27T11:33:41.070Z</time>
      </trkpt>
      <trkpt lat="45.56586" lon="6.06653">
        <ele>1679</ele>
        <time>2021-06-27T11:33:42.071Z</time>
      </trkpt>
      <trkpt lat="45.56586" lon="6.06653">
        <ele>1680</ele>
        <time>2021-06-27T11:33:43.071Z</time>
      </trkpt>
      <trkpt lat="45.56586" lon="6.06653">
        <ele>1680</ele>
        <time>2021-06-27T11:33:44.071Z</time>
      </trkpt>
      <trkpt lat="45.56586" lon="6.06653">
        <ele>1680</ele>
        <time>2021-06-27T11:33:45.071Z</time>
      </trkpt>
      <trkpt lat="45.56586" lon="6.06653">
        <ele>1680</ele>
        <time>2021-06-27T11:33:46.070Z</time>
      </trkpt>
      <trkpt lat="45.56586" lon="6.06653">
        <ele>1680</ele>
        <time>2021-06-27T11:33:47.071Z</time>
      </trkpt>
      <trkpt lat="45.56586" lon="6.06652">
        <ele>1680</ele>
        <time>2021-06-27T11:33:48.071Z</time>
      </trkpt>
      <trkpt lat="45.56587" lon="6.06655">
        <ele>1681</ele>
        <time>2021-06-27T11:33:49.072Z</time>
      </trkpt>
      <trkpt lat="45.56587" lon="6.06655">
        <ele>1680</ele>
        <time>2021-06-27T11:33:50.071Z</time>
      </trkpt>
      <trkpt lat="45.56588" lon="6.06656">
        <ele>1680</ele>
        <time>2021-06-27T11:33:51.072Z</time>
      </trkpt>
      <trkpt lat="45.56588" lon="6.06657">
        <ele>1680</ele>
        <time>2021-06-27T11:33:52.072Z</time>
      </trkpt>
      <trkpt lat="45.56588" lon="6.06658">
        <ele>1681</ele>
        <time>2021-06-27T11:33:53.071Z</time>
      </trkpt>
      <trkpt lat="45.56588" lon="6.06659">
        <ele>1681</ele>
        <time>2021-06-27T11:33:54.071Z</time>
      </trkpt>
      <trkpt lat="45.56588" lon="6.0666">
        <ele>1681</ele>
        <time>2021-06-27T11:33:55.072Z</time>
      </trkpt>
      <trkpt lat="45.56588" lon="6.06661">
        <ele>1681</ele>
        <time>2021-06-27T11:33:56.071Z</time>
      </trkpt>
      <trkpt lat="45.56589" lon="6.06662">
        <ele>1681</ele>
        <time>2021-06-27T11:33:57.072Z</time>
      </trkpt>
      <trkpt lat="45.56589" lon="6.06663">
        <ele>1681</ele>
        <time>2021-06-27T11:33:58.072Z</time>
      </trkpt>
      <trkpt lat="45.5659" lon="6.06664">
        <ele>1680</ele>
        <time>2021-06-27T11:33:59.072Z</time>
      </trkpt>
      <trkpt lat="45.56591" lon="6.06665">
        <ele>1680</ele>
        <time>2021-06-27T11:34:00.072Z</time>
      </trkpt>
      <trkpt lat="45.56591" lon="6.06666">
        <ele>1680</ele>
        <time>2021-06-27T11:34:01.071Z</time>
      </trkpt>
      <trkpt lat="45.56591" lon="6.06668">
        <ele>1680</ele>
        <time>2021-06-27T11:34:02.072Z</time>
      </trkpt>
      <trkpt lat="45.56591" lon="6.06669">
        <ele>1680</ele>
        <time>2021-06-27T11:34:03.072Z</time>
      </trkpt>
      <trkpt lat="45.56592" lon="6.0667">
        <ele>1680</ele>
        <time>2021-06-27T11:34:04.071Z</time>
      </trkpt>
      <trkpt lat="45.56592" lon="6.06672">
        <ele>1680</ele>
        <time>2021-06-27T11:34:05.072Z</time>
      </trkpt>
      <trkpt lat="45.56593" lon="6.06673">
        <ele>1680</ele>
        <time>2021-06-27T11:34:06.072Z</time>
      </trkpt>
      <trkpt lat="45.56593" lon="6.06674">
        <ele>1680</ele>
        <time>2021-06-27T11:34:07.072Z</time>
      </trkpt>
      <trkpt lat="45.56593" lon="6.06675">
        <ele>1680</ele>
        <time>2021-06-27T11:34:08.072Z</time>
      </trkpt>
      <trkpt lat="45.56594" lon="6.06676">
        <ele>1680</ele>
        <time>2021-06-27T11:34:09.072Z</time>
      </trkpt>
      <trkpt lat="45.56594" lon="6.06677">
        <ele>1681</ele>
        <time>2021-06-27T11:34:10.072Z</time>
      </trkpt>
      <trkpt lat="45.56595" lon="6.06678">
        <ele>1681</ele>
        <time>2021-06-27T11:34:11.072Z</time>
      </trkpt>
      <trkpt lat="45.56595" lon="6.06679">
        <ele>1681</ele>
        <time>2021-06-27T11:34:12.072Z</time>
      </trkpt>
      <trkpt lat="45.56595" lon="6.0668">
        <ele>1681</ele>
        <time>2021-06-27T11:34:13.072Z</time>
      </trkpt>
      <trkpt lat="45.56595" lon="6.06681">
        <ele>1681</ele>
        <time>2021-06-27T11:34:14.072Z</time>
      </trkpt>
      <trkpt lat="45.56595" lon="6.06682">
        <ele>1681</ele>
        <time>2021-06-27T11:34:15.072Z</time>
      </trkpt>
      <trkpt lat="45.56595" lon="6.06683">
        <ele>1681</ele>
        <time>2021-06-27T11:34:16.072Z</time>
      </trkpt>
      <trkpt lat="45.56596" lon="6.06684">
        <ele>1681</ele>
        <time>2021-06-27T11:34:17.072Z</time>
      </trkpt>
      <trkpt lat="45.56596" lon="6.06685">
        <ele>1681</ele>
        <time>2021-06-27T11:34:18.072Z</time>
      </trkpt>
      <trkpt lat="45.56596" lon="6.06686">
        <ele>1680</ele>
        <time>2021-06-27T11:34:19.072Z</time>
      </trkpt>
      <trkpt lat="45.56596" lon="6.06687">
        <ele>1680</ele>
        <time>2021-06-27T11:34:20.072Z</time>
      </trkpt>
      <trkpt lat="45.56597" lon="6.06689">
        <ele>1680</ele>
        <time>2021-06-27T11:34:21.072Z</time>
      </trkpt>
      <trkpt lat="45.56597" lon="6.0669">
        <ele>1680</ele>
        <time>2021-06-27T11:34:22.072Z</time>
      </trkpt>
      <trkpt lat="45.56597" lon="6.06691">
        <ele>1680</ele>
        <time>2021-06-27T11:34:23.072Z</time>
      </trkpt>
      <trkpt lat="45.56597" lon="6.06693">
        <ele>1680</ele>
        <time>2021-06-27T11:34:24.072Z</time>
      </trkpt>
      <trkpt lat="45.56597" lon="6.06694">
        <ele>1680</ele>
        <time>2021-06-27T11:34:25.072Z</time>
      </trkpt>
      <trkpt lat="45.56597" lon="6.06695">
        <ele>1679</ele>
        <time>2021-06-27T11:34:26.072Z</time>
      </trkpt>
      <trkpt lat="45.56598" lon="6.06696">
        <ele>1679</ele>
        <time>2021-06-27T11:34:27.072Z</time>
      </trkpt>
      <trkpt lat="45.56598" lon="6.06697">
        <ele>1679</ele>
        <time>2021-06-27T11:34:28.071Z</time>
      </trkpt>
      <trkpt lat="45.56599" lon="6.06698">
        <ele>1678</ele>
        <time>2021-06-27T11:34:29.072Z</time>
      </trkpt>
      <trkpt lat="45.56599" lon="6.06699">
        <ele>1678</ele>
        <time>2021-06-27T11:34:30.072Z</time>
      </trkpt>
      <trkpt lat="45.56599" lon="6.067">
        <ele>1678</ele>
        <time>2021-06-27T11:34:31.071Z</time>
      </trkpt>
      <trkpt lat="45.56599" lon="6.067">
        <ele>1678</ele>
        <time>2021-06-27T11:34:32.072Z</time>
      </trkpt>
      <trkpt lat="45.56599" lon="6.06701">
        <ele>1678</ele>
        <time>2021-06-27T11:34:33.071Z</time>
      </trkpt>
      <trkpt lat="45.56599" lon="6.067">
        <ele>1678</ele>
        <time>2021-06-27T11:34:34.071Z</time>
      </trkpt>
      <trkpt lat="45.56599" lon="6.067">
        <ele>1679</ele>
        <time>2021-06-27T11:34:35.072Z</time>
      </trkpt>
      <trkpt lat="45.56599" lon="6.067">
        <ele>1679</ele>
        <time>2021-06-27T11:34:36.072Z</time>
      </trkpt>
      <trkpt lat="45.56599" lon="6.06701">
        <ele>1679</ele>
        <time>2021-06-27T11:34:37.072Z</time>
      </trkpt>
      <trkpt lat="45.56599" lon="6.06701">
        <ele>1679</ele>
        <time>2021-06-27T11:34:38.072Z</time>
      </trkpt>
      <trkpt lat="45.566" lon="6.06702">
        <ele>1679</ele>
        <time>2021-06-27T11:34:39.072Z</time>
      </trkpt>
      <trkpt lat="45.566" lon="6.06703">
        <ele>1679</ele>
        <time>2021-06-27T11:34:40.072Z</time>
      </trkpt>
      <trkpt lat="45.566" lon="6.06704">
        <ele>1679</ele>
        <time>2021-06-27T11:34:41.072Z</time>
      </trkpt>
      <trkpt lat="45.566" lon="6.06705">
        <ele>1678</ele>
        <time>2021-06-27T11:34:42.072Z</time>
      </trkpt>
      <trkpt lat="45.566" lon="6.06706">
        <ele>1678</ele>
        <time>2021-06-27T11:34:43.072Z</time>
      </trkpt>
      <trkpt lat="45.56601" lon="6.06707">
        <ele>1678</ele>
        <time>2021-06-27T11:34:44.072Z</time>
      </trkpt>
      <trkpt lat="45.56601" lon="6.06709">
        <ele>1678</ele>
        <time>2021-06-27T11:34:45.072Z</time>
      </trkpt>
      <trkpt lat="45.56602" lon="6.0671">
        <ele>1678</ele>
        <time>2021-06-27T11:34:46.072Z</time>
      </trkpt>
      <trkpt lat="45.56602" lon="6.06711">
        <ele>1678</ele>
        <time>2021-06-27T11:34:47.071Z</time>
      </trkpt>
      <trkpt lat="45.56603" lon="6.06712">
        <ele>1678</ele>
        <time>2021-06-27T11:34:48.071Z</time>
      </trkpt>
      <trkpt lat="45.56603" lon="6.06713">
        <ele>1677</ele>
        <time>2021-06-27T11:34:49.072Z</time>
      </trkpt>
      <trkpt lat="45.56603" lon="6.06714">
        <ele>1677</ele>
        <time>2021-06-27T11:34:50.072Z</time>
      </trkpt>
      <trkpt lat="45.56603" lon="6.06715">
        <ele>1677</ele>
        <time>2021-06-27T11:34:51.072Z</time>
      </trkpt>
      <trkpt lat="45.56604" lon="6.06715">
        <ele>1677</ele>
        <time>2021-06-27T11:34:52.072Z</time>
      </trkpt>
      <trkpt lat="45.56604" lon="6.06715">
        <ele>1676</ele>
        <time>2021-06-27T11:34:53.072Z</time>
      </trkpt>
      <trkpt lat="45.56604" lon="6.06715">
        <ele>1676</ele>
        <time>2021-06-27T11:34:54.072Z</time>
      </trkpt>
      <trkpt lat="45.56604" lon="6.06715">
        <ele>1676</ele>
        <time>2021-06-27T11:34:55.071Z</time>
      </trkpt>
      <trkpt lat="45.56604" lon="6.06715">
        <ele>1677</ele>
        <time>2021-06-27T11:34:56.071Z</time>
      </trkpt>
      <trkpt lat="45.56604" lon="6.06715">
        <ele>1677</ele>
        <time>2021-06-27T11:34:57.071Z</time>
      </trkpt>
      <trkpt lat="45.56604" lon="6.06716">
        <ele>1677</ele>
        <time>2021-06-27T11:34:58.072Z</time>
      </trkpt>
      <trkpt lat="45.56604" lon="6.06716">
        <ele>1677</ele>
        <time>2021-06-27T11:34:59.072Z</time>
      </trkpt>
      <trkpt lat="45.56604" lon="6.06715">
        <ele>1677</ele>
        <time>2021-06-27T11:35:00.071Z</time>
      </trkpt>
      <trkpt lat="45.56604" lon="6.06715">
        <ele>1677</ele>
        <time>2021-06-27T11:35:01.072Z</time>
      </trkpt>
      <trkpt lat="45.56605" lon="6.06716">
        <ele>1677</ele>
        <time>2021-06-27T11:35:02.072Z</time>
      </trkpt>
      <trkpt lat="45.56605" lon="6.06717">
        <ele>1678</ele>
        <time>2021-06-27T11:35:03.071Z</time>
      </trkpt>
      <trkpt lat="45.56605" lon="6.06717">
        <ele>1677</ele>
        <time>2021-06-27T11:35:04.072Z</time>
      </trkpt>
      <trkpt lat="45.56606" lon="6.06719">
        <ele>1677</ele>
        <time>2021-06-27T11:35:05.072Z</time>
      </trkpt>
      <trkpt lat="45.56607" lon="6.0672">
        <ele>1677</ele>
        <time>2021-06-27T11:35:06.072Z</time>
      </trkpt>
      <trkpt lat="45.56607" lon="6.06721">
        <ele>1678</ele>
        <time>2021-06-27T11:35:07.071Z</time>
      </trkpt>
      <trkpt lat="45.56608" lon="6.06722">
        <ele>1677</ele>
        <time>2021-06-27T11:35:08.072Z</time>
      </trkpt>
      <trkpt lat="45.56608" lon="6.06723">
        <ele>1677</ele>
        <time>2021-06-27T11:35:09.071Z</time>
      </trkpt>
      <trkpt lat="45.56609" lon="6.06725">
        <ele>1677</ele>
        <time>2021-06-27T11:35:10.072Z</time>
      </trkpt>
      <trkpt lat="45.5661" lon="6.06726">
        <ele>1676</ele>
        <time>2021-06-27T11:35:11.072Z</time>
      </trkpt>
      <trkpt lat="45.5661" lon="6.06727">
        <ele>1676</ele>
        <time>2021-06-27T11:35:12.072Z</time>
      </trkpt>
      <trkpt lat="45.56611" lon="6.06728">
        <ele>1676</ele>
        <time>2021-06-27T11:35:13.071Z</time>
      </trkpt>
      <trkpt lat="45.56612" lon="6.06728">
        <ele>1675</ele>
        <time>2021-06-27T11:35:14.071Z</time>
      </trkpt>
      <trkpt lat="45.56612" lon="6.06729">
        <ele>1675</ele>
        <time>2021-06-27T11:35:15.071Z</time>
      </trkpt>
      <trkpt lat="45.56612" lon="6.06729">
        <ele>1675</ele>
        <time>2021-06-27T11:35:16.072Z</time>
      </trkpt>
      <trkpt lat="45.56612" lon="6.06729">
        <ele>1674</ele>
        <time>2021-06-27T11:35:17.072Z</time>
      </trkpt>
      <trkpt lat="45.56612" lon="6.06729">
        <ele>1674</ele>
        <time>2021-06-27T11:35:18.072Z</time>
      </trkpt>
      <trkpt lat="45.56612" lon="6.06729">
        <ele>1674</ele>
        <time>2021-06-27T11:35:19.072Z</time>
      </trkpt>
      <trkpt lat="45.56611" lon="6.06729">
        <ele>1674</ele>
        <time>2021-06-27T11:35:20.071Z</time>
      </trkpt>
      <trkpt lat="45.56611" lon="6.06729">
        <ele>1674</ele>
        <time>2021-06-27T11:35:21.071Z</time>
      </trkpt>
      <trkpt lat="45.5661" lon="6.06729">
        <ele>1674</ele>
        <time>2021-06-27T11:35:22.072Z</time>
      </trkpt>
      <trkpt lat="45.5661" lon="6.06729">
        <ele>1674</ele>
        <time>2021-06-27T11:35:23.072Z</time>
      </trkpt>
      <trkpt lat="45.56609" lon="6.0673">
        <ele>1674</ele>
        <time>2021-06-27T11:35:24.072Z</time>
      </trkpt>
      <trkpt lat="45.56609" lon="6.06731">
        <ele>1674</ele>
        <time>2021-06-27T11:35:25.072Z</time>
      </trkpt>
      <trkpt lat="45.5661" lon="6.06732">
        <ele>1675</ele>
        <time>2021-06-27T11:35:26.072Z</time>
      </trkpt>
      <trkpt lat="45.5661" lon="6.06733">
        <ele>1674</ele>
        <time>2021-06-27T11:35:27.072Z</time>
      </trkpt>
      <trkpt lat="45.56611" lon="6.06734">
        <ele>1674</ele>
        <time>2021-06-27T11:35:28.071Z</time>
      </trkpt>
      <trkpt lat="45.56611" lon="6.06735">
        <ele>1674</ele>
        <time>2021-06-27T11:35:29.072Z</time>
      </trkpt>
      <trkpt lat="45.56612" lon="6.06736">
        <ele>1674</ele>
        <time>2021-06-27T11:35:30.072Z</time>
      </trkpt>
      <trkpt lat="45.56612" lon="6.06736">
        <ele>1673</ele>
        <time>2021-06-27T11:35:31.072Z</time>
      </trkpt>
      <trkpt lat="45.56613" lon="6.06737">
        <ele>1673</ele>
        <time>2021-06-27T11:35:32.072Z</time>
      </trkpt>
      <trkpt lat="45.56613" lon="6.06738">
        <ele>1673</ele>
        <time>2021-06-27T11:35:33.072Z</time>
      </trkpt>
      <trkpt lat="45.56613" lon="6.06738">
        <ele>1672</ele>
        <time>2021-06-27T11:35:34.072Z</time>
      </trkpt>
      <trkpt lat="45.56613" lon="6.06739">
        <ele>1673</ele>
        <time>2021-06-27T11:35:35.071Z</time>
      </trkpt>
      <trkpt lat="45.56614" lon="6.06739">
        <ele>1673</ele>
        <time>2021-06-27T11:35:36.072Z</time>
      </trkpt>
      <trkpt lat="45.56614" lon="6.06739">
        <ele>1673</ele>
        <time>2021-06-27T11:35:37.072Z</time>
      </trkpt>
      <trkpt lat="45.56614" lon="6.06739">
        <ele>1673</ele>
        <time>2021-06-27T11:35:38.072Z</time>
      </trkpt>
      <trkpt lat="45.56614" lon="6.06739">
        <ele>1673</ele>
        <time>2021-06-27T11:35:39.072Z</time>
      </trkpt>
      <trkpt lat="45.56614" lon="6.0674">
        <ele>1673</ele>
        <time>2021-06-27T11:35:40.072Z</time>
      </trkpt>
      <trkpt lat="45.56614" lon="6.0674">
        <ele>1672</ele>
        <time>2021-06-27T11:35:41.071Z</time>
      </trkpt>
      <trkpt lat="45.56614" lon="6.06739">
        <ele>1672</ele>
        <time>2021-06-27T11:35:42.072Z</time>
      </trkpt>
      <trkpt lat="45.56614" lon="6.06739">
        <ele>1672</ele>
        <time>2021-06-27T11:35:43.072Z</time>
      </trkpt>
      <trkpt lat="45.56614" lon="6.06739">
        <ele>1673</ele>
        <time>2021-06-27T11:35:44.072Z</time>
      </trkpt>
      <trkpt lat="45.56614" lon="6.06739">
        <ele>1674</ele>
        <time>2021-06-27T11:35:45.072Z</time>
      </trkpt>
      <trkpt lat="45.56614" lon="6.06739">
        <ele>1674</ele>
        <time>2021-06-27T11:35:46.071Z</time>
      </trkpt>
      <trkpt lat="45.56615" lon="6.0674">
        <ele>1675</ele>
        <time>2021-06-27T11:35:47.072Z</time>
      </trkpt>
      <trkpt lat="45.56615" lon="6.0674">
        <ele>1675</ele>
        <time>2021-06-27T11:35:48.072Z</time>
      </trkpt>
      <trkpt lat="45.56616" lon="6.06741">
        <ele>1675</ele>
        <time>2021-06-27T11:35:49.072Z</time>
      </trkpt>
      <trkpt lat="45.56617" lon="6.06742">
        <ele>1676</ele>
        <time>2021-06-27T11:35:50.072Z</time>
      </trkpt>
      <trkpt lat="45.56617" lon="6.06743">
        <ele>1676</ele>
        <time>2021-06-27T11:35:51.072Z</time>
      </trkpt>
      <trkpt lat="45.56617" lon="6.06744">
        <ele>1676</ele>
        <time>2021-06-27T11:35:52.072Z</time>
      </trkpt>
      <trkpt lat="45.56618" lon="6.06744">
        <ele>1676</ele>
        <time>2021-06-27T11:35:53.072Z</time>
      </trkpt>
      <trkpt lat="45.56618" lon="6.06745">
        <ele>1676</ele>
        <time>2021-06-27T11:35:54.072Z</time>
      </trkpt>
      <trkpt lat="45.56618" lon="6.06746">
        <ele>1675</ele>
        <time>2021-06-27T11:35:55.071Z</time>
      </trkpt>
      <trkpt lat="45.56619" lon="6.06747">
        <ele>1675</ele>
        <time>2021-06-27T11:35:56.072Z</time>
      </trkpt>
      <trkpt lat="45.56619" lon="6.06748">
        <ele>1674</ele>
        <time>2021-06-27T11:35:57.071Z</time>
      </trkpt>
      <trkpt lat="45.5662" lon="6.06749">
        <ele>1674</ele>
        <time>2021-06-27T11:35:58.072Z</time>
      </trkpt>
      <trkpt lat="45.56621" lon="6.06751">
        <ele>1674</ele>
        <time>2021-06-27T11:35:59.072Z</time>
      </trkpt>
      <trkpt lat="45.56621" lon="6.06752">
        <ele>1674</ele>
        <time>2021-06-27T11:36:00.072Z</time>
      </trkpt>
      <trkpt lat="45.56622" lon="6.06753">
        <ele>1673</ele>
        <time>2021-06-27T11:36:01.072Z</time>
      </trkpt>
      <trkpt lat="45.56622" lon="6.06754">
        <ele>1673</ele>
        <time>2021-06-27T11:36:02.071Z</time>
      </trkpt>
      <trkpt lat="45.56622" lon="6.06755">
        <ele>1673</ele>
        <time>2021-06-27T11:36:03.071Z</time>
      </trkpt>
      <trkpt lat="45.56623" lon="6.06756">
        <ele>1673</ele>
        <time>2021-06-27T11:36:04.072Z</time>
      </trkpt>
      <trkpt lat="45.56623" lon="6.06758">
        <ele>1673</ele>
        <time>2021-06-27T11:36:05.072Z</time>
      </trkpt>
      <trkpt lat="45.56623" lon="6.06759">
        <ele>1672</ele>
        <time>2021-06-27T11:36:06.072Z</time>
      </trkpt>
      <trkpt lat="45.56623" lon="6.0676">
        <ele>1672</ele>
        <time>2021-06-27T11:36:07.071Z</time>
      </trkpt>
      <trkpt lat="45.56623" lon="6.06761">
        <ele>1672</ele>
        <time>2021-06-27T11:36:08.071Z</time>
      </trkpt>
      <trkpt lat="45.56623" lon="6.06763">
        <ele>1671</ele>
        <time>2021-06-27T11:36:09.071Z</time>
      </trkpt>
      <trkpt lat="45.56623" lon="6.06764">
        <ele>1671</ele>
        <time>2021-06-27T11:36:10.072Z</time>
      </trkpt>
      <trkpt lat="45.56623" lon="6.06765">
        <ele>1670</ele>
        <time>2021-06-27T11:36:11.072Z</time>
      </trkpt>
      <trkpt lat="45.56623" lon="6.06766">
        <ele>1670</ele>
        <time>2021-06-27T11:36:12.071Z</time>
      </trkpt>
      <trkpt lat="45.56623" lon="6.06766">
        <ele>1670</ele>
        <time>2021-06-27T11:36:13.072Z</time>
      </trkpt>
      <trkpt lat="45.56623" lon="6.06767">
        <ele>1669</ele>
        <time>2021-06-27T11:36:14.072Z</time>
      </trkpt>
      <trkpt lat="45.56623" lon="6.06768">
        <ele>1669</ele>
        <time>2021-06-27T11:36:15.072Z</time>
      </trkpt>
      <trkpt lat="45.56623" lon="6.06769">
        <ele>1669</ele>
        <time>2021-06-27T11:36:16.072Z</time>
      </trkpt>
      <trkpt lat="45.56623" lon="6.0677">
        <ele>1669</ele>
        <time>2021-06-27T11:36:17.071Z</time>
      </trkpt>
      <trkpt lat="45.56623" lon="6.06771">
        <ele>1669</ele>
        <time>2021-06-27T11:36:18.072Z</time>
      </trkpt>
      <trkpt lat="45.56624" lon="6.06773">
        <ele>1669</ele>
        <time>2021-06-27T11:36:19.072Z</time>
      </trkpt>
      <trkpt lat="45.56624" lon="6.06774">
        <ele>1669</ele>
        <time>2021-06-27T11:36:20.072Z</time>
      </trkpt>
      <trkpt lat="45.56625" lon="6.06775">
        <ele>1669</ele>
        <time>2021-06-27T11:36:21.072Z</time>
      </trkpt>
      <trkpt lat="45.56625" lon="6.06777">
        <ele>1670</ele>
        <time>2021-06-27T11:36:22.072Z</time>
      </trkpt>
      <trkpt lat="45.56625" lon="6.06778">
        <ele>1670</ele>
        <time>2021-06-27T11:36:23.072Z</time>
      </trkpt>
      <trkpt lat="45.56625" lon="6.0678">
        <ele>1669</ele>
        <time>2021-06-27T11:36:24.072Z</time>
      </trkpt>
      <trkpt lat="45.56625" lon="6.06782">
        <ele>1669</ele>
        <time>2021-06-27T11:36:25.072Z</time>
      </trkpt>
      <trkpt lat="45.56626" lon="6.06783">
        <ele>1669</ele>
        <time>2021-06-27T11:36:26.072Z</time>
      </trkpt>
      <trkpt lat="45.56626" lon="6.06784">
        <ele>1669</ele>
        <time>2021-06-27T11:36:27.072Z</time>
      </trkpt>
      <trkpt lat="45.56627" lon="6.06785">
        <ele>1669</ele>
        <time>2021-06-27T11:36:28.071Z</time>
      </trkpt>
      <trkpt lat="45.56628" lon="6.06787">
        <ele>1669</ele>
        <time>2021-06-27T11:36:29.071Z</time>
      </trkpt>
      <trkpt lat="45.56628" lon="6.06788">
        <ele>1668</ele>
        <time>2021-06-27T11:36:30.071Z</time>
      </trkpt>
      <trkpt lat="45.56629" lon="6.06789">
        <ele>1668</ele>
        <time>2021-06-27T11:36:31.072Z</time>
      </trkpt>
      <trkpt lat="45.56629" lon="6.0679">
        <ele>1668</ele>
        <time>2021-06-27T11:36:32.072Z</time>
      </trkpt>
      <trkpt lat="45.5663" lon="6.06792">
        <ele>1669</ele>
        <time>2021-06-27T11:36:33.072Z</time>
      </trkpt>
      <trkpt lat="45.56631" lon="6.06793">
        <ele>1669</ele>
        <time>2021-06-27T11:36:34.072Z</time>
      </trkpt>
      <trkpt lat="45.56632" lon="6.06794">
        <ele>1669</ele>
        <time>2021-06-27T11:36:35.072Z</time>
      </trkpt>
      <trkpt lat="45.56633" lon="6.06795">
        <ele>1669</ele>
        <time>2021-06-27T11:36:36.071Z</time>
      </trkpt>
      <trkpt lat="45.56633" lon="6.06796">
        <ele>1669</ele>
        <time>2021-06-27T11:36:37.071Z</time>
      </trkpt>
      <trkpt lat="45.56634" lon="6.06797">
        <ele>1669</ele>
        <time>2021-06-27T11:36:38.072Z</time>
      </trkpt>
      <trkpt lat="45.56635" lon="6.06798">
        <ele>1669</ele>
        <time>2021-06-27T11:36:39.072Z</time>
      </trkpt>
      <trkpt lat="45.56636" lon="6.06798">
        <ele>1669</ele>
        <time>2021-06-27T11:36:40.072Z</time>
      </trkpt>
      <trkpt lat="45.56637" lon="6.06799">
        <ele>1669</ele>
        <time>2021-06-27T11:36:41.072Z</time>
      </trkpt>
      <trkpt lat="45.56638" lon="6.068">
        <ele>1669</ele>
        <time>2021-06-27T11:36:42.072Z</time>
      </trkpt>
      <trkpt lat="45.56638" lon="6.06801">
        <ele>1669</ele>
        <time>2021-06-27T11:36:43.072Z</time>
      </trkpt>
      <trkpt lat="45.5664" lon="6.06801">
        <ele>1669</ele>
        <time>2021-06-27T11:36:44.072Z</time>
      </trkpt>
      <trkpt lat="45.5664" lon="6.06802">
        <ele>1668</ele>
        <time>2021-06-27T11:36:45.072Z</time>
      </trkpt>
      <trkpt lat="45.56641" lon="6.06802">
        <ele>1668</ele>
        <time>2021-06-27T11:36:46.072Z</time>
      </trkpt>
      <trkpt lat="45.56641" lon="6.06803">
        <ele>1667</ele>
        <time>2021-06-27T11:36:47.072Z</time>
      </trkpt>
      <trkpt lat="45.56642" lon="6.06804">
        <ele>1667</ele>
        <time>2021-06-27T11:36:48.072Z</time>
      </trkpt>
      <trkpt lat="45.56643" lon="6.06804">
        <ele>1666</ele>
        <time>2021-06-27T11:36:49.072Z</time>
      </trkpt>
      <trkpt lat="45.56644" lon="6.06805">
        <ele>1666</ele>
        <time>2021-06-27T11:36:50.072Z</time>
      </trkpt>
      <trkpt lat="45.56644" lon="6.06806">
        <ele>1666</ele>
        <time>2021-06-27T11:36:51.072Z</time>
      </trkpt>
      <trkpt lat="45.56645" lon="6.06807">
        <ele>1666</ele>
        <time>2021-06-27T11:36:52.071Z</time>
      </trkpt>
      <trkpt lat="45.56645" lon="6.06808">
        <ele>1666</ele>
        <time>2021-06-27T11:36:53.072Z</time>
      </trkpt>
      <trkpt lat="45.56645" lon="6.06808">
        <ele>1666</ele>
        <time>2021-06-27T11:36:54.072Z</time>
      </trkpt>
      <trkpt lat="45.56645" lon="6.06808">
        <ele>1666</ele>
        <time>2021-06-27T11:36:55.072Z</time>
      </trkpt>
      <trkpt lat="45.56646" lon="6.06808">
        <ele>1667</ele>
        <time>2021-06-27T11:36:56.071Z</time>
      </trkpt>
      <trkpt lat="45.56647" lon="6.06809">
        <ele>1666</ele>
        <time>2021-06-27T11:36:57.072Z</time>
      </trkpt>
      <trkpt lat="45.56648" lon="6.0681">
        <ele>1666</ele>
        <time>2021-06-27T11:36:58.072Z</time>
      </trkpt>
      <trkpt lat="45.56648" lon="6.06811">
        <ele>1666</ele>
        <time>2021-06-27T11:36:59.071Z</time>
      </trkpt>
      <trkpt lat="45.56649" lon="6.06812">
        <ele>1666</ele>
        <time>2021-06-27T11:37:00.072Z</time>
      </trkpt>
      <trkpt lat="45.56649" lon="6.06813">
        <ele>1665</ele>
        <time>2021-06-27T11:37:01.072Z</time>
      </trkpt>
      <trkpt lat="45.56649" lon="6.06813">
        <ele>1665</ele>
        <time>2021-06-27T11:37:02.072Z</time>
      </trkpt>
      <trkpt lat="45.5665" lon="6.06814">
        <ele>1665</ele>
        <time>2021-06-27T11:37:03.071Z</time>
      </trkpt>
      <trkpt lat="45.5665" lon="6.06814">
        <ele>1664</ele>
        <time>2021-06-27T11:37:04.072Z</time>
      </trkpt>
      <trkpt lat="45.5665" lon="6.06815">
        <ele>1664</ele>
        <time>2021-06-27T11:37:05.071Z</time>
      </trkpt>
      <trkpt lat="45.5665" lon="6.06815">
        <ele>1664</ele>
        <time>2021-06-27T11:37:06.072Z</time>
      </trkpt>
      <trkpt lat="45.56649" lon="6.06816">
        <ele>1664</ele>
        <time>2021-06-27T11:37:07.072Z</time>
      </trkpt>
      <trkpt lat="45.56649" lon="6.06816">
        <ele>1664</ele>
        <time>2021-06-27T11:37:08.072Z</time>
      </trkpt>
      <trkpt lat="45.56649" lon="6.06816">
        <ele>1664</ele>
        <time>2021-06-27T11:37:09.072Z</time>
      </trkpt>
      <trkpt lat="45.56648" lon="6.06817">
        <ele>1664</ele>
        <time>2021-06-27T11:37:10.072Z</time>
      </trkpt>
      <trkpt lat="45.56648" lon="6.06818">
        <ele>1664</ele>
        <time>2021-06-27T11:37:11.072Z</time>
      </trkpt>
      <trkpt lat="45.56648" lon="6.06819">
        <ele>1664</ele>
        <time>2021-06-27T11:37:12.072Z</time>
      </trkpt>
      <trkpt lat="45.56648" lon="6.0682">
        <ele>1663</ele>
        <time>2021-06-27T11:37:13.072Z</time>
      </trkpt>
      <trkpt lat="45.56649" lon="6.06821">
        <ele>1662</ele>
        <time>2021-06-27T11:37:14.072Z</time>
      </trkpt>
      <trkpt lat="45.56649" lon="6.06821">
        <ele>1662</ele>
        <time>2021-06-27T11:37:15.072Z</time>
      </trkpt>
      <trkpt lat="45.5665" lon="6.06822">
        <ele>1662</ele>
        <time>2021-06-27T11:37:16.072Z</time>
      </trkpt>
      <trkpt lat="45.5665" lon="6.06823">
        <ele>1662</ele>
        <time>2021-06-27T11:37:17.071Z</time>
      </trkpt>
      <trkpt lat="45.56651" lon="6.06823">
        <ele>1662</ele>
        <time>2021-06-27T11:37:18.072Z</time>
      </trkpt>
      <trkpt lat="45.56652" lon="6.06824">
        <ele>1662</ele>
        <time>2021-06-27T11:37:19.072Z</time>
      </trkpt>
      <trkpt lat="45.56652" lon="6.06825">
        <ele>1662</ele>
        <time>2021-06-27T11:37:20.072Z</time>
      </trkpt>
      <trkpt lat="45.56652" lon="6.06826">
        <ele>1662</ele>
        <time>2021-06-27T11:37:21.072Z</time>
      </trkpt>
      <trkpt lat="45.56653" lon="6.06826">
        <ele>1662</ele>
        <time>2021-06-27T11:37:22.072Z</time>
      </trkpt>
      <trkpt lat="45.56652" lon="6.06826">
        <ele>1661</ele>
        <time>2021-06-27T11:37:23.072Z</time>
      </trkpt>
      <trkpt lat="45.56652" lon="6.06826">
        <ele>1661</ele>
        <time>2021-06-27T11:37:24.072Z</time>
      </trkpt>
      <trkpt lat="45.56652" lon="6.06826">
        <ele>1661</ele>
        <time>2021-06-27T11:37:25.072Z</time>
      </trkpt>
      <trkpt lat="45.56652" lon="6.06826">
        <ele>1661</ele>
        <time>2021-06-27T11:37:26.072Z</time>
      </trkpt>
      <trkpt lat="45.56652" lon="6.06826">
        <ele>1661</ele>
        <time>2021-06-27T11:37:27.072Z</time>
      </trkpt>
      <trkpt lat="45.56652" lon="6.06826">
        <ele>1661</ele>
        <time>2021-06-27T11:37:28.071Z</time>
      </trkpt>
      <trkpt lat="45.56651" lon="6.06826">
        <ele>1660</ele>
        <time>2021-06-27T11:37:29.071Z</time>
      </trkpt>
      <trkpt lat="45.56651" lon="6.06826">
        <ele>1660</ele>
        <time>2021-06-27T11:37:30.072Z</time>
      </trkpt>
      <trkpt lat="45.56651" lon="6.06826">
        <ele>1660</ele>
        <time>2021-06-27T11:37:31.071Z</time>
      </trkpt>
      <trkpt lat="45.5665" lon="6.06826">
        <ele>1659</ele>
        <time>2021-06-27T11:37:32.071Z</time>
      </trkpt>
      <trkpt lat="45.5665" lon="6.06826">
        <ele>1659</ele>
        <time>2021-06-27T11:37:33.072Z</time>
      </trkpt>
      <trkpt lat="45.56651" lon="6.06826">
        <ele>1658</ele>
        <time>2021-06-27T11:37:34.071Z</time>
      </trkpt>
      <trkpt lat="45.56653" lon="6.06824">
        <ele>1666</ele>
        <time>2021-06-27T11:37:35.073Z</time>
      </trkpt>
      <trkpt lat="45.56653" lon="6.06824">
        <ele>1665</ele>
        <time>2021-06-27T11:37:36.073Z</time>
      </trkpt>
      <trkpt lat="45.56653" lon="6.06824">
        <ele>1665</ele>
        <time>2021-06-27T11:37:37.073Z</time>
      </trkpt>
      <trkpt lat="45.56653" lon="6.06823">
        <ele>1664</ele>
        <time>2021-06-27T11:37:38.073Z</time>
      </trkpt>
      <trkpt lat="45.56653" lon="6.06823">
        <ele>1664</ele>
        <time>2021-06-27T11:37:39.073Z</time>
      </trkpt>
      <trkpt lat="45.56653" lon="6.06823">
        <ele>1663</ele>
        <time>2021-06-27T11:37:40.073Z</time>
      </trkpt>
      <trkpt lat="45.56653" lon="6.06823">
        <ele>1663</ele>
        <time>2021-06-27T11:37:41.073Z</time>
      </trkpt>
      <trkpt lat="45.56653" lon="6.06823">
        <ele>1663</ele>
        <time>2021-06-27T11:37:42.073Z</time>
      </trkpt>
      <trkpt lat="45.56653" lon="6.06824">
        <ele>1662</ele>
        <time>2021-06-27T11:37:43.072Z</time>
      </trkpt>
      <trkpt lat="45.56653" lon="6.06825">
        <ele>1662</ele>
        <time>2021-06-27T11:37:44.072Z</time>
      </trkpt>
      <trkpt lat="45.56654" lon="6.06827">
        <ele>1661</ele>
        <time>2021-06-27T11:37:45.073Z</time>
      </trkpt>
      <trkpt lat="45.56655" lon="6.06828">
        <ele>1661</ele>
        <time>2021-06-27T11:37:46.073Z</time>
      </trkpt>
      <trkpt lat="45.56655" lon="6.0683">
        <ele>1661</ele>
        <time>2021-06-27T11:37:47.073Z</time>
      </trkpt>
      <trkpt lat="45.56656" lon="6.06832">
        <ele>1661</ele>
        <time>2021-06-27T11:37:48.073Z</time>
      </trkpt>
      <trkpt lat="45.56656" lon="6.06834">
        <ele>1661</ele>
        <time>2021-06-27T11:37:49.072Z</time>
      </trkpt>
      <trkpt lat="45.56657" lon="6.06837">
        <ele>1660</ele>
        <time>2021-06-27T11:37:50.073Z</time>
      </trkpt>
      <trkpt lat="45.56657" lon="6.06839">
        <ele>1660</ele>
        <time>2021-06-27T11:37:51.073Z</time>
      </trkpt>
      <trkpt lat="45.56658" lon="6.0684">
        <ele>1659</ele>
        <time>2021-06-27T11:37:52.073Z</time>
      </trkpt>
      <trkpt lat="45.56658" lon="6.06843">
        <ele>1658</ele>
        <time>2021-06-27T11:37:53.072Z</time>
      </trkpt>
      <trkpt lat="45.56658" lon="6.06845">
        <ele>1658</ele>
        <time>2021-06-27T11:37:54.072Z</time>
      </trkpt>
      <trkpt lat="45.56659" lon="6.06847">
        <ele>1657</ele>
        <time>2021-06-27T11:37:55.073Z</time>
      </trkpt>
      <trkpt lat="45.56659" lon="6.06848">
        <ele>1657</ele>
        <time>2021-06-27T11:37:56.072Z</time>
      </trkpt>
      <trkpt lat="45.5666" lon="6.0685">
        <ele>1656</ele>
        <time>2021-06-27T11:37:57.073Z</time>
      </trkpt>
      <trkpt lat="45.5666" lon="6.06851">
        <ele>1656</ele>
        <time>2021-06-27T11:37:58.072Z</time>
      </trkpt>
      <trkpt lat="45.56661" lon="6.06852">
        <ele>1656</ele>
        <time>2021-06-27T11:37:59.072Z</time>
      </trkpt>
      <trkpt lat="45.56662" lon="6.06853">
        <ele>1655</ele>
        <time>2021-06-27T11:38:00.073Z</time>
      </trkpt>
      <trkpt lat="45.56662" lon="6.06854">
        <ele>1655</ele>
        <time>2021-06-27T11:38:01.073Z</time>
      </trkpt>
      <trkpt lat="45.56662" lon="6.06854">
        <ele>1654</ele>
        <time>2021-06-27T11:38:02.073Z</time>
      </trkpt>
      <trkpt lat="45.56662" lon="6.06855">
        <ele>1653</ele>
        <time>2021-06-27T11:38:03.072Z</time>
      </trkpt>
      <trkpt lat="45.56662" lon="6.06856">
        <ele>1653</ele>
        <time>2021-06-27T11:38:04.072Z</time>
      </trkpt>
      <trkpt lat="45.56662" lon="6.06856">
        <ele>1653</ele>
        <time>2021-06-27T11:38:05.073Z</time>
      </trkpt>
      <trkpt lat="45.56662" lon="6.06856">
        <ele>1653</ele>
        <time>2021-06-27T11:38:06.072Z</time>
      </trkpt>
      <trkpt lat="45.56661" lon="6.06856">
        <ele>1653</ele>
        <time>2021-06-27T11:38:07.073Z</time>
      </trkpt>
      <trkpt lat="45.56661" lon="6.06856">
        <ele>1653</ele>
        <time>2021-06-27T11:38:08.072Z</time>
      </trkpt>
      <trkpt lat="45.56661" lon="6.06856">
        <ele>1652</ele>
        <time>2021-06-27T11:38:09.073Z</time>
      </trkpt>
      <trkpt lat="45.56661" lon="6.06855">
        <ele>1652</ele>
        <time>2021-06-27T11:38:10.072Z</time>
      </trkpt>
      <trkpt lat="45.56661" lon="6.06855">
        <ele>1652</ele>
        <time>2021-06-27T11:38:11.073Z</time>
      </trkpt>
      <trkpt lat="45.56661" lon="6.06855">
        <ele>1651</ele>
        <time>2021-06-27T11:38:12.073Z</time>
      </trkpt>
      <trkpt lat="45.56661" lon="6.06855">
        <ele>1650</ele>
        <time>2021-06-27T11:38:13.073Z</time>
      </trkpt>
      <trkpt lat="45.56661" lon="6.06855">
        <ele>1650</ele>
        <time>2021-06-27T11:38:14.073Z</time>
      </trkpt>
      <trkpt lat="45.56661" lon="6.06855">
        <ele>1650</ele>
        <time>2021-06-27T11:38:15.072Z</time>
      </trkpt>
      <trkpt lat="45.56662" lon="6.06855">
        <ele>1649</ele>
        <time>2021-06-27T11:38:16.073Z</time>
      </trkpt>
      <trkpt lat="45.56662" lon="6.06855">
        <ele>1649</ele>
        <time>2021-06-27T11:38:17.073Z</time>
      </trkpt>
      <trkpt lat="45.56662" lon="6.06855">
        <ele>1649</ele>
        <time>2021-06-27T11:38:18.073Z</time>
      </trkpt>
      <trkpt lat="45.56662" lon="6.06855">
        <ele>1649</ele>
        <time>2021-06-27T11:38:19.072Z</time>
      </trkpt>
      <trkpt lat="45.56662" lon="6.06855">
        <ele>1649</ele>
        <time>2021-06-27T11:38:20.072Z</time>
      </trkpt>
      <trkpt lat="45.56662" lon="6.06855">
        <ele>1649</ele>
        <time>2021-06-27T11:38:21.073Z</time>
      </trkpt>
      <trkpt lat="45.56661" lon="6.06855">
        <ele>1650</ele>
        <time>2021-06-27T11:38:22.073Z</time>
      </trkpt>
      <trkpt lat="45.56662" lon="6.06855">
        <ele>1650</ele>
        <time>2021-06-27T11:38:23.073Z</time>
      </trkpt>
      <trkpt lat="45.56661" lon="6.06855">
        <ele>1651</ele>
        <time>2021-06-27T11:38:24.072Z</time>
      </trkpt>
      <trkpt lat="45.56661" lon="6.06855">
        <ele>1651</ele>
        <time>2021-06-27T11:38:25.072Z</time>
      </trkpt>
      <trkpt lat="45.56661" lon="6.06855">
        <ele>1651</ele>
        <time>2021-06-27T11:38:26.073Z</time>
      </trkpt>
      <trkpt lat="45.56662" lon="6.06855">
        <ele>1651</ele>
        <time>2021-06-27T11:38:27.073Z</time>
      </trkpt>
      <trkpt lat="45.56662" lon="6.06855">
        <ele>1651</ele>
        <time>2021-06-27T11:38:28.073Z</time>
      </trkpt>
      <trkpt lat="45.56661" lon="6.06856">
        <ele>1650</ele>
        <time>2021-06-27T11:38:29.073Z</time>
      </trkpt>
      <trkpt lat="45.56661" lon="6.06856">
        <ele>1650</ele>
        <time>2021-06-27T11:38:30.072Z</time>
      </trkpt>
      <trkpt lat="45.56661" lon="6.06855">
        <ele>1649</ele>
        <time>2021-06-27T11:38:31.073Z</time>
      </trkpt>
      <trkpt lat="45.56661" lon="6.06855">
        <ele>1649</ele>
        <time>2021-06-27T11:38:32.073Z</time>
      </trkpt>
      <trkpt lat="45.56661" lon="6.06855">
        <ele>1648</ele>
        <time>2021-06-27T11:38:33.073Z</time>
      </trkpt>
      <trkpt lat="45.56661" lon="6.06855">
        <ele>1648</ele>
        <time>2021-06-27T11:38:34.073Z</time>
      </trkpt>
      <trkpt lat="45.56661" lon="6.06855">
        <ele>1648</ele>
        <time>2021-06-27T11:38:35.073Z</time>
      </trkpt>
      <trkpt lat="45.56661" lon="6.06855">
        <ele>1647</ele>
        <time>2021-06-27T11:38:36.073Z</time>
      </trkpt>
      <trkpt lat="45.56661" lon="6.06855">
        <ele>1647</ele>
        <time>2021-06-27T11:38:37.072Z</time>
      </trkpt>
      <trkpt lat="45.56661" lon="6.06855">
        <ele>1646</ele>
        <time>2021-06-27T11:38:38.073Z</time>
      </trkpt>
      <trkpt lat="45.56661" lon="6.06855">
        <ele>1646</ele>
        <time>2021-06-27T11:38:39.073Z</time>
      </trkpt>
      <trkpt lat="45.56661" lon="6.06854">
        <ele>1646</ele>
        <time>2021-06-27T11:38:40.073Z</time>
      </trkpt>
      <trkpt lat="45.56661" lon="6.06854">
        <ele>1646</ele>
        <time>2021-06-27T11:38:41.073Z</time>
      </trkpt>
      <trkpt lat="45.56661" lon="6.06854">
        <ele>1646</ele>
        <time>2021-06-27T11:38:42.072Z</time>
      </trkpt>
      <trkpt lat="45.56661" lon="6.06854">
        <ele>1646</ele>
        <time>2021-06-27T11:38:43.073Z</time>
      </trkpt>
      <trkpt lat="45.5666" lon="6.06853">
        <ele>1646</ele>
        <time>2021-06-27T11:38:44.073Z</time>
      </trkpt>
      <trkpt lat="45.56661" lon="6.06853">
        <ele>1646</ele>
        <time>2021-06-27T11:38:45.072Z</time>
      </trkpt>
      <trkpt lat="45.56661" lon="6.06853">
        <ele>1646</ele>
        <time>2021-06-27T11:38:46.073Z</time>
      </trkpt>
      <trkpt lat="45.56661" lon="6.06853">
        <ele>1646</ele>
        <time>2021-06-27T11:38:47.073Z</time>
      </trkpt>
      <trkpt lat="45.56661" lon="6.06853">
        <ele>1646</ele>
        <time>2021-06-27T11:38:48.073Z</time>
      </trkpt>
      <trkpt lat="45.56661" lon="6.06853">
        <ele>1646</ele>
        <time>2021-06-27T11:38:49.073Z</time>
      </trkpt>
      <trkpt lat="45.56661" lon="6.06853">
        <ele>1646</ele>
        <time>2021-06-27T11:38:50.073Z</time>
      </trkpt>
      <trkpt lat="45.5666" lon="6.06853">
        <ele>1646</ele>
        <time>2021-06-27T11:38:51.073Z</time>
      </trkpt>
      <trkpt lat="45.5666" lon="6.06853">
        <ele>1645</ele>
        <time>2021-06-27T11:38:52.073Z</time>
      </trkpt>
      <trkpt lat="45.5666" lon="6.06852">
        <ele>1645</ele>
        <time>2021-06-27T11:38:53.072Z</time>
      </trkpt>
      <trkpt lat="45.56661" lon="6.06852">
        <ele>1645</ele>
        <time>2021-06-27T11:38:54.073Z</time>
      </trkpt>
      <trkpt lat="45.56661" lon="6.06852">
        <ele>1645</ele>
        <time>2021-06-27T11:38:55.073Z</time>
      </trkpt>
      <trkpt lat="45.56661" lon="6.06851">
        <ele>1645</ele>
        <time>2021-06-27T11:38:56.073Z</time>
      </trkpt>
      <trkpt lat="45.56661" lon="6.06851">
        <ele>1645</ele>
        <time>2021-06-27T11:38:57.073Z</time>
      </trkpt>
      <trkpt lat="45.56661" lon="6.06851">
        <ele>1645</ele>
        <time>2021-06-27T11:38:58.073Z</time>
      </trkpt>
      <trkpt lat="45.56662" lon="6.06851">
        <ele>1646</ele>
        <time>2021-06-27T11:38:59.073Z</time>
      </trkpt>
      <trkpt lat="45.56661" lon="6.06851">
        <ele>1647</ele>
        <time>2021-06-27T11:39:00.073Z</time>
      </trkpt>
      <trkpt lat="45.56661" lon="6.06851">
        <ele>1647</ele>
        <time>2021-06-27T11:39:01.073Z</time>
      </trkpt>
      <trkpt lat="45.56661" lon="6.06851">
        <ele>1648</ele>
        <time>2021-06-27T11:39:02.073Z</time>
      </trkpt>
      <trkpt lat="45.56661" lon="6.06851">
        <ele>1648</ele>
        <time>2021-06-27T11:39:03.073Z</time>
      </trkpt>
      <trkpt lat="45.56661" lon="6.06851">
        <ele>1648</ele>
        <time>2021-06-27T11:39:04.073Z</time>
      </trkpt>
      <trkpt lat="45.56661" lon="6.06851">
        <ele>1648</ele>
        <time>2021-06-27T11:39:05.073Z</time>
      </trkpt>
      <trkpt lat="45.56661" lon="6.06852">
        <ele>1648</ele>
        <time>2021-06-27T11:39:06.073Z</time>
      </trkpt>
      <trkpt lat="45.56662" lon="6.06852">
        <ele>1648</ele>
        <time>2021-06-27T11:39:07.073Z</time>
      </trkpt>
      <trkpt lat="45.56662" lon="6.06852">
        <ele>1648</ele>
        <time>2021-06-27T11:39:08.072Z</time>
      </trkpt>
      <trkpt lat="45.56662" lon="6.06853">
        <ele>1647</ele>
        <time>2021-06-27T11:39:09.073Z</time>
      </trkpt>
      <trkpt lat="45.56662" lon="6.06853">
        <ele>1647</ele>
        <time>2021-06-27T11:39:10.073Z</time>
      </trkpt>
      <trkpt lat="45.56662" lon="6.06853">
        <ele>1647</ele>
        <time>2021-06-27T11:39:11.073Z</time>
      </trkpt>
      <trkpt lat="45.56661" lon="6.06853">
        <ele>1648</ele>
        <time>2021-06-27T11:39:12.073Z</time>
      </trkpt>
      <trkpt lat="45.56661" lon="6.06853">
        <ele>1648</ele>
        <time>2021-06-27T11:39:13.072Z</time>
      </trkpt>
      <trkpt lat="45.56662" lon="6.06854">
        <ele>1649</ele>
        <time>2021-06-27T11:39:14.073Z</time>
      </trkpt>
      <trkpt lat="45.56662" lon="6.06854">
        <ele>1649</ele>
        <time>2021-06-27T11:39:15.073Z</time>
      </trkpt>
      <trkpt lat="45.56661" lon="6.06853">
        <ele>1649</ele>
        <time>2021-06-27T11:39:16.072Z</time>
      </trkpt>
      <trkpt lat="45.56661" lon="6.06853">
        <ele>1649</ele>
        <time>2021-06-27T11:39:17.073Z</time>
      </trkpt>
      <trkpt lat="45.56661" lon="6.06853">
        <ele>1649</ele>
        <time>2021-06-27T11:39:18.073Z</time>
      </trkpt>
      <trkpt lat="45.56661" lon="6.06854">
        <ele>1650</ele>
        <time>2021-06-27T11:39:19.073Z</time>
      </trkpt>
      <trkpt lat="45.56661" lon="6.06854">
        <ele>1650</ele>
        <time>2021-06-27T11:39:20.073Z</time>
      </trkpt>
      <trkpt lat="45.56661" lon="6.06854">
        <ele>1650</ele>
        <time>2021-06-27T11:39:21.073Z</time>
      </trkpt>
      <trkpt lat="45.56661" lon="6.06854">
        <ele>1649</ele>
        <time>2021-06-27T11:39:22.073Z</time>
      </trkpt>
      <trkpt lat="45.56661" lon="6.06855">
        <ele>1648</ele>
        <time>2021-06-27T11:39:23.073Z</time>
      </trkpt>
      <trkpt lat="45.56661" lon="6.06855">
        <ele>1647</ele>
        <time>2021-06-27T11:39:24.073Z</time>
      </trkpt>
      <trkpt lat="45.56661" lon="6.06855">
        <ele>1647</ele>
        <time>2021-06-27T11:39:25.073Z</time>
      </trkpt>
      <trkpt lat="45.56661" lon="6.06855">
        <ele>1646</ele>
        <time>2021-06-27T11:39:26.073Z</time>
      </trkpt>
      <trkpt lat="45.56661" lon="6.06855">
        <ele>1646</ele>
        <time>2021-06-27T11:39:27.073Z</time>
      </trkpt>
      <trkpt lat="45.56661" lon="6.06856">
        <ele>1645</ele>
        <time>2021-06-27T11:39:28.073Z</time>
      </trkpt>
      <trkpt lat="45.56661" lon="6.06856">
        <ele>1645</ele>
        <time>2021-06-27T11:39:29.072Z</time>
      </trkpt>
      <trkpt lat="45.56662" lon="6.06856">
        <ele>1645</ele>
        <time>2021-06-27T11:39:30.073Z</time>
      </trkpt>
      <trkpt lat="45.56663" lon="6.06856">
        <ele>1644</ele>
        <time>2021-06-27T11:39:31.073Z</time>
      </trkpt>
      <trkpt lat="45.56663" lon="6.06856">
        <ele>1644</ele>
        <time>2021-06-27T11:39:32.073Z</time>
      </trkpt>
      <trkpt lat="45.56663" lon="6.06857">
        <ele>1644</ele>
        <time>2021-06-27T11:39:33.073Z</time>
      </trkpt>
      <trkpt lat="45.56663" lon="6.06856">
        <ele>1645</ele>
        <time>2021-06-27T11:39:34.072Z</time>
      </trkpt>
      <trkpt lat="45.56662" lon="6.06856">
        <ele>1645</ele>
        <time>2021-06-27T11:39:35.073Z</time>
      </trkpt>
      <trkpt lat="45.56662" lon="6.06856">
        <ele>1645</ele>
        <time>2021-06-27T11:39:36.072Z</time>
      </trkpt>
      <trkpt lat="45.56662" lon="6.06856">
        <ele>1645</ele>
        <time>2021-06-27T11:39:37.072Z</time>
      </trkpt>
      <trkpt lat="45.56662" lon="6.06856">
        <ele>1645</ele>
        <time>2021-06-27T11:39:38.073Z</time>
      </trkpt>
      <trkpt lat="45.56662" lon="6.06855">
        <ele>1645</ele>
        <time>2021-06-27T11:39:39.072Z</time>
      </trkpt>
      <trkpt lat="45.56662" lon="6.06855">
        <ele>1645</ele>
        <time>2021-06-27T11:39:40.072Z</time>
      </trkpt>
      <trkpt lat="45.56662" lon="6.06855">
        <ele>1645</ele>
        <time>2021-06-27T11:39:41.073Z</time>
      </trkpt>
      <trkpt lat="45.56662" lon="6.06855">
        <ele>1645</ele>
        <time>2021-06-27T11:39:42.073Z</time>
      </trkpt>
      <trkpt lat="45.56662" lon="6.06855">
        <ele>1645</ele>
        <time>2021-06-27T11:39:43.073Z</time>
      </trkpt>
      <trkpt lat="45.56662" lon="6.06855">
        <ele>1644</ele>
        <time>2021-06-27T11:39:44.072Z</time>
      </trkpt>
      <trkpt lat="45.56662" lon="6.06855">
        <ele>1644</ele>
        <time>2021-06-27T11:39:45.072Z</time>
      </trkpt>
      <trkpt lat="45.56662" lon="6.06855">
        <ele>1644</ele>
        <time>2021-06-27T11:39:46.073Z</time>
      </trkpt>
      <trkpt lat="45.56662" lon="6.06855">
        <ele>1644</ele>
        <time>2021-06-27T11:39:47.073Z</time>
      </trkpt>
      <trkpt lat="45.56662" lon="6.06855">
        <ele>1644</ele>
        <time>2021-06-27T11:39:48.073Z</time>
      </trkpt>
      <trkpt lat="45.56662" lon="6.06855">
        <ele>1645</ele>
        <time>2021-06-27T11:39:49.073Z</time>
      </trkpt>
      <trkpt lat="45.56662" lon="6.06855">
        <ele>1645</ele>
        <time>2021-06-27T11:39:50.073Z</time>
      </trkpt>
      <trkpt lat="45.56662" lon="6.06854">
        <ele>1646</ele>
        <time>2021-06-27T11:39:51.073Z</time>
      </trkpt>
      <trkpt lat="45.56662" lon="6.06854">
        <ele>1646</ele>
        <time>2021-06-27T11:39:52.073Z</time>
      </trkpt>
      <trkpt lat="45.56662" lon="6.06854">
        <ele>1647</ele>
        <time>2021-06-27T11:39:53.073Z</time>
      </trkpt>
      <trkpt lat="45.56662" lon="6.06854">
        <ele>1648</ele>
        <time>2021-06-27T11:39:54.073Z</time>
      </trkpt>
      <trkpt lat="45.56662" lon="6.06854">
        <ele>1648</ele>
        <time>2021-06-27T11:39:55.073Z</time>
      </trkpt>
      <trkpt lat="45.56662" lon="6.06854">
        <ele>1649</ele>
        <time>2021-06-27T11:39:56.072Z</time>
      </trkpt>
      <trkpt lat="45.56663" lon="6.06854">
        <ele>1649</ele>
        <time>2021-06-27T11:39:57.072Z</time>
      </trkpt>
      <trkpt lat="45.56662" lon="6.06854">
        <ele>1649</ele>
        <time>2021-06-27T11:39:58.072Z</time>
      </trkpt>
      <trkpt lat="45.56663" lon="6.06855">
        <ele>1648</ele>
        <time>2021-06-27T11:39:59.073Z</time>
      </trkpt>
      <trkpt lat="45.56662" lon="6.06855">
        <ele>1648</ele>
        <time>2021-06-27T11:40:00.073Z</time>
      </trkpt>
      <trkpt lat="45.56662" lon="6.06855">
        <ele>1647</ele>
        <time>2021-06-27T11:40:01.072Z</time>
      </trkpt>
      <trkpt lat="45.56662" lon="6.06855">
        <ele>1647</ele>
        <time>2021-06-27T11:40:02.072Z</time>
      </trkpt>
      <trkpt lat="45.56662" lon="6.06854">
        <ele>1646</ele>
        <time>2021-06-27T11:40:03.073Z</time>
      </trkpt>
      <trkpt lat="45.56662" lon="6.06854">
        <ele>1646</ele>
        <time>2021-06-27T11:40:04.073Z</time>
      </trkpt>
      <trkpt lat="45.56662" lon="6.06855">
        <ele>1646</ele>
        <time>2021-06-27T11:40:05.073Z</time>
      </trkpt>
      <trkpt lat="45.56662" lon="6.06855">
        <ele>1646</ele>
        <time>2021-06-27T11:40:06.073Z</time>
      </trkpt>
      <trkpt lat="45.56662" lon="6.06855">
        <ele>1645</ele>
        <time>2021-06-27T11:40:07.073Z</time>
      </trkpt>
      <trkpt lat="45.56662" lon="6.06855">
        <ele>1645</ele>
        <time>2021-06-27T11:40:08.073Z</time>
      </trkpt>
      <trkpt lat="45.56662" lon="6.06855">
        <ele>1646</ele>
        <time>2021-06-27T11:40:09.073Z</time>
      </trkpt>
      <trkpt lat="45.56662" lon="6.06855">
        <ele>1646</ele>
        <time>2021-06-27T11:40:10.073Z</time>
      </trkpt>
      <trkpt lat="45.56662" lon="6.06855">
        <ele>1646</ele>
        <time>2021-06-27T11:40:11.073Z</time>
      </trkpt>
      <trkpt lat="45.56662" lon="6.06855">
        <ele>1646</ele>
        <time>2021-06-27T11:40:12.072Z</time>
      </trkpt>
      <trkpt lat="45.56662" lon="6.06855">
        <ele>1645</ele>
        <time>2021-06-27T11:40:13.073Z</time>
      </trkpt>
      <trkpt lat="45.56662" lon="6.06855">
        <ele>1645</ele>
        <time>2021-06-27T11:40:14.073Z</time>
      </trkpt>
      <trkpt lat="45.56662" lon="6.06855">
        <ele>1645</ele>
        <time>2021-06-27T11:40:15.073Z</time>
      </trkpt>
      <trkpt lat="45.56662" lon="6.06855">
        <ele>1645</ele>
        <time>2021-06-27T11:40:16.073Z</time>
      </trkpt>
      <trkpt lat="45.56662" lon="6.06855">
        <ele>1646</ele>
        <time>2021-06-27T11:40:17.072Z</time>
      </trkpt>
      <trkpt lat="45.56662" lon="6.06855">
        <ele>1646</ele>
        <time>2021-06-27T11:40:18.073Z</time>
      </trkpt>
      <trkpt lat="45.56662" lon="6.06855">
        <ele>1646</ele>
        <time>2021-06-27T11:40:19.073Z</time>
      </trkpt>
      <trkpt lat="45.56662" lon="6.06855">
        <ele>1646</ele>
        <time>2021-06-27T11:40:20.073Z</time>
      </trkpt>
      <trkpt lat="45.56662" lon="6.06854">
        <ele>1646</ele>
        <time>2021-06-27T11:40:21.072Z</time>
      </trkpt>
      <trkpt lat="45.56662" lon="6.06854">
        <ele>1646</ele>
        <time>2021-06-27T11:40:22.073Z</time>
      </trkpt>
      <trkpt lat="45.56662" lon="6.06854">
        <ele>1646</ele>
        <time>2021-06-27T11:40:23.072Z</time>
      </trkpt>
      <trkpt lat="45.56662" lon="6.06854">
        <ele>1647</ele>
        <time>2021-06-27T11:40:24.073Z</time>
      </trkpt>
      <trkpt lat="45.56662" lon="6.06854">
        <ele>1647</ele>
        <time>2021-06-27T11:40:25.073Z</time>
      </trkpt>
      <trkpt lat="45.56662" lon="6.06853">
        <ele>1647</ele>
        <time>2021-06-27T11:40:26.073Z</time>
      </trkpt>
      <trkpt lat="45.56662" lon="6.06853">
        <ele>1647</ele>
        <time>2021-06-27T11:40:27.073Z</time>
      </trkpt>
      <trkpt lat="45.56662" lon="6.06853">
        <ele>1648</ele>
        <time>2021-06-27T11:40:28.072Z</time>
      </trkpt>
      <trkpt lat="45.56662" lon="6.06853">
        <ele>1648</ele>
        <time>2021-06-27T11:40:29.073Z</time>
      </trkpt>
      <trkpt lat="45.56662" lon="6.06853">
        <ele>1648</ele>
        <time>2021-06-27T11:40:30.073Z</time>
      </trkpt>
      <trkpt lat="45.56661" lon="6.06853">
        <ele>1649</ele>
        <time>2021-06-27T11:40:31.073Z</time>
      </trkpt>
      <trkpt lat="45.56662" lon="6.06853">
        <ele>1649</ele>
        <time>2021-06-27T11:40:32.073Z</time>
      </trkpt>
      <trkpt lat="45.56661" lon="6.06853">
        <ele>1650</ele>
        <time>2021-06-27T11:40:33.073Z</time>
      </trkpt>
      <trkpt lat="45.56661" lon="6.06853">
        <ele>1650</ele>
        <time>2021-06-27T11:40:34.073Z</time>
      </trkpt>
      <trkpt lat="45.56661" lon="6.06853">
        <ele>1650</ele>
        <time>2021-06-27T11:40:35.073Z</time>
      </trkpt>
      <trkpt lat="45.56661" lon="6.06853">
        <ele>1651</ele>
        <time>2021-06-27T11:40:36.072Z</time>
      </trkpt>
      <trkpt lat="45.56661" lon="6.06853">
        <ele>1651</ele>
        <time>2021-06-27T11:40:37.073Z</time>
      </trkpt>
      <trkpt lat="45.56661" lon="6.06853">
        <ele>1651</ele>
        <time>2021-06-27T11:40:38.073Z</time>
      </trkpt>
      <trkpt lat="45.56661" lon="6.06853">
        <ele>1651</ele>
        <time>2021-06-27T11:40:39.073Z</time>
      </trkpt>
      <trkpt lat="45.56661" lon="6.06853">
        <ele>1651</ele>
        <time>2021-06-27T11:40:40.073Z</time>
      </trkpt>
      <trkpt lat="45.56661" lon="6.06854">
        <ele>1651</ele>
        <time>2021-06-27T11:40:41.073Z</time>
      </trkpt>
      <trkpt lat="45.56662" lon="6.06854">
        <ele>1651</ele>
        <time>2021-06-27T11:40:42.073Z</time>
      </trkpt>
      <trkpt lat="45.56662" lon="6.06854">
        <ele>1650</ele>
        <time>2021-06-27T11:40:43.073Z</time>
      </trkpt>
      <trkpt lat="45.56662" lon="6.06854">
        <ele>1650</ele>
        <time>2021-06-27T11:40:44.072Z</time>
      </trkpt>
      <trkpt lat="45.56662" lon="6.06854">
        <ele>1650</ele>
        <time>2021-06-27T11:40:45.073Z</time>
      </trkpt>
      <trkpt lat="45.56662" lon="6.06854">
        <ele>1650</ele>
        <time>2021-06-27T11:40:46.073Z</time>
      </trkpt>
      <trkpt lat="45.56663" lon="6.06854">
        <ele>1650</ele>
        <time>2021-06-27T11:40:47.073Z</time>
      </trkpt>
      <trkpt lat="45.56663" lon="6.06854">
        <ele>1650</ele>
        <time>2021-06-27T11:40:48.072Z</time>
      </trkpt>
      <trkpt lat="45.56662" lon="6.06854">
        <ele>1650</ele>
        <time>2021-06-27T11:40:49.072Z</time>
      </trkpt>
      <trkpt lat="45.56662" lon="6.06854">
        <ele>1650</ele>
        <time>2021-06-27T11:40:50.073Z</time>
      </trkpt>
      <trkpt lat="45.56662" lon="6.06854">
        <ele>1650</ele>
        <time>2021-06-27T11:40:51.073Z</time>
      </trkpt>
      <trkpt lat="45.56662" lon="6.06854">
        <ele>1650</ele>
        <time>2021-06-27T11:40:52.072Z</time>
      </trkpt>
      <trkpt lat="45.56662" lon="6.06854">
        <ele>1650</ele>
        <time>2021-06-27T11:40:53.073Z</time>
      </trkpt>
      <trkpt lat="45.56662" lon="6.06854">
        <ele>1650</ele>
        <time>2021-06-27T11:40:54.072Z</time>
      </trkpt>
      <trkpt lat="45.56662" lon="6.06854">
        <ele>1650</ele>
        <time>2021-06-27T11:40:55.073Z</time>
      </trkpt>
      <trkpt lat="45.56662" lon="6.06854">
        <ele>1650</ele>
        <time>2021-06-27T11:40:56.073Z</time>
      </trkpt>
      <trkpt lat="45.56662" lon="6.06854">
        <ele>1650</ele>
        <time>2021-06-27T11:40:57.073Z</time>
      </trkpt>
      <trkpt lat="45.56662" lon="6.06854">
        <ele>1650</ele>
        <time>2021-06-27T11:40:58.073Z</time>
      </trkpt>
      <trkpt lat="45.56662" lon="6.06854">
        <ele>1650</ele>
        <time>2021-06-27T11:40:59.072Z</time>
      </trkpt>
      <trkpt lat="45.56662" lon="6.06854">
        <ele>1650</ele>
        <time>2021-06-27T11:41:00.072Z</time>
      </trkpt>
      <trkpt lat="45.56661" lon="6.06855">
        <ele>1651</ele>
        <time>2021-06-27T11:41:01.073Z</time>
      </trkpt>
      <trkpt lat="45.56661" lon="6.06855">
        <ele>1651</ele>
        <time>2021-06-27T11:41:02.073Z</time>
      </trkpt>
      <trkpt lat="45.56661" lon="6.06855">
        <ele>1651</ele>
        <time>2021-06-27T11:41:03.073Z</time>
      </trkpt>
      <trkpt lat="45.56661" lon="6.06855">
        <ele>1651</ele>
        <time>2021-06-27T11:41:04.073Z</time>
      </trkpt>
      <trkpt lat="45.56661" lon="6.06855">
        <ele>1650</ele>
        <time>2021-06-27T11:41:05.073Z</time>
      </trkpt>
      <trkpt lat="45.56661" lon="6.06855">
        <ele>1650</ele>
        <time>2021-06-27T11:41:06.073Z</time>
      </trkpt>
      <trkpt lat="45.56661" lon="6.06855">
        <ele>1650</ele>
        <time>2021-06-27T11:41:07.073Z</time>
      </trkpt>
      <trkpt lat="45.56661" lon="6.06855">
        <ele>1650</ele>
        <time>2021-06-27T11:41:08.072Z</time>
      </trkpt>
      <trkpt lat="45.56661" lon="6.06855">
        <ele>1651</ele>
        <time>2021-06-27T11:41:09.073Z</time>
      </trkpt>
      <trkpt lat="45.56661" lon="6.06855">
        <ele>1651</ele>
        <time>2021-06-27T11:41:10.073Z</time>
      </trkpt>
      <trkpt lat="45.56661" lon="6.06855">
        <ele>1651</ele>
        <time>2021-06-27T11:41:11.073Z</time>
      </trkpt>
      <trkpt lat="45.56661" lon="6.06855">
        <ele>1651</ele>
        <time>2021-06-27T11:41:12.073Z</time>
      </trkpt>
      <trkpt lat="45.56662" lon="6.06855">
        <ele>1652</ele>
        <time>2021-06-27T11:41:13.072Z</time>
      </trkpt>
      <trkpt lat="45.56662" lon="6.06855">
        <ele>1652</ele>
        <time>2021-06-27T11:41:14.073Z</time>
      </trkpt>
      <trkpt lat="45.56661" lon="6.06855">
        <ele>1653</ele>
        <time>2021-06-27T11:41:15.072Z</time>
      </trkpt>
      <trkpt lat="45.56662" lon="6.06855">
        <ele>1653</ele>
        <time>2021-06-27T11:41:16.072Z</time>
      </trkpt>
      <trkpt lat="45.56662" lon="6.06855">
        <ele>1653</ele>
        <time>2021-06-27T11:41:17.073Z</time>
      </trkpt>
      <trkpt lat="45.56662" lon="6.06855">
        <ele>1652</ele>
        <time>2021-06-27T11:41:18.072Z</time>
      </trkpt>
      <trkpt lat="45.56662" lon="6.06855">
        <ele>1652</ele>
        <time>2021-06-27T11:41:19.073Z</time>
      </trkpt>
      <trkpt lat="45.56662" lon="6.06855">
        <ele>1651</ele>
        <time>2021-06-27T11:41:20.073Z</time>
      </trkpt>
      <trkpt lat="45.56662" lon="6.06855">
        <ele>1651</ele>
        <time>2021-06-27T11:41:21.072Z</time>
      </trkpt>
      <trkpt lat="45.56662" lon="6.06855">
        <ele>1651</ele>
        <time>2021-06-27T11:41:22.072Z</time>
      </trkpt>
      <trkpt lat="45.56661" lon="6.06854">
        <ele>1650</ele>
        <time>2021-06-27T11:41:23.072Z</time>
      </trkpt>
      <trkpt lat="45.56661" lon="6.06854">
        <ele>1650</ele>
        <time>2021-06-27T11:41:24.072Z</time>
      </trkpt>
      <trkpt lat="45.56661" lon="6.06855">
        <ele>1650</ele>
        <time>2021-06-27T11:41:25.073Z</time>
      </trkpt>
      <trkpt lat="45.56661" lon="6.06855">
        <ele>1650</ele>
        <time>2021-06-27T11:41:26.072Z</time>
      </trkpt>
      <trkpt lat="45.56661" lon="6.06855">
        <ele>1651</ele>
        <time>2021-06-27T11:41:27.072Z</time>
      </trkpt>
      <trkpt lat="45.56661" lon="6.06855">
        <ele>1651</ele>
        <time>2021-06-27T11:41:28.072Z</time>
      </trkpt>
      <trkpt lat="45.56661" lon="6.06855">
        <ele>1651</ele>
        <time>2021-06-27T11:41:29.073Z</time>
      </trkpt>
      <trkpt lat="45.56661" lon="6.06855">
        <ele>1651</ele>
        <time>2021-06-27T11:41:30.073Z</time>
      </trkpt>
      <trkpt lat="45.56661" lon="6.06855">
        <ele>1651</ele>
        <time>2021-06-27T11:41:31.072Z</time>
      </trkpt>
      <trkpt lat="45.56661" lon="6.06855">
        <ele>1650</ele>
        <time>2021-06-27T11:41:32.072Z</time>
      </trkpt>
      <trkpt lat="45.56661" lon="6.06855">
        <ele>1650</ele>
        <time>2021-06-27T11:41:33.073Z</time>
      </trkpt>
      <trkpt lat="45.56661" lon="6.06855">
        <ele>1651</ele>
        <time>2021-06-27T11:41:34.073Z</time>
      </trkpt>
      <trkpt lat="45.5666" lon="6.06856">
        <ele>1651</ele>
        <time>2021-06-27T11:41:35.072Z</time>
      </trkpt>
      <trkpt lat="45.56661" lon="6.06856">
        <ele>1651</ele>
        <time>2021-06-27T11:41:36.073Z</time>
      </trkpt>
      <trkpt lat="45.56661" lon="6.06856">
        <ele>1651</ele>
        <time>2021-06-27T11:41:37.072Z</time>
      </trkpt>
      <trkpt lat="45.56661" lon="6.06856">
        <ele>1651</ele>
        <time>2021-06-27T11:41:38.073Z</time>
      </trkpt>
      <trkpt lat="45.56661" lon="6.06856">
        <ele>1651</ele>
        <time>2021-06-27T11:41:39.073Z</time>
      </trkpt>
      <trkpt lat="45.5666" lon="6.06856">
        <ele>1651</ele>
        <time>2021-06-27T11:41:40.072Z</time>
      </trkpt>
      <trkpt lat="45.5666" lon="6.06856">
        <ele>1651</ele>
        <time>2021-06-27T11:41:41.072Z</time>
      </trkpt>
      <trkpt lat="45.5666" lon="6.06855">
        <ele>1651</ele>
        <time>2021-06-27T11:41:42.073Z</time>
      </trkpt>
      <trkpt lat="45.5666" lon="6.06855">
        <ele>1651</ele>
        <time>2021-06-27T11:41:43.072Z</time>
      </trkpt>
      <trkpt lat="45.56661" lon="6.06855">
        <ele>1651</ele>
        <time>2021-06-27T11:41:44.072Z</time>
      </trkpt>
      <trkpt lat="45.56661" lon="6.06855">
        <ele>1651</ele>
        <time>2021-06-27T11:41:45.072Z</time>
      </trkpt>
      <trkpt lat="45.56661" lon="6.06855">
        <ele>1651</ele>
        <time>2021-06-27T11:41:46.073Z</time>
      </trkpt>
      <trkpt lat="45.56661" lon="6.06854">
        <ele>1651</ele>
        <time>2021-06-27T11:41:47.073Z</time>
      </trkpt>
      <trkpt lat="45.56661" lon="6.06854">
        <ele>1651</ele>
        <time>2021-06-27T11:41:48.073Z</time>
      </trkpt>
      <trkpt lat="45.56661" lon="6.06854">
        <ele>1651</ele>
        <time>2021-06-27T11:41:49.073Z</time>
      </trkpt>
      <trkpt lat="45.56661" lon="6.06855">
        <ele>1651</ele>
        <time>2021-06-27T11:41:50.073Z</time>
      </trkpt>
      <trkpt lat="45.56661" lon="6.06855">
        <ele>1650</ele>
        <time>2021-06-27T11:41:51.072Z</time>
      </trkpt>
      <trkpt lat="45.56662" lon="6.06854">
        <ele>1650</ele>
        <time>2021-06-27T11:41:52.073Z</time>
      </trkpt>
      <trkpt lat="45.56662" lon="6.06854">
        <ele>1650</ele>
        <time>2021-06-27T11:41:53.073Z</time>
      </trkpt>
      <trkpt lat="45.56661" lon="6.06854">
        <ele>1650</ele>
        <time>2021-06-27T11:41:54.073Z</time>
      </trkpt>
      <trkpt lat="45.56661" lon="6.06854">
        <ele>1651</ele>
        <time>2021-06-27T11:41:55.073Z</time>
      </trkpt>
      <trkpt lat="45.56661" lon="6.06854">
        <ele>1650</ele>
        <time>2021-06-27T11:41:56.073Z</time>
      </trkpt>
      <trkpt lat="45.56662" lon="6.06854">
        <ele>1650</ele>
        <time>2021-06-27T11:41:57.072Z</time>
      </trkpt>
      <trkpt lat="45.56662" lon="6.06854">
        <ele>1650</ele>
        <time>2021-06-27T11:41:58.073Z</time>
      </trkpt>
      <trkpt lat="45.56662" lon="6.06854">
        <ele>1651</ele>
        <time>2021-06-27T11:41:59.073Z</time>
      </trkpt>
      <trkpt lat="45.56662" lon="6.06854">
        <ele>1651</ele>
        <time>2021-06-27T11:42:00.073Z</time>
      </trkpt>
      <trkpt lat="45.56662" lon="6.06854">
        <ele>1651</ele>
        <time>2021-06-27T11:42:01.073Z</time>
      </trkpt>
      <trkpt lat="45.56662" lon="6.06854">
        <ele>1651</ele>
        <time>2021-06-27T11:42:02.073Z</time>
      </trkpt>
      <trkpt lat="45.56662" lon="6.06854">
        <ele>1652</ele>
        <time>2021-06-27T11:42:03.073Z</time>
      </trkpt>
      <trkpt lat="45.56662" lon="6.06854">
        <ele>1652</ele>
        <time>2021-06-27T11:42:04.073Z</time>
      </trkpt>
      <trkpt lat="45.56662" lon="6.06854">
        <ele>1653</ele>
        <time>2021-06-27T11:42:05.073Z</time>
      </trkpt>
      <trkpt lat="45.56663" lon="6.06854">
        <ele>1653</ele>
        <time>2021-06-27T11:42:06.072Z</time>
      </trkpt>
      <trkpt lat="45.56663" lon="6.06854">
        <ele>1653</ele>
        <time>2021-06-27T11:42:07.073Z</time>
      </trkpt>
      <trkpt lat="45.56663" lon="6.06854">
        <ele>1653</ele>
        <time>2021-06-27T11:42:08.073Z</time>
      </trkpt>
      <trkpt lat="45.56663" lon="6.06854">
        <ele>1653</ele>
        <time>2021-06-27T11:42:09.073Z</time>
      </trkpt>
      <trkpt lat="45.56663" lon="6.06854">
        <ele>1652</ele>
        <time>2021-06-27T11:42:10.072Z</time>
      </trkpt>
      <trkpt lat="45.56663" lon="6.06855">
        <ele>1652</ele>
        <time>2021-06-27T11:42:11.072Z</time>
      </trkpt>
      <trkpt lat="45.56664" lon="6.06855">
        <ele>1651</ele>
        <time>2021-06-27T11:42:12.073Z</time>
      </trkpt>
      <trkpt lat="45.56664" lon="6.06855">
        <ele>1651</ele>
        <time>2021-06-27T11:42:13.072Z</time>
      </trkpt>
      <trkpt lat="45.56664" lon="6.06855">
        <ele>1651</ele>
        <time>2021-06-27T11:42:14.073Z</time>
      </trkpt>
      <trkpt lat="45.56664" lon="6.06855">
        <ele>1651</ele>
        <time>2021-06-27T11:42:15.072Z</time>
      </trkpt>
      <trkpt lat="45.56664" lon="6.06855">
        <ele>1650</ele>
        <time>2021-06-27T11:42:16.073Z</time>
      </trkpt>
      <trkpt lat="45.56664" lon="6.06855">
        <ele>1650</ele>
        <time>2021-06-27T11:42:17.073Z</time>
      </trkpt>
      <trkpt lat="45.56664" lon="6.06855">
        <ele>1650</ele>
        <time>2021-06-27T11:42:18.073Z</time>
      </trkpt>
      <trkpt lat="45.56664" lon="6.06855">
        <ele>1649</ele>
        <time>2021-06-27T11:42:19.072Z</time>
      </trkpt>
      <trkpt lat="45.56664" lon="6.06855">
        <ele>1649</ele>
        <time>2021-06-27T11:42:20.073Z</time>
      </trkpt>
      <trkpt lat="45.56664" lon="6.06855">
        <ele>1648</ele>
        <time>2021-06-27T11:42:21.072Z</time>
      </trkpt>
      <trkpt lat="45.56664" lon="6.06855">
        <ele>1647</ele>
        <time>2021-06-27T11:42:22.073Z</time>
      </trkpt>
      <trkpt lat="45.56664" lon="6.06855">
        <ele>1647</ele>
        <time>2021-06-27T11:42:23.073Z</time>
      </trkpt>
      <trkpt lat="45.56664" lon="6.06855">
        <ele>1646</ele>
        <time>2021-06-27T11:42:24.073Z</time>
      </trkpt>
      <trkpt lat="45.56664" lon="6.06854">
        <ele>1646</ele>
        <time>2021-06-27T11:42:25.072Z</time>
      </trkpt>
      <trkpt lat="45.56664" lon="6.06854">
        <ele>1646</ele>
        <time>2021-06-27T11:42:26.073Z</time>
      </trkpt>
      <trkpt lat="45.56664" lon="6.06854">
        <ele>1646</ele>
        <time>2021-06-27T11:42:27.073Z</time>
      </trkpt>
      <trkpt lat="45.56664" lon="6.06855">
        <ele>1646</ele>
        <time>2021-06-27T11:42:28.073Z</time>
      </trkpt>
      <trkpt lat="45.56664" lon="6.06854">
        <ele>1646</ele>
        <time>2021-06-27T11:42:29.073Z</time>
      </trkpt>
      <trkpt lat="45.56664" lon="6.06854">
        <ele>1647</ele>
        <time>2021-06-27T11:42:30.072Z</time>
      </trkpt>
      <trkpt lat="45.56664" lon="6.06854">
        <ele>1647</ele>
        <time>2021-06-27T11:42:31.073Z</time>
      </trkpt>
      <trkpt lat="45.56664" lon="6.06854">
        <ele>1648</ele>
        <time>2021-06-27T11:42:32.072Z</time>
      </trkpt>
      <trkpt lat="45.56664" lon="6.06854">
        <ele>1648</ele>
        <time>2021-06-27T11:42:33.073Z</time>
      </trkpt>
      <trkpt lat="45.56664" lon="6.06854">
        <ele>1649</ele>
        <time>2021-06-27T11:42:34.073Z</time>
      </trkpt>
      <trkpt lat="45.56664" lon="6.06854">
        <ele>1650</ele>
        <time>2021-06-27T11:42:35.073Z</time>
      </trkpt>
      <trkpt lat="45.56664" lon="6.06854">
        <ele>1650</ele>
        <time>2021-06-27T11:42:36.072Z</time>
      </trkpt>
      <trkpt lat="45.56663" lon="6.06854">
        <ele>1650</ele>
        <time>2021-06-27T11:42:37.072Z</time>
      </trkpt>
      <trkpt lat="45.56663" lon="6.06854">
        <ele>1649</ele>
        <time>2021-06-27T11:42:38.072Z</time>
      </trkpt>
      <trkpt lat="45.56663" lon="6.06853">
        <ele>1649</ele>
        <time>2021-06-27T11:42:39.073Z</time>
      </trkpt>
      <trkpt lat="45.56662" lon="6.06853">
        <ele>1648</ele>
        <time>2021-06-27T11:42:40.073Z</time>
      </trkpt>
      <trkpt lat="45.56662" lon="6.06853">
        <ele>1648</ele>
        <time>2021-06-27T11:42:41.072Z</time>
      </trkpt>
      <trkpt lat="45.56662" lon="6.06853">
        <ele>1648</ele>
        <time>2021-06-27T11:42:42.073Z</time>
      </trkpt>
      <trkpt lat="45.56662" lon="6.06853">
        <ele>1648</ele>
        <time>2021-06-27T11:42:43.073Z</time>
      </trkpt>
      <trkpt lat="45.56662" lon="6.06853">
        <ele>1648</ele>
        <time>2021-06-27T11:42:44.073Z</time>
      </trkpt>
      <trkpt lat="45.56663" lon="6.06853">
        <ele>1649</ele>
        <time>2021-06-27T11:42:45.072Z</time>
      </trkpt>
      <trkpt lat="45.56663" lon="6.06853">
        <ele>1649</ele>
        <time>2021-06-27T11:42:46.073Z</time>
      </trkpt>
      <trkpt lat="45.56663" lon="6.06853">
        <ele>1649</ele>
        <time>2021-06-27T11:42:47.073Z</time>
      </trkpt>
      <trkpt lat="45.56663" lon="6.06853">
        <ele>1649</ele>
        <time>2021-06-27T11:42:48.073Z</time>
      </trkpt>
      <trkpt lat="45.56664" lon="6.06854">
        <ele>1649</ele>
        <time>2021-06-27T11:42:49.073Z</time>
      </trkpt>
      <trkpt lat="45.56664" lon="6.06854">
        <ele>1649</ele>
        <time>2021-06-27T11:42:50.073Z</time>
      </trkpt>
      <trkpt lat="45.56664" lon="6.06854">
        <ele>1650</ele>
        <time>2021-06-27T11:42:51.073Z</time>
      </trkpt>
      <trkpt lat="45.56664" lon="6.06854">
        <ele>1650</ele>
        <time>2021-06-27T11:42:52.073Z</time>
      </trkpt>
      <trkpt lat="45.56664" lon="6.06854">
        <ele>1650</ele>
        <time>2021-06-27T11:42:53.073Z</time>
      </trkpt>
      <trkpt lat="45.56664" lon="6.06854">
        <ele>1650</ele>
        <time>2021-06-27T11:42:54.073Z</time>
      </trkpt>
      <trkpt lat="45.56664" lon="6.06854">
        <ele>1650</ele>
        <time>2021-06-27T11:42:55.072Z</time>
      </trkpt>
      <trkpt lat="45.56664" lon="6.06854">
        <ele>1651</ele>
        <time>2021-06-27T11:42:56.073Z</time>
      </trkpt>
      <trkpt lat="45.56664" lon="6.06855">
        <ele>1651</ele>
        <time>2021-06-27T11:42:57.072Z</time>
      </trkpt>
      <trkpt lat="45.56664" lon="6.06855">
        <ele>1651</ele>
        <time>2021-06-27T11:42:58.073Z</time>
      </trkpt>
      <trkpt lat="45.56665" lon="6.06855">
        <ele>1650</ele>
        <time>2021-06-27T11:42:59.073Z</time>
      </trkpt>
      <trkpt lat="45.56665" lon="6.06855">
        <ele>1650</ele>
        <time>2021-06-27T11:43:00.072Z</time>
      </trkpt>
      <trkpt lat="45.56665" lon="6.06855">
        <ele>1651</ele>
        <time>2021-06-27T11:43:01.073Z</time>
      </trkpt>
      <trkpt lat="45.56665" lon="6.06855">
        <ele>1651</ele>
        <time>2021-06-27T11:43:02.072Z</time>
      </trkpt>
      <trkpt lat="45.56665" lon="6.06855">
        <ele>1651</ele>
        <time>2021-06-27T11:43:03.072Z</time>
      </trkpt>
      <trkpt lat="45.56665" lon="6.06855">
        <ele>1651</ele>
        <time>2021-06-27T11:43:04.072Z</time>
      </trkpt>
      <trkpt lat="45.56665" lon="6.06855">
        <ele>1651</ele>
        <time>2021-06-27T11:43:05.072Z</time>
      </trkpt>
      <trkpt lat="45.56665" lon="6.06855">
        <ele>1651</ele>
        <time>2021-06-27T11:43:06.073Z</time>
      </trkpt>
      <trkpt lat="45.56665" lon="6.06855">
        <ele>1651</ele>
        <time>2021-06-27T11:43:07.072Z</time>
      </trkpt>
      <trkpt lat="45.56665" lon="6.06855">
        <ele>1652</ele>
        <time>2021-06-27T11:43:08.073Z</time>
      </trkpt>
      <trkpt lat="45.56665" lon="6.06855">
        <ele>1652</ele>
        <time>2021-06-27T11:43:09.072Z</time>
      </trkpt>
      <trkpt lat="45.56665" lon="6.06855">
        <ele>1652</ele>
        <time>2021-06-27T11:43:10.073Z</time>
      </trkpt>
      <trkpt lat="45.56664" lon="6.06855">
        <ele>1652</ele>
        <time>2021-06-27T11:43:11.073Z</time>
      </trkpt>
      <trkpt lat="45.56664" lon="6.06855">
        <ele>1652</ele>
        <time>2021-06-27T11:43:12.072Z</time>
      </trkpt>
      <trkpt lat="45.56664" lon="6.06855">
        <ele>1652</ele>
        <time>2021-06-27T11:43:13.073Z</time>
      </trkpt>
      <trkpt lat="45.56664" lon="6.06855">
        <ele>1651</ele>
        <time>2021-06-27T11:43:14.073Z</time>
      </trkpt>
      <trkpt lat="45.56664" lon="6.06855">
        <ele>1651</ele>
        <time>2021-06-27T11:43:15.073Z</time>
      </trkpt>
      <trkpt lat="45.56664" lon="6.06855">
        <ele>1651</ele>
        <time>2021-06-27T11:43:16.072Z</time>
      </trkpt>
      <trkpt lat="45.56664" lon="6.06855">
        <ele>1651</ele>
        <time>2021-06-27T11:43:17.072Z</time>
      </trkpt>
      <trkpt lat="45.56664" lon="6.06856">
        <ele>1651</ele>
        <time>2021-06-27T11:43:18.073Z</time>
      </trkpt>
      <trkpt lat="45.56664" lon="6.06856">
        <ele>1651</ele>
        <time>2021-06-27T11:43:19.073Z</time>
      </trkpt>
      <trkpt lat="45.56664" lon="6.06856">
        <ele>1651</ele>
        <time>2021-06-27T11:43:20.073Z</time>
      </trkpt>
      <trkpt lat="45.56664" lon="6.06856">
        <ele>1651</ele>
        <time>2021-06-27T11:43:21.073Z</time>
      </trkpt>
      <trkpt lat="45.56664" lon="6.06856">
        <ele>1651</ele>
        <time>2021-06-27T11:43:22.073Z</time>
      </trkpt>
      <trkpt lat="45.56664" lon="6.06856">
        <ele>1650</ele>
        <time>2021-06-27T11:43:23.073Z</time>
      </trkpt>
      <trkpt lat="45.56663" lon="6.06856">
        <ele>1650</ele>
        <time>2021-06-27T11:43:24.072Z</time>
      </trkpt>
      <trkpt lat="45.56663" lon="6.06856">
        <ele>1650</ele>
        <time>2021-06-27T11:43:25.073Z</time>
      </trkpt>
      <trkpt lat="45.56663" lon="6.06855">
        <ele>1650</ele>
        <time>2021-06-27T11:43:26.073Z</time>
      </trkpt>
      <trkpt lat="45.56663" lon="6.06855">
        <ele>1650</ele>
        <time>2021-06-27T11:43:27.073Z</time>
      </trkpt>
      <trkpt lat="45.56663" lon="6.06855">
        <ele>1650</ele>
        <time>2021-06-27T11:43:28.073Z</time>
      </trkpt>
      <trkpt lat="45.56663" lon="6.06855">
        <ele>1650</ele>
        <time>2021-06-27T11:43:29.072Z</time>
      </trkpt>
      <trkpt lat="45.56663" lon="6.06856">
        <ele>1650</ele>
        <time>2021-06-27T11:43:30.073Z</time>
      </trkpt>
      <trkpt lat="45.56663" lon="6.06856">
        <ele>1650</ele>
        <time>2021-06-27T11:43:31.073Z</time>
      </trkpt>
      <trkpt lat="45.56663" lon="6.06856">
        <ele>1650</ele>
        <time>2021-06-27T11:43:32.073Z</time>
      </trkpt>
      <trkpt lat="45.56662" lon="6.06856">
        <ele>1650</ele>
        <time>2021-06-27T11:43:33.073Z</time>
      </trkpt>
      <trkpt lat="45.56662" lon="6.06856">
        <ele>1650</ele>
        <time>2021-06-27T11:43:34.073Z</time>
      </trkpt>
      <trkpt lat="45.56662" lon="6.06855">
        <ele>1650</ele>
        <time>2021-06-27T11:43:35.073Z</time>
      </trkpt>
      <trkpt lat="45.56662" lon="6.06855">
        <ele>1650</ele>
        <time>2021-06-27T11:43:36.072Z</time>
      </trkpt>
      <trkpt lat="45.56662" lon="6.06855">
        <ele>1650</ele>
        <time>2021-06-27T11:43:37.073Z</time>
      </trkpt>
      <trkpt lat="45.56662" lon="6.06855">
        <ele>1650</ele>
        <time>2021-06-27T11:43:38.072Z</time>
      </trkpt>
      <trkpt lat="45.56662" lon="6.06855">
        <ele>1650</ele>
        <time>2021-06-27T11:43:39.073Z</time>
      </trkpt>
      <trkpt lat="45.56662" lon="6.06856">
        <ele>1650</ele>
        <time>2021-06-27T11:43:40.073Z</time>
      </trkpt>
      <trkpt lat="45.56663" lon="6.06856">
        <ele>1650</ele>
        <time>2021-06-27T11:43:41.073Z</time>
      </trkpt>
      <trkpt lat="45.56663" lon="6.06856">
        <ele>1651</ele>
        <time>2021-06-27T11:43:42.073Z</time>
      </trkpt>
      <trkpt lat="45.56663" lon="6.06855">
        <ele>1651</ele>
        <time>2021-06-27T11:43:43.072Z</time>
      </trkpt>
      <trkpt lat="45.56663" lon="6.06856">
        <ele>1651</ele>
        <time>2021-06-27T11:43:44.073Z</time>
      </trkpt>
      <trkpt lat="45.56663" lon="6.06856">
        <ele>1651</ele>
        <time>2021-06-27T11:43:45.073Z</time>
      </trkpt>
      <trkpt lat="45.56662" lon="6.06856">
        <ele>1651</ele>
        <time>2021-06-27T11:43:46.073Z</time>
      </trkpt>
      <trkpt lat="45.56662" lon="6.06856">
        <ele>1650</ele>
        <time>2021-06-27T11:43:47.072Z</time>
      </trkpt>
      <trkpt lat="45.56662" lon="6.06856">
        <ele>1650</ele>
        <time>2021-06-27T11:43:48.073Z</time>
      </trkpt>
      <trkpt lat="45.56662" lon="6.06855">
        <ele>1650</ele>
        <time>2021-06-27T11:43:49.072Z</time>
      </trkpt>
      <trkpt lat="45.56662" lon="6.06856">
        <ele>1650</ele>
        <time>2021-06-27T11:43:50.073Z</time>
      </trkpt>
      <trkpt lat="45.56662" lon="6.06855">
        <ele>1650</ele>
        <time>2021-06-27T11:43:51.073Z</time>
      </trkpt>
      <trkpt lat="45.56662" lon="6.06855">
        <ele>1651</ele>
        <time>2021-06-27T11:43:52.073Z</time>
      </trkpt>
      <trkpt lat="45.56663" lon="6.06855">
        <ele>1651</ele>
        <time>2021-06-27T11:43:53.073Z</time>
      </trkpt>
      <trkpt lat="45.56664" lon="6.06855">
        <ele>1651</ele>
        <time>2021-06-27T11:43:54.072Z</time>
      </trkpt>
      <trkpt lat="45.56663" lon="6.06855">
        <ele>1651</ele>
        <time>2021-06-27T11:43:55.072Z</time>
      </trkpt>
      <trkpt lat="45.56662" lon="6.06855">
        <ele>1651</ele>
        <time>2021-06-27T11:43:56.073Z</time>
      </trkpt>
      <trkpt lat="45.56662" lon="6.06855">
        <ele>1651</ele>
        <time>2021-06-27T11:43:57.073Z</time>
      </trkpt>
      <trkpt lat="45.56662" lon="6.06855">
        <ele>1651</ele>
        <time>2021-06-27T11:43:58.073Z</time>
      </trkpt>
      <trkpt lat="45.56662" lon="6.06855">
        <ele>1651</ele>
        <time>2021-06-27T11:43:59.073Z</time>
      </trkpt>
      <trkpt lat="45.56662" lon="6.06855">
        <ele>1651</ele>
        <time>2021-06-27T11:44:00.072Z</time>
      </trkpt>
      <trkpt lat="45.56662" lon="6.06856">
        <ele>1650</ele>
        <time>2021-06-27T11:44:01.073Z</time>
      </trkpt>
      <trkpt lat="45.56662" lon="6.06855">
        <ele>1650</ele>
        <time>2021-06-27T11:44:02.073Z</time>
      </trkpt>
      <trkpt lat="45.56662" lon="6.06855">
        <ele>1650</ele>
        <time>2021-06-27T11:44:03.072Z</time>
      </trkpt>
      <trkpt lat="45.56662" lon="6.06855">
        <ele>1650</ele>
        <time>2021-06-27T11:44:04.072Z</time>
      </trkpt>
      <trkpt lat="45.56662" lon="6.06856">
        <ele>1650</ele>
        <time>2021-06-27T11:44:05.073Z</time>
      </trkpt>
      <trkpt lat="45.56662" lon="6.06856">
        <ele>1650</ele>
        <time>2021-06-27T11:44:06.073Z</time>
      </trkpt>
      <trkpt lat="45.56662" lon="6.06855">
        <ele>1650</ele>
        <time>2021-06-27T11:44:07.073Z</time>
      </trkpt>
      <trkpt lat="45.56662" lon="6.06855">
        <ele>1650</ele>
        <time>2021-06-27T11:44:08.073Z</time>
      </trkpt>
      <trkpt lat="45.56662" lon="6.06855">
        <ele>1650</ele>
        <time>2021-06-27T11:44:09.073Z</time>
      </trkpt>
      <trkpt lat="45.56662" lon="6.06856">
        <ele>1650</ele>
        <time>2021-06-27T11:44:10.072Z</time>
      </trkpt>
      <trkpt lat="45.56662" lon="6.06856">
        <ele>1651</ele>
        <time>2021-06-27T11:44:11.073Z</time>
      </trkpt>
      <trkpt lat="45.56663" lon="6.06856">
        <ele>1651</ele>
        <time>2021-06-27T11:44:12.073Z</time>
      </trkpt>
      <trkpt lat="45.56663" lon="6.06856">
        <ele>1650</ele>
        <time>2021-06-27T11:44:13.073Z</time>
      </trkpt>
      <trkpt lat="45.56663" lon="6.06856">
        <ele>1650</ele>
        <time>2021-06-27T11:44:14.072Z</time>
      </trkpt>
      <trkpt lat="45.56663" lon="6.06856">
        <ele>1650</ele>
        <time>2021-06-27T11:44:15.073Z</time>
      </trkpt>
      <trkpt lat="45.56663" lon="6.06856">
        <ele>1650</ele>
        <time>2021-06-27T11:44:16.073Z</time>
      </trkpt>
      <trkpt lat="45.56663" lon="6.06856">
        <ele>1650</ele>
        <time>2021-06-27T11:44:17.073Z</time>
      </trkpt>
      <trkpt lat="45.56663" lon="6.06856">
        <ele>1650</ele>
        <time>2021-06-27T11:44:18.073Z</time>
      </trkpt>
      <trkpt lat="45.56663" lon="6.06856">
        <ele>1649</ele>
        <time>2021-06-27T11:44:19.073Z</time>
      </trkpt>
      <trkpt lat="45.56663" lon="6.06856">
        <ele>1649</ele>
        <time>2021-06-27T11:44:20.073Z</time>
      </trkpt>
      <trkpt lat="45.56663" lon="6.06856">
        <ele>1649</ele>
        <time>2021-06-27T11:44:21.073Z</time>
      </trkpt>
      <trkpt lat="45.56663" lon="6.06856">
        <ele>1649</ele>
        <time>2021-06-27T11:44:22.073Z</time>
      </trkpt>
      <trkpt lat="45.56663" lon="6.06856">
        <ele>1649</ele>
        <time>2021-06-27T11:44:23.073Z</time>
      </trkpt>
      <trkpt lat="45.56663" lon="6.06856">
        <ele>1648</ele>
        <time>2021-06-27T11:44:24.073Z</time>
      </trkpt>
      <trkpt lat="45.56663" lon="6.06856">
        <ele>1649</ele>
        <time>2021-06-27T11:44:25.072Z</time>
      </trkpt>
      <trkpt lat="45.56663" lon="6.06856">
        <ele>1649</ele>
        <time>2021-06-27T11:44:26.073Z</time>
      </trkpt>
      <trkpt lat="45.56663" lon="6.06856">
        <ele>1649</ele>
        <time>2021-06-27T11:44:27.073Z</time>
      </trkpt>
      <trkpt lat="45.56663" lon="6.06856">
        <ele>1649</ele>
        <time>2021-06-27T11:44:28.073Z</time>
      </trkpt>
      <trkpt lat="45.56663" lon="6.06856">
        <ele>1649</ele>
        <time>2021-06-27T11:44:29.072Z</time>
      </trkpt>
      <trkpt lat="45.56663" lon="6.06856">
        <ele>1649</ele>
        <time>2021-06-27T11:44:30.072Z</time>
      </trkpt>
      <trkpt lat="45.56663" lon="6.06856">
        <ele>1649</ele>
        <time>2021-06-27T11:44:31.073Z</time>
      </trkpt>
      <trkpt lat="45.56663" lon="6.06856">
        <ele>1649</ele>
        <time>2021-06-27T11:44:32.072Z</time>
      </trkpt>
      <trkpt lat="45.56663" lon="6.06856">
        <ele>1649</ele>
        <time>2021-06-27T11:44:33.073Z</time>
      </trkpt>
      <trkpt lat="45.56662" lon="6.06856">
        <ele>1649</ele>
        <time>2021-06-27T11:44:34.073Z</time>
      </trkpt>
      <trkpt lat="45.56663" lon="6.06856">
        <ele>1649</ele>
        <time>2021-06-27T11:44:35.072Z</time>
      </trkpt>
      <trkpt lat="45.56662" lon="6.06856">
        <ele>1649</ele>
        <time>2021-06-27T11:44:36.073Z</time>
      </trkpt>
      <trkpt lat="45.56663" lon="6.06856">
        <ele>1648</ele>
        <time>2021-06-27T11:44:37.073Z</time>
      </trkpt>
      <trkpt lat="45.56663" lon="6.06856">
        <ele>1648</ele>
        <time>2021-06-27T11:44:38.073Z</time>
      </trkpt>
      <trkpt lat="45.56663" lon="6.06856">
        <ele>1647</ele>
        <time>2021-06-27T11:44:39.073Z</time>
      </trkpt>
      <trkpt lat="45.56663" lon="6.06856">
        <ele>1647</ele>
        <time>2021-06-27T11:44:40.073Z</time>
      </trkpt>
      <trkpt lat="45.56663" lon="6.06856">
        <ele>1647</ele>
        <time>2021-06-27T11:44:41.073Z</time>
      </trkpt>
      <trkpt lat="45.56663" lon="6.06856">
        <ele>1647</ele>
        <time>2021-06-27T11:44:42.072Z</time>
      </trkpt>
      <trkpt lat="45.56663" lon="6.06856">
        <ele>1646</ele>
        <time>2021-06-27T11:44:43.073Z</time>
      </trkpt>
      <trkpt lat="45.56662" lon="6.06856">
        <ele>1646</ele>
        <time>2021-06-27T11:44:44.073Z</time>
      </trkpt>
      <trkpt lat="45.56662" lon="6.06856">
        <ele>1646</ele>
        <time>2021-06-27T11:44:45.073Z</time>
      </trkpt>
      <trkpt lat="45.56662" lon="6.06857">
        <ele>1646</ele>
        <time>2021-06-27T11:44:46.073Z</time>
      </trkpt>
      <trkpt lat="45.56663" lon="6.06857">
        <ele>1646</ele>
        <time>2021-06-27T11:44:47.072Z</time>
      </trkpt>
      <trkpt lat="45.56662" lon="6.06856">
        <ele>1647</ele>
        <time>2021-06-27T11:44:48.073Z</time>
      </trkpt>
      <trkpt lat="45.56662" lon="6.06856">
        <ele>1647</ele>
        <time>2021-06-27T11:44:49.073Z</time>
      </trkpt>
      <trkpt lat="45.56662" lon="6.06856">
        <ele>1647</ele>
        <time>2021-06-27T11:44:50.073Z</time>
      </trkpt>
      <trkpt lat="45.56662" lon="6.06856">
        <ele>1647</ele>
        <time>2021-06-27T11:44:51.073Z</time>
      </trkpt>
      <trkpt lat="45.56662" lon="6.06855">
        <ele>1646</ele>
        <time>2021-06-27T11:44:52.073Z</time>
      </trkpt>
      <trkpt lat="45.56662" lon="6.06855">
        <ele>1646</ele>
        <time>2021-06-27T11:44:53.072Z</time>
      </trkpt>
      <trkpt lat="45.56662" lon="6.06855">
        <ele>1646</ele>
        <time>2021-06-27T11:44:54.072Z</time>
      </trkpt>
      <trkpt lat="45.56662" lon="6.06856">
        <ele>1646</ele>
        <time>2021-06-27T11:44:55.073Z</time>
      </trkpt>
      <trkpt lat="45.56662" lon="6.06856">
        <ele>1647</ele>
        <time>2021-06-27T11:44:56.073Z</time>
      </trkpt>
      <trkpt lat="45.56662" lon="6.06856">
        <ele>1647</ele>
        <time>2021-06-27T11:44:57.073Z</time>
      </trkpt>
      <trkpt lat="45.56662" lon="6.06856">
        <ele>1647</ele>
        <time>2021-06-27T11:44:58.073Z</time>
      </trkpt>
      <trkpt lat="45.56662" lon="6.06855">
        <ele>1647</ele>
        <time>2021-06-27T11:44:59.073Z</time>
      </trkpt>
      <trkpt lat="45.56662" lon="6.06856">
        <ele>1647</ele>
        <time>2021-06-27T11:45:00.073Z</time>
      </trkpt>
      <trkpt lat="45.56662" lon="6.06856">
        <ele>1648</ele>
        <time>2021-06-27T11:45:01.073Z</time>
      </trkpt>
      <trkpt lat="45.56662" lon="6.06856">
        <ele>1648</ele>
        <time>2021-06-27T11:45:02.072Z</time>
      </trkpt>
      <trkpt lat="45.56662" lon="6.06856">
        <ele>1648</ele>
        <time>2021-06-27T11:45:03.073Z</time>
      </trkpt>
      <trkpt lat="45.56662" lon="6.06855">
        <ele>1648</ele>
        <time>2021-06-27T11:45:04.073Z</time>
      </trkpt>
      <trkpt lat="45.56662" lon="6.06855">
        <ele>1649</ele>
        <time>2021-06-27T11:45:05.073Z</time>
      </trkpt>
      <trkpt lat="45.56662" lon="6.06855">
        <ele>1649</ele>
        <time>2021-06-27T11:45:06.073Z</time>
      </trkpt>
      <trkpt lat="45.56662" lon="6.06855">
        <ele>1649</ele>
        <time>2021-06-27T11:45:07.073Z</time>
      </trkpt>
      <trkpt lat="45.56662" lon="6.06855">
        <ele>1650</ele>
        <time>2021-06-27T11:45:08.073Z</time>
      </trkpt>
      <trkpt lat="45.56662" lon="6.06855">
        <ele>1650</ele>
        <time>2021-06-27T11:45:09.073Z</time>
      </trkpt>
      <trkpt lat="45.56662" lon="6.06855">
        <ele>1650</ele>
        <time>2021-06-27T11:45:10.073Z</time>
      </trkpt>
      <trkpt lat="45.56662" lon="6.06855">
        <ele>1650</ele>
        <time>2021-06-27T11:45:11.073Z</time>
      </trkpt>
      <trkpt lat="45.56662" lon="6.06855">
        <ele>1650</ele>
        <time>2021-06-27T11:45:12.073Z</time>
      </trkpt>
      <trkpt lat="45.56662" lon="6.06855">
        <ele>1650</ele>
        <time>2021-06-27T11:45:13.073Z</time>
      </trkpt>
      <trkpt lat="45.56662" lon="6.06855">
        <ele>1650</ele>
        <time>2021-06-27T11:45:14.073Z</time>
      </trkpt>
      <trkpt lat="45.56662" lon="6.06855">
        <ele>1650</ele>
        <time>2021-06-27T11:45:15.072Z</time>
      </trkpt>
      <trkpt lat="45.56662" lon="6.06855">
        <ele>1651</ele>
        <time>2021-06-27T11:45:16.073Z</time>
      </trkpt>
      <trkpt lat="45.56662" lon="6.06855">
        <ele>1651</ele>
        <time>2021-06-27T11:45:17.073Z</time>
      </trkpt>
      <trkpt lat="45.56662" lon="6.06856">
        <ele>1652</ele>
        <time>2021-06-27T11:45:18.073Z</time>
      </trkpt>
      <trkpt lat="45.56662" lon="6.06856">
        <ele>1652</ele>
        <time>2021-06-27T11:45:19.073Z</time>
      </trkpt>
      <trkpt lat="45.56662" lon="6.06856">
        <ele>1652</ele>
        <time>2021-06-27T11:45:20.073Z</time>
      </trkpt>
      <trkpt lat="45.56662" lon="6.06856">
        <ele>1652</ele>
        <time>2021-06-27T11:45:21.073Z</time>
      </trkpt>
      <trkpt lat="45.56662" lon="6.06855">
        <ele>1652</ele>
        <time>2021-06-27T11:45:22.073Z</time>
      </trkpt>
      <trkpt lat="45.56662" lon="6.06855">
        <ele>1652</ele>
        <time>2021-06-27T11:45:23.072Z</time>
      </trkpt>
      <trkpt lat="45.56662" lon="6.06855">
        <ele>1653</ele>
        <time>2021-06-27T11:45:24.073Z</time>
      </trkpt>
      <trkpt lat="45.56662" lon="6.06856">
        <ele>1653</ele>
        <time>2021-06-27T11:45:25.073Z</time>
      </trkpt>
      <trkpt lat="45.56662" lon="6.06856">
        <ele>1652</ele>
        <time>2021-06-27T11:45:26.073Z</time>
      </trkpt>
      <trkpt lat="45.56662" lon="6.06856">
        <ele>1652</ele>
        <time>2021-06-27T11:45:27.073Z</time>
      </trkpt>
      <trkpt lat="45.56662" lon="6.06856">
        <ele>1652</ele>
        <time>2021-06-27T11:45:28.073Z</time>
      </trkpt>
      <trkpt lat="45.56662" lon="6.06855">
        <ele>1651</ele>
        <time>2021-06-27T11:45:29.073Z</time>
      </trkpt>
      <trkpt lat="45.56662" lon="6.06855">
        <ele>1651</ele>
        <time>2021-06-27T11:45:30.072Z</time>
      </trkpt>
      <trkpt lat="45.56662" lon="6.06855">
        <ele>1651</ele>
        <time>2021-06-27T11:45:31.073Z</time>
      </trkpt>
      <trkpt lat="45.56661" lon="6.06856">
        <ele>1651</ele>
        <time>2021-06-27T11:45:32.072Z</time>
      </trkpt>
      <trkpt lat="45.56662" lon="6.06856">
        <ele>1652</ele>
        <time>2021-06-27T11:45:33.073Z</time>
      </trkpt>
      <trkpt lat="45.56662" lon="6.06856">
        <ele>1652</ele>
        <time>2021-06-27T11:45:34.073Z</time>
      </trkpt>
      <trkpt lat="45.56662" lon="6.06856">
        <ele>1652</ele>
        <time>2021-06-27T11:45:35.072Z</time>
      </trkpt>
      <trkpt lat="45.56662" lon="6.06856">
        <ele>1653</ele>
        <time>2021-06-27T11:45:36.073Z</time>
      </trkpt>
      <trkpt lat="45.56662" lon="6.06856">
        <ele>1654</ele>
        <time>2021-06-27T11:45:37.073Z</time>
      </trkpt>
      <trkpt lat="45.56662" lon="6.06856">
        <ele>1655</ele>
        <time>2021-06-27T11:45:38.072Z</time>
      </trkpt>
      <trkpt lat="45.56662" lon="6.06857">
        <ele>1656</ele>
        <time>2021-06-27T11:45:39.072Z</time>
      </trkpt>
      <trkpt lat="45.56662" lon="6.06857">
        <ele>1656</ele>
        <time>2021-06-27T11:45:40.073Z</time>
      </trkpt>
      <trkpt lat="45.56662" lon="6.06857">
        <ele>1656</ele>
        <time>2021-06-27T11:45:41.073Z</time>
      </trkpt>
      <trkpt lat="45.56663" lon="6.06857">
        <ele>1657</ele>
        <time>2021-06-27T11:45:42.073Z</time>
      </trkpt>
      <trkpt lat="45.56663" lon="6.06857">
        <ele>1657</ele>
        <time>2021-06-27T11:45:43.073Z</time>
      </trkpt>
      <trkpt lat="45.56663" lon="6.06857">
        <ele>1657</ele>
        <time>2021-06-27T11:45:44.073Z</time>
      </trkpt>
      <trkpt lat="45.56663" lon="6.06857">
        <ele>1658</ele>
        <time>2021-06-27T11:45:45.073Z</time>
      </trkpt>
      <trkpt lat="45.56662" lon="6.06857">
        <ele>1658</ele>
        <time>2021-06-27T11:45:46.073Z</time>
      </trkpt>
      <trkpt lat="45.56662" lon="6.06857">
        <ele>1657</ele>
        <time>2021-06-27T11:45:47.072Z</time>
      </trkpt>
      <trkpt lat="45.56663" lon="6.06857">
        <ele>1657</ele>
        <time>2021-06-27T11:45:48.073Z</time>
      </trkpt>
      <trkpt lat="45.56663" lon="6.06857">
        <ele>1657</ele>
        <time>2021-06-27T11:45:49.073Z</time>
      </trkpt>
      <trkpt lat="45.56663" lon="6.06857">
        <ele>1657</ele>
        <time>2021-06-27T11:45:50.072Z</time>
      </trkpt>
      <trkpt lat="45.56663" lon="6.06856">
        <ele>1657</ele>
        <time>2021-06-27T11:45:51.072Z</time>
      </trkpt>
      <trkpt lat="45.56663" lon="6.06856">
        <ele>1657</ele>
        <time>2021-06-27T11:45:52.073Z</time>
      </trkpt>
      <trkpt lat="45.56663" lon="6.06856">
        <ele>1657</ele>
        <time>2021-06-27T11:45:53.073Z</time>
      </trkpt>
      <trkpt lat="45.56663" lon="6.06856">
        <ele>1656</ele>
        <time>2021-06-27T11:45:54.072Z</time>
      </trkpt>
      <trkpt lat="45.56663" lon="6.06856">
        <ele>1656</ele>
        <time>2021-06-27T11:45:55.073Z</time>
      </trkpt>
      <trkpt lat="45.56664" lon="6.06856">
        <ele>1656</ele>
        <time>2021-06-27T11:45:56.073Z</time>
      </trkpt>
      <trkpt lat="45.56664" lon="6.06856">
        <ele>1655</ele>
        <time>2021-06-27T11:45:57.073Z</time>
      </trkpt>
      <trkpt lat="45.56664" lon="6.06855">
        <ele>1654</ele>
        <time>2021-06-27T11:45:58.073Z</time>
      </trkpt>
      <trkpt lat="45.56663" lon="6.06856">
        <ele>1653</ele>
        <time>2021-06-27T11:45:59.072Z</time>
      </trkpt>
      <trkpt lat="45.56664" lon="6.06856">
        <ele>1653</ele>
        <time>2021-06-27T11:46:00.072Z</time>
      </trkpt>
      <trkpt lat="45.56664" lon="6.06856">
        <ele>1652</ele>
        <time>2021-06-27T11:46:01.073Z</time>
      </trkpt>
      <trkpt lat="45.56664" lon="6.06856">
        <ele>1652</ele>
        <time>2021-06-27T11:46:02.073Z</time>
      </trkpt>
      <trkpt lat="45.56664" lon="6.06856">
        <ele>1651</ele>
        <time>2021-06-27T11:46:03.073Z</time>
      </trkpt>
      <trkpt lat="45.56664" lon="6.06857">
        <ele>1651</ele>
        <time>2021-06-27T11:46:04.073Z</time>
      </trkpt>
      <trkpt lat="45.56663" lon="6.06857">
        <ele>1651</ele>
        <time>2021-06-27T11:46:05.073Z</time>
      </trkpt>
      <trkpt lat="45.56663" lon="6.06857">
        <ele>1650</ele>
        <time>2021-06-27T11:46:06.073Z</time>
      </trkpt>
      <trkpt lat="45.56663" lon="6.06857">
        <ele>1650</ele>
        <time>2021-06-27T11:46:07.073Z</time>
      </trkpt>
      <trkpt lat="45.56663" lon="6.06856">
        <ele>1649</ele>
        <time>2021-06-27T11:46:08.073Z</time>
      </trkpt>
      <trkpt lat="45.56663" lon="6.06856">
        <ele>1649</ele>
        <time>2021-06-27T11:46:09.073Z</time>
      </trkpt>
      <trkpt lat="45.56663" lon="6.06856">
        <ele>1649</ele>
        <time>2021-06-27T11:46:10.073Z</time>
      </trkpt>
      <trkpt lat="45.56663" lon="6.06856">
        <ele>1649</ele>
        <time>2021-06-27T11:46:11.073Z</time>
      </trkpt>
      <trkpt lat="45.56663" lon="6.06856">
        <ele>1649</ele>
        <time>2021-06-27T11:46:12.072Z</time>
      </trkpt>
      <trkpt lat="45.56664" lon="6.06856">
        <ele>1649</ele>
        <time>2021-06-27T11:46:13.072Z</time>
      </trkpt>
      <trkpt lat="45.56664" lon="6.06856">
        <ele>1649</ele>
        <time>2021-06-27T11:46:14.072Z</time>
      </trkpt>
      <trkpt lat="45.56664" lon="6.06856">
        <ele>1649</ele>
        <time>2021-06-27T11:46:15.072Z</time>
      </trkpt>
      <trkpt lat="45.56664" lon="6.06857">
        <ele>1650</ele>
        <time>2021-06-27T11:46:16.073Z</time>
      </trkpt>
      <trkpt lat="45.56664" lon="6.06857">
        <ele>1650</ele>
        <time>2021-06-27T11:46:17.072Z</time>
      </trkpt>
      <trkpt lat="45.56664" lon="6.06857">
        <ele>1650</ele>
        <time>2021-06-27T11:46:18.073Z</time>
      </trkpt>
      <trkpt lat="45.56664" lon="6.06857">
        <ele>1650</ele>
        <time>2021-06-27T11:46:19.072Z</time>
      </trkpt>
      <trkpt lat="45.56664" lon="6.06857">
        <ele>1650</ele>
        <time>2021-06-27T11:46:20.073Z</time>
      </trkpt>
      <trkpt lat="45.56664" lon="6.06858">
        <ele>1650</ele>
        <time>2021-06-27T11:46:21.072Z</time>
      </trkpt>
      <trkpt lat="45.56664" lon="6.06858">
        <ele>1650</ele>
        <time>2021-06-27T11:46:22.073Z</time>
      </trkpt>
      <trkpt lat="45.56664" lon="6.06857">
        <ele>1651</ele>
        <time>2021-06-27T11:46:23.073Z</time>
      </trkpt>
      <trkpt lat="45.56664" lon="6.06857">
        <ele>1651</ele>
        <time>2021-06-27T11:46:24.073Z</time>
      </trkpt>
      <trkpt lat="45.56664" lon="6.06857">
        <ele>1652</ele>
        <time>2021-06-27T11:46:25.072Z</time>
      </trkpt>
      <trkpt lat="45.56664" lon="6.06857">
        <ele>1652</ele>
        <time>2021-06-27T11:46:26.073Z</time>
      </trkpt>
      <trkpt lat="45.56664" lon="6.06857">
        <ele>1652</ele>
        <time>2021-06-27T11:46:27.073Z</time>
      </trkpt>
      <trkpt lat="45.56664" lon="6.06857">
        <ele>1653</ele>
        <time>2021-06-27T11:46:28.073Z</time>
      </trkpt>
      <trkpt lat="45.56664" lon="6.06857">
        <ele>1654</ele>
        <time>2021-06-27T11:46:29.073Z</time>
      </trkpt>
      <trkpt lat="45.56664" lon="6.06856">
        <ele>1654</ele>
        <time>2021-06-27T11:46:30.072Z</time>
      </trkpt>
      <trkpt lat="45.56664" lon="6.06856">
        <ele>1655</ele>
        <time>2021-06-27T11:46:31.073Z</time>
      </trkpt>
      <trkpt lat="45.56664" lon="6.06856">
        <ele>1655</ele>
        <time>2021-06-27T11:46:32.072Z</time>
      </trkpt>
      <trkpt lat="45.56664" lon="6.06856">
        <ele>1654</ele>
        <time>2021-06-27T11:46:33.072Z</time>
      </trkpt>
      <trkpt lat="45.56664" lon="6.06857">
        <ele>1654</ele>
        <time>2021-06-27T11:46:34.072Z</time>
      </trkpt>
      <trkpt lat="45.56664" lon="6.06857">
        <ele>1653</ele>
        <time>2021-06-27T11:46:35.073Z</time>
      </trkpt>
      <trkpt lat="45.56664" lon="6.06857">
        <ele>1653</ele>
        <time>2021-06-27T11:46:36.072Z</time>
      </trkpt>
      <trkpt lat="45.56664" lon="6.06856">
        <ele>1652</ele>
        <time>2021-06-27T11:46:37.073Z</time>
      </trkpt>
      <trkpt lat="45.56664" lon="6.06857">
        <ele>1652</ele>
        <time>2021-06-27T11:46:38.072Z</time>
      </trkpt>
      <trkpt lat="45.56664" lon="6.06857">
        <ele>1652</ele>
        <time>2021-06-27T11:46:39.072Z</time>
      </trkpt>
      <trkpt lat="45.56664" lon="6.06857">
        <ele>1652</ele>
        <time>2021-06-27T11:46:40.073Z</time>
      </trkpt>
      <trkpt lat="45.56664" lon="6.06857">
        <ele>1651</ele>
        <time>2021-06-27T11:46:41.073Z</time>
      </trkpt>
      <trkpt lat="45.56664" lon="6.06857">
        <ele>1651</ele>
        <time>2021-06-27T11:46:42.072Z</time>
      </trkpt>
      <trkpt lat="45.56664" lon="6.06857">
        <ele>1650</ele>
        <time>2021-06-27T11:46:43.072Z</time>
      </trkpt>
      <trkpt lat="45.56664" lon="6.06857">
        <ele>1650</ele>
        <time>2021-06-27T11:46:44.073Z</time>
      </trkpt>
      <trkpt lat="45.56664" lon="6.06857">
        <ele>1650</ele>
        <time>2021-06-27T11:46:45.072Z</time>
      </trkpt>
      <trkpt lat="45.56664" lon="6.06857">
        <ele>1650</ele>
        <time>2021-06-27T11:46:46.073Z</time>
      </trkpt>
      <trkpt lat="45.56664" lon="6.06857">
        <ele>1650</ele>
        <time>2021-06-27T11:46:47.072Z</time>
      </trkpt>
      <trkpt lat="45.56664" lon="6.06857">
        <ele>1650</ele>
        <time>2021-06-27T11:46:48.073Z</time>
      </trkpt>
      <trkpt lat="45.56664" lon="6.06857">
        <ele>1650</ele>
        <time>2021-06-27T11:46:49.073Z</time>
      </trkpt>
      <trkpt lat="45.56664" lon="6.06857">
        <ele>1651</ele>
        <time>2021-06-27T11:46:50.072Z</time>
      </trkpt>
      <trkpt lat="45.56664" lon="6.06857">
        <ele>1651</ele>
        <time>2021-06-27T11:46:51.073Z</time>
      </trkpt>
      <trkpt lat="45.56664" lon="6.06856">
        <ele>1651</ele>
        <time>2021-06-27T11:46:52.073Z</time>
      </trkpt>
      <trkpt lat="45.56664" lon="6.06856">
        <ele>1652</ele>
        <time>2021-06-27T11:46:53.073Z</time>
      </trkpt>
      <trkpt lat="45.56664" lon="6.06856">
        <ele>1652</ele>
        <time>2021-06-27T11:46:54.072Z</time>
      </trkpt>
      <trkpt lat="45.56664" lon="6.06856">
        <ele>1652</ele>
        <time>2021-06-27T11:46:55.072Z</time>
      </trkpt>
      <trkpt lat="45.56664" lon="6.06856">
        <ele>1651</ele>
        <time>2021-06-27T11:46:56.073Z</time>
      </trkpt>
      <trkpt lat="45.56664" lon="6.06856">
        <ele>1651</ele>
        <time>2021-06-27T11:46:57.073Z</time>
      </trkpt>
      <trkpt lat="45.56664" lon="6.06857">
        <ele>1650</ele>
        <time>2021-06-27T11:46:58.072Z</time>
      </trkpt>
      <trkpt lat="45.56664" lon="6.06857">
        <ele>1650</ele>
        <time>2021-06-27T11:46:59.073Z</time>
      </trkpt>
      <trkpt lat="45.56664" lon="6.06857">
        <ele>1650</ele>
        <time>2021-06-27T11:47:00.073Z</time>
      </trkpt>
      <trkpt lat="45.56664" lon="6.06857">
        <ele>1650</ele>
        <time>2021-06-27T11:47:01.072Z</time>
      </trkpt>
      <trkpt lat="45.56664" lon="6.06856">
        <ele>1650</ele>
        <time>2021-06-27T11:47:02.073Z</time>
      </trkpt>
      <trkpt lat="45.56664" lon="6.06856">
        <ele>1650</ele>
        <time>2021-06-27T11:47:03.072Z</time>
      </trkpt>
      <trkpt lat="45.56664" lon="6.06856">
        <ele>1649</ele>
        <time>2021-06-27T11:47:04.073Z</time>
      </trkpt>
      <trkpt lat="45.56665" lon="6.06856">
        <ele>1649</ele>
        <time>2021-06-27T11:47:05.072Z</time>
      </trkpt>
      <trkpt lat="45.56665" lon="6.06856">
        <ele>1649</ele>
        <time>2021-06-27T11:47:06.073Z</time>
      </trkpt>
      <trkpt lat="45.56665" lon="6.06856">
        <ele>1648</ele>
        <time>2021-06-27T11:47:07.073Z</time>
      </trkpt>
      <trkpt lat="45.56665" lon="6.06856">
        <ele>1648</ele>
        <time>2021-06-27T11:47:08.073Z</time>
      </trkpt>
      <trkpt lat="45.56665" lon="6.06856">
        <ele>1648</ele>
        <time>2021-06-27T11:47:09.073Z</time>
      </trkpt>
      <trkpt lat="45.56664" lon="6.06856">
        <ele>1647</ele>
        <time>2021-06-27T11:47:10.072Z</time>
      </trkpt>
      <trkpt lat="45.56664" lon="6.06856">
        <ele>1647</ele>
        <time>2021-06-27T11:47:11.073Z</time>
      </trkpt>
      <trkpt lat="45.56664" lon="6.06856">
        <ele>1647</ele>
        <time>2021-06-27T11:47:12.072Z</time>
      </trkpt>
      <trkpt lat="45.56664" lon="6.06856">
        <ele>1647</ele>
        <time>2021-06-27T11:47:13.073Z</time>
      </trkpt>
      <trkpt lat="45.56664" lon="6.06856">
        <ele>1648</ele>
        <time>2021-06-27T11:47:14.073Z</time>
      </trkpt>
      <trkpt lat="45.56664" lon="6.06856">
        <ele>1649</ele>
        <time>2021-06-27T11:47:15.072Z</time>
      </trkpt>
      <trkpt lat="45.56664" lon="6.06856">
        <ele>1649</ele>
        <time>2021-06-27T11:47:16.073Z</time>
      </trkpt>
      <trkpt lat="45.56664" lon="6.06856">
        <ele>1650</ele>
        <time>2021-06-27T11:47:17.073Z</time>
      </trkpt>
      <trkpt lat="45.56665" lon="6.06856">
        <ele>1650</ele>
        <time>2021-06-27T11:47:18.073Z</time>
      </trkpt>
      <trkpt lat="45.56665" lon="6.06856">
        <ele>1650</ele>
        <time>2021-06-27T11:47:19.073Z</time>
      </trkpt>
      <trkpt lat="45.56665" lon="6.06856">
        <ele>1650</ele>
        <time>2021-06-27T11:47:20.073Z</time>
      </trkpt>
      <trkpt lat="45.56665" lon="6.06856">
        <ele>1650</ele>
        <time>2021-06-27T11:47:21.073Z</time>
      </trkpt>
      <trkpt lat="45.56664" lon="6.06856">
        <ele>1650</ele>
        <time>2021-06-27T11:47:22.073Z</time>
      </trkpt>
      <trkpt lat="45.56664" lon="6.06856">
        <ele>1650</ele>
        <time>2021-06-27T11:47:23.073Z</time>
      </trkpt>
      <trkpt lat="45.56664" lon="6.06856">
        <ele>1649</ele>
        <time>2021-06-27T11:47:24.073Z</time>
      </trkpt>
      <trkpt lat="45.56664" lon="6.06856">
        <ele>1649</ele>
        <time>2021-06-27T11:47:25.073Z</time>
      </trkpt>
      <trkpt lat="45.56664" lon="6.06856">
        <ele>1649</ele>
        <time>2021-06-27T11:47:26.073Z</time>
      </trkpt>
      <trkpt lat="45.56664" lon="6.06856">
        <ele>1649</ele>
        <time>2021-06-27T11:47:27.072Z</time>
      </trkpt>
      <trkpt lat="45.56664" lon="6.06856">
        <ele>1649</ele>
        <time>2021-06-27T11:47:28.072Z</time>
      </trkpt>
      <trkpt lat="45.56664" lon="6.06856">
        <ele>1649</ele>
        <time>2021-06-27T11:47:29.073Z</time>
      </trkpt>
      <trkpt lat="45.56664" lon="6.06856">
        <ele>1649</ele>
        <time>2021-06-27T11:47:30.072Z</time>
      </trkpt>
      <trkpt lat="45.56664" lon="6.06856">
        <ele>1649</ele>
        <time>2021-06-27T11:47:31.073Z</time>
      </trkpt>
      <trkpt lat="45.56665" lon="6.06856">
        <ele>1649</ele>
        <time>2021-06-27T11:47:32.073Z</time>
      </trkpt>
      <trkpt lat="45.56665" lon="6.06856">
        <ele>1649</ele>
        <time>2021-06-27T11:47:33.072Z</time>
      </trkpt>
      <trkpt lat="45.56665" lon="6.06856">
        <ele>1649</ele>
        <time>2021-06-27T11:47:34.073Z</time>
      </trkpt>
      <trkpt lat="45.56665" lon="6.06856">
        <ele>1650</ele>
        <time>2021-06-27T11:47:35.073Z</time>
      </trkpt>
      <trkpt lat="45.56665" lon="6.06856">
        <ele>1650</ele>
        <time>2021-06-27T11:47:36.072Z</time>
      </trkpt>
      <trkpt lat="45.56665" lon="6.06856">
        <ele>1650</ele>
        <time>2021-06-27T11:47:37.072Z</time>
      </trkpt>
      <trkpt lat="45.56665" lon="6.06856">
        <ele>1650</ele>
        <time>2021-06-27T11:47:38.072Z</time>
      </trkpt>
      <trkpt lat="45.56665" lon="6.06856">
        <ele>1651</ele>
        <time>2021-06-27T11:47:39.073Z</time>
      </trkpt>
      <trkpt lat="45.56665" lon="6.06856">
        <ele>1651</ele>
        <time>2021-06-27T11:47:40.073Z</time>
      </trkpt>
      <trkpt lat="45.56665" lon="6.06856">
        <ele>1651</ele>
        <time>2021-06-27T11:47:41.073Z</time>
      </trkpt>
      <trkpt lat="45.56665" lon="6.06856">
        <ele>1652</ele>
        <time>2021-06-27T11:47:42.073Z</time>
      </trkpt>
      <trkpt lat="45.56665" lon="6.06856">
        <ele>1651</ele>
        <time>2021-06-27T11:47:43.072Z</time>
      </trkpt>
      <trkpt lat="45.56665" lon="6.06856">
        <ele>1651</ele>
        <time>2021-06-27T11:47:44.073Z</time>
      </trkpt>
      <trkpt lat="45.56665" lon="6.06856">
        <ele>1651</ele>
        <time>2021-06-27T11:47:45.073Z</time>
      </trkpt>
      <trkpt lat="45.56664" lon="6.06857">
        <ele>1651</ele>
        <time>2021-06-27T11:47:46.073Z</time>
      </trkpt>
      <trkpt lat="45.56665" lon="6.06857">
        <ele>1651</ele>
        <time>2021-06-27T11:47:47.073Z</time>
      </trkpt>
      <trkpt lat="45.56664" lon="6.06857">
        <ele>1651</ele>
        <time>2021-06-27T11:47:48.073Z</time>
      </trkpt>
      <trkpt lat="45.56664" lon="6.06856">
        <ele>1650</ele>
        <time>2021-06-27T11:47:49.073Z</time>
      </trkpt>
      <trkpt lat="45.56664" lon="6.06856">
        <ele>1650</ele>
        <time>2021-06-27T11:47:50.073Z</time>
      </trkpt>
      <trkpt lat="45.56664" lon="6.06856">
        <ele>1649</ele>
        <time>2021-06-27T11:47:51.073Z</time>
      </trkpt>
      <trkpt lat="45.56664" lon="6.06856">
        <ele>1649</ele>
        <time>2021-06-27T11:47:52.073Z</time>
      </trkpt>
      <trkpt lat="45.56664" lon="6.06856">
        <ele>1649</ele>
        <time>2021-06-27T11:47:53.073Z</time>
      </trkpt>
      <trkpt lat="45.56664" lon="6.06856">
        <ele>1649</ele>
        <time>2021-06-27T11:47:54.073Z</time>
      </trkpt>
      <trkpt lat="45.56664" lon="6.06856">
        <ele>1650</ele>
        <time>2021-06-27T11:47:55.072Z</time>
      </trkpt>
      <trkpt lat="45.56664" lon="6.06856">
        <ele>1650</ele>
        <time>2021-06-27T11:47:56.073Z</time>
      </trkpt>
      <trkpt lat="45.56664" lon="6.06856">
        <ele>1650</ele>
        <time>2021-06-27T11:47:57.073Z</time>
      </trkpt>
      <trkpt lat="45.56664" lon="6.06856">
        <ele>1650</ele>
        <time>2021-06-27T11:47:58.073Z</time>
      </trkpt>
      <trkpt lat="45.56664" lon="6.06856">
        <ele>1650</ele>
        <time>2021-06-27T11:47:59.073Z</time>
      </trkpt>
      <trkpt lat="45.56664" lon="6.06856">
        <ele>1650</ele>
        <time>2021-06-27T11:48:00.073Z</time>
      </trkpt>
      <trkpt lat="45.56664" lon="6.06856">
        <ele>1650</ele>
        <time>2021-06-27T11:48:01.072Z</time>
      </trkpt>
      <trkpt lat="45.56664" lon="6.06856">
        <ele>1650</ele>
        <time>2021-06-27T11:48:02.073Z</time>
      </trkpt>
      <trkpt lat="45.56664" lon="6.06856">
        <ele>1650</ele>
        <time>2021-06-27T11:48:03.072Z</time>
      </trkpt>
      <trkpt lat="45.56664" lon="6.06856">
        <ele>1650</ele>
        <time>2021-06-27T11:48:04.072Z</time>
      </trkpt>
      <trkpt lat="45.56664" lon="6.06856">
        <ele>1651</ele>
        <time>2021-06-27T11:48:05.072Z</time>
      </trkpt>
      <trkpt lat="45.56664" lon="6.06856">
        <ele>1651</ele>
        <time>2021-06-27T11:48:06.073Z</time>
      </trkpt>
      <trkpt lat="45.56664" lon="6.06857">
        <ele>1651</ele>
        <time>2021-06-27T11:48:07.073Z</time>
      </trkpt>
      <trkpt lat="45.56665" lon="6.06857">
        <ele>1651</ele>
        <time>2021-06-27T11:48:08.073Z</time>
      </trkpt>
      <trkpt lat="45.56664" lon="6.06857">
        <ele>1651</ele>
        <time>2021-06-27T11:48:09.073Z</time>
      </trkpt>
      <trkpt lat="45.56664" lon="6.06857">
        <ele>1651</ele>
        <time>2021-06-27T11:48:10.072Z</time>
      </trkpt>
      <trkpt lat="45.56664" lon="6.06856">
        <ele>1651</ele>
        <time>2021-06-27T11:48:11.072Z</time>
      </trkpt>
      <trkpt lat="45.56664" lon="6.06856">
        <ele>1651</ele>
        <time>2021-06-27T11:48:12.072Z</time>
      </trkpt>
      <trkpt lat="45.56664" lon="6.06856">
        <ele>1650</ele>
        <time>2021-06-27T11:48:13.073Z</time>
      </trkpt>
      <trkpt lat="45.56664" lon="6.06856">
        <ele>1650</ele>
        <time>2021-06-27T11:48:14.072Z</time>
      </trkpt>
      <trkpt lat="45.56664" lon="6.06856">
        <ele>1650</ele>
        <time>2021-06-27T11:48:15.073Z</time>
      </trkpt>
      <trkpt lat="45.56664" lon="6.06856">
        <ele>1651</ele>
        <time>2021-06-27T11:48:16.073Z</time>
      </trkpt>
      <trkpt lat="45.56664" lon="6.06856">
        <ele>1651</ele>
        <time>2021-06-27T11:48:17.073Z</time>
      </trkpt>
      <trkpt lat="45.56664" lon="6.06856">
        <ele>1652</ele>
        <time>2021-06-27T11:48:18.072Z</time>
      </trkpt>
      <trkpt lat="45.56664" lon="6.06856">
        <ele>1652</ele>
        <time>2021-06-27T11:48:19.073Z</time>
      </trkpt>
      <trkpt lat="45.56664" lon="6.06856">
        <ele>1653</ele>
        <time>2021-06-27T11:48:20.073Z</time>
      </trkpt>
      <trkpt lat="45.56664" lon="6.06856">
        <ele>1653</ele>
        <time>2021-06-27T11:48:21.073Z</time>
      </trkpt>
      <trkpt lat="45.56664" lon="6.06856">
        <ele>1653</ele>
        <time>2021-06-27T11:48:22.073Z</time>
      </trkpt>
      <trkpt lat="45.56664" lon="6.06856">
        <ele>1653</ele>
        <time>2021-06-27T11:48:23.073Z</time>
      </trkpt>
      <trkpt lat="45.56664" lon="6.06856">
        <ele>1653</ele>
        <time>2021-06-27T11:48:24.073Z</time>
      </trkpt>
      <trkpt lat="45.56665" lon="6.06856">
        <ele>1653</ele>
        <time>2021-06-27T11:48:25.073Z</time>
      </trkpt>
      <trkpt lat="45.56665" lon="6.06856">
        <ele>1653</ele>
        <time>2021-06-27T11:48:26.073Z</time>
      </trkpt>
      <trkpt lat="45.56664" lon="6.06856">
        <ele>1653</ele>
        <time>2021-06-27T11:48:27.073Z</time>
      </trkpt>
      <trkpt lat="45.56664" lon="6.06856">
        <ele>1653</ele>
        <time>2021-06-27T11:48:28.072Z</time>
      </trkpt>
      <trkpt lat="45.56665" lon="6.06855">
        <ele>1653</ele>
        <time>2021-06-27T11:48:29.073Z</time>
      </trkpt>
      <trkpt lat="45.56665" lon="6.06855">
        <ele>1653</ele>
        <time>2021-06-27T11:48:30.073Z</time>
      </trkpt>
      <trkpt lat="45.56665" lon="6.06855">
        <ele>1652</ele>
        <time>2021-06-27T11:48:31.072Z</time>
      </trkpt>
      <trkpt lat="45.56664" lon="6.06855">
        <ele>1652</ele>
        <time>2021-06-27T11:48:32.072Z</time>
      </trkpt>
      <trkpt lat="45.56664" lon="6.06856">
        <ele>1651</ele>
        <time>2021-06-27T11:48:33.073Z</time>
      </trkpt>
      <trkpt lat="45.56664" lon="6.06856">
        <ele>1651</ele>
        <time>2021-06-27T11:48:34.073Z</time>
      </trkpt>
      <trkpt lat="45.56664" lon="6.06856">
        <ele>1651</ele>
        <time>2021-06-27T11:48:35.073Z</time>
      </trkpt>
      <trkpt lat="45.56664" lon="6.06856">
        <ele>1651</ele>
        <time>2021-06-27T11:48:36.073Z</time>
      </trkpt>
      <trkpt lat="45.56664" lon="6.06856">
        <ele>1651</ele>
        <time>2021-06-27T11:48:37.073Z</time>
      </trkpt>
      <trkpt lat="45.56664" lon="6.06855">
        <ele>1651</ele>
        <time>2021-06-27T11:48:38.073Z</time>
      </trkpt>
      <trkpt lat="45.56664" lon="6.06856">
        <ele>1651</ele>
        <time>2021-06-27T11:48:39.073Z</time>
      </trkpt>
      <trkpt lat="45.56664" lon="6.06856">
        <ele>1651</ele>
        <time>2021-06-27T11:48:40.072Z</time>
      </trkpt>
      <trkpt lat="45.56664" lon="6.06856">
        <ele>1650</ele>
        <time>2021-06-27T11:48:41.073Z</time>
      </trkpt>
      <trkpt lat="45.56664" lon="6.06856">
        <ele>1650</ele>
        <time>2021-06-27T11:48:42.073Z</time>
      </trkpt>
      <trkpt lat="45.56664" lon="6.06857">
        <ele>1649</ele>
        <time>2021-06-27T11:48:43.073Z</time>
      </trkpt>
      <trkpt lat="45.56664" lon="6.06857">
        <ele>1649</ele>
        <time>2021-06-27T11:48:44.073Z</time>
      </trkpt>
      <trkpt lat="45.56664" lon="6.06857">
        <ele>1649</ele>
        <time>2021-06-27T11:48:45.072Z</time>
      </trkpt>
      <trkpt lat="45.56664" lon="6.06857">
        <ele>1649</ele>
        <time>2021-06-27T11:48:46.072Z</time>
      </trkpt>
      <trkpt lat="45.56664" lon="6.06857">
        <ele>1649</ele>
        <time>2021-06-27T11:48:47.073Z</time>
      </trkpt>
      <trkpt lat="45.56664" lon="6.06857">
        <ele>1648</ele>
        <time>2021-06-27T11:48:48.072Z</time>
      </trkpt>
      <trkpt lat="45.56664" lon="6.06857">
        <ele>1648</ele>
        <time>2021-06-27T11:48:49.073Z</time>
      </trkpt>
      <trkpt lat="45.56664" lon="6.06857">
        <ele>1649</ele>
        <time>2021-06-27T11:48:50.072Z</time>
      </trkpt>
      <trkpt lat="45.56664" lon="6.06857">
        <ele>1649</ele>
        <time>2021-06-27T11:48:51.072Z</time>
      </trkpt>
      <trkpt lat="45.56664" lon="6.06857">
        <ele>1650</ele>
        <time>2021-06-27T11:48:52.073Z</time>
      </trkpt>
      <trkpt lat="45.56664" lon="6.06857">
        <ele>1651</ele>
        <time>2021-06-27T11:48:53.073Z</time>
      </trkpt>
      <trkpt lat="45.56664" lon="6.06857">
        <ele>1651</ele>
        <time>2021-06-27T11:48:54.073Z</time>
      </trkpt>
      <trkpt lat="45.56665" lon="6.06856">
        <ele>1652</ele>
        <time>2021-06-27T11:48:55.073Z</time>
      </trkpt>
      <trkpt lat="45.56665" lon="6.06856">
        <ele>1653</ele>
        <time>2021-06-27T11:48:56.073Z</time>
      </trkpt>
      <trkpt lat="45.56665" lon="6.06856">
        <ele>1653</ele>
        <time>2021-06-27T11:48:57.073Z</time>
      </trkpt>
      <trkpt lat="45.56664" lon="6.06856">
        <ele>1653</ele>
        <time>2021-06-27T11:48:58.073Z</time>
      </trkpt>
      <trkpt lat="45.56664" lon="6.06856">
        <ele>1654</ele>
        <time>2021-06-27T11:48:59.073Z</time>
      </trkpt>
      <trkpt lat="45.56664" lon="6.06856">
        <ele>1654</ele>
        <time>2021-06-27T11:49:00.072Z</time>
      </trkpt>
      <trkpt lat="45.56664" lon="6.06856">
        <ele>1654</ele>
        <time>2021-06-27T11:49:01.072Z</time>
      </trkpt>
      <trkpt lat="45.56664" lon="6.06856">
        <ele>1654</ele>
        <time>2021-06-27T11:49:02.073Z</time>
      </trkpt>
      <trkpt lat="45.56664" lon="6.06856">
        <ele>1654</ele>
        <time>2021-06-27T11:49:03.073Z</time>
      </trkpt>
      <trkpt lat="45.56664" lon="6.06856">
        <ele>1654</ele>
        <time>2021-06-27T11:49:04.072Z</time>
      </trkpt>
      <trkpt lat="45.56664" lon="6.06856">
        <ele>1654</ele>
        <time>2021-06-27T11:49:05.073Z</time>
      </trkpt>
      <trkpt lat="45.56664" lon="6.06856">
        <ele>1654</ele>
        <time>2021-06-27T11:49:06.072Z</time>
      </trkpt>
      <trkpt lat="45.56664" lon="6.06855">
        <ele>1655</ele>
        <time>2021-06-27T11:49:07.073Z</time>
      </trkpt>
      <trkpt lat="45.56664" lon="6.06855">
        <ele>1655</ele>
        <time>2021-06-27T11:49:08.072Z</time>
      </trkpt>
      <trkpt lat="45.56664" lon="6.06855">
        <ele>1655</ele>
        <time>2021-06-27T11:49:09.072Z</time>
      </trkpt>
      <trkpt lat="45.56663" lon="6.06855">
        <ele>1655</ele>
        <time>2021-06-27T11:49:10.073Z</time>
      </trkpt>
      <trkpt lat="45.56663" lon="6.06856">
        <ele>1655</ele>
        <time>2021-06-27T11:49:11.073Z</time>
      </trkpt>
      <trkpt lat="45.56663" lon="6.06855">
        <ele>1655</ele>
        <time>2021-06-27T11:49:12.073Z</time>
      </trkpt>
      <trkpt lat="45.56663" lon="6.06855">
        <ele>1655</ele>
        <time>2021-06-27T11:49:13.073Z</time>
      </trkpt>
      <trkpt lat="45.56663" lon="6.06855">
        <ele>1655</ele>
        <time>2021-06-27T11:49:14.073Z</time>
      </trkpt>
      <trkpt lat="45.56663" lon="6.06855">
        <ele>1655</ele>
        <time>2021-06-27T11:49:15.073Z</time>
      </trkpt>
      <trkpt lat="45.56662" lon="6.06855">
        <ele>1655</ele>
        <time>2021-06-27T11:49:16.073Z</time>
      </trkpt>
      <trkpt lat="45.56662" lon="6.06855">
        <ele>1655</ele>
        <time>2021-06-27T11:49:17.072Z</time>
      </trkpt>
      <trkpt lat="45.56662" lon="6.06855">
        <ele>1655</ele>
        <time>2021-06-27T11:49:18.073Z</time>
      </trkpt>
      <trkpt lat="45.56662" lon="6.06855">
        <ele>1655</ele>
        <time>2021-06-27T11:49:19.072Z</time>
      </trkpt>
      <trkpt lat="45.56662" lon="6.06855">
        <ele>1655</ele>
        <time>2021-06-27T11:49:20.072Z</time>
      </trkpt>
      <trkpt lat="45.56662" lon="6.06855">
        <ele>1655</ele>
        <time>2021-06-27T11:49:21.073Z</time>
      </trkpt>
      <trkpt lat="45.56663" lon="6.06855">
        <ele>1655</ele>
        <time>2021-06-27T11:49:22.073Z</time>
      </trkpt>
      <trkpt lat="45.56663" lon="6.06856">
        <ele>1654</ele>
        <time>2021-06-27T11:49:23.073Z</time>
      </trkpt>
      <trkpt lat="45.56663" lon="6.06855">
        <ele>1653</ele>
        <time>2021-06-27T11:49:24.073Z</time>
      </trkpt>
      <trkpt lat="45.56663" lon="6.06856">
        <ele>1652</ele>
        <time>2021-06-27T11:49:25.073Z</time>
      </trkpt>
      <trkpt lat="45.56663" lon="6.06856">
        <ele>1652</ele>
        <time>2021-06-27T11:49:26.073Z</time>
      </trkpt>
      <trkpt lat="45.56663" lon="6.06855">
        <ele>1651</ele>
        <time>2021-06-27T11:49:27.073Z</time>
      </trkpt>
      <trkpt lat="45.56663" lon="6.06856">
        <ele>1651</ele>
        <time>2021-06-27T11:49:28.073Z</time>
      </trkpt>
      <trkpt lat="45.56663" lon="6.06856">
        <ele>1651</ele>
        <time>2021-06-27T11:49:29.073Z</time>
      </trkpt>
      <trkpt lat="45.56662" lon="6.06856">
        <ele>1651</ele>
        <time>2021-06-27T11:49:30.072Z</time>
      </trkpt>
      <trkpt lat="45.56662" lon="6.06856">
        <ele>1650</ele>
        <time>2021-06-27T11:49:31.073Z</time>
      </trkpt>
      <trkpt lat="45.56662" lon="6.06856">
        <ele>1650</ele>
        <time>2021-06-27T11:49:32.073Z</time>
      </trkpt>
      <trkpt lat="45.56662" lon="6.06856">
        <ele>1650</ele>
        <time>2021-06-27T11:49:33.073Z</time>
      </trkpt>
      <trkpt lat="45.56662" lon="6.06856">
        <ele>1649</ele>
        <time>2021-06-27T11:49:34.073Z</time>
      </trkpt>
      <trkpt lat="45.56662" lon="6.06856">
        <ele>1649</ele>
        <time>2021-06-27T11:49:35.073Z</time>
      </trkpt>
      <trkpt lat="45.56662" lon="6.06856">
        <ele>1649</ele>
        <time>2021-06-27T11:49:36.073Z</time>
      </trkpt>
      <trkpt lat="45.56662" lon="6.06856">
        <ele>1649</ele>
        <time>2021-06-27T11:49:37.073Z</time>
      </trkpt>
      <trkpt lat="45.56663" lon="6.06856">
        <ele>1649</ele>
        <time>2021-06-27T11:49:38.073Z</time>
      </trkpt>
      <trkpt lat="45.56663" lon="6.06856">
        <ele>1649</ele>
        <time>2021-06-27T11:49:39.072Z</time>
      </trkpt>
      <trkpt lat="45.56663" lon="6.06856">
        <ele>1649</ele>
        <time>2021-06-27T11:49:40.073Z</time>
      </trkpt>
      <trkpt lat="45.56663" lon="6.06856">
        <ele>1650</ele>
        <time>2021-06-27T11:49:41.072Z</time>
      </trkpt>
      <trkpt lat="45.56663" lon="6.06856">
        <ele>1650</ele>
        <time>2021-06-27T11:49:42.072Z</time>
      </trkpt>
      <trkpt lat="45.56663" lon="6.06856">
        <ele>1650</ele>
        <time>2021-06-27T11:49:43.073Z</time>
      </trkpt>
      <trkpt lat="45.56664" lon="6.06856">
        <ele>1651</ele>
        <time>2021-06-27T11:49:44.073Z</time>
      </trkpt>
      <trkpt lat="45.56664" lon="6.06856">
        <ele>1651</ele>
        <time>2021-06-27T11:49:45.073Z</time>
      </trkpt>
      <trkpt lat="45.56664" lon="6.06856">
        <ele>1651</ele>
        <time>2021-06-27T11:49:46.073Z</time>
      </trkpt>
      <trkpt lat="45.56664" lon="6.06856">
        <ele>1651</ele>
        <time>2021-06-27T11:49:47.073Z</time>
      </trkpt>
      <trkpt lat="45.56664" lon="6.06856">
        <ele>1650</ele>
        <time>2021-06-27T11:49:48.072Z</time>
      </trkpt>
      <trkpt lat="45.56664" lon="6.06856">
        <ele>1650</ele>
        <time>2021-06-27T11:49:49.072Z</time>
      </trkpt>
      <trkpt lat="45.56664" lon="6.06856">
        <ele>1650</ele>
        <time>2021-06-27T11:49:50.073Z</time>
      </trkpt>
      <trkpt lat="45.56664" lon="6.06856">
        <ele>1651</ele>
        <time>2021-06-27T11:49:51.073Z</time>
      </trkpt>
      <trkpt lat="45.56663" lon="6.06856">
        <ele>1651</ele>
        <time>2021-06-27T11:49:52.073Z</time>
      </trkpt>
      <trkpt lat="45.56663" lon="6.06856">
        <ele>1651</ele>
        <time>2021-06-27T11:49:53.073Z</time>
      </trkpt>
      <trkpt lat="45.56663" lon="6.06856">
        <ele>1651</ele>
        <time>2021-06-27T11:49:54.072Z</time>
      </trkpt>
      <trkpt lat="45.56663" lon="6.06856">
        <ele>1651</ele>
        <time>2021-06-27T11:49:55.072Z</time>
      </trkpt>
      <trkpt lat="45.56663" lon="6.06856">
        <ele>1652</ele>
        <time>2021-06-27T11:49:56.073Z</time>
      </trkpt>
      <trkpt lat="45.56663" lon="6.06856">
        <ele>1652</ele>
        <time>2021-06-27T11:49:57.073Z</time>
      </trkpt>
      <trkpt lat="45.56663" lon="6.06856">
        <ele>1653</ele>
        <time>2021-06-27T11:49:58.072Z</time>
      </trkpt>
      <trkpt lat="45.56663" lon="6.06856">
        <ele>1653</ele>
        <time>2021-06-27T11:49:59.073Z</time>
      </trkpt>
      <trkpt lat="45.56663" lon="6.06856">
        <ele>1653</ele>
        <time>2021-06-27T11:50:00.072Z</time>
      </trkpt>
      <trkpt lat="45.56663" lon="6.06856">
        <ele>1654</ele>
        <time>2021-06-27T11:50:01.072Z</time>
      </trkpt>
      <trkpt lat="45.56663" lon="6.06856">
        <ele>1653</ele>
        <time>2021-06-27T11:50:02.073Z</time>
      </trkpt>
      <trkpt lat="45.56662" lon="6.06856">
        <ele>1653</ele>
        <time>2021-06-27T11:50:03.072Z</time>
      </trkpt>
      <trkpt lat="45.56662" lon="6.06856">
        <ele>1653</ele>
        <time>2021-06-27T11:50:04.073Z</time>
      </trkpt>
      <trkpt lat="45.56663" lon="6.06856">
        <ele>1653</ele>
        <time>2021-06-27T11:50:05.072Z</time>
      </trkpt>
      <trkpt lat="45.56663" lon="6.06856">
        <ele>1653</ele>
        <time>2021-06-27T11:50:06.073Z</time>
      </trkpt>
      <trkpt lat="45.56663" lon="6.06856">
        <ele>1653</ele>
        <time>2021-06-27T11:50:07.073Z</time>
      </trkpt>
      <trkpt lat="45.56663" lon="6.06856">
        <ele>1653</ele>
        <time>2021-06-27T11:50:08.072Z</time>
      </trkpt>
      <trkpt lat="45.56663" lon="6.06856">
        <ele>1653</ele>
        <time>2021-06-27T11:50:09.073Z</time>
      </trkpt>
      <trkpt lat="45.56663" lon="6.06856">
        <ele>1653</ele>
        <time>2021-06-27T11:50:10.073Z</time>
      </trkpt>
      <trkpt lat="45.56663" lon="6.06856">
        <ele>1653</ele>
        <time>2021-06-27T11:50:11.072Z</time>
      </trkpt>
      <trkpt lat="45.56663" lon="6.06856">
        <ele>1653</ele>
        <time>2021-06-27T11:50:12.072Z</time>
      </trkpt>
      <trkpt lat="45.56663" lon="6.06856">
        <ele>1654</ele>
        <time>2021-06-27T11:50:13.072Z</time>
      </trkpt>
      <trkpt lat="45.56663" lon="6.06856">
        <ele>1654</ele>
        <time>2021-06-27T11:50:14.073Z</time>
      </trkpt>
      <trkpt lat="45.56663" lon="6.06856">
        <ele>1654</ele>
        <time>2021-06-27T11:50:15.073Z</time>
      </trkpt>
      <trkpt lat="45.56663" lon="6.06856">
        <ele>1654</ele>
        <time>2021-06-27T11:50:16.072Z</time>
      </trkpt>
      <trkpt lat="45.56664" lon="6.06856">
        <ele>1654</ele>
        <time>2021-06-27T11:50:17.073Z</time>
      </trkpt>
      <trkpt lat="45.56664" lon="6.06856">
        <ele>1653</ele>
        <time>2021-06-27T11:50:18.073Z</time>
      </trkpt>
      <trkpt lat="45.56664" lon="6.06856">
        <ele>1653</ele>
        <time>2021-06-27T11:50:19.073Z</time>
      </trkpt>
      <trkpt lat="45.56664" lon="6.06856">
        <ele>1653</ele>
        <time>2021-06-27T11:50:20.073Z</time>
      </trkpt>
      <trkpt lat="45.56664" lon="6.06856">
        <ele>1652</ele>
        <time>2021-06-27T11:50:21.072Z</time>
      </trkpt>
      <trkpt lat="45.56664" lon="6.06856">
        <ele>1652</ele>
        <time>2021-06-27T11:50:22.072Z</time>
      </trkpt>
      <trkpt lat="45.56664" lon="6.06856">
        <ele>1652</ele>
        <time>2021-06-27T11:50:23.073Z</time>
      </trkpt>
      <trkpt lat="45.56664" lon="6.06856">
        <ele>1651</ele>
        <time>2021-06-27T11:50:24.073Z</time>
      </trkpt>
      <trkpt lat="45.56664" lon="6.06856">
        <ele>1651</ele>
        <time>2021-06-27T11:50:25.072Z</time>
      </trkpt>
      <trkpt lat="45.56664" lon="6.06856">
        <ele>1650</ele>
        <time>2021-06-27T11:50:26.072Z</time>
      </trkpt>
      <trkpt lat="45.56664" lon="6.06856">
        <ele>1650</ele>
        <time>2021-06-27T11:50:27.073Z</time>
      </trkpt>
      <trkpt lat="45.56664" lon="6.06856">
        <ele>1650</ele>
        <time>2021-06-27T11:50:28.073Z</time>
      </trkpt>
      <trkpt lat="45.56664" lon="6.06856">
        <ele>1650</ele>
        <time>2021-06-27T11:50:29.072Z</time>
      </trkpt>
      <trkpt lat="45.56664" lon="6.06856">
        <ele>1650</ele>
        <time>2021-06-27T11:50:30.073Z</time>
      </trkpt>
      <trkpt lat="45.56664" lon="6.06856">
        <ele>1651</ele>
        <time>2021-06-27T11:50:31.073Z</time>
      </trkpt>
      <trkpt lat="45.56664" lon="6.06856">
        <ele>1652</ele>
        <time>2021-06-27T11:50:32.072Z</time>
      </trkpt>
      <trkpt lat="45.56664" lon="6.06856">
        <ele>1652</ele>
        <time>2021-06-27T11:50:33.072Z</time>
      </trkpt>
      <trkpt lat="45.56664" lon="6.06856">
        <ele>1652</ele>
        <time>2021-06-27T11:50:34.073Z</time>
      </trkpt>
      <trkpt lat="45.56664" lon="6.06856">
        <ele>1651</ele>
        <time>2021-06-27T11:50:35.073Z</time>
      </trkpt>
      <trkpt lat="45.56663" lon="6.06856">
        <ele>1650</ele>
        <time>2021-06-27T11:50:36.072Z</time>
      </trkpt>
      <trkpt lat="45.56664" lon="6.06856">
        <ele>1650</ele>
        <time>2021-06-27T11:50:37.072Z</time>
      </trkpt>
      <trkpt lat="45.56664" lon="6.06856">
        <ele>1649</ele>
        <time>2021-06-27T11:50:38.073Z</time>
      </trkpt>
      <trkpt lat="45.56664" lon="6.06856">
        <ele>1649</ele>
        <time>2021-06-27T11:50:39.073Z</time>
      </trkpt>
      <trkpt lat="45.56664" lon="6.06856">
        <ele>1648</ele>
        <time>2021-06-27T11:50:40.072Z</time>
      </trkpt>
      <trkpt lat="45.56664" lon="6.06856">
        <ele>1648</ele>
        <time>2021-06-27T11:50:41.072Z</time>
      </trkpt>
      <trkpt lat="45.56664" lon="6.06856">
        <ele>1647</ele>
        <time>2021-06-27T11:50:42.073Z</time>
      </trkpt>
      <trkpt lat="45.56663" lon="6.06856">
        <ele>1647</ele>
        <time>2021-06-27T11:50:43.072Z</time>
      </trkpt>
      <trkpt lat="45.56663" lon="6.06856">
        <ele>1646</ele>
        <time>2021-06-27T11:50:44.072Z</time>
      </trkpt>
      <trkpt lat="45.56663" lon="6.06856">
        <ele>1646</ele>
        <time>2021-06-27T11:50:45.072Z</time>
      </trkpt>
      <trkpt lat="45.56662" lon="6.06856">
        <ele>1646</ele>
        <time>2021-06-27T11:50:46.073Z</time>
      </trkpt>
      <trkpt lat="45.56662" lon="6.06856">
        <ele>1646</ele>
        <time>2021-06-27T11:50:47.073Z</time>
      </trkpt>
      <trkpt lat="45.56662" lon="6.06856">
        <ele>1646</ele>
        <time>2021-06-27T11:50:48.073Z</time>
      </trkpt>
      <trkpt lat="45.56662" lon="6.06856">
        <ele>1647</ele>
        <time>2021-06-27T11:50:49.073Z</time>
      </trkpt>
      <trkpt lat="45.56662" lon="6.06856">
        <ele>1647</ele>
        <time>2021-06-27T11:50:50.073Z</time>
      </trkpt>
      <trkpt lat="45.56662" lon="6.06856">
        <ele>1647</ele>
        <time>2021-06-27T11:50:51.073Z</time>
      </trkpt>
      <trkpt lat="45.56662" lon="6.06856">
        <ele>1647</ele>
        <time>2021-06-27T11:50:52.073Z</time>
      </trkpt>
      <trkpt lat="45.56662" lon="6.06855">
        <ele>1647</ele>
        <time>2021-06-27T11:50:53.073Z</time>
      </trkpt>
      <trkpt lat="45.56662" lon="6.06855">
        <ele>1648</ele>
        <time>2021-06-27T11:50:54.072Z</time>
      </trkpt>
      <trkpt lat="45.56661" lon="6.06856">
        <ele>1647</ele>
        <time>2021-06-27T11:50:55.072Z</time>
      </trkpt>
      <trkpt lat="45.56661" lon="6.06856">
        <ele>1647</ele>
        <time>2021-06-27T11:50:56.073Z</time>
      </trkpt>
      <trkpt lat="45.56661" lon="6.06856">
        <ele>1648</ele>
        <time>2021-06-27T11:50:57.072Z</time>
      </trkpt>
      <trkpt lat="45.56661" lon="6.06856">
        <ele>1647</ele>
        <time>2021-06-27T11:50:58.072Z</time>
      </trkpt>
      <trkpt lat="45.56661" lon="6.06856">
        <ele>1647</ele>
        <time>2021-06-27T11:50:59.073Z</time>
      </trkpt>
      <trkpt lat="45.56661" lon="6.06855">
        <ele>1646</ele>
        <time>2021-06-27T11:51:00.073Z</time>
      </trkpt>
      <trkpt lat="45.56661" lon="6.06855">
        <ele>1645</ele>
        <time>2021-06-27T11:51:01.073Z</time>
      </trkpt>
      <trkpt lat="45.56661" lon="6.06856">
        <ele>1645</ele>
        <time>2021-06-27T11:51:02.072Z</time>
      </trkpt>
      <trkpt lat="45.56661" lon="6.06856">
        <ele>1644</ele>
        <time>2021-06-27T11:51:03.073Z</time>
      </trkpt>
      <trkpt lat="45.56661" lon="6.06856">
        <ele>1644</ele>
        <time>2021-06-27T11:51:04.073Z</time>
      </trkpt>
      <trkpt lat="45.56661" lon="6.06855">
        <ele>1644</ele>
        <time>2021-06-27T11:51:05.073Z</time>
      </trkpt>
      <trkpt lat="45.56661" lon="6.06855">
        <ele>1645</ele>
        <time>2021-06-27T11:51:06.073Z</time>
      </trkpt>
      <trkpt lat="45.56661" lon="6.06855">
        <ele>1645</ele>
        <time>2021-06-27T11:51:07.073Z</time>
      </trkpt>
      <trkpt lat="45.5666" lon="6.06855">
        <ele>1645</ele>
        <time>2021-06-27T11:51:08.073Z</time>
      </trkpt>
      <trkpt lat="45.5666" lon="6.06855">
        <ele>1646</ele>
        <time>2021-06-27T11:51:09.072Z</time>
      </trkpt>
      <trkpt lat="45.5666" lon="6.06855">
        <ele>1646</ele>
        <time>2021-06-27T11:51:10.073Z</time>
      </trkpt>
      <trkpt lat="45.5666" lon="6.06855">
        <ele>1646</ele>
        <time>2021-06-27T11:51:11.073Z</time>
      </trkpt>
      <trkpt lat="45.5666" lon="6.06855">
        <ele>1646</ele>
        <time>2021-06-27T11:51:12.073Z</time>
      </trkpt>
      <trkpt lat="45.5666" lon="6.06855">
        <ele>1646</ele>
        <time>2021-06-27T11:51:13.073Z</time>
      </trkpt>
      <trkpt lat="45.56659" lon="6.06855">
        <ele>1647</ele>
        <time>2021-06-27T11:51:14.073Z</time>
      </trkpt>
      <trkpt lat="45.5666" lon="6.06855">
        <ele>1647</ele>
        <time>2021-06-27T11:51:15.073Z</time>
      </trkpt>
      <trkpt lat="45.5666" lon="6.06855">
        <ele>1647</ele>
        <time>2021-06-27T11:51:16.073Z</time>
      </trkpt>
      <trkpt lat="45.5666" lon="6.06855">
        <ele>1647</ele>
        <time>2021-06-27T11:51:17.073Z</time>
      </trkpt>
      <trkpt lat="45.5666" lon="6.06855">
        <ele>1647</ele>
        <time>2021-06-27T11:51:18.073Z</time>
      </trkpt>
      <trkpt lat="45.5666" lon="6.06855">
        <ele>1647</ele>
        <time>2021-06-27T11:51:19.073Z</time>
      </trkpt>
      <trkpt lat="45.5666" lon="6.06855">
        <ele>1646</ele>
        <time>2021-06-27T11:51:20.073Z</time>
      </trkpt>
      <trkpt lat="45.56661" lon="6.06855">
        <ele>1647</ele>
        <time>2021-06-27T11:51:21.073Z</time>
      </trkpt>
      <trkpt lat="45.56661" lon="6.06855">
        <ele>1647</ele>
        <time>2021-06-27T11:51:22.073Z</time>
      </trkpt>
      <trkpt lat="45.56661" lon="6.06855">
        <ele>1647</ele>
        <time>2021-06-27T11:51:23.073Z</time>
      </trkpt>
      <trkpt lat="45.56661" lon="6.06855">
        <ele>1648</ele>
        <time>2021-06-27T11:51:24.072Z</time>
      </trkpt>
      <trkpt lat="45.56661" lon="6.06855">
        <ele>1648</ele>
        <time>2021-06-27T11:51:25.073Z</time>
      </trkpt>
      <trkpt lat="45.56661" lon="6.06855">
        <ele>1649</ele>
        <time>2021-06-27T11:51:26.073Z</time>
      </trkpt>
      <trkpt lat="45.56661" lon="6.06855">
        <ele>1650</ele>
        <time>2021-06-27T11:51:27.073Z</time>
      </trkpt>
      <trkpt lat="45.56661" lon="6.06855">
        <ele>1650</ele>
        <time>2021-06-27T11:51:28.073Z</time>
      </trkpt>
      <trkpt lat="45.56661" lon="6.06855">
        <ele>1650</ele>
        <time>2021-06-27T11:51:29.073Z</time>
      </trkpt>
      <trkpt lat="45.56661" lon="6.06855">
        <ele>1650</ele>
        <time>2021-06-27T11:51:30.073Z</time>
      </trkpt>
      <trkpt lat="45.56661" lon="6.06855">
        <ele>1650</ele>
        <time>2021-06-27T11:51:31.073Z</time>
      </trkpt>
      <trkpt lat="45.56661" lon="6.06855">
        <ele>1650</ele>
        <time>2021-06-27T11:51:32.073Z</time>
      </trkpt>
      <trkpt lat="45.56661" lon="6.06855">
        <ele>1650</ele>
        <time>2021-06-27T11:51:33.073Z</time>
      </trkpt>
      <trkpt lat="45.56661" lon="6.06855">
        <ele>1649</ele>
        <time>2021-06-27T11:51:34.073Z</time>
      </trkpt>
      <trkpt lat="45.56661" lon="6.06855">
        <ele>1649</ele>
        <time>2021-06-27T11:51:35.073Z</time>
      </trkpt>
      <trkpt lat="45.56661" lon="6.06855">
        <ele>1648</ele>
        <time>2021-06-27T11:51:36.073Z</time>
      </trkpt>
      <trkpt lat="45.56661" lon="6.06855">
        <ele>1648</ele>
        <time>2021-06-27T11:51:37.073Z</time>
      </trkpt>
      <trkpt lat="45.56661" lon="6.06856">
        <ele>1647</ele>
        <time>2021-06-27T11:51:38.072Z</time>
      </trkpt>
      <trkpt lat="45.56661" lon="6.06856">
        <ele>1647</ele>
        <time>2021-06-27T11:51:39.072Z</time>
      </trkpt>
      <trkpt lat="45.56661" lon="6.06856">
        <ele>1647</ele>
        <time>2021-06-27T11:51:40.072Z</time>
      </trkpt>
      <trkpt lat="45.56661" lon="6.06856">
        <ele>1647</ele>
        <time>2021-06-27T11:51:41.073Z</time>
      </trkpt>
      <trkpt lat="45.56661" lon="6.06855">
        <ele>1647</ele>
        <time>2021-06-27T11:51:42.073Z</time>
      </trkpt>
      <trkpt lat="45.56661" lon="6.06855">
        <ele>1647</ele>
        <time>2021-06-27T11:51:43.073Z</time>
      </trkpt>
      <trkpt lat="45.56661" lon="6.06855">
        <ele>1647</ele>
        <time>2021-06-27T11:51:44.073Z</time>
      </trkpt>
      <trkpt lat="45.56661" lon="6.06855">
        <ele>1647</ele>
        <time>2021-06-27T11:51:45.073Z</time>
      </trkpt>
      <trkpt lat="45.56661" lon="6.06855">
        <ele>1647</ele>
        <time>2021-06-27T11:51:46.073Z</time>
      </trkpt>
      <trkpt lat="45.56661" lon="6.06855">
        <ele>1647</ele>
        <time>2021-06-27T11:51:47.073Z</time>
      </trkpt>
      <trkpt lat="45.56661" lon="6.06855">
        <ele>1647</ele>
        <time>2021-06-27T11:51:48.073Z</time>
      </trkpt>
      <trkpt lat="45.56661" lon="6.06855">
        <ele>1647</ele>
        <time>2021-06-27T11:51:49.073Z</time>
      </trkpt>
      <trkpt lat="45.56661" lon="6.06855">
        <ele>1648</ele>
        <time>2021-06-27T11:51:50.072Z</time>
      </trkpt>
      <trkpt lat="45.56661" lon="6.06855">
        <ele>1648</ele>
        <time>2021-06-27T11:51:51.073Z</time>
      </trkpt>
      <trkpt lat="45.56662" lon="6.06855">
        <ele>1648</ele>
        <time>2021-06-27T11:51:52.072Z</time>
      </trkpt>
      <trkpt lat="45.56662" lon="6.06855">
        <ele>1648</ele>
        <time>2021-06-27T11:51:53.073Z</time>
      </trkpt>
      <trkpt lat="45.56662" lon="6.06855">
        <ele>1648</ele>
        <time>2021-06-27T11:51:54.072Z</time>
      </trkpt>
      <trkpt lat="45.56662" lon="6.06855">
        <ele>1647</ele>
        <time>2021-06-27T11:51:55.073Z</time>
      </trkpt>
      <trkpt lat="45.56662" lon="6.06855">
        <ele>1647</ele>
        <time>2021-06-27T11:51:56.072Z</time>
      </trkpt>
      <trkpt lat="45.56662" lon="6.06855">
        <ele>1646</ele>
        <time>2021-06-27T11:51:57.072Z</time>
      </trkpt>
      <trkpt lat="45.56662" lon="6.06855">
        <ele>1646</ele>
        <time>2021-06-27T11:51:58.072Z</time>
      </trkpt>
      <trkpt lat="45.56662" lon="6.06855">
        <ele>1646</ele>
        <time>2021-06-27T11:51:59.072Z</time>
      </trkpt>
      <trkpt lat="45.56662" lon="6.06855">
        <ele>1646</ele>
        <time>2021-06-27T11:52:00.073Z</time>
      </trkpt>
      <trkpt lat="45.56662" lon="6.06855">
        <ele>1646</ele>
        <time>2021-06-27T11:52:01.073Z</time>
      </trkpt>
      <trkpt lat="45.56662" lon="6.06855">
        <ele>1646</ele>
        <time>2021-06-27T11:52:02.073Z</time>
      </trkpt>
      <trkpt lat="45.56662" lon="6.06855">
        <ele>1646</ele>
        <time>2021-06-27T11:52:03.073Z</time>
      </trkpt>
      <trkpt lat="45.56662" lon="6.06855">
        <ele>1646</ele>
        <time>2021-06-27T11:52:04.072Z</time>
      </trkpt>
      <trkpt lat="45.56662" lon="6.06855">
        <ele>1647</ele>
        <time>2021-06-27T11:52:05.073Z</time>
      </trkpt>
      <trkpt lat="45.56662" lon="6.06855">
        <ele>1647</ele>
        <time>2021-06-27T11:52:06.073Z</time>
      </trkpt>
      <trkpt lat="45.56662" lon="6.06855">
        <ele>1648</ele>
        <time>2021-06-27T11:52:07.073Z</time>
      </trkpt>
      <trkpt lat="45.56662" lon="6.06855">
        <ele>1648</ele>
        <time>2021-06-27T11:52:08.073Z</time>
      </trkpt>
      <trkpt lat="45.56662" lon="6.06855">
        <ele>1649</ele>
        <time>2021-06-27T11:52:09.072Z</time>
      </trkpt>
      <trkpt lat="45.56662" lon="6.06855">
        <ele>1649</ele>
        <time>2021-06-27T11:52:10.073Z</time>
      </trkpt>
      <trkpt lat="45.56662" lon="6.06855">
        <ele>1649</ele>
        <time>2021-06-27T11:52:11.073Z</time>
      </trkpt>
      <trkpt lat="45.56662" lon="6.06855">
        <ele>1650</ele>
        <time>2021-06-27T11:52:12.072Z</time>
      </trkpt>
      <trkpt lat="45.56662" lon="6.06855">
        <ele>1650</ele>
        <time>2021-06-27T11:52:13.072Z</time>
      </trkpt>
      <trkpt lat="45.56662" lon="6.06855">
        <ele>1650</ele>
        <time>2021-06-27T11:52:14.073Z</time>
      </trkpt>
      <trkpt lat="45.56662" lon="6.06855">
        <ele>1650</ele>
        <time>2021-06-27T11:52:15.073Z</time>
      </trkpt>
      <trkpt lat="45.56663" lon="6.06855">
        <ele>1649</ele>
        <time>2021-06-27T11:52:16.072Z</time>
      </trkpt>
      <trkpt lat="45.56663" lon="6.06855">
        <ele>1649</ele>
        <time>2021-06-27T11:52:17.073Z</time>
      </trkpt>
      <trkpt lat="45.56663" lon="6.06855">
        <ele>1649</ele>
        <time>2021-06-27T11:52:18.073Z</time>
      </trkpt>
      <trkpt lat="45.56663" lon="6.06855">
        <ele>1648</ele>
        <time>2021-06-27T11:52:19.073Z</time>
      </trkpt>
      <trkpt lat="45.56663" lon="6.06855">
        <ele>1648</ele>
        <time>2021-06-27T11:52:20.073Z</time>
      </trkpt>
      <trkpt lat="45.56663" lon="6.06855">
        <ele>1648</ele>
        <time>2021-06-27T11:52:21.072Z</time>
      </trkpt>
      <trkpt lat="45.56663" lon="6.06855">
        <ele>1648</ele>
        <time>2021-06-27T11:52:22.072Z</time>
      </trkpt>
      <trkpt lat="45.56663" lon="6.06855">
        <ele>1649</ele>
        <time>2021-06-27T11:52:23.073Z</time>
      </trkpt>
      <trkpt lat="45.56663" lon="6.06855">
        <ele>1649</ele>
        <time>2021-06-27T11:52:24.072Z</time>
      </trkpt>
      <trkpt lat="45.56663" lon="6.06855">
        <ele>1650</ele>
        <time>2021-06-27T11:52:25.073Z</time>
      </trkpt>
      <trkpt lat="45.56663" lon="6.06855">
        <ele>1650</ele>
        <time>2021-06-27T11:52:26.072Z</time>
      </trkpt>
      <trkpt lat="45.56663" lon="6.06855">
        <ele>1651</ele>
        <time>2021-06-27T11:52:27.072Z</time>
      </trkpt>
      <trkpt lat="45.56663" lon="6.06854">
        <ele>1651</ele>
        <time>2021-06-27T11:52:28.072Z</time>
      </trkpt>
      <trkpt lat="45.56662" lon="6.06854">
        <ele>1651</ele>
        <time>2021-06-27T11:52:29.072Z</time>
      </trkpt>
      <trkpt lat="45.56662" lon="6.06854">
        <ele>1651</ele>
        <time>2021-06-27T11:52:30.072Z</time>
      </trkpt>
      <trkpt lat="45.56662" lon="6.06854">
        <ele>1651</ele>
        <time>2021-06-27T11:52:31.072Z</time>
      </trkpt>
      <trkpt lat="45.56662" lon="6.06854">
        <ele>1651</ele>
        <time>2021-06-27T11:52:32.073Z</time>
      </trkpt>
      <trkpt lat="45.56662" lon="6.06854">
        <ele>1650</ele>
        <time>2021-06-27T11:52:33.073Z</time>
      </trkpt>
      <trkpt lat="45.56663" lon="6.06854">
        <ele>1650</ele>
        <time>2021-06-27T11:52:34.073Z</time>
      </trkpt>
      <trkpt lat="45.56663" lon="6.06854">
        <ele>1649</ele>
        <time>2021-06-27T11:52:35.073Z</time>
      </trkpt>
      <trkpt lat="45.56663" lon="6.06854">
        <ele>1649</ele>
        <time>2021-06-27T11:52:36.073Z</time>
      </trkpt>
      <trkpt lat="45.56663" lon="6.06854">
        <ele>1648</ele>
        <time>2021-06-27T11:52:37.073Z</time>
      </trkpt>
      <trkpt lat="45.56663" lon="6.06855">
        <ele>1647</ele>
        <time>2021-06-27T11:52:38.072Z</time>
      </trkpt>
      <trkpt lat="45.56663" lon="6.06855">
        <ele>1646</ele>
        <time>2021-06-27T11:52:39.073Z</time>
      </trkpt>
      <trkpt lat="45.56663" lon="6.06855">
        <ele>1646</ele>
        <time>2021-06-27T11:52:40.072Z</time>
      </trkpt>
      <trkpt lat="45.56663" lon="6.06855">
        <ele>1646</ele>
        <time>2021-06-27T11:52:41.073Z</time>
      </trkpt>
      <trkpt lat="45.56663" lon="6.06855">
        <ele>1646</ele>
        <time>2021-06-27T11:52:42.073Z</time>
      </trkpt>
      <trkpt lat="45.56663" lon="6.06854">
        <ele>1647</ele>
        <time>2021-06-27T11:52:43.073Z</time>
      </trkpt>
      <trkpt lat="45.56663" lon="6.06855">
        <ele>1647</ele>
        <time>2021-06-27T11:52:44.072Z</time>
      </trkpt>
      <trkpt lat="45.56663" lon="6.06855">
        <ele>1647</ele>
        <time>2021-06-27T11:52:45.072Z</time>
      </trkpt>
      <trkpt lat="45.56663" lon="6.06855">
        <ele>1648</ele>
        <time>2021-06-27T11:52:46.073Z</time>
      </trkpt>
      <trkpt lat="45.56663" lon="6.06855">
        <ele>1648</ele>
        <time>2021-06-27T11:52:47.073Z</time>
      </trkpt>
      <trkpt lat="45.56663" lon="6.06855">
        <ele>1648</ele>
        <time>2021-06-27T11:52:48.072Z</time>
      </trkpt>
      <trkpt lat="45.56662" lon="6.06855">
        <ele>1649</ele>
        <time>2021-06-27T11:52:49.072Z</time>
      </trkpt>
      <trkpt lat="45.56662" lon="6.06855">
        <ele>1649</ele>
        <time>2021-06-27T11:52:50.072Z</time>
      </trkpt>
      <trkpt lat="45.56662" lon="6.06855">
        <ele>1650</ele>
        <time>2021-06-27T11:52:51.073Z</time>
      </trkpt>
      <trkpt lat="45.56662" lon="6.06855">
        <ele>1650</ele>
        <time>2021-06-27T11:52:52.073Z</time>
      </trkpt>
      <trkpt lat="45.56662" lon="6.06855">
        <ele>1651</ele>
        <time>2021-06-27T11:52:53.073Z</time>
      </trkpt>
      <trkpt lat="45.56662" lon="6.06855">
        <ele>1651</ele>
        <time>2021-06-27T11:52:54.073Z</time>
      </trkpt>
      <trkpt lat="45.56662" lon="6.06855">
        <ele>1651</ele>
        <time>2021-06-27T11:52:55.072Z</time>
      </trkpt>
      <trkpt lat="45.56662" lon="6.06855">
        <ele>1651</ele>
        <time>2021-06-27T11:52:56.073Z</time>
      </trkpt>
      <trkpt lat="45.56662" lon="6.06855">
        <ele>1651</ele>
        <time>2021-06-27T11:52:57.073Z</time>
      </trkpt>
      <trkpt lat="45.56662" lon="6.06855">
        <ele>1651</ele>
        <time>2021-06-27T11:52:58.072Z</time>
      </trkpt>
      <trkpt lat="45.56662" lon="6.06855">
        <ele>1651</ele>
        <time>2021-06-27T11:52:59.073Z</time>
      </trkpt>
      <trkpt lat="45.56661" lon="6.06855">
        <ele>1651</ele>
        <time>2021-06-27T11:53:00.073Z</time>
      </trkpt>
      <trkpt lat="45.56661" lon="6.06855">
        <ele>1651</ele>
        <time>2021-06-27T11:53:01.073Z</time>
      </trkpt>
      <trkpt lat="45.56661" lon="6.06855">
        <ele>1651</ele>
        <time>2021-06-27T11:53:02.073Z</time>
      </trkpt>
      <trkpt lat="45.56661" lon="6.06855">
        <ele>1650</ele>
        <time>2021-06-27T11:53:03.072Z</time>
      </trkpt>
      <trkpt lat="45.56661" lon="6.06855">
        <ele>1650</ele>
        <time>2021-06-27T11:53:04.073Z</time>
      </trkpt>
      <trkpt lat="45.56661" lon="6.06855">
        <ele>1650</ele>
        <time>2021-06-27T11:53:05.072Z</time>
      </trkpt>
      <trkpt lat="45.56662" lon="6.06855">
        <ele>1650</ele>
        <time>2021-06-27T11:53:06.072Z</time>
      </trkpt>
      <trkpt lat="45.56662" lon="6.06855">
        <ele>1650</ele>
        <time>2021-06-27T11:53:07.073Z</time>
      </trkpt>
      <trkpt lat="45.56662" lon="6.06856">
        <ele>1650</ele>
        <time>2021-06-27T11:53:08.073Z</time>
      </trkpt>
      <trkpt lat="45.56662" lon="6.06856">
        <ele>1650</ele>
        <time>2021-06-27T11:53:09.072Z</time>
      </trkpt>
      <trkpt lat="45.56662" lon="6.06856">
        <ele>1650</ele>
        <time>2021-06-27T11:53:10.073Z</time>
      </trkpt>
      <trkpt lat="45.56662" lon="6.06856">
        <ele>1651</ele>
        <time>2021-06-27T11:53:11.073Z</time>
      </trkpt>
      <trkpt lat="45.56662" lon="6.06857">
        <ele>1651</ele>
        <time>2021-06-27T11:53:12.073Z</time>
      </trkpt>
      <trkpt lat="45.56662" lon="6.06856">
        <ele>1651</ele>
        <time>2021-06-27T11:53:13.073Z</time>
      </trkpt>
      <trkpt lat="45.56662" lon="6.06856">
        <ele>1652</ele>
        <time>2021-06-27T11:53:14.072Z</time>
      </trkpt>
      <trkpt lat="45.56662" lon="6.06856">
        <ele>1652</ele>
        <time>2021-06-27T11:53:15.072Z</time>
      </trkpt>
      <trkpt lat="45.56662" lon="6.06857">
        <ele>1652</ele>
        <time>2021-06-27T11:53:16.073Z</time>
      </trkpt>
      <trkpt lat="45.56662" lon="6.06857">
        <ele>1652</ele>
        <time>2021-06-27T11:53:17.073Z</time>
      </trkpt>
      <trkpt lat="45.56661" lon="6.06857">
        <ele>1652</ele>
        <time>2021-06-27T11:53:18.073Z</time>
      </trkpt>
      <trkpt lat="45.56661" lon="6.06857">
        <ele>1652</ele>
        <time>2021-06-27T11:53:19.073Z</time>
      </trkpt>
      <trkpt lat="45.56661" lon="6.06857">
        <ele>1652</ele>
        <time>2021-06-27T11:53:20.072Z</time>
      </trkpt>
      <trkpt lat="45.56662" lon="6.06857">
        <ele>1652</ele>
        <time>2021-06-27T11:53:21.073Z</time>
      </trkpt>
      <trkpt lat="45.56662" lon="6.06857">
        <ele>1652</ele>
        <time>2021-06-27T11:53:22.072Z</time>
      </trkpt>
      <trkpt lat="45.56662" lon="6.06857">
        <ele>1652</ele>
        <time>2021-06-27T11:53:23.073Z</time>
      </trkpt>
      <trkpt lat="45.56662" lon="6.06857">
        <ele>1653</ele>
        <time>2021-06-27T11:53:24.072Z</time>
      </trkpt>
      <trkpt lat="45.56662" lon="6.06857">
        <ele>1653</ele>
        <time>2021-06-27T11:53:25.073Z</time>
      </trkpt>
      <trkpt lat="45.56662" lon="6.06857">
        <ele>1653</ele>
        <time>2021-06-27T11:53:26.073Z</time>
      </trkpt>
      <trkpt lat="45.56662" lon="6.06857">
        <ele>1653</ele>
        <time>2021-06-27T11:53:27.072Z</time>
      </trkpt>
      <trkpt lat="45.56662" lon="6.06857">
        <ele>1652</ele>
        <time>2021-06-27T11:53:28.073Z</time>
      </trkpt>
      <trkpt lat="45.56662" lon="6.06857">
        <ele>1652</ele>
        <time>2021-06-27T11:53:29.072Z</time>
      </trkpt>
      <trkpt lat="45.56662" lon="6.06857">
        <ele>1652</ele>
        <time>2021-06-27T11:53:30.073Z</time>
      </trkpt>
      <trkpt lat="45.56662" lon="6.06857">
        <ele>1652</ele>
        <time>2021-06-27T11:53:31.073Z</time>
      </trkpt>
      <trkpt lat="45.56662" lon="6.06856">
        <ele>1651</ele>
        <time>2021-06-27T11:53:32.073Z</time>
      </trkpt>
      <trkpt lat="45.56662" lon="6.06856">
        <ele>1651</ele>
        <time>2021-06-27T11:53:33.073Z</time>
      </trkpt>
      <trkpt lat="45.56662" lon="6.06856">
        <ele>1650</ele>
        <time>2021-06-27T11:53:34.073Z</time>
      </trkpt>
      <trkpt lat="45.56662" lon="6.06857">
        <ele>1650</ele>
        <time>2021-06-27T11:53:35.072Z</time>
      </trkpt>
      <trkpt lat="45.56663" lon="6.06857">
        <ele>1649</ele>
        <time>2021-06-27T11:53:36.072Z</time>
      </trkpt>
      <trkpt lat="45.56663" lon="6.06857">
        <ele>1648</ele>
        <time>2021-06-27T11:53:37.073Z</time>
      </trkpt>
      <trkpt lat="45.56662" lon="6.06857">
        <ele>1647</ele>
        <time>2021-06-27T11:53:38.073Z</time>
      </trkpt>
      <trkpt lat="45.56662" lon="6.06857">
        <ele>1647</ele>
        <time>2021-06-27T11:53:39.072Z</time>
      </trkpt>
      <trkpt lat="45.56662" lon="6.06857">
        <ele>1647</ele>
        <time>2021-06-27T11:53:40.073Z</time>
      </trkpt>
      <trkpt lat="45.56662" lon="6.06856">
        <ele>1648</ele>
        <time>2021-06-27T11:53:41.072Z</time>
      </trkpt>
      <trkpt lat="45.56662" lon="6.06856">
        <ele>1648</ele>
        <time>2021-06-27T11:53:42.072Z</time>
      </trkpt>
      <trkpt lat="45.56662" lon="6.06856">
        <ele>1648</ele>
        <time>2021-06-27T11:53:43.073Z</time>
      </trkpt>
      <trkpt lat="45.56662" lon="6.06856">
        <ele>1648</ele>
        <time>2021-06-27T11:53:44.073Z</time>
      </trkpt>
      <trkpt lat="45.56663" lon="6.06856">
        <ele>1648</ele>
        <time>2021-06-27T11:53:45.073Z</time>
      </trkpt>
      <trkpt lat="45.56663" lon="6.06857">
        <ele>1648</ele>
        <time>2021-06-27T11:53:46.073Z</time>
      </trkpt>
      <trkpt lat="45.56663" lon="6.06857">
        <ele>1648</ele>
        <time>2021-06-27T11:53:47.073Z</time>
      </trkpt>
      <trkpt lat="45.56663" lon="6.06856">
        <ele>1648</ele>
        <time>2021-06-27T11:53:48.072Z</time>
      </trkpt>
      <trkpt lat="45.56663" lon="6.06856">
        <ele>1648</ele>
        <time>2021-06-27T11:53:49.073Z</time>
      </trkpt>
      <trkpt lat="45.56663" lon="6.06856">
        <ele>1648</ele>
        <time>2021-06-27T11:53:50.073Z</time>
      </trkpt>
      <trkpt lat="45.56663" lon="6.06856">
        <ele>1648</ele>
        <time>2021-06-27T11:53:51.072Z</time>
      </trkpt>
      <trkpt lat="45.56663" lon="6.06856">
        <ele>1648</ele>
        <time>2021-06-27T11:53:52.073Z</time>
      </trkpt>
      <trkpt lat="45.56663" lon="6.06856">
        <ele>1648</ele>
        <time>2021-06-27T11:53:53.072Z</time>
      </trkpt>
      <trkpt lat="45.56663" lon="6.06856">
        <ele>1648</ele>
        <time>2021-06-27T11:53:54.073Z</time>
      </trkpt>
      <trkpt lat="45.56663" lon="6.06856">
        <ele>1647</ele>
        <time>2021-06-27T11:53:55.072Z</time>
      </trkpt>
      <trkpt lat="45.56663" lon="6.06856">
        <ele>1647</ele>
        <time>2021-06-27T11:53:56.072Z</time>
      </trkpt>
      <trkpt lat="45.56663" lon="6.06856">
        <ele>1647</ele>
        <time>2021-06-27T11:53:57.073Z</time>
      </trkpt>
      <trkpt lat="45.56663" lon="6.06856">
        <ele>1647</ele>
        <time>2021-06-27T11:53:58.072Z</time>
      </trkpt>
      <trkpt lat="45.56663" lon="6.06856">
        <ele>1647</ele>
        <time>2021-06-27T11:53:59.073Z</time>
      </trkpt>
      <trkpt lat="45.56664" lon="6.06856">
        <ele>1647</ele>
        <time>2021-06-27T11:54:00.073Z</time>
      </trkpt>
      <trkpt lat="45.56664" lon="6.06856">
        <ele>1647</ele>
        <time>2021-06-27T11:54:01.073Z</time>
      </trkpt>
      <trkpt lat="45.56664" lon="6.06856">
        <ele>1647</ele>
        <time>2021-06-27T11:54:02.072Z</time>
      </trkpt>
      <trkpt lat="45.56664" lon="6.06857">
        <ele>1648</ele>
        <time>2021-06-27T11:54:03.072Z</time>
      </trkpt>
      <trkpt lat="45.56664" lon="6.06857">
        <ele>1648</ele>
        <time>2021-06-27T11:54:04.073Z</time>
      </trkpt>
      <trkpt lat="45.56664" lon="6.06857">
        <ele>1649</ele>
        <time>2021-06-27T11:54:05.073Z</time>
      </trkpt>
      <trkpt lat="45.56664" lon="6.06857">
        <ele>1649</ele>
        <time>2021-06-27T11:54:06.072Z</time>
      </trkpt>
      <trkpt lat="45.56664" lon="6.06857">
        <ele>1649</ele>
        <time>2021-06-27T11:54:07.073Z</time>
      </trkpt>
      <trkpt lat="45.56664" lon="6.06857">
        <ele>1649</ele>
        <time>2021-06-27T11:54:08.073Z</time>
      </trkpt>
      <trkpt lat="45.56664" lon="6.06857">
        <ele>1649</ele>
        <time>2021-06-27T11:54:09.073Z</time>
      </trkpt>
      <trkpt lat="45.56665" lon="6.06857">
        <ele>1650</ele>
        <time>2021-06-27T11:54:10.073Z</time>
      </trkpt>
      <trkpt lat="45.56665" lon="6.06857">
        <ele>1650</ele>
        <time>2021-06-27T11:54:11.072Z</time>
      </trkpt>
      <trkpt lat="45.56665" lon="6.06857">
        <ele>1650</ele>
        <time>2021-06-27T11:54:12.073Z</time>
      </trkpt>
      <trkpt lat="45.56665" lon="6.06857">
        <ele>1651</ele>
        <time>2021-06-27T11:54:13.073Z</time>
      </trkpt>
      <trkpt lat="45.56665" lon="6.06857">
        <ele>1651</ele>
        <time>2021-06-27T11:54:14.073Z</time>
      </trkpt>
      <trkpt lat="45.56665" lon="6.06857">
        <ele>1651</ele>
        <time>2021-06-27T11:54:15.073Z</time>
      </trkpt>
      <trkpt lat="45.56665" lon="6.06857">
        <ele>1651</ele>
        <time>2021-06-27T11:54:16.072Z</time>
      </trkpt>
      <trkpt lat="45.56665" lon="6.06857">
        <ele>1651</ele>
        <time>2021-06-27T11:54:17.073Z</time>
      </trkpt>
      <trkpt lat="45.56665" lon="6.06857">
        <ele>1651</ele>
        <time>2021-06-27T11:54:18.073Z</time>
      </trkpt>
      <trkpt lat="45.56665" lon="6.06857">
        <ele>1651</ele>
        <time>2021-06-27T11:54:19.072Z</time>
      </trkpt>
      <trkpt lat="45.56665" lon="6.06857">
        <ele>1650</ele>
        <time>2021-06-27T11:54:20.072Z</time>
      </trkpt>
      <trkpt lat="45.56665" lon="6.06856">
        <ele>1650</ele>
        <time>2021-06-27T11:54:21.073Z</time>
      </trkpt>
      <trkpt lat="45.56665" lon="6.06856">
        <ele>1650</ele>
        <time>2021-06-27T11:54:22.072Z</time>
      </trkpt>
      <trkpt lat="45.56664" lon="6.06856">
        <ele>1649</ele>
        <time>2021-06-27T11:54:23.072Z</time>
      </trkpt>
      <trkpt lat="45.56664" lon="6.06856">
        <ele>1649</ele>
        <time>2021-06-27T11:54:24.073Z</time>
      </trkpt>
      <trkpt lat="45.56664" lon="6.06856">
        <ele>1649</ele>
        <time>2021-06-27T11:54:25.072Z</time>
      </trkpt>
      <trkpt lat="45.56664" lon="6.06855">
        <ele>1649</ele>
        <time>2021-06-27T11:54:26.073Z</time>
      </trkpt>
      <trkpt lat="45.56664" lon="6.06855">
        <ele>1649</ele>
        <time>2021-06-27T11:54:27.072Z</time>
      </trkpt>
      <trkpt lat="45.56663" lon="6.06855">
        <ele>1649</ele>
        <time>2021-06-27T11:54:28.073Z</time>
      </trkpt>
      <trkpt lat="45.56663" lon="6.06855">
        <ele>1649</ele>
        <time>2021-06-27T11:54:29.072Z</time>
      </trkpt>
      <trkpt lat="45.56664" lon="6.06855">
        <ele>1649</ele>
        <time>2021-06-27T11:54:30.072Z</time>
      </trkpt>
      <trkpt lat="45.56664" lon="6.06855">
        <ele>1648</ele>
        <time>2021-06-27T11:54:31.072Z</time>
      </trkpt>
      <trkpt lat="45.56663" lon="6.06855">
        <ele>1648</ele>
        <time>2021-06-27T11:54:32.072Z</time>
      </trkpt>
      <trkpt lat="45.56663" lon="6.06854">
        <ele>1647</ele>
        <time>2021-06-27T11:54:33.073Z</time>
      </trkpt>
      <trkpt lat="45.56663" lon="6.06854">
        <ele>1647</ele>
        <time>2021-06-27T11:54:34.073Z</time>
      </trkpt>
      <trkpt lat="45.56663" lon="6.06854">
        <ele>1647</ele>
        <time>2021-06-27T11:54:35.073Z</time>
      </trkpt>
      <trkpt lat="45.56663" lon="6.06854">
        <ele>1647</ele>
        <time>2021-06-27T11:54:36.072Z</time>
      </trkpt>
      <trkpt lat="45.56663" lon="6.06854">
        <ele>1647</ele>
        <time>2021-06-27T11:54:37.073Z</time>
      </trkpt>
      <trkpt lat="45.56663" lon="6.06855">
        <ele>1647</ele>
        <time>2021-06-27T11:54:38.072Z</time>
      </trkpt>
      <trkpt lat="45.56663" lon="6.06855">
        <ele>1648</ele>
        <time>2021-06-27T11:54:39.072Z</time>
      </trkpt>
      <trkpt lat="45.56663" lon="6.06855">
        <ele>1648</ele>
        <time>2021-06-27T11:54:40.073Z</time>
      </trkpt>
      <trkpt lat="45.56663" lon="6.06855">
        <ele>1648</ele>
        <time>2021-06-27T11:54:41.072Z</time>
      </trkpt>
      <trkpt lat="45.56663" lon="6.06855">
        <ele>1648</ele>
        <time>2021-06-27T11:54:42.073Z</time>
      </trkpt>
      <trkpt lat="45.56663" lon="6.06855">
        <ele>1648</ele>
        <time>2021-06-27T11:54:43.072Z</time>
      </trkpt>
      <trkpt lat="45.56663" lon="6.06855">
        <ele>1648</ele>
        <time>2021-06-27T11:54:44.072Z</time>
      </trkpt>
      <trkpt lat="45.56662" lon="6.06855">
        <ele>1648</ele>
        <time>2021-06-27T11:54:45.073Z</time>
      </trkpt>
      <trkpt lat="45.56663" lon="6.06854">
        <ele>1648</ele>
        <time>2021-06-27T11:54:46.073Z</time>
      </trkpt>
      <trkpt lat="45.56663" lon="6.06854">
        <ele>1648</ele>
        <time>2021-06-27T11:54:47.073Z</time>
      </trkpt>
      <trkpt lat="45.56663" lon="6.06854">
        <ele>1648</ele>
        <time>2021-06-27T11:54:48.073Z</time>
      </trkpt>
      <trkpt lat="45.56663" lon="6.06854">
        <ele>1649</ele>
        <time>2021-06-27T11:54:49.073Z</time>
      </trkpt>
      <trkpt lat="45.56663" lon="6.06854">
        <ele>1649</ele>
        <time>2021-06-27T11:54:50.072Z</time>
      </trkpt>
      <trkpt lat="45.56663" lon="6.06854">
        <ele>1649</ele>
        <time>2021-06-27T11:54:51.073Z</time>
      </trkpt>
      <trkpt lat="45.56663" lon="6.06854">
        <ele>1649</ele>
        <time>2021-06-27T11:54:52.073Z</time>
      </trkpt>
      <trkpt lat="45.56663" lon="6.06854">
        <ele>1650</ele>
        <time>2021-06-27T11:54:53.072Z</time>
      </trkpt>
      <trkpt lat="45.56663" lon="6.06854">
        <ele>1650</ele>
        <time>2021-06-27T11:54:54.073Z</time>
      </trkpt>
      <trkpt lat="45.56663" lon="6.06855">
        <ele>1650</ele>
        <time>2021-06-27T11:54:55.072Z</time>
      </trkpt>
      <trkpt lat="45.56663" lon="6.06855">
        <ele>1650</ele>
        <time>2021-06-27T11:54:56.073Z</time>
      </trkpt>
      <trkpt lat="45.56663" lon="6.06855">
        <ele>1651</ele>
        <time>2021-06-27T11:54:57.073Z</time>
      </trkpt>
      <trkpt lat="45.56663" lon="6.06855">
        <ele>1651</ele>
        <time>2021-06-27T11:54:58.073Z</time>
      </trkpt>
      <trkpt lat="45.56663" lon="6.06855">
        <ele>1651</ele>
        <time>2021-06-27T11:54:59.073Z</time>
      </trkpt>
      <trkpt lat="45.56663" lon="6.06855">
        <ele>1652</ele>
        <time>2021-06-27T11:55:00.073Z</time>
      </trkpt>
      <trkpt lat="45.56663" lon="6.06855">
        <ele>1652</ele>
        <time>2021-06-27T11:55:01.073Z</time>
      </trkpt>
      <trkpt lat="45.56663" lon="6.06855">
        <ele>1651</ele>
        <time>2021-06-27T11:55:02.073Z</time>
      </trkpt>
      <trkpt lat="45.56663" lon="6.06855">
        <ele>1651</ele>
        <time>2021-06-27T11:55:03.073Z</time>
      </trkpt>
      <trkpt lat="45.56663" lon="6.06855">
        <ele>1651</ele>
        <time>2021-06-27T11:55:04.072Z</time>
      </trkpt>
      <trkpt lat="45.56663" lon="6.06856">
        <ele>1652</ele>
        <time>2021-06-27T11:55:05.073Z</time>
      </trkpt>
      <trkpt lat="45.56663" lon="6.06856">
        <ele>1652</ele>
        <time>2021-06-27T11:55:06.073Z</time>
      </trkpt>
      <trkpt lat="45.56663" lon="6.06856">
        <ele>1652</ele>
        <time>2021-06-27T11:55:07.073Z</time>
      </trkpt>
      <trkpt lat="45.56663" lon="6.06856">
        <ele>1652</ele>
        <time>2021-06-27T11:55:08.072Z</time>
      </trkpt>
      <trkpt lat="45.56663" lon="6.06856">
        <ele>1651</ele>
        <time>2021-06-27T11:55:09.073Z</time>
      </trkpt>
      <trkpt lat="45.56663" lon="6.06856">
        <ele>1651</ele>
        <time>2021-06-27T11:55:10.073Z</time>
      </trkpt>
      <trkpt lat="45.56663" lon="6.06856">
        <ele>1651</ele>
        <time>2021-06-27T11:55:11.072Z</time>
      </trkpt>
      <trkpt lat="45.56663" lon="6.06856">
        <ele>1651</ele>
        <time>2021-06-27T11:55:12.073Z</time>
      </trkpt>
      <trkpt lat="45.56663" lon="6.06856">
        <ele>1651</ele>
        <time>2021-06-27T11:55:13.073Z</time>
      </trkpt>
      <trkpt lat="45.56663" lon="6.06856">
        <ele>1651</ele>
        <time>2021-06-27T11:55:14.072Z</time>
      </trkpt>
      <trkpt lat="45.56663" lon="6.06856">
        <ele>1651</ele>
        <time>2021-06-27T11:55:15.072Z</time>
      </trkpt>
      <trkpt lat="45.56663" lon="6.06856">
        <ele>1651</ele>
        <time>2021-06-27T11:55:16.073Z</time>
      </trkpt>
      <trkpt lat="45.56663" lon="6.06856">
        <ele>1650</ele>
        <time>2021-06-27T11:55:17.073Z</time>
      </trkpt>
      <trkpt lat="45.56663" lon="6.06856">
        <ele>1650</ele>
        <time>2021-06-27T11:55:18.073Z</time>
      </trkpt>
      <trkpt lat="45.56663" lon="6.06856">
        <ele>1649</ele>
        <time>2021-06-27T11:55:19.073Z</time>
      </trkpt>
      <trkpt lat="45.56663" lon="6.06856">
        <ele>1649</ele>
        <time>2021-06-27T11:55:20.072Z</time>
      </trkpt>
      <trkpt lat="45.56663" lon="6.06856">
        <ele>1649</ele>
        <time>2021-06-27T11:55:21.073Z</time>
      </trkpt>
      <trkpt lat="45.56663" lon="6.06856">
        <ele>1648</ele>
        <time>2021-06-27T11:55:22.073Z</time>
      </trkpt>
      <trkpt lat="45.56662" lon="6.06856">
        <ele>1648</ele>
        <time>2021-06-27T11:55:23.072Z</time>
      </trkpt>
      <trkpt lat="45.56662" lon="6.06856">
        <ele>1648</ele>
        <time>2021-06-27T11:55:24.073Z</time>
      </trkpt>
      <trkpt lat="45.56662" lon="6.06856">
        <ele>1648</ele>
        <time>2021-06-27T11:55:25.073Z</time>
      </trkpt>
      <trkpt lat="45.56662" lon="6.06855">
        <ele>1648</ele>
        <time>2021-06-27T11:55:26.073Z</time>
      </trkpt>
      <trkpt lat="45.56662" lon="6.06855">
        <ele>1648</ele>
        <time>2021-06-27T11:55:27.073Z</time>
      </trkpt>
      <trkpt lat="45.56662" lon="6.06856">
        <ele>1649</ele>
        <time>2021-06-27T11:55:28.072Z</time>
      </trkpt>
      <trkpt lat="45.56662" lon="6.06856">
        <ele>1650</ele>
        <time>2021-06-27T11:55:29.073Z</time>
      </trkpt>
      <trkpt lat="45.56662" lon="6.06856">
        <ele>1650</ele>
        <time>2021-06-27T11:55:30.073Z</time>
      </trkpt>
      <trkpt lat="45.56662" lon="6.06856">
        <ele>1651</ele>
        <time>2021-06-27T11:55:31.072Z</time>
      </trkpt>
      <trkpt lat="45.56662" lon="6.06856">
        <ele>1651</ele>
        <time>2021-06-27T11:55:32.072Z</time>
      </trkpt>
      <trkpt lat="45.56662" lon="6.06856">
        <ele>1651</ele>
        <time>2021-06-27T11:55:33.073Z</time>
      </trkpt>
      <trkpt lat="45.56662" lon="6.06856">
        <ele>1651</ele>
        <time>2021-06-27T11:55:34.073Z</time>
      </trkpt>
      <trkpt lat="45.56662" lon="6.06856">
        <ele>1651</ele>
        <time>2021-06-27T11:55:35.073Z</time>
      </trkpt>
      <trkpt lat="45.56662" lon="6.06856">
        <ele>1651</ele>
        <time>2021-06-27T11:55:36.073Z</time>
      </trkpt>
      <trkpt lat="45.56663" lon="6.06856">
        <ele>1651</ele>
        <time>2021-06-27T11:55:37.073Z</time>
      </trkpt>
      <trkpt lat="45.56662" lon="6.06856">
        <ele>1651</ele>
        <time>2021-06-27T11:55:38.072Z</time>
      </trkpt>
      <trkpt lat="45.56662" lon="6.06856">
        <ele>1651</ele>
        <time>2021-06-27T11:55:39.073Z</time>
      </trkpt>
      <trkpt lat="45.56662" lon="6.06856">
        <ele>1650</ele>
        <time>2021-06-27T11:55:40.073Z</time>
      </trkpt>
      <trkpt lat="45.56662" lon="6.06856">
        <ele>1650</ele>
        <time>2021-06-27T11:55:41.073Z</time>
      </trkpt>
      <trkpt lat="45.56662" lon="6.06856">
        <ele>1650</ele>
        <time>2021-06-27T11:55:42.073Z</time>
      </trkpt>
      <trkpt lat="45.56662" lon="6.06857">
        <ele>1650</ele>
        <time>2021-06-27T11:55:43.073Z</time>
      </trkpt>
      <trkpt lat="45.56662" lon="6.06856">
        <ele>1650</ele>
        <time>2021-06-27T11:55:44.073Z</time>
      </trkpt>
      <trkpt lat="45.56662" lon="6.06856">
        <ele>1650</ele>
        <time>2021-06-27T11:55:45.072Z</time>
      </trkpt>
      <trkpt lat="45.56662" lon="6.06856">
        <ele>1650</ele>
        <time>2021-06-27T11:55:46.073Z</time>
      </trkpt>
      <trkpt lat="45.56662" lon="6.06856">
        <ele>1651</ele>
        <time>2021-06-27T11:55:47.073Z</time>
      </trkpt>
      <trkpt lat="45.56662" lon="6.06856">
        <ele>1651</ele>
        <time>2021-06-27T11:55:48.073Z</time>
      </trkpt>
      <trkpt lat="45.56662" lon="6.06856">
        <ele>1650</ele>
        <time>2021-06-27T11:55:49.073Z</time>
      </trkpt>
      <trkpt lat="45.56662" lon="6.06856">
        <ele>1651</ele>
        <time>2021-06-27T11:55:50.073Z</time>
      </trkpt>
      <trkpt lat="45.56662" lon="6.06856">
        <ele>1651</ele>
        <time>2021-06-27T11:55:51.072Z</time>
      </trkpt>
      <trkpt lat="45.56662" lon="6.06856">
        <ele>1651</ele>
        <time>2021-06-27T11:55:52.072Z</time>
      </trkpt>
      <trkpt lat="45.56662" lon="6.06856">
        <ele>1651</ele>
        <time>2021-06-27T11:55:53.073Z</time>
      </trkpt>
      <trkpt lat="45.56662" lon="6.06856">
        <ele>1650</ele>
        <time>2021-06-27T11:55:54.073Z</time>
      </trkpt>
      <trkpt lat="45.56663" lon="6.06856">
        <ele>1650</ele>
        <time>2021-06-27T11:55:55.072Z</time>
      </trkpt>
      <trkpt lat="45.56663" lon="6.06856">
        <ele>1650</ele>
        <time>2021-06-27T11:55:56.073Z</time>
      </trkpt>
      <trkpt lat="45.56663" lon="6.06856">
        <ele>1649</ele>
        <time>2021-06-27T11:55:57.072Z</time>
      </trkpt>
      <trkpt lat="45.56663" lon="6.06856">
        <ele>1649</ele>
        <time>2021-06-27T11:55:58.072Z</time>
      </trkpt>
      <trkpt lat="45.56663" lon="6.06856">
        <ele>1649</ele>
        <time>2021-06-27T11:55:59.073Z</time>
      </trkpt>
      <trkpt lat="45.56663" lon="6.06856">
        <ele>1649</ele>
        <time>2021-06-27T11:56:00.072Z</time>
      </trkpt>
      <trkpt lat="45.56663" lon="6.06856">
        <ele>1649</ele>
        <time>2021-06-27T11:56:01.072Z</time>
      </trkpt>
      <trkpt lat="45.56663" lon="6.06856">
        <ele>1649</ele>
        <time>2021-06-27T11:56:02.073Z</time>
      </trkpt>
      <trkpt lat="45.56663" lon="6.06856">
        <ele>1649</ele>
        <time>2021-06-27T11:56:03.072Z</time>
      </trkpt>
      <trkpt lat="45.56663" lon="6.06856">
        <ele>1650</ele>
        <time>2021-06-27T11:56:04.073Z</time>
      </trkpt>
      <trkpt lat="45.56663" lon="6.06856">
        <ele>1650</ele>
        <time>2021-06-27T11:56:05.073Z</time>
      </trkpt>
      <trkpt lat="45.56663" lon="6.06856">
        <ele>1650</ele>
        <time>2021-06-27T11:56:06.073Z</time>
      </trkpt>
      <trkpt lat="45.56663" lon="6.06856">
        <ele>1650</ele>
        <time>2021-06-27T11:56:07.073Z</time>
      </trkpt>
      <trkpt lat="45.56663" lon="6.06856">
        <ele>1650</ele>
        <time>2021-06-27T11:56:08.073Z</time>
      </trkpt>
      <trkpt lat="45.56663" lon="6.06856">
        <ele>1650</ele>
        <time>2021-06-27T11:56:09.072Z</time>
      </trkpt>
      <trkpt lat="45.56663" lon="6.06856">
        <ele>1650</ele>
        <time>2021-06-27T11:56:10.073Z</time>
      </trkpt>
      <trkpt lat="45.56663" lon="6.06856">
        <ele>1650</ele>
        <time>2021-06-27T11:56:11.073Z</time>
      </trkpt>
      <trkpt lat="45.56663" lon="6.06856">
        <ele>1649</ele>
        <time>2021-06-27T11:56:12.073Z</time>
      </trkpt>
      <trkpt lat="45.56663" lon="6.06856">
        <ele>1649</ele>
        <time>2021-06-27T11:56:13.073Z</time>
      </trkpt>
      <trkpt lat="45.56663" lon="6.06856">
        <ele>1648</ele>
        <time>2021-06-27T11:56:14.073Z</time>
      </trkpt>
      <trkpt lat="45.56663" lon="6.06856">
        <ele>1648</ele>
        <time>2021-06-27T11:56:15.073Z</time>
      </trkpt>
      <trkpt lat="45.56663" lon="6.06856">
        <ele>1647</ele>
        <time>2021-06-27T11:56:16.073Z</time>
      </trkpt>
      <trkpt lat="45.56663" lon="6.06856">
        <ele>1647</ele>
        <time>2021-06-27T11:56:17.073Z</time>
      </trkpt>
      <trkpt lat="45.56663" lon="6.06856">
        <ele>1646</ele>
        <time>2021-06-27T11:56:18.073Z</time>
      </trkpt>
      <trkpt lat="45.56663" lon="6.06856">
        <ele>1646</ele>
        <time>2021-06-27T11:56:19.073Z</time>
      </trkpt>
      <trkpt lat="45.56663" lon="6.06856">
        <ele>1647</ele>
        <time>2021-06-27T11:56:20.073Z</time>
      </trkpt>
      <trkpt lat="45.56663" lon="6.06855">
        <ele>1647</ele>
        <time>2021-06-27T11:56:21.073Z</time>
      </trkpt>
      <trkpt lat="45.56663" lon="6.06855">
        <ele>1648</ele>
        <time>2021-06-27T11:56:22.073Z</time>
      </trkpt>
      <trkpt lat="45.56663" lon="6.06855">
        <ele>1648</ele>
        <time>2021-06-27T11:56:23.073Z</time>
      </trkpt>
      <trkpt lat="45.56662" lon="6.06855">
        <ele>1649</ele>
        <time>2021-06-27T11:56:24.073Z</time>
      </trkpt>
      <trkpt lat="45.56662" lon="6.06855">
        <ele>1649</ele>
        <time>2021-06-27T11:56:25.073Z</time>
      </trkpt>
      <trkpt lat="45.56662" lon="6.06855">
        <ele>1649</ele>
        <time>2021-06-27T11:56:26.073Z</time>
      </trkpt>
      <trkpt lat="45.56662" lon="6.06855">
        <ele>1649</ele>
        <time>2021-06-27T11:56:27.073Z</time>
      </trkpt>
      <trkpt lat="45.56662" lon="6.06855">
        <ele>1649</ele>
        <time>2021-06-27T11:56:28.073Z</time>
      </trkpt>
      <trkpt lat="45.56662" lon="6.06855">
        <ele>1649</ele>
        <time>2021-06-27T11:56:29.072Z</time>
      </trkpt>
      <trkpt lat="45.56662" lon="6.06855">
        <ele>1648</ele>
        <time>2021-06-27T11:56:30.072Z</time>
      </trkpt>
      <trkpt lat="45.56662" lon="6.06855">
        <ele>1647</ele>
        <time>2021-06-27T11:56:31.072Z</time>
      </trkpt>
      <trkpt lat="45.56662" lon="6.06855">
        <ele>1647</ele>
        <time>2021-06-27T11:56:32.073Z</time>
      </trkpt>
      <trkpt lat="45.56662" lon="6.06855">
        <ele>1647</ele>
        <time>2021-06-27T11:56:33.073Z</time>
      </trkpt>
      <trkpt lat="45.56662" lon="6.06855">
        <ele>1647</ele>
        <time>2021-06-27T11:56:34.073Z</time>
      </trkpt>
      <trkpt lat="45.56662" lon="6.06855">
        <ele>1647</ele>
        <time>2021-06-27T11:56:35.073Z</time>
      </trkpt>
      <trkpt lat="45.56662" lon="6.06855">
        <ele>1646</ele>
        <time>2021-06-27T11:56:36.073Z</time>
      </trkpt>
      <trkpt lat="45.56663" lon="6.06855">
        <ele>1645</ele>
        <time>2021-06-27T11:56:37.073Z</time>
      </trkpt>
      <trkpt lat="45.56663" lon="6.06855">
        <ele>1645</ele>
        <time>2021-06-27T11:56:38.073Z</time>
      </trkpt>
      <trkpt lat="45.56663" lon="6.06855">
        <ele>1644</ele>
        <time>2021-06-27T11:56:39.073Z</time>
      </trkpt>
      <trkpt lat="45.56663" lon="6.06855">
        <ele>1645</ele>
        <time>2021-06-27T11:56:40.073Z</time>
      </trkpt>
      <trkpt lat="45.56663" lon="6.06855">
        <ele>1645</ele>
        <time>2021-06-27T11:56:41.073Z</time>
      </trkpt>
      <trkpt lat="45.56663" lon="6.06855">
        <ele>1645</ele>
        <time>2021-06-27T11:56:42.072Z</time>
      </trkpt>
      <trkpt lat="45.56663" lon="6.06855">
        <ele>1646</ele>
        <time>2021-06-27T11:56:43.072Z</time>
      </trkpt>
      <trkpt lat="45.56663" lon="6.06855">
        <ele>1646</ele>
        <time>2021-06-27T11:56:44.073Z</time>
      </trkpt>
      <trkpt lat="45.56663" lon="6.06855">
        <ele>1646</ele>
        <time>2021-06-27T11:56:45.073Z</time>
      </trkpt>
      <trkpt lat="45.56663" lon="6.06855">
        <ele>1647</ele>
        <time>2021-06-27T11:56:46.073Z</time>
      </trkpt>
      <trkpt lat="45.56662" lon="6.06854">
        <ele>1647</ele>
        <time>2021-06-27T11:56:47.072Z</time>
      </trkpt>
      <trkpt lat="45.56662" lon="6.06854">
        <ele>1647</ele>
        <time>2021-06-27T11:56:48.073Z</time>
      </trkpt>
      <trkpt lat="45.56662" lon="6.06854">
        <ele>1648</ele>
        <time>2021-06-27T11:56:49.073Z</time>
      </trkpt>
      <trkpt lat="45.56662" lon="6.06854">
        <ele>1648</ele>
        <time>2021-06-27T11:56:50.073Z</time>
      </trkpt>
      <trkpt lat="45.56662" lon="6.06854">
        <ele>1648</ele>
        <time>2021-06-27T11:56:51.073Z</time>
      </trkpt>
      <trkpt lat="45.56662" lon="6.06854">
        <ele>1649</ele>
        <time>2021-06-27T11:56:52.073Z</time>
      </trkpt>
      <trkpt lat="45.56662" lon="6.06854">
        <ele>1649</ele>
        <time>2021-06-27T11:56:53.073Z</time>
      </trkpt>
      <trkpt lat="45.56662" lon="6.06854">
        <ele>1649</ele>
        <time>2021-06-27T11:56:54.073Z</time>
      </trkpt>
      <trkpt lat="45.56662" lon="6.06854">
        <ele>1649</ele>
        <time>2021-06-27T11:56:55.073Z</time>
      </trkpt>
      <trkpt lat="45.56662" lon="6.06854">
        <ele>1649</ele>
        <time>2021-06-27T11:56:56.072Z</time>
      </trkpt>
      <trkpt lat="45.56662" lon="6.06855">
        <ele>1648</ele>
        <time>2021-06-27T11:56:57.073Z</time>
      </trkpt>
      <trkpt lat="45.56662" lon="6.06855">
        <ele>1648</ele>
        <time>2021-06-27T11:56:58.073Z</time>
      </trkpt>
      <trkpt lat="45.56662" lon="6.06854">
        <ele>1647</ele>
        <time>2021-06-27T11:56:59.073Z</time>
      </trkpt>
      <trkpt lat="45.56662" lon="6.06855">
        <ele>1647</ele>
        <time>2021-06-27T11:57:00.073Z</time>
      </trkpt>
      <trkpt lat="45.56662" lon="6.06855">
        <ele>1646</ele>
        <time>2021-06-27T11:57:01.073Z</time>
      </trkpt>
      <trkpt lat="45.56662" lon="6.06855">
        <ele>1646</ele>
        <time>2021-06-27T11:57:02.072Z</time>
      </trkpt>
      <trkpt lat="45.56662" lon="6.06855">
        <ele>1645</ele>
        <time>2021-06-27T11:57:03.073Z</time>
      </trkpt>
      <trkpt lat="45.56662" lon="6.06855">
        <ele>1645</ele>
        <time>2021-06-27T11:57:04.073Z</time>
      </trkpt>
      <trkpt lat="45.56662" lon="6.06855">
        <ele>1645</ele>
        <time>2021-06-27T11:57:05.073Z</time>
      </trkpt>
      <trkpt lat="45.56662" lon="6.06855">
        <ele>1645</ele>
        <time>2021-06-27T11:57:06.073Z</time>
      </trkpt>
      <trkpt lat="45.56662" lon="6.06855">
        <ele>1646</ele>
        <time>2021-06-27T11:57:07.073Z</time>
      </trkpt>
      <trkpt lat="45.56662" lon="6.06855">
        <ele>1646</ele>
        <time>2021-06-27T11:57:08.073Z</time>
      </trkpt>
      <trkpt lat="45.56662" lon="6.06855">
        <ele>1646</ele>
        <time>2021-06-27T11:57:09.073Z</time>
      </trkpt>
      <trkpt lat="45.56662" lon="6.06855">
        <ele>1647</ele>
        <time>2021-06-27T11:57:10.073Z</time>
      </trkpt>
      <trkpt lat="45.56662" lon="6.06855">
        <ele>1647</ele>
        <time>2021-06-27T11:57:11.072Z</time>
      </trkpt>
      <trkpt lat="45.56662" lon="6.06855">
        <ele>1647</ele>
        <time>2021-06-27T11:57:12.073Z</time>
      </trkpt>
      <trkpt lat="45.56662" lon="6.06855">
        <ele>1647</ele>
        <time>2021-06-27T11:57:13.073Z</time>
      </trkpt>
      <trkpt lat="45.56662" lon="6.06855">
        <ele>1647</ele>
        <time>2021-06-27T11:57:14.073Z</time>
      </trkpt>
      <trkpt lat="45.56662" lon="6.06855">
        <ele>1647</ele>
        <time>2021-06-27T11:57:15.073Z</time>
      </trkpt>
      <trkpt lat="45.56662" lon="6.06855">
        <ele>1646</ele>
        <time>2021-06-27T11:57:16.073Z</time>
      </trkpt>
      <trkpt lat="45.56663" lon="6.06855">
        <ele>1645</ele>
        <time>2021-06-27T11:57:17.073Z</time>
      </trkpt>
      <trkpt lat="45.56663" lon="6.06855">
        <ele>1645</ele>
        <time>2021-06-27T11:57:18.072Z</time>
      </trkpt>
      <trkpt lat="45.56663" lon="6.06856">
        <ele>1644</ele>
        <time>2021-06-27T11:57:19.072Z</time>
      </trkpt>
      <trkpt lat="45.56663" lon="6.06856">
        <ele>1643</ele>
        <time>2021-06-27T11:57:20.073Z</time>
      </trkpt>
      <trkpt lat="45.56663" lon="6.06856">
        <ele>1642</ele>
        <time>2021-06-27T11:57:21.073Z</time>
      </trkpt>
      <trkpt lat="45.56663" lon="6.06856">
        <ele>1642</ele>
        <time>2021-06-27T11:57:22.072Z</time>
      </trkpt>
      <trkpt lat="45.56663" lon="6.06856">
        <ele>1643</ele>
        <time>2021-06-27T11:57:23.073Z</time>
      </trkpt>
      <trkpt lat="45.56663" lon="6.06856">
        <ele>1643</ele>
        <time>2021-06-27T11:57:24.073Z</time>
      </trkpt>
      <trkpt lat="45.56663" lon="6.06856">
        <ele>1643</ele>
        <time>2021-06-27T11:57:25.073Z</time>
      </trkpt>
      <trkpt lat="45.56663" lon="6.06855">
        <ele>1644</ele>
        <time>2021-06-27T11:57:26.073Z</time>
      </trkpt>
      <trkpt lat="45.56663" lon="6.06855">
        <ele>1644</ele>
        <time>2021-06-27T11:57:27.073Z</time>
      </trkpt>
      <trkpt lat="45.56663" lon="6.06855">
        <ele>1645</ele>
        <time>2021-06-27T11:57:28.073Z</time>
      </trkpt>
      <trkpt lat="45.56663" lon="6.06855">
        <ele>1645</ele>
        <time>2021-06-27T11:57:29.072Z</time>
      </trkpt>
      <trkpt lat="45.56663" lon="6.06855">
        <ele>1645</ele>
        <time>2021-06-27T11:57:30.073Z</time>
      </trkpt>
      <trkpt lat="45.56663" lon="6.06855">
        <ele>1646</ele>
        <time>2021-06-27T11:57:31.072Z</time>
      </trkpt>
      <trkpt lat="45.56663" lon="6.06855">
        <ele>1646</ele>
        <time>2021-06-27T11:57:32.073Z</time>
      </trkpt>
      <trkpt lat="45.56663" lon="6.06855">
        <ele>1646</ele>
        <time>2021-06-27T11:57:33.073Z</time>
      </trkpt>
      <trkpt lat="45.56663" lon="6.06855">
        <ele>1647</ele>
        <time>2021-06-27T11:57:34.073Z</time>
      </trkpt>
      <trkpt lat="45.56663" lon="6.06855">
        <ele>1647</ele>
        <time>2021-06-27T11:57:35.072Z</time>
      </trkpt>
      <trkpt lat="45.56663" lon="6.06855">
        <ele>1647</ele>
        <time>2021-06-27T11:57:36.073Z</time>
      </trkpt>
      <trkpt lat="45.56663" lon="6.06855">
        <ele>1647</ele>
        <time>2021-06-27T11:57:37.072Z</time>
      </trkpt>
      <trkpt lat="45.56663" lon="6.06855">
        <ele>1648</ele>
        <time>2021-06-27T11:57:38.072Z</time>
      </trkpt>
      <trkpt lat="45.56663" lon="6.06855">
        <ele>1648</ele>
        <time>2021-06-27T11:57:39.072Z</time>
      </trkpt>
      <trkpt lat="45.56663" lon="6.06855">
        <ele>1648</ele>
        <time>2021-06-27T11:57:40.072Z</time>
      </trkpt>
      <trkpt lat="45.56663" lon="6.06855">
        <ele>1648</ele>
        <time>2021-06-27T11:57:41.073Z</time>
      </trkpt>
      <trkpt lat="45.56663" lon="6.06855">
        <ele>1648</ele>
        <time>2021-06-27T11:57:42.072Z</time>
      </trkpt>
      <trkpt lat="45.56663" lon="6.06855">
        <ele>1648</ele>
        <time>2021-06-27T11:57:43.072Z</time>
      </trkpt>
      <trkpt lat="45.56663" lon="6.06855">
        <ele>1648</ele>
        <time>2021-06-27T11:57:44.072Z</time>
      </trkpt>
      <trkpt lat="45.56663" lon="6.06855">
        <ele>1649</ele>
        <time>2021-06-27T11:57:45.073Z</time>
      </trkpt>
      <trkpt lat="45.56663" lon="6.06855">
        <ele>1649</ele>
        <time>2021-06-27T11:57:46.073Z</time>
      </trkpt>
      <trkpt lat="45.56662" lon="6.06855">
        <ele>1649</ele>
        <time>2021-06-27T11:57:47.073Z</time>
      </trkpt>
      <trkpt lat="45.56662" lon="6.06855">
        <ele>1649</ele>
        <time>2021-06-27T11:57:48.073Z</time>
      </trkpt>
      <trkpt lat="45.56662" lon="6.06855">
        <ele>1649</ele>
        <time>2021-06-27T11:57:49.073Z</time>
      </trkpt>
      <trkpt lat="45.56662" lon="6.06854">
        <ele>1649</ele>
        <time>2021-06-27T11:57:50.073Z</time>
      </trkpt>
      <trkpt lat="45.56662" lon="6.06854">
        <ele>1649</ele>
        <time>2021-06-27T11:57:51.073Z</time>
      </trkpt>
      <trkpt lat="45.56661" lon="6.06854">
        <ele>1649</ele>
        <time>2021-06-27T11:57:52.073Z</time>
      </trkpt>
      <trkpt lat="45.56661" lon="6.06854">
        <ele>1648</ele>
        <time>2021-06-27T11:57:53.072Z</time>
      </trkpt>
      <trkpt lat="45.56661" lon="6.06854">
        <ele>1648</ele>
        <time>2021-06-27T11:57:54.073Z</time>
      </trkpt>
      <trkpt lat="45.56661" lon="6.06854">
        <ele>1649</ele>
        <time>2021-06-27T11:57:55.073Z</time>
      </trkpt>
      <trkpt lat="45.56661" lon="6.06854">
        <ele>1650</ele>
        <time>2021-06-27T11:57:56.072Z</time>
      </trkpt>
      <trkpt lat="45.56661" lon="6.06854">
        <ele>1651</ele>
        <time>2021-06-27T11:57:57.073Z</time>
      </trkpt>
      <trkpt lat="45.56661" lon="6.06854">
        <ele>1652</ele>
        <time>2021-06-27T11:57:58.073Z</time>
      </trkpt>
      <trkpt lat="45.56661" lon="6.06855">
        <ele>1652</ele>
        <time>2021-06-27T11:57:59.072Z</time>
      </trkpt>
      <trkpt lat="45.56661" lon="6.06855">
        <ele>1653</ele>
        <time>2021-06-27T11:58:00.073Z</time>
      </trkpt>
      <trkpt lat="45.56661" lon="6.06854">
        <ele>1653</ele>
        <time>2021-06-27T11:58:01.073Z</time>
      </trkpt>
      <trkpt lat="45.56661" lon="6.06854">
        <ele>1653</ele>
        <time>2021-06-27T11:58:02.073Z</time>
      </trkpt>
      <trkpt lat="45.56661" lon="6.06855">
        <ele>1654</ele>
        <time>2021-06-27T11:58:03.073Z</time>
      </trkpt>
      <trkpt lat="45.56661" lon="6.06855">
        <ele>1654</ele>
        <time>2021-06-27T11:58:04.073Z</time>
      </trkpt>
      <trkpt lat="45.56661" lon="6.06855">
        <ele>1654</ele>
        <time>2021-06-27T11:58:05.073Z</time>
      </trkpt>
      <trkpt lat="45.56661" lon="6.06855">
        <ele>1653</ele>
        <time>2021-06-27T11:58:06.073Z</time>
      </trkpt>
      <trkpt lat="45.56661" lon="6.06855">
        <ele>1653</ele>
        <time>2021-06-27T11:58:07.073Z</time>
      </trkpt>
      <trkpt lat="45.56661" lon="6.06855">
        <ele>1653</ele>
        <time>2021-06-27T11:58:08.072Z</time>
      </trkpt>
      <trkpt lat="45.56661" lon="6.06855">
        <ele>1653</ele>
        <time>2021-06-27T11:58:09.073Z</time>
      </trkpt>
      <trkpt lat="45.56661" lon="6.06855">
        <ele>1653</ele>
        <time>2021-06-27T11:58:10.073Z</time>
      </trkpt>
      <trkpt lat="45.56661" lon="6.06855">
        <ele>1653</ele>
        <time>2021-06-27T11:58:11.073Z</time>
      </trkpt>
      <trkpt lat="45.56661" lon="6.06855">
        <ele>1653</ele>
        <time>2021-06-27T11:58:12.073Z</time>
      </trkpt>
      <trkpt lat="45.56661" lon="6.06855">
        <ele>1653</ele>
        <time>2021-06-27T11:58:13.073Z</time>
      </trkpt>
      <trkpt lat="45.56661" lon="6.06855">
        <ele>1653</ele>
        <time>2021-06-27T11:58:14.073Z</time>
      </trkpt>
      <trkpt lat="45.56661" lon="6.06855">
        <ele>1652</ele>
        <time>2021-06-27T11:58:15.072Z</time>
      </trkpt>
      <trkpt lat="45.56661" lon="6.06855">
        <ele>1652</ele>
        <time>2021-06-27T11:58:16.073Z</time>
      </trkpt>
      <trkpt lat="45.56661" lon="6.06855">
        <ele>1652</ele>
        <time>2021-06-27T11:58:17.073Z</time>
      </trkpt>
      <trkpt lat="45.56661" lon="6.06855">
        <ele>1652</ele>
        <time>2021-06-27T11:58:18.073Z</time>
      </trkpt>
      <trkpt lat="45.56661" lon="6.06855">
        <ele>1651</ele>
        <time>2021-06-27T11:58:19.073Z</time>
      </trkpt>
      <trkpt lat="45.56661" lon="6.06855">
        <ele>1651</ele>
        <time>2021-06-27T11:58:20.073Z</time>
      </trkpt>
      <trkpt lat="45.56661" lon="6.06855">
        <ele>1651</ele>
        <time>2021-06-27T11:58:21.072Z</time>
      </trkpt>
      <trkpt lat="45.56661" lon="6.06855">
        <ele>1650</ele>
        <time>2021-06-27T11:58:22.072Z</time>
      </trkpt>
      <trkpt lat="45.56661" lon="6.06855">
        <ele>1649</ele>
        <time>2021-06-27T11:58:23.073Z</time>
      </trkpt>
      <trkpt lat="45.56661" lon="6.06855">
        <ele>1648</ele>
        <time>2021-06-27T11:58:24.073Z</time>
      </trkpt>
      <trkpt lat="45.56661" lon="6.06855">
        <ele>1647</ele>
        <time>2021-06-27T11:58:25.073Z</time>
      </trkpt>
      <trkpt lat="45.56661" lon="6.06857">
        <ele>1653</ele>
        <time>2021-06-27T11:58:26.073Z</time>
      </trkpt>
      <trkpt lat="45.56661" lon="6.06857">
        <ele>1652</ele>
        <time>2021-06-27T11:58:27.074Z</time>
      </trkpt>
      <trkpt lat="45.56661" lon="6.06858">
        <ele>1652</ele>
        <time>2021-06-27T11:58:28.073Z</time>
      </trkpt>
      <trkpt lat="45.5666" lon="6.06858">
        <ele>1652</ele>
        <time>2021-06-27T11:58:29.074Z</time>
      </trkpt>
      <trkpt lat="45.5666" lon="6.06859">
        <ele>1652</ele>
        <time>2021-06-27T11:58:30.073Z</time>
      </trkpt>
      <trkpt lat="45.56659" lon="6.0686">
        <ele>1652</ele>
        <time>2021-06-27T11:58:31.074Z</time>
      </trkpt>
      <trkpt lat="45.56659" lon="6.06862">
        <ele>1652</ele>
        <time>2021-06-27T11:58:32.074Z</time>
      </trkpt>
      <trkpt lat="45.56658" lon="6.06863">
        <ele>1652</ele>
        <time>2021-06-27T11:58:33.073Z</time>
      </trkpt>
      <trkpt lat="45.56658" lon="6.06864">
        <ele>1651</ele>
        <time>2021-06-27T11:58:34.074Z</time>
      </trkpt>
      <trkpt lat="45.56657" lon="6.06866">
        <ele>1651</ele>
        <time>2021-06-27T11:58:35.074Z</time>
      </trkpt>
      <trkpt lat="45.56657" lon="6.06867">
        <ele>1651</ele>
        <time>2021-06-27T11:58:36.074Z</time>
      </trkpt>
      <trkpt lat="45.56656" lon="6.06868">
        <ele>1652</ele>
        <time>2021-06-27T11:58:37.074Z</time>
      </trkpt>
      <trkpt lat="45.56655" lon="6.0687">
        <ele>1652</ele>
        <time>2021-06-27T11:58:38.074Z</time>
      </trkpt>
      <trkpt lat="45.56655" lon="6.06871">
        <ele>1652</ele>
        <time>2021-06-27T11:58:39.073Z</time>
      </trkpt>
      <trkpt lat="45.56655" lon="6.06872">
        <ele>1651</ele>
        <time>2021-06-27T11:58:40.073Z</time>
      </trkpt>
      <trkpt lat="45.56654" lon="6.06873">
        <ele>1651</ele>
        <time>2021-06-27T11:58:41.073Z</time>
      </trkpt>
      <trkpt lat="45.56654" lon="6.06874">
        <ele>1651</ele>
        <time>2021-06-27T11:58:42.074Z</time>
      </trkpt>
      <trkpt lat="45.56654" lon="6.06875">
        <ele>1650</ele>
        <time>2021-06-27T11:58:43.073Z</time>
      </trkpt>
      <trkpt lat="45.56653" lon="6.06876">
        <ele>1650</ele>
        <time>2021-06-27T11:58:44.074Z</time>
      </trkpt>
      <trkpt lat="45.56653" lon="6.06877">
        <ele>1650</ele>
        <time>2021-06-27T11:58:45.074Z</time>
      </trkpt>
      <trkpt lat="45.56652" lon="6.06878">
        <ele>1650</ele>
        <time>2021-06-27T11:58:46.074Z</time>
      </trkpt>
      <trkpt lat="45.56652" lon="6.06879">
        <ele>1649</ele>
        <time>2021-06-27T11:58:47.073Z</time>
      </trkpt>
      <trkpt lat="45.56651" lon="6.0688">
        <ele>1649</ele>
        <time>2021-06-27T11:58:48.074Z</time>
      </trkpt>
      <trkpt lat="45.56651" lon="6.06881">
        <ele>1649</ele>
        <time>2021-06-27T11:58:49.074Z</time>
      </trkpt>
      <trkpt lat="45.5665" lon="6.06882">
        <ele>1649</ele>
        <time>2021-06-27T11:58:50.073Z</time>
      </trkpt>
      <trkpt lat="45.5665" lon="6.06882">
        <ele>1648</ele>
        <time>2021-06-27T11:58:51.074Z</time>
      </trkpt>
      <trkpt lat="45.56649" lon="6.06883">
        <ele>1648</ele>
        <time>2021-06-27T11:58:52.074Z</time>
      </trkpt>
      <trkpt lat="45.56649" lon="6.06884">
        <ele>1647</ele>
        <time>2021-06-27T11:58:53.074Z</time>
      </trkpt>
      <trkpt lat="45.56648" lon="6.06885">
        <ele>1647</ele>
        <time>2021-06-27T11:58:54.073Z</time>
      </trkpt>
      <trkpt lat="45.56647" lon="6.06885">
        <ele>1647</ele>
        <time>2021-06-27T11:58:55.073Z</time>
      </trkpt>
      <trkpt lat="45.56647" lon="6.06886">
        <ele>1647</ele>
        <time>2021-06-27T11:58:56.073Z</time>
      </trkpt>
      <trkpt lat="45.56646" lon="6.06886">
        <ele>1646</ele>
        <time>2021-06-27T11:58:57.074Z</time>
      </trkpt>
      <trkpt lat="45.56645" lon="6.06887">
        <ele>1646</ele>
        <time>2021-06-27T11:58:58.074Z</time>
      </trkpt>
      <trkpt lat="45.56645" lon="6.06888">
        <ele>1646</ele>
        <time>2021-06-27T11:58:59.074Z</time>
      </trkpt>
      <trkpt lat="45.56644" lon="6.06889">
        <ele>1646</ele>
        <time>2021-06-27T11:59:00.074Z</time>
      </trkpt>
      <trkpt lat="45.56644" lon="6.0689">
        <ele>1646</ele>
        <time>2021-06-27T11:59:01.073Z</time>
      </trkpt>
      <trkpt lat="45.56644" lon="6.06892">
        <ele>1646</ele>
        <time>2021-06-27T11:59:02.074Z</time>
      </trkpt>
      <trkpt lat="45.56643" lon="6.06893">
        <ele>1645</ele>
        <time>2021-06-27T11:59:03.074Z</time>
      </trkpt>
      <trkpt lat="45.56643" lon="6.06894">
        <ele>1645</ele>
        <time>2021-06-27T11:59:04.074Z</time>
      </trkpt>
      <trkpt lat="45.56643" lon="6.06895">
        <ele>1645</ele>
        <time>2021-06-27T11:59:05.074Z</time>
      </trkpt>
      <trkpt lat="45.56643" lon="6.06897">
        <ele>1645</ele>
        <time>2021-06-27T11:59:06.073Z</time>
      </trkpt>
      <trkpt lat="45.56642" lon="6.06898">
        <ele>1645</ele>
        <time>2021-06-27T11:59:07.074Z</time>
      </trkpt>
      <trkpt lat="45.56642" lon="6.06899">
        <ele>1646</ele>
        <time>2021-06-27T11:59:08.074Z</time>
      </trkpt>
      <trkpt lat="45.56642" lon="6.06901">
        <ele>1646</ele>
        <time>2021-06-27T11:59:09.073Z</time>
      </trkpt>
      <trkpt lat="45.56642" lon="6.06902">
        <ele>1646</ele>
        <time>2021-06-27T11:59:10.074Z</time>
      </trkpt>
      <trkpt lat="45.56641" lon="6.06904">
        <ele>1646</ele>
        <time>2021-06-27T11:59:11.074Z</time>
      </trkpt>
      <trkpt lat="45.56641" lon="6.06905">
        <ele>1646</ele>
        <time>2021-06-27T11:59:12.074Z</time>
      </trkpt>
      <trkpt lat="45.5664" lon="6.06907">
        <ele>1646</ele>
        <time>2021-06-27T11:59:13.073Z</time>
      </trkpt>
      <trkpt lat="45.5664" lon="6.06908">
        <ele>1645</ele>
        <time>2021-06-27T11:59:14.074Z</time>
      </trkpt>
      <trkpt lat="45.56639" lon="6.06909">
        <ele>1645</ele>
        <time>2021-06-27T11:59:15.074Z</time>
      </trkpt>
      <trkpt lat="45.56639" lon="6.06911">
        <ele>1645</ele>
        <time>2021-06-27T11:59:16.074Z</time>
      </trkpt>
      <trkpt lat="45.56638" lon="6.06912">
        <ele>1645</ele>
        <time>2021-06-27T11:59:17.073Z</time>
      </trkpt>
      <trkpt lat="45.56636" lon="6.06913">
        <ele>1645</ele>
        <time>2021-06-27T11:59:18.074Z</time>
      </trkpt>
      <trkpt lat="45.56635" lon="6.06914">
        <ele>1645</ele>
        <time>2021-06-27T11:59:19.074Z</time>
      </trkpt>
      <trkpt lat="45.56635" lon="6.06914">
        <ele>1645</ele>
        <time>2021-06-27T11:59:20.074Z</time>
      </trkpt>
      <trkpt lat="45.56634" lon="6.06914">
        <ele>1644</ele>
        <time>2021-06-27T11:59:21.074Z</time>
      </trkpt>
      <trkpt lat="45.56633" lon="6.06915">
        <ele>1644</ele>
        <time>2021-06-27T11:59:22.073Z</time>
      </trkpt>
      <trkpt lat="45.56632" lon="6.06915">
        <ele>1644</ele>
        <time>2021-06-27T11:59:23.073Z</time>
      </trkpt>
      <trkpt lat="45.56631" lon="6.06914">
        <ele>1643</ele>
        <time>2021-06-27T11:59:24.074Z</time>
      </trkpt>
      <trkpt lat="45.5663" lon="6.06914">
        <ele>1643</ele>
        <time>2021-06-27T11:59:25.074Z</time>
      </trkpt>
      <trkpt lat="45.56629" lon="6.06914">
        <ele>1643</ele>
        <time>2021-06-27T11:59:26.074Z</time>
      </trkpt>
      <trkpt lat="45.56628" lon="6.06913">
        <ele>1643</ele>
        <time>2021-06-27T11:59:27.074Z</time>
      </trkpt>
      <trkpt lat="45.56627" lon="6.06912">
        <ele>1643</ele>
        <time>2021-06-27T11:59:28.074Z</time>
      </trkpt>
      <trkpt lat="45.56626" lon="6.06912">
        <ele>1642</ele>
        <time>2021-06-27T11:59:29.074Z</time>
      </trkpt>
      <trkpt lat="45.56625" lon="6.06911">
        <ele>1642</ele>
        <time>2021-06-27T11:59:30.073Z</time>
      </trkpt>
      <trkpt lat="45.56625" lon="6.0691">
        <ele>1642</ele>
        <time>2021-06-27T11:59:31.074Z</time>
      </trkpt>
      <trkpt lat="45.56624" lon="6.0691">
        <ele>1642</ele>
        <time>2021-06-27T11:59:32.074Z</time>
      </trkpt>
      <trkpt lat="45.56623" lon="6.06909">
        <ele>1642</ele>
        <time>2021-06-27T11:59:33.073Z</time>
      </trkpt>
      <trkpt lat="45.56622" lon="6.06907">
        <ele>1643</ele>
        <time>2021-06-27T11:59:34.073Z</time>
      </trkpt>
      <trkpt lat="45.56621" lon="6.06906">
        <ele>1643</ele>
        <time>2021-06-27T11:59:35.073Z</time>
      </trkpt>
      <trkpt lat="45.5662" lon="6.06905">
        <ele>1643</ele>
        <time>2021-06-27T11:59:36.073Z</time>
      </trkpt>
      <trkpt lat="45.5662" lon="6.06905">
        <ele>1643</ele>
        <time>2021-06-27T11:59:37.074Z</time>
      </trkpt>
      <trkpt lat="45.56619" lon="6.06904">
        <ele>1642</ele>
        <time>2021-06-27T11:59:38.074Z</time>
      </trkpt>
      <trkpt lat="45.56618" lon="6.06903">
        <ele>1643</ele>
        <time>2021-06-27T11:59:39.074Z</time>
      </trkpt>
      <trkpt lat="45.56617" lon="6.06903">
        <ele>1643</ele>
        <time>2021-06-27T11:59:40.074Z</time>
      </trkpt>
      <trkpt lat="45.56616" lon="6.06902">
        <ele>1643</ele>
        <time>2021-06-27T11:59:41.073Z</time>
      </trkpt>
      <trkpt lat="45.56615" lon="6.06902">
        <ele>1644</ele>
        <time>2021-06-27T11:59:42.074Z</time>
      </trkpt>
      <trkpt lat="45.56614" lon="6.06902">
        <ele>1644</ele>
        <time>2021-06-27T11:59:43.074Z</time>
      </trkpt>
      <trkpt lat="45.56613" lon="6.06902">
        <ele>1644</ele>
        <time>2021-06-27T11:59:44.074Z</time>
      </trkpt>
      <trkpt lat="45.56613" lon="6.06903">
        <ele>1643</ele>
        <time>2021-06-27T11:59:45.073Z</time>
      </trkpt>
      <trkpt lat="45.56612" lon="6.06903">
        <ele>1643</ele>
        <time>2021-06-27T11:59:46.073Z</time>
      </trkpt>
      <trkpt lat="45.56611" lon="6.06902">
        <ele>1643</ele>
        <time>2021-06-27T11:59:47.074Z</time>
      </trkpt>
      <trkpt lat="45.5661" lon="6.06903">
        <ele>1642</ele>
        <time>2021-06-27T11:59:48.074Z</time>
      </trkpt>
      <trkpt lat="45.5661" lon="6.06903">
        <ele>1642</ele>
        <time>2021-06-27T11:59:49.073Z</time>
      </trkpt>
      <trkpt lat="45.56609" lon="6.06903">
        <ele>1642</ele>
        <time>2021-06-27T11:59:50.074Z</time>
      </trkpt>
      <trkpt lat="45.56608" lon="6.06903">
        <ele>1641</ele>
        <time>2021-06-27T11:59:51.073Z</time>
      </trkpt>
      <trkpt lat="45.56607" lon="6.06902">
        <ele>1641</ele>
        <time>2021-06-27T11:59:52.074Z</time>
      </trkpt>
      <trkpt lat="45.56606" lon="6.06902">
        <ele>1640</ele>
        <time>2021-06-27T11:59:53.074Z</time>
      </trkpt>
      <trkpt lat="45.56606" lon="6.06902">
        <ele>1640</ele>
        <time>2021-06-27T11:59:54.073Z</time>
      </trkpt>
      <trkpt lat="45.56605" lon="6.06902">
        <ele>1640</ele>
        <time>2021-06-27T11:59:55.074Z</time>
      </trkpt>
      <trkpt lat="45.56604" lon="6.06902">
        <ele>1640</ele>
        <time>2021-06-27T11:59:56.074Z</time>
      </trkpt>
      <trkpt lat="45.56603" lon="6.06902">
        <ele>1640</ele>
        <time>2021-06-27T11:59:57.073Z</time>
      </trkpt>
      <trkpt lat="45.56602" lon="6.06901">
        <ele>1640</ele>
        <time>2021-06-27T11:59:58.074Z</time>
      </trkpt>
      <trkpt lat="45.56601" lon="6.06901">
        <ele>1640</ele>
        <time>2021-06-27T11:59:59.074Z</time>
      </trkpt>
      <trkpt lat="45.566" lon="6.069">
        <ele>1640</ele>
        <time>2021-06-27T12:00:00.074Z</time>
      </trkpt>
      <trkpt lat="45.566" lon="6.069">
        <ele>1639</ele>
        <time>2021-06-27T12:00:01.073Z</time>
      </trkpt>
      <trkpt lat="45.56599" lon="6.06899">
        <ele>1638</ele>
        <time>2021-06-27T12:00:02.073Z</time>
      </trkpt>
      <trkpt lat="45.56598" lon="6.06898">
        <ele>1637</ele>
        <time>2021-06-27T12:00:03.074Z</time>
      </trkpt>
      <trkpt lat="45.56598" lon="6.06898">
        <ele>1637</ele>
        <time>2021-06-27T12:00:04.074Z</time>
      </trkpt>
      <trkpt lat="45.56597" lon="6.06897">
        <ele>1636</ele>
        <time>2021-06-27T12:00:05.073Z</time>
      </trkpt>
      <trkpt lat="45.56596" lon="6.06896">
        <ele>1636</ele>
        <time>2021-06-27T12:00:06.074Z</time>
      </trkpt>
      <trkpt lat="45.56596" lon="6.06895">
        <ele>1636</ele>
        <time>2021-06-27T12:00:07.074Z</time>
      </trkpt>
      <trkpt lat="45.56595" lon="6.06895">
        <ele>1636</ele>
        <time>2021-06-27T12:00:08.074Z</time>
      </trkpt>
      <trkpt lat="45.56594" lon="6.06894">
        <ele>1636</ele>
        <time>2021-06-27T12:00:09.073Z</time>
      </trkpt>
      <trkpt lat="45.56593" lon="6.06894">
        <ele>1636</ele>
        <time>2021-06-27T12:00:10.074Z</time>
      </trkpt>
      <trkpt lat="45.56592" lon="6.06894">
        <ele>1636</ele>
        <time>2021-06-27T12:00:11.074Z</time>
      </trkpt>
      <trkpt lat="45.56591" lon="6.06894">
        <ele>1636</ele>
        <time>2021-06-27T12:00:12.074Z</time>
      </trkpt>
      <trkpt lat="45.5659" lon="6.06893">
        <ele>1636</ele>
        <time>2021-06-27T12:00:13.074Z</time>
      </trkpt>
      <trkpt lat="45.56589" lon="6.06893">
        <ele>1636</ele>
        <time>2021-06-27T12:00:14.073Z</time>
      </trkpt>
      <trkpt lat="45.56589" lon="6.06893">
        <ele>1636</ele>
        <time>2021-06-27T12:00:15.073Z</time>
      </trkpt>
      <trkpt lat="45.56588" lon="6.06893">
        <ele>1636</ele>
        <time>2021-06-27T12:00:16.074Z</time>
      </trkpt>
      <trkpt lat="45.56587" lon="6.06892">
        <ele>1635</ele>
        <time>2021-06-27T12:00:17.074Z</time>
      </trkpt>
      <trkpt lat="45.56587" lon="6.06892">
        <ele>1635</ele>
        <time>2021-06-27T12:00:18.074Z</time>
      </trkpt>
      <trkpt lat="45.56586" lon="6.06892">
        <ele>1634</ele>
        <time>2021-06-27T12:00:19.074Z</time>
      </trkpt>
      <trkpt lat="45.56585" lon="6.06892">
        <ele>1634</ele>
        <time>2021-06-27T12:00:20.073Z</time>
      </trkpt>
      <trkpt lat="45.56584" lon="6.06892">
        <ele>1634</ele>
        <time>2021-06-27T12:00:21.074Z</time>
      </trkpt>
      <trkpt lat="45.56583" lon="6.06893">
        <ele>1633</ele>
        <time>2021-06-27T12:00:22.074Z</time>
      </trkpt>
      <trkpt lat="45.56582" lon="6.06893">
        <ele>1633</ele>
        <time>2021-06-27T12:00:23.074Z</time>
      </trkpt>
      <trkpt lat="45.56582" lon="6.06893">
        <ele>1632</ele>
        <time>2021-06-27T12:00:24.073Z</time>
      </trkpt>
      <trkpt lat="45.56581" lon="6.06893">
        <ele>1631</ele>
        <time>2021-06-27T12:00:25.074Z</time>
      </trkpt>
      <trkpt lat="45.56581" lon="6.06893">
        <ele>1631</ele>
        <time>2021-06-27T12:00:26.074Z</time>
      </trkpt>
      <trkpt lat="45.56581" lon="6.06893">
        <ele>1630</ele>
        <time>2021-06-27T12:00:27.074Z</time>
      </trkpt>
      <trkpt lat="45.56581" lon="6.06894">
        <ele>1629</ele>
        <time>2021-06-27T12:00:28.074Z</time>
      </trkpt>
      <trkpt lat="45.5658" lon="6.06893">
        <ele>1629</ele>
        <time>2021-06-27T12:00:29.074Z</time>
      </trkpt>
      <trkpt lat="45.5658" lon="6.06893">
        <ele>1630</ele>
        <time>2021-06-27T12:00:30.073Z</time>
      </trkpt>
      <trkpt lat="45.5658" lon="6.06892">
        <ele>1630</ele>
        <time>2021-06-27T12:00:31.073Z</time>
      </trkpt>
      <trkpt lat="45.56579" lon="6.06891">
        <ele>1630</ele>
        <time>2021-06-27T12:00:32.074Z</time>
      </trkpt>
      <trkpt lat="45.56579" lon="6.0689">
        <ele>1630</ele>
        <time>2021-06-27T12:00:33.074Z</time>
      </trkpt>
      <trkpt lat="45.56578" lon="6.0689">
        <ele>1630</ele>
        <time>2021-06-27T12:00:34.074Z</time>
      </trkpt>
      <trkpt lat="45.56577" lon="6.0689">
        <ele>1630</ele>
        <time>2021-06-27T12:00:35.074Z</time>
      </trkpt>
      <trkpt lat="45.56577" lon="6.06889">
        <ele>1629</ele>
        <time>2021-06-27T12:00:36.074Z</time>
      </trkpt>
      <trkpt lat="45.56576" lon="6.06889">
        <ele>1629</ele>
        <time>2021-06-27T12:00:37.074Z</time>
      </trkpt>
      <trkpt lat="45.56575" lon="6.06889">
        <ele>1628</ele>
        <time>2021-06-27T12:00:38.074Z</time>
      </trkpt>
      <trkpt lat="45.56575" lon="6.06889">
        <ele>1628</ele>
        <time>2021-06-27T12:00:39.074Z</time>
      </trkpt>
      <trkpt lat="45.56574" lon="6.0689">
        <ele>1628</ele>
        <time>2021-06-27T12:00:40.074Z</time>
      </trkpt>
      <trkpt lat="45.56574" lon="6.0689">
        <ele>1628</ele>
        <time>2021-06-27T12:00:41.073Z</time>
      </trkpt>
      <trkpt lat="45.56574" lon="6.0689">
        <ele>1628</ele>
        <time>2021-06-27T12:00:42.074Z</time>
      </trkpt>
      <trkpt lat="45.56574" lon="6.0689">
        <ele>1627</ele>
        <time>2021-06-27T12:00:43.074Z</time>
      </trkpt>
      <trkpt lat="45.56574" lon="6.0689">
        <ele>1626</ele>
        <time>2021-06-27T12:00:44.074Z</time>
      </trkpt>
      <trkpt lat="45.56574" lon="6.06891">
        <ele>1626</ele>
        <time>2021-06-27T12:00:45.074Z</time>
      </trkpt>
      <trkpt lat="45.56574" lon="6.06891">
        <ele>1625</ele>
        <time>2021-06-27T12:00:46.073Z</time>
      </trkpt>
      <trkpt lat="45.56574" lon="6.06891">
        <ele>1624</ele>
        <time>2021-06-27T12:00:47.073Z</time>
      </trkpt>
      <trkpt lat="45.56574" lon="6.0689">
        <ele>1624</ele>
        <time>2021-06-27T12:00:48.073Z</time>
      </trkpt>
      <trkpt lat="45.56574" lon="6.0689">
        <ele>1623</ele>
        <time>2021-06-27T12:00:49.073Z</time>
      </trkpt>
      <trkpt lat="45.56573" lon="6.0689">
        <ele>1623</ele>
        <time>2021-06-27T12:00:50.074Z</time>
      </trkpt>
      <trkpt lat="45.56573" lon="6.06889">
        <ele>1623</ele>
        <time>2021-06-27T12:00:51.073Z</time>
      </trkpt>
      <trkpt lat="45.56572" lon="6.06889">
        <ele>1622</ele>
        <time>2021-06-27T12:00:52.073Z</time>
      </trkpt>
      <trkpt lat="45.56572" lon="6.06889">
        <ele>1622</ele>
        <time>2021-06-27T12:00:53.073Z</time>
      </trkpt>
      <trkpt lat="45.56571" lon="6.06888">
        <ele>1622</ele>
        <time>2021-06-27T12:00:54.073Z</time>
      </trkpt>
      <trkpt lat="45.56571" lon="6.06887">
        <ele>1622</ele>
        <time>2021-06-27T12:00:55.073Z</time>
      </trkpt>
      <trkpt lat="45.5657" lon="6.06887">
        <ele>1622</ele>
        <time>2021-06-27T12:00:56.074Z</time>
      </trkpt>
      <trkpt lat="45.5657" lon="6.06885">
        <ele>1622</ele>
        <time>2021-06-27T12:00:57.074Z</time>
      </trkpt>
      <trkpt lat="45.5657" lon="6.06884">
        <ele>1621</ele>
        <time>2021-06-27T12:00:58.074Z</time>
      </trkpt>
      <trkpt lat="45.56569" lon="6.06884">
        <ele>1621</ele>
        <time>2021-06-27T12:00:59.073Z</time>
      </trkpt>
      <trkpt lat="45.56569" lon="6.06884">
        <ele>1621</ele>
        <time>2021-06-27T12:01:00.073Z</time>
      </trkpt>
      <trkpt lat="45.56568" lon="6.06884">
        <ele>1622</ele>
        <time>2021-06-27T12:01:01.074Z</time>
      </trkpt>
      <trkpt lat="45.56568" lon="6.06884">
        <ele>1622</ele>
        <time>2021-06-27T12:01:02.074Z</time>
      </trkpt>
      <trkpt lat="45.56567" lon="6.06883">
        <ele>1622</ele>
        <time>2021-06-27T12:01:03.073Z</time>
      </trkpt>
      <trkpt lat="45.56566" lon="6.06883">
        <ele>1621</ele>
        <time>2021-06-27T12:01:04.074Z</time>
      </trkpt>
      <trkpt lat="45.56566" lon="6.06883">
        <ele>1621</ele>
        <time>2021-06-27T12:01:05.074Z</time>
      </trkpt>
      <trkpt lat="45.56565" lon="6.06883">
        <ele>1621</ele>
        <time>2021-06-27T12:01:06.074Z</time>
      </trkpt>
      <trkpt lat="45.56565" lon="6.06882">
        <ele>1621</ele>
        <time>2021-06-27T12:01:07.074Z</time>
      </trkpt>
      <trkpt lat="45.56564" lon="6.06882">
        <ele>1621</ele>
        <time>2021-06-27T12:01:08.074Z</time>
      </trkpt>
      <trkpt lat="45.56564" lon="6.06882">
        <ele>1622</ele>
        <time>2021-06-27T12:01:09.073Z</time>
      </trkpt>
      <trkpt lat="45.56563" lon="6.06882">
        <ele>1622</ele>
        <time>2021-06-27T12:01:10.074Z</time>
      </trkpt>
      <trkpt lat="45.56563" lon="6.06881">
        <ele>1622</ele>
        <time>2021-06-27T12:01:11.073Z</time>
      </trkpt>
      <trkpt lat="45.56562" lon="6.06881">
        <ele>1622</ele>
        <time>2021-06-27T12:01:12.073Z</time>
      </trkpt>
      <trkpt lat="45.56562" lon="6.06881">
        <ele>1621</ele>
        <time>2021-06-27T12:01:13.073Z</time>
      </trkpt>
      <trkpt lat="45.56561" lon="6.0688">
        <ele>1621</ele>
        <time>2021-06-27T12:01:14.074Z</time>
      </trkpt>
      <trkpt lat="45.56561" lon="6.0688">
        <ele>1621</ele>
        <time>2021-06-27T12:01:15.074Z</time>
      </trkpt>
      <trkpt lat="45.5656" lon="6.06879">
        <ele>1620</ele>
        <time>2021-06-27T12:01:16.074Z</time>
      </trkpt>
      <trkpt lat="45.56559" lon="6.06879">
        <ele>1620</ele>
        <time>2021-06-27T12:01:17.073Z</time>
      </trkpt>
      <trkpt lat="45.56558" lon="6.06879">
        <ele>1619</ele>
        <time>2021-06-27T12:01:18.074Z</time>
      </trkpt>
      <trkpt lat="45.56558" lon="6.06879">
        <ele>1619</ele>
        <time>2021-06-27T12:01:19.074Z</time>
      </trkpt>
      <trkpt lat="45.56557" lon="6.06879">
        <ele>1618</ele>
        <time>2021-06-27T12:01:20.073Z</time>
      </trkpt>
      <trkpt lat="45.56556" lon="6.06879">
        <ele>1618</ele>
        <time>2021-06-27T12:01:21.073Z</time>
      </trkpt>
      <trkpt lat="45.56555" lon="6.06879">
        <ele>1618</ele>
        <time>2021-06-27T12:01:22.073Z</time>
      </trkpt>
      <trkpt lat="45.56555" lon="6.06879">
        <ele>1618</ele>
        <time>2021-06-27T12:01:23.074Z</time>
      </trkpt>
      <trkpt lat="45.56555" lon="6.06879">
        <ele>1618</ele>
        <time>2021-06-27T12:01:24.074Z</time>
      </trkpt>
      <trkpt lat="45.56554" lon="6.06879">
        <ele>1617</ele>
        <time>2021-06-27T12:01:25.074Z</time>
      </trkpt>
      <trkpt lat="45.56554" lon="6.06879">
        <ele>1617</ele>
        <time>2021-06-27T12:01:26.074Z</time>
      </trkpt>
      <trkpt lat="45.56553" lon="6.06879">
        <ele>1617</ele>
        <time>2021-06-27T12:01:27.074Z</time>
      </trkpt>
      <trkpt lat="45.56552" lon="6.06878">
        <ele>1617</ele>
        <time>2021-06-27T12:01:28.073Z</time>
      </trkpt>
      <trkpt lat="45.56552" lon="6.06878">
        <ele>1617</ele>
        <time>2021-06-27T12:01:29.074Z</time>
      </trkpt>
      <trkpt lat="45.56551" lon="6.06878">
        <ele>1617</ele>
        <time>2021-06-27T12:01:30.074Z</time>
      </trkpt>
      <trkpt lat="45.5655" lon="6.06878">
        <ele>1616</ele>
        <time>2021-06-27T12:01:31.074Z</time>
      </trkpt>
      <trkpt lat="45.56549" lon="6.06877">
        <ele>1616</ele>
        <time>2021-06-27T12:01:32.074Z</time>
      </trkpt>
      <trkpt lat="45.56548" lon="6.06877">
        <ele>1616</ele>
        <time>2021-06-27T12:01:33.073Z</time>
      </trkpt>
      <trkpt lat="45.56547" lon="6.06876">
        <ele>1616</ele>
        <time>2021-06-27T12:01:34.074Z</time>
      </trkpt>
      <trkpt lat="45.56547" lon="6.06876">
        <ele>1616</ele>
        <time>2021-06-27T12:01:35.074Z</time>
      </trkpt>
      <trkpt lat="45.56546" lon="6.06877">
        <ele>1616</ele>
        <time>2021-06-27T12:01:36.074Z</time>
      </trkpt>
      <trkpt lat="45.56546" lon="6.06878">
        <ele>1615</ele>
        <time>2021-06-27T12:01:37.074Z</time>
      </trkpt>
      <trkpt lat="45.56546" lon="6.06879">
        <ele>1615</ele>
        <time>2021-06-27T12:01:38.074Z</time>
      </trkpt>
      <trkpt lat="45.56545" lon="6.0688">
        <ele>1615</ele>
        <time>2021-06-27T12:01:39.073Z</time>
      </trkpt>
      <trkpt lat="45.56544" lon="6.0688">
        <ele>1615</ele>
        <time>2021-06-27T12:01:40.074Z</time>
      </trkpt>
      <trkpt lat="45.56544" lon="6.0688">
        <ele>1614</ele>
        <time>2021-06-27T12:01:41.074Z</time>
      </trkpt>
      <trkpt lat="45.56544" lon="6.0688">
        <ele>1614</ele>
        <time>2021-06-27T12:01:42.074Z</time>
      </trkpt>
      <trkpt lat="45.56543" lon="6.0688">
        <ele>1614</ele>
        <time>2021-06-27T12:01:43.074Z</time>
      </trkpt>
      <trkpt lat="45.56544" lon="6.0688">
        <ele>1614</ele>
        <time>2021-06-27T12:01:44.073Z</time>
      </trkpt>
      <trkpt lat="45.56544" lon="6.0688">
        <ele>1613</ele>
        <time>2021-06-27T12:01:45.073Z</time>
      </trkpt>
      <trkpt lat="45.56544" lon="6.0688">
        <ele>1613</ele>
        <time>2021-06-27T12:01:46.074Z</time>
      </trkpt>
      <trkpt lat="45.56544" lon="6.0688">
        <ele>1612</ele>
        <time>2021-06-27T12:01:47.074Z</time>
      </trkpt>
      <trkpt lat="45.56543" lon="6.0688">
        <ele>1613</ele>
        <time>2021-06-27T12:01:48.074Z</time>
      </trkpt>
      <trkpt lat="45.56543" lon="6.06881">
        <ele>1613</ele>
        <time>2021-06-27T12:01:49.074Z</time>
      </trkpt>
      <trkpt lat="45.56542" lon="6.06881">
        <ele>1613</ele>
        <time>2021-06-27T12:01:50.073Z</time>
      </trkpt>
      <trkpt lat="45.56542" lon="6.06882">
        <ele>1612</ele>
        <time>2021-06-27T12:01:51.074Z</time>
      </trkpt>
      <trkpt lat="45.56541" lon="6.06881">
        <ele>1612</ele>
        <time>2021-06-27T12:01:52.074Z</time>
      </trkpt>
      <trkpt lat="45.5654" lon="6.06881">
        <ele>1612</ele>
        <time>2021-06-27T12:01:53.074Z</time>
      </trkpt>
      <trkpt lat="45.56539" lon="6.0688">
        <ele>1612</ele>
        <time>2021-06-27T12:01:54.074Z</time>
      </trkpt>
      <trkpt lat="45.56539" lon="6.06879">
        <ele>1611</ele>
        <time>2021-06-27T12:01:55.073Z</time>
      </trkpt>
      <trkpt lat="45.56539" lon="6.06878">
        <ele>1611</ele>
        <time>2021-06-27T12:01:56.074Z</time>
      </trkpt>
      <trkpt lat="45.56539" lon="6.06877">
        <ele>1610</ele>
        <time>2021-06-27T12:01:57.074Z</time>
      </trkpt>
      <trkpt lat="45.56539" lon="6.06876">
        <ele>1610</ele>
        <time>2021-06-27T12:01:58.073Z</time>
      </trkpt>
      <trkpt lat="45.56539" lon="6.06876">
        <ele>1609</ele>
        <time>2021-06-27T12:01:59.074Z</time>
      </trkpt>
      <trkpt lat="45.56539" lon="6.06876">
        <ele>1609</ele>
        <time>2021-06-27T12:02:00.074Z</time>
      </trkpt>
      <trkpt lat="45.56539" lon="6.06875">
        <ele>1608</ele>
        <time>2021-06-27T12:02:01.073Z</time>
      </trkpt>
      <trkpt lat="45.56538" lon="6.06874">
        <ele>1609</ele>
        <time>2021-06-27T12:02:02.074Z</time>
      </trkpt>
      <trkpt lat="45.56538" lon="6.06872">
        <ele>1609</ele>
        <time>2021-06-27T12:02:03.073Z</time>
      </trkpt>
      <trkpt lat="45.56537" lon="6.06871">
        <ele>1609</ele>
        <time>2021-06-27T12:02:04.073Z</time>
      </trkpt>
      <trkpt lat="45.56537" lon="6.0687">
        <ele>1609</ele>
        <time>2021-06-27T12:02:05.074Z</time>
      </trkpt>
      <trkpt lat="45.56536" lon="6.06869">
        <ele>1609</ele>
        <time>2021-06-27T12:02:06.074Z</time>
      </trkpt>
      <trkpt lat="45.56535" lon="6.06868">
        <ele>1609</ele>
        <time>2021-06-27T12:02:07.074Z</time>
      </trkpt>
      <trkpt lat="45.56534" lon="6.06868">
        <ele>1608</ele>
        <time>2021-06-27T12:02:08.074Z</time>
      </trkpt>
      <trkpt lat="45.56533" lon="6.06867">
        <ele>1609</ele>
        <time>2021-06-27T12:02:09.074Z</time>
      </trkpt>
      <trkpt lat="45.56532" lon="6.06866">
        <ele>1609</ele>
        <time>2021-06-27T12:02:10.074Z</time>
      </trkpt>
      <trkpt lat="45.56532" lon="6.06866">
        <ele>1609</ele>
        <time>2021-06-27T12:02:11.073Z</time>
      </trkpt>
      <trkpt lat="45.56531" lon="6.06866">
        <ele>1609</ele>
        <time>2021-06-27T12:02:12.074Z</time>
      </trkpt>
      <trkpt lat="45.5653" lon="6.06866">
        <ele>1609</ele>
        <time>2021-06-27T12:02:13.074Z</time>
      </trkpt>
      <trkpt lat="45.56529" lon="6.06866">
        <ele>1608</ele>
        <time>2021-06-27T12:02:14.073Z</time>
      </trkpt>
      <trkpt lat="45.56528" lon="6.06866">
        <ele>1608</ele>
        <time>2021-06-27T12:02:15.074Z</time>
      </trkpt>
      <trkpt lat="45.56527" lon="6.06866">
        <ele>1608</ele>
        <time>2021-06-27T12:02:16.073Z</time>
      </trkpt>
      <trkpt lat="45.56526" lon="6.06867">
        <ele>1608</ele>
        <time>2021-06-27T12:02:17.074Z</time>
      </trkpt>
      <trkpt lat="45.56525" lon="6.06867">
        <ele>1608</ele>
        <time>2021-06-27T12:02:18.073Z</time>
      </trkpt>
      <trkpt lat="45.56524" lon="6.06867">
        <ele>1607</ele>
        <time>2021-06-27T12:02:19.074Z</time>
      </trkpt>
      <trkpt lat="45.56523" lon="6.06868">
        <ele>1607</ele>
        <time>2021-06-27T12:02:20.074Z</time>
      </trkpt>
      <trkpt lat="45.56523" lon="6.06868">
        <ele>1607</ele>
        <time>2021-06-27T12:02:21.074Z</time>
      </trkpt>
      <trkpt lat="45.56522" lon="6.06868">
        <ele>1607</ele>
        <time>2021-06-27T12:02:22.074Z</time>
      </trkpt>
      <trkpt lat="45.56522" lon="6.06868">
        <ele>1607</ele>
        <time>2021-06-27T12:02:23.074Z</time>
      </trkpt>
      <trkpt lat="45.56521" lon="6.06867">
        <ele>1607</ele>
        <time>2021-06-27T12:02:24.074Z</time>
      </trkpt>
      <trkpt lat="45.5652" lon="6.06867">
        <ele>1607</ele>
        <time>2021-06-27T12:02:25.074Z</time>
      </trkpt>
      <trkpt lat="45.5652" lon="6.06867">
        <ele>1606</ele>
        <time>2021-06-27T12:02:26.073Z</time>
      </trkpt>
      <trkpt lat="45.56519" lon="6.06866">
        <ele>1605</ele>
        <time>2021-06-27T12:02:27.074Z</time>
      </trkpt>
      <trkpt lat="45.56518" lon="6.06866">
        <ele>1605</ele>
        <time>2021-06-27T12:02:28.073Z</time>
      </trkpt>
      <trkpt lat="45.56518" lon="6.06866">
        <ele>1604</ele>
        <time>2021-06-27T12:02:29.073Z</time>
      </trkpt>
      <trkpt lat="45.56518" lon="6.06866">
        <ele>1604</ele>
        <time>2021-06-27T12:02:30.074Z</time>
      </trkpt>
      <trkpt lat="45.56518" lon="6.06866">
        <ele>1604</ele>
        <time>2021-06-27T12:02:31.074Z</time>
      </trkpt>
      <trkpt lat="45.56518" lon="6.06866">
        <ele>1604</ele>
        <time>2021-06-27T12:02:32.074Z</time>
      </trkpt>
      <trkpt lat="45.56518" lon="6.06866">
        <ele>1604</ele>
        <time>2021-06-27T12:02:33.074Z</time>
      </trkpt>
      <trkpt lat="45.56518" lon="6.06866">
        <ele>1603</ele>
        <time>2021-06-27T12:02:34.074Z</time>
      </trkpt>
      <trkpt lat="45.56517" lon="6.06866">
        <ele>1603</ele>
        <time>2021-06-27T12:02:35.073Z</time>
      </trkpt>
      <trkpt lat="45.56517" lon="6.06866">
        <ele>1602</ele>
        <time>2021-06-27T12:02:36.074Z</time>
      </trkpt>
      <trkpt lat="45.56516" lon="6.06865">
        <ele>1602</ele>
        <time>2021-06-27T12:02:37.073Z</time>
      </trkpt>
      <trkpt lat="45.56515" lon="6.06865">
        <ele>1602</ele>
        <time>2021-06-27T12:02:38.073Z</time>
      </trkpt>
      <trkpt lat="45.56514" lon="6.06864">
        <ele>1602</ele>
        <time>2021-06-27T12:02:39.073Z</time>
      </trkpt>
      <trkpt lat="45.56514" lon="6.06864">
        <ele>1602</ele>
        <time>2021-06-27T12:02:40.073Z</time>
      </trkpt>
      <trkpt lat="45.56513" lon="6.06863">
        <ele>1602</ele>
        <time>2021-06-27T12:02:41.074Z</time>
      </trkpt>
      <trkpt lat="45.56513" lon="6.06862">
        <ele>1603</ele>
        <time>2021-06-27T12:02:42.074Z</time>
      </trkpt>
      <trkpt lat="45.56513" lon="6.06861">
        <ele>1603</ele>
        <time>2021-06-27T12:02:43.074Z</time>
      </trkpt>
      <trkpt lat="45.56512" lon="6.0686">
        <ele>1602</ele>
        <time>2021-06-27T12:02:44.074Z</time>
      </trkpt>
      <trkpt lat="45.56512" lon="6.0686">
        <ele>1602</ele>
        <time>2021-06-27T12:02:45.073Z</time>
      </trkpt>
      <trkpt lat="45.56511" lon="6.06859">
        <ele>1602</ele>
        <time>2021-06-27T12:02:46.073Z</time>
      </trkpt>
      <trkpt lat="45.56511" lon="6.06859">
        <ele>1602</ele>
        <time>2021-06-27T12:02:47.074Z</time>
      </trkpt>
      <trkpt lat="45.56511" lon="6.06858">
        <ele>1602</ele>
        <time>2021-06-27T12:02:48.073Z</time>
      </trkpt>
      <trkpt lat="45.5651" lon="6.06858">
        <ele>1602</ele>
        <time>2021-06-27T12:02:49.074Z</time>
      </trkpt>
      <trkpt lat="45.5651" lon="6.06858">
        <ele>1602</ele>
        <time>2021-06-27T12:02:50.073Z</time>
      </trkpt>
      <trkpt lat="45.5651" lon="6.06857">
        <ele>1602</ele>
        <time>2021-06-27T12:02:51.074Z</time>
      </trkpt>
      <trkpt lat="45.5651" lon="6.06857">
        <ele>1602</ele>
        <time>2021-06-27T12:02:52.074Z</time>
      </trkpt>
      <trkpt lat="45.56509" lon="6.06857">
        <ele>1602</ele>
        <time>2021-06-27T12:02:53.074Z</time>
      </trkpt>
      <trkpt lat="45.56508" lon="6.06856">
        <ele>1602</ele>
        <time>2021-06-27T12:02:54.074Z</time>
      </trkpt>
      <trkpt lat="45.56508" lon="6.06856">
        <ele>1601</ele>
        <time>2021-06-27T12:02:55.074Z</time>
      </trkpt>
      <trkpt lat="45.56507" lon="6.06856">
        <ele>1601</ele>
        <time>2021-06-27T12:02:56.074Z</time>
      </trkpt>
      <trkpt lat="45.56506" lon="6.06856">
        <ele>1601</ele>
        <time>2021-06-27T12:02:57.074Z</time>
      </trkpt>
      <trkpt lat="45.56505" lon="6.06855">
        <ele>1601</ele>
        <time>2021-06-27T12:02:58.074Z</time>
      </trkpt>
      <trkpt lat="45.56504" lon="6.06855">
        <ele>1600</ele>
        <time>2021-06-27T12:02:59.074Z</time>
      </trkpt>
      <trkpt lat="45.56504" lon="6.06854">
        <ele>1600</ele>
        <time>2021-06-27T12:03:00.074Z</time>
      </trkpt>
      <trkpt lat="45.56503" lon="6.06853">
        <ele>1599</ele>
        <time>2021-06-27T12:03:01.074Z</time>
      </trkpt>
      <trkpt lat="45.56502" lon="6.06853">
        <ele>1599</ele>
        <time>2021-06-27T12:03:02.074Z</time>
      </trkpt>
      <trkpt lat="45.56501" lon="6.06852">
        <ele>1598</ele>
        <time>2021-06-27T12:03:03.074Z</time>
      </trkpt>
      <trkpt lat="45.56501" lon="6.06851">
        <ele>1597</ele>
        <time>2021-06-27T12:03:04.074Z</time>
      </trkpt>
      <trkpt lat="45.565" lon="6.06851">
        <ele>1597</ele>
        <time>2021-06-27T12:03:05.074Z</time>
      </trkpt>
      <trkpt lat="45.56499" lon="6.0685">
        <ele>1596</ele>
        <time>2021-06-27T12:03:06.074Z</time>
      </trkpt>
      <trkpt lat="45.56498" lon="6.0685">
        <ele>1596</ele>
        <time>2021-06-27T12:03:07.073Z</time>
      </trkpt>
      <trkpt lat="45.56498" lon="6.06849">
        <ele>1595</ele>
        <time>2021-06-27T12:03:08.074Z</time>
      </trkpt>
      <trkpt lat="45.56497" lon="6.06848">
        <ele>1595</ele>
        <time>2021-06-27T12:03:09.073Z</time>
      </trkpt>
      <trkpt lat="45.56496" lon="6.06848">
        <ele>1595</ele>
        <time>2021-06-27T12:03:10.074Z</time>
      </trkpt>
      <trkpt lat="45.56495" lon="6.06847">
        <ele>1595</ele>
        <time>2021-06-27T12:03:11.074Z</time>
      </trkpt>
      <trkpt lat="45.56495" lon="6.06847">
        <ele>1595</ele>
        <time>2021-06-27T12:03:12.074Z</time>
      </trkpt>
      <trkpt lat="45.56494" lon="6.06848">
        <ele>1595</ele>
        <time>2021-06-27T12:03:13.074Z</time>
      </trkpt>
      <trkpt lat="45.56493" lon="6.06848">
        <ele>1595</ele>
        <time>2021-06-27T12:03:14.074Z</time>
      </trkpt>
      <trkpt lat="45.56492" lon="6.06847">
        <ele>1595</ele>
        <time>2021-06-27T12:03:15.073Z</time>
      </trkpt>
      <trkpt lat="45.56491" lon="6.06847">
        <ele>1594</ele>
        <time>2021-06-27T12:03:16.073Z</time>
      </trkpt>
      <trkpt lat="45.56491" lon="6.06846">
        <ele>1594</ele>
        <time>2021-06-27T12:03:17.074Z</time>
      </trkpt>
      <trkpt lat="45.5649" lon="6.06845">
        <ele>1594</ele>
        <time>2021-06-27T12:03:18.074Z</time>
      </trkpt>
      <trkpt lat="45.56489" lon="6.06844">
        <ele>1594</ele>
        <time>2021-06-27T12:03:19.074Z</time>
      </trkpt>
      <trkpt lat="45.56488" lon="6.06844">
        <ele>1594</ele>
        <time>2021-06-27T12:03:20.074Z</time>
      </trkpt>
      <trkpt lat="45.56487" lon="6.06843">
        <ele>1594</ele>
        <time>2021-06-27T12:03:21.074Z</time>
      </trkpt>
      <trkpt lat="45.56487" lon="6.06843">
        <ele>1594</ele>
        <time>2021-06-27T12:03:22.074Z</time>
      </trkpt>
      <trkpt lat="45.56486" lon="6.06842">
        <ele>1593</ele>
        <time>2021-06-27T12:03:23.074Z</time>
      </trkpt>
      <trkpt lat="45.56486" lon="6.06842">
        <ele>1592</ele>
        <time>2021-06-27T12:03:24.074Z</time>
      </trkpt>
      <trkpt lat="45.56485" lon="6.06842">
        <ele>1592</ele>
        <time>2021-06-27T12:03:25.073Z</time>
      </trkpt>
      <trkpt lat="45.56485" lon="6.06841">
        <ele>1591</ele>
        <time>2021-06-27T12:03:26.074Z</time>
      </trkpt>
      <trkpt lat="45.56484" lon="6.06841">
        <ele>1591</ele>
        <time>2021-06-27T12:03:27.074Z</time>
      </trkpt>
      <trkpt lat="45.56483" lon="6.06842">
        <ele>1591</ele>
        <time>2021-06-27T12:03:28.074Z</time>
      </trkpt>
      <trkpt lat="45.56483" lon="6.06842">
        <ele>1590</ele>
        <time>2021-06-27T12:03:29.073Z</time>
      </trkpt>
      <trkpt lat="45.56482" lon="6.06843">
        <ele>1589</ele>
        <time>2021-06-27T12:03:30.074Z</time>
      </trkpt>
      <trkpt lat="45.56482" lon="6.06844">
        <ele>1589</ele>
        <time>2021-06-27T12:03:31.074Z</time>
      </trkpt>
      <trkpt lat="45.56481" lon="6.06844">
        <ele>1588</ele>
        <time>2021-06-27T12:03:32.074Z</time>
      </trkpt>
      <trkpt lat="45.56481" lon="6.06844">
        <ele>1588</ele>
        <time>2021-06-27T12:03:33.074Z</time>
      </trkpt>
      <trkpt lat="45.5648" lon="6.06844">
        <ele>1587</ele>
        <time>2021-06-27T12:03:34.074Z</time>
      </trkpt>
      <trkpt lat="45.5648" lon="6.06843">
        <ele>1587</ele>
        <time>2021-06-27T12:03:35.074Z</time>
      </trkpt>
      <trkpt lat="45.56479" lon="6.06843">
        <ele>1587</ele>
        <time>2021-06-27T12:03:36.074Z</time>
      </trkpt>
      <trkpt lat="45.56479" lon="6.06842">
        <ele>1587</ele>
        <time>2021-06-27T12:03:37.074Z</time>
      </trkpt>
      <trkpt lat="45.56478" lon="6.06842">
        <ele>1587</ele>
        <time>2021-06-27T12:03:38.074Z</time>
      </trkpt>
      <trkpt lat="45.56477" lon="6.06842">
        <ele>1586</ele>
        <time>2021-06-27T12:03:39.074Z</time>
      </trkpt>
      <trkpt lat="45.56476" lon="6.06843">
        <ele>1586</ele>
        <time>2021-06-27T12:03:40.073Z</time>
      </trkpt>
      <trkpt lat="45.56475" lon="6.06843">
        <ele>1586</ele>
        <time>2021-06-27T12:03:41.074Z</time>
      </trkpt>
      <trkpt lat="45.56474" lon="6.06842">
        <ele>1586</ele>
        <time>2021-06-27T12:03:42.074Z</time>
      </trkpt>
      <trkpt lat="45.56474" lon="6.06842">
        <ele>1586</ele>
        <time>2021-06-27T12:03:43.074Z</time>
      </trkpt>
      <trkpt lat="45.56473" lon="6.06842">
        <ele>1585</ele>
        <time>2021-06-27T12:03:44.074Z</time>
      </trkpt>
      <trkpt lat="45.56473" lon="6.06842">
        <ele>1584</ele>
        <time>2021-06-27T12:03:45.074Z</time>
      </trkpt>
      <trkpt lat="45.56472" lon="6.06841">
        <ele>1584</ele>
        <time>2021-06-27T12:03:46.074Z</time>
      </trkpt>
      <trkpt lat="45.56472" lon="6.0684">
        <ele>1585</ele>
        <time>2021-06-27T12:03:47.074Z</time>
      </trkpt>
      <trkpt lat="45.56471" lon="6.0684">
        <ele>1585</ele>
        <time>2021-06-27T12:03:48.074Z</time>
      </trkpt>
      <trkpt lat="45.56471" lon="6.06839">
        <ele>1585</ele>
        <time>2021-06-27T12:03:49.074Z</time>
      </trkpt>
      <trkpt lat="45.5647" lon="6.06839">
        <ele>1585</ele>
        <time>2021-06-27T12:03:50.074Z</time>
      </trkpt>
      <trkpt lat="45.5647" lon="6.06838">
        <ele>1585</ele>
        <time>2021-06-27T12:03:51.074Z</time>
      </trkpt>
      <trkpt lat="45.56469" lon="6.06838">
        <ele>1584</ele>
        <time>2021-06-27T12:03:52.074Z</time>
      </trkpt>
      <trkpt lat="45.56468" lon="6.06837">
        <ele>1584</ele>
        <time>2021-06-27T12:03:53.074Z</time>
      </trkpt>
      <trkpt lat="45.56468" lon="6.06836">
        <ele>1584</ele>
        <time>2021-06-27T12:03:54.074Z</time>
      </trkpt>
      <trkpt lat="45.56467" lon="6.06835">
        <ele>1584</ele>
        <time>2021-06-27T12:03:55.074Z</time>
      </trkpt>
      <trkpt lat="45.56467" lon="6.06834">
        <ele>1584</ele>
        <time>2021-06-27T12:03:56.074Z</time>
      </trkpt>
      <trkpt lat="45.56466" lon="6.06835">
        <ele>1584</ele>
        <time>2021-06-27T12:03:57.073Z</time>
      </trkpt>
      <trkpt lat="45.56466" lon="6.06835">
        <ele>1583</ele>
        <time>2021-06-27T12:03:58.073Z</time>
      </trkpt>
      <trkpt lat="45.56465" lon="6.06835">
        <ele>1582</ele>
        <time>2021-06-27T12:03:59.073Z</time>
      </trkpt>
      <trkpt lat="45.56464" lon="6.06835">
        <ele>1582</ele>
        <time>2021-06-27T12:04:00.073Z</time>
      </trkpt>
      <trkpt lat="45.56463" lon="6.06834">
        <ele>1581</ele>
        <time>2021-06-27T12:04:01.074Z</time>
      </trkpt>
      <trkpt lat="45.56463" lon="6.06834">
        <ele>1580</ele>
        <time>2021-06-27T12:04:02.073Z</time>
      </trkpt>
      <trkpt lat="45.56462" lon="6.06833">
        <ele>1580</ele>
        <time>2021-06-27T12:04:03.073Z</time>
      </trkpt>
      <trkpt lat="45.56462" lon="6.06833">
        <ele>1579</ele>
        <time>2021-06-27T12:04:04.074Z</time>
      </trkpt>
      <trkpt lat="45.56461" lon="6.06833">
        <ele>1579</ele>
        <time>2021-06-27T12:04:05.073Z</time>
      </trkpt>
      <trkpt lat="45.56461" lon="6.06832">
        <ele>1580</ele>
        <time>2021-06-27T12:04:06.073Z</time>
      </trkpt>
      <trkpt lat="45.5646" lon="6.06832">
        <ele>1580</ele>
        <time>2021-06-27T12:04:07.074Z</time>
      </trkpt>
      <trkpt lat="45.56459" lon="6.06832">
        <ele>1580</ele>
        <time>2021-06-27T12:04:08.074Z</time>
      </trkpt>
      <trkpt lat="45.56458" lon="6.06832">
        <ele>1580</ele>
        <time>2021-06-27T12:04:09.074Z</time>
      </trkpt>
      <trkpt lat="45.56457" lon="6.06832">
        <ele>1580</ele>
        <time>2021-06-27T12:04:10.073Z</time>
      </trkpt>
      <trkpt lat="45.56456" lon="6.06832">
        <ele>1580</ele>
        <time>2021-06-27T12:04:11.073Z</time>
      </trkpt>
      <trkpt lat="45.56455" lon="6.06831">
        <ele>1580</ele>
        <time>2021-06-27T12:04:12.074Z</time>
      </trkpt>
      <trkpt lat="45.56455" lon="6.06831">
        <ele>1579</ele>
        <time>2021-06-27T12:04:13.074Z</time>
      </trkpt>
      <trkpt lat="45.56455" lon="6.0683">
        <ele>1578</ele>
        <time>2021-06-27T12:04:14.074Z</time>
      </trkpt>
      <trkpt lat="45.56454" lon="6.0683">
        <ele>1578</ele>
        <time>2021-06-27T12:04:15.074Z</time>
      </trkpt>
      <trkpt lat="45.56453" lon="6.0683">
        <ele>1577</ele>
        <time>2021-06-27T12:04:16.074Z</time>
      </trkpt>
      <trkpt lat="45.56453" lon="6.0683">
        <ele>1576</ele>
        <time>2021-06-27T12:04:17.074Z</time>
      </trkpt>
      <trkpt lat="45.56452" lon="6.06829">
        <ele>1576</ele>
        <time>2021-06-27T12:04:18.073Z</time>
      </trkpt>
      <trkpt lat="45.56452" lon="6.06828">
        <ele>1575</ele>
        <time>2021-06-27T12:04:19.073Z</time>
      </trkpt>
      <trkpt lat="45.56451" lon="6.06828">
        <ele>1575</ele>
        <time>2021-06-27T12:04:20.074Z</time>
      </trkpt>
      <trkpt lat="45.56451" lon="6.06827">
        <ele>1574</ele>
        <time>2021-06-27T12:04:21.074Z</time>
      </trkpt>
      <trkpt lat="45.56451" lon="6.06826">
        <ele>1573</ele>
        <time>2021-06-27T12:04:22.074Z</time>
      </trkpt>
      <trkpt lat="45.5645" lon="6.06825">
        <ele>1573</ele>
        <time>2021-06-27T12:04:23.073Z</time>
      </trkpt>
      <trkpt lat="45.5645" lon="6.06824">
        <ele>1572</ele>
        <time>2021-06-27T12:04:24.073Z</time>
      </trkpt>
      <trkpt lat="45.56449" lon="6.06823">
        <ele>1572</ele>
        <time>2021-06-27T12:04:25.074Z</time>
      </trkpt>
      <trkpt lat="45.56449" lon="6.06823">
        <ele>1572</ele>
        <time>2021-06-27T12:04:26.074Z</time>
      </trkpt>
      <trkpt lat="45.56448" lon="6.06822">
        <ele>1571</ele>
        <time>2021-06-27T12:04:27.074Z</time>
      </trkpt>
      <trkpt lat="45.56447" lon="6.06821">
        <ele>1571</ele>
        <time>2021-06-27T12:04:28.073Z</time>
      </trkpt>
      <trkpt lat="45.56446" lon="6.0682">
        <ele>1571</ele>
        <time>2021-06-27T12:04:29.074Z</time>
      </trkpt>
      <trkpt lat="45.56446" lon="6.06819">
        <ele>1571</ele>
        <time>2021-06-27T12:04:30.074Z</time>
      </trkpt>
      <trkpt lat="45.56445" lon="6.06819">
        <ele>1571</ele>
        <time>2021-06-27T12:04:31.074Z</time>
      </trkpt>
      <trkpt lat="45.56445" lon="6.06817">
        <ele>1571</ele>
        <time>2021-06-27T12:04:32.074Z</time>
      </trkpt>
      <trkpt lat="45.56445" lon="6.06816">
        <ele>1571</ele>
        <time>2021-06-27T12:04:33.074Z</time>
      </trkpt>
      <trkpt lat="45.56445" lon="6.06815">
        <ele>1570</ele>
        <time>2021-06-27T12:04:34.073Z</time>
      </trkpt>
      <trkpt lat="45.56444" lon="6.06815">
        <ele>1570</ele>
        <time>2021-06-27T12:04:35.073Z</time>
      </trkpt>
      <trkpt lat="45.56443" lon="6.06814">
        <ele>1569</ele>
        <time>2021-06-27T12:04:36.074Z</time>
      </trkpt>
      <trkpt lat="45.56443" lon="6.06813">
        <ele>1568</ele>
        <time>2021-06-27T12:04:37.074Z</time>
      </trkpt>
      <trkpt lat="45.56442" lon="6.06812">
        <ele>1568</ele>
        <time>2021-06-27T12:04:38.074Z</time>
      </trkpt>
      <trkpt lat="45.56442" lon="6.06811">
        <ele>1567</ele>
        <time>2021-06-27T12:04:39.074Z</time>
      </trkpt>
      <trkpt lat="45.56441" lon="6.0681">
        <ele>1567</ele>
        <time>2021-06-27T12:04:40.074Z</time>
      </trkpt>
      <trkpt lat="45.5644" lon="6.06809">
        <ele>1567</ele>
        <time>2021-06-27T12:04:41.074Z</time>
      </trkpt>
      <trkpt lat="45.5644" lon="6.06808">
        <ele>1567</ele>
        <time>2021-06-27T12:04:42.074Z</time>
      </trkpt>
      <trkpt lat="45.56439" lon="6.06808">
        <ele>1568</ele>
        <time>2021-06-27T12:04:43.074Z</time>
      </trkpt>
      <trkpt lat="45.56439" lon="6.06808">
        <ele>1568</ele>
        <time>2021-06-27T12:04:44.073Z</time>
      </trkpt>
      <trkpt lat="45.56438" lon="6.06808">
        <ele>1567</ele>
        <time>2021-06-27T12:04:45.073Z</time>
      </trkpt>
      <trkpt lat="45.56437" lon="6.06808">
        <ele>1567</ele>
        <time>2021-06-27T12:04:46.073Z</time>
      </trkpt>
      <trkpt lat="45.56437" lon="6.06807">
        <ele>1567</ele>
        <time>2021-06-27T12:04:47.073Z</time>
      </trkpt>
      <trkpt lat="45.56436" lon="6.06807">
        <ele>1567</ele>
        <time>2021-06-27T12:04:48.074Z</time>
      </trkpt>
      <trkpt lat="45.56435" lon="6.06807">
        <ele>1567</ele>
        <time>2021-06-27T12:04:49.074Z</time>
      </trkpt>
      <trkpt lat="45.56434" lon="6.06807">
        <ele>1566</ele>
        <time>2021-06-27T12:04:50.073Z</time>
      </trkpt>
      <trkpt lat="45.56434" lon="6.06806">
        <ele>1566</ele>
        <time>2021-06-27T12:04:51.074Z</time>
      </trkpt>
      <trkpt lat="45.56433" lon="6.06805">
        <ele>1566</ele>
        <time>2021-06-27T12:04:52.074Z</time>
      </trkpt>
      <trkpt lat="45.56433" lon="6.06804">
        <ele>1566</ele>
        <time>2021-06-27T12:04:53.073Z</time>
      </trkpt>
      <trkpt lat="45.56432" lon="6.06804">
        <ele>1566</ele>
        <time>2021-06-27T12:04:54.074Z</time>
      </trkpt>
      <trkpt lat="45.56432" lon="6.06804">
        <ele>1566</ele>
        <time>2021-06-27T12:04:55.074Z</time>
      </trkpt>
      <trkpt lat="45.56432" lon="6.06804">
        <ele>1565</ele>
        <time>2021-06-27T12:04:56.073Z</time>
      </trkpt>
      <trkpt lat="45.56432" lon="6.06804">
        <ele>1565</ele>
        <time>2021-06-27T12:04:57.073Z</time>
      </trkpt>
      <trkpt lat="45.56431" lon="6.06804">
        <ele>1564</ele>
        <time>2021-06-27T12:04:58.074Z</time>
      </trkpt>
      <trkpt lat="45.56431" lon="6.06804">
        <ele>1564</ele>
        <time>2021-06-27T12:04:59.074Z</time>
      </trkpt>
      <trkpt lat="45.56431" lon="6.06804">
        <ele>1563</ele>
        <time>2021-06-27T12:05:00.074Z</time>
      </trkpt>
      <trkpt lat="45.5643" lon="6.06804">
        <ele>1563</ele>
        <time>2021-06-27T12:05:01.074Z</time>
      </trkpt>
      <trkpt lat="45.5643" lon="6.06804">
        <ele>1563</ele>
        <time>2021-06-27T12:05:02.074Z</time>
      </trkpt>
      <trkpt lat="45.56429" lon="6.06804">
        <ele>1562</ele>
        <time>2021-06-27T12:05:03.074Z</time>
      </trkpt>
      <trkpt lat="45.56429" lon="6.06804">
        <ele>1562</ele>
        <time>2021-06-27T12:05:04.074Z</time>
      </trkpt>
      <trkpt lat="45.56429" lon="6.06804">
        <ele>1562</ele>
        <time>2021-06-27T12:05:05.074Z</time>
      </trkpt>
      <trkpt lat="45.56428" lon="6.06804">
        <ele>1562</ele>
        <time>2021-06-27T12:05:06.074Z</time>
      </trkpt>
      <trkpt lat="45.56428" lon="6.06805">
        <ele>1562</ele>
        <time>2021-06-27T12:05:07.074Z</time>
      </trkpt>
      <trkpt lat="45.56428" lon="6.06805">
        <ele>1562</ele>
        <time>2021-06-27T12:05:08.074Z</time>
      </trkpt>
      <trkpt lat="45.56427" lon="6.06805">
        <ele>1562</ele>
        <time>2021-06-27T12:05:09.074Z</time>
      </trkpt>
      <trkpt lat="45.56427" lon="6.06804">
        <ele>1561</ele>
        <time>2021-06-27T12:05:10.074Z</time>
      </trkpt>
      <trkpt lat="45.56426" lon="6.06803">
        <ele>1561</ele>
        <time>2021-06-27T12:05:11.073Z</time>
      </trkpt>
      <trkpt lat="45.56426" lon="6.06803">
        <ele>1561</ele>
        <time>2021-06-27T12:05:12.074Z</time>
      </trkpt>
      <trkpt lat="45.56425" lon="6.06803">
        <ele>1561</ele>
        <time>2021-06-27T12:05:13.074Z</time>
      </trkpt>
      <trkpt lat="45.56425" lon="6.06803">
        <ele>1561</ele>
        <time>2021-06-27T12:05:14.074Z</time>
      </trkpt>
      <trkpt lat="45.56424" lon="6.06803">
        <ele>1561</ele>
        <time>2021-06-27T12:05:15.074Z</time>
      </trkpt>
      <trkpt lat="45.56424" lon="6.06803">
        <ele>1562</ele>
        <time>2021-06-27T12:05:16.073Z</time>
      </trkpt>
      <trkpt lat="45.56423" lon="6.06803">
        <ele>1562</ele>
        <time>2021-06-27T12:05:17.074Z</time>
      </trkpt>
      <trkpt lat="45.56422" lon="6.06802">
        <ele>1561</ele>
        <time>2021-06-27T12:05:18.074Z</time>
      </trkpt>
      <trkpt lat="45.56421" lon="6.06801">
        <ele>1561</ele>
        <time>2021-06-27T12:05:19.074Z</time>
      </trkpt>
      <trkpt lat="45.56421" lon="6.068">
        <ele>1560</ele>
        <time>2021-06-27T12:05:20.074Z</time>
      </trkpt>
      <trkpt lat="45.56421" lon="6.06799">
        <ele>1560</ele>
        <time>2021-06-27T12:05:21.073Z</time>
      </trkpt>
      <trkpt lat="45.5642" lon="6.06799">
        <ele>1560</ele>
        <time>2021-06-27T12:05:22.074Z</time>
      </trkpt>
      <trkpt lat="45.5642" lon="6.06799">
        <ele>1559</ele>
        <time>2021-06-27T12:05:23.074Z</time>
      </trkpt>
      <trkpt lat="45.5642" lon="6.068">
        <ele>1559</ele>
        <time>2021-06-27T12:05:24.073Z</time>
      </trkpt>
      <trkpt lat="45.56419" lon="6.06801">
        <ele>1559</ele>
        <time>2021-06-27T12:05:25.074Z</time>
      </trkpt>
      <trkpt lat="45.56419" lon="6.06801">
        <ele>1558</ele>
        <time>2021-06-27T12:05:26.074Z</time>
      </trkpt>
      <trkpt lat="45.56418" lon="6.06802">
        <ele>1558</ele>
        <time>2021-06-27T12:05:27.073Z</time>
      </trkpt>
      <trkpt lat="45.56417" lon="6.06802">
        <ele>1558</ele>
        <time>2021-06-27T12:05:28.073Z</time>
      </trkpt>
      <trkpt lat="45.56416" lon="6.06801">
        <ele>1557</ele>
        <time>2021-06-27T12:05:29.073Z</time>
      </trkpt>
      <trkpt lat="45.56415" lon="6.06801">
        <ele>1557</ele>
        <time>2021-06-27T12:05:30.074Z</time>
      </trkpt>
      <trkpt lat="45.56414" lon="6.068">
        <ele>1556</ele>
        <time>2021-06-27T12:05:31.074Z</time>
      </trkpt>
      <trkpt lat="45.56414" lon="6.06799">
        <ele>1556</ele>
        <time>2021-06-27T12:05:32.074Z</time>
      </trkpt>
      <trkpt lat="45.56414" lon="6.06798">
        <ele>1555</ele>
        <time>2021-06-27T12:05:33.074Z</time>
      </trkpt>
      <trkpt lat="45.56413" lon="6.06798">
        <ele>1555</ele>
        <time>2021-06-27T12:05:34.074Z</time>
      </trkpt>
      <trkpt lat="45.56413" lon="6.06797">
        <ele>1555</ele>
        <time>2021-06-27T12:05:35.074Z</time>
      </trkpt>
      <trkpt lat="45.56412" lon="6.06796">
        <ele>1555</ele>
        <time>2021-06-27T12:05:36.073Z</time>
      </trkpt>
      <trkpt lat="45.56411" lon="6.06796">
        <ele>1555</ele>
        <time>2021-06-27T12:05:37.074Z</time>
      </trkpt>
      <trkpt lat="45.56411" lon="6.06796">
        <ele>1556</ele>
        <time>2021-06-27T12:05:38.073Z</time>
      </trkpt>
      <trkpt lat="45.5641" lon="6.06796">
        <ele>1556</ele>
        <time>2021-06-27T12:05:39.074Z</time>
      </trkpt>
      <trkpt lat="45.56409" lon="6.06796">
        <ele>1556</ele>
        <time>2021-06-27T12:05:40.074Z</time>
      </trkpt>
      <trkpt lat="45.56408" lon="6.06796">
        <ele>1556</ele>
        <time>2021-06-27T12:05:41.074Z</time>
      </trkpt>
      <trkpt lat="45.56407" lon="6.06796">
        <ele>1556</ele>
        <time>2021-06-27T12:05:42.073Z</time>
      </trkpt>
      <trkpt lat="45.56407" lon="6.06797">
        <ele>1555</ele>
        <time>2021-06-27T12:05:43.074Z</time>
      </trkpt>
      <trkpt lat="45.56406" lon="6.06797">
        <ele>1555</ele>
        <time>2021-06-27T12:05:44.074Z</time>
      </trkpt>
      <trkpt lat="45.56405" lon="6.06798">
        <ele>1554</ele>
        <time>2021-06-27T12:05:45.074Z</time>
      </trkpt>
      <trkpt lat="45.56404" lon="6.06797">
        <ele>1554</ele>
        <time>2021-06-27T12:05:46.074Z</time>
      </trkpt>
      <trkpt lat="45.56404" lon="6.06797">
        <ele>1554</ele>
        <time>2021-06-27T12:05:47.073Z</time>
      </trkpt>
      <trkpt lat="45.56403" lon="6.06796">
        <ele>1554</ele>
        <time>2021-06-27T12:05:48.073Z</time>
      </trkpt>
      <trkpt lat="45.56403" lon="6.06796">
        <ele>1553</ele>
        <time>2021-06-27T12:05:49.074Z</time>
      </trkpt>
      <trkpt lat="45.56401" lon="6.06796">
        <ele>1553</ele>
        <time>2021-06-27T12:05:50.073Z</time>
      </trkpt>
      <trkpt lat="45.564" lon="6.06796">
        <ele>1552</ele>
        <time>2021-06-27T12:05:51.074Z</time>
      </trkpt>
      <trkpt lat="45.56399" lon="6.06795">
        <ele>1552</ele>
        <time>2021-06-27T12:05:52.074Z</time>
      </trkpt>
      <trkpt lat="45.56398" lon="6.06794">
        <ele>1553</ele>
        <time>2021-06-27T12:05:53.074Z</time>
      </trkpt>
      <trkpt lat="45.56398" lon="6.06794">
        <ele>1553</ele>
        <time>2021-06-27T12:05:54.074Z</time>
      </trkpt>
      <trkpt lat="45.56397" lon="6.06794">
        <ele>1552</ele>
        <time>2021-06-27T12:05:55.074Z</time>
      </trkpt>
      <trkpt lat="45.56397" lon="6.06794">
        <ele>1552</ele>
        <time>2021-06-27T12:05:56.074Z</time>
      </trkpt>
      <trkpt lat="45.56396" lon="6.06794">
        <ele>1552</ele>
        <time>2021-06-27T12:05:57.074Z</time>
      </trkpt>
      <trkpt lat="45.56395" lon="6.06794">
        <ele>1552</ele>
        <time>2021-06-27T12:05:58.073Z</time>
      </trkpt>
      <trkpt lat="45.56394" lon="6.06795">
        <ele>1551</ele>
        <time>2021-06-27T12:05:59.074Z</time>
      </trkpt>
      <trkpt lat="45.56393" lon="6.06795">
        <ele>1551</ele>
        <time>2021-06-27T12:06:00.074Z</time>
      </trkpt>
      <trkpt lat="45.56392" lon="6.06794">
        <ele>1550</ele>
        <time>2021-06-27T12:06:01.073Z</time>
      </trkpt>
      <trkpt lat="45.56391" lon="6.06794">
        <ele>1550</ele>
        <time>2021-06-27T12:06:02.073Z</time>
      </trkpt>
      <trkpt lat="45.56391" lon="6.06794">
        <ele>1549</ele>
        <time>2021-06-27T12:06:03.073Z</time>
      </trkpt>
      <trkpt lat="45.5639" lon="6.06794">
        <ele>1549</ele>
        <time>2021-06-27T12:06:04.074Z</time>
      </trkpt>
      <trkpt lat="45.56389" lon="6.06794">
        <ele>1548</ele>
        <time>2021-06-27T12:06:05.074Z</time>
      </trkpt>
      <trkpt lat="45.56388" lon="6.06794">
        <ele>1548</ele>
        <time>2021-06-27T12:06:06.074Z</time>
      </trkpt>
      <trkpt lat="45.56387" lon="6.06794">
        <ele>1548</ele>
        <time>2021-06-27T12:06:07.074Z</time>
      </trkpt>
      <trkpt lat="45.56387" lon="6.06793">
        <ele>1548</ele>
        <time>2021-06-27T12:06:08.074Z</time>
      </trkpt>
      <trkpt lat="45.56385" lon="6.06794">
        <ele>1547</ele>
        <time>2021-06-27T12:06:09.073Z</time>
      </trkpt>
      <trkpt lat="45.56385" lon="6.06793">
        <ele>1547</ele>
        <time>2021-06-27T12:06:10.074Z</time>
      </trkpt>
      <trkpt lat="45.56384" lon="6.06793">
        <ele>1547</ele>
        <time>2021-06-27T12:06:11.074Z</time>
      </trkpt>
      <trkpt lat="45.56384" lon="6.06793">
        <ele>1547</ele>
        <time>2021-06-27T12:06:12.073Z</time>
      </trkpt>
      <trkpt lat="45.56384" lon="6.06793">
        <ele>1546</ele>
        <time>2021-06-27T12:06:13.074Z</time>
      </trkpt>
      <trkpt lat="45.56383" lon="6.06793">
        <ele>1546</ele>
        <time>2021-06-27T12:06:14.074Z</time>
      </trkpt>
      <trkpt lat="45.56383" lon="6.06793">
        <ele>1546</ele>
        <time>2021-06-27T12:06:15.073Z</time>
      </trkpt>
      <trkpt lat="45.56382" lon="6.06793">
        <ele>1546</ele>
        <time>2021-06-27T12:06:16.074Z</time>
      </trkpt>
      <trkpt lat="45.56381" lon="6.06793">
        <ele>1545</ele>
        <time>2021-06-27T12:06:17.074Z</time>
      </trkpt>
      <trkpt lat="45.5638" lon="6.06793">
        <ele>1545</ele>
        <time>2021-06-27T12:06:18.073Z</time>
      </trkpt>
      <trkpt lat="45.5638" lon="6.06793">
        <ele>1544</ele>
        <time>2021-06-27T12:06:19.074Z</time>
      </trkpt>
      <trkpt lat="45.56379" lon="6.06793">
        <ele>1543</ele>
        <time>2021-06-27T12:06:20.074Z</time>
      </trkpt>
      <trkpt lat="45.56378" lon="6.06793">
        <ele>1543</ele>
        <time>2021-06-27T12:06:21.074Z</time>
      </trkpt>
      <trkpt lat="45.56377" lon="6.06793">
        <ele>1542</ele>
        <time>2021-06-27T12:06:22.074Z</time>
      </trkpt>
      <trkpt lat="45.56376" lon="6.06794">
        <ele>1541</ele>
        <time>2021-06-27T12:06:23.074Z</time>
      </trkpt>
      <trkpt lat="45.56375" lon="6.06793">
        <ele>1541</ele>
        <time>2021-06-27T12:06:24.073Z</time>
      </trkpt>
      <trkpt lat="45.56375" lon="6.06793">
        <ele>1540</ele>
        <time>2021-06-27T12:06:25.074Z</time>
      </trkpt>
      <trkpt lat="45.56374" lon="6.06793">
        <ele>1540</ele>
        <time>2021-06-27T12:06:26.073Z</time>
      </trkpt>
      <trkpt lat="45.56374" lon="6.06794">
        <ele>1539</ele>
        <time>2021-06-27T12:06:27.074Z</time>
      </trkpt>
      <trkpt lat="45.56373" lon="6.06794">
        <ele>1538</ele>
        <time>2021-06-27T12:06:28.074Z</time>
      </trkpt>
      <trkpt lat="45.56372" lon="6.06793">
        <ele>1538</ele>
        <time>2021-06-27T12:06:29.074Z</time>
      </trkpt>
      <trkpt lat="45.56371" lon="6.06793">
        <ele>1537</ele>
        <time>2021-06-27T12:06:30.074Z</time>
      </trkpt>
      <trkpt lat="45.5637" lon="6.06792">
        <ele>1537</ele>
        <time>2021-06-27T12:06:31.074Z</time>
      </trkpt>
      <trkpt lat="45.5637" lon="6.06791">
        <ele>1537</ele>
        <time>2021-06-27T12:06:32.073Z</time>
      </trkpt>
      <trkpt lat="45.56369" lon="6.06791">
        <ele>1537</ele>
        <time>2021-06-27T12:06:33.074Z</time>
      </trkpt>
      <trkpt lat="45.56368" lon="6.0679">
        <ele>1537</ele>
        <time>2021-06-27T12:06:34.073Z</time>
      </trkpt>
      <trkpt lat="45.56368" lon="6.06789">
        <ele>1537</ele>
        <time>2021-06-27T12:06:35.073Z</time>
      </trkpt>
      <trkpt lat="45.56367" lon="6.06788">
        <ele>1537</ele>
        <time>2021-06-27T12:06:36.074Z</time>
      </trkpt>
      <trkpt lat="45.56366" lon="6.06787">
        <ele>1538</ele>
        <time>2021-06-27T12:06:37.074Z</time>
      </trkpt>
      <trkpt lat="45.56365" lon="6.06786">
        <ele>1538</ele>
        <time>2021-06-27T12:06:38.073Z</time>
      </trkpt>
      <trkpt lat="45.56365" lon="6.06785">
        <ele>1537</ele>
        <time>2021-06-27T12:06:39.074Z</time>
      </trkpt>
      <trkpt lat="45.56364" lon="6.06784">
        <ele>1537</ele>
        <time>2021-06-27T12:06:40.073Z</time>
      </trkpt>
      <trkpt lat="45.56363" lon="6.06784">
        <ele>1537</ele>
        <time>2021-06-27T12:06:41.073Z</time>
      </trkpt>
      <trkpt lat="45.56362" lon="6.06783">
        <ele>1537</ele>
        <time>2021-06-27T12:06:42.074Z</time>
      </trkpt>
      <trkpt lat="45.56362" lon="6.06782">
        <ele>1537</ele>
        <time>2021-06-27T12:06:43.074Z</time>
      </trkpt>
      <trkpt lat="45.56361" lon="6.06781">
        <ele>1536</ele>
        <time>2021-06-27T12:06:44.074Z</time>
      </trkpt>
      <trkpt lat="45.5636" lon="6.0678">
        <ele>1536</ele>
        <time>2021-06-27T12:06:45.074Z</time>
      </trkpt>
      <trkpt lat="45.5636" lon="6.06779">
        <ele>1535</ele>
        <time>2021-06-27T12:06:46.074Z</time>
      </trkpt>
      <trkpt lat="45.56359" lon="6.06779">
        <ele>1535</ele>
        <time>2021-06-27T12:06:47.073Z</time>
      </trkpt>
      <trkpt lat="45.56359" lon="6.06779">
        <ele>1534</ele>
        <time>2021-06-27T12:06:48.073Z</time>
      </trkpt>
      <trkpt lat="45.56358" lon="6.0678">
        <ele>1534</ele>
        <time>2021-06-27T12:06:49.073Z</time>
      </trkpt>
      <trkpt lat="45.56358" lon="6.0678">
        <ele>1533</ele>
        <time>2021-06-27T12:06:50.074Z</time>
      </trkpt>
      <trkpt lat="45.56357" lon="6.06781">
        <ele>1532</ele>
        <time>2021-06-27T12:06:51.074Z</time>
      </trkpt>
      <trkpt lat="45.56357" lon="6.06781">
        <ele>1532</ele>
        <time>2021-06-27T12:06:52.073Z</time>
      </trkpt>
      <trkpt lat="45.56356" lon="6.06781">
        <ele>1531</ele>
        <time>2021-06-27T12:06:53.074Z</time>
      </trkpt>
      <trkpt lat="45.56356" lon="6.06781">
        <ele>1531</ele>
        <time>2021-06-27T12:06:54.073Z</time>
      </trkpt>
      <trkpt lat="45.56355" lon="6.06781">
        <ele>1531</ele>
        <time>2021-06-27T12:06:55.073Z</time>
      </trkpt>
      <trkpt lat="45.56354" lon="6.0678">
        <ele>1530</ele>
        <time>2021-06-27T12:06:56.074Z</time>
      </trkpt>
      <trkpt lat="45.56354" lon="6.0678">
        <ele>1529</ele>
        <time>2021-06-27T12:06:57.074Z</time>
      </trkpt>
      <trkpt lat="45.56353" lon="6.06779">
        <ele>1529</ele>
        <time>2021-06-27T12:06:58.074Z</time>
      </trkpt>
      <trkpt lat="45.56353" lon="6.06778">
        <ele>1528</ele>
        <time>2021-06-27T12:06:59.074Z</time>
      </trkpt>
      <trkpt lat="45.56353" lon="6.06776">
        <ele>1528</ele>
        <time>2021-06-27T12:07:00.073Z</time>
      </trkpt>
      <trkpt lat="45.56352" lon="6.06775">
        <ele>1528</ele>
        <time>2021-06-27T12:07:01.074Z</time>
      </trkpt>
      <trkpt lat="45.56352" lon="6.06774">
        <ele>1529</ele>
        <time>2021-06-27T12:07:02.074Z</time>
      </trkpt>
      <trkpt lat="45.56352" lon="6.06772">
        <ele>1529</ele>
        <time>2021-06-27T12:07:03.074Z</time>
      </trkpt>
      <trkpt lat="45.56351" lon="6.06771">
        <ele>1530</ele>
        <time>2021-06-27T12:07:04.073Z</time>
      </trkpt>
      <trkpt lat="45.56351" lon="6.06769">
        <ele>1530</ele>
        <time>2021-06-27T12:07:05.074Z</time>
      </trkpt>
      <trkpt lat="45.56351" lon="6.06768">
        <ele>1529</ele>
        <time>2021-06-27T12:07:06.074Z</time>
      </trkpt>
      <trkpt lat="45.5635" lon="6.06767">
        <ele>1528</ele>
        <time>2021-06-27T12:07:07.073Z</time>
      </trkpt>
      <trkpt lat="45.5635" lon="6.06766">
        <ele>1527</ele>
        <time>2021-06-27T12:07:08.074Z</time>
      </trkpt>
      <trkpt lat="45.56349" lon="6.06765">
        <ele>1527</ele>
        <time>2021-06-27T12:07:09.073Z</time>
      </trkpt>
      <trkpt lat="45.56349" lon="6.06764">
        <ele>1527</ele>
        <time>2021-06-27T12:07:10.074Z</time>
      </trkpt>
      <trkpt lat="45.56348" lon="6.06763">
        <ele>1527</ele>
        <time>2021-06-27T12:07:11.074Z</time>
      </trkpt>
      <trkpt lat="45.56347" lon="6.06763">
        <ele>1527</ele>
        <time>2021-06-27T12:07:12.074Z</time>
      </trkpt>
      <trkpt lat="45.56347" lon="6.06762">
        <ele>1527</ele>
        <time>2021-06-27T12:07:13.074Z</time>
      </trkpt>
      <trkpt lat="45.56347" lon="6.0676">
        <ele>1526</ele>
        <time>2021-06-27T12:07:14.074Z</time>
      </trkpt>
      <trkpt lat="45.56347" lon="6.06759">
        <ele>1525</ele>
        <time>2021-06-27T12:07:15.074Z</time>
      </trkpt>
      <trkpt lat="45.56347" lon="6.06758">
        <ele>1525</ele>
        <time>2021-06-27T12:07:16.073Z</time>
      </trkpt>
      <trkpt lat="45.56346" lon="6.06757">
        <ele>1525</ele>
        <time>2021-06-27T12:07:17.074Z</time>
      </trkpt>
      <trkpt lat="45.56346" lon="6.06756">
        <ele>1524</ele>
        <time>2021-06-27T12:07:18.074Z</time>
      </trkpt>
      <trkpt lat="45.56345" lon="6.06756">
        <ele>1524</ele>
        <time>2021-06-27T12:07:19.074Z</time>
      </trkpt>
      <trkpt lat="45.56345" lon="6.06755">
        <ele>1523</ele>
        <time>2021-06-27T12:07:20.074Z</time>
      </trkpt>
      <trkpt lat="45.56344" lon="6.06755">
        <ele>1523</ele>
        <time>2021-06-27T12:07:21.073Z</time>
      </trkpt>
      <trkpt lat="45.56344" lon="6.06755">
        <ele>1523</ele>
        <time>2021-06-27T12:07:22.074Z</time>
      </trkpt>
      <trkpt lat="45.56343" lon="6.06754">
        <ele>1522</ele>
        <time>2021-06-27T12:07:23.074Z</time>
      </trkpt>
      <trkpt lat="45.56342" lon="6.06753">
        <ele>1523</ele>
        <time>2021-06-27T12:07:24.074Z</time>
      </trkpt>
      <trkpt lat="45.56342" lon="6.06753">
        <ele>1523</ele>
        <time>2021-06-27T12:07:25.074Z</time>
      </trkpt>
      <trkpt lat="45.56341" lon="6.06752">
        <ele>1523</ele>
        <time>2021-06-27T12:07:26.074Z</time>
      </trkpt>
      <trkpt lat="45.5634" lon="6.06751">
        <ele>1523</ele>
        <time>2021-06-27T12:07:27.074Z</time>
      </trkpt>
      <trkpt lat="45.5634" lon="6.0675">
        <ele>1523</ele>
        <time>2021-06-27T12:07:28.073Z</time>
      </trkpt>
      <trkpt lat="45.56339" lon="6.06749">
        <ele>1523</ele>
        <time>2021-06-27T12:07:29.073Z</time>
      </trkpt>
      <trkpt lat="45.56339" lon="6.06749">
        <ele>1523</ele>
        <time>2021-06-27T12:07:30.073Z</time>
      </trkpt>
      <trkpt lat="45.56339" lon="6.06749">
        <ele>1522</ele>
        <time>2021-06-27T12:07:31.073Z</time>
      </trkpt>
      <trkpt lat="45.56339" lon="6.06749">
        <ele>1522</ele>
        <time>2021-06-27T12:07:32.074Z</time>
      </trkpt>
      <trkpt lat="45.5634" lon="6.06749">
        <ele>1521</ele>
        <time>2021-06-27T12:07:33.074Z</time>
      </trkpt>
      <trkpt lat="45.5634" lon="6.06749">
        <ele>1521</ele>
        <time>2021-06-27T12:07:34.074Z</time>
      </trkpt>
      <trkpt lat="45.5634" lon="6.06749">
        <ele>1521</ele>
        <time>2021-06-27T12:07:35.074Z</time>
      </trkpt>
      <trkpt lat="45.5634" lon="6.06749">
        <ele>1521</ele>
        <time>2021-06-27T12:07:36.074Z</time>
      </trkpt>
      <trkpt lat="45.5634" lon="6.06749">
        <ele>1521</ele>
        <time>2021-06-27T12:07:37.074Z</time>
      </trkpt>
      <trkpt lat="45.5634" lon="6.06748">
        <ele>1521</ele>
        <time>2021-06-27T12:07:38.074Z</time>
      </trkpt>
      <trkpt lat="45.5634" lon="6.06749">
        <ele>1520</ele>
        <time>2021-06-27T12:07:39.074Z</time>
      </trkpt>
      <trkpt lat="45.56341" lon="6.06749">
        <ele>1520</ele>
        <time>2021-06-27T12:07:40.074Z</time>
      </trkpt>
      <trkpt lat="45.56341" lon="6.06749">
        <ele>1519</ele>
        <time>2021-06-27T12:07:41.074Z</time>
      </trkpt>
      <trkpt lat="45.5634" lon="6.06749">
        <ele>1519</ele>
        <time>2021-06-27T12:07:42.074Z</time>
      </trkpt>
      <trkpt lat="45.5634" lon="6.0675">
        <ele>1518</ele>
        <time>2021-06-27T12:07:43.074Z</time>
      </trkpt>
      <trkpt lat="45.5634" lon="6.0675">
        <ele>1517</ele>
        <time>2021-06-27T12:07:44.074Z</time>
      </trkpt>
      <trkpt lat="45.56339" lon="6.0675">
        <ele>1517</ele>
        <time>2021-06-27T12:07:45.074Z</time>
      </trkpt>
      <trkpt lat="45.56339" lon="6.0675">
        <ele>1517</ele>
        <time>2021-06-27T12:07:46.074Z</time>
      </trkpt>
      <trkpt lat="45.56339" lon="6.0675">
        <ele>1517</ele>
        <time>2021-06-27T12:07:47.073Z</time>
      </trkpt>
      <trkpt lat="45.56339" lon="6.0675">
        <ele>1517</ele>
        <time>2021-06-27T12:07:48.074Z</time>
      </trkpt>
      <trkpt lat="45.56339" lon="6.06749">
        <ele>1517</ele>
        <time>2021-06-27T12:07:49.073Z</time>
      </trkpt>
      <trkpt lat="45.56339" lon="6.06749">
        <ele>1517</ele>
        <time>2021-06-27T12:07:50.073Z</time>
      </trkpt>
      <trkpt lat="45.56339" lon="6.06749">
        <ele>1517</ele>
        <time>2021-06-27T12:07:51.074Z</time>
      </trkpt>
      <trkpt lat="45.5634" lon="6.06749">
        <ele>1517</ele>
        <time>2021-06-27T12:07:52.073Z</time>
      </trkpt>
      <trkpt lat="45.5634" lon="6.06749">
        <ele>1518</ele>
        <time>2021-06-27T12:07:53.074Z</time>
      </trkpt>
      <trkpt lat="45.5634" lon="6.06748">
        <ele>1518</ele>
        <time>2021-06-27T12:07:54.074Z</time>
      </trkpt>
      <trkpt lat="45.5634" lon="6.06748">
        <ele>1519</ele>
        <time>2021-06-27T12:07:55.074Z</time>
      </trkpt>
      <trkpt lat="45.5634" lon="6.06748">
        <ele>1520</ele>
        <time>2021-06-27T12:07:56.074Z</time>
      </trkpt>
      <trkpt lat="45.5634" lon="6.06749">
        <ele>1520</ele>
        <time>2021-06-27T12:07:57.073Z</time>
      </trkpt>
      <trkpt lat="45.56339" lon="6.06749">
        <ele>1520</ele>
        <time>2021-06-27T12:07:58.074Z</time>
      </trkpt>
      <trkpt lat="45.56339" lon="6.06749">
        <ele>1520</ele>
        <time>2021-06-27T12:07:59.074Z</time>
      </trkpt>
      <trkpt lat="45.56339" lon="6.0675">
        <ele>1521</ele>
        <time>2021-06-27T12:08:00.074Z</time>
      </trkpt>
      <trkpt lat="45.56339" lon="6.0675">
        <ele>1521</ele>
        <time>2021-06-27T12:08:01.074Z</time>
      </trkpt>
      <trkpt lat="45.56339" lon="6.0675">
        <ele>1521</ele>
        <time>2021-06-27T12:08:02.074Z</time>
      </trkpt>
      <trkpt lat="45.56339" lon="6.0675">
        <ele>1521</ele>
        <time>2021-06-27T12:08:03.074Z</time>
      </trkpt>
      <trkpt lat="45.56339" lon="6.06749">
        <ele>1520</ele>
        <time>2021-06-27T12:08:04.073Z</time>
      </trkpt>
      <trkpt lat="45.56339" lon="6.06749">
        <ele>1520</ele>
        <time>2021-06-27T12:08:05.074Z</time>
      </trkpt>
      <trkpt lat="45.56339" lon="6.06749">
        <ele>1521</ele>
        <time>2021-06-27T12:08:06.074Z</time>
      </trkpt>
      <trkpt lat="45.56339" lon="6.06749">
        <ele>1521</ele>
        <time>2021-06-27T12:08:07.074Z</time>
      </trkpt>
      <trkpt lat="45.5634" lon="6.06749">
        <ele>1521</ele>
        <time>2021-06-27T12:08:08.074Z</time>
      </trkpt>
      <trkpt lat="45.56339" lon="6.06749">
        <ele>1521</ele>
        <time>2021-06-27T12:08:09.074Z</time>
      </trkpt>
      <trkpt lat="45.56339" lon="6.06749">
        <ele>1522</ele>
        <time>2021-06-27T12:08:10.074Z</time>
      </trkpt>
      <trkpt lat="45.56339" lon="6.06749">
        <ele>1522</ele>
        <time>2021-06-27T12:08:11.074Z</time>
      </trkpt>
      <trkpt lat="45.56339" lon="6.06749">
        <ele>1521</ele>
        <time>2021-06-27T12:08:12.074Z</time>
      </trkpt>
      <trkpt lat="45.56339" lon="6.06749">
        <ele>1521</ele>
        <time>2021-06-27T12:08:13.074Z</time>
      </trkpt>
      <trkpt lat="45.56339" lon="6.06749">
        <ele>1521</ele>
        <time>2021-06-27T12:08:14.074Z</time>
      </trkpt>
      <trkpt lat="45.56339" lon="6.06749">
        <ele>1521</ele>
        <time>2021-06-27T12:08:15.074Z</time>
      </trkpt>
      <trkpt lat="45.56339" lon="6.06749">
        <ele>1520</ele>
        <time>2021-06-27T12:08:16.073Z</time>
      </trkpt>
      <trkpt lat="45.56338" lon="6.06748">
        <ele>1520</ele>
        <time>2021-06-27T12:08:17.074Z</time>
      </trkpt>
      <trkpt lat="45.56338" lon="6.06748">
        <ele>1520</ele>
        <time>2021-06-27T12:08:18.073Z</time>
      </trkpt>
      <trkpt lat="45.56337" lon="6.06747">
        <ele>1519</ele>
        <time>2021-06-27T12:08:19.074Z</time>
      </trkpt>
      <trkpt lat="45.56336" lon="6.06747">
        <ele>1519</ele>
        <time>2021-06-27T12:08:20.074Z</time>
      </trkpt>
      <trkpt lat="45.56335" lon="6.06746">
        <ele>1519</ele>
        <time>2021-06-27T12:08:21.074Z</time>
      </trkpt>
      <trkpt lat="45.56334" lon="6.06746">
        <ele>1519</ele>
        <time>2021-06-27T12:08:22.074Z</time>
      </trkpt>
      <trkpt lat="45.56333" lon="6.06745">
        <ele>1519</ele>
        <time>2021-06-27T12:08:23.073Z</time>
      </trkpt>
      <trkpt lat="45.56332" lon="6.06744">
        <ele>1519</ele>
        <time>2021-06-27T12:08:24.074Z</time>
      </trkpt>
      <trkpt lat="45.56331" lon="6.06743">
        <ele>1519</ele>
        <time>2021-06-27T12:08:25.074Z</time>
      </trkpt>
      <trkpt lat="45.5633" lon="6.06743">
        <ele>1519</ele>
        <time>2021-06-27T12:08:26.073Z</time>
      </trkpt>
      <trkpt lat="45.5633" lon="6.06742">
        <ele>1519</ele>
        <time>2021-06-27T12:08:27.074Z</time>
      </trkpt>
      <trkpt lat="45.56329" lon="6.06742">
        <ele>1519</ele>
        <time>2021-06-27T12:08:28.073Z</time>
      </trkpt>
      <trkpt lat="45.56329" lon="6.06742">
        <ele>1519</ele>
        <time>2021-06-27T12:08:29.074Z</time>
      </trkpt>
      <trkpt lat="45.56328" lon="6.06742">
        <ele>1519</ele>
        <time>2021-06-27T12:08:30.074Z</time>
      </trkpt>
      <trkpt lat="45.56327" lon="6.06743">
        <ele>1519</ele>
        <time>2021-06-27T12:08:31.073Z</time>
      </trkpt>
      <trkpt lat="45.56327" lon="6.06743">
        <ele>1519</ele>
        <time>2021-06-27T12:08:32.073Z</time>
      </trkpt>
      <trkpt lat="45.56327" lon="6.06743">
        <ele>1519</ele>
        <time>2021-06-27T12:08:33.074Z</time>
      </trkpt>
      <trkpt lat="45.56326" lon="6.06744">
        <ele>1519</ele>
        <time>2021-06-27T12:08:34.073Z</time>
      </trkpt>
      <trkpt lat="45.56326" lon="6.06745">
        <ele>1518</ele>
        <time>2021-06-27T12:08:35.073Z</time>
      </trkpt>
      <trkpt lat="45.56325" lon="6.06746">
        <ele>1517</ele>
        <time>2021-06-27T12:08:36.073Z</time>
      </trkpt>
      <trkpt lat="45.56324" lon="6.06747">
        <ele>1517</ele>
        <time>2021-06-27T12:08:37.073Z</time>
      </trkpt>
      <trkpt lat="45.56324" lon="6.06747">
        <ele>1517</ele>
        <time>2021-06-27T12:08:38.074Z</time>
      </trkpt>
      <trkpt lat="45.56323" lon="6.06748">
        <ele>1517</ele>
        <time>2021-06-27T12:08:39.074Z</time>
      </trkpt>
      <trkpt lat="45.56323" lon="6.06748">
        <ele>1517</ele>
        <time>2021-06-27T12:08:40.074Z</time>
      </trkpt>
      <trkpt lat="45.56322" lon="6.06749">
        <ele>1517</ele>
        <time>2021-06-27T12:08:41.074Z</time>
      </trkpt>
      <trkpt lat="45.56321" lon="6.0675">
        <ele>1517</ele>
        <time>2021-06-27T12:08:42.074Z</time>
      </trkpt>
      <trkpt lat="45.56321" lon="6.0675">
        <ele>1517</ele>
        <time>2021-06-27T12:08:43.074Z</time>
      </trkpt>
      <trkpt lat="45.5632" lon="6.0675">
        <ele>1517</ele>
        <time>2021-06-27T12:08:44.074Z</time>
      </trkpt>
      <trkpt lat="45.5632" lon="6.06749">
        <ele>1516</ele>
        <time>2021-06-27T12:08:45.074Z</time>
      </trkpt>
      <trkpt lat="45.56319" lon="6.06748">
        <ele>1516</ele>
        <time>2021-06-27T12:08:46.074Z</time>
      </trkpt>
      <trkpt lat="45.56318" lon="6.06748">
        <ele>1516</ele>
        <time>2021-06-27T12:08:47.074Z</time>
      </trkpt>
      <trkpt lat="45.56317" lon="6.06747">
        <ele>1515</ele>
        <time>2021-06-27T12:08:48.074Z</time>
      </trkpt>
      <trkpt lat="45.56317" lon="6.06746">
        <ele>1515</ele>
        <time>2021-06-27T12:08:49.074Z</time>
      </trkpt>
      <trkpt lat="45.56316" lon="6.06745">
        <ele>1515</ele>
        <time>2021-06-27T12:08:50.073Z</time>
      </trkpt>
      <trkpt lat="45.56316" lon="6.06744">
        <ele>1515</ele>
        <time>2021-06-27T12:08:51.074Z</time>
      </trkpt>
      <trkpt lat="45.56315" lon="6.06743">
        <ele>1515</ele>
        <time>2021-06-27T12:08:52.073Z</time>
      </trkpt>
      <trkpt lat="45.56315" lon="6.06743">
        <ele>1515</ele>
        <time>2021-06-27T12:08:53.074Z</time>
      </trkpt>
      <trkpt lat="45.56314" lon="6.06741">
        <ele>1515</ele>
        <time>2021-06-27T12:08:54.073Z</time>
      </trkpt>
      <trkpt lat="45.56313" lon="6.06741">
        <ele>1514</ele>
        <time>2021-06-27T12:08:55.074Z</time>
      </trkpt>
      <trkpt lat="45.56312" lon="6.0674">
        <ele>1514</ele>
        <time>2021-06-27T12:08:56.074Z</time>
      </trkpt>
      <trkpt lat="45.56312" lon="6.06739">
        <ele>1514</ele>
        <time>2021-06-27T12:08:57.074Z</time>
      </trkpt>
      <trkpt lat="45.56311" lon="6.06738">
        <ele>1514</ele>
        <time>2021-06-27T12:08:58.074Z</time>
      </trkpt>
      <trkpt lat="45.56311" lon="6.06737">
        <ele>1514</ele>
        <time>2021-06-27T12:08:59.074Z</time>
      </trkpt>
      <trkpt lat="45.56311" lon="6.06736">
        <ele>1514</ele>
        <time>2021-06-27T12:09:00.073Z</time>
      </trkpt>
      <trkpt lat="45.5631" lon="6.06735">
        <ele>1514</ele>
        <time>2021-06-27T12:09:01.074Z</time>
      </trkpt>
      <trkpt lat="45.56309" lon="6.06735">
        <ele>1514</ele>
        <time>2021-06-27T12:09:02.073Z</time>
      </trkpt>
      <trkpt lat="45.56309" lon="6.06734">
        <ele>1514</ele>
        <time>2021-06-27T12:09:03.074Z</time>
      </trkpt>
      <trkpt lat="45.56308" lon="6.06733">
        <ele>1514</ele>
        <time>2021-06-27T12:09:04.074Z</time>
      </trkpt>
      <trkpt lat="45.56307" lon="6.06733">
        <ele>1514</ele>
        <time>2021-06-27T12:09:05.074Z</time>
      </trkpt>
      <trkpt lat="45.56306" lon="6.06732">
        <ele>1513</ele>
        <time>2021-06-27T12:09:06.074Z</time>
      </trkpt>
      <trkpt lat="45.56305" lon="6.06732">
        <ele>1513</ele>
        <time>2021-06-27T12:09:07.074Z</time>
      </trkpt>
      <trkpt lat="45.56305" lon="6.06731">
        <ele>1512</ele>
        <time>2021-06-27T12:09:08.074Z</time>
      </trkpt>
      <trkpt lat="45.56304" lon="6.0673">
        <ele>1511</ele>
        <time>2021-06-27T12:09:09.074Z</time>
      </trkpt>
      <trkpt lat="45.56303" lon="6.06729">
        <ele>1510</ele>
        <time>2021-06-27T12:09:10.074Z</time>
      </trkpt>
      <trkpt lat="45.56302" lon="6.06729">
        <ele>1510</ele>
        <time>2021-06-27T12:09:11.074Z</time>
      </trkpt>
      <trkpt lat="45.56301" lon="6.06728">
        <ele>1510</ele>
        <time>2021-06-27T12:09:12.074Z</time>
      </trkpt>
      <trkpt lat="45.56301" lon="6.06728">
        <ele>1510</ele>
        <time>2021-06-27T12:09:13.074Z</time>
      </trkpt>
      <trkpt lat="45.56301" lon="6.06728">
        <ele>1510</ele>
        <time>2021-06-27T12:09:14.074Z</time>
      </trkpt>
      <trkpt lat="45.56301" lon="6.06728">
        <ele>1510</ele>
        <time>2021-06-27T12:09:15.074Z</time>
      </trkpt>
      <trkpt lat="45.56301" lon="6.06728">
        <ele>1509</ele>
        <time>2021-06-27T12:09:16.073Z</time>
      </trkpt>
      <trkpt lat="45.563" lon="6.06728">
        <ele>1509</ele>
        <time>2021-06-27T12:09:17.073Z</time>
      </trkpt>
      <trkpt lat="45.563" lon="6.06728">
        <ele>1509</ele>
        <time>2021-06-27T12:09:18.074Z</time>
      </trkpt>
      <trkpt lat="45.56301" lon="6.06728">
        <ele>1509</ele>
        <time>2021-06-27T12:09:19.074Z</time>
      </trkpt>
      <trkpt lat="45.56301" lon="6.06729">
        <ele>1509</ele>
        <time>2021-06-27T12:09:20.074Z</time>
      </trkpt>
      <trkpt lat="45.56302" lon="6.0673">
        <ele>1509</ele>
        <time>2021-06-27T12:09:21.074Z</time>
      </trkpt>
      <trkpt lat="45.56302" lon="6.06731">
        <ele>1509</ele>
        <time>2021-06-27T12:09:22.074Z</time>
      </trkpt>
      <trkpt lat="45.56304" lon="6.06731">
        <ele>1510</ele>
        <time>2021-06-27T12:09:23.074Z</time>
      </trkpt>
      <trkpt lat="45.56305" lon="6.06732">
        <ele>1511</ele>
        <time>2021-06-27T12:09:24.074Z</time>
      </trkpt>
      <trkpt lat="45.56306" lon="6.06734">
        <ele>1511</ele>
        <time>2021-06-27T12:09:25.073Z</time>
      </trkpt>
      <trkpt lat="45.56307" lon="6.06736">
        <ele>1511</ele>
        <time>2021-06-27T12:09:26.073Z</time>
      </trkpt>
      <trkpt lat="45.56307" lon="6.06737">
        <ele>1512</ele>
        <time>2021-06-27T12:09:27.074Z</time>
      </trkpt>
      <trkpt lat="45.56307" lon="6.06739">
        <ele>1512</ele>
        <time>2021-06-27T12:09:28.073Z</time>
      </trkpt>
      <trkpt lat="45.56307" lon="6.06741">
        <ele>1511</ele>
        <time>2021-06-27T12:09:29.074Z</time>
      </trkpt>
      <trkpt lat="45.56307" lon="6.06742">
        <ele>1511</ele>
        <time>2021-06-27T12:09:30.074Z</time>
      </trkpt>
      <trkpt lat="45.56307" lon="6.06744">
        <ele>1510</ele>
        <time>2021-06-27T12:09:31.073Z</time>
      </trkpt>
      <trkpt lat="45.56307" lon="6.06746">
        <ele>1510</ele>
        <time>2021-06-27T12:09:32.073Z</time>
      </trkpt>
      <trkpt lat="45.56308" lon="6.06747">
        <ele>1510</ele>
        <time>2021-06-27T12:09:33.074Z</time>
      </trkpt>
      <trkpt lat="45.56308" lon="6.06749">
        <ele>1510</ele>
        <time>2021-06-27T12:09:34.074Z</time>
      </trkpt>
      <trkpt lat="45.56309" lon="6.0675">
        <ele>1510</ele>
        <time>2021-06-27T12:09:35.074Z</time>
      </trkpt>
      <trkpt lat="45.56308" lon="6.06752">
        <ele>1509</ele>
        <time>2021-06-27T12:09:36.074Z</time>
      </trkpt>
      <trkpt lat="45.56308" lon="6.06753">
        <ele>1509</ele>
        <time>2021-06-27T12:09:37.073Z</time>
      </trkpt>
      <trkpt lat="45.56308" lon="6.06755">
        <ele>1508</ele>
        <time>2021-06-27T12:09:38.074Z</time>
      </trkpt>
      <trkpt lat="45.56309" lon="6.06756">
        <ele>1508</ele>
        <time>2021-06-27T12:09:39.074Z</time>
      </trkpt>
      <trkpt lat="45.56309" lon="6.06758">
        <ele>1508</ele>
        <time>2021-06-27T12:09:40.073Z</time>
      </trkpt>
      <trkpt lat="45.56308" lon="6.06759">
        <ele>1508</ele>
        <time>2021-06-27T12:09:41.074Z</time>
      </trkpt>
      <trkpt lat="45.56308" lon="6.06761">
        <ele>1508</ele>
        <time>2021-06-27T12:09:42.074Z</time>
      </trkpt>
      <trkpt lat="45.56308" lon="6.06762">
        <ele>1507</ele>
        <time>2021-06-27T12:09:43.074Z</time>
      </trkpt>
      <trkpt lat="45.56308" lon="6.06764">
        <ele>1507</ele>
        <time>2021-06-27T12:09:44.074Z</time>
      </trkpt>
      <trkpt lat="45.56308" lon="6.06765">
        <ele>1507</ele>
        <time>2021-06-27T12:09:45.074Z</time>
      </trkpt>
      <trkpt lat="45.56308" lon="6.06767">
        <ele>1507</ele>
        <time>2021-06-27T12:09:46.074Z</time>
      </trkpt>
      <trkpt lat="45.56309" lon="6.06768">
        <ele>1507</ele>
        <time>2021-06-27T12:09:47.074Z</time>
      </trkpt>
      <trkpt lat="45.56309" lon="6.0677">
        <ele>1507</ele>
        <time>2021-06-27T12:09:48.073Z</time>
      </trkpt>
      <trkpt lat="45.56309" lon="6.06771">
        <ele>1507</ele>
        <time>2021-06-27T12:09:49.073Z</time>
      </trkpt>
      <trkpt lat="45.56308" lon="6.06773">
        <ele>1507</ele>
        <time>2021-06-27T12:09:50.074Z</time>
      </trkpt>
      <trkpt lat="45.56308" lon="6.06774">
        <ele>1507</ele>
        <time>2021-06-27T12:09:51.074Z</time>
      </trkpt>
      <trkpt lat="45.56307" lon="6.06776">
        <ele>1507</ele>
        <time>2021-06-27T12:09:52.074Z</time>
      </trkpt>
      <trkpt lat="45.56307" lon="6.06778">
        <ele>1506</ele>
        <time>2021-06-27T12:09:53.074Z</time>
      </trkpt>
      <trkpt lat="45.56307" lon="6.06779">
        <ele>1506</ele>
        <time>2021-06-27T12:09:54.074Z</time>
      </trkpt>
      <trkpt lat="45.56307" lon="6.06781">
        <ele>1506</ele>
        <time>2021-06-27T12:09:55.073Z</time>
      </trkpt>
      <trkpt lat="45.56308" lon="6.06782">
        <ele>1505</ele>
        <time>2021-06-27T12:09:56.074Z</time>
      </trkpt>
      <trkpt lat="45.56308" lon="6.06784">
        <ele>1505</ele>
        <time>2021-06-27T12:09:57.074Z</time>
      </trkpt>
      <trkpt lat="45.56308" lon="6.06785">
        <ele>1506</ele>
        <time>2021-06-27T12:09:58.074Z</time>
      </trkpt>
      <trkpt lat="45.56308" lon="6.06787">
        <ele>1506</ele>
        <time>2021-06-27T12:09:59.074Z</time>
      </trkpt>
      <trkpt lat="45.56309" lon="6.06788">
        <ele>1506</ele>
        <time>2021-06-27T12:10:00.073Z</time>
      </trkpt>
      <trkpt lat="45.56309" lon="6.0679">
        <ele>1507</ele>
        <time>2021-06-27T12:10:01.073Z</time>
      </trkpt>
      <trkpt lat="45.56309" lon="6.06791">
        <ele>1507</ele>
        <time>2021-06-27T12:10:02.073Z</time>
      </trkpt>
      <trkpt lat="45.56308" lon="6.06793">
        <ele>1507</ele>
        <time>2021-06-27T12:10:03.074Z</time>
      </trkpt>
      <trkpt lat="45.56308" lon="6.06794">
        <ele>1507</ele>
        <time>2021-06-27T12:10:04.073Z</time>
      </trkpt>
      <trkpt lat="45.56308" lon="6.06796">
        <ele>1506</ele>
        <time>2021-06-27T12:10:05.073Z</time>
      </trkpt>
      <trkpt lat="45.56308" lon="6.06797">
        <ele>1506</ele>
        <time>2021-06-27T12:10:06.074Z</time>
      </trkpt>
      <trkpt lat="45.56308" lon="6.06798">
        <ele>1506</ele>
        <time>2021-06-27T12:10:07.074Z</time>
      </trkpt>
      <trkpt lat="45.56308" lon="6.06799">
        <ele>1506</ele>
        <time>2021-06-27T12:10:08.074Z</time>
      </trkpt>
      <trkpt lat="45.56308" lon="6.068">
        <ele>1506</ele>
        <time>2021-06-27T12:10:09.074Z</time>
      </trkpt>
      <trkpt lat="45.56307" lon="6.06802">
        <ele>1506</ele>
        <time>2021-06-27T12:10:10.074Z</time>
      </trkpt>
      <trkpt lat="45.56307" lon="6.06804">
        <ele>1505</ele>
        <time>2021-06-27T12:10:11.074Z</time>
      </trkpt>
      <trkpt lat="45.56307" lon="6.06805">
        <ele>1505</ele>
        <time>2021-06-27T12:10:12.074Z</time>
      </trkpt>
      <trkpt lat="45.56307" lon="6.06807">
        <ele>1505</ele>
        <time>2021-06-27T12:10:13.074Z</time>
      </trkpt>
      <trkpt lat="45.56307" lon="6.06808">
        <ele>1505</ele>
        <time>2021-06-27T12:10:14.074Z</time>
      </trkpt>
      <trkpt lat="45.56307" lon="6.0681">
        <ele>1505</ele>
        <time>2021-06-27T12:10:15.074Z</time>
      </trkpt>
      <trkpt lat="45.56308" lon="6.06811">
        <ele>1505</ele>
        <time>2021-06-27T12:10:16.074Z</time>
      </trkpt>
      <trkpt lat="45.56308" lon="6.06812">
        <ele>1505</ele>
        <time>2021-06-27T12:10:17.074Z</time>
      </trkpt>
      <trkpt lat="45.56309" lon="6.06813">
        <ele>1506</ele>
        <time>2021-06-27T12:10:18.074Z</time>
      </trkpt>
      <trkpt lat="45.5631" lon="6.06813">
        <ele>1506</ele>
        <time>2021-06-27T12:10:19.074Z</time>
      </trkpt>
      <trkpt lat="45.5631" lon="6.06815">
        <ele>1506</ele>
        <time>2021-06-27T12:10:20.073Z</time>
      </trkpt>
      <trkpt lat="45.56311" lon="6.06816">
        <ele>1506</ele>
        <time>2021-06-27T12:10:21.074Z</time>
      </trkpt>
      <trkpt lat="45.56311" lon="6.06818">
        <ele>1506</ele>
        <time>2021-06-27T12:10:22.073Z</time>
      </trkpt>
      <trkpt lat="45.56312" lon="6.06819">
        <ele>1507</ele>
        <time>2021-06-27T12:10:23.073Z</time>
      </trkpt>
      <trkpt lat="45.56312" lon="6.0682">
        <ele>1507</ele>
        <time>2021-06-27T12:10:24.074Z</time>
      </trkpt>
      <trkpt lat="45.56313" lon="6.0682">
        <ele>1507</ele>
        <time>2021-06-27T12:10:25.073Z</time>
      </trkpt>
      <trkpt lat="45.56313" lon="6.06821">
        <ele>1507</ele>
        <time>2021-06-27T12:10:26.073Z</time>
      </trkpt>
      <trkpt lat="45.56313" lon="6.0682">
        <ele>1507</ele>
        <time>2021-06-27T12:10:27.073Z</time>
      </trkpt>
      <trkpt lat="45.56313" lon="6.06821">
        <ele>1507</ele>
        <time>2021-06-27T12:10:28.073Z</time>
      </trkpt>
      <trkpt lat="45.56312" lon="6.06821">
        <ele>1507</ele>
        <time>2021-06-27T12:10:29.074Z</time>
      </trkpt>
      <trkpt lat="45.56312" lon="6.06821">
        <ele>1507</ele>
        <time>2021-06-27T12:10:30.074Z</time>
      </trkpt>
      <trkpt lat="45.56312" lon="6.06821">
        <ele>1507</ele>
        <time>2021-06-27T12:10:31.074Z</time>
      </trkpt>
      <trkpt lat="45.56312" lon="6.06821">
        <ele>1507</ele>
        <time>2021-06-27T12:10:32.074Z</time>
      </trkpt>
      <trkpt lat="45.56312" lon="6.06821">
        <ele>1507</ele>
        <time>2021-06-27T12:10:33.074Z</time>
      </trkpt>
      <trkpt lat="45.56312" lon="6.06821">
        <ele>1508</ele>
        <time>2021-06-27T12:10:34.074Z</time>
      </trkpt>
      <trkpt lat="45.56311" lon="6.06821">
        <ele>1508</ele>
        <time>2021-06-27T12:10:35.073Z</time>
      </trkpt>
      <trkpt lat="45.56311" lon="6.06821">
        <ele>1508</ele>
        <time>2021-06-27T12:10:36.074Z</time>
      </trkpt>
      <trkpt lat="45.56311" lon="6.06822">
        <ele>1509</ele>
        <time>2021-06-27T12:10:37.074Z</time>
      </trkpt>
      <trkpt lat="45.56311" lon="6.06822">
        <ele>1509</ele>
        <time>2021-06-27T12:10:38.073Z</time>
      </trkpt>
      <trkpt lat="45.56311" lon="6.06822">
        <ele>1509</ele>
        <time>2021-06-27T12:10:39.073Z</time>
      </trkpt>
      <trkpt lat="45.56311" lon="6.06822">
        <ele>1509</ele>
        <time>2021-06-27T12:10:40.074Z</time>
      </trkpt>
      <trkpt lat="45.56311" lon="6.06822">
        <ele>1509</ele>
        <time>2021-06-27T12:10:41.074Z</time>
      </trkpt>
      <trkpt lat="45.56311" lon="6.06822">
        <ele>1509</ele>
        <time>2021-06-27T12:10:42.074Z</time>
      </trkpt>
      <trkpt lat="45.5631" lon="6.06822">
        <ele>1509</ele>
        <time>2021-06-27T12:10:43.074Z</time>
      </trkpt>
      <trkpt lat="45.5631" lon="6.06822">
        <ele>1509</ele>
        <time>2021-06-27T12:10:44.074Z</time>
      </trkpt>
      <trkpt lat="45.5631" lon="6.06822">
        <ele>1509</ele>
        <time>2021-06-27T12:10:45.073Z</time>
      </trkpt>
      <trkpt lat="45.5631" lon="6.06822">
        <ele>1509</ele>
        <time>2021-06-27T12:10:46.074Z</time>
      </trkpt>
      <trkpt lat="45.56311" lon="6.06822">
        <ele>1509</ele>
        <time>2021-06-27T12:10:47.074Z</time>
      </trkpt>
      <trkpt lat="45.56311" lon="6.06822">
        <ele>1508</ele>
        <time>2021-06-27T12:10:48.073Z</time>
      </trkpt>
      <trkpt lat="45.56311" lon="6.06821">
        <ele>1508</ele>
        <time>2021-06-27T12:10:49.074Z</time>
      </trkpt>
      <trkpt lat="45.56311" lon="6.06821">
        <ele>1508</ele>
        <time>2021-06-27T12:10:50.074Z</time>
      </trkpt>
      <trkpt lat="45.56311" lon="6.06821">
        <ele>1508</ele>
        <time>2021-06-27T12:10:51.074Z</time>
      </trkpt>
      <trkpt lat="45.56311" lon="6.06822">
        <ele>1508</ele>
        <time>2021-06-27T12:10:52.073Z</time>
      </trkpt>
      <trkpt lat="45.56311" lon="6.06822">
        <ele>1508</ele>
        <time>2021-06-27T12:10:53.074Z</time>
      </trkpt>
      <trkpt lat="45.56311" lon="6.06822">
        <ele>1509</ele>
        <time>2021-06-27T12:10:54.074Z</time>
      </trkpt>
      <trkpt lat="45.5631" lon="6.06822">
        <ele>1509</ele>
        <time>2021-06-27T12:10:55.074Z</time>
      </trkpt>
      <trkpt lat="45.5631" lon="6.06822">
        <ele>1510</ele>
        <time>2021-06-27T12:10:56.074Z</time>
      </trkpt>
      <trkpt lat="45.5631" lon="6.06822">
        <ele>1511</ele>
        <time>2021-06-27T12:10:57.074Z</time>
      </trkpt>
      <trkpt lat="45.56311" lon="6.06822">
        <ele>1511</ele>
        <time>2021-06-27T12:10:58.074Z</time>
      </trkpt>
      <trkpt lat="45.56311" lon="6.06822">
        <ele>1511</ele>
        <time>2021-06-27T12:10:59.074Z</time>
      </trkpt>
      <trkpt lat="45.56311" lon="6.06822">
        <ele>1512</ele>
        <time>2021-06-27T12:11:00.073Z</time>
      </trkpt>
      <trkpt lat="45.56311" lon="6.06822">
        <ele>1511</ele>
        <time>2021-06-27T12:11:01.074Z</time>
      </trkpt>
      <trkpt lat="45.56311" lon="6.06822">
        <ele>1510</ele>
        <time>2021-06-27T12:11:02.074Z</time>
      </trkpt>
      <trkpt lat="45.5631" lon="6.06822">
        <ele>1510</ele>
        <time>2021-06-27T12:11:03.074Z</time>
      </trkpt>
      <trkpt lat="45.5631" lon="6.06822">
        <ele>1509</ele>
        <time>2021-06-27T12:11:04.074Z</time>
      </trkpt>
      <trkpt lat="45.5631" lon="6.06822">
        <ele>1509</ele>
        <time>2021-06-27T12:11:05.073Z</time>
      </trkpt>
      <trkpt lat="45.5631" lon="6.06822">
        <ele>1509</ele>
        <time>2021-06-27T12:11:06.074Z</time>
      </trkpt>
      <trkpt lat="45.5631" lon="6.06822">
        <ele>1508</ele>
        <time>2021-06-27T12:11:07.074Z</time>
      </trkpt>
      <trkpt lat="45.5631" lon="6.06822">
        <ele>1509</ele>
        <time>2021-06-27T12:11:08.074Z</time>
      </trkpt>
      <trkpt lat="45.5631" lon="6.06822">
        <ele>1509</ele>
        <time>2021-06-27T12:11:09.074Z</time>
      </trkpt>
      <trkpt lat="45.5631" lon="6.06822">
        <ele>1509</ele>
        <time>2021-06-27T12:11:10.074Z</time>
      </trkpt>
      <trkpt lat="45.5631" lon="6.06823">
        <ele>1509</ele>
        <time>2021-06-27T12:11:11.074Z</time>
      </trkpt>
      <trkpt lat="45.5631" lon="6.06822">
        <ele>1509</ele>
        <time>2021-06-27T12:11:12.074Z</time>
      </trkpt>
      <trkpt lat="45.5631" lon="6.06822">
        <ele>1509</ele>
        <time>2021-06-27T12:11:13.074Z</time>
      </trkpt>
      <trkpt lat="45.5631" lon="6.06822">
        <ele>1508</ele>
        <time>2021-06-27T12:11:14.074Z</time>
      </trkpt>
      <trkpt lat="45.5631" lon="6.06822">
        <ele>1507</ele>
        <time>2021-06-27T12:11:15.074Z</time>
      </trkpt>
      <trkpt lat="45.5631" lon="6.06822">
        <ele>1506</ele>
        <time>2021-06-27T12:11:16.073Z</time>
      </trkpt>
      <trkpt lat="45.5631" lon="6.06822">
        <ele>1505</ele>
        <time>2021-06-27T12:11:17.073Z</time>
      </trkpt>
      <trkpt lat="45.5631" lon="6.06822">
        <ele>1505</ele>
        <time>2021-06-27T12:11:18.074Z</time>
      </trkpt>
      <trkpt lat="45.5631" lon="6.06822">
        <ele>1504</ele>
        <time>2021-06-27T12:11:19.074Z</time>
      </trkpt>
      <trkpt lat="45.5631" lon="6.06822">
        <ele>1504</ele>
        <time>2021-06-27T12:11:20.074Z</time>
      </trkpt>
      <trkpt lat="45.56311" lon="6.06822">
        <ele>1504</ele>
        <time>2021-06-27T12:11:21.073Z</time>
      </trkpt>
      <trkpt lat="45.5631" lon="6.06822">
        <ele>1504</ele>
        <time>2021-06-27T12:11:22.073Z</time>
      </trkpt>
      <trkpt lat="45.5631" lon="6.06823">
        <ele>1504</ele>
        <time>2021-06-27T12:11:23.074Z</time>
      </trkpt>
      <trkpt lat="45.56311" lon="6.06823">
        <ele>1505</ele>
        <time>2021-06-27T12:11:24.074Z</time>
      </trkpt>
      <trkpt lat="45.56311" lon="6.06823">
        <ele>1505</ele>
        <time>2021-06-27T12:11:25.074Z</time>
      </trkpt>
      <trkpt lat="45.56311" lon="6.06823">
        <ele>1505</ele>
        <time>2021-06-27T12:11:26.074Z</time>
      </trkpt>
      <trkpt lat="45.56311" lon="6.06823">
        <ele>1505</ele>
        <time>2021-06-27T12:11:27.074Z</time>
      </trkpt>
      <trkpt lat="45.5631" lon="6.06823">
        <ele>1505</ele>
        <time>2021-06-27T12:11:28.074Z</time>
      </trkpt>
      <trkpt lat="45.5631" lon="6.06823">
        <ele>1505</ele>
        <time>2021-06-27T12:11:29.074Z</time>
      </trkpt>
      <trkpt lat="45.5631" lon="6.06823">
        <ele>1504</ele>
        <time>2021-06-27T12:11:30.074Z</time>
      </trkpt>
      <trkpt lat="45.5631" lon="6.06823">
        <ele>1504</ele>
        <time>2021-06-27T12:11:31.074Z</time>
      </trkpt>
      <trkpt lat="45.5631" lon="6.06823">
        <ele>1503</ele>
        <time>2021-06-27T12:11:32.074Z</time>
      </trkpt>
      <trkpt lat="45.5631" lon="6.06823">
        <ele>1503</ele>
        <time>2021-06-27T12:11:33.074Z</time>
      </trkpt>
      <trkpt lat="45.5631" lon="6.06823">
        <ele>1503</ele>
        <time>2021-06-27T12:11:34.074Z</time>
      </trkpt>
      <trkpt lat="45.56311" lon="6.06823">
        <ele>1504</ele>
        <time>2021-06-27T12:11:35.073Z</time>
      </trkpt>
      <trkpt lat="45.56311" lon="6.06823">
        <ele>1505</ele>
        <time>2021-06-27T12:11:36.074Z</time>
      </trkpt>
      <trkpt lat="45.56311" lon="6.06823">
        <ele>1505</ele>
        <time>2021-06-27T12:11:37.073Z</time>
      </trkpt>
      <trkpt lat="45.56311" lon="6.06823">
        <ele>1505</ele>
        <time>2021-06-27T12:11:38.074Z</time>
      </trkpt>
      <trkpt lat="45.56311" lon="6.06823">
        <ele>1506</ele>
        <time>2021-06-27T12:11:39.074Z</time>
      </trkpt>
      <trkpt lat="45.56311" lon="6.06823">
        <ele>1506</ele>
        <time>2021-06-27T12:11:40.073Z</time>
      </trkpt>
      <trkpt lat="45.56311" lon="6.06823">
        <ele>1505</ele>
        <time>2021-06-27T12:11:41.073Z</time>
      </trkpt>
      <trkpt lat="45.56311" lon="6.06823">
        <ele>1504</ele>
        <time>2021-06-27T12:11:42.073Z</time>
      </trkpt>
      <trkpt lat="45.56311" lon="6.06823">
        <ele>1504</ele>
        <time>2021-06-27T12:11:43.074Z</time>
      </trkpt>
      <trkpt lat="45.56311" lon="6.06823">
        <ele>1504</ele>
        <time>2021-06-27T12:11:44.074Z</time>
      </trkpt>
      <trkpt lat="45.56311" lon="6.06823">
        <ele>1503</ele>
        <time>2021-06-27T12:11:45.074Z</time>
      </trkpt>
      <trkpt lat="45.56311" lon="6.06823">
        <ele>1504</ele>
        <time>2021-06-27T12:11:46.073Z</time>
      </trkpt>
      <trkpt lat="45.56311" lon="6.06823">
        <ele>1504</ele>
        <time>2021-06-27T12:11:47.074Z</time>
      </trkpt>
      <trkpt lat="45.56311" lon="6.06824">
        <ele>1504</ele>
        <time>2021-06-27T12:11:48.073Z</time>
      </trkpt>
      <trkpt lat="45.56311" lon="6.06824">
        <ele>1504</ele>
        <time>2021-06-27T12:11:49.074Z</time>
      </trkpt>
      <trkpt lat="45.56311" lon="6.06824">
        <ele>1503</ele>
        <time>2021-06-27T12:11:50.074Z</time>
      </trkpt>
      <trkpt lat="45.5631" lon="6.06823">
        <ele>1503</ele>
        <time>2021-06-27T12:11:51.074Z</time>
      </trkpt>
      <trkpt lat="45.56311" lon="6.06823">
        <ele>1503</ele>
        <time>2021-06-27T12:11:52.073Z</time>
      </trkpt>
      <trkpt lat="45.56311" lon="6.06823">
        <ele>1503</ele>
        <time>2021-06-27T12:11:53.073Z</time>
      </trkpt>
      <trkpt lat="45.56311" lon="6.06823">
        <ele>1504</ele>
        <time>2021-06-27T12:11:54.073Z</time>
      </trkpt>
      <trkpt lat="45.56311" lon="6.06823">
        <ele>1504</ele>
        <time>2021-06-27T12:11:55.074Z</time>
      </trkpt>
      <trkpt lat="45.56311" lon="6.06823">
        <ele>1504</ele>
        <time>2021-06-27T12:11:56.073Z</time>
      </trkpt>
      <trkpt lat="45.56311" lon="6.06823">
        <ele>1505</ele>
        <time>2021-06-27T12:11:57.073Z</time>
      </trkpt>
      <trkpt lat="45.56311" lon="6.06823">
        <ele>1505</ele>
        <time>2021-06-27T12:11:58.073Z</time>
      </trkpt>
      <trkpt lat="45.56311" lon="6.06823">
        <ele>1505</ele>
        <time>2021-06-27T12:11:59.074Z</time>
      </trkpt>
      <trkpt lat="45.56312" lon="6.06823">
        <ele>1506</ele>
        <time>2021-06-27T12:12:00.074Z</time>
      </trkpt>
      <trkpt lat="45.56312" lon="6.06823">
        <ele>1506</ele>
        <time>2021-06-27T12:12:01.074Z</time>
      </trkpt>
      <trkpt lat="45.56312" lon="6.06823">
        <ele>1507</ele>
        <time>2021-06-27T12:12:02.073Z</time>
      </trkpt>
      <trkpt lat="45.56313" lon="6.06823">
        <ele>1507</ele>
        <time>2021-06-27T12:12:03.074Z</time>
      </trkpt>
      <trkpt lat="45.56313" lon="6.06823">
        <ele>1507</ele>
        <time>2021-06-27T12:12:04.074Z</time>
      </trkpt>
      <trkpt lat="45.56313" lon="6.06823">
        <ele>1507</ele>
        <time>2021-06-27T12:12:05.074Z</time>
      </trkpt>
      <trkpt lat="45.56313" lon="6.06823">
        <ele>1508</ele>
        <time>2021-06-27T12:12:06.074Z</time>
      </trkpt>
      <trkpt lat="45.56312" lon="6.06823">
        <ele>1508</ele>
        <time>2021-06-27T12:12:07.073Z</time>
      </trkpt>
      <trkpt lat="45.56312" lon="6.06823">
        <ele>1508</ele>
        <time>2021-06-27T12:12:08.074Z</time>
      </trkpt>
      <trkpt lat="45.56312" lon="6.06823">
        <ele>1507</ele>
        <time>2021-06-27T12:12:09.074Z</time>
      </trkpt>
      <trkpt lat="45.56312" lon="6.06824">
        <ele>1507</ele>
        <time>2021-06-27T12:12:10.074Z</time>
      </trkpt>
      <trkpt lat="45.56312" lon="6.06825">
        <ele>1507</ele>
        <time>2021-06-27T12:12:11.073Z</time>
      </trkpt>
      <trkpt lat="45.56312" lon="6.06825">
        <ele>1508</ele>
        <time>2021-06-27T12:12:12.073Z</time>
      </trkpt>
      <trkpt lat="45.56312" lon="6.06825">
        <ele>1508</ele>
        <time>2021-06-27T12:12:13.074Z</time>
      </trkpt>
      <trkpt lat="45.56312" lon="6.06824">
        <ele>1508</ele>
        <time>2021-06-27T12:12:14.073Z</time>
      </trkpt>
      <trkpt lat="45.56312" lon="6.06824">
        <ele>1508</ele>
        <time>2021-06-27T12:12:15.074Z</time>
      </trkpt>
      <trkpt lat="45.56312" lon="6.06824">
        <ele>1508</ele>
        <time>2021-06-27T12:12:16.073Z</time>
      </trkpt>
      <trkpt lat="45.56312" lon="6.06824">
        <ele>1508</ele>
        <time>2021-06-27T12:12:17.074Z</time>
      </trkpt>
      <trkpt lat="45.56312" lon="6.06824">
        <ele>1508</ele>
        <time>2021-06-27T12:12:18.074Z</time>
      </trkpt>
      <trkpt lat="45.56312" lon="6.06823">
        <ele>1508</ele>
        <time>2021-06-27T12:12:19.074Z</time>
      </trkpt>
      <trkpt lat="45.56312" lon="6.06823">
        <ele>1508</ele>
        <time>2021-06-27T12:12:20.074Z</time>
      </trkpt>
      <trkpt lat="45.56312" lon="6.06823">
        <ele>1508</ele>
        <time>2021-06-27T12:12:21.074Z</time>
      </trkpt>
      <trkpt lat="45.56312" lon="6.06823">
        <ele>1508</ele>
        <time>2021-06-27T12:12:22.073Z</time>
      </trkpt>
      <trkpt lat="45.56312" lon="6.06823">
        <ele>1508</ele>
        <time>2021-06-27T12:12:23.074Z</time>
      </trkpt>
      <trkpt lat="45.56311" lon="6.06823">
        <ele>1508</ele>
        <time>2021-06-27T12:12:24.073Z</time>
      </trkpt>
      <trkpt lat="45.56311" lon="6.06823">
        <ele>1509</ele>
        <time>2021-06-27T12:12:25.073Z</time>
      </trkpt>
      <trkpt lat="45.56311" lon="6.06823">
        <ele>1509</ele>
        <time>2021-06-27T12:12:26.074Z</time>
      </trkpt>
      <trkpt lat="45.56311" lon="6.06823">
        <ele>1510</ele>
        <time>2021-06-27T12:12:27.074Z</time>
      </trkpt>
      <trkpt lat="45.56311" lon="6.06823">
        <ele>1510</ele>
        <time>2021-06-27T12:12:28.074Z</time>
      </trkpt>
      <trkpt lat="45.56312" lon="6.06823">
        <ele>1511</ele>
        <time>2021-06-27T12:12:29.074Z</time>
      </trkpt>
      <trkpt lat="45.56312" lon="6.06823">
        <ele>1511</ele>
        <time>2021-06-27T12:12:30.074Z</time>
      </trkpt>
      <trkpt lat="45.56312" lon="6.06823">
        <ele>1512</ele>
        <time>2021-06-27T12:12:31.074Z</time>
      </trkpt>
      <trkpt lat="45.56312" lon="6.06823">
        <ele>1512</ele>
        <time>2021-06-27T12:12:32.073Z</time>
      </trkpt>
      <trkpt lat="45.56312" lon="6.06822">
        <ele>1512</ele>
        <time>2021-06-27T12:12:33.073Z</time>
      </trkpt>
      <trkpt lat="45.56312" lon="6.06822">
        <ele>1511</ele>
        <time>2021-06-27T12:12:34.074Z</time>
      </trkpt>
      <trkpt lat="45.56312" lon="6.06822">
        <ele>1511</ele>
        <time>2021-06-27T12:12:35.074Z</time>
      </trkpt>
      <trkpt lat="45.56312" lon="6.06822">
        <ele>1511</ele>
        <time>2021-06-27T12:12:36.074Z</time>
      </trkpt>
      <trkpt lat="45.56312" lon="6.06822">
        <ele>1511</ele>
        <time>2021-06-27T12:12:37.073Z</time>
      </trkpt>
      <trkpt lat="45.56311" lon="6.06822">
        <ele>1510</ele>
        <time>2021-06-27T12:12:38.073Z</time>
      </trkpt>
      <trkpt lat="45.56311" lon="6.06821">
        <ele>1510</ele>
        <time>2021-06-27T12:12:39.074Z</time>
      </trkpt>
      <trkpt lat="45.56311" lon="6.06821">
        <ele>1509</ele>
        <time>2021-06-27T12:12:40.074Z</time>
      </trkpt>
      <trkpt lat="45.56311" lon="6.0682">
        <ele>1509</ele>
        <time>2021-06-27T12:12:41.074Z</time>
      </trkpt>
      <trkpt lat="45.56311" lon="6.0682">
        <ele>1509</ele>
        <time>2021-06-27T12:12:42.073Z</time>
      </trkpt>
      <trkpt lat="45.56311" lon="6.0682">
        <ele>1509</ele>
        <time>2021-06-27T12:12:43.073Z</time>
      </trkpt>
      <trkpt lat="45.56312" lon="6.0682">
        <ele>1509</ele>
        <time>2021-06-27T12:12:44.074Z</time>
      </trkpt>
      <trkpt lat="45.56311" lon="6.06821">
        <ele>1510</ele>
        <time>2021-06-27T12:12:45.074Z</time>
      </trkpt>
      <trkpt lat="45.56311" lon="6.06821">
        <ele>1510</ele>
        <time>2021-06-27T12:12:46.073Z</time>
      </trkpt>
      <trkpt lat="45.56311" lon="6.06821">
        <ele>1510</ele>
        <time>2021-06-27T12:12:47.074Z</time>
      </trkpt>
      <trkpt lat="45.56311" lon="6.06821">
        <ele>1510</ele>
        <time>2021-06-27T12:12:48.074Z</time>
      </trkpt>
      <trkpt lat="45.56311" lon="6.06821">
        <ele>1510</ele>
        <time>2021-06-27T12:12:49.074Z</time>
      </trkpt>
      <trkpt lat="45.56311" lon="6.06822">
        <ele>1511</ele>
        <time>2021-06-27T12:12:50.074Z</time>
      </trkpt>
      <trkpt lat="45.56311" lon="6.06822">
        <ele>1511</ele>
        <time>2021-06-27T12:12:51.073Z</time>
      </trkpt>
      <trkpt lat="45.56311" lon="6.06822">
        <ele>1511</ele>
        <time>2021-06-27T12:12:52.073Z</time>
      </trkpt>
      <trkpt lat="45.56312" lon="6.06822">
        <ele>1511</ele>
        <time>2021-06-27T12:12:53.074Z</time>
      </trkpt>
      <trkpt lat="45.56312" lon="6.06822">
        <ele>1511</ele>
        <time>2021-06-27T12:12:54.073Z</time>
      </trkpt>
      <trkpt lat="45.56312" lon="6.06822">
        <ele>1511</ele>
        <time>2021-06-27T12:12:55.073Z</time>
      </trkpt>
      <trkpt lat="45.56312" lon="6.06822">
        <ele>1511</ele>
        <time>2021-06-27T12:12:56.073Z</time>
      </trkpt>
      <trkpt lat="45.56312" lon="6.06823">
        <ele>1510</ele>
        <time>2021-06-27T12:12:57.074Z</time>
      </trkpt>
      <trkpt lat="45.56311" lon="6.06823">
        <ele>1509</ele>
        <time>2021-06-27T12:12:58.074Z</time>
      </trkpt>
      <trkpt lat="45.56311" lon="6.06823">
        <ele>1509</ele>
        <time>2021-06-27T12:12:59.074Z</time>
      </trkpt>
      <trkpt lat="45.56311" lon="6.06823">
        <ele>1508</ele>
        <time>2021-06-27T12:13:00.074Z</time>
      </trkpt>
      <trkpt lat="45.56311" lon="6.06823">
        <ele>1507</ele>
        <time>2021-06-27T12:13:01.074Z</time>
      </trkpt>
      <trkpt lat="45.56311" lon="6.06823">
        <ele>1506</ele>
        <time>2021-06-27T12:13:02.073Z</time>
      </trkpt>
      <trkpt lat="45.56311" lon="6.06823">
        <ele>1505</ele>
        <time>2021-06-27T12:13:03.073Z</time>
      </trkpt>
      <trkpt lat="45.56311" lon="6.06824">
        <ele>1504</ele>
        <time>2021-06-27T12:13:04.074Z</time>
      </trkpt>
      <trkpt lat="45.56311" lon="6.06824">
        <ele>1503</ele>
        <time>2021-06-27T12:13:05.073Z</time>
      </trkpt>
      <trkpt lat="45.5631" lon="6.06825">
        <ele>1502</ele>
        <time>2021-06-27T12:13:06.073Z</time>
      </trkpt>
      <trkpt lat="45.5631" lon="6.06825">
        <ele>1502</ele>
        <time>2021-06-27T12:13:07.074Z</time>
      </trkpt>
      <trkpt lat="45.5631" lon="6.06825">
        <ele>1501</ele>
        <time>2021-06-27T12:13:08.074Z</time>
      </trkpt>
      <trkpt lat="45.5631" lon="6.06825">
        <ele>1500</ele>
        <time>2021-06-27T12:13:09.074Z</time>
      </trkpt>
      <trkpt lat="45.5631" lon="6.06825">
        <ele>1499</ele>
        <time>2021-06-27T12:13:10.074Z</time>
      </trkpt>
      <trkpt lat="45.5631" lon="6.06825">
        <ele>1498</ele>
        <time>2021-06-27T12:13:11.074Z</time>
      </trkpt>
      <trkpt lat="45.56309" lon="6.06826">
        <ele>1498</ele>
        <time>2021-06-27T12:13:12.074Z</time>
      </trkpt>
      <trkpt lat="45.56309" lon="6.06826">
        <ele>1498</ele>
        <time>2021-06-27T12:13:13.073Z</time>
      </trkpt>
      <trkpt lat="45.56309" lon="6.06827">
        <ele>1497</ele>
        <time>2021-06-27T12:13:14.073Z</time>
      </trkpt>
      <trkpt lat="45.56308" lon="6.06828">
        <ele>1497</ele>
        <time>2021-06-27T12:13:15.074Z</time>
      </trkpt>
      <trkpt lat="45.56308" lon="6.06828">
        <ele>1496</ele>
        <time>2021-06-27T12:13:16.074Z</time>
      </trkpt>
      <trkpt lat="45.56308" lon="6.06828">
        <ele>1496</ele>
        <time>2021-06-27T12:13:17.074Z</time>
      </trkpt>
      <trkpt lat="45.56308" lon="6.06828">
        <ele>1495</ele>
        <time>2021-06-27T12:13:18.074Z</time>
      </trkpt>
      <trkpt lat="45.56308" lon="6.06827">
        <ele>1495</ele>
        <time>2021-06-27T12:13:19.074Z</time>
      </trkpt>
      <trkpt lat="45.56308" lon="6.06827">
        <ele>1494</ele>
        <time>2021-06-27T12:13:20.073Z</time>
      </trkpt>
      <trkpt lat="45.56308" lon="6.06827">
        <ele>1494</ele>
        <time>2021-06-27T12:13:21.074Z</time>
      </trkpt>
      <trkpt lat="45.56308" lon="6.06828">
        <ele>1494</ele>
        <time>2021-06-27T12:13:22.074Z</time>
      </trkpt>
      <trkpt lat="45.56308" lon="6.06828">
        <ele>1494</ele>
        <time>2021-06-27T12:13:23.074Z</time>
      </trkpt>
      <trkpt lat="45.56308" lon="6.06828">
        <ele>1494</ele>
        <time>2021-06-27T12:13:24.073Z</time>
      </trkpt>
      <trkpt lat="45.56308" lon="6.06828">
        <ele>1494</ele>
        <time>2021-06-27T12:13:25.073Z</time>
      </trkpt>
      <trkpt lat="45.56308" lon="6.06828">
        <ele>1495</ele>
        <time>2021-06-27T12:13:26.073Z</time>
      </trkpt>
      <trkpt lat="45.56309" lon="6.06828">
        <ele>1495</ele>
        <time>2021-06-27T12:13:27.074Z</time>
      </trkpt>
      <trkpt lat="45.56309" lon="6.06828">
        <ele>1495</ele>
        <time>2021-06-27T12:13:28.074Z</time>
      </trkpt>
      <trkpt lat="45.56309" lon="6.06827">
        <ele>1496</ele>
        <time>2021-06-27T12:13:29.074Z</time>
      </trkpt>
      <trkpt lat="45.56309" lon="6.06828">
        <ele>1496</ele>
        <time>2021-06-27T12:13:30.074Z</time>
      </trkpt>
      <trkpt lat="45.56309" lon="6.06827">
        <ele>1496</ele>
        <time>2021-06-27T12:13:31.073Z</time>
      </trkpt>
      <trkpt lat="45.56309" lon="6.06827">
        <ele>1497</ele>
        <time>2021-06-27T12:13:32.073Z</time>
      </trkpt>
      <trkpt lat="45.56309" lon="6.06827">
        <ele>1498</ele>
        <time>2021-06-27T12:13:33.074Z</time>
      </trkpt>
      <trkpt lat="45.56309" lon="6.06827">
        <ele>1499</ele>
        <time>2021-06-27T12:13:34.074Z</time>
      </trkpt>
      <trkpt lat="45.56309" lon="6.06827">
        <ele>1499</ele>
        <time>2021-06-27T12:13:35.074Z</time>
      </trkpt>
      <trkpt lat="45.56309" lon="6.06827">
        <ele>1499</ele>
        <time>2021-06-27T12:13:36.074Z</time>
      </trkpt>
      <trkpt lat="45.56309" lon="6.06827">
        <ele>1499</ele>
        <time>2021-06-27T12:13:37.074Z</time>
      </trkpt>
      <trkpt lat="45.56309" lon="6.06827">
        <ele>1500</ele>
        <time>2021-06-27T12:13:38.073Z</time>
      </trkpt>
      <trkpt lat="45.56309" lon="6.06827">
        <ele>1500</ele>
        <time>2021-06-27T12:13:39.073Z</time>
      </trkpt>
      <trkpt lat="45.56309" lon="6.06827">
        <ele>1500</ele>
        <time>2021-06-27T12:13:40.074Z</time>
      </trkpt>
      <trkpt lat="45.56309" lon="6.06827">
        <ele>1500</ele>
        <time>2021-06-27T12:13:41.073Z</time>
      </trkpt>
      <trkpt lat="45.56309" lon="6.06827">
        <ele>1501</ele>
        <time>2021-06-27T12:13:42.074Z</time>
      </trkpt>
      <trkpt lat="45.56309" lon="6.06827">
        <ele>1501</ele>
        <time>2021-06-27T12:13:43.073Z</time>
      </trkpt>
      <trkpt lat="45.56309" lon="6.06826">
        <ele>1501</ele>
        <time>2021-06-27T12:13:44.073Z</time>
      </trkpt>
      <trkpt lat="45.56309" lon="6.06826">
        <ele>1502</ele>
        <time>2021-06-27T12:13:45.074Z</time>
      </trkpt>
      <trkpt lat="45.56308" lon="6.06826">
        <ele>1502</ele>
        <time>2021-06-27T12:13:46.074Z</time>
      </trkpt>
      <trkpt lat="45.56308" lon="6.06826">
        <ele>1503</ele>
        <time>2021-06-27T12:13:47.074Z</time>
      </trkpt>
      <trkpt lat="45.56308" lon="6.06827">
        <ele>1503</ele>
        <time>2021-06-27T12:13:48.074Z</time>
      </trkpt>
      <trkpt lat="45.56308" lon="6.06827">
        <ele>1504</ele>
        <time>2021-06-27T12:13:49.074Z</time>
      </trkpt>
      <trkpt lat="45.56308" lon="6.06827">
        <ele>1504</ele>
        <time>2021-06-27T12:13:50.074Z</time>
      </trkpt>
      <trkpt lat="45.56308" lon="6.06827">
        <ele>1504</ele>
        <time>2021-06-27T12:13:51.074Z</time>
      </trkpt>
      <trkpt lat="45.56308" lon="6.06828">
        <ele>1504</ele>
        <time>2021-06-27T12:13:52.074Z</time>
      </trkpt>
      <trkpt lat="45.56308" lon="6.06828">
        <ele>1504</ele>
        <time>2021-06-27T12:13:53.074Z</time>
      </trkpt>
      <trkpt lat="45.56308" lon="6.06828">
        <ele>1503</ele>
        <time>2021-06-27T12:13:54.074Z</time>
      </trkpt>
      <trkpt lat="45.56308" lon="6.06828">
        <ele>1503</ele>
        <time>2021-06-27T12:13:55.073Z</time>
      </trkpt>
      <trkpt lat="45.56308" lon="6.06828">
        <ele>1503</ele>
        <time>2021-06-27T12:13:56.074Z</time>
      </trkpt>
      <trkpt lat="45.56309" lon="6.06827">
        <ele>1503</ele>
        <time>2021-06-27T12:13:57.073Z</time>
      </trkpt>
      <trkpt lat="45.56309" lon="6.06827">
        <ele>1503</ele>
        <time>2021-06-27T12:13:58.074Z</time>
      </trkpt>
      <trkpt lat="45.56308" lon="6.06827">
        <ele>1502</ele>
        <time>2021-06-27T12:13:59.074Z</time>
      </trkpt>
      <trkpt lat="45.56308" lon="6.06828">
        <ele>1502</ele>
        <time>2021-06-27T12:14:00.074Z</time>
      </trkpt>
      <trkpt lat="45.56308" lon="6.06828">
        <ele>1502</ele>
        <time>2021-06-27T12:14:01.074Z</time>
      </trkpt>
      <trkpt lat="45.56308" lon="6.06828">
        <ele>1503</ele>
        <time>2021-06-27T12:14:02.073Z</time>
      </trkpt>
      <trkpt lat="45.56308" lon="6.06828">
        <ele>1503</ele>
        <time>2021-06-27T12:14:03.074Z</time>
      </trkpt>
      <trkpt lat="45.56308" lon="6.06828">
        <ele>1503</ele>
        <time>2021-06-27T12:14:04.074Z</time>
      </trkpt>
      <trkpt lat="45.56309" lon="6.06829">
        <ele>1503</ele>
        <time>2021-06-27T12:14:05.074Z</time>
      </trkpt>
      <trkpt lat="45.56309" lon="6.0683">
        <ele>1503</ele>
        <time>2021-06-27T12:14:06.073Z</time>
      </trkpt>
      <trkpt lat="45.56309" lon="6.0683">
        <ele>1504</ele>
        <time>2021-06-27T12:14:07.073Z</time>
      </trkpt>
      <trkpt lat="45.56309" lon="6.06831">
        <ele>1504</ele>
        <time>2021-06-27T12:14:08.073Z</time>
      </trkpt>
      <trkpt lat="45.56309" lon="6.06831">
        <ele>1504</ele>
        <time>2021-06-27T12:14:09.073Z</time>
      </trkpt>
      <trkpt lat="45.5631" lon="6.06831">
        <ele>1505</ele>
        <time>2021-06-27T12:14:10.073Z</time>
      </trkpt>
      <trkpt lat="45.5631" lon="6.06831">
        <ele>1505</ele>
        <time>2021-06-27T12:14:11.074Z</time>
      </trkpt>
      <trkpt lat="45.56311" lon="6.06832">
        <ele>1505</ele>
        <time>2021-06-27T12:14:12.074Z</time>
      </trkpt>
      <trkpt lat="45.56311" lon="6.06832">
        <ele>1506</ele>
        <time>2021-06-27T12:14:13.074Z</time>
      </trkpt>
      <trkpt lat="45.56312" lon="6.06833">
        <ele>1506</ele>
        <time>2021-06-27T12:14:14.074Z</time>
      </trkpt>
      <trkpt lat="45.56312" lon="6.06834">
        <ele>1506</ele>
        <time>2021-06-27T12:14:15.073Z</time>
      </trkpt>
      <trkpt lat="45.56313" lon="6.06835">
        <ele>1506</ele>
        <time>2021-06-27T12:14:16.074Z</time>
      </trkpt>
      <trkpt lat="45.56313" lon="6.06836">
        <ele>1507</ele>
        <time>2021-06-27T12:14:17.074Z</time>
      </trkpt>
      <trkpt lat="45.56313" lon="6.06836">
        <ele>1507</ele>
        <time>2021-06-27T12:14:18.074Z</time>
      </trkpt>
      <trkpt lat="45.56313" lon="6.06836">
        <ele>1507</ele>
        <time>2021-06-27T12:14:19.074Z</time>
      </trkpt>
      <trkpt lat="45.56313" lon="6.06836">
        <ele>1507</ele>
        <time>2021-06-27T12:14:20.074Z</time>
      </trkpt>
      <trkpt lat="45.56314" lon="6.06835">
        <ele>1507</ele>
        <time>2021-06-27T12:14:21.074Z</time>
      </trkpt>
      <trkpt lat="45.56314" lon="6.06834">
        <ele>1508</ele>
        <time>2021-06-27T12:14:22.073Z</time>
      </trkpt>
      <trkpt lat="45.56314" lon="6.06834">
        <ele>1508</ele>
        <time>2021-06-27T12:14:23.073Z</time>
      </trkpt>
      <trkpt lat="45.56315" lon="6.06835">
        <ele>1507</ele>
        <time>2021-06-27T12:14:24.073Z</time>
      </trkpt>
      <trkpt lat="45.56316" lon="6.06835">
        <ele>1507</ele>
        <time>2021-06-27T12:14:25.074Z</time>
      </trkpt>
      <trkpt lat="45.56316" lon="6.06836">
        <ele>1507</ele>
        <time>2021-06-27T12:14:26.074Z</time>
      </trkpt>
      <trkpt lat="45.56317" lon="6.06837">
        <ele>1507</ele>
        <time>2021-06-27T12:14:27.074Z</time>
      </trkpt>
      <trkpt lat="45.56317" lon="6.06839">
        <ele>1508</ele>
        <time>2021-06-27T12:14:28.074Z</time>
      </trkpt>
      <trkpt lat="45.56318" lon="6.0684">
        <ele>1508</ele>
        <time>2021-06-27T12:14:29.073Z</time>
      </trkpt>
      <trkpt lat="45.56318" lon="6.06842">
        <ele>1508</ele>
        <time>2021-06-27T12:14:30.074Z</time>
      </trkpt>
      <trkpt lat="45.56318" lon="6.06842">
        <ele>1508</ele>
        <time>2021-06-27T12:14:31.074Z</time>
      </trkpt>
      <trkpt lat="45.56319" lon="6.06844">
        <ele>1508</ele>
        <time>2021-06-27T12:14:32.073Z</time>
      </trkpt>
      <trkpt lat="45.56319" lon="6.06844">
        <ele>1509</ele>
        <time>2021-06-27T12:14:33.073Z</time>
      </trkpt>
      <trkpt lat="45.56319" lon="6.06846">
        <ele>1509</ele>
        <time>2021-06-27T12:14:34.073Z</time>
      </trkpt>
      <trkpt lat="45.56318" lon="6.06846">
        <ele>1509</ele>
        <time>2021-06-27T12:14:35.074Z</time>
      </trkpt>
      <trkpt lat="45.56318" lon="6.06847">
        <ele>1509</ele>
        <time>2021-06-27T12:14:36.073Z</time>
      </trkpt>
      <trkpt lat="45.56317" lon="6.06848">
        <ele>1509</ele>
        <time>2021-06-27T12:14:37.073Z</time>
      </trkpt>
      <trkpt lat="45.56316" lon="6.06848">
        <ele>1509</ele>
        <time>2021-06-27T12:14:38.073Z</time>
      </trkpt>
      <trkpt lat="45.56315" lon="6.06848">
        <ele>1508</ele>
        <time>2021-06-27T12:14:39.074Z</time>
      </trkpt>
      <trkpt lat="45.56314" lon="6.06848">
        <ele>1508</ele>
        <time>2021-06-27T12:14:40.074Z</time>
      </trkpt>
      <trkpt lat="45.56313" lon="6.06848">
        <ele>1508</ele>
        <time>2021-06-27T12:14:41.074Z</time>
      </trkpt>
      <trkpt lat="45.56312" lon="6.06848">
        <ele>1508</ele>
        <time>2021-06-27T12:14:42.074Z</time>
      </trkpt>
      <trkpt lat="45.56311" lon="6.06847">
        <ele>1508</ele>
        <time>2021-06-27T12:14:43.074Z</time>
      </trkpt>
      <trkpt lat="45.5631" lon="6.06846">
        <ele>1508</ele>
        <time>2021-06-27T12:14:44.074Z</time>
      </trkpt>
      <trkpt lat="45.56309" lon="6.06845">
        <ele>1508</ele>
        <time>2021-06-27T12:14:45.074Z</time>
      </trkpt>
      <trkpt lat="45.56309" lon="6.06844">
        <ele>1509</ele>
        <time>2021-06-27T12:14:46.074Z</time>
      </trkpt>
      <trkpt lat="45.56308" lon="6.06843">
        <ele>1509</ele>
        <time>2021-06-27T12:14:47.074Z</time>
      </trkpt>
      <trkpt lat="45.56307" lon="6.06842">
        <ele>1509</ele>
        <time>2021-06-27T12:14:48.074Z</time>
      </trkpt>
      <trkpt lat="45.56305" lon="6.06841">
        <ele>1510</ele>
        <time>2021-06-27T12:14:49.073Z</time>
      </trkpt>
      <trkpt lat="45.56304" lon="6.06841">
        <ele>1510</ele>
        <time>2021-06-27T12:14:50.074Z</time>
      </trkpt>
      <trkpt lat="45.56303" lon="6.06841">
        <ele>1510</ele>
        <time>2021-06-27T12:14:51.074Z</time>
      </trkpt>
      <trkpt lat="45.56302" lon="6.0684">
        <ele>1510</ele>
        <time>2021-06-27T12:14:52.074Z</time>
      </trkpt>
      <trkpt lat="45.56301" lon="6.0684">
        <ele>1509</ele>
        <time>2021-06-27T12:14:53.074Z</time>
      </trkpt>
      <trkpt lat="45.563" lon="6.06839">
        <ele>1509</ele>
        <time>2021-06-27T12:14:54.074Z</time>
      </trkpt>
      <trkpt lat="45.56299" lon="6.06839">
        <ele>1508</ele>
        <time>2021-06-27T12:14:55.073Z</time>
      </trkpt>
      <trkpt lat="45.56298" lon="6.06838">
        <ele>1508</ele>
        <time>2021-06-27T12:14:56.074Z</time>
      </trkpt>
      <trkpt lat="45.56297" lon="6.06838">
        <ele>1507</ele>
        <time>2021-06-27T12:14:57.074Z</time>
      </trkpt>
      <trkpt lat="45.56296" lon="6.06838">
        <ele>1506</ele>
        <time>2021-06-27T12:14:58.074Z</time>
      </trkpt>
      <trkpt lat="45.56295" lon="6.06838">
        <ele>1506</ele>
        <time>2021-06-27T12:14:59.074Z</time>
      </trkpt>
      <trkpt lat="45.56294" lon="6.06837">
        <ele>1505</ele>
        <time>2021-06-27T12:15:00.074Z</time>
      </trkpt>
      <trkpt lat="45.56293" lon="6.06837">
        <ele>1505</ele>
        <time>2021-06-27T12:15:01.073Z</time>
      </trkpt>
      <trkpt lat="45.56292" lon="6.06837">
        <ele>1505</ele>
        <time>2021-06-27T12:15:02.074Z</time>
      </trkpt>
      <trkpt lat="45.5629" lon="6.06837">
        <ele>1505</ele>
        <time>2021-06-27T12:15:03.074Z</time>
      </trkpt>
      <trkpt lat="45.56289" lon="6.06837">
        <ele>1505</ele>
        <time>2021-06-27T12:15:04.074Z</time>
      </trkpt>
      <trkpt lat="45.56288" lon="6.06837">
        <ele>1505</ele>
        <time>2021-06-27T12:15:05.074Z</time>
      </trkpt>
      <trkpt lat="45.56287" lon="6.06837">
        <ele>1505</ele>
        <time>2021-06-27T12:15:06.074Z</time>
      </trkpt>
      <trkpt lat="45.56286" lon="6.06837">
        <ele>1504</ele>
        <time>2021-06-27T12:15:07.073Z</time>
      </trkpt>
      <trkpt lat="45.56285" lon="6.06837">
        <ele>1504</ele>
        <time>2021-06-27T12:15:08.074Z</time>
      </trkpt>
      <trkpt lat="45.56284" lon="6.06837">
        <ele>1503</ele>
        <time>2021-06-27T12:15:09.074Z</time>
      </trkpt>
      <trkpt lat="45.56283" lon="6.06838">
        <ele>1503</ele>
        <time>2021-06-27T12:15:10.074Z</time>
      </trkpt>
      <trkpt lat="45.56282" lon="6.06839">
        <ele>1502</ele>
        <time>2021-06-27T12:15:11.074Z</time>
      </trkpt>
      <trkpt lat="45.56281" lon="6.06839">
        <ele>1502</ele>
        <time>2021-06-27T12:15:12.074Z</time>
      </trkpt>
      <trkpt lat="45.5628" lon="6.06839">
        <ele>1502</ele>
        <time>2021-06-27T12:15:13.074Z</time>
      </trkpt>
      <trkpt lat="45.56279" lon="6.06839">
        <ele>1502</ele>
        <time>2021-06-27T12:15:14.073Z</time>
      </trkpt>
      <trkpt lat="45.56278" lon="6.06839">
        <ele>1503</ele>
        <time>2021-06-27T12:15:15.074Z</time>
      </trkpt>
      <trkpt lat="45.56276" lon="6.06838">
        <ele>1503</ele>
        <time>2021-06-27T12:15:16.073Z</time>
      </trkpt>
      <trkpt lat="45.56275" lon="6.06837">
        <ele>1503</ele>
        <time>2021-06-27T12:15:17.074Z</time>
      </trkpt>
      <trkpt lat="45.56274" lon="6.06837">
        <ele>1504</ele>
        <time>2021-06-27T12:15:18.074Z</time>
      </trkpt>
      <trkpt lat="45.56273" lon="6.06836">
        <ele>1503</ele>
        <time>2021-06-27T12:15:19.074Z</time>
      </trkpt>
      <trkpt lat="45.56272" lon="6.06835">
        <ele>1503</ele>
        <time>2021-06-27T12:15:20.073Z</time>
      </trkpt>
      <trkpt lat="45.56272" lon="6.06835">
        <ele>1502</ele>
        <time>2021-06-27T12:15:21.073Z</time>
      </trkpt>
      <trkpt lat="45.56271" lon="6.06834">
        <ele>1502</ele>
        <time>2021-06-27T12:15:22.074Z</time>
      </trkpt>
      <trkpt lat="45.5627" lon="6.06833">
        <ele>1502</ele>
        <time>2021-06-27T12:15:23.074Z</time>
      </trkpt>
      <trkpt lat="45.56269" lon="6.06833">
        <ele>1502</ele>
        <time>2021-06-27T12:15:24.074Z</time>
      </trkpt>
      <trkpt lat="45.56268" lon="6.06832">
        <ele>1502</ele>
        <time>2021-06-27T12:15:25.074Z</time>
      </trkpt>
      <trkpt lat="45.56267" lon="6.06832">
        <ele>1502</ele>
        <time>2021-06-27T12:15:26.074Z</time>
      </trkpt>
      <trkpt lat="45.56266" lon="6.06832">
        <ele>1502</ele>
        <time>2021-06-27T12:15:27.073Z</time>
      </trkpt>
      <trkpt lat="45.56265" lon="6.06831">
        <ele>1502</ele>
        <time>2021-06-27T12:15:28.074Z</time>
      </trkpt>
      <trkpt lat="45.56264" lon="6.06831">
        <ele>1502</ele>
        <time>2021-06-27T12:15:29.074Z</time>
      </trkpt>
      <trkpt lat="45.56263" lon="6.0683">
        <ele>1503</ele>
        <time>2021-06-27T12:15:30.074Z</time>
      </trkpt>
      <trkpt lat="45.56262" lon="6.0683">
        <ele>1503</ele>
        <time>2021-06-27T12:15:31.074Z</time>
      </trkpt>
      <trkpt lat="45.56261" lon="6.0683">
        <ele>1503</ele>
        <time>2021-06-27T12:15:32.073Z</time>
      </trkpt>
      <trkpt lat="45.5626" lon="6.06829">
        <ele>1503</ele>
        <time>2021-06-27T12:15:33.074Z</time>
      </trkpt>
      <trkpt lat="45.56259" lon="6.06829">
        <ele>1502</ele>
        <time>2021-06-27T12:15:34.074Z</time>
      </trkpt>
      <trkpt lat="45.56258" lon="6.06828">
        <ele>1503</ele>
        <time>2021-06-27T12:15:35.074Z</time>
      </trkpt>
      <trkpt lat="45.56257" lon="6.06828">
        <ele>1503</ele>
        <time>2021-06-27T12:15:36.074Z</time>
      </trkpt>
      <trkpt lat="45.56256" lon="6.06827">
        <ele>1504</ele>
        <time>2021-06-27T12:15:37.074Z</time>
      </trkpt>
      <trkpt lat="45.56255" lon="6.06827">
        <ele>1504</ele>
        <time>2021-06-27T12:15:38.074Z</time>
      </trkpt>
      <trkpt lat="45.56254" lon="6.06827">
        <ele>1505</ele>
        <time>2021-06-27T12:15:39.074Z</time>
      </trkpt>
      <trkpt lat="45.56253" lon="6.06827">
        <ele>1505</ele>
        <time>2021-06-27T12:15:40.073Z</time>
      </trkpt>
      <trkpt lat="45.56252" lon="6.06827">
        <ele>1505</ele>
        <time>2021-06-27T12:15:41.073Z</time>
      </trkpt>
      <trkpt lat="45.56251" lon="6.06827">
        <ele>1505</ele>
        <time>2021-06-27T12:15:42.073Z</time>
      </trkpt>
      <trkpt lat="45.5625" lon="6.06827">
        <ele>1506</ele>
        <time>2021-06-27T12:15:43.073Z</time>
      </trkpt>
      <trkpt lat="45.56249" lon="6.06827">
        <ele>1506</ele>
        <time>2021-06-27T12:15:44.074Z</time>
      </trkpt>
      <trkpt lat="45.56248" lon="6.06826">
        <ele>1506</ele>
        <time>2021-06-27T12:15:45.074Z</time>
      </trkpt>
      <trkpt lat="45.56247" lon="6.06826">
        <ele>1505</ele>
        <time>2021-06-27T12:15:46.074Z</time>
      </trkpt>
      <trkpt lat="45.56246" lon="6.06826">
        <ele>1505</ele>
        <time>2021-06-27T12:15:47.074Z</time>
      </trkpt>
      <trkpt lat="45.56245" lon="6.06827">
        <ele>1505</ele>
        <time>2021-06-27T12:15:48.074Z</time>
      </trkpt>
      <trkpt lat="45.56244" lon="6.06827">
        <ele>1505</ele>
        <time>2021-06-27T12:15:49.074Z</time>
      </trkpt>
      <trkpt lat="45.56243" lon="6.06827">
        <ele>1505</ele>
        <time>2021-06-27T12:15:50.074Z</time>
      </trkpt>
      <trkpt lat="45.56241" lon="6.06827">
        <ele>1505</ele>
        <time>2021-06-27T12:15:51.074Z</time>
      </trkpt>
      <trkpt lat="45.5624" lon="6.06827">
        <ele>1504</ele>
        <time>2021-06-27T12:15:52.073Z</time>
      </trkpt>
      <trkpt lat="45.56239" lon="6.06827">
        <ele>1505</ele>
        <time>2021-06-27T12:15:53.074Z</time>
      </trkpt>
      <trkpt lat="45.56238" lon="6.06826">
        <ele>1505</ele>
        <time>2021-06-27T12:15:54.074Z</time>
      </trkpt>
      <trkpt lat="45.56237" lon="6.06826">
        <ele>1505</ele>
        <time>2021-06-27T12:15:55.073Z</time>
      </trkpt>
      <trkpt lat="45.56236" lon="6.06826">
        <ele>1505</ele>
        <time>2021-06-27T12:15:56.073Z</time>
      </trkpt>
      <trkpt lat="45.56235" lon="6.06827">
        <ele>1505</ele>
        <time>2021-06-27T12:15:57.073Z</time>
      </trkpt>
      <trkpt lat="45.56234" lon="6.06827">
        <ele>1504</ele>
        <time>2021-06-27T12:15:58.074Z</time>
      </trkpt>
      <trkpt lat="45.56232" lon="6.06827">
        <ele>1504</ele>
        <time>2021-06-27T12:15:59.073Z</time>
      </trkpt>
      <trkpt lat="45.56231" lon="6.06827">
        <ele>1504</ele>
        <time>2021-06-27T12:16:00.074Z</time>
      </trkpt>
      <trkpt lat="45.5623" lon="6.06827">
        <ele>1504</ele>
        <time>2021-06-27T12:16:01.074Z</time>
      </trkpt>
      <trkpt lat="45.56229" lon="6.06826">
        <ele>1503</ele>
        <time>2021-06-27T12:16:02.074Z</time>
      </trkpt>
      <trkpt lat="45.56228" lon="6.06826">
        <ele>1503</ele>
        <time>2021-06-27T12:16:03.074Z</time>
      </trkpt>
      <trkpt lat="45.56227" lon="6.06825">
        <ele>1503</ele>
        <time>2021-06-27T12:16:04.074Z</time>
      </trkpt>
      <trkpt lat="45.56226" lon="6.06825">
        <ele>1503</ele>
        <time>2021-06-27T12:16:05.074Z</time>
      </trkpt>
      <trkpt lat="45.56225" lon="6.06824">
        <ele>1504</ele>
        <time>2021-06-27T12:16:06.074Z</time>
      </trkpt>
      <trkpt lat="45.56224" lon="6.06824">
        <ele>1504</ele>
        <time>2021-06-27T12:16:07.074Z</time>
      </trkpt>
      <trkpt lat="45.56223" lon="6.06824">
        <ele>1504</ele>
        <time>2021-06-27T12:16:08.073Z</time>
      </trkpt>
      <trkpt lat="45.56222" lon="6.06824">
        <ele>1504</ele>
        <time>2021-06-27T12:16:09.074Z</time>
      </trkpt>
      <trkpt lat="45.56221" lon="6.06824">
        <ele>1503</ele>
        <time>2021-06-27T12:16:10.074Z</time>
      </trkpt>
      <trkpt lat="45.5622" lon="6.06824">
        <ele>1503</ele>
        <time>2021-06-27T12:16:11.073Z</time>
      </trkpt>
      <trkpt lat="45.56219" lon="6.06824">
        <ele>1503</ele>
        <time>2021-06-27T12:16:12.073Z</time>
      </trkpt>
      <trkpt lat="45.56218" lon="6.06825">
        <ele>1503</ele>
        <time>2021-06-27T12:16:13.073Z</time>
      </trkpt>
      <trkpt lat="45.56216" lon="6.06825">
        <ele>1502</ele>
        <time>2021-06-27T12:16:14.074Z</time>
      </trkpt>
      <trkpt lat="45.56215" lon="6.06824">
        <ele>1502</ele>
        <time>2021-06-27T12:16:15.074Z</time>
      </trkpt>
      <trkpt lat="45.56214" lon="6.06824">
        <ele>1502</ele>
        <time>2021-06-27T12:16:16.074Z</time>
      </trkpt>
      <trkpt lat="45.56213" lon="6.06824">
        <ele>1502</ele>
        <time>2021-06-27T12:16:17.073Z</time>
      </trkpt>
      <trkpt lat="45.56212" lon="6.06823">
        <ele>1502</ele>
        <time>2021-06-27T12:16:18.073Z</time>
      </trkpt>
      <trkpt lat="45.5621" lon="6.06823">
        <ele>1503</ele>
        <time>2021-06-27T12:16:19.073Z</time>
      </trkpt>
      <trkpt lat="45.56209" lon="6.06823">
        <ele>1503</ele>
        <time>2021-06-27T12:16:20.073Z</time>
      </trkpt>
      <trkpt lat="45.56208" lon="6.06823">
        <ele>1503</ele>
        <time>2021-06-27T12:16:21.073Z</time>
      </trkpt>
      <trkpt lat="45.56207" lon="6.06822">
        <ele>1503</ele>
        <time>2021-06-27T12:16:22.074Z</time>
      </trkpt>
      <trkpt lat="45.56206" lon="6.06823">
        <ele>1503</ele>
        <time>2021-06-27T12:16:23.074Z</time>
      </trkpt>
      <trkpt lat="45.56205" lon="6.06823">
        <ele>1503</ele>
        <time>2021-06-27T12:16:24.073Z</time>
      </trkpt>
      <trkpt lat="45.56204" lon="6.06823">
        <ele>1503</ele>
        <time>2021-06-27T12:16:25.073Z</time>
      </trkpt>
      <trkpt lat="45.56203" lon="6.06823">
        <ele>1503</ele>
        <time>2021-06-27T12:16:26.073Z</time>
      </trkpt>
      <trkpt lat="45.56202" lon="6.06823">
        <ele>1503</ele>
        <time>2021-06-27T12:16:27.073Z</time>
      </trkpt>
      <trkpt lat="45.562" lon="6.06823">
        <ele>1504</ele>
        <time>2021-06-27T12:16:28.074Z</time>
      </trkpt>
      <trkpt lat="45.56199" lon="6.06823">
        <ele>1504</ele>
        <time>2021-06-27T12:16:29.073Z</time>
      </trkpt>
      <trkpt lat="45.56197" lon="6.06822">
        <ele>1504</ele>
        <time>2021-06-27T12:16:30.073Z</time>
      </trkpt>
      <trkpt lat="45.56197" lon="6.06822">
        <ele>1505</ele>
        <time>2021-06-27T12:16:31.073Z</time>
      </trkpt>
      <trkpt lat="45.56195" lon="6.06822">
        <ele>1505</ele>
        <time>2021-06-27T12:16:32.073Z</time>
      </trkpt>
      <trkpt lat="45.56194" lon="6.06822">
        <ele>1505</ele>
        <time>2021-06-27T12:16:33.073Z</time>
      </trkpt>
      <trkpt lat="45.56193" lon="6.06822">
        <ele>1505</ele>
        <time>2021-06-27T12:16:34.074Z</time>
      </trkpt>
      <trkpt lat="45.56192" lon="6.06823">
        <ele>1505</ele>
        <time>2021-06-27T12:16:35.073Z</time>
      </trkpt>
      <trkpt lat="45.56191" lon="6.06823">
        <ele>1504</ele>
        <time>2021-06-27T12:16:36.073Z</time>
      </trkpt>
      <trkpt lat="45.5619" lon="6.06823">
        <ele>1503</ele>
        <time>2021-06-27T12:16:37.073Z</time>
      </trkpt>
      <trkpt lat="45.56189" lon="6.06822">
        <ele>1503</ele>
        <time>2021-06-27T12:16:38.074Z</time>
      </trkpt>
      <trkpt lat="45.56187" lon="6.06823">
        <ele>1503</ele>
        <time>2021-06-27T12:16:39.073Z</time>
      </trkpt>
      <trkpt lat="45.56186" lon="6.06823">
        <ele>1502</ele>
        <time>2021-06-27T12:16:40.073Z</time>
      </trkpt>
      <trkpt lat="45.56185" lon="6.06823">
        <ele>1502</ele>
        <time>2021-06-27T12:16:41.073Z</time>
      </trkpt>
      <trkpt lat="45.56184" lon="6.06823">
        <ele>1502</ele>
        <time>2021-06-27T12:16:42.074Z</time>
      </trkpt>
      <trkpt lat="45.56183" lon="6.06823">
        <ele>1502</ele>
        <time>2021-06-27T12:16:43.073Z</time>
      </trkpt>
      <trkpt lat="45.56181" lon="6.06823">
        <ele>1501</ele>
        <time>2021-06-27T12:16:44.073Z</time>
      </trkpt>
      <trkpt lat="45.5618" lon="6.06824">
        <ele>1501</ele>
        <time>2021-06-27T12:16:45.073Z</time>
      </trkpt>
      <trkpt lat="45.56179" lon="6.06824">
        <ele>1501</ele>
        <time>2021-06-27T12:16:46.073Z</time>
      </trkpt>
      <trkpt lat="45.56178" lon="6.06824">
        <ele>1501</ele>
        <time>2021-06-27T12:16:47.074Z</time>
      </trkpt>
      <trkpt lat="45.56177" lon="6.06824">
        <ele>1502</ele>
        <time>2021-06-27T12:16:48.073Z</time>
      </trkpt>
      <trkpt lat="45.56176" lon="6.06824">
        <ele>1502</ele>
        <time>2021-06-27T12:16:49.073Z</time>
      </trkpt>
      <trkpt lat="45.56175" lon="6.06824">
        <ele>1502</ele>
        <time>2021-06-27T12:16:50.073Z</time>
      </trkpt>
      <trkpt lat="45.56174" lon="6.06824">
        <ele>1503</ele>
        <time>2021-06-27T12:16:51.073Z</time>
      </trkpt>
      <trkpt lat="45.56173" lon="6.06823">
        <ele>1503</ele>
        <time>2021-06-27T12:16:52.073Z</time>
      </trkpt>
      <trkpt lat="45.56172" lon="6.06823">
        <ele>1503</ele>
        <time>2021-06-27T12:16:53.073Z</time>
      </trkpt>
      <trkpt lat="45.56171" lon="6.06822">
        <ele>1502</ele>
        <time>2021-06-27T12:16:54.073Z</time>
      </trkpt>
      <trkpt lat="45.5617" lon="6.06822">
        <ele>1502</ele>
        <time>2021-06-27T12:16:55.073Z</time>
      </trkpt>
      <trkpt lat="45.56169" lon="6.06821">
        <ele>1502</ele>
        <time>2021-06-27T12:16:56.073Z</time>
      </trkpt>
      <trkpt lat="45.56168" lon="6.06821">
        <ele>1502</ele>
        <time>2021-06-27T12:16:57.073Z</time>
      </trkpt>
      <trkpt lat="45.56167" lon="6.06821">
        <ele>1502</ele>
        <time>2021-06-27T12:16:58.074Z</time>
      </trkpt>
      <trkpt lat="45.56166" lon="6.0682">
        <ele>1502</ele>
        <time>2021-06-27T12:16:59.073Z</time>
      </trkpt>
      <trkpt lat="45.56165" lon="6.06819">
        <ele>1503</ele>
        <time>2021-06-27T12:17:00.073Z</time>
      </trkpt>
      <trkpt lat="45.56164" lon="6.06819">
        <ele>1503</ele>
        <time>2021-06-27T12:17:01.074Z</time>
      </trkpt>
      <trkpt lat="45.56163" lon="6.06818">
        <ele>1504</ele>
        <time>2021-06-27T12:17:02.074Z</time>
      </trkpt>
      <trkpt lat="45.56162" lon="6.06817">
        <ele>1504</ele>
        <time>2021-06-27T12:17:03.074Z</time>
      </trkpt>
      <trkpt lat="45.56161" lon="6.06817">
        <ele>1504</ele>
        <time>2021-06-27T12:17:04.074Z</time>
      </trkpt>
      <trkpt lat="45.5616" lon="6.06817">
        <ele>1504</ele>
        <time>2021-06-27T12:17:05.073Z</time>
      </trkpt>
      <trkpt lat="45.56159" lon="6.06817">
        <ele>1504</ele>
        <time>2021-06-27T12:17:06.074Z</time>
      </trkpt>
      <trkpt lat="45.56157" lon="6.06817">
        <ele>1505</ele>
        <time>2021-06-27T12:17:07.074Z</time>
      </trkpt>
      <trkpt lat="45.56156" lon="6.06817">
        <ele>1505</ele>
        <time>2021-06-27T12:17:08.074Z</time>
      </trkpt>
      <trkpt lat="45.56155" lon="6.06818">
        <ele>1505</ele>
        <time>2021-06-27T12:17:09.074Z</time>
      </trkpt>
      <trkpt lat="45.56154" lon="6.06818">
        <ele>1504</ele>
        <time>2021-06-27T12:17:10.073Z</time>
      </trkpt>
      <trkpt lat="45.56153" lon="6.06818">
        <ele>1504</ele>
        <time>2021-06-27T12:17:11.073Z</time>
      </trkpt>
      <trkpt lat="45.56152" lon="6.06818">
        <ele>1505</ele>
        <time>2021-06-27T12:17:12.073Z</time>
      </trkpt>
      <trkpt lat="45.56151" lon="6.06818">
        <ele>1504</ele>
        <time>2021-06-27T12:17:13.074Z</time>
      </trkpt>
      <trkpt lat="45.5615" lon="6.06817">
        <ele>1504</ele>
        <time>2021-06-27T12:17:14.073Z</time>
      </trkpt>
      <trkpt lat="45.56149" lon="6.06817">
        <ele>1504</ele>
        <time>2021-06-27T12:17:15.073Z</time>
      </trkpt>
      <trkpt lat="45.56148" lon="6.06817">
        <ele>1504</ele>
        <time>2021-06-27T12:17:16.073Z</time>
      </trkpt>
      <trkpt lat="45.56147" lon="6.06817">
        <ele>1503</ele>
        <time>2021-06-27T12:17:17.073Z</time>
      </trkpt>
      <trkpt lat="45.56145" lon="6.06817">
        <ele>1503</ele>
        <time>2021-06-27T12:17:18.073Z</time>
      </trkpt>
      <trkpt lat="45.56144" lon="6.06817">
        <ele>1503</ele>
        <time>2021-06-27T12:17:19.073Z</time>
      </trkpt>
      <trkpt lat="45.56143" lon="6.06817">
        <ele>1503</ele>
        <time>2021-06-27T12:17:20.074Z</time>
      </trkpt>
      <trkpt lat="45.56142" lon="6.06818">
        <ele>1503</ele>
        <time>2021-06-27T12:17:21.073Z</time>
      </trkpt>
      <trkpt lat="45.56141" lon="6.06818">
        <ele>1504</ele>
        <time>2021-06-27T12:17:22.074Z</time>
      </trkpt>
      <trkpt lat="45.5614" lon="6.06819">
        <ele>1504</ele>
        <time>2021-06-27T12:17:23.074Z</time>
      </trkpt>
      <trkpt lat="45.56139" lon="6.06819">
        <ele>1504</ele>
        <time>2021-06-27T12:17:24.074Z</time>
      </trkpt>
      <trkpt lat="45.56138" lon="6.06818">
        <ele>1504</ele>
        <time>2021-06-27T12:17:25.074Z</time>
      </trkpt>
      <trkpt lat="45.56136" lon="6.06818">
        <ele>1504</ele>
        <time>2021-06-27T12:17:26.074Z</time>
      </trkpt>
      <trkpt lat="45.56135" lon="6.06818">
        <ele>1505</ele>
        <time>2021-06-27T12:17:27.074Z</time>
      </trkpt>
      <trkpt lat="45.56134" lon="6.06819">
        <ele>1505</ele>
        <time>2021-06-27T12:17:28.073Z</time>
      </trkpt>
      <trkpt lat="45.56133" lon="6.06819">
        <ele>1505</ele>
        <time>2021-06-27T12:17:29.073Z</time>
      </trkpt>
      <trkpt lat="45.56132" lon="6.0682">
        <ele>1505</ele>
        <time>2021-06-27T12:17:30.074Z</time>
      </trkpt>
      <trkpt lat="45.56131" lon="6.0682">
        <ele>1505</ele>
        <time>2021-06-27T12:17:31.074Z</time>
      </trkpt>
      <trkpt lat="45.5613" lon="6.0682">
        <ele>1506</ele>
        <time>2021-06-27T12:17:32.074Z</time>
      </trkpt>
      <trkpt lat="45.56129" lon="6.06821">
        <ele>1506</ele>
        <time>2021-06-27T12:17:33.074Z</time>
      </trkpt>
      <trkpt lat="45.56128" lon="6.06821">
        <ele>1506</ele>
        <time>2021-06-27T12:17:34.074Z</time>
      </trkpt>
      <trkpt lat="45.56127" lon="6.06821">
        <ele>1505</ele>
        <time>2021-06-27T12:17:35.074Z</time>
      </trkpt>
      <trkpt lat="45.56126" lon="6.06822">
        <ele>1504</ele>
        <time>2021-06-27T12:17:36.074Z</time>
      </trkpt>
      <trkpt lat="45.56125" lon="6.06822">
        <ele>1504</ele>
        <time>2021-06-27T12:17:37.074Z</time>
      </trkpt>
      <trkpt lat="45.56124" lon="6.06822">
        <ele>1504</ele>
        <time>2021-06-27T12:17:38.074Z</time>
      </trkpt>
      <trkpt lat="45.56123" lon="6.06821">
        <ele>1504</ele>
        <time>2021-06-27T12:17:39.074Z</time>
      </trkpt>
      <trkpt lat="45.56122" lon="6.06822">
        <ele>1504</ele>
        <time>2021-06-27T12:17:40.074Z</time>
      </trkpt>
      <trkpt lat="45.56121" lon="6.06822">
        <ele>1504</ele>
        <time>2021-06-27T12:17:41.074Z</time>
      </trkpt>
      <trkpt lat="45.5612" lon="6.06822">
        <ele>1504</ele>
        <time>2021-06-27T12:17:42.074Z</time>
      </trkpt>
      <trkpt lat="45.56118" lon="6.06821">
        <ele>1504</ele>
        <time>2021-06-27T12:17:43.074Z</time>
      </trkpt>
      <trkpt lat="45.56117" lon="6.06821">
        <ele>1504</ele>
        <time>2021-06-27T12:17:44.073Z</time>
      </trkpt>
      <trkpt lat="45.56116" lon="6.0682">
        <ele>1504</ele>
        <time>2021-06-27T12:17:45.073Z</time>
      </trkpt>
      <trkpt lat="45.56115" lon="6.0682">
        <ele>1504</ele>
        <time>2021-06-27T12:17:46.073Z</time>
      </trkpt>
      <trkpt lat="45.56114" lon="6.06819">
        <ele>1505</ele>
        <time>2021-06-27T12:17:47.073Z</time>
      </trkpt>
      <trkpt lat="45.56113" lon="6.06819">
        <ele>1505</ele>
        <time>2021-06-27T12:17:48.073Z</time>
      </trkpt>
      <trkpt lat="45.56112" lon="6.06818">
        <ele>1505</ele>
        <time>2021-06-27T12:17:49.074Z</time>
      </trkpt>
      <trkpt lat="45.56111" lon="6.06818">
        <ele>1505</ele>
        <time>2021-06-27T12:17:50.073Z</time>
      </trkpt>
      <trkpt lat="45.5611" lon="6.06817">
        <ele>1506</ele>
        <time>2021-06-27T12:17:51.074Z</time>
      </trkpt>
      <trkpt lat="45.56109" lon="6.06817">
        <ele>1507</ele>
        <time>2021-06-27T12:17:52.073Z</time>
      </trkpt>
      <trkpt lat="45.56108" lon="6.06817">
        <ele>1507</ele>
        <time>2021-06-27T12:17:53.074Z</time>
      </trkpt>
      <trkpt lat="45.56107" lon="6.06816">
        <ele>1508</ele>
        <time>2021-06-27T12:17:54.073Z</time>
      </trkpt>
      <trkpt lat="45.56106" lon="6.06816">
        <ele>1508</ele>
        <time>2021-06-27T12:17:55.074Z</time>
      </trkpt>
      <trkpt lat="45.56105" lon="6.06816">
        <ele>1508</ele>
        <time>2021-06-27T12:17:56.074Z</time>
      </trkpt>
      <trkpt lat="45.56104" lon="6.06816">
        <ele>1508</ele>
        <time>2021-06-27T12:17:57.074Z</time>
      </trkpt>
      <trkpt lat="45.56103" lon="6.06815">
        <ele>1508</ele>
        <time>2021-06-27T12:17:58.073Z</time>
      </trkpt>
      <trkpt lat="45.56102" lon="6.06815">
        <ele>1508</ele>
        <time>2021-06-27T12:17:59.073Z</time>
      </trkpt>
      <trkpt lat="45.561" lon="6.06815">
        <ele>1508</ele>
        <time>2021-06-27T12:18:00.073Z</time>
      </trkpt>
      <trkpt lat="45.56099" lon="6.06814">
        <ele>1508</ele>
        <time>2021-06-27T12:18:01.074Z</time>
      </trkpt>
      <trkpt lat="45.56098" lon="6.06814">
        <ele>1508</ele>
        <time>2021-06-27T12:18:02.074Z</time>
      </trkpt>
      <trkpt lat="45.56097" lon="6.06813">
        <ele>1508</ele>
        <time>2021-06-27T12:18:03.074Z</time>
      </trkpt>
      <trkpt lat="45.56096" lon="6.06812">
        <ele>1508</ele>
        <time>2021-06-27T12:18:04.074Z</time>
      </trkpt>
      <trkpt lat="45.56096" lon="6.0681">
        <ele>1509</ele>
        <time>2021-06-27T12:18:05.074Z</time>
      </trkpt>
      <trkpt lat="45.56095" lon="6.06809">
        <ele>1509</ele>
        <time>2021-06-27T12:18:06.073Z</time>
      </trkpt>
      <trkpt lat="45.56094" lon="6.06807">
        <ele>1509</ele>
        <time>2021-06-27T12:18:07.073Z</time>
      </trkpt>
      <trkpt lat="45.56093" lon="6.06806">
        <ele>1510</ele>
        <time>2021-06-27T12:18:08.073Z</time>
      </trkpt>
      <trkpt lat="45.56092" lon="6.06805">
        <ele>1510</ele>
        <time>2021-06-27T12:18:09.074Z</time>
      </trkpt>
      <trkpt lat="45.56092" lon="6.06803">
        <ele>1510</ele>
        <time>2021-06-27T12:18:10.073Z</time>
      </trkpt>
      <trkpt lat="45.56091" lon="6.06802">
        <ele>1510</ele>
        <time>2021-06-27T12:18:11.073Z</time>
      </trkpt>
      <trkpt lat="45.5609" lon="6.068">
        <ele>1510</ele>
        <time>2021-06-27T12:18:12.073Z</time>
      </trkpt>
      <trkpt lat="45.5609" lon="6.06799">
        <ele>1510</ele>
        <time>2021-06-27T12:18:13.074Z</time>
      </trkpt>
      <trkpt lat="45.56089" lon="6.06798">
        <ele>1510</ele>
        <time>2021-06-27T12:18:14.074Z</time>
      </trkpt>
      <trkpt lat="45.56088" lon="6.06796">
        <ele>1510</ele>
        <time>2021-06-27T12:18:15.073Z</time>
      </trkpt>
      <trkpt lat="45.56087" lon="6.06795">
        <ele>1510</ele>
        <time>2021-06-27T12:18:16.073Z</time>
      </trkpt>
      <trkpt lat="45.56087" lon="6.06794">
        <ele>1510</ele>
        <time>2021-06-27T12:18:17.074Z</time>
      </trkpt>
      <trkpt lat="45.56086" lon="6.06793">
        <ele>1510</ele>
        <time>2021-06-27T12:18:18.074Z</time>
      </trkpt>
      <trkpt lat="45.56085" lon="6.06792">
        <ele>1511</ele>
        <time>2021-06-27T12:18:19.073Z</time>
      </trkpt>
      <trkpt lat="45.56084" lon="6.06791">
        <ele>1511</ele>
        <time>2021-06-27T12:18:20.074Z</time>
      </trkpt>
      <trkpt lat="45.56084" lon="6.0679">
        <ele>1511</ele>
        <time>2021-06-27T12:18:21.073Z</time>
      </trkpt>
      <trkpt lat="45.56084" lon="6.0679">
        <ele>1512</ele>
        <time>2021-06-27T12:18:22.074Z</time>
      </trkpt>
      <trkpt lat="45.56083" lon="6.06789">
        <ele>1512</ele>
        <time>2021-06-27T12:18:23.074Z</time>
      </trkpt>
      <trkpt lat="45.56083" lon="6.06789">
        <ele>1512</ele>
        <time>2021-06-27T12:18:24.074Z</time>
      </trkpt>
      <trkpt lat="45.56083" lon="6.06789">
        <ele>1513</ele>
        <time>2021-06-27T12:18:25.074Z</time>
      </trkpt>
      <trkpt lat="45.56083" lon="6.06788">
        <ele>1512</ele>
        <time>2021-06-27T12:18:26.073Z</time>
      </trkpt>
      <trkpt lat="45.56083" lon="6.06788">
        <ele>1512</ele>
        <time>2021-06-27T12:18:27.074Z</time>
      </trkpt>
      <trkpt lat="45.56082" lon="6.06787">
        <ele>1512</ele>
        <time>2021-06-27T12:18:28.074Z</time>
      </trkpt>
      <trkpt lat="45.56082" lon="6.06787">
        <ele>1512</ele>
        <time>2021-06-27T12:18:29.074Z</time>
      </trkpt>
      <trkpt lat="45.56082" lon="6.06787">
        <ele>1511</ele>
        <time>2021-06-27T12:18:30.074Z</time>
      </trkpt>
      <trkpt lat="45.56081" lon="6.06786">
        <ele>1511</ele>
        <time>2021-06-27T12:18:31.073Z</time>
      </trkpt>
      <trkpt lat="45.5608" lon="6.06784">
        <ele>1511</ele>
        <time>2021-06-27T12:18:32.073Z</time>
      </trkpt>
      <trkpt lat="45.56079" lon="6.06784">
        <ele>1511</ele>
        <time>2021-06-27T12:18:33.074Z</time>
      </trkpt>
      <trkpt lat="45.56078" lon="6.06783">
        <ele>1511</ele>
        <time>2021-06-27T12:18:34.074Z</time>
      </trkpt>
      <trkpt lat="45.56077" lon="6.06782">
        <ele>1511</ele>
        <time>2021-06-27T12:18:35.073Z</time>
      </trkpt>
      <trkpt lat="45.56076" lon="6.06781">
        <ele>1511</ele>
        <time>2021-06-27T12:18:36.073Z</time>
      </trkpt>
      <trkpt lat="45.56076" lon="6.0678">
        <ele>1511</ele>
        <time>2021-06-27T12:18:37.073Z</time>
      </trkpt>
      <trkpt lat="45.56075" lon="6.06778">
        <ele>1512</ele>
        <time>2021-06-27T12:18:38.073Z</time>
      </trkpt>
      <trkpt lat="45.56074" lon="6.06777">
        <ele>1512</ele>
        <time>2021-06-27T12:18:39.073Z</time>
      </trkpt>
      <trkpt lat="45.56073" lon="6.06776">
        <ele>1512</ele>
        <time>2021-06-27T12:18:40.074Z</time>
      </trkpt>
      <trkpt lat="45.56072" lon="6.06776">
        <ele>1513</ele>
        <time>2021-06-27T12:18:41.074Z</time>
      </trkpt>
      <trkpt lat="45.5607" lon="6.06775">
        <ele>1513</ele>
        <time>2021-06-27T12:18:42.074Z</time>
      </trkpt>
      <trkpt lat="45.56069" lon="6.06774">
        <ele>1513</ele>
        <time>2021-06-27T12:18:43.074Z</time>
      </trkpt>
      <trkpt lat="45.56068" lon="6.06773">
        <ele>1513</ele>
        <time>2021-06-27T12:18:44.074Z</time>
      </trkpt>
      <trkpt lat="45.56067" lon="6.06772">
        <ele>1513</ele>
        <time>2021-06-27T12:18:45.074Z</time>
      </trkpt>
      <trkpt lat="45.56066" lon="6.06771">
        <ele>1513</ele>
        <time>2021-06-27T12:18:46.074Z</time>
      </trkpt>
      <trkpt lat="45.56066" lon="6.0677">
        <ele>1514</ele>
        <time>2021-06-27T12:18:47.073Z</time>
      </trkpt>
      <trkpt lat="45.56065" lon="6.06769">
        <ele>1514</ele>
        <time>2021-06-27T12:18:48.074Z</time>
      </trkpt>
      <trkpt lat="45.56064" lon="6.06768">
        <ele>1514</ele>
        <time>2021-06-27T12:18:49.073Z</time>
      </trkpt>
      <trkpt lat="45.56063" lon="6.06767">
        <ele>1514</ele>
        <time>2021-06-27T12:18:50.073Z</time>
      </trkpt>
      <trkpt lat="45.56062" lon="6.06766">
        <ele>1513</ele>
        <time>2021-06-27T12:18:51.074Z</time>
      </trkpt>
      <trkpt lat="45.56061" lon="6.06764">
        <ele>1513</ele>
        <time>2021-06-27T12:18:52.073Z</time>
      </trkpt>
      <trkpt lat="45.5606" lon="6.06763">
        <ele>1513</ele>
        <time>2021-06-27T12:18:53.073Z</time>
      </trkpt>
      <trkpt lat="45.56059" lon="6.06762">
        <ele>1513</ele>
        <time>2021-06-27T12:18:54.073Z</time>
      </trkpt>
      <trkpt lat="45.56058" lon="6.06761">
        <ele>1513</ele>
        <time>2021-06-27T12:18:55.074Z</time>
      </trkpt>
      <trkpt lat="45.56057" lon="6.0676">
        <ele>1513</ele>
        <time>2021-06-27T12:18:56.073Z</time>
      </trkpt>
      <trkpt lat="45.56056" lon="6.06759">
        <ele>1513</ele>
        <time>2021-06-27T12:18:57.074Z</time>
      </trkpt>
      <trkpt lat="45.56055" lon="6.06758">
        <ele>1513</ele>
        <time>2021-06-27T12:18:58.073Z</time>
      </trkpt>
      <trkpt lat="45.56054" lon="6.06757">
        <ele>1513</ele>
        <time>2021-06-27T12:18:59.074Z</time>
      </trkpt>
      <trkpt lat="45.56053" lon="6.06757">
        <ele>1513</ele>
        <time>2021-06-27T12:19:00.074Z</time>
      </trkpt>
      <trkpt lat="45.56052" lon="6.06756">
        <ele>1513</ele>
        <time>2021-06-27T12:19:01.074Z</time>
      </trkpt>
      <trkpt lat="45.56051" lon="6.06756">
        <ele>1513</ele>
        <time>2021-06-27T12:19:02.074Z</time>
      </trkpt>
      <trkpt lat="45.5605" lon="6.06755">
        <ele>1513</ele>
        <time>2021-06-27T12:19:03.073Z</time>
      </trkpt>
      <trkpt lat="45.56049" lon="6.06755">
        <ele>1513</ele>
        <time>2021-06-27T12:19:04.074Z</time>
      </trkpt>
      <trkpt lat="45.56048" lon="6.06755">
        <ele>1513</ele>
        <time>2021-06-27T12:19:05.074Z</time>
      </trkpt>
      <trkpt lat="45.56047" lon="6.06754">
        <ele>1513</ele>
        <time>2021-06-27T12:19:06.074Z</time>
      </trkpt>
      <trkpt lat="45.56046" lon="6.06753">
        <ele>1513</ele>
        <time>2021-06-27T12:19:07.074Z</time>
      </trkpt>
      <trkpt lat="45.56045" lon="6.06752">
        <ele>1513</ele>
        <time>2021-06-27T12:19:08.074Z</time>
      </trkpt>
      <trkpt lat="45.56044" lon="6.06752">
        <ele>1513</ele>
        <time>2021-06-27T12:19:09.074Z</time>
      </trkpt>
      <trkpt lat="45.56043" lon="6.06751">
        <ele>1514</ele>
        <time>2021-06-27T12:19:10.074Z</time>
      </trkpt>
      <trkpt lat="45.56042" lon="6.0675">
        <ele>1514</ele>
        <time>2021-06-27T12:19:11.074Z</time>
      </trkpt>
      <trkpt lat="45.56041" lon="6.06749">
        <ele>1513</ele>
        <time>2021-06-27T12:19:12.074Z</time>
      </trkpt>
      <trkpt lat="45.5604" lon="6.06748">
        <ele>1513</ele>
        <time>2021-06-27T12:19:13.074Z</time>
      </trkpt>
      <trkpt lat="45.56039" lon="6.06748">
        <ele>1513</ele>
        <time>2021-06-27T12:19:14.074Z</time>
      </trkpt>
      <trkpt lat="45.56038" lon="6.06747">
        <ele>1513</ele>
        <time>2021-06-27T12:19:15.073Z</time>
      </trkpt>
      <trkpt lat="45.56037" lon="6.06746">
        <ele>1513</ele>
        <time>2021-06-27T12:19:16.074Z</time>
      </trkpt>
      <trkpt lat="45.56036" lon="6.06745">
        <ele>1513</ele>
        <time>2021-06-27T12:19:17.074Z</time>
      </trkpt>
      <trkpt lat="45.56035" lon="6.06744">
        <ele>1513</ele>
        <time>2021-06-27T12:19:18.074Z</time>
      </trkpt>
      <trkpt lat="45.56035" lon="6.06743">
        <ele>1513</ele>
        <time>2021-06-27T12:19:19.074Z</time>
      </trkpt>
      <trkpt lat="45.56034" lon="6.06742">
        <ele>1513</ele>
        <time>2021-06-27T12:19:20.074Z</time>
      </trkpt>
      <trkpt lat="45.56033" lon="6.06741">
        <ele>1514</ele>
        <time>2021-06-27T12:19:21.074Z</time>
      </trkpt>
      <trkpt lat="45.56033" lon="6.0674">
        <ele>1514</ele>
        <time>2021-06-27T12:19:22.074Z</time>
      </trkpt>
      <trkpt lat="45.56032" lon="6.0674">
        <ele>1514</ele>
        <time>2021-06-27T12:19:23.074Z</time>
      </trkpt>
      <trkpt lat="45.56031" lon="6.06739">
        <ele>1513</ele>
        <time>2021-06-27T12:19:24.074Z</time>
      </trkpt>
      <trkpt lat="45.5603" lon="6.06738">
        <ele>1513</ele>
        <time>2021-06-27T12:19:25.073Z</time>
      </trkpt>
      <trkpt lat="45.56029" lon="6.06738">
        <ele>1513</ele>
        <time>2021-06-27T12:19:26.073Z</time>
      </trkpt>
      <trkpt lat="45.56028" lon="6.06738">
        <ele>1513</ele>
        <time>2021-06-27T12:19:27.074Z</time>
      </trkpt>
      <trkpt lat="45.56027" lon="6.06737">
        <ele>1514</ele>
        <time>2021-06-27T12:19:28.074Z</time>
      </trkpt>
      <trkpt lat="45.56026" lon="6.06736">
        <ele>1514</ele>
        <time>2021-06-27T12:19:29.074Z</time>
      </trkpt>
      <trkpt lat="45.56026" lon="6.06736">
        <ele>1515</ele>
        <time>2021-06-27T12:19:30.074Z</time>
      </trkpt>
      <trkpt lat="45.56025" lon="6.06735">
        <ele>1515</ele>
        <time>2021-06-27T12:19:31.073Z</time>
      </trkpt>
      <trkpt lat="45.56024" lon="6.06734">
        <ele>1515</ele>
        <time>2021-06-27T12:19:32.074Z</time>
      </trkpt>
      <trkpt lat="45.56023" lon="6.06733">
        <ele>1515</ele>
        <time>2021-06-27T12:19:33.073Z</time>
      </trkpt>
      <trkpt lat="45.56023" lon="6.06732">
        <ele>1515</ele>
        <time>2021-06-27T12:19:34.073Z</time>
      </trkpt>
      <trkpt lat="45.56022" lon="6.06731">
        <ele>1515</ele>
        <time>2021-06-27T12:19:35.074Z</time>
      </trkpt>
      <trkpt lat="45.56021" lon="6.0673">
        <ele>1516</ele>
        <time>2021-06-27T12:19:36.074Z</time>
      </trkpt>
      <trkpt lat="45.5602" lon="6.06729">
        <ele>1516</ele>
        <time>2021-06-27T12:19:37.074Z</time>
      </trkpt>
      <trkpt lat="45.56019" lon="6.06728">
        <ele>1516</ele>
        <time>2021-06-27T12:19:38.074Z</time>
      </trkpt>
      <trkpt lat="45.56018" lon="6.06727">
        <ele>1517</ele>
        <time>2021-06-27T12:19:39.074Z</time>
      </trkpt>
      <trkpt lat="45.56017" lon="6.06726">
        <ele>1517</ele>
        <time>2021-06-27T12:19:40.073Z</time>
      </trkpt>
      <trkpt lat="45.56016" lon="6.06726">
        <ele>1516</ele>
        <time>2021-06-27T12:19:41.074Z</time>
      </trkpt>
      <trkpt lat="45.56016" lon="6.06725">
        <ele>1516</ele>
        <time>2021-06-27T12:19:42.073Z</time>
      </trkpt>
      <trkpt lat="45.56015" lon="6.06723">
        <ele>1516</ele>
        <time>2021-06-27T12:19:43.074Z</time>
      </trkpt>
      <trkpt lat="45.56014" lon="6.06722">
        <ele>1517</ele>
        <time>2021-06-27T12:19:44.073Z</time>
      </trkpt>
      <trkpt lat="45.56013" lon="6.06721">
        <ele>1518</ele>
        <time>2021-06-27T12:19:45.073Z</time>
      </trkpt>
      <trkpt lat="45.56012" lon="6.0672">
        <ele>1519</ele>
        <time>2021-06-27T12:19:46.073Z</time>
      </trkpt>
      <trkpt lat="45.56011" lon="6.06719">
        <ele>1519</ele>
        <time>2021-06-27T12:19:47.074Z</time>
      </trkpt>
      <trkpt lat="45.5601" lon="6.06719">
        <ele>1520</ele>
        <time>2021-06-27T12:19:48.074Z</time>
      </trkpt>
      <trkpt lat="45.56009" lon="6.06718">
        <ele>1520</ele>
        <time>2021-06-27T12:19:49.073Z</time>
      </trkpt>
      <trkpt lat="45.56008" lon="6.06718">
        <ele>1520</ele>
        <time>2021-06-27T12:19:50.073Z</time>
      </trkpt>
      <trkpt lat="45.56007" lon="6.06718">
        <ele>1520</ele>
        <time>2021-06-27T12:19:51.074Z</time>
      </trkpt>
      <trkpt lat="45.56006" lon="6.06717">
        <ele>1520</ele>
        <time>2021-06-27T12:19:52.073Z</time>
      </trkpt>
      <trkpt lat="45.56005" lon="6.06718">
        <ele>1520</ele>
        <time>2021-06-27T12:19:53.073Z</time>
      </trkpt>
      <trkpt lat="45.56003" lon="6.06718">
        <ele>1520</ele>
        <time>2021-06-27T12:19:54.074Z</time>
      </trkpt>
      <trkpt lat="45.56002" lon="6.06717">
        <ele>1520</ele>
        <time>2021-06-27T12:19:55.073Z</time>
      </trkpt>
      <trkpt lat="45.56001" lon="6.06716">
        <ele>1520</ele>
        <time>2021-06-27T12:19:56.074Z</time>
      </trkpt>
      <trkpt lat="45.56" lon="6.06715">
        <ele>1520</ele>
        <time>2021-06-27T12:19:57.073Z</time>
      </trkpt>
      <trkpt lat="45.55999" lon="6.06714">
        <ele>1520</ele>
        <time>2021-06-27T12:19:58.074Z</time>
      </trkpt>
      <trkpt lat="45.55998" lon="6.06713">
        <ele>1519</ele>
        <time>2021-06-27T12:19:59.073Z</time>
      </trkpt>
      <trkpt lat="45.55997" lon="6.06712">
        <ele>1520</ele>
        <time>2021-06-27T12:20:00.073Z</time>
      </trkpt>
      <trkpt lat="45.55997" lon="6.06711">
        <ele>1520</ele>
        <time>2021-06-27T12:20:01.073Z</time>
      </trkpt>
      <trkpt lat="45.55996" lon="6.0671">
        <ele>1520</ele>
        <time>2021-06-27T12:20:02.074Z</time>
      </trkpt>
      <trkpt lat="45.55995" lon="6.06709">
        <ele>1520</ele>
        <time>2021-06-27T12:20:03.073Z</time>
      </trkpt>
      <trkpt lat="45.55994" lon="6.06708">
        <ele>1520</ele>
        <time>2021-06-27T12:20:04.074Z</time>
      </trkpt>
      <trkpt lat="45.55993" lon="6.06708">
        <ele>1520</ele>
        <time>2021-06-27T12:20:05.074Z</time>
      </trkpt>
      <trkpt lat="45.55992" lon="6.06706">
        <ele>1520</ele>
        <time>2021-06-27T12:20:06.074Z</time>
      </trkpt>
      <trkpt lat="45.55991" lon="6.06705">
        <ele>1521</ele>
        <time>2021-06-27T12:20:07.073Z</time>
      </trkpt>
      <trkpt lat="45.5599" lon="6.06703">
        <ele>1521</ele>
        <time>2021-06-27T12:20:08.073Z</time>
      </trkpt>
      <trkpt lat="45.55989" lon="6.06703">
        <ele>1521</ele>
        <time>2021-06-27T12:20:09.073Z</time>
      </trkpt>
      <trkpt lat="45.55989" lon="6.06702">
        <ele>1521</ele>
        <time>2021-06-27T12:20:10.074Z</time>
      </trkpt>
      <trkpt lat="45.55988" lon="6.06702">
        <ele>1521</ele>
        <time>2021-06-27T12:20:11.074Z</time>
      </trkpt>
      <trkpt lat="45.55988" lon="6.06701">
        <ele>1521</ele>
        <time>2021-06-27T12:20:12.074Z</time>
      </trkpt>
      <trkpt lat="45.55987" lon="6.067">
        <ele>1521</ele>
        <time>2021-06-27T12:20:13.073Z</time>
      </trkpt>
      <trkpt lat="45.55987" lon="6.06699">
        <ele>1521</ele>
        <time>2021-06-27T12:20:14.074Z</time>
      </trkpt>
      <trkpt lat="45.55986" lon="6.06698">
        <ele>1521</ele>
        <time>2021-06-27T12:20:15.074Z</time>
      </trkpt>
      <trkpt lat="45.55986" lon="6.06697">
        <ele>1522</ele>
        <time>2021-06-27T12:20:16.073Z</time>
      </trkpt>
      <trkpt lat="45.55985" lon="6.06696">
        <ele>1522</ele>
        <time>2021-06-27T12:20:17.074Z</time>
      </trkpt>
      <trkpt lat="45.55984" lon="6.06695">
        <ele>1522</ele>
        <time>2021-06-27T12:20:18.074Z</time>
      </trkpt>
      <trkpt lat="45.55983" lon="6.06694">
        <ele>1522</ele>
        <time>2021-06-27T12:20:19.074Z</time>
      </trkpt>
      <trkpt lat="45.55982" lon="6.06693">
        <ele>1522</ele>
        <time>2021-06-27T12:20:20.074Z</time>
      </trkpt>
      <trkpt lat="45.55982" lon="6.06692">
        <ele>1522</ele>
        <time>2021-06-27T12:20:21.073Z</time>
      </trkpt>
      <trkpt lat="45.55981" lon="6.06691">
        <ele>1522</ele>
        <time>2021-06-27T12:20:22.074Z</time>
      </trkpt>
      <trkpt lat="45.55981" lon="6.0669">
        <ele>1522</ele>
        <time>2021-06-27T12:20:23.073Z</time>
      </trkpt>
      <trkpt lat="45.5598" lon="6.06689">
        <ele>1522</ele>
        <time>2021-06-27T12:20:24.074Z</time>
      </trkpt>
      <trkpt lat="45.55979" lon="6.06687">
        <ele>1523</ele>
        <time>2021-06-27T12:20:25.073Z</time>
      </trkpt>
      <trkpt lat="45.55979" lon="6.06687">
        <ele>1523</ele>
        <time>2021-06-27T12:20:26.074Z</time>
      </trkpt>
      <trkpt lat="45.55978" lon="6.06685">
        <ele>1523</ele>
        <time>2021-06-27T12:20:27.074Z</time>
      </trkpt>
      <trkpt lat="45.55977" lon="6.06684">
        <ele>1522</ele>
        <time>2021-06-27T12:20:28.073Z</time>
      </trkpt>
      <trkpt lat="45.55977" lon="6.06683">
        <ele>1522</ele>
        <time>2021-06-27T12:20:29.073Z</time>
      </trkpt>
      <trkpt lat="45.55976" lon="6.06682">
        <ele>1522</ele>
        <time>2021-06-27T12:20:30.074Z</time>
      </trkpt>
      <trkpt lat="45.55975" lon="6.06681">
        <ele>1522</ele>
        <time>2021-06-27T12:20:31.073Z</time>
      </trkpt>
      <trkpt lat="45.55975" lon="6.0668">
        <ele>1521</ele>
        <time>2021-06-27T12:20:32.073Z</time>
      </trkpt>
      <trkpt lat="45.55974" lon="6.06679">
        <ele>1521</ele>
        <time>2021-06-27T12:20:33.074Z</time>
      </trkpt>
      <trkpt lat="45.55974" lon="6.06678">
        <ele>1521</ele>
        <time>2021-06-27T12:20:34.074Z</time>
      </trkpt>
      <trkpt lat="45.55973" lon="6.06677">
        <ele>1520</ele>
        <time>2021-06-27T12:20:35.074Z</time>
      </trkpt>
      <trkpt lat="45.55973" lon="6.06676">
        <ele>1519</ele>
        <time>2021-06-27T12:20:36.074Z</time>
      </trkpt>
      <trkpt lat="45.55973" lon="6.06674">
        <ele>1518</ele>
        <time>2021-06-27T12:20:37.074Z</time>
      </trkpt>
      <trkpt lat="45.55972" lon="6.06673">
        <ele>1518</ele>
        <time>2021-06-27T12:20:38.073Z</time>
      </trkpt>
      <trkpt lat="45.55971" lon="6.06672">
        <ele>1518</ele>
        <time>2021-06-27T12:20:39.074Z</time>
      </trkpt>
      <trkpt lat="45.55971" lon="6.06671">
        <ele>1517</ele>
        <time>2021-06-27T12:20:40.074Z</time>
      </trkpt>
      <trkpt lat="45.5597" lon="6.06669">
        <ele>1517</ele>
        <time>2021-06-27T12:20:41.074Z</time>
      </trkpt>
      <trkpt lat="45.5597" lon="6.06668">
        <ele>1517</ele>
        <time>2021-06-27T12:20:42.074Z</time>
      </trkpt>
      <trkpt lat="45.55969" lon="6.06667">
        <ele>1516</ele>
        <time>2021-06-27T12:20:43.074Z</time>
      </trkpt>
      <trkpt lat="45.55969" lon="6.06665">
        <ele>1516</ele>
        <time>2021-06-27T12:20:44.073Z</time>
      </trkpt>
      <trkpt lat="45.55968" lon="6.06664">
        <ele>1516</ele>
        <time>2021-06-27T12:20:45.074Z</time>
      </trkpt>
      <trkpt lat="45.55967" lon="6.06663">
        <ele>1516</ele>
        <time>2021-06-27T12:20:46.074Z</time>
      </trkpt>
      <trkpt lat="45.55966" lon="6.06661">
        <ele>1516</ele>
        <time>2021-06-27T12:20:47.074Z</time>
      </trkpt>
      <trkpt lat="45.55965" lon="6.0666">
        <ele>1516</ele>
        <time>2021-06-27T12:20:48.073Z</time>
      </trkpt>
      <trkpt lat="45.55965" lon="6.06659">
        <ele>1516</ele>
        <time>2021-06-27T12:20:49.073Z</time>
      </trkpt>
      <trkpt lat="45.55964" lon="6.06658">
        <ele>1516</ele>
        <time>2021-06-27T12:20:50.073Z</time>
      </trkpt>
      <trkpt lat="45.55963" lon="6.06656">
        <ele>1516</ele>
        <time>2021-06-27T12:20:51.074Z</time>
      </trkpt>
      <trkpt lat="45.55962" lon="6.06655">
        <ele>1517</ele>
        <time>2021-06-27T12:20:52.074Z</time>
      </trkpt>
      <trkpt lat="45.55961" lon="6.06654">
        <ele>1517</ele>
        <time>2021-06-27T12:20:53.074Z</time>
      </trkpt>
      <trkpt lat="45.55961" lon="6.06653">
        <ele>1518</ele>
        <time>2021-06-27T12:20:54.074Z</time>
      </trkpt>
      <trkpt lat="45.5596" lon="6.06652">
        <ele>1519</ele>
        <time>2021-06-27T12:20:55.073Z</time>
      </trkpt>
      <trkpt lat="45.5596" lon="6.06651">
        <ele>1519</ele>
        <time>2021-06-27T12:20:56.074Z</time>
      </trkpt>
      <trkpt lat="45.55959" lon="6.06651">
        <ele>1520</ele>
        <time>2021-06-27T12:20:57.073Z</time>
      </trkpt>
      <trkpt lat="45.55958" lon="6.06649">
        <ele>1521</ele>
        <time>2021-06-27T12:20:58.073Z</time>
      </trkpt>
      <trkpt lat="45.55957" lon="6.06648">
        <ele>1522</ele>
        <time>2021-06-27T12:20:59.074Z</time>
      </trkpt>
      <trkpt lat="45.55956" lon="6.06647">
        <ele>1522</ele>
        <time>2021-06-27T12:21:00.073Z</time>
      </trkpt>
      <trkpt lat="45.55955" lon="6.06646">
        <ele>1522</ele>
        <time>2021-06-27T12:21:01.073Z</time>
      </trkpt>
      <trkpt lat="45.55954" lon="6.06645">
        <ele>1522</ele>
        <time>2021-06-27T12:21:02.073Z</time>
      </trkpt>
      <trkpt lat="45.55953" lon="6.06644">
        <ele>1522</ele>
        <time>2021-06-27T12:21:03.073Z</time>
      </trkpt>
      <trkpt lat="45.55952" lon="6.06643">
        <ele>1521</ele>
        <time>2021-06-27T12:21:04.074Z</time>
      </trkpt>
      <trkpt lat="45.55951" lon="6.06642">
        <ele>1520</ele>
        <time>2021-06-27T12:21:05.073Z</time>
      </trkpt>
      <trkpt lat="45.5595" lon="6.06642">
        <ele>1519</ele>
        <time>2021-06-27T12:21:06.074Z</time>
      </trkpt>
      <trkpt lat="45.55949" lon="6.06641">
        <ele>1519</ele>
        <time>2021-06-27T12:21:07.074Z</time>
      </trkpt>
      <trkpt lat="45.55948" lon="6.06641">
        <ele>1518</ele>
        <time>2021-06-27T12:21:08.073Z</time>
      </trkpt>
      <trkpt lat="45.55947" lon="6.0664">
        <ele>1518</ele>
        <time>2021-06-27T12:21:09.074Z</time>
      </trkpt>
      <trkpt lat="45.55947" lon="6.06639">
        <ele>1518</ele>
        <time>2021-06-27T12:21:10.074Z</time>
      </trkpt>
      <trkpt lat="45.55946" lon="6.06638">
        <ele>1517</ele>
        <time>2021-06-27T12:21:11.074Z</time>
      </trkpt>
      <trkpt lat="45.55945" lon="6.06638">
        <ele>1517</ele>
        <time>2021-06-27T12:21:12.074Z</time>
      </trkpt>
      <trkpt lat="45.55944" lon="6.06637">
        <ele>1517</ele>
        <time>2021-06-27T12:21:13.074Z</time>
      </trkpt>
      <trkpt lat="45.55943" lon="6.06636">
        <ele>1517</ele>
        <time>2021-06-27T12:21:14.074Z</time>
      </trkpt>
      <trkpt lat="45.55942" lon="6.06635">
        <ele>1516</ele>
        <time>2021-06-27T12:21:15.074Z</time>
      </trkpt>
      <trkpt lat="45.5594" lon="6.06634">
        <ele>1516</ele>
        <time>2021-06-27T12:21:16.073Z</time>
      </trkpt>
      <trkpt lat="45.55939" lon="6.06634">
        <ele>1516</ele>
        <time>2021-06-27T12:21:17.074Z</time>
      </trkpt>
      <trkpt lat="45.55938" lon="6.06633">
        <ele>1515</ele>
        <time>2021-06-27T12:21:18.073Z</time>
      </trkpt>
      <trkpt lat="45.55937" lon="6.06633">
        <ele>1515</ele>
        <time>2021-06-27T12:21:19.073Z</time>
      </trkpt>
      <trkpt lat="45.55936" lon="6.06633">
        <ele>1514</ele>
        <time>2021-06-27T12:21:20.074Z</time>
      </trkpt>
      <trkpt lat="45.55934" lon="6.06632">
        <ele>1514</ele>
        <time>2021-06-27T12:21:21.073Z</time>
      </trkpt>
      <trkpt lat="45.55933" lon="6.06632">
        <ele>1514</ele>
        <time>2021-06-27T12:21:22.073Z</time>
      </trkpt>
      <trkpt lat="45.55932" lon="6.06632">
        <ele>1513</ele>
        <time>2021-06-27T12:21:23.074Z</time>
      </trkpt>
      <trkpt lat="45.5593" lon="6.06632">
        <ele>1514</ele>
        <time>2021-06-27T12:21:24.073Z</time>
      </trkpt>
      <trkpt lat="45.55929" lon="6.06632">
        <ele>1514</ele>
        <time>2021-06-27T12:21:25.074Z</time>
      </trkpt>
      <trkpt lat="45.55928" lon="6.06632">
        <ele>1514</ele>
        <time>2021-06-27T12:21:26.074Z</time>
      </trkpt>
      <trkpt lat="45.55927" lon="6.06631">
        <ele>1514</ele>
        <time>2021-06-27T12:21:27.074Z</time>
      </trkpt>
      <trkpt lat="45.55926" lon="6.06631">
        <ele>1514</ele>
        <time>2021-06-27T12:21:28.074Z</time>
      </trkpt>
      <trkpt lat="45.55925" lon="6.06631">
        <ele>1515</ele>
        <time>2021-06-27T12:21:29.074Z</time>
      </trkpt>
      <trkpt lat="45.55924" lon="6.06631">
        <ele>1515</ele>
        <time>2021-06-27T12:21:30.074Z</time>
      </trkpt>
      <trkpt lat="45.55923" lon="6.06631">
        <ele>1515</ele>
        <time>2021-06-27T12:21:31.074Z</time>
      </trkpt>
      <trkpt lat="45.55922" lon="6.0663">
        <ele>1515</ele>
        <time>2021-06-27T12:21:32.073Z</time>
      </trkpt>
      <trkpt lat="45.5592" lon="6.06629">
        <ele>1515</ele>
        <time>2021-06-27T12:21:33.074Z</time>
      </trkpt>
      <trkpt lat="45.55919" lon="6.06628">
        <ele>1515</ele>
        <time>2021-06-27T12:21:34.073Z</time>
      </trkpt>
      <trkpt lat="45.55918" lon="6.06628">
        <ele>1516</ele>
        <time>2021-06-27T12:21:35.074Z</time>
      </trkpt>
      <trkpt lat="45.55917" lon="6.06627">
        <ele>1516</ele>
        <time>2021-06-27T12:21:36.074Z</time>
      </trkpt>
      <trkpt lat="45.55916" lon="6.06626">
        <ele>1516</ele>
        <time>2021-06-27T12:21:37.073Z</time>
      </trkpt>
      <trkpt lat="45.55915" lon="6.06626">
        <ele>1515</ele>
        <time>2021-06-27T12:21:38.074Z</time>
      </trkpt>
      <trkpt lat="45.55914" lon="6.06625">
        <ele>1515</ele>
        <time>2021-06-27T12:21:39.074Z</time>
      </trkpt>
      <trkpt lat="45.55913" lon="6.06624">
        <ele>1514</ele>
        <time>2021-06-27T12:21:40.073Z</time>
      </trkpt>
      <trkpt lat="45.55912" lon="6.06623">
        <ele>1514</ele>
        <time>2021-06-27T12:21:41.074Z</time>
      </trkpt>
      <trkpt lat="45.55911" lon="6.06622">
        <ele>1514</ele>
        <time>2021-06-27T12:21:42.074Z</time>
      </trkpt>
      <trkpt lat="45.5591" lon="6.06621">
        <ele>1513</ele>
        <time>2021-06-27T12:21:43.073Z</time>
      </trkpt>
      <trkpt lat="45.55909" lon="6.06621">
        <ele>1513</ele>
        <time>2021-06-27T12:21:44.073Z</time>
      </trkpt>
      <trkpt lat="45.55908" lon="6.0662">
        <ele>1513</ele>
        <time>2021-06-27T12:21:45.074Z</time>
      </trkpt>
      <trkpt lat="45.55907" lon="6.06619">
        <ele>1513</ele>
        <time>2021-06-27T12:21:46.074Z</time>
      </trkpt>
      <trkpt lat="45.55906" lon="6.06618">
        <ele>1512</ele>
        <time>2021-06-27T12:21:47.073Z</time>
      </trkpt>
      <trkpt lat="45.55905" lon="6.06617">
        <ele>1512</ele>
        <time>2021-06-27T12:21:48.074Z</time>
      </trkpt>
      <trkpt lat="45.55904" lon="6.06617">
        <ele>1511</ele>
        <time>2021-06-27T12:21:49.073Z</time>
      </trkpt>
      <trkpt lat="45.55903" lon="6.06616">
        <ele>1510</ele>
        <time>2021-06-27T12:21:50.074Z</time>
      </trkpt>
      <trkpt lat="45.55902" lon="6.06615">
        <ele>1510</ele>
        <time>2021-06-27T12:21:51.074Z</time>
      </trkpt>
      <trkpt lat="45.55901" lon="6.06614">
        <ele>1510</ele>
        <time>2021-06-27T12:21:52.074Z</time>
      </trkpt>
      <trkpt lat="45.559" lon="6.06614">
        <ele>1510</ele>
        <time>2021-06-27T12:21:53.073Z</time>
      </trkpt>
      <trkpt lat="45.55899" lon="6.06613">
        <ele>1509</ele>
        <time>2021-06-27T12:21:54.073Z</time>
      </trkpt>
      <trkpt lat="45.55898" lon="6.06612">
        <ele>1509</ele>
        <time>2021-06-27T12:21:55.074Z</time>
      </trkpt>
      <trkpt lat="45.55897" lon="6.06611">
        <ele>1509</ele>
        <time>2021-06-27T12:21:56.073Z</time>
      </trkpt>
      <trkpt lat="45.55896" lon="6.0661">
        <ele>1509</ele>
        <time>2021-06-27T12:21:57.074Z</time>
      </trkpt>
      <trkpt lat="45.55895" lon="6.0661">
        <ele>1508</ele>
        <time>2021-06-27T12:21:58.074Z</time>
      </trkpt>
      <trkpt lat="45.55894" lon="6.06609">
        <ele>1508</ele>
        <time>2021-06-27T12:21:59.073Z</time>
      </trkpt>
      <trkpt lat="45.55893" lon="6.06609">
        <ele>1508</ele>
        <time>2021-06-27T12:22:00.074Z</time>
      </trkpt>
      <trkpt lat="45.55892" lon="6.06609">
        <ele>1508</ele>
        <time>2021-06-27T12:22:01.074Z</time>
      </trkpt>
      <trkpt lat="45.55891" lon="6.06608">
        <ele>1508</ele>
        <time>2021-06-27T12:22:02.074Z</time>
      </trkpt>
      <trkpt lat="45.55889" lon="6.06608">
        <ele>1507</ele>
        <time>2021-06-27T12:22:03.074Z</time>
      </trkpt>
      <trkpt lat="45.55888" lon="6.06607">
        <ele>1507</ele>
        <time>2021-06-27T12:22:04.074Z</time>
      </trkpt>
      <trkpt lat="45.55887" lon="6.06607">
        <ele>1506</ele>
        <time>2021-06-27T12:22:05.074Z</time>
      </trkpt>
      <trkpt lat="45.55886" lon="6.06607">
        <ele>1505</ele>
        <time>2021-06-27T12:22:06.073Z</time>
      </trkpt>
      <trkpt lat="45.55885" lon="6.06607">
        <ele>1505</ele>
        <time>2021-06-27T12:22:07.074Z</time>
      </trkpt>
      <trkpt lat="45.55884" lon="6.06607">
        <ele>1504</ele>
        <time>2021-06-27T12:22:08.074Z</time>
      </trkpt>
      <trkpt lat="45.55883" lon="6.06606">
        <ele>1503</ele>
        <time>2021-06-27T12:22:09.073Z</time>
      </trkpt>
      <trkpt lat="45.55882" lon="6.06606">
        <ele>1503</ele>
        <time>2021-06-27T12:22:10.074Z</time>
      </trkpt>
      <trkpt lat="45.55881" lon="6.06606">
        <ele>1503</ele>
        <time>2021-06-27T12:22:11.074Z</time>
      </trkpt>
      <trkpt lat="45.5588" lon="6.06606">
        <ele>1502</ele>
        <time>2021-06-27T12:22:12.074Z</time>
      </trkpt>
      <trkpt lat="45.55879" lon="6.06606">
        <ele>1502</ele>
        <time>2021-06-27T12:22:13.073Z</time>
      </trkpt>
      <trkpt lat="45.55878" lon="6.06605">
        <ele>1502</ele>
        <time>2021-06-27T12:22:14.074Z</time>
      </trkpt>
      <trkpt lat="45.55877" lon="6.06604">
        <ele>1502</ele>
        <time>2021-06-27T12:22:15.074Z</time>
      </trkpt>
      <trkpt lat="45.55876" lon="6.06604">
        <ele>1501</ele>
        <time>2021-06-27T12:22:16.074Z</time>
      </trkpt>
      <trkpt lat="45.55875" lon="6.06603">
        <ele>1501</ele>
        <time>2021-06-27T12:22:17.074Z</time>
      </trkpt>
      <trkpt lat="45.55874" lon="6.06604">
        <ele>1501</ele>
        <time>2021-06-27T12:22:18.073Z</time>
      </trkpt>
      <trkpt lat="45.55872" lon="6.06603">
        <ele>1500</ele>
        <time>2021-06-27T12:22:19.073Z</time>
      </trkpt>
      <trkpt lat="45.55871" lon="6.06604">
        <ele>1500</ele>
        <time>2021-06-27T12:22:20.074Z</time>
      </trkpt>
      <trkpt lat="45.55869" lon="6.06604">
        <ele>1500</ele>
        <time>2021-06-27T12:22:21.074Z</time>
      </trkpt>
      <trkpt lat="45.55868" lon="6.06604">
        <ele>1500</ele>
        <time>2021-06-27T12:22:22.073Z</time>
      </trkpt>
      <trkpt lat="45.55867" lon="6.06604">
        <ele>1500</ele>
        <time>2021-06-27T12:22:23.073Z</time>
      </trkpt>
      <trkpt lat="45.55866" lon="6.06603">
        <ele>1499</ele>
        <time>2021-06-27T12:22:24.073Z</time>
      </trkpt>
      <trkpt lat="45.55865" lon="6.06603">
        <ele>1499</ele>
        <time>2021-06-27T12:22:25.073Z</time>
      </trkpt>
      <trkpt lat="45.55863" lon="6.06603">
        <ele>1500</ele>
        <time>2021-06-27T12:22:26.073Z</time>
      </trkpt>
      <trkpt lat="45.55862" lon="6.06602">
        <ele>1500</ele>
        <time>2021-06-27T12:22:27.074Z</time>
      </trkpt>
      <trkpt lat="45.55861" lon="6.06602">
        <ele>1499</ele>
        <time>2021-06-27T12:22:28.073Z</time>
      </trkpt>
      <trkpt lat="45.5586" lon="6.06602">
        <ele>1499</ele>
        <time>2021-06-27T12:22:29.074Z</time>
      </trkpt>
      <trkpt lat="45.55859" lon="6.06601">
        <ele>1498</ele>
        <time>2021-06-27T12:22:30.074Z</time>
      </trkpt>
      <trkpt lat="45.55858" lon="6.06601">
        <ele>1498</ele>
        <time>2021-06-27T12:22:31.074Z</time>
      </trkpt>
      <trkpt lat="45.55857" lon="6.06601">
        <ele>1498</ele>
        <time>2021-06-27T12:22:32.074Z</time>
      </trkpt>
      <trkpt lat="45.55856" lon="6.06601">
        <ele>1497</ele>
        <time>2021-06-27T12:22:33.074Z</time>
      </trkpt>
      <trkpt lat="45.55855" lon="6.06601">
        <ele>1497</ele>
        <time>2021-06-27T12:22:34.074Z</time>
      </trkpt>
      <trkpt lat="45.55854" lon="6.06601">
        <ele>1497</ele>
        <time>2021-06-27T12:22:35.074Z</time>
      </trkpt>
      <trkpt lat="45.55853" lon="6.06601">
        <ele>1496</ele>
        <time>2021-06-27T12:22:36.074Z</time>
      </trkpt>
      <trkpt lat="45.55852" lon="6.066">
        <ele>1496</ele>
        <time>2021-06-27T12:22:37.073Z</time>
      </trkpt>
      <trkpt lat="45.55851" lon="6.066">
        <ele>1496</ele>
        <time>2021-06-27T12:22:38.073Z</time>
      </trkpt>
      <trkpt lat="45.5585" lon="6.066">
        <ele>1496</ele>
        <time>2021-06-27T12:22:39.074Z</time>
      </trkpt>
      <trkpt lat="45.55849" lon="6.06599">
        <ele>1495</ele>
        <time>2021-06-27T12:22:40.074Z</time>
      </trkpt>
      <trkpt lat="45.55847" lon="6.06599">
        <ele>1495</ele>
        <time>2021-06-27T12:22:41.074Z</time>
      </trkpt>
      <trkpt lat="45.55847" lon="6.06598">
        <ele>1495</ele>
        <time>2021-06-27T12:22:42.074Z</time>
      </trkpt>
      <trkpt lat="45.55846" lon="6.06598">
        <ele>1495</ele>
        <time>2021-06-27T12:22:43.074Z</time>
      </trkpt>
      <trkpt lat="45.55845" lon="6.06598">
        <ele>1494</ele>
        <time>2021-06-27T12:22:44.074Z</time>
      </trkpt>
      <trkpt lat="45.55844" lon="6.06598">
        <ele>1494</ele>
        <time>2021-06-27T12:22:45.074Z</time>
      </trkpt>
      <trkpt lat="45.55843" lon="6.06598">
        <ele>1494</ele>
        <time>2021-06-27T12:22:46.074Z</time>
      </trkpt>
      <trkpt lat="45.55842" lon="6.06598">
        <ele>1494</ele>
        <time>2021-06-27T12:22:47.073Z</time>
      </trkpt>
      <trkpt lat="45.55841" lon="6.06597">
        <ele>1493</ele>
        <time>2021-06-27T12:22:48.074Z</time>
      </trkpt>
      <trkpt lat="45.55839" lon="6.06597">
        <ele>1493</ele>
        <time>2021-06-27T12:22:49.074Z</time>
      </trkpt>
      <trkpt lat="45.55838" lon="6.06596">
        <ele>1492</ele>
        <time>2021-06-27T12:22:50.074Z</time>
      </trkpt>
      <trkpt lat="45.55837" lon="6.06596">
        <ele>1492</ele>
        <time>2021-06-27T12:22:51.074Z</time>
      </trkpt>
      <trkpt lat="45.55836" lon="6.06595">
        <ele>1491</ele>
        <time>2021-06-27T12:22:52.073Z</time>
      </trkpt>
      <trkpt lat="45.55835" lon="6.06596">
        <ele>1491</ele>
        <time>2021-06-27T12:22:53.073Z</time>
      </trkpt>
      <trkpt lat="45.55833" lon="6.06596">
        <ele>1490</ele>
        <time>2021-06-27T12:22:54.074Z</time>
      </trkpt>
      <trkpt lat="45.55832" lon="6.06597">
        <ele>1490</ele>
        <time>2021-06-27T12:22:55.074Z</time>
      </trkpt>
      <trkpt lat="45.55831" lon="6.06597">
        <ele>1490</ele>
        <time>2021-06-27T12:22:56.074Z</time>
      </trkpt>
      <trkpt lat="45.5583" lon="6.06597">
        <ele>1489</ele>
        <time>2021-06-27T12:22:57.074Z</time>
      </trkpt>
      <trkpt lat="45.55829" lon="6.06597">
        <ele>1488</ele>
        <time>2021-06-27T12:22:58.073Z</time>
      </trkpt>
      <trkpt lat="45.55829" lon="6.06596">
        <ele>1488</ele>
        <time>2021-06-27T12:22:59.074Z</time>
      </trkpt>
      <trkpt lat="45.55828" lon="6.06595">
        <ele>1487</ele>
        <time>2021-06-27T12:23:00.074Z</time>
      </trkpt>
      <trkpt lat="45.55827" lon="6.06595">
        <ele>1487</ele>
        <time>2021-06-27T12:23:01.074Z</time>
      </trkpt>
      <trkpt lat="45.55825" lon="6.06595">
        <ele>1486</ele>
        <time>2021-06-27T12:23:02.074Z</time>
      </trkpt>
      <trkpt lat="45.55824" lon="6.06595">
        <ele>1486</ele>
        <time>2021-06-27T12:23:03.073Z</time>
      </trkpt>
      <trkpt lat="45.55822" lon="6.06595">
        <ele>1486</ele>
        <time>2021-06-27T12:23:04.073Z</time>
      </trkpt>
      <trkpt lat="45.55821" lon="6.06594">
        <ele>1486</ele>
        <time>2021-06-27T12:23:05.073Z</time>
      </trkpt>
      <trkpt lat="45.5582" lon="6.06593">
        <ele>1486</ele>
        <time>2021-06-27T12:23:06.074Z</time>
      </trkpt>
      <trkpt lat="45.55819" lon="6.06593">
        <ele>1486</ele>
        <time>2021-06-27T12:23:07.074Z</time>
      </trkpt>
      <trkpt lat="45.55818" lon="6.06593">
        <ele>1486</ele>
        <time>2021-06-27T12:23:08.074Z</time>
      </trkpt>
      <trkpt lat="45.55817" lon="6.06592">
        <ele>1486</ele>
        <time>2021-06-27T12:23:09.073Z</time>
      </trkpt>
      <trkpt lat="45.55816" lon="6.06592">
        <ele>1486</ele>
        <time>2021-06-27T12:23:10.074Z</time>
      </trkpt>
      <trkpt lat="45.55814" lon="6.06592">
        <ele>1485</ele>
        <time>2021-06-27T12:23:11.073Z</time>
      </trkpt>
      <trkpt lat="45.55813" lon="6.06591">
        <ele>1485</ele>
        <time>2021-06-27T12:23:12.073Z</time>
      </trkpt>
      <trkpt lat="45.55812" lon="6.0659">
        <ele>1485</ele>
        <time>2021-06-27T12:23:13.074Z</time>
      </trkpt>
      <trkpt lat="45.55811" lon="6.0659">
        <ele>1485</ele>
        <time>2021-06-27T12:23:14.074Z</time>
      </trkpt>
      <trkpt lat="45.5581" lon="6.06589">
        <ele>1486</ele>
        <time>2021-06-27T12:23:15.074Z</time>
      </trkpt>
      <trkpt lat="45.55809" lon="6.06589">
        <ele>1485</ele>
        <time>2021-06-27T12:23:16.073Z</time>
      </trkpt>
      <trkpt lat="45.55807" lon="6.06588">
        <ele>1485</ele>
        <time>2021-06-27T12:23:17.073Z</time>
      </trkpt>
      <trkpt lat="45.55806" lon="6.06588">
        <ele>1485</ele>
        <time>2021-06-27T12:23:18.073Z</time>
      </trkpt>
      <trkpt lat="45.55805" lon="6.06587">
        <ele>1485</ele>
        <time>2021-06-27T12:23:19.074Z</time>
      </trkpt>
      <trkpt lat="45.55804" lon="6.06587">
        <ele>1484</ele>
        <time>2021-06-27T12:23:20.074Z</time>
      </trkpt>
      <trkpt lat="45.55803" lon="6.06586">
        <ele>1484</ele>
        <time>2021-06-27T12:23:21.074Z</time>
      </trkpt>
      <trkpt lat="45.55802" lon="6.06586">
        <ele>1484</ele>
        <time>2021-06-27T12:23:22.073Z</time>
      </trkpt>
      <trkpt lat="45.55801" lon="6.06585">
        <ele>1484</ele>
        <time>2021-06-27T12:23:23.074Z</time>
      </trkpt>
      <trkpt lat="45.55799" lon="6.06585">
        <ele>1484</ele>
        <time>2021-06-27T12:23:24.074Z</time>
      </trkpt>
      <trkpt lat="45.55798" lon="6.06585">
        <ele>1483</ele>
        <time>2021-06-27T12:23:25.074Z</time>
      </trkpt>
      <trkpt lat="45.55797" lon="6.06584">
        <ele>1483</ele>
        <time>2021-06-27T12:23:26.074Z</time>
      </trkpt>
      <trkpt lat="45.55796" lon="6.06584">
        <ele>1483</ele>
        <time>2021-06-27T12:23:27.074Z</time>
      </trkpt>
      <trkpt lat="45.55795" lon="6.06583">
        <ele>1483</ele>
        <time>2021-06-27T12:23:28.073Z</time>
      </trkpt>
      <trkpt lat="45.55793" lon="6.06583">
        <ele>1483</ele>
        <time>2021-06-27T12:23:29.074Z</time>
      </trkpt>
      <trkpt lat="45.55792" lon="6.06583">
        <ele>1483</ele>
        <time>2021-06-27T12:23:30.074Z</time>
      </trkpt>
      <trkpt lat="45.55791" lon="6.06583">
        <ele>1483</ele>
        <time>2021-06-27T12:23:31.074Z</time>
      </trkpt>
      <trkpt lat="45.5579" lon="6.06582">
        <ele>1483</ele>
        <time>2021-06-27T12:23:32.074Z</time>
      </trkpt>
      <trkpt lat="45.55789" lon="6.06582">
        <ele>1484</ele>
        <time>2021-06-27T12:23:33.073Z</time>
      </trkpt>
      <trkpt lat="45.55788" lon="6.06581">
        <ele>1483</ele>
        <time>2021-06-27T12:23:34.073Z</time>
      </trkpt>
      <trkpt lat="45.55786" lon="6.06581">
        <ele>1484</ele>
        <time>2021-06-27T12:23:35.073Z</time>
      </trkpt>
      <trkpt lat="45.55785" lon="6.0658">
        <ele>1484</ele>
        <time>2021-06-27T12:23:36.074Z</time>
      </trkpt>
      <trkpt lat="45.55784" lon="6.06579">
        <ele>1484</ele>
        <time>2021-06-27T12:23:37.074Z</time>
      </trkpt>
      <trkpt lat="45.55783" lon="6.06579">
        <ele>1484</ele>
        <time>2021-06-27T12:23:38.074Z</time>
      </trkpt>
      <trkpt lat="45.55782" lon="6.06579">
        <ele>1484</ele>
        <time>2021-06-27T12:23:39.073Z</time>
      </trkpt>
      <trkpt lat="45.55781" lon="6.06579">
        <ele>1484</ele>
        <time>2021-06-27T12:23:40.073Z</time>
      </trkpt>
      <trkpt lat="45.55779" lon="6.06578">
        <ele>1484</ele>
        <time>2021-06-27T12:23:41.074Z</time>
      </trkpt>
      <trkpt lat="45.55778" lon="6.06578">
        <ele>1485</ele>
        <time>2021-06-27T12:23:42.073Z</time>
      </trkpt>
      <trkpt lat="45.55777" lon="6.06577">
        <ele>1485</ele>
        <time>2021-06-27T12:23:43.073Z</time>
      </trkpt>
      <trkpt lat="45.55776" lon="6.06577">
        <ele>1485</ele>
        <time>2021-06-27T12:23:44.074Z</time>
      </trkpt>
      <trkpt lat="45.55775" lon="6.06577">
        <ele>1484</ele>
        <time>2021-06-27T12:23:45.074Z</time>
      </trkpt>
      <trkpt lat="45.55774" lon="6.06577">
        <ele>1484</ele>
        <time>2021-06-27T12:23:46.074Z</time>
      </trkpt>
      <trkpt lat="45.55773" lon="6.06577">
        <ele>1484</ele>
        <time>2021-06-27T12:23:47.073Z</time>
      </trkpt>
      <trkpt lat="45.55772" lon="6.06577">
        <ele>1483</ele>
        <time>2021-06-27T12:23:48.074Z</time>
      </trkpt>
      <trkpt lat="45.55771" lon="6.06577">
        <ele>1483</ele>
        <time>2021-06-27T12:23:49.074Z</time>
      </trkpt>
      <trkpt lat="45.5577" lon="6.06577">
        <ele>1482</ele>
        <time>2021-06-27T12:23:50.074Z</time>
      </trkpt>
      <trkpt lat="45.55769" lon="6.06576">
        <ele>1482</ele>
        <time>2021-06-27T12:23:51.074Z</time>
      </trkpt>
      <trkpt lat="45.55768" lon="6.06576">
        <ele>1482</ele>
        <time>2021-06-27T12:23:52.073Z</time>
      </trkpt>
      <trkpt lat="45.55767" lon="6.06576">
        <ele>1482</ele>
        <time>2021-06-27T12:23:53.074Z</time>
      </trkpt>
      <trkpt lat="45.55766" lon="6.06575">
        <ele>1483</ele>
        <time>2021-06-27T12:23:54.074Z</time>
      </trkpt>
      <trkpt lat="45.55765" lon="6.06574">
        <ele>1484</ele>
        <time>2021-06-27T12:23:55.074Z</time>
      </trkpt>
      <trkpt lat="45.55764" lon="6.06574">
        <ele>1484</ele>
        <time>2021-06-27T12:23:56.074Z</time>
      </trkpt>
      <trkpt lat="45.55763" lon="6.06574">
        <ele>1484</ele>
        <time>2021-06-27T12:23:57.073Z</time>
      </trkpt>
      <trkpt lat="45.55762" lon="6.06574">
        <ele>1484</ele>
        <time>2021-06-27T12:23:58.074Z</time>
      </trkpt>
      <trkpt lat="45.55761" lon="6.06575">
        <ele>1484</ele>
        <time>2021-06-27T12:23:59.073Z</time>
      </trkpt>
      <trkpt lat="45.5576" lon="6.06575">
        <ele>1484</ele>
        <time>2021-06-27T12:24:00.074Z</time>
      </trkpt>
      <trkpt lat="45.55759" lon="6.06575">
        <ele>1485</ele>
        <time>2021-06-27T12:24:01.074Z</time>
      </trkpt>
      <trkpt lat="45.55758" lon="6.06574">
        <ele>1485</ele>
        <time>2021-06-27T12:24:02.074Z</time>
      </trkpt>
      <trkpt lat="45.55757" lon="6.06575">
        <ele>1485</ele>
        <time>2021-06-27T12:24:03.074Z</time>
      </trkpt>
      <trkpt lat="45.55756" lon="6.06574">
        <ele>1485</ele>
        <time>2021-06-27T12:24:04.074Z</time>
      </trkpt>
      <trkpt lat="45.55756" lon="6.06574">
        <ele>1485</ele>
        <time>2021-06-27T12:24:05.073Z</time>
      </trkpt>
      <trkpt lat="45.55755" lon="6.06573">
        <ele>1485</ele>
        <time>2021-06-27T12:24:06.074Z</time>
      </trkpt>
      <trkpt lat="45.55754" lon="6.06573">
        <ele>1485</ele>
        <time>2021-06-27T12:24:07.074Z</time>
      </trkpt>
      <trkpt lat="45.55753" lon="6.06573">
        <ele>1485</ele>
        <time>2021-06-27T12:24:08.074Z</time>
      </trkpt>
      <trkpt lat="45.55752" lon="6.06573">
        <ele>1485</ele>
        <time>2021-06-27T12:24:09.074Z</time>
      </trkpt>
      <trkpt lat="45.5575" lon="6.06573">
        <ele>1485</ele>
        <time>2021-06-27T12:24:10.073Z</time>
      </trkpt>
      <trkpt lat="45.5575" lon="6.06573">
        <ele>1485</ele>
        <time>2021-06-27T12:24:11.074Z</time>
      </trkpt>
      <trkpt lat="45.55749" lon="6.06572">
        <ele>1485</ele>
        <time>2021-06-27T12:24:12.073Z</time>
      </trkpt>
      <trkpt lat="45.55748" lon="6.06571">
        <ele>1486</ele>
        <time>2021-06-27T12:24:13.074Z</time>
      </trkpt>
      <trkpt lat="45.55748" lon="6.0657">
        <ele>1486</ele>
        <time>2021-06-27T12:24:14.074Z</time>
      </trkpt>
      <trkpt lat="45.55747" lon="6.0657">
        <ele>1487</ele>
        <time>2021-06-27T12:24:15.074Z</time>
      </trkpt>
      <trkpt lat="45.55747" lon="6.06569">
        <ele>1487</ele>
        <time>2021-06-27T12:24:16.074Z</time>
      </trkpt>
      <trkpt lat="45.55746" lon="6.06569">
        <ele>1488</ele>
        <time>2021-06-27T12:24:17.073Z</time>
      </trkpt>
      <trkpt lat="45.55745" lon="6.06569">
        <ele>1489</ele>
        <time>2021-06-27T12:24:18.074Z</time>
      </trkpt>
      <trkpt lat="45.55745" lon="6.06569">
        <ele>1489</ele>
        <time>2021-06-27T12:24:19.074Z</time>
      </trkpt>
      <trkpt lat="45.55744" lon="6.06568">
        <ele>1489</ele>
        <time>2021-06-27T12:24:20.074Z</time>
      </trkpt>
      <trkpt lat="45.55743" lon="6.06568">
        <ele>1490</ele>
        <time>2021-06-27T12:24:21.074Z</time>
      </trkpt>
      <trkpt lat="45.55742" lon="6.06568">
        <ele>1490</ele>
        <time>2021-06-27T12:24:22.074Z</time>
      </trkpt>
      <trkpt lat="45.55741" lon="6.06568">
        <ele>1490</ele>
        <time>2021-06-27T12:24:23.073Z</time>
      </trkpt>
      <trkpt lat="45.5574" lon="6.06568">
        <ele>1490</ele>
        <time>2021-06-27T12:24:24.074Z</time>
      </trkpt>
      <trkpt lat="45.55739" lon="6.06568">
        <ele>1491</ele>
        <time>2021-06-27T12:24:25.074Z</time>
      </trkpt>
      <trkpt lat="45.55739" lon="6.06567">
        <ele>1491</ele>
        <time>2021-06-27T12:24:26.074Z</time>
      </trkpt>
      <trkpt lat="45.55739" lon="6.06566">
        <ele>1491</ele>
        <time>2021-06-27T12:24:27.074Z</time>
      </trkpt>
      <trkpt lat="45.55738" lon="6.06565">
        <ele>1491</ele>
        <time>2021-06-27T12:24:28.073Z</time>
      </trkpt>
      <trkpt lat="45.55737" lon="6.06563">
        <ele>1491</ele>
        <time>2021-06-27T12:24:29.074Z</time>
      </trkpt>
      <trkpt lat="45.55737" lon="6.06562">
        <ele>1491</ele>
        <time>2021-06-27T12:24:30.074Z</time>
      </trkpt>
      <trkpt lat="45.55736" lon="6.06561">
        <ele>1491</ele>
        <time>2021-06-27T12:24:31.074Z</time>
      </trkpt>
      <trkpt lat="45.55736" lon="6.0656">
        <ele>1492</ele>
        <time>2021-06-27T12:24:32.074Z</time>
      </trkpt>
      <trkpt lat="45.55736" lon="6.06559">
        <ele>1492</ele>
        <time>2021-06-27T12:24:33.073Z</time>
      </trkpt>
      <trkpt lat="45.55736" lon="6.06558">
        <ele>1492</ele>
        <time>2021-06-27T12:24:34.073Z</time>
      </trkpt>
      <trkpt lat="45.55736" lon="6.06557">
        <ele>1492</ele>
        <time>2021-06-27T12:24:35.074Z</time>
      </trkpt>
      <trkpt lat="45.55735" lon="6.06556">
        <ele>1493</ele>
        <time>2021-06-27T12:24:36.074Z</time>
      </trkpt>
      <trkpt lat="45.55735" lon="6.06555">
        <ele>1493</ele>
        <time>2021-06-27T12:24:37.074Z</time>
      </trkpt>
      <trkpt lat="45.55735" lon="6.06554">
        <ele>1494</ele>
        <time>2021-06-27T12:24:38.073Z</time>
      </trkpt>
      <trkpt lat="45.55735" lon="6.06553">
        <ele>1494</ele>
        <time>2021-06-27T12:24:39.073Z</time>
      </trkpt>
      <trkpt lat="45.55734" lon="6.06551">
        <ele>1495</ele>
        <time>2021-06-27T12:24:40.074Z</time>
      </trkpt>
      <trkpt lat="45.55734" lon="6.0655">
        <ele>1495</ele>
        <time>2021-06-27T12:24:41.074Z</time>
      </trkpt>
      <trkpt lat="45.55733" lon="6.06549">
        <ele>1495</ele>
        <time>2021-06-27T12:24:42.074Z</time>
      </trkpt>
      <trkpt lat="45.55733" lon="6.06548">
        <ele>1495</ele>
        <time>2021-06-27T12:24:43.073Z</time>
      </trkpt>
      <trkpt lat="45.55732" lon="6.06547">
        <ele>1495</ele>
        <time>2021-06-27T12:24:44.073Z</time>
      </trkpt>
      <trkpt lat="45.55732" lon="6.06546">
        <ele>1496</ele>
        <time>2021-06-27T12:24:45.074Z</time>
      </trkpt>
      <trkpt lat="45.55731" lon="6.06546">
        <ele>1496</ele>
        <time>2021-06-27T12:24:46.074Z</time>
      </trkpt>
      <trkpt lat="45.5573" lon="6.06545">
        <ele>1496</ele>
        <time>2021-06-27T12:24:47.074Z</time>
      </trkpt>
      <trkpt lat="45.5573" lon="6.06544">
        <ele>1497</ele>
        <time>2021-06-27T12:24:48.074Z</time>
      </trkpt>
      <trkpt lat="45.55729" lon="6.06543">
        <ele>1498</ele>
        <time>2021-06-27T12:24:49.073Z</time>
      </trkpt>
      <trkpt lat="45.55728" lon="6.06542">
        <ele>1498</ele>
        <time>2021-06-27T12:24:50.073Z</time>
      </trkpt>
      <trkpt lat="45.55728" lon="6.06541">
        <ele>1499</ele>
        <time>2021-06-27T12:24:51.074Z</time>
      </trkpt>
      <trkpt lat="45.55727" lon="6.0654">
        <ele>1499</ele>
        <time>2021-06-27T12:24:52.074Z</time>
      </trkpt>
      <trkpt lat="45.55727" lon="6.06539">
        <ele>1500</ele>
        <time>2021-06-27T12:24:53.074Z</time>
      </trkpt>
      <trkpt lat="45.55727" lon="6.06538">
        <ele>1500</ele>
        <time>2021-06-27T12:24:54.074Z</time>
      </trkpt>
      <trkpt lat="45.55726" lon="6.06537">
        <ele>1500</ele>
        <time>2021-06-27T12:24:55.074Z</time>
      </trkpt>
      <trkpt lat="45.55726" lon="6.06536">
        <ele>1501</ele>
        <time>2021-06-27T12:24:56.074Z</time>
      </trkpt>
      <trkpt lat="45.55725" lon="6.06535">
        <ele>1501</ele>
        <time>2021-06-27T12:24:57.074Z</time>
      </trkpt>
      <trkpt lat="45.55725" lon="6.06534">
        <ele>1501</ele>
        <time>2021-06-27T12:24:58.074Z</time>
      </trkpt>
      <trkpt lat="45.55725" lon="6.06532">
        <ele>1500</ele>
        <time>2021-06-27T12:24:59.074Z</time>
      </trkpt>
      <trkpt lat="45.55725" lon="6.06531">
        <ele>1500</ele>
        <time>2021-06-27T12:25:00.074Z</time>
      </trkpt>
      <trkpt lat="45.55725" lon="6.06529">
        <ele>1500</ele>
        <time>2021-06-27T12:25:01.074Z</time>
      </trkpt>
      <trkpt lat="45.55725" lon="6.06528">
        <ele>1499</ele>
        <time>2021-06-27T12:25:02.074Z</time>
      </trkpt>
      <trkpt lat="45.55725" lon="6.06526">
        <ele>1499</ele>
        <time>2021-06-27T12:25:03.074Z</time>
      </trkpt>
      <trkpt lat="45.55725" lon="6.06525">
        <ele>1498</ele>
        <time>2021-06-27T12:25:04.074Z</time>
      </trkpt>
      <trkpt lat="45.55725" lon="6.06524">
        <ele>1498</ele>
        <time>2021-06-27T12:25:05.073Z</time>
      </trkpt>
      <trkpt lat="45.55724" lon="6.06522">
        <ele>1497</ele>
        <time>2021-06-27T12:25:06.073Z</time>
      </trkpt>
      <trkpt lat="45.55723" lon="6.0652">
        <ele>1497</ele>
        <time>2021-06-27T12:25:07.074Z</time>
      </trkpt>
      <trkpt lat="45.55722" lon="6.06519">
        <ele>1497</ele>
        <time>2021-06-27T12:25:08.074Z</time>
      </trkpt>
      <trkpt lat="45.55722" lon="6.06516">
        <ele>1497</ele>
        <time>2021-06-27T12:25:09.073Z</time>
      </trkpt>
      <trkpt lat="45.55721" lon="6.06514">
        <ele>1497</ele>
        <time>2021-06-27T12:25:10.073Z</time>
      </trkpt>
      <trkpt lat="45.5572" lon="6.06513">
        <ele>1497</ele>
        <time>2021-06-27T12:25:11.073Z</time>
      </trkpt>
      <trkpt lat="45.55719" lon="6.06512">
        <ele>1498</ele>
        <time>2021-06-27T12:25:12.074Z</time>
      </trkpt>
      <trkpt lat="45.55719" lon="6.06511">
        <ele>1498</ele>
        <time>2021-06-27T12:25:13.074Z</time>
      </trkpt>
      <trkpt lat="45.55718" lon="6.0651">
        <ele>1498</ele>
        <time>2021-06-27T12:25:14.074Z</time>
      </trkpt>
      <trkpt lat="45.55717" lon="6.06509">
        <ele>1499</ele>
        <time>2021-06-27T12:25:15.074Z</time>
      </trkpt>
      <trkpt lat="45.55716" lon="6.06508">
        <ele>1498</ele>
        <time>2021-06-27T12:25:16.073Z</time>
      </trkpt>
      <trkpt lat="45.55715" lon="6.06506">
        <ele>1498</ele>
        <time>2021-06-27T12:25:17.074Z</time>
      </trkpt>
      <trkpt lat="45.55715" lon="6.06505">
        <ele>1498</ele>
        <time>2021-06-27T12:25:18.074Z</time>
      </trkpt>
      <trkpt lat="45.55714" lon="6.06504">
        <ele>1498</ele>
        <time>2021-06-27T12:25:19.074Z</time>
      </trkpt>
      <trkpt lat="45.55713" lon="6.06503">
        <ele>1498</ele>
        <time>2021-06-27T12:25:20.074Z</time>
      </trkpt>
      <trkpt lat="45.55712" lon="6.06501">
        <ele>1498</ele>
        <time>2021-06-27T12:25:21.074Z</time>
      </trkpt>
      <trkpt lat="45.55711" lon="6.06499">
        <ele>1498</ele>
        <time>2021-06-27T12:25:22.073Z</time>
      </trkpt>
      <trkpt lat="45.5571" lon="6.06497">
        <ele>1498</ele>
        <time>2021-06-27T12:25:23.073Z</time>
      </trkpt>
      <trkpt lat="45.5571" lon="6.06495">
        <ele>1498</ele>
        <time>2021-06-27T12:25:24.073Z</time>
      </trkpt>
      <trkpt lat="45.55709" lon="6.06493">
        <ele>1498</ele>
        <time>2021-06-27T12:25:25.074Z</time>
      </trkpt>
      <trkpt lat="45.55708" lon="6.06491">
        <ele>1498</ele>
        <time>2021-06-27T12:25:26.074Z</time>
      </trkpt>
      <trkpt lat="45.55708" lon="6.06489">
        <ele>1498</ele>
        <time>2021-06-27T12:25:27.074Z</time>
      </trkpt>
      <trkpt lat="45.55707" lon="6.06487">
        <ele>1498</ele>
        <time>2021-06-27T12:25:28.074Z</time>
      </trkpt>
      <trkpt lat="45.55706" lon="6.06486">
        <ele>1498</ele>
        <time>2021-06-27T12:25:29.073Z</time>
      </trkpt>
      <trkpt lat="45.55706" lon="6.06485">
        <ele>1498</ele>
        <time>2021-06-27T12:25:30.074Z</time>
      </trkpt>
      <trkpt lat="45.55705" lon="6.06484">
        <ele>1498</ele>
        <time>2021-06-27T12:25:31.074Z</time>
      </trkpt>
      <trkpt lat="45.55704" lon="6.06482">
        <ele>1498</ele>
        <time>2021-06-27T12:25:32.074Z</time>
      </trkpt>
      <trkpt lat="45.55703" lon="6.06481">
        <ele>1497</ele>
        <time>2021-06-27T12:25:33.074Z</time>
      </trkpt>
      <trkpt lat="45.55703" lon="6.06479">
        <ele>1497</ele>
        <time>2021-06-27T12:25:34.074Z</time>
      </trkpt>
      <trkpt lat="45.55703" lon="6.06478">
        <ele>1496</ele>
        <time>2021-06-27T12:25:35.073Z</time>
      </trkpt>
      <trkpt lat="45.55702" lon="6.06476">
        <ele>1496</ele>
        <time>2021-06-27T12:25:36.074Z</time>
      </trkpt>
      <trkpt lat="45.55701" lon="6.06475">
        <ele>1495</ele>
        <time>2021-06-27T12:25:37.074Z</time>
      </trkpt>
      <trkpt lat="45.55701" lon="6.06473">
        <ele>1495</ele>
        <time>2021-06-27T12:25:38.073Z</time>
      </trkpt>
      <trkpt lat="45.55701" lon="6.06471">
        <ele>1495</ele>
        <time>2021-06-27T12:25:39.073Z</time>
      </trkpt>
      <trkpt lat="45.557" lon="6.06469">
        <ele>1496</ele>
        <time>2021-06-27T12:25:40.073Z</time>
      </trkpt>
      <trkpt lat="45.557" lon="6.06467">
        <ele>1496</ele>
        <time>2021-06-27T12:25:41.074Z</time>
      </trkpt>
      <trkpt lat="45.55699" lon="6.06466">
        <ele>1496</ele>
        <time>2021-06-27T12:25:42.074Z</time>
      </trkpt>
      <trkpt lat="45.55699" lon="6.06465">
        <ele>1496</ele>
        <time>2021-06-27T12:25:43.074Z</time>
      </trkpt>
      <trkpt lat="45.55698" lon="6.06463">
        <ele>1496</ele>
        <time>2021-06-27T12:25:44.074Z</time>
      </trkpt>
      <trkpt lat="45.55698" lon="6.06461">
        <ele>1495</ele>
        <time>2021-06-27T12:25:45.073Z</time>
      </trkpt>
      <trkpt lat="45.55697" lon="6.0646">
        <ele>1495</ele>
        <time>2021-06-27T12:25:46.074Z</time>
      </trkpt>
      <trkpt lat="45.55697" lon="6.06458">
        <ele>1495</ele>
        <time>2021-06-27T12:25:47.074Z</time>
      </trkpt>
      <trkpt lat="45.55696" lon="6.06456">
        <ele>1495</ele>
        <time>2021-06-27T12:25:48.074Z</time>
      </trkpt>
      <trkpt lat="45.55696" lon="6.06455">
        <ele>1495</ele>
        <time>2021-06-27T12:25:49.074Z</time>
      </trkpt>
      <trkpt lat="45.55696" lon="6.06453">
        <ele>1495</ele>
        <time>2021-06-27T12:25:50.074Z</time>
      </trkpt>
      <trkpt lat="45.55695" lon="6.06451">
        <ele>1495</ele>
        <time>2021-06-27T12:25:51.073Z</time>
      </trkpt>
      <trkpt lat="45.55694" lon="6.0645">
        <ele>1495</ele>
        <time>2021-06-27T12:25:52.073Z</time>
      </trkpt>
      <trkpt lat="45.55694" lon="6.06448">
        <ele>1495</ele>
        <time>2021-06-27T12:25:53.074Z</time>
      </trkpt>
      <trkpt lat="45.55693" lon="6.06447">
        <ele>1495</ele>
        <time>2021-06-27T12:25:54.074Z</time>
      </trkpt>
      <trkpt lat="45.55693" lon="6.06445">
        <ele>1495</ele>
        <time>2021-06-27T12:25:55.073Z</time>
      </trkpt>
      <trkpt lat="45.55693" lon="6.06443">
        <ele>1495</ele>
        <time>2021-06-27T12:25:56.074Z</time>
      </trkpt>
      <trkpt lat="45.55692" lon="6.06442">
        <ele>1495</ele>
        <time>2021-06-27T12:25:57.074Z</time>
      </trkpt>
      <trkpt lat="45.55691" lon="6.0644">
        <ele>1496</ele>
        <time>2021-06-27T12:25:58.074Z</time>
      </trkpt>
      <trkpt lat="45.55691" lon="6.06439">
        <ele>1496</ele>
        <time>2021-06-27T12:25:59.073Z</time>
      </trkpt>
      <trkpt lat="45.5569" lon="6.06437">
        <ele>1496</ele>
        <time>2021-06-27T12:26:00.074Z</time>
      </trkpt>
      <trkpt lat="45.55689" lon="6.06436">
        <ele>1496</ele>
        <time>2021-06-27T12:26:01.074Z</time>
      </trkpt>
      <trkpt lat="45.55689" lon="6.06434">
        <ele>1496</ele>
        <time>2021-06-27T12:26:02.073Z</time>
      </trkpt>
      <trkpt lat="45.55689" lon="6.06433">
        <ele>1496</ele>
        <time>2021-06-27T12:26:03.073Z</time>
      </trkpt>
      <trkpt lat="45.55689" lon="6.06432">
        <ele>1495</ele>
        <time>2021-06-27T12:26:04.074Z</time>
      </trkpt>
      <trkpt lat="45.55688" lon="6.0643">
        <ele>1495</ele>
        <time>2021-06-27T12:26:05.074Z</time>
      </trkpt>
      <trkpt lat="45.55688" lon="6.06429">
        <ele>1494</ele>
        <time>2021-06-27T12:26:06.073Z</time>
      </trkpt>
      <trkpt lat="45.55687" lon="6.06427">
        <ele>1494</ele>
        <time>2021-06-27T12:26:07.074Z</time>
      </trkpt>
      <trkpt lat="45.55687" lon="6.06426">
        <ele>1494</ele>
        <time>2021-06-27T12:26:08.074Z</time>
      </trkpt>
      <trkpt lat="45.55686" lon="6.06424">
        <ele>1494</ele>
        <time>2021-06-27T12:26:09.074Z</time>
      </trkpt>
      <trkpt lat="45.55686" lon="6.06422">
        <ele>1494</ele>
        <time>2021-06-27T12:26:10.074Z</time>
      </trkpt>
      <trkpt lat="45.55685" lon="6.06421">
        <ele>1495</ele>
        <time>2021-06-27T12:26:11.073Z</time>
      </trkpt>
      <trkpt lat="45.55685" lon="6.06419">
        <ele>1495</ele>
        <time>2021-06-27T12:26:12.074Z</time>
      </trkpt>
      <trkpt lat="45.55685" lon="6.06417">
        <ele>1495</ele>
        <time>2021-06-27T12:26:13.074Z</time>
      </trkpt>
      <trkpt lat="45.55685" lon="6.06415">
        <ele>1495</ele>
        <time>2021-06-27T12:26:14.074Z</time>
      </trkpt>
      <trkpt lat="45.55685" lon="6.06414">
        <ele>1496</ele>
        <time>2021-06-27T12:26:15.074Z</time>
      </trkpt>
      <trkpt lat="45.55685" lon="6.06412">
        <ele>1496</ele>
        <time>2021-06-27T12:26:16.074Z</time>
      </trkpt>
      <trkpt lat="45.55685" lon="6.06411">
        <ele>1496</ele>
        <time>2021-06-27T12:26:17.074Z</time>
      </trkpt>
      <trkpt lat="45.55686" lon="6.06409">
        <ele>1496</ele>
        <time>2021-06-27T12:26:18.074Z</time>
      </trkpt>
      <trkpt lat="45.55685" lon="6.06407">
        <ele>1497</ele>
        <time>2021-06-27T12:26:19.073Z</time>
      </trkpt>
      <trkpt lat="45.55685" lon="6.06406">
        <ele>1497</ele>
        <time>2021-06-27T12:26:20.074Z</time>
      </trkpt>
      <trkpt lat="45.55685" lon="6.06404">
        <ele>1497</ele>
        <time>2021-06-27T12:26:21.074Z</time>
      </trkpt>
      <trkpt lat="45.55685" lon="6.06402">
        <ele>1497</ele>
        <time>2021-06-27T12:26:22.074Z</time>
      </trkpt>
      <trkpt lat="45.55685" lon="6.06401">
        <ele>1497</ele>
        <time>2021-06-27T12:26:23.074Z</time>
      </trkpt>
      <trkpt lat="45.55684" lon="6.06399">
        <ele>1497</ele>
        <time>2021-06-27T12:26:24.074Z</time>
      </trkpt>
      <trkpt lat="45.55684" lon="6.06398">
        <ele>1497</ele>
        <time>2021-06-27T12:26:25.074Z</time>
      </trkpt>
      <trkpt lat="45.55684" lon="6.06397">
        <ele>1497</ele>
        <time>2021-06-27T12:26:26.073Z</time>
      </trkpt>
      <trkpt lat="45.55684" lon="6.06396">
        <ele>1497</ele>
        <time>2021-06-27T12:26:27.074Z</time>
      </trkpt>
      <trkpt lat="45.55685" lon="6.06394">
        <ele>1498</ele>
        <time>2021-06-27T12:26:28.073Z</time>
      </trkpt>
      <trkpt lat="45.55685" lon="6.06393">
        <ele>1498</ele>
        <time>2021-06-27T12:26:29.073Z</time>
      </trkpt>
      <trkpt lat="45.55685" lon="6.06391">
        <ele>1498</ele>
        <time>2021-06-27T12:26:30.073Z</time>
      </trkpt>
      <trkpt lat="45.55685" lon="6.0639">
        <ele>1499</ele>
        <time>2021-06-27T12:26:31.073Z</time>
      </trkpt>
      <trkpt lat="45.55685" lon="6.06389">
        <ele>1499</ele>
        <time>2021-06-27T12:26:32.073Z</time>
      </trkpt>
      <trkpt lat="45.55684" lon="6.06389">
        <ele>1500</ele>
        <time>2021-06-27T12:26:33.073Z</time>
      </trkpt>
      <trkpt lat="45.55683" lon="6.06388">
        <ele>1500</ele>
        <time>2021-06-27T12:26:34.074Z</time>
      </trkpt>
      <trkpt lat="45.55683" lon="6.06386">
        <ele>1500</ele>
        <time>2021-06-27T12:26:35.074Z</time>
      </trkpt>
      <trkpt lat="45.55682" lon="6.06384">
        <ele>1501</ele>
        <time>2021-06-27T12:26:36.074Z</time>
      </trkpt>
      <trkpt lat="45.55681" lon="6.06383">
        <ele>1501</ele>
        <time>2021-06-27T12:26:37.073Z</time>
      </trkpt>
      <trkpt lat="45.55681" lon="6.06382">
        <ele>1500</ele>
        <time>2021-06-27T12:26:38.073Z</time>
      </trkpt>
      <trkpt lat="45.5568" lon="6.06381">
        <ele>1500</ele>
        <time>2021-06-27T12:26:39.074Z</time>
      </trkpt>
      <trkpt lat="45.55679" lon="6.0638">
        <ele>1500</ele>
        <time>2021-06-27T12:26:40.074Z</time>
      </trkpt>
      <trkpt lat="45.55679" lon="6.0638">
        <ele>1501</ele>
        <time>2021-06-27T12:26:41.074Z</time>
      </trkpt>
      <trkpt lat="45.55678" lon="6.06379">
        <ele>1501</ele>
        <time>2021-06-27T12:26:42.074Z</time>
      </trkpt>
      <trkpt lat="45.55677" lon="6.06379">
        <ele>1500</ele>
        <time>2021-06-27T12:26:43.074Z</time>
      </trkpt>
      <trkpt lat="45.55676" lon="6.06378">
        <ele>1500</ele>
        <time>2021-06-27T12:26:44.074Z</time>
      </trkpt>
      <trkpt lat="45.55676" lon="6.06378">
        <ele>1500</ele>
        <time>2021-06-27T12:26:45.073Z</time>
      </trkpt>
      <trkpt lat="45.55675" lon="6.06378">
        <ele>1500</ele>
        <time>2021-06-27T12:26:46.073Z</time>
      </trkpt>
      <trkpt lat="45.55675" lon="6.06379">
        <ele>1500</ele>
        <time>2021-06-27T12:26:47.073Z</time>
      </trkpt>
      <trkpt lat="45.55675" lon="6.06379">
        <ele>1499</ele>
        <time>2021-06-27T12:26:48.074Z</time>
      </trkpt>
      <trkpt lat="45.55674" lon="6.06379">
        <ele>1499</ele>
        <time>2021-06-27T12:26:49.074Z</time>
      </trkpt>
      <trkpt lat="45.55674" lon="6.06379">
        <ele>1499</ele>
        <time>2021-06-27T12:26:50.074Z</time>
      </trkpt>
      <trkpt lat="45.55673" lon="6.06379">
        <ele>1499</ele>
        <time>2021-06-27T12:26:51.074Z</time>
      </trkpt>
      <trkpt lat="45.55673" lon="6.0638">
        <ele>1499</ele>
        <time>2021-06-27T12:26:52.074Z</time>
      </trkpt>
      <trkpt lat="45.55673" lon="6.0638">
        <ele>1499</ele>
        <time>2021-06-27T12:26:53.073Z</time>
      </trkpt>
      <trkpt lat="45.55673" lon="6.0638">
        <ele>1499</ele>
        <time>2021-06-27T12:26:54.074Z</time>
      </trkpt>
      <trkpt lat="45.55672" lon="6.06381">
        <ele>1499</ele>
        <time>2021-06-27T12:26:55.074Z</time>
      </trkpt>
      <trkpt lat="45.55672" lon="6.06382">
        <ele>1500</ele>
        <time>2021-06-27T12:26:56.074Z</time>
      </trkpt>
      <trkpt lat="45.5567" lon="6.06383">
        <ele>1500</ele>
        <time>2021-06-27T12:26:57.074Z</time>
      </trkpt>
      <trkpt lat="45.5567" lon="6.06383">
        <ele>1500</ele>
        <time>2021-06-27T12:26:58.074Z</time>
      </trkpt>
      <trkpt lat="45.55669" lon="6.06382">
        <ele>1500</ele>
        <time>2021-06-27T12:26:59.074Z</time>
      </trkpt>
      <trkpt lat="45.55668" lon="6.06381">
        <ele>1501</ele>
        <time>2021-06-27T12:27:00.073Z</time>
      </trkpt>
      <trkpt lat="45.55668" lon="6.06381">
        <ele>1501</ele>
        <time>2021-06-27T12:27:01.073Z</time>
      </trkpt>
      <trkpt lat="45.55667" lon="6.0638">
        <ele>1501</ele>
        <time>2021-06-27T12:27:02.073Z</time>
      </trkpt>
      <trkpt lat="45.55666" lon="6.0638">
        <ele>1502</ele>
        <time>2021-06-27T12:27:03.074Z</time>
      </trkpt>
      <trkpt lat="45.55665" lon="6.0638">
        <ele>1502</ele>
        <time>2021-06-27T12:27:04.074Z</time>
      </trkpt>
      <trkpt lat="45.55664" lon="6.06379">
        <ele>1503</ele>
        <time>2021-06-27T12:27:05.074Z</time>
      </trkpt>
      <trkpt lat="45.55664" lon="6.06379">
        <ele>1503</ele>
        <time>2021-06-27T12:27:06.074Z</time>
      </trkpt>
      <trkpt lat="45.55663" lon="6.06379">
        <ele>1504</ele>
        <time>2021-06-27T12:27:07.073Z</time>
      </trkpt>
      <trkpt lat="45.55663" lon="6.06379">
        <ele>1504</ele>
        <time>2021-06-27T12:27:08.074Z</time>
      </trkpt>
      <trkpt lat="45.55662" lon="6.06379">
        <ele>1505</ele>
        <time>2021-06-27T12:27:09.073Z</time>
      </trkpt>
      <trkpt lat="45.55662" lon="6.06379">
        <ele>1505</ele>
        <time>2021-06-27T12:27:10.073Z</time>
      </trkpt>
      <trkpt lat="45.55661" lon="6.06378">
        <ele>1506</ele>
        <time>2021-06-27T12:27:11.074Z</time>
      </trkpt>
      <trkpt lat="45.55661" lon="6.06378">
        <ele>1506</ele>
        <time>2021-06-27T12:27:12.074Z</time>
      </trkpt>
      <trkpt lat="45.5566" lon="6.06377">
        <ele>1507</ele>
        <time>2021-06-27T12:27:13.074Z</time>
      </trkpt>
      <trkpt lat="45.5566" lon="6.06375">
        <ele>1507</ele>
        <time>2021-06-27T12:27:14.073Z</time>
      </trkpt>
      <trkpt lat="45.55659" lon="6.06374">
        <ele>1508</ele>
        <time>2021-06-27T12:27:15.074Z</time>
      </trkpt>
      <trkpt lat="45.55659" lon="6.06374">
        <ele>1508</ele>
        <time>2021-06-27T12:27:16.073Z</time>
      </trkpt>
      <trkpt lat="45.55658" lon="6.06374">
        <ele>1509</ele>
        <time>2021-06-27T12:27:17.074Z</time>
      </trkpt>
      <trkpt lat="45.55657" lon="6.06373">
        <ele>1509</ele>
        <time>2021-06-27T12:27:18.074Z</time>
      </trkpt>
      <trkpt lat="45.55656" lon="6.06373">
        <ele>1509</ele>
        <time>2021-06-27T12:27:19.074Z</time>
      </trkpt>
      <trkpt lat="45.55655" lon="6.06373">
        <ele>1510</ele>
        <time>2021-06-27T12:27:20.073Z</time>
      </trkpt>
      <trkpt lat="45.55654" lon="6.06372">
        <ele>1510</ele>
        <time>2021-06-27T12:27:21.074Z</time>
      </trkpt>
      <trkpt lat="45.55654" lon="6.06371">
        <ele>1510</ele>
        <time>2021-06-27T12:27:22.074Z</time>
      </trkpt>
      <trkpt lat="45.55654" lon="6.0637">
        <ele>1511</ele>
        <time>2021-06-27T12:27:23.074Z</time>
      </trkpt>
      <trkpt lat="45.55653" lon="6.0637">
        <ele>1511</ele>
        <time>2021-06-27T12:27:24.074Z</time>
      </trkpt>
      <trkpt lat="45.55652" lon="6.0637">
        <ele>1511</ele>
        <time>2021-06-27T12:27:25.074Z</time>
      </trkpt>
      <trkpt lat="45.55651" lon="6.06369">
        <ele>1512</ele>
        <time>2021-06-27T12:27:26.074Z</time>
      </trkpt>
      <trkpt lat="45.5565" lon="6.06369">
        <ele>1512</ele>
        <time>2021-06-27T12:27:27.073Z</time>
      </trkpt>
      <trkpt lat="45.5565" lon="6.06368">
        <ele>1513</ele>
        <time>2021-06-27T12:27:28.073Z</time>
      </trkpt>
      <trkpt lat="45.55649" lon="6.06367">
        <ele>1513</ele>
        <time>2021-06-27T12:27:29.074Z</time>
      </trkpt>
      <trkpt lat="45.55649" lon="6.06365">
        <ele>1514</ele>
        <time>2021-06-27T12:27:30.074Z</time>
      </trkpt>
      <trkpt lat="45.55649" lon="6.06364">
        <ele>1514</ele>
        <time>2021-06-27T12:27:31.074Z</time>
      </trkpt>
      <trkpt lat="45.55648" lon="6.06362">
        <ele>1514</ele>
        <time>2021-06-27T12:27:32.074Z</time>
      </trkpt>
      <trkpt lat="45.55648" lon="6.06361">
        <ele>1514</ele>
        <time>2021-06-27T12:27:33.073Z</time>
      </trkpt>
      <trkpt lat="45.55647" lon="6.0636">
        <ele>1514</ele>
        <time>2021-06-27T12:27:34.074Z</time>
      </trkpt>
      <trkpt lat="45.55647" lon="6.0636">
        <ele>1514</ele>
        <time>2021-06-27T12:27:35.073Z</time>
      </trkpt>
      <trkpt lat="45.55647" lon="6.06359">
        <ele>1513</ele>
        <time>2021-06-27T12:27:36.073Z</time>
      </trkpt>
      <trkpt lat="45.55646" lon="6.06358">
        <ele>1513</ele>
        <time>2021-06-27T12:27:37.073Z</time>
      </trkpt>
      <trkpt lat="45.55645" lon="6.06357">
        <ele>1513</ele>
        <time>2021-06-27T12:27:38.074Z</time>
      </trkpt>
      <trkpt lat="45.55644" lon="6.06356">
        <ele>1513</ele>
        <time>2021-06-27T12:27:39.074Z</time>
      </trkpt>
      <trkpt lat="45.55644" lon="6.06353">
        <ele>1513</ele>
        <time>2021-06-27T12:27:40.073Z</time>
      </trkpt>
      <trkpt lat="45.55644" lon="6.06352">
        <ele>1513</ele>
        <time>2021-06-27T12:27:41.074Z</time>
      </trkpt>
      <trkpt lat="45.55643" lon="6.0635">
        <ele>1514</ele>
        <time>2021-06-27T12:27:42.074Z</time>
      </trkpt>
      <trkpt lat="45.55642" lon="6.0635">
        <ele>1513</ele>
        <time>2021-06-27T12:27:43.074Z</time>
      </trkpt>
      <trkpt lat="45.55642" lon="6.06349">
        <ele>1514</ele>
        <time>2021-06-27T12:27:44.074Z</time>
      </trkpt>
      <trkpt lat="45.55641" lon="6.06348">
        <ele>1514</ele>
        <time>2021-06-27T12:27:45.074Z</time>
      </trkpt>
      <trkpt lat="45.55641" lon="6.06347">
        <ele>1513</ele>
        <time>2021-06-27T12:27:46.073Z</time>
      </trkpt>
      <trkpt lat="45.55641" lon="6.06347">
        <ele>1513</ele>
        <time>2021-06-27T12:27:47.073Z</time>
      </trkpt>
      <trkpt lat="45.5564" lon="6.06346">
        <ele>1513</ele>
        <time>2021-06-27T12:27:48.074Z</time>
      </trkpt>
      <trkpt lat="45.55639" lon="6.06345">
        <ele>1512</ele>
        <time>2021-06-27T12:27:49.073Z</time>
      </trkpt>
      <trkpt lat="45.55639" lon="6.06344">
        <ele>1511</ele>
        <time>2021-06-27T12:27:50.073Z</time>
      </trkpt>
      <trkpt lat="45.55639" lon="6.06343">
        <ele>1511</ele>
        <time>2021-06-27T12:27:51.073Z</time>
      </trkpt>
      <trkpt lat="45.55638" lon="6.06342">
        <ele>1511</ele>
        <time>2021-06-27T12:27:52.074Z</time>
      </trkpt>
      <trkpt lat="45.55638" lon="6.06341">
        <ele>1510</ele>
        <time>2021-06-27T12:27:53.074Z</time>
      </trkpt>
      <trkpt lat="45.55637" lon="6.0634">
        <ele>1510</ele>
        <time>2021-06-27T12:27:54.073Z</time>
      </trkpt>
      <trkpt lat="45.55636" lon="6.0634">
        <ele>1510</ele>
        <time>2021-06-27T12:27:55.074Z</time>
      </trkpt>
      <trkpt lat="45.55636" lon="6.06338">
        <ele>1510</ele>
        <time>2021-06-27T12:27:56.074Z</time>
      </trkpt>
      <trkpt lat="45.55635" lon="6.06337">
        <ele>1510</ele>
        <time>2021-06-27T12:27:57.073Z</time>
      </trkpt>
      <trkpt lat="45.55634" lon="6.06336">
        <ele>1510</ele>
        <time>2021-06-27T12:27:58.073Z</time>
      </trkpt>
      <trkpt lat="45.55633" lon="6.06335">
        <ele>1510</ele>
        <time>2021-06-27T12:27:59.074Z</time>
      </trkpt>
      <trkpt lat="45.55633" lon="6.06333">
        <ele>1511</ele>
        <time>2021-06-27T12:28:00.074Z</time>
      </trkpt>
      <trkpt lat="45.55632" lon="6.06332">
        <ele>1511</ele>
        <time>2021-06-27T12:28:01.074Z</time>
      </trkpt>
      <trkpt lat="45.55632" lon="6.06331">
        <ele>1511</ele>
        <time>2021-06-27T12:28:02.074Z</time>
      </trkpt>
      <trkpt lat="45.55632" lon="6.0633">
        <ele>1512</ele>
        <time>2021-06-27T12:28:03.074Z</time>
      </trkpt>
      <trkpt lat="45.55631" lon="6.0633">
        <ele>1512</ele>
        <time>2021-06-27T12:28:04.074Z</time>
      </trkpt>
      <trkpt lat="45.55631" lon="6.06329">
        <ele>1512</ele>
        <time>2021-06-27T12:28:05.073Z</time>
      </trkpt>
      <trkpt lat="45.5563" lon="6.06329">
        <ele>1512</ele>
        <time>2021-06-27T12:28:06.074Z</time>
      </trkpt>
      <trkpt lat="45.5563" lon="6.06329">
        <ele>1512</ele>
        <time>2021-06-27T12:28:07.073Z</time>
      </trkpt>
      <trkpt lat="45.55629" lon="6.0633">
        <ele>1512</ele>
        <time>2021-06-27T12:28:08.074Z</time>
      </trkpt>
      <trkpt lat="45.55629" lon="6.06329">
        <ele>1512</ele>
        <time>2021-06-27T12:28:09.074Z</time>
      </trkpt>
      <trkpt lat="45.55628" lon="6.06329">
        <ele>1512</ele>
        <time>2021-06-27T12:28:10.074Z</time>
      </trkpt>
      <trkpt lat="45.55628" lon="6.06329">
        <ele>1512</ele>
        <time>2021-06-27T12:28:11.073Z</time>
      </trkpt>
      <trkpt lat="45.55627" lon="6.06329">
        <ele>1512</ele>
        <time>2021-06-27T12:28:12.074Z</time>
      </trkpt>
      <trkpt lat="45.55627" lon="6.06328">
        <ele>1512</ele>
        <time>2021-06-27T12:28:13.074Z</time>
      </trkpt>
      <trkpt lat="45.55627" lon="6.06328">
        <ele>1512</ele>
        <time>2021-06-27T12:28:14.073Z</time>
      </trkpt>
      <trkpt lat="45.55626" lon="6.06328">
        <ele>1512</ele>
        <time>2021-06-27T12:28:15.074Z</time>
      </trkpt>
      <trkpt lat="45.55626" lon="6.06327">
        <ele>1512</ele>
        <time>2021-06-27T12:28:16.074Z</time>
      </trkpt>
      <trkpt lat="45.55625" lon="6.06326">
        <ele>1512</ele>
        <time>2021-06-27T12:28:17.074Z</time>
      </trkpt>
      <trkpt lat="45.55625" lon="6.06325">
        <ele>1512</ele>
        <time>2021-06-27T12:28:18.074Z</time>
      </trkpt>
      <trkpt lat="45.55625" lon="6.06325">
        <ele>1512</ele>
        <time>2021-06-27T12:28:19.073Z</time>
      </trkpt>
      <trkpt lat="45.55624" lon="6.06324">
        <ele>1513</ele>
        <time>2021-06-27T12:28:20.073Z</time>
      </trkpt>
      <trkpt lat="45.55624" lon="6.06324">
        <ele>1514</ele>
        <time>2021-06-27T12:28:21.074Z</time>
      </trkpt>
      <trkpt lat="45.55623" lon="6.06324">
        <ele>1515</ele>
        <time>2021-06-27T12:28:22.074Z</time>
      </trkpt>
      <trkpt lat="45.55623" lon="6.06324">
        <ele>1515</ele>
        <time>2021-06-27T12:28:23.074Z</time>
      </trkpt>
      <trkpt lat="45.55622" lon="6.06323">
        <ele>1516</ele>
        <time>2021-06-27T12:28:24.073Z</time>
      </trkpt>
      <trkpt lat="45.55622" lon="6.06321">
        <ele>1517</ele>
        <time>2021-06-27T12:28:25.074Z</time>
      </trkpt>
      <trkpt lat="45.55621" lon="6.0632">
        <ele>1518</ele>
        <time>2021-06-27T12:28:26.074Z</time>
      </trkpt>
      <trkpt lat="45.55621" lon="6.06319">
        <ele>1519</ele>
        <time>2021-06-27T12:28:27.073Z</time>
      </trkpt>
      <trkpt lat="45.5562" lon="6.06317">
        <ele>1519</ele>
        <time>2021-06-27T12:28:28.074Z</time>
      </trkpt>
      <trkpt lat="45.55618" lon="6.06315">
        <ele>1520</ele>
        <time>2021-06-27T12:28:29.074Z</time>
      </trkpt>
      <trkpt lat="45.55617" lon="6.06314">
        <ele>1520</ele>
        <time>2021-06-27T12:28:30.073Z</time>
      </trkpt>
      <trkpt lat="45.55617" lon="6.06313">
        <ele>1521</ele>
        <time>2021-06-27T12:28:31.073Z</time>
      </trkpt>
      <trkpt lat="45.55616" lon="6.06311">
        <ele>1521</ele>
        <time>2021-06-27T12:28:32.074Z</time>
      </trkpt>
      <trkpt lat="45.55614" lon="6.0631">
        <ele>1521</ele>
        <time>2021-06-27T12:28:33.074Z</time>
      </trkpt>
      <trkpt lat="45.55613" lon="6.06309">
        <ele>1521</ele>
        <time>2021-06-27T12:28:34.074Z</time>
      </trkpt>
      <trkpt lat="45.55613" lon="6.06308">
        <ele>1521</ele>
        <time>2021-06-27T12:28:35.074Z</time>
      </trkpt>
      <trkpt lat="45.55612" lon="6.06308">
        <ele>1521</ele>
        <time>2021-06-27T12:28:36.074Z</time>
      </trkpt>
      <trkpt lat="45.55611" lon="6.06307">
        <ele>1521</ele>
        <time>2021-06-27T12:28:37.073Z</time>
      </trkpt>
      <trkpt lat="45.5561" lon="6.06307">
        <ele>1521</ele>
        <time>2021-06-27T12:28:38.074Z</time>
      </trkpt>
      <trkpt lat="45.55609" lon="6.06306">
        <ele>1521</ele>
        <time>2021-06-27T12:28:39.074Z</time>
      </trkpt>
      <trkpt lat="45.55608" lon="6.06305">
        <ele>1522</ele>
        <time>2021-06-27T12:28:40.074Z</time>
      </trkpt>
      <trkpt lat="45.55608" lon="6.06304">
        <ele>1522</ele>
        <time>2021-06-27T12:28:41.074Z</time>
      </trkpt>
      <trkpt lat="45.55607" lon="6.06303">
        <ele>1522</ele>
        <time>2021-06-27T12:28:42.073Z</time>
      </trkpt>
      <trkpt lat="45.55606" lon="6.06303">
        <ele>1522</ele>
        <time>2021-06-27T12:28:43.073Z</time>
      </trkpt>
      <trkpt lat="45.55605" lon="6.06302">
        <ele>1522</ele>
        <time>2021-06-27T12:28:44.074Z</time>
      </trkpt>
      <trkpt lat="45.55604" lon="6.06301">
        <ele>1522</ele>
        <time>2021-06-27T12:28:45.074Z</time>
      </trkpt>
      <trkpt lat="45.55602" lon="6.06301">
        <ele>1523</ele>
        <time>2021-06-27T12:28:46.074Z</time>
      </trkpt>
      <trkpt lat="45.55601" lon="6.063">
        <ele>1523</ele>
        <time>2021-06-27T12:28:47.074Z</time>
      </trkpt>
      <trkpt lat="45.556" lon="6.06299">
        <ele>1523</ele>
        <time>2021-06-27T12:28:48.073Z</time>
      </trkpt>
      <trkpt lat="45.55599" lon="6.06299">
        <ele>1523</ele>
        <time>2021-06-27T12:28:49.074Z</time>
      </trkpt>
      <trkpt lat="45.55597" lon="6.06298">
        <ele>1523</ele>
        <time>2021-06-27T12:28:50.074Z</time>
      </trkpt>
      <trkpt lat="45.55597" lon="6.06297">
        <ele>1522</ele>
        <time>2021-06-27T12:28:51.073Z</time>
      </trkpt>
      <trkpt lat="45.55596" lon="6.06295">
        <ele>1521</ele>
        <time>2021-06-27T12:28:52.073Z</time>
      </trkpt>
      <trkpt lat="45.55595" lon="6.06294">
        <ele>1521</ele>
        <time>2021-06-27T12:28:53.073Z</time>
      </trkpt>
      <trkpt lat="45.55594" lon="6.06293">
        <ele>1521</ele>
        <time>2021-06-27T12:28:54.074Z</time>
      </trkpt>
      <trkpt lat="45.55593" lon="6.06292">
        <ele>1521</ele>
        <time>2021-06-27T12:28:55.074Z</time>
      </trkpt>
      <trkpt lat="45.55592" lon="6.06291">
        <ele>1521</ele>
        <time>2021-06-27T12:28:56.073Z</time>
      </trkpt>
      <trkpt lat="45.55591" lon="6.06289">
        <ele>1521</ele>
        <time>2021-06-27T12:28:57.074Z</time>
      </trkpt>
      <trkpt lat="45.5559" lon="6.06288">
        <ele>1521</ele>
        <time>2021-06-27T12:28:58.073Z</time>
      </trkpt>
      <trkpt lat="45.55589" lon="6.06288">
        <ele>1521</ele>
        <time>2021-06-27T12:28:59.073Z</time>
      </trkpt>
      <trkpt lat="45.55589" lon="6.06288">
        <ele>1520</ele>
        <time>2021-06-27T12:29:00.074Z</time>
      </trkpt>
      <trkpt lat="45.55588" lon="6.06287">
        <ele>1520</ele>
        <time>2021-06-27T12:29:01.074Z</time>
      </trkpt>
      <trkpt lat="45.55587" lon="6.06286">
        <ele>1520</ele>
        <time>2021-06-27T12:29:02.073Z</time>
      </trkpt>
      <trkpt lat="45.55585" lon="6.06285">
        <ele>1520</ele>
        <time>2021-06-27T12:29:03.074Z</time>
      </trkpt>
      <trkpt lat="45.55584" lon="6.06284">
        <ele>1519</ele>
        <time>2021-06-27T12:29:04.073Z</time>
      </trkpt>
      <trkpt lat="45.55583" lon="6.06284">
        <ele>1518</ele>
        <time>2021-06-27T12:29:05.073Z</time>
      </trkpt>
      <trkpt lat="45.55582" lon="6.06283">
        <ele>1518</ele>
        <time>2021-06-27T12:29:06.074Z</time>
      </trkpt>
      <trkpt lat="45.55581" lon="6.06283">
        <ele>1518</ele>
        <time>2021-06-27T12:29:07.074Z</time>
      </trkpt>
      <trkpt lat="45.5558" lon="6.06283">
        <ele>1517</ele>
        <time>2021-06-27T12:29:08.074Z</time>
      </trkpt>
      <trkpt lat="45.55579" lon="6.06282">
        <ele>1517</ele>
        <time>2021-06-27T12:29:09.073Z</time>
      </trkpt>
      <trkpt lat="45.55578" lon="6.06282">
        <ele>1516</ele>
        <time>2021-06-27T12:29:10.073Z</time>
      </trkpt>
      <trkpt lat="45.55576" lon="6.06282">
        <ele>1516</ele>
        <time>2021-06-27T12:29:11.074Z</time>
      </trkpt>
      <trkpt lat="45.55575" lon="6.06283">
        <ele>1516</ele>
        <time>2021-06-27T12:29:12.074Z</time>
      </trkpt>
      <trkpt lat="45.55573" lon="6.06284">
        <ele>1516</ele>
        <time>2021-06-27T12:29:13.074Z</time>
      </trkpt>
      <trkpt lat="45.55572" lon="6.06284">
        <ele>1517</ele>
        <time>2021-06-27T12:29:14.074Z</time>
      </trkpt>
      <trkpt lat="45.55571" lon="6.06283">
        <ele>1517</ele>
        <time>2021-06-27T12:29:15.074Z</time>
      </trkpt>
      <trkpt lat="45.5557" lon="6.06283">
        <ele>1518</ele>
        <time>2021-06-27T12:29:16.074Z</time>
      </trkpt>
      <trkpt lat="45.55569" lon="6.06282">
        <ele>1518</ele>
        <time>2021-06-27T12:29:17.074Z</time>
      </trkpt>
      <trkpt lat="45.55567" lon="6.06282">
        <ele>1519</ele>
        <time>2021-06-27T12:29:18.074Z</time>
      </trkpt>
      <trkpt lat="45.55566" lon="6.06282">
        <ele>1519</ele>
        <time>2021-06-27T12:29:19.074Z</time>
      </trkpt>
      <trkpt lat="45.55565" lon="6.06282">
        <ele>1520</ele>
        <time>2021-06-27T12:29:20.074Z</time>
      </trkpt>
      <trkpt lat="45.55564" lon="6.06281">
        <ele>1520</ele>
        <time>2021-06-27T12:29:21.074Z</time>
      </trkpt>
      <trkpt lat="45.55563" lon="6.06281">
        <ele>1520</ele>
        <time>2021-06-27T12:29:22.074Z</time>
      </trkpt>
      <trkpt lat="45.55561" lon="6.0628">
        <ele>1520</ele>
        <time>2021-06-27T12:29:23.073Z</time>
      </trkpt>
      <trkpt lat="45.5556" lon="6.06279">
        <ele>1520</ele>
        <time>2021-06-27T12:29:24.074Z</time>
      </trkpt>
      <trkpt lat="45.55559" lon="6.06279">
        <ele>1520</ele>
        <time>2021-06-27T12:29:25.074Z</time>
      </trkpt>
      <trkpt lat="45.55558" lon="6.06278">
        <ele>1520</ele>
        <time>2021-06-27T12:29:26.074Z</time>
      </trkpt>
      <trkpt lat="45.55556" lon="6.06278">
        <ele>1520</ele>
        <time>2021-06-27T12:29:27.073Z</time>
      </trkpt>
      <trkpt lat="45.55555" lon="6.06278">
        <ele>1520</ele>
        <time>2021-06-27T12:29:28.074Z</time>
      </trkpt>
      <trkpt lat="45.55554" lon="6.06278">
        <ele>1520</ele>
        <time>2021-06-27T12:29:29.074Z</time>
      </trkpt>
      <trkpt lat="45.55553" lon="6.06278">
        <ele>1520</ele>
        <time>2021-06-27T12:29:30.074Z</time>
      </trkpt>
      <trkpt lat="45.55551" lon="6.06278">
        <ele>1519</ele>
        <time>2021-06-27T12:29:31.074Z</time>
      </trkpt>
      <trkpt lat="45.5555" lon="6.06278">
        <ele>1519</ele>
        <time>2021-06-27T12:29:32.073Z</time>
      </trkpt>
      <trkpt lat="45.55549" lon="6.06277">
        <ele>1519</ele>
        <time>2021-06-27T12:29:33.074Z</time>
      </trkpt>
      <trkpt lat="45.55548" lon="6.06277">
        <ele>1519</ele>
        <time>2021-06-27T12:29:34.073Z</time>
      </trkpt>
      <trkpt lat="45.55547" lon="6.06277">
        <ele>1519</ele>
        <time>2021-06-27T12:29:35.074Z</time>
      </trkpt>
      <trkpt lat="45.55545" lon="6.06277">
        <ele>1519</ele>
        <time>2021-06-27T12:29:36.074Z</time>
      </trkpt>
      <trkpt lat="45.55545" lon="6.06276">
        <ele>1519</ele>
        <time>2021-06-27T12:29:37.074Z</time>
      </trkpt>
      <trkpt lat="45.55544" lon="6.06276">
        <ele>1519</ele>
        <time>2021-06-27T12:29:38.074Z</time>
      </trkpt>
      <trkpt lat="45.55543" lon="6.06275">
        <ele>1519</ele>
        <time>2021-06-27T12:29:39.074Z</time>
      </trkpt>
      <trkpt lat="45.55542" lon="6.06275">
        <ele>1519</ele>
        <time>2021-06-27T12:29:40.074Z</time>
      </trkpt>
      <trkpt lat="45.55541" lon="6.06274">
        <ele>1519</ele>
        <time>2021-06-27T12:29:41.074Z</time>
      </trkpt>
      <trkpt lat="45.5554" lon="6.06273">
        <ele>1519</ele>
        <time>2021-06-27T12:29:42.073Z</time>
      </trkpt>
      <trkpt lat="45.55539" lon="6.06273">
        <ele>1519</ele>
        <time>2021-06-27T12:29:43.073Z</time>
      </trkpt>
      <trkpt lat="45.55539" lon="6.06272">
        <ele>1519</ele>
        <time>2021-06-27T12:29:44.074Z</time>
      </trkpt>
      <trkpt lat="45.55538" lon="6.06272">
        <ele>1519</ele>
        <time>2021-06-27T12:29:45.074Z</time>
      </trkpt>
      <trkpt lat="45.55537" lon="6.06272">
        <ele>1519</ele>
        <time>2021-06-27T12:29:46.074Z</time>
      </trkpt>
      <trkpt lat="45.55536" lon="6.06271">
        <ele>1519</ele>
        <time>2021-06-27T12:29:47.074Z</time>
      </trkpt>
      <trkpt lat="45.55535" lon="6.0627">
        <ele>1519</ele>
        <time>2021-06-27T12:29:48.074Z</time>
      </trkpt>
      <trkpt lat="45.55534" lon="6.0627">
        <ele>1519</ele>
        <time>2021-06-27T12:29:49.073Z</time>
      </trkpt>
      <trkpt lat="45.55533" lon="6.0627">
        <ele>1519</ele>
        <time>2021-06-27T12:29:50.073Z</time>
      </trkpt>
      <trkpt lat="45.55532" lon="6.0627">
        <ele>1519</ele>
        <time>2021-06-27T12:29:51.074Z</time>
      </trkpt>
      <trkpt lat="45.55531" lon="6.06269">
        <ele>1519</ele>
        <time>2021-06-27T12:29:52.073Z</time>
      </trkpt>
      <trkpt lat="45.55529" lon="6.06269">
        <ele>1519</ele>
        <time>2021-06-27T12:29:53.074Z</time>
      </trkpt>
      <trkpt lat="45.55528" lon="6.06268">
        <ele>1519</ele>
        <time>2021-06-27T12:29:54.073Z</time>
      </trkpt>
      <trkpt lat="45.55527" lon="6.06267">
        <ele>1519</ele>
        <time>2021-06-27T12:29:55.074Z</time>
      </trkpt>
      <trkpt lat="45.55526" lon="6.06266">
        <ele>1519</ele>
        <time>2021-06-27T12:29:56.073Z</time>
      </trkpt>
      <trkpt lat="45.55525" lon="6.06265">
        <ele>1519</ele>
        <time>2021-06-27T12:29:57.074Z</time>
      </trkpt>
      <trkpt lat="45.55524" lon="6.06265">
        <ele>1520</ele>
        <time>2021-06-27T12:29:58.074Z</time>
      </trkpt>
      <trkpt lat="45.55523" lon="6.06264">
        <ele>1520</ele>
        <time>2021-06-27T12:29:59.073Z</time>
      </trkpt>
      <trkpt lat="45.55522" lon="6.06264">
        <ele>1519</ele>
        <time>2021-06-27T12:30:00.073Z</time>
      </trkpt>
      <trkpt lat="45.55521" lon="6.06263">
        <ele>1519</ele>
        <time>2021-06-27T12:30:01.074Z</time>
      </trkpt>
      <trkpt lat="45.5552" lon="6.06262">
        <ele>1519</ele>
        <time>2021-06-27T12:30:02.074Z</time>
      </trkpt>
      <trkpt lat="45.55518" lon="6.06262">
        <ele>1519</ele>
        <time>2021-06-27T12:30:03.074Z</time>
      </trkpt>
      <trkpt lat="45.55517" lon="6.06261">
        <ele>1519</ele>
        <time>2021-06-27T12:30:04.074Z</time>
      </trkpt>
      <trkpt lat="45.55516" lon="6.0626">
        <ele>1519</ele>
        <time>2021-06-27T12:30:05.073Z</time>
      </trkpt>
      <trkpt lat="45.55516" lon="6.0626">
        <ele>1519</ele>
        <time>2021-06-27T12:30:06.073Z</time>
      </trkpt>
      <trkpt lat="45.55514" lon="6.0626">
        <ele>1519</ele>
        <time>2021-06-27T12:30:07.074Z</time>
      </trkpt>
      <trkpt lat="45.55514" lon="6.0626">
        <ele>1519</ele>
        <time>2021-06-27T12:30:08.074Z</time>
      </trkpt>
      <trkpt lat="45.55513" lon="6.0626">
        <ele>1518</ele>
        <time>2021-06-27T12:30:09.074Z</time>
      </trkpt>
      <trkpt lat="45.55512" lon="6.0626">
        <ele>1518</ele>
        <time>2021-06-27T12:30:10.073Z</time>
      </trkpt>
      <trkpt lat="45.55511" lon="6.06259">
        <ele>1518</ele>
        <time>2021-06-27T12:30:11.074Z</time>
      </trkpt>
      <trkpt lat="45.5551" lon="6.06259">
        <ele>1517</ele>
        <time>2021-06-27T12:30:12.073Z</time>
      </trkpt>
      <trkpt lat="45.55509" lon="6.06258">
        <ele>1517</ele>
        <time>2021-06-27T12:30:13.074Z</time>
      </trkpt>
      <trkpt lat="45.55508" lon="6.06258">
        <ele>1517</ele>
        <time>2021-06-27T12:30:14.074Z</time>
      </trkpt>
      <trkpt lat="45.55507" lon="6.06258">
        <ele>1518</ele>
        <time>2021-06-27T12:30:15.074Z</time>
      </trkpt>
      <trkpt lat="45.55506" lon="6.06257">
        <ele>1518</ele>
        <time>2021-06-27T12:30:16.074Z</time>
      </trkpt>
      <trkpt lat="45.55505" lon="6.06257">
        <ele>1518</ele>
        <time>2021-06-27T12:30:17.074Z</time>
      </trkpt>
      <trkpt lat="45.55504" lon="6.06257">
        <ele>1518</ele>
        <time>2021-06-27T12:30:18.074Z</time>
      </trkpt>
      <trkpt lat="45.55503" lon="6.06257">
        <ele>1517</ele>
        <time>2021-06-27T12:30:19.073Z</time>
      </trkpt>
      <trkpt lat="45.55502" lon="6.06257">
        <ele>1517</ele>
        <time>2021-06-27T12:30:20.073Z</time>
      </trkpt>
      <trkpt lat="45.55501" lon="6.06257">
        <ele>1517</ele>
        <time>2021-06-27T12:30:21.074Z</time>
      </trkpt>
      <trkpt lat="45.555" lon="6.06257">
        <ele>1517</ele>
        <time>2021-06-27T12:30:22.074Z</time>
      </trkpt>
      <trkpt lat="45.55499" lon="6.06256">
        <ele>1517</ele>
        <time>2021-06-27T12:30:23.073Z</time>
      </trkpt>
      <trkpt lat="45.55498" lon="6.06255">
        <ele>1517</ele>
        <time>2021-06-27T12:30:24.074Z</time>
      </trkpt>
      <trkpt lat="45.55497" lon="6.06255">
        <ele>1517</ele>
        <time>2021-06-27T12:30:25.074Z</time>
      </trkpt>
      <trkpt lat="45.55496" lon="6.06255">
        <ele>1516</ele>
        <time>2021-06-27T12:30:26.074Z</time>
      </trkpt>
      <trkpt lat="45.55494" lon="6.06255">
        <ele>1516</ele>
        <time>2021-06-27T12:30:27.073Z</time>
      </trkpt>
      <trkpt lat="45.55494" lon="6.06254">
        <ele>1516</ele>
        <time>2021-06-27T12:30:28.073Z</time>
      </trkpt>
      <trkpt lat="45.55493" lon="6.06253">
        <ele>1516</ele>
        <time>2021-06-27T12:30:29.073Z</time>
      </trkpt>
      <trkpt lat="45.55493" lon="6.06253">
        <ele>1516</ele>
        <time>2021-06-27T12:30:30.074Z</time>
      </trkpt>
      <trkpt lat="45.55492" lon="6.06252">
        <ele>1516</ele>
        <time>2021-06-27T12:30:31.074Z</time>
      </trkpt>
      <trkpt lat="45.55492" lon="6.06251">
        <ele>1515</ele>
        <time>2021-06-27T12:30:32.074Z</time>
      </trkpt>
      <trkpt lat="45.55492" lon="6.0625">
        <ele>1515</ele>
        <time>2021-06-27T12:30:33.074Z</time>
      </trkpt>
      <trkpt lat="45.55491" lon="6.06249">
        <ele>1515</ele>
        <time>2021-06-27T12:30:34.073Z</time>
      </trkpt>
      <trkpt lat="45.55491" lon="6.06248">
        <ele>1515</ele>
        <time>2021-06-27T12:30:35.073Z</time>
      </trkpt>
      <trkpt lat="45.5549" lon="6.06247">
        <ele>1515</ele>
        <time>2021-06-27T12:30:36.073Z</time>
      </trkpt>
      <trkpt lat="45.5549" lon="6.06247">
        <ele>1515</ele>
        <time>2021-06-27T12:30:37.073Z</time>
      </trkpt>
      <trkpt lat="45.5549" lon="6.06247">
        <ele>1515</ele>
        <time>2021-06-27T12:30:38.073Z</time>
      </trkpt>
      <trkpt lat="45.55491" lon="6.06246">
        <ele>1514</ele>
        <time>2021-06-27T12:30:39.074Z</time>
      </trkpt>
      <trkpt lat="45.55491" lon="6.06246">
        <ele>1514</ele>
        <time>2021-06-27T12:30:40.074Z</time>
      </trkpt>
      <trkpt lat="45.5549" lon="6.06247">
        <ele>1515</ele>
        <time>2021-06-27T12:30:41.073Z</time>
      </trkpt>
      <trkpt lat="45.5549" lon="6.06247">
        <ele>1516</ele>
        <time>2021-06-27T12:30:42.073Z</time>
      </trkpt>
      <trkpt lat="45.5549" lon="6.06246">
        <ele>1516</ele>
        <time>2021-06-27T12:30:43.073Z</time>
      </trkpt>
      <trkpt lat="45.55488" lon="6.06246">
        <ele>1516</ele>
        <time>2021-06-27T12:30:44.074Z</time>
      </trkpt>
      <trkpt lat="45.55487" lon="6.06246">
        <ele>1517</ele>
        <time>2021-06-27T12:30:45.074Z</time>
      </trkpt>
      <trkpt lat="45.55486" lon="6.06245">
        <ele>1517</ele>
        <time>2021-06-27T12:30:46.073Z</time>
      </trkpt>
      <trkpt lat="45.55486" lon="6.06244">
        <ele>1517</ele>
        <time>2021-06-27T12:30:47.074Z</time>
      </trkpt>
      <trkpt lat="45.55485" lon="6.06244">
        <ele>1517</ele>
        <time>2021-06-27T12:30:48.073Z</time>
      </trkpt>
      <trkpt lat="45.55485" lon="6.06244">
        <ele>1517</ele>
        <time>2021-06-27T12:30:49.073Z</time>
      </trkpt>
      <trkpt lat="45.55483" lon="6.06244">
        <ele>1517</ele>
        <time>2021-06-27T12:30:50.073Z</time>
      </trkpt>
      <trkpt lat="45.55483" lon="6.06243">
        <ele>1517</ele>
        <time>2021-06-27T12:30:51.074Z</time>
      </trkpt>
      <trkpt lat="45.55482" lon="6.06243">
        <ele>1517</ele>
        <time>2021-06-27T12:30:52.073Z</time>
      </trkpt>
      <trkpt lat="45.55482" lon="6.06241">
        <ele>1517</ele>
        <time>2021-06-27T12:30:53.074Z</time>
      </trkpt>
      <trkpt lat="45.55481" lon="6.06241">
        <ele>1517</ele>
        <time>2021-06-27T12:30:54.074Z</time>
      </trkpt>
      <trkpt lat="45.5548" lon="6.0624">
        <ele>1517</ele>
        <time>2021-06-27T12:30:55.073Z</time>
      </trkpt>
      <trkpt lat="45.55479" lon="6.0624">
        <ele>1517</ele>
        <time>2021-06-27T12:30:56.074Z</time>
      </trkpt>
      <trkpt lat="45.55478" lon="6.06239">
        <ele>1517</ele>
        <time>2021-06-27T12:30:57.074Z</time>
      </trkpt>
      <trkpt lat="45.55478" lon="6.06239">
        <ele>1517</ele>
        <time>2021-06-27T12:30:58.074Z</time>
      </trkpt>
      <trkpt lat="45.55477" lon="6.06239">
        <ele>1517</ele>
        <time>2021-06-27T12:30:59.074Z</time>
      </trkpt>
      <trkpt lat="45.55476" lon="6.06238">
        <ele>1517</ele>
        <time>2021-06-27T12:31:00.074Z</time>
      </trkpt>
      <trkpt lat="45.55476" lon="6.06238">
        <ele>1517</ele>
        <time>2021-06-27T12:31:01.074Z</time>
      </trkpt>
      <trkpt lat="45.55476" lon="6.06237">
        <ele>1518</ele>
        <time>2021-06-27T12:31:02.074Z</time>
      </trkpt>
      <trkpt lat="45.55476" lon="6.06235">
        <ele>1518</ele>
        <time>2021-06-27T12:31:03.073Z</time>
      </trkpt>
      <trkpt lat="45.55475" lon="6.06234">
        <ele>1519</ele>
        <time>2021-06-27T12:31:04.073Z</time>
      </trkpt>
      <trkpt lat="45.55476" lon="6.06234">
        <ele>1519</ele>
        <time>2021-06-27T12:31:05.074Z</time>
      </trkpt>
      <trkpt lat="45.55476" lon="6.06233">
        <ele>1520</ele>
        <time>2021-06-27T12:31:06.074Z</time>
      </trkpt>
      <trkpt lat="45.55476" lon="6.06233">
        <ele>1520</ele>
        <time>2021-06-27T12:31:07.074Z</time>
      </trkpt>
      <trkpt lat="45.55476" lon="6.06232">
        <ele>1521</ele>
        <time>2021-06-27T12:31:08.074Z</time>
      </trkpt>
      <trkpt lat="45.55476" lon="6.06232">
        <ele>1521</ele>
        <time>2021-06-27T12:31:09.074Z</time>
      </trkpt>
      <trkpt lat="45.55476" lon="6.06232">
        <ele>1521</ele>
        <time>2021-06-27T12:31:10.074Z</time>
      </trkpt>
      <trkpt lat="45.55476" lon="6.06231">
        <ele>1521</ele>
        <time>2021-06-27T12:31:11.074Z</time>
      </trkpt>
      <trkpt lat="45.55476" lon="6.06231">
        <ele>1522</ele>
        <time>2021-06-27T12:31:12.074Z</time>
      </trkpt>
      <trkpt lat="45.55476" lon="6.06231">
        <ele>1522</ele>
        <time>2021-06-27T12:31:13.073Z</time>
      </trkpt>
      <trkpt lat="45.55476" lon="6.06231">
        <ele>1522</ele>
        <time>2021-06-27T12:31:14.073Z</time>
      </trkpt>
      <trkpt lat="45.55477" lon="6.06231">
        <ele>1522</ele>
        <time>2021-06-27T12:31:15.074Z</time>
      </trkpt>
      <trkpt lat="45.55477" lon="6.06231">
        <ele>1523</ele>
        <time>2021-06-27T12:31:16.074Z</time>
      </trkpt>
      <trkpt lat="45.55477" lon="6.0623">
        <ele>1523</ele>
        <time>2021-06-27T12:31:17.074Z</time>
      </trkpt>
      <trkpt lat="45.55477" lon="6.0623">
        <ele>1524</ele>
        <time>2021-06-27T12:31:18.074Z</time>
      </trkpt>
      <trkpt lat="45.55477" lon="6.06229">
        <ele>1524</ele>
        <time>2021-06-27T12:31:19.074Z</time>
      </trkpt>
      <trkpt lat="45.55477" lon="6.06228">
        <ele>1525</ele>
        <time>2021-06-27T12:31:20.073Z</time>
      </trkpt>
      <trkpt lat="45.55477" lon="6.06228">
        <ele>1525</ele>
        <time>2021-06-27T12:31:21.074Z</time>
      </trkpt>
      <trkpt lat="45.55477" lon="6.06227">
        <ele>1525</ele>
        <time>2021-06-27T12:31:22.074Z</time>
      </trkpt>
      <trkpt lat="45.55476" lon="6.06226">
        <ele>1526</ele>
        <time>2021-06-27T12:31:23.073Z</time>
      </trkpt>
      <trkpt lat="45.55476" lon="6.06226">
        <ele>1526</ele>
        <time>2021-06-27T12:31:24.074Z</time>
      </trkpt>
      <trkpt lat="45.55476" lon="6.06226">
        <ele>1526</ele>
        <time>2021-06-27T12:31:25.073Z</time>
      </trkpt>
      <trkpt lat="45.55476" lon="6.06225">
        <ele>1526</ele>
        <time>2021-06-27T12:31:26.074Z</time>
      </trkpt>
      <trkpt lat="45.55476" lon="6.06225">
        <ele>1527</ele>
        <time>2021-06-27T12:31:27.074Z</time>
      </trkpt>
      <trkpt lat="45.55475" lon="6.06224">
        <ele>1527</ele>
        <time>2021-06-27T12:31:28.074Z</time>
      </trkpt>
      <trkpt lat="45.55474" lon="6.06223">
        <ele>1528</ele>
        <time>2021-06-27T12:31:29.073Z</time>
      </trkpt>
      <trkpt lat="45.55473" lon="6.06222">
        <ele>1528</ele>
        <time>2021-06-27T12:31:30.073Z</time>
      </trkpt>
      <trkpt lat="45.55474" lon="6.06221">
        <ele>1528</ele>
        <time>2021-06-27T12:31:31.073Z</time>
      </trkpt>
      <trkpt lat="45.55474" lon="6.06221">
        <ele>1528</ele>
        <time>2021-06-27T12:31:32.073Z</time>
      </trkpt>
      <trkpt lat="45.55474" lon="6.0622">
        <ele>1527</ele>
        <time>2021-06-27T12:31:33.074Z</time>
      </trkpt>
      <trkpt lat="45.55473" lon="6.06219">
        <ele>1527</ele>
        <time>2021-06-27T12:31:34.073Z</time>
      </trkpt>
      <trkpt lat="45.55473" lon="6.06218">
        <ele>1527</ele>
        <time>2021-06-27T12:31:35.074Z</time>
      </trkpt>
      <trkpt lat="45.55473" lon="6.06218">
        <ele>1527</ele>
        <time>2021-06-27T12:31:36.074Z</time>
      </trkpt>
      <trkpt lat="45.55474" lon="6.06217">
        <ele>1527</ele>
        <time>2021-06-27T12:31:37.073Z</time>
      </trkpt>
      <trkpt lat="45.55474" lon="6.06216">
        <ele>1527</ele>
        <time>2021-06-27T12:31:38.073Z</time>
      </trkpt>
      <trkpt lat="45.55474" lon="6.06215">
        <ele>1527</ele>
        <time>2021-06-27T12:31:39.073Z</time>
      </trkpt>
      <trkpt lat="45.55475" lon="6.06214">
        <ele>1527</ele>
        <time>2021-06-27T12:31:40.074Z</time>
      </trkpt>
      <trkpt lat="45.55475" lon="6.06213">
        <ele>1527</ele>
        <time>2021-06-27T12:31:41.074Z</time>
      </trkpt>
      <trkpt lat="45.55476" lon="6.06213">
        <ele>1527</ele>
        <time>2021-06-27T12:31:42.074Z</time>
      </trkpt>
      <trkpt lat="45.55476" lon="6.06212">
        <ele>1527</ele>
        <time>2021-06-27T12:31:43.074Z</time>
      </trkpt>
      <trkpt lat="45.55477" lon="6.06212">
        <ele>1527</ele>
        <time>2021-06-27T12:31:44.074Z</time>
      </trkpt>
      <trkpt lat="45.55477" lon="6.06211">
        <ele>1527</ele>
        <time>2021-06-27T12:31:45.074Z</time>
      </trkpt>
      <trkpt lat="45.55478" lon="6.0621">
        <ele>1528</ele>
        <time>2021-06-27T12:31:46.074Z</time>
      </trkpt>
      <trkpt lat="45.55479" lon="6.06209">
        <ele>1529</ele>
        <time>2021-06-27T12:31:47.074Z</time>
      </trkpt>
      <trkpt lat="45.55479" lon="6.06209">
        <ele>1530</ele>
        <time>2021-06-27T12:31:48.074Z</time>
      </trkpt>
      <trkpt lat="45.55478" lon="6.06208">
        <ele>1532</ele>
        <time>2021-06-27T12:31:49.074Z</time>
      </trkpt>
      <trkpt lat="45.55477" lon="6.06206">
        <ele>1533</ele>
        <time>2021-06-27T12:31:50.074Z</time>
      </trkpt>
      <trkpt lat="45.55476" lon="6.06206">
        <ele>1534</ele>
        <time>2021-06-27T12:31:51.074Z</time>
      </trkpt>
      <trkpt lat="45.55476" lon="6.06204">
        <ele>1534</ele>
        <time>2021-06-27T12:31:52.074Z</time>
      </trkpt>
      <trkpt lat="45.55475" lon="6.06204">
        <ele>1535</ele>
        <time>2021-06-27T12:31:53.074Z</time>
      </trkpt>
      <trkpt lat="45.55474" lon="6.06204">
        <ele>1535</ele>
        <time>2021-06-27T12:31:54.074Z</time>
      </trkpt>
      <trkpt lat="45.55474" lon="6.06203">
        <ele>1535</ele>
        <time>2021-06-27T12:31:55.074Z</time>
      </trkpt>
      <trkpt lat="45.55473" lon="6.06202">
        <ele>1535</ele>
        <time>2021-06-27T12:31:56.073Z</time>
      </trkpt>
      <trkpt lat="45.55473" lon="6.06201">
        <ele>1534</ele>
        <time>2021-06-27T12:31:57.074Z</time>
      </trkpt>
      <trkpt lat="45.55474" lon="6.062">
        <ele>1533</ele>
        <time>2021-06-27T12:31:58.074Z</time>
      </trkpt>
      <trkpt lat="45.55473" lon="6.06199">
        <ele>1532</ele>
        <time>2021-06-27T12:31:59.074Z</time>
      </trkpt>
      <trkpt lat="45.55473" lon="6.06198">
        <ele>1531</ele>
        <time>2021-06-27T12:32:00.074Z</time>
      </trkpt>
      <trkpt lat="45.55473" lon="6.06197">
        <ele>1530</ele>
        <time>2021-06-27T12:32:01.074Z</time>
      </trkpt>
      <trkpt lat="45.55472" lon="6.06196">
        <ele>1530</ele>
        <time>2021-06-27T12:32:02.074Z</time>
      </trkpt>
      <trkpt lat="45.55472" lon="6.06195">
        <ele>1530</ele>
        <time>2021-06-27T12:32:03.074Z</time>
      </trkpt>
      <trkpt lat="45.55472" lon="6.06193">
        <ele>1530</ele>
        <time>2021-06-27T12:32:04.073Z</time>
      </trkpt>
      <trkpt lat="45.55473" lon="6.06192">
        <ele>1530</ele>
        <time>2021-06-27T12:32:05.074Z</time>
      </trkpt>
      <trkpt lat="45.55473" lon="6.06191">
        <ele>1530</ele>
        <time>2021-06-27T12:32:06.074Z</time>
      </trkpt>
      <trkpt lat="45.55473" lon="6.0619">
        <ele>1531</ele>
        <time>2021-06-27T12:32:07.073Z</time>
      </trkpt>
      <trkpt lat="45.55473" lon="6.06188">
        <ele>1531</ele>
        <time>2021-06-27T12:32:08.074Z</time>
      </trkpt>
      <trkpt lat="45.55473" lon="6.06187">
        <ele>1531</ele>
        <time>2021-06-27T12:32:09.074Z</time>
      </trkpt>
      <trkpt lat="45.55473" lon="6.06185">
        <ele>1531</ele>
        <time>2021-06-27T12:32:10.074Z</time>
      </trkpt>
      <trkpt lat="45.55473" lon="6.06184">
        <ele>1531</ele>
        <time>2021-06-27T12:32:11.074Z</time>
      </trkpt>
      <trkpt lat="45.55472" lon="6.06183">
        <ele>1531</ele>
        <time>2021-06-27T12:32:12.074Z</time>
      </trkpt>
      <trkpt lat="45.55472" lon="6.06182">
        <ele>1531</ele>
        <time>2021-06-27T12:32:13.074Z</time>
      </trkpt>
      <trkpt lat="45.55471" lon="6.06181">
        <ele>1532</ele>
        <time>2021-06-27T12:32:14.074Z</time>
      </trkpt>
      <trkpt lat="45.55471" lon="6.0618">
        <ele>1532</ele>
        <time>2021-06-27T12:32:15.074Z</time>
      </trkpt>
      <trkpt lat="45.55471" lon="6.06179">
        <ele>1532</ele>
        <time>2021-06-27T12:32:16.074Z</time>
      </trkpt>
      <trkpt lat="45.5547" lon="6.06177">
        <ele>1532</ele>
        <time>2021-06-27T12:32:17.073Z</time>
      </trkpt>
      <trkpt lat="45.55469" lon="6.06176">
        <ele>1532</ele>
        <time>2021-06-27T12:32:18.073Z</time>
      </trkpt>
      <trkpt lat="45.55469" lon="6.06175">
        <ele>1532</ele>
        <time>2021-06-27T12:32:19.074Z</time>
      </trkpt>
      <trkpt lat="45.55468" lon="6.06174">
        <ele>1532</ele>
        <time>2021-06-27T12:32:20.073Z</time>
      </trkpt>
      <trkpt lat="45.55467" lon="6.06172">
        <ele>1533</ele>
        <time>2021-06-27T12:32:21.073Z</time>
      </trkpt>
      <trkpt lat="45.55467" lon="6.06171">
        <ele>1533</ele>
        <time>2021-06-27T12:32:22.074Z</time>
      </trkpt>
      <trkpt lat="45.55466" lon="6.06171">
        <ele>1532</ele>
        <time>2021-06-27T12:32:23.073Z</time>
      </trkpt>
      <trkpt lat="45.55466" lon="6.0617">
        <ele>1532</ele>
        <time>2021-06-27T12:32:24.073Z</time>
      </trkpt>
      <trkpt lat="45.55465" lon="6.0617">
        <ele>1532</ele>
        <time>2021-06-27T12:32:25.073Z</time>
      </trkpt>
      <trkpt lat="45.55464" lon="6.06169">
        <ele>1532</ele>
        <time>2021-06-27T12:32:26.073Z</time>
      </trkpt>
      <trkpt lat="45.55463" lon="6.06168">
        <ele>1533</ele>
        <time>2021-06-27T12:32:27.074Z</time>
      </trkpt>
      <trkpt lat="45.55463" lon="6.06168">
        <ele>1533</ele>
        <time>2021-06-27T12:32:28.073Z</time>
      </trkpt>
      <trkpt lat="45.55462" lon="6.06167">
        <ele>1533</ele>
        <time>2021-06-27T12:32:29.074Z</time>
      </trkpt>
      <trkpt lat="45.55461" lon="6.06166">
        <ele>1533</ele>
        <time>2021-06-27T12:32:30.074Z</time>
      </trkpt>
      <trkpt lat="45.5546" lon="6.06166">
        <ele>1533</ele>
        <time>2021-06-27T12:32:31.073Z</time>
      </trkpt>
      <trkpt lat="45.55459" lon="6.06166">
        <ele>1533</ele>
        <time>2021-06-27T12:32:32.074Z</time>
      </trkpt>
      <trkpt lat="45.55458" lon="6.06166">
        <ele>1533</ele>
        <time>2021-06-27T12:32:33.073Z</time>
      </trkpt>
      <trkpt lat="45.55458" lon="6.06166">
        <ele>1533</ele>
        <time>2021-06-27T12:32:34.074Z</time>
      </trkpt>
      <trkpt lat="45.55457" lon="6.06166">
        <ele>1532</ele>
        <time>2021-06-27T12:32:35.073Z</time>
      </trkpt>
      <trkpt lat="45.55456" lon="6.06166">
        <ele>1532</ele>
        <time>2021-06-27T12:32:36.073Z</time>
      </trkpt>
      <trkpt lat="45.55455" lon="6.06166">
        <ele>1531</ele>
        <time>2021-06-27T12:32:37.073Z</time>
      </trkpt>
      <trkpt lat="45.55454" lon="6.06166">
        <ele>1531</ele>
        <time>2021-06-27T12:32:38.074Z</time>
      </trkpt>
      <trkpt lat="45.55453" lon="6.06166">
        <ele>1531</ele>
        <time>2021-06-27T12:32:39.073Z</time>
      </trkpt>
      <trkpt lat="45.55452" lon="6.06167">
        <ele>1531</ele>
        <time>2021-06-27T12:32:40.074Z</time>
      </trkpt>
      <trkpt lat="45.55451" lon="6.06167">
        <ele>1531</ele>
        <time>2021-06-27T12:32:41.074Z</time>
      </trkpt>
      <trkpt lat="45.5545" lon="6.06167">
        <ele>1531</ele>
        <time>2021-06-27T12:32:42.074Z</time>
      </trkpt>
      <trkpt lat="45.55448" lon="6.06167">
        <ele>1531</ele>
        <time>2021-06-27T12:32:43.074Z</time>
      </trkpt>
      <trkpt lat="45.55446" lon="6.06168">
        <ele>1532</ele>
        <time>2021-06-27T12:32:44.074Z</time>
      </trkpt>
      <trkpt lat="45.55445" lon="6.06167">
        <ele>1532</ele>
        <time>2021-06-27T12:32:45.073Z</time>
      </trkpt>
      <trkpt lat="45.55444" lon="6.06167">
        <ele>1532</ele>
        <time>2021-06-27T12:32:46.074Z</time>
      </trkpt>
      <trkpt lat="45.55443" lon="6.06166">
        <ele>1532</ele>
        <time>2021-06-27T12:32:47.073Z</time>
      </trkpt>
      <trkpt lat="45.55443" lon="6.06165">
        <ele>1532</ele>
        <time>2021-06-27T12:32:48.073Z</time>
      </trkpt>
      <trkpt lat="45.55443" lon="6.06164">
        <ele>1533</ele>
        <time>2021-06-27T12:32:49.074Z</time>
      </trkpt>
      <trkpt lat="45.55442" lon="6.06162">
        <ele>1533</ele>
        <time>2021-06-27T12:32:50.074Z</time>
      </trkpt>
      <trkpt lat="45.55441" lon="6.06161">
        <ele>1533</ele>
        <time>2021-06-27T12:32:51.074Z</time>
      </trkpt>
      <trkpt lat="45.55441" lon="6.06159">
        <ele>1533</ele>
        <time>2021-06-27T12:32:52.074Z</time>
      </trkpt>
      <trkpt lat="45.5544" lon="6.06158">
        <ele>1533</ele>
        <time>2021-06-27T12:32:53.074Z</time>
      </trkpt>
      <trkpt lat="45.55439" lon="6.06157">
        <ele>1533</ele>
        <time>2021-06-27T12:32:54.074Z</time>
      </trkpt>
      <trkpt lat="45.55438" lon="6.06157">
        <ele>1534</ele>
        <time>2021-06-27T12:32:55.073Z</time>
      </trkpt>
      <trkpt lat="45.55438" lon="6.06156">
        <ele>1534</ele>
        <time>2021-06-27T12:32:56.074Z</time>
      </trkpt>
      <trkpt lat="45.55438" lon="6.06156">
        <ele>1534</ele>
        <time>2021-06-27T12:32:57.074Z</time>
      </trkpt>
      <trkpt lat="45.55437" lon="6.06155">
        <ele>1534</ele>
        <time>2021-06-27T12:32:58.074Z</time>
      </trkpt>
      <trkpt lat="45.55437" lon="6.06155">
        <ele>1534</ele>
        <time>2021-06-27T12:32:59.074Z</time>
      </trkpt>
      <trkpt lat="45.55436" lon="6.06154">
        <ele>1535</ele>
        <time>2021-06-27T12:33:00.074Z</time>
      </trkpt>
      <trkpt lat="45.55436" lon="6.06154">
        <ele>1535</ele>
        <time>2021-06-27T12:33:01.073Z</time>
      </trkpt>
      <trkpt lat="45.55435" lon="6.06154">
        <ele>1535</ele>
        <time>2021-06-27T12:33:02.074Z</time>
      </trkpt>
      <trkpt lat="45.55434" lon="6.06154">
        <ele>1536</ele>
        <time>2021-06-27T12:33:03.073Z</time>
      </trkpt>
      <trkpt lat="45.55434" lon="6.06154">
        <ele>1536</ele>
        <time>2021-06-27T12:33:04.074Z</time>
      </trkpt>
      <trkpt lat="45.55434" lon="6.06154">
        <ele>1536</ele>
        <time>2021-06-27T12:33:05.074Z</time>
      </trkpt>
      <trkpt lat="45.55433" lon="6.06153">
        <ele>1537</ele>
        <time>2021-06-27T12:33:06.074Z</time>
      </trkpt>
      <trkpt lat="45.55432" lon="6.06153">
        <ele>1537</ele>
        <time>2021-06-27T12:33:07.074Z</time>
      </trkpt>
      <trkpt lat="45.55432" lon="6.06153">
        <ele>1537</ele>
        <time>2021-06-27T12:33:08.074Z</time>
      </trkpt>
      <trkpt lat="45.55431" lon="6.06153">
        <ele>1537</ele>
        <time>2021-06-27T12:33:09.074Z</time>
      </trkpt>
      <trkpt lat="45.5543" lon="6.06152">
        <ele>1537</ele>
        <time>2021-06-27T12:33:10.074Z</time>
      </trkpt>
      <trkpt lat="45.55429" lon="6.06152">
        <ele>1537</ele>
        <time>2021-06-27T12:33:11.073Z</time>
      </trkpt>
      <trkpt lat="45.55428" lon="6.06151">
        <ele>1537</ele>
        <time>2021-06-27T12:33:12.074Z</time>
      </trkpt>
      <trkpt lat="45.55427" lon="6.06151">
        <ele>1537</ele>
        <time>2021-06-27T12:33:13.074Z</time>
      </trkpt>
      <trkpt lat="45.55426" lon="6.0615">
        <ele>1537</ele>
        <time>2021-06-27T12:33:14.073Z</time>
      </trkpt>
      <trkpt lat="45.55425" lon="6.0615">
        <ele>1537</ele>
        <time>2021-06-27T12:33:15.074Z</time>
      </trkpt>
      <trkpt lat="45.55425" lon="6.06149">
        <ele>1537</ele>
        <time>2021-06-27T12:33:16.073Z</time>
      </trkpt>
      <trkpt lat="45.55424" lon="6.06148">
        <ele>1537</ele>
        <time>2021-06-27T12:33:17.074Z</time>
      </trkpt>
      <trkpt lat="45.55423" lon="6.06147">
        <ele>1537</ele>
        <time>2021-06-27T12:33:18.074Z</time>
      </trkpt>
      <trkpt lat="45.55423" lon="6.06146">
        <ele>1537</ele>
        <time>2021-06-27T12:33:19.074Z</time>
      </trkpt>
      <trkpt lat="45.55423" lon="6.06145">
        <ele>1538</ele>
        <time>2021-06-27T12:33:20.074Z</time>
      </trkpt>
      <trkpt lat="45.55422" lon="6.06144">
        <ele>1538</ele>
        <time>2021-06-27T12:33:21.074Z</time>
      </trkpt>
      <trkpt lat="45.55422" lon="6.06143">
        <ele>1538</ele>
        <time>2021-06-27T12:33:22.074Z</time>
      </trkpt>
      <trkpt lat="45.55421" lon="6.06142">
        <ele>1538</ele>
        <time>2021-06-27T12:33:23.074Z</time>
      </trkpt>
      <trkpt lat="45.55421" lon="6.0614">
        <ele>1538</ele>
        <time>2021-06-27T12:33:24.074Z</time>
      </trkpt>
      <trkpt lat="45.55421" lon="6.06139">
        <ele>1538</ele>
        <time>2021-06-27T12:33:25.073Z</time>
      </trkpt>
      <trkpt lat="45.55421" lon="6.06139">
        <ele>1538</ele>
        <time>2021-06-27T12:33:26.073Z</time>
      </trkpt>
      <trkpt lat="45.55421" lon="6.06138">
        <ele>1538</ele>
        <time>2021-06-27T12:33:27.073Z</time>
      </trkpt>
      <trkpt lat="45.55421" lon="6.06136">
        <ele>1538</ele>
        <time>2021-06-27T12:33:28.073Z</time>
      </trkpt>
      <trkpt lat="45.55421" lon="6.06135">
        <ele>1539</ele>
        <time>2021-06-27T12:33:29.074Z</time>
      </trkpt>
      <trkpt lat="45.55421" lon="6.06134">
        <ele>1539</ele>
        <time>2021-06-27T12:33:30.074Z</time>
      </trkpt>
      <trkpt lat="45.55421" lon="6.06133">
        <ele>1540</ele>
        <time>2021-06-27T12:33:31.074Z</time>
      </trkpt>
      <trkpt lat="45.55421" lon="6.06132">
        <ele>1540</ele>
        <time>2021-06-27T12:33:32.074Z</time>
      </trkpt>
      <trkpt lat="45.55421" lon="6.06131">
        <ele>1540</ele>
        <time>2021-06-27T12:33:33.074Z</time>
      </trkpt>
      <trkpt lat="45.55421" lon="6.0613">
        <ele>1540</ele>
        <time>2021-06-27T12:33:34.074Z</time>
      </trkpt>
      <trkpt lat="45.55421" lon="6.06129">
        <ele>1541</ele>
        <time>2021-06-27T12:33:35.074Z</time>
      </trkpt>
      <trkpt lat="45.55421" lon="6.06128">
        <ele>1541</ele>
        <time>2021-06-27T12:33:36.074Z</time>
      </trkpt>
      <trkpt lat="45.55421" lon="6.06127">
        <ele>1541</ele>
        <time>2021-06-27T12:33:37.073Z</time>
      </trkpt>
      <trkpt lat="45.5542" lon="6.06126">
        <ele>1542</ele>
        <time>2021-06-27T12:33:38.074Z</time>
      </trkpt>
      <trkpt lat="45.5542" lon="6.06125">
        <ele>1543</ele>
        <time>2021-06-27T12:33:39.073Z</time>
      </trkpt>
      <trkpt lat="45.5542" lon="6.06123">
        <ele>1543</ele>
        <time>2021-06-27T12:33:40.073Z</time>
      </trkpt>
      <trkpt lat="45.55419" lon="6.06122">
        <ele>1544</ele>
        <time>2021-06-27T12:33:41.074Z</time>
      </trkpt>
      <trkpt lat="45.55419" lon="6.0612">
        <ele>1545</ele>
        <time>2021-06-27T12:33:42.074Z</time>
      </trkpt>
      <trkpt lat="45.55418" lon="6.06119">
        <ele>1545</ele>
        <time>2021-06-27T12:33:43.074Z</time>
      </trkpt>
      <trkpt lat="45.55417" lon="6.06118">
        <ele>1545</ele>
        <time>2021-06-27T12:33:44.074Z</time>
      </trkpt>
      <trkpt lat="45.55417" lon="6.06117">
        <ele>1545</ele>
        <time>2021-06-27T12:33:45.073Z</time>
      </trkpt>
      <trkpt lat="45.55416" lon="6.06116">
        <ele>1545</ele>
        <time>2021-06-27T12:33:46.074Z</time>
      </trkpt>
      <trkpt lat="45.55415" lon="6.06115">
        <ele>1545</ele>
        <time>2021-06-27T12:33:47.073Z</time>
      </trkpt>
      <trkpt lat="45.55415" lon="6.06113">
        <ele>1545</ele>
        <time>2021-06-27T12:33:48.073Z</time>
      </trkpt>
      <trkpt lat="45.55415" lon="6.06112">
        <ele>1545</ele>
        <time>2021-06-27T12:33:49.074Z</time>
      </trkpt>
      <trkpt lat="45.55414" lon="6.06111">
        <ele>1546</ele>
        <time>2021-06-27T12:33:50.074Z</time>
      </trkpt>
      <trkpt lat="45.55414" lon="6.0611">
        <ele>1546</ele>
        <time>2021-06-27T12:33:51.074Z</time>
      </trkpt>
      <trkpt lat="45.55414" lon="6.0611">
        <ele>1546</ele>
        <time>2021-06-27T12:33:52.074Z</time>
      </trkpt>
      <trkpt lat="45.55413" lon="6.06109">
        <ele>1546</ele>
        <time>2021-06-27T12:33:53.074Z</time>
      </trkpt>
      <trkpt lat="45.55412" lon="6.06108">
        <ele>1547</ele>
        <time>2021-06-27T12:33:54.074Z</time>
      </trkpt>
      <trkpt lat="45.55412" lon="6.06108">
        <ele>1546</ele>
        <time>2021-06-27T12:33:55.074Z</time>
      </trkpt>
      <trkpt lat="45.55412" lon="6.06108">
        <ele>1547</ele>
        <time>2021-06-27T12:33:56.073Z</time>
      </trkpt>
      <trkpt lat="45.55411" lon="6.06108">
        <ele>1547</ele>
        <time>2021-06-27T12:33:57.073Z</time>
      </trkpt>
      <trkpt lat="45.55411" lon="6.06107">
        <ele>1547</ele>
        <time>2021-06-27T12:33:58.073Z</time>
      </trkpt>
      <trkpt lat="45.5541" lon="6.06106">
        <ele>1547</ele>
        <time>2021-06-27T12:33:59.074Z</time>
      </trkpt>
      <trkpt lat="45.5541" lon="6.06105">
        <ele>1547</ele>
        <time>2021-06-27T12:34:00.074Z</time>
      </trkpt>
      <trkpt lat="45.55409" lon="6.06104">
        <ele>1547</ele>
        <time>2021-06-27T12:34:01.074Z</time>
      </trkpt>
      <trkpt lat="45.55409" lon="6.06102">
        <ele>1547</ele>
        <time>2021-06-27T12:34:02.074Z</time>
      </trkpt>
      <trkpt lat="45.5541" lon="6.061">
        <ele>1548</ele>
        <time>2021-06-27T12:34:03.073Z</time>
      </trkpt>
      <trkpt lat="45.55411" lon="6.06099">
        <ele>1548</ele>
        <time>2021-06-27T12:34:04.074Z</time>
      </trkpt>
      <trkpt lat="45.55411" lon="6.06097">
        <ele>1548</ele>
        <time>2021-06-27T12:34:05.073Z</time>
      </trkpt>
      <trkpt lat="45.55411" lon="6.06096">
        <ele>1548</ele>
        <time>2021-06-27T12:34:06.073Z</time>
      </trkpt>
      <trkpt lat="45.55411" lon="6.06094">
        <ele>1549</ele>
        <time>2021-06-27T12:34:07.074Z</time>
      </trkpt>
      <trkpt lat="45.55411" lon="6.06093">
        <ele>1549</ele>
        <time>2021-06-27T12:34:08.073Z</time>
      </trkpt>
      <trkpt lat="45.55411" lon="6.06092">
        <ele>1550</ele>
        <time>2021-06-27T12:34:09.074Z</time>
      </trkpt>
      <trkpt lat="45.5541" lon="6.06091">
        <ele>1550</ele>
        <time>2021-06-27T12:34:10.073Z</time>
      </trkpt>
      <trkpt lat="45.55409" lon="6.06091">
        <ele>1550</ele>
        <time>2021-06-27T12:34:11.074Z</time>
      </trkpt>
      <trkpt lat="45.55409" lon="6.06091">
        <ele>1550</ele>
        <time>2021-06-27T12:34:12.074Z</time>
      </trkpt>
      <trkpt lat="45.55408" lon="6.06091">
        <ele>1549</ele>
        <time>2021-06-27T12:34:13.074Z</time>
      </trkpt>
      <trkpt lat="45.55408" lon="6.06091">
        <ele>1549</ele>
        <time>2021-06-27T12:34:14.074Z</time>
      </trkpt>
      <trkpt lat="45.55407" lon="6.06091">
        <ele>1548</ele>
        <time>2021-06-27T12:34:15.073Z</time>
      </trkpt>
      <trkpt lat="45.55406" lon="6.06091">
        <ele>1548</ele>
        <time>2021-06-27T12:34:16.074Z</time>
      </trkpt>
      <trkpt lat="45.55406" lon="6.0609">
        <ele>1548</ele>
        <time>2021-06-27T12:34:17.074Z</time>
      </trkpt>
      <trkpt lat="45.55406" lon="6.0609">
        <ele>1547</ele>
        <time>2021-06-27T12:34:18.074Z</time>
      </trkpt>
      <trkpt lat="45.55405" lon="6.06089">
        <ele>1547</ele>
        <time>2021-06-27T12:34:19.074Z</time>
      </trkpt>
      <trkpt lat="45.55404" lon="6.06088">
        <ele>1547</ele>
        <time>2021-06-27T12:34:20.074Z</time>
      </trkpt>
      <trkpt lat="45.55403" lon="6.06088">
        <ele>1546</ele>
        <time>2021-06-27T12:34:21.074Z</time>
      </trkpt>
      <trkpt lat="45.55402" lon="6.06087">
        <ele>1546</ele>
        <time>2021-06-27T12:34:22.074Z</time>
      </trkpt>
      <trkpt lat="45.55401" lon="6.06087">
        <ele>1545</ele>
        <time>2021-06-27T12:34:23.074Z</time>
      </trkpt>
      <trkpt lat="45.55399" lon="6.06086">
        <ele>1545</ele>
        <time>2021-06-27T12:34:24.074Z</time>
      </trkpt>
      <trkpt lat="45.55398" lon="6.06086">
        <ele>1545</ele>
        <time>2021-06-27T12:34:25.074Z</time>
      </trkpt>
      <trkpt lat="45.55397" lon="6.06085">
        <ele>1545</ele>
        <time>2021-06-27T12:34:26.074Z</time>
      </trkpt>
      <trkpt lat="45.55396" lon="6.06084">
        <ele>1545</ele>
        <time>2021-06-27T12:34:27.074Z</time>
      </trkpt>
      <trkpt lat="45.55395" lon="6.06084">
        <ele>1545</ele>
        <time>2021-06-27T12:34:28.074Z</time>
      </trkpt>
      <trkpt lat="45.55395" lon="6.06084">
        <ele>1546</ele>
        <time>2021-06-27T12:34:29.074Z</time>
      </trkpt>
      <trkpt lat="45.55395" lon="6.06084">
        <ele>1546</ele>
        <time>2021-06-27T12:34:30.074Z</time>
      </trkpt>
      <trkpt lat="45.55395" lon="6.06085">
        <ele>1546</ele>
        <time>2021-06-27T12:34:31.074Z</time>
      </trkpt>
      <trkpt lat="45.55395" lon="6.06086">
        <ele>1546</ele>
        <time>2021-06-27T12:34:32.074Z</time>
      </trkpt>
      <trkpt lat="45.55394" lon="6.06086">
        <ele>1547</ele>
        <time>2021-06-27T12:34:33.074Z</time>
      </trkpt>
      <trkpt lat="45.55393" lon="6.06086">
        <ele>1548</ele>
        <time>2021-06-27T12:34:34.074Z</time>
      </trkpt>
      <trkpt lat="45.55393" lon="6.06086">
        <ele>1548</ele>
        <time>2021-06-27T12:34:35.073Z</time>
      </trkpt>
      <trkpt lat="45.55393" lon="6.06086">
        <ele>1549</ele>
        <time>2021-06-27T12:34:36.074Z</time>
      </trkpt>
      <trkpt lat="45.55392" lon="6.06086">
        <ele>1549</ele>
        <time>2021-06-27T12:34:37.073Z</time>
      </trkpt>
      <trkpt lat="45.55393" lon="6.06086">
        <ele>1549</ele>
        <time>2021-06-27T12:34:38.074Z</time>
      </trkpt>
      <trkpt lat="45.55393" lon="6.06086">
        <ele>1549</ele>
        <time>2021-06-27T12:34:39.074Z</time>
      </trkpt>
      <trkpt lat="45.55392" lon="6.06085">
        <ele>1550</ele>
        <time>2021-06-27T12:34:40.074Z</time>
      </trkpt>
      <trkpt lat="45.55391" lon="6.06085">
        <ele>1551</ele>
        <time>2021-06-27T12:34:41.073Z</time>
      </trkpt>
      <trkpt lat="45.5539" lon="6.06085">
        <ele>1552</ele>
        <time>2021-06-27T12:34:42.074Z</time>
      </trkpt>
      <trkpt lat="45.55389" lon="6.06084">
        <ele>1552</ele>
        <time>2021-06-27T12:34:43.074Z</time>
      </trkpt>
      <trkpt lat="45.55388" lon="6.06085">
        <ele>1552</ele>
        <time>2021-06-27T12:34:44.074Z</time>
      </trkpt>
      <trkpt lat="45.55388" lon="6.06085">
        <ele>1552</ele>
        <time>2021-06-27T12:34:45.073Z</time>
      </trkpt>
      <trkpt lat="45.55387" lon="6.06086">
        <ele>1553</ele>
        <time>2021-06-27T12:34:46.073Z</time>
      </trkpt>
      <trkpt lat="45.55387" lon="6.06086">
        <ele>1553</ele>
        <time>2021-06-27T12:34:47.073Z</time>
      </trkpt>
      <trkpt lat="45.55386" lon="6.06087">
        <ele>1554</ele>
        <time>2021-06-27T12:34:48.074Z</time>
      </trkpt>
      <trkpt lat="45.55385" lon="6.06087">
        <ele>1554</ele>
        <time>2021-06-27T12:34:49.074Z</time>
      </trkpt>
      <trkpt lat="45.55384" lon="6.06087">
        <ele>1555</ele>
        <time>2021-06-27T12:34:50.074Z</time>
      </trkpt>
      <trkpt lat="45.55383" lon="6.06088">
        <ele>1555</ele>
        <time>2021-06-27T12:34:51.074Z</time>
      </trkpt>
      <trkpt lat="45.55383" lon="6.06087">
        <ele>1556</ele>
        <time>2021-06-27T12:34:52.073Z</time>
      </trkpt>
      <trkpt lat="45.55382" lon="6.06087">
        <ele>1556</ele>
        <time>2021-06-27T12:34:53.074Z</time>
      </trkpt>
      <trkpt lat="45.55381" lon="6.06087">
        <ele>1556</ele>
        <time>2021-06-27T12:34:54.073Z</time>
      </trkpt>
      <trkpt lat="45.55381" lon="6.06086">
        <ele>1556</ele>
        <time>2021-06-27T12:34:55.074Z</time>
      </trkpt>
      <trkpt lat="45.5538" lon="6.06086">
        <ele>1557</ele>
        <time>2021-06-27T12:34:56.074Z</time>
      </trkpt>
      <trkpt lat="45.5538" lon="6.06085">
        <ele>1557</ele>
        <time>2021-06-27T12:34:57.073Z</time>
      </trkpt>
      <trkpt lat="45.55379" lon="6.06084">
        <ele>1557</ele>
        <time>2021-06-27T12:34:58.074Z</time>
      </trkpt>
      <trkpt lat="45.55378" lon="6.06083">
        <ele>1557</ele>
        <time>2021-06-27T12:34:59.074Z</time>
      </trkpt>
      <trkpt lat="45.55377" lon="6.06082">
        <ele>1557</ele>
        <time>2021-06-27T12:35:00.074Z</time>
      </trkpt>
      <trkpt lat="45.55377" lon="6.06082">
        <ele>1557</ele>
        <time>2021-06-27T12:35:01.074Z</time>
      </trkpt>
      <trkpt lat="45.55376" lon="6.06082">
        <ele>1558</ele>
        <time>2021-06-27T12:35:02.074Z</time>
      </trkpt>
      <trkpt lat="45.55375" lon="6.06081">
        <ele>1558</ele>
        <time>2021-06-27T12:35:03.074Z</time>
      </trkpt>
      <trkpt lat="45.55374" lon="6.06081">
        <ele>1558</ele>
        <time>2021-06-27T12:35:04.073Z</time>
      </trkpt>
      <trkpt lat="45.55374" lon="6.06081">
        <ele>1558</ele>
        <time>2021-06-27T12:35:05.073Z</time>
      </trkpt>
      <trkpt lat="45.55373" lon="6.0608">
        <ele>1558</ele>
        <time>2021-06-27T12:35:06.074Z</time>
      </trkpt>
      <trkpt lat="45.55373" lon="6.0608">
        <ele>1557</ele>
        <time>2021-06-27T12:35:07.073Z</time>
      </trkpt>
      <trkpt lat="45.55373" lon="6.06079">
        <ele>1557</ele>
        <time>2021-06-27T12:35:08.074Z</time>
      </trkpt>
      <trkpt lat="45.55372" lon="6.06079">
        <ele>1556</ele>
        <time>2021-06-27T12:35:09.074Z</time>
      </trkpt>
      <trkpt lat="45.55372" lon="6.06079">
        <ele>1556</ele>
        <time>2021-06-27T12:35:10.074Z</time>
      </trkpt>
      <trkpt lat="45.55372" lon="6.06079">
        <ele>1556</ele>
        <time>2021-06-27T12:35:11.074Z</time>
      </trkpt>
      <trkpt lat="45.55371" lon="6.06079">
        <ele>1556</ele>
        <time>2021-06-27T12:35:12.074Z</time>
      </trkpt>
      <trkpt lat="45.5537" lon="6.06079">
        <ele>1556</ele>
        <time>2021-06-27T12:35:13.073Z</time>
      </trkpt>
      <trkpt lat="45.5537" lon="6.06078">
        <ele>1556</ele>
        <time>2021-06-27T12:35:14.073Z</time>
      </trkpt>
      <trkpt lat="45.55369" lon="6.06078">
        <ele>1556</ele>
        <time>2021-06-27T12:35:15.073Z</time>
      </trkpt>
      <trkpt lat="45.55368" lon="6.06078">
        <ele>1557</ele>
        <time>2021-06-27T12:35:16.074Z</time>
      </trkpt>
      <trkpt lat="45.55367" lon="6.06078">
        <ele>1558</ele>
        <time>2021-06-27T12:35:17.074Z</time>
      </trkpt>
      <trkpt lat="45.55367" lon="6.06077">
        <ele>1558</ele>
        <time>2021-06-27T12:35:18.074Z</time>
      </trkpt>
      <trkpt lat="45.55366" lon="6.06077">
        <ele>1559</ele>
        <time>2021-06-27T12:35:19.074Z</time>
      </trkpt>
      <trkpt lat="45.55366" lon="6.06077">
        <ele>1559</ele>
        <time>2021-06-27T12:35:20.074Z</time>
      </trkpt>
      <trkpt lat="45.55365" lon="6.06077">
        <ele>1560</ele>
        <time>2021-06-27T12:35:21.074Z</time>
      </trkpt>
      <trkpt lat="45.55364" lon="6.06077">
        <ele>1560</ele>
        <time>2021-06-27T12:35:22.073Z</time>
      </trkpt>
      <trkpt lat="45.55364" lon="6.06076">
        <ele>1561</ele>
        <time>2021-06-27T12:35:23.074Z</time>
      </trkpt>
      <trkpt lat="45.55363" lon="6.06076">
        <ele>1561</ele>
        <time>2021-06-27T12:35:24.074Z</time>
      </trkpt>
      <trkpt lat="45.55363" lon="6.06076">
        <ele>1561</ele>
        <time>2021-06-27T12:35:25.074Z</time>
      </trkpt>
      <trkpt lat="45.55362" lon="6.06075">
        <ele>1561</ele>
        <time>2021-06-27T12:35:26.074Z</time>
      </trkpt>
      <trkpt lat="45.55361" lon="6.06075">
        <ele>1561</ele>
        <time>2021-06-27T12:35:27.074Z</time>
      </trkpt>
      <trkpt lat="45.55361" lon="6.06075">
        <ele>1561</ele>
        <time>2021-06-27T12:35:28.073Z</time>
      </trkpt>
      <trkpt lat="45.5536" lon="6.06075">
        <ele>1561</ele>
        <time>2021-06-27T12:35:29.074Z</time>
      </trkpt>
      <trkpt lat="45.55359" lon="6.06075">
        <ele>1561</ele>
        <time>2021-06-27T12:35:30.074Z</time>
      </trkpt>
      <trkpt lat="45.55358" lon="6.06076">
        <ele>1561</ele>
        <time>2021-06-27T12:35:31.074Z</time>
      </trkpt>
      <trkpt lat="45.55358" lon="6.06076">
        <ele>1561</ele>
        <time>2021-06-27T12:35:32.074Z</time>
      </trkpt>
      <trkpt lat="45.55357" lon="6.06075">
        <ele>1562</ele>
        <time>2021-06-27T12:35:33.074Z</time>
      </trkpt>
      <trkpt lat="45.55356" lon="6.06075">
        <ele>1561</ele>
        <time>2021-06-27T12:35:34.074Z</time>
      </trkpt>
      <trkpt lat="45.55355" lon="6.06075">
        <ele>1561</ele>
        <time>2021-06-27T12:35:35.073Z</time>
      </trkpt>
      <trkpt lat="45.55354" lon="6.06074">
        <ele>1561</ele>
        <time>2021-06-27T12:35:36.074Z</time>
      </trkpt>
      <trkpt lat="45.55353" lon="6.06073">
        <ele>1560</ele>
        <time>2021-06-27T12:35:37.073Z</time>
      </trkpt>
      <trkpt lat="45.55352" lon="6.06073">
        <ele>1560</ele>
        <time>2021-06-27T12:35:38.074Z</time>
      </trkpt>
      <trkpt lat="45.55351" lon="6.06072">
        <ele>1560</ele>
        <time>2021-06-27T12:35:39.073Z</time>
      </trkpt>
      <trkpt lat="45.5535" lon="6.06071">
        <ele>1559</ele>
        <time>2021-06-27T12:35:40.073Z</time>
      </trkpt>
      <trkpt lat="45.55349" lon="6.0607">
        <ele>1559</ele>
        <time>2021-06-27T12:35:41.074Z</time>
      </trkpt>
      <trkpt lat="45.55347" lon="6.0607">
        <ele>1559</ele>
        <time>2021-06-27T12:35:42.073Z</time>
      </trkpt>
      <trkpt lat="45.55346" lon="6.06069">
        <ele>1560</ele>
        <time>2021-06-27T12:35:43.073Z</time>
      </trkpt>
      <trkpt lat="45.55345" lon="6.06069">
        <ele>1560</ele>
        <time>2021-06-27T12:35:44.074Z</time>
      </trkpt>
      <trkpt lat="45.55343" lon="6.06068">
        <ele>1560</ele>
        <time>2021-06-27T12:35:45.074Z</time>
      </trkpt>
      <trkpt lat="45.55342" lon="6.06068">
        <ele>1560</ele>
        <time>2021-06-27T12:35:46.074Z</time>
      </trkpt>
      <trkpt lat="45.55341" lon="6.06067">
        <ele>1560</ele>
        <time>2021-06-27T12:35:47.074Z</time>
      </trkpt>
      <trkpt lat="45.5534" lon="6.06066">
        <ele>1560</ele>
        <time>2021-06-27T12:35:48.074Z</time>
      </trkpt>
      <trkpt lat="45.55339" lon="6.06066">
        <ele>1560</ele>
        <time>2021-06-27T12:35:49.073Z</time>
      </trkpt>
      <trkpt lat="45.55338" lon="6.06065">
        <ele>1559</ele>
        <time>2021-06-27T12:35:50.074Z</time>
      </trkpt>
      <trkpt lat="45.55337" lon="6.06065">
        <ele>1559</ele>
        <time>2021-06-27T12:35:51.074Z</time>
      </trkpt>
      <trkpt lat="45.55336" lon="6.06064">
        <ele>1560</ele>
        <time>2021-06-27T12:35:52.074Z</time>
      </trkpt>
      <trkpt lat="45.55335" lon="6.06063">
        <ele>1560</ele>
        <time>2021-06-27T12:35:53.074Z</time>
      </trkpt>
      <trkpt lat="45.55334" lon="6.06062">
        <ele>1560</ele>
        <time>2021-06-27T12:35:54.073Z</time>
      </trkpt>
      <trkpt lat="45.55333" lon="6.06062">
        <ele>1561</ele>
        <time>2021-06-27T12:35:55.074Z</time>
      </trkpt>
      <trkpt lat="45.55333" lon="6.06062">
        <ele>1561</ele>
        <time>2021-06-27T12:35:56.074Z</time>
      </trkpt>
      <trkpt lat="45.55331" lon="6.06061">
        <ele>1562</ele>
        <time>2021-06-27T12:35:57.074Z</time>
      </trkpt>
      <trkpt lat="45.55329" lon="6.06061">
        <ele>1562</ele>
        <time>2021-06-27T12:35:58.073Z</time>
      </trkpt>
      <trkpt lat="45.55328" lon="6.06059">
        <ele>1562</ele>
        <time>2021-06-27T12:35:59.073Z</time>
      </trkpt>
      <trkpt lat="45.55327" lon="6.06058">
        <ele>1562</ele>
        <time>2021-06-27T12:36:00.073Z</time>
      </trkpt>
      <trkpt lat="45.55325" lon="6.06057">
        <ele>1563</ele>
        <time>2021-06-27T12:36:01.074Z</time>
      </trkpt>
      <trkpt lat="45.55325" lon="6.06057">
        <ele>1563</ele>
        <time>2021-06-27T12:36:02.073Z</time>
      </trkpt>
      <trkpt lat="45.55323" lon="6.06056">
        <ele>1563</ele>
        <time>2021-06-27T12:36:03.074Z</time>
      </trkpt>
      <trkpt lat="45.55322" lon="6.06055">
        <ele>1563</ele>
        <time>2021-06-27T12:36:04.073Z</time>
      </trkpt>
      <trkpt lat="45.55322" lon="6.06053">
        <ele>1564</ele>
        <time>2021-06-27T12:36:05.074Z</time>
      </trkpt>
      <trkpt lat="45.55322" lon="6.06052">
        <ele>1564</ele>
        <time>2021-06-27T12:36:06.074Z</time>
      </trkpt>
      <trkpt lat="45.55322" lon="6.06052">
        <ele>1565</ele>
        <time>2021-06-27T12:36:07.073Z</time>
      </trkpt>
      <trkpt lat="45.55321" lon="6.06051">
        <ele>1565</ele>
        <time>2021-06-27T12:36:08.074Z</time>
      </trkpt>
      <trkpt lat="45.55321" lon="6.06049">
        <ele>1565</ele>
        <time>2021-06-27T12:36:09.074Z</time>
      </trkpt>
      <trkpt lat="45.5532" lon="6.06048">
        <ele>1566</ele>
        <time>2021-06-27T12:36:10.073Z</time>
      </trkpt>
      <trkpt lat="45.5532" lon="6.06046">
        <ele>1566</ele>
        <time>2021-06-27T12:36:11.074Z</time>
      </trkpt>
      <trkpt lat="45.5532" lon="6.06045">
        <ele>1566</ele>
        <time>2021-06-27T12:36:12.074Z</time>
      </trkpt>
      <trkpt lat="45.5532" lon="6.06043">
        <ele>1567</ele>
        <time>2021-06-27T12:36:13.074Z</time>
      </trkpt>
      <trkpt lat="45.5532" lon="6.06042">
        <ele>1567</ele>
        <time>2021-06-27T12:36:14.074Z</time>
      </trkpt>
      <trkpt lat="45.55319" lon="6.06041">
        <ele>1567</ele>
        <time>2021-06-27T12:36:15.074Z</time>
      </trkpt>
      <trkpt lat="45.55318" lon="6.06039">
        <ele>1567</ele>
        <time>2021-06-27T12:36:16.073Z</time>
      </trkpt>
      <trkpt lat="45.55317" lon="6.06037">
        <ele>1568</ele>
        <time>2021-06-27T12:36:17.074Z</time>
      </trkpt>
      <trkpt lat="45.55317" lon="6.06036">
        <ele>1568</ele>
        <time>2021-06-27T12:36:18.074Z</time>
      </trkpt>
      <trkpt lat="45.55317" lon="6.06035">
        <ele>1568</ele>
        <time>2021-06-27T12:36:19.073Z</time>
      </trkpt>
      <trkpt lat="45.55317" lon="6.06034">
        <ele>1568</ele>
        <time>2021-06-27T12:36:20.074Z</time>
      </trkpt>
      <trkpt lat="45.55316" lon="6.06032">
        <ele>1568</ele>
        <time>2021-06-27T12:36:21.074Z</time>
      </trkpt>
      <trkpt lat="45.55315" lon="6.06032">
        <ele>1569</ele>
        <time>2021-06-27T12:36:22.073Z</time>
      </trkpt>
      <trkpt lat="45.55315" lon="6.0603">
        <ele>1569</ele>
        <time>2021-06-27T12:36:23.073Z</time>
      </trkpt>
      <trkpt lat="45.55313" lon="6.0603">
        <ele>1569</ele>
        <time>2021-06-27T12:36:24.074Z</time>
      </trkpt>
      <trkpt lat="45.55313" lon="6.0603">
        <ele>1570</ele>
        <time>2021-06-27T12:36:25.073Z</time>
      </trkpt>
      <trkpt lat="45.55312" lon="6.06029">
        <ele>1570</ele>
        <time>2021-06-27T12:36:26.073Z</time>
      </trkpt>
      <trkpt lat="45.55311" lon="6.06028">
        <ele>1569</ele>
        <time>2021-06-27T12:36:27.074Z</time>
      </trkpt>
      <trkpt lat="45.55311" lon="6.06027">
        <ele>1569</ele>
        <time>2021-06-27T12:36:28.073Z</time>
      </trkpt>
      <trkpt lat="45.5531" lon="6.06026">
        <ele>1569</ele>
        <time>2021-06-27T12:36:29.074Z</time>
      </trkpt>
      <trkpt lat="45.5531" lon="6.06025">
        <ele>1570</ele>
        <time>2021-06-27T12:36:30.074Z</time>
      </trkpt>
      <trkpt lat="45.55309" lon="6.06025">
        <ele>1570</ele>
        <time>2021-06-27T12:36:31.073Z</time>
      </trkpt>
      <trkpt lat="45.55309" lon="6.06025">
        <ele>1570</ele>
        <time>2021-06-27T12:36:32.074Z</time>
      </trkpt>
      <trkpt lat="45.55309" lon="6.06024">
        <ele>1570</ele>
        <time>2021-06-27T12:36:33.074Z</time>
      </trkpt>
      <trkpt lat="45.55307" lon="6.06024">
        <ele>1570</ele>
        <time>2021-06-27T12:36:34.074Z</time>
      </trkpt>
      <trkpt lat="45.55306" lon="6.06024">
        <ele>1571</ele>
        <time>2021-06-27T12:36:35.074Z</time>
      </trkpt>
      <trkpt lat="45.55306" lon="6.06023">
        <ele>1571</ele>
        <time>2021-06-27T12:36:36.074Z</time>
      </trkpt>
      <trkpt lat="45.55306" lon="6.06022">
        <ele>1572</ele>
        <time>2021-06-27T12:36:37.073Z</time>
      </trkpt>
      <trkpt lat="45.55306" lon="6.06021">
        <ele>1572</ele>
        <time>2021-06-27T12:36:38.074Z</time>
      </trkpt>
      <trkpt lat="45.55306" lon="6.0602">
        <ele>1573</ele>
        <time>2021-06-27T12:36:39.073Z</time>
      </trkpt>
      <trkpt lat="45.55306" lon="6.0602">
        <ele>1574</ele>
        <time>2021-06-27T12:36:40.074Z</time>
      </trkpt>
      <trkpt lat="45.55306" lon="6.06019">
        <ele>1574</ele>
        <time>2021-06-27T12:36:41.073Z</time>
      </trkpt>
      <trkpt lat="45.55306" lon="6.06018">
        <ele>1574</ele>
        <time>2021-06-27T12:36:42.073Z</time>
      </trkpt>
      <trkpt lat="45.55305" lon="6.06017">
        <ele>1575</ele>
        <time>2021-06-27T12:36:43.074Z</time>
      </trkpt>
      <trkpt lat="45.55305" lon="6.06016">
        <ele>1575</ele>
        <time>2021-06-27T12:36:44.074Z</time>
      </trkpt>
      <trkpt lat="45.55305" lon="6.06014">
        <ele>1576</ele>
        <time>2021-06-27T12:36:45.074Z</time>
      </trkpt>
      <trkpt lat="45.55303" lon="6.06013">
        <ele>1576</ele>
        <time>2021-06-27T12:36:46.074Z</time>
      </trkpt>
      <trkpt lat="45.55302" lon="6.06014">
        <ele>1576</ele>
        <time>2021-06-27T12:36:47.074Z</time>
      </trkpt>
      <trkpt lat="45.553" lon="6.06013">
        <ele>1576</ele>
        <time>2021-06-27T12:36:48.073Z</time>
      </trkpt>
      <trkpt lat="45.553" lon="6.06014">
        <ele>1575</ele>
        <time>2021-06-27T12:36:49.073Z</time>
      </trkpt>
      <trkpt lat="45.55299" lon="6.06014">
        <ele>1575</ele>
        <time>2021-06-27T12:36:50.074Z</time>
      </trkpt>
      <trkpt lat="45.55298" lon="6.06014">
        <ele>1575</ele>
        <time>2021-06-27T12:36:51.074Z</time>
      </trkpt>
      <trkpt lat="45.55298" lon="6.06014">
        <ele>1574</ele>
        <time>2021-06-27T12:36:52.073Z</time>
      </trkpt>
      <trkpt lat="45.55297" lon="6.06014">
        <ele>1574</ele>
        <time>2021-06-27T12:36:53.073Z</time>
      </trkpt>
      <trkpt lat="45.55296" lon="6.06015">
        <ele>1574</ele>
        <time>2021-06-27T12:36:54.073Z</time>
      </trkpt>
      <trkpt lat="45.55295" lon="6.06015">
        <ele>1574</ele>
        <time>2021-06-27T12:36:55.074Z</time>
      </trkpt>
      <trkpt lat="45.55294" lon="6.06014">
        <ele>1574</ele>
        <time>2021-06-27T12:36:56.074Z</time>
      </trkpt>
      <trkpt lat="45.55292" lon="6.06014">
        <ele>1574</ele>
        <time>2021-06-27T12:36:57.074Z</time>
      </trkpt>
      <trkpt lat="45.5529" lon="6.06014">
        <ele>1574</ele>
        <time>2021-06-27T12:36:58.074Z</time>
      </trkpt>
      <trkpt lat="45.55289" lon="6.06014">
        <ele>1574</ele>
        <time>2021-06-27T12:36:59.073Z</time>
      </trkpt>
      <trkpt lat="45.55288" lon="6.06014">
        <ele>1574</ele>
        <time>2021-06-27T12:37:00.074Z</time>
      </trkpt>
      <trkpt lat="45.55286" lon="6.06014">
        <ele>1574</ele>
        <time>2021-06-27T12:37:01.073Z</time>
      </trkpt>
      <trkpt lat="45.55286" lon="6.06014">
        <ele>1574</ele>
        <time>2021-06-27T12:37:02.074Z</time>
      </trkpt>
      <trkpt lat="45.55285" lon="6.06014">
        <ele>1575</ele>
        <time>2021-06-27T12:37:03.074Z</time>
      </trkpt>
      <trkpt lat="45.55284" lon="6.06014">
        <ele>1575</ele>
        <time>2021-06-27T12:37:04.074Z</time>
      </trkpt>
      <trkpt lat="45.55283" lon="6.06014">
        <ele>1574</ele>
        <time>2021-06-27T12:37:05.074Z</time>
      </trkpt>
      <trkpt lat="45.55282" lon="6.06014">
        <ele>1574</ele>
        <time>2021-06-27T12:37:06.074Z</time>
      </trkpt>
      <trkpt lat="45.55281" lon="6.06013">
        <ele>1575</ele>
        <time>2021-06-27T12:37:07.073Z</time>
      </trkpt>
      <trkpt lat="45.55281" lon="6.06013">
        <ele>1575</ele>
        <time>2021-06-27T12:37:08.074Z</time>
      </trkpt>
      <trkpt lat="45.5528" lon="6.06013">
        <ele>1575</ele>
        <time>2021-06-27T12:37:09.073Z</time>
      </trkpt>
      <trkpt lat="45.55279" lon="6.06014">
        <ele>1575</ele>
        <time>2021-06-27T12:37:10.074Z</time>
      </trkpt>
      <trkpt lat="45.55279" lon="6.06014">
        <ele>1575</ele>
        <time>2021-06-27T12:37:11.073Z</time>
      </trkpt>
      <trkpt lat="45.55278" lon="6.06014">
        <ele>1575</ele>
        <time>2021-06-27T12:37:12.074Z</time>
      </trkpt>
      <trkpt lat="45.55278" lon="6.06013">
        <ele>1575</ele>
        <time>2021-06-27T12:37:13.073Z</time>
      </trkpt>
      <trkpt lat="45.55277" lon="6.06013">
        <ele>1576</ele>
        <time>2021-06-27T12:37:14.073Z</time>
      </trkpt>
      <trkpt lat="45.55277" lon="6.06012">
        <ele>1576</ele>
        <time>2021-06-27T12:37:15.074Z</time>
      </trkpt>
      <trkpt lat="45.55276" lon="6.06011">
        <ele>1577</ele>
        <time>2021-06-27T12:37:16.074Z</time>
      </trkpt>
      <trkpt lat="45.55275" lon="6.0601">
        <ele>1577</ele>
        <time>2021-06-27T12:37:17.074Z</time>
      </trkpt>
      <trkpt lat="45.55274" lon="6.06009">
        <ele>1577</ele>
        <time>2021-06-27T12:37:18.074Z</time>
      </trkpt>
      <trkpt lat="45.55273" lon="6.06008">
        <ele>1578</ele>
        <time>2021-06-27T12:37:19.074Z</time>
      </trkpt>
      <trkpt lat="45.55273" lon="6.06007">
        <ele>1578</ele>
        <time>2021-06-27T12:37:20.073Z</time>
      </trkpt>
      <trkpt lat="45.55272" lon="6.06007">
        <ele>1578</ele>
        <time>2021-06-27T12:37:21.074Z</time>
      </trkpt>
      <trkpt lat="45.55272" lon="6.06006">
        <ele>1579</ele>
        <time>2021-06-27T12:37:22.074Z</time>
      </trkpt>
      <trkpt lat="45.55272" lon="6.06006">
        <ele>1578</ele>
        <time>2021-06-27T12:37:23.073Z</time>
      </trkpt>
      <trkpt lat="45.55271" lon="6.06005">
        <ele>1578</ele>
        <time>2021-06-27T12:37:24.074Z</time>
      </trkpt>
      <trkpt lat="45.55271" lon="6.06005">
        <ele>1578</ele>
        <time>2021-06-27T12:37:25.074Z</time>
      </trkpt>
      <trkpt lat="45.55269" lon="6.06004">
        <ele>1578</ele>
        <time>2021-06-27T12:37:26.073Z</time>
      </trkpt>
      <trkpt lat="45.55269" lon="6.06003">
        <ele>1578</ele>
        <time>2021-06-27T12:37:27.074Z</time>
      </trkpt>
      <trkpt lat="45.55269" lon="6.06003">
        <ele>1578</ele>
        <time>2021-06-27T12:37:28.074Z</time>
      </trkpt>
      <trkpt lat="45.55269" lon="6.06002">
        <ele>1579</ele>
        <time>2021-06-27T12:37:29.073Z</time>
      </trkpt>
      <trkpt lat="45.55268" lon="6.06001">
        <ele>1579</ele>
        <time>2021-06-27T12:37:30.074Z</time>
      </trkpt>
      <trkpt lat="45.55267" lon="6.05999">
        <ele>1579</ele>
        <time>2021-06-27T12:37:31.074Z</time>
      </trkpt>
      <trkpt lat="45.55267" lon="6.05998">
        <ele>1580</ele>
        <time>2021-06-27T12:37:32.074Z</time>
      </trkpt>
      <trkpt lat="45.55265" lon="6.05997">
        <ele>1580</ele>
        <time>2021-06-27T12:37:33.074Z</time>
      </trkpt>
      <trkpt lat="45.55264" lon="6.05997">
        <ele>1581</ele>
        <time>2021-06-27T12:37:34.074Z</time>
      </trkpt>
      <trkpt lat="45.55264" lon="6.05997">
        <ele>1581</ele>
        <time>2021-06-27T12:37:35.074Z</time>
      </trkpt>
      <trkpt lat="45.55263" lon="6.05997">
        <ele>1581</ele>
        <time>2021-06-27T12:37:36.073Z</time>
      </trkpt>
      <trkpt lat="45.55263" lon="6.05998">
        <ele>1582</ele>
        <time>2021-06-27T12:37:37.074Z</time>
      </trkpt>
      <trkpt lat="45.55262" lon="6.05997">
        <ele>1582</ele>
        <time>2021-06-27T12:37:38.073Z</time>
      </trkpt>
      <trkpt lat="45.55261" lon="6.05997">
        <ele>1582</ele>
        <time>2021-06-27T12:37:39.073Z</time>
      </trkpt>
      <trkpt lat="45.5526" lon="6.05997">
        <ele>1582</ele>
        <time>2021-06-27T12:37:40.074Z</time>
      </trkpt>
      <trkpt lat="45.5526" lon="6.05997">
        <ele>1582</ele>
        <time>2021-06-27T12:37:41.074Z</time>
      </trkpt>
      <trkpt lat="45.5526" lon="6.05997">
        <ele>1582</ele>
        <time>2021-06-27T12:37:42.074Z</time>
      </trkpt>
      <trkpt lat="45.55259" lon="6.05998">
        <ele>1583</ele>
        <time>2021-06-27T12:37:43.074Z</time>
      </trkpt>
      <trkpt lat="45.55259" lon="6.05998">
        <ele>1583</ele>
        <time>2021-06-27T12:37:44.074Z</time>
      </trkpt>
      <trkpt lat="45.55258" lon="6.05998">
        <ele>1583</ele>
        <time>2021-06-27T12:37:45.074Z</time>
      </trkpt>
      <trkpt lat="45.55258" lon="6.05998">
        <ele>1584</ele>
        <time>2021-06-27T12:37:46.074Z</time>
      </trkpt>
      <trkpt lat="45.55257" lon="6.05996">
        <ele>1584</ele>
        <time>2021-06-27T12:37:47.074Z</time>
      </trkpt>
      <trkpt lat="45.55257" lon="6.05996">
        <ele>1585</ele>
        <time>2021-06-27T12:37:48.074Z</time>
      </trkpt>
      <trkpt lat="45.55256" lon="6.05997">
        <ele>1585</ele>
        <time>2021-06-27T12:37:49.074Z</time>
      </trkpt>
      <trkpt lat="45.55255" lon="6.05998">
        <ele>1585</ele>
        <time>2021-06-27T12:37:50.074Z</time>
      </trkpt>
      <trkpt lat="45.55254" lon="6.05999">
        <ele>1585</ele>
        <time>2021-06-27T12:37:51.073Z</time>
      </trkpt>
      <trkpt lat="45.55253" lon="6.05999">
        <ele>1586</ele>
        <time>2021-06-27T12:37:52.073Z</time>
      </trkpt>
      <trkpt lat="45.55253" lon="6.05999">
        <ele>1586</ele>
        <time>2021-06-27T12:37:53.074Z</time>
      </trkpt>
      <trkpt lat="45.55253" lon="6.05999">
        <ele>1586</ele>
        <time>2021-06-27T12:37:54.074Z</time>
      </trkpt>
      <trkpt lat="45.55253" lon="6.05998">
        <ele>1586</ele>
        <time>2021-06-27T12:37:55.073Z</time>
      </trkpt>
      <trkpt lat="45.55253" lon="6.05998">
        <ele>1586</ele>
        <time>2021-06-27T12:37:56.073Z</time>
      </trkpt>
      <trkpt lat="45.55253" lon="6.05998">
        <ele>1586</ele>
        <time>2021-06-27T12:37:57.074Z</time>
      </trkpt>
      <trkpt lat="45.55252" lon="6.05998">
        <ele>1586</ele>
        <time>2021-06-27T12:37:58.073Z</time>
      </trkpt>
      <trkpt lat="45.55252" lon="6.05997">
        <ele>1585</ele>
        <time>2021-06-27T12:37:59.074Z</time>
      </trkpt>
      <trkpt lat="45.55251" lon="6.05997">
        <ele>1585</ele>
        <time>2021-06-27T12:38:00.074Z</time>
      </trkpt>
      <trkpt lat="45.55251" lon="6.05997">
        <ele>1585</ele>
        <time>2021-06-27T12:38:01.073Z</time>
      </trkpt>
      <trkpt lat="45.5525" lon="6.05996">
        <ele>1585</ele>
        <time>2021-06-27T12:38:02.074Z</time>
      </trkpt>
      <trkpt lat="45.55249" lon="6.05996">
        <ele>1585</ele>
        <time>2021-06-27T12:38:03.074Z</time>
      </trkpt>
      <trkpt lat="45.55249" lon="6.05996">
        <ele>1585</ele>
        <time>2021-06-27T12:38:04.074Z</time>
      </trkpt>
      <trkpt lat="45.55248" lon="6.05996">
        <ele>1585</ele>
        <time>2021-06-27T12:38:05.074Z</time>
      </trkpt>
      <trkpt lat="45.55248" lon="6.05996">
        <ele>1585</ele>
        <time>2021-06-27T12:38:06.074Z</time>
      </trkpt>
      <trkpt lat="45.55247" lon="6.05995">
        <ele>1585</ele>
        <time>2021-06-27T12:38:07.074Z</time>
      </trkpt>
      <trkpt lat="45.55247" lon="6.05995">
        <ele>1586</ele>
        <time>2021-06-27T12:38:08.073Z</time>
      </trkpt>
      <trkpt lat="45.55246" lon="6.05994">
        <ele>1586</ele>
        <time>2021-06-27T12:38:09.074Z</time>
      </trkpt>
      <trkpt lat="45.55246" lon="6.05994">
        <ele>1586</ele>
        <time>2021-06-27T12:38:10.073Z</time>
      </trkpt>
      <trkpt lat="45.55246" lon="6.05994">
        <ele>1586</ele>
        <time>2021-06-27T12:38:11.074Z</time>
      </trkpt>
      <trkpt lat="45.55246" lon="6.05993">
        <ele>1586</ele>
        <time>2021-06-27T12:38:12.074Z</time>
      </trkpt>
      <trkpt lat="45.55245" lon="6.05993">
        <ele>1586</ele>
        <time>2021-06-27T12:38:13.074Z</time>
      </trkpt>
      <trkpt lat="45.55245" lon="6.05993">
        <ele>1587</ele>
        <time>2021-06-27T12:38:14.074Z</time>
      </trkpt>
      <trkpt lat="45.55245" lon="6.05993">
        <ele>1587</ele>
        <time>2021-06-27T12:38:15.074Z</time>
      </trkpt>
      <trkpt lat="45.55244" lon="6.05993">
        <ele>1587</ele>
        <time>2021-06-27T12:38:16.074Z</time>
      </trkpt>
      <trkpt lat="45.55244" lon="6.05992">
        <ele>1588</ele>
        <time>2021-06-27T12:38:17.074Z</time>
      </trkpt>
      <trkpt lat="45.55244" lon="6.05991">
        <ele>1589</ele>
        <time>2021-06-27T12:38:18.074Z</time>
      </trkpt>
      <trkpt lat="45.55244" lon="6.0599">
        <ele>1590</ele>
        <time>2021-06-27T12:38:19.074Z</time>
      </trkpt>
      <trkpt lat="45.55244" lon="6.05989">
        <ele>1590</ele>
        <time>2021-06-27T12:38:20.074Z</time>
      </trkpt>
      <trkpt lat="45.55244" lon="6.05988">
        <ele>1591</ele>
        <time>2021-06-27T12:38:21.074Z</time>
      </trkpt>
      <trkpt lat="45.55243" lon="6.05987">
        <ele>1591</ele>
        <time>2021-06-27T12:38:22.074Z</time>
      </trkpt>
      <trkpt lat="45.55243" lon="6.05986">
        <ele>1592</ele>
        <time>2021-06-27T12:38:23.074Z</time>
      </trkpt>
      <trkpt lat="45.55243" lon="6.05985">
        <ele>1592</ele>
        <time>2021-06-27T12:38:24.074Z</time>
      </trkpt>
      <trkpt lat="45.55243" lon="6.05984">
        <ele>1592</ele>
        <time>2021-06-27T12:38:25.073Z</time>
      </trkpt>
      <trkpt lat="45.55242" lon="6.05983">
        <ele>1593</ele>
        <time>2021-06-27T12:38:26.074Z</time>
      </trkpt>
      <trkpt lat="45.55242" lon="6.05983">
        <ele>1593</ele>
        <time>2021-06-27T12:38:27.073Z</time>
      </trkpt>
      <trkpt lat="45.55243" lon="6.05981">
        <ele>1593</ele>
        <time>2021-06-27T12:38:28.074Z</time>
      </trkpt>
      <trkpt lat="45.55243" lon="6.05981">
        <ele>1593</ele>
        <time>2021-06-27T12:38:29.073Z</time>
      </trkpt>
      <trkpt lat="45.55244" lon="6.05978">
        <ele>1593</ele>
        <time>2021-06-27T12:38:30.074Z</time>
      </trkpt>
      <trkpt lat="45.55243" lon="6.05977">
        <ele>1593</ele>
        <time>2021-06-27T12:38:31.074Z</time>
      </trkpt>
      <trkpt lat="45.55244" lon="6.05976">
        <ele>1592</ele>
        <time>2021-06-27T12:38:32.074Z</time>
      </trkpt>
      <trkpt lat="45.55244" lon="6.05975">
        <ele>1592</ele>
        <time>2021-06-27T12:38:33.073Z</time>
      </trkpt>
      <trkpt lat="45.55244" lon="6.05974">
        <ele>1592</ele>
        <time>2021-06-27T12:38:34.073Z</time>
      </trkpt>
      <trkpt lat="45.55245" lon="6.05973">
        <ele>1593</ele>
        <time>2021-06-27T12:38:35.074Z</time>
      </trkpt>
      <trkpt lat="45.55245" lon="6.05973">
        <ele>1593</ele>
        <time>2021-06-27T12:38:36.074Z</time>
      </trkpt>
      <trkpt lat="45.55245" lon="6.05972">
        <ele>1594</ele>
        <time>2021-06-27T12:38:37.074Z</time>
      </trkpt>
      <trkpt lat="45.55245" lon="6.05971">
        <ele>1595</ele>
        <time>2021-06-27T12:38:38.074Z</time>
      </trkpt>
      <trkpt lat="45.55245" lon="6.0597">
        <ele>1596</ele>
        <time>2021-06-27T12:38:39.074Z</time>
      </trkpt>
      <trkpt lat="45.55244" lon="6.05969">
        <ele>1595</ele>
        <time>2021-06-27T12:38:40.073Z</time>
      </trkpt>
      <trkpt lat="45.55244" lon="6.05969">
        <ele>1595</ele>
        <time>2021-06-27T12:38:41.073Z</time>
      </trkpt>
      <trkpt lat="45.55244" lon="6.05969">
        <ele>1594</ele>
        <time>2021-06-27T12:38:42.074Z</time>
      </trkpt>
      <trkpt lat="45.55244" lon="6.05969">
        <ele>1593</ele>
        <time>2021-06-27T12:38:43.073Z</time>
      </trkpt>
      <trkpt lat="45.55244" lon="6.05968">
        <ele>1592</ele>
        <time>2021-06-27T12:38:44.074Z</time>
      </trkpt>
      <trkpt lat="45.55243" lon="6.05968">
        <ele>1591</ele>
        <time>2021-06-27T12:38:45.074Z</time>
      </trkpt>
      <trkpt lat="45.55243" lon="6.05969">
        <ele>1591</ele>
        <time>2021-06-27T12:38:46.073Z</time>
      </trkpt>
      <trkpt lat="45.55243" lon="6.05969">
        <ele>1591</ele>
        <time>2021-06-27T12:38:47.074Z</time>
      </trkpt>
      <trkpt lat="45.55242" lon="6.05968">
        <ele>1590</ele>
        <time>2021-06-27T12:38:48.073Z</time>
      </trkpt>
      <trkpt lat="45.55242" lon="6.05967">
        <ele>1590</ele>
        <time>2021-06-27T12:38:49.074Z</time>
      </trkpt>
      <trkpt lat="45.55242" lon="6.05967">
        <ele>1590</ele>
        <time>2021-06-27T12:38:50.073Z</time>
      </trkpt>
      <trkpt lat="45.55241" lon="6.05966">
        <ele>1590</ele>
        <time>2021-06-27T12:38:51.074Z</time>
      </trkpt>
      <trkpt lat="45.55241" lon="6.05965">
        <ele>1590</ele>
        <time>2021-06-27T12:38:52.074Z</time>
      </trkpt>
      <trkpt lat="45.55241" lon="6.05966">
        <ele>1591</ele>
        <time>2021-06-27T12:38:53.074Z</time>
      </trkpt>
      <trkpt lat="45.5524" lon="6.05966">
        <ele>1591</ele>
        <time>2021-06-27T12:38:54.074Z</time>
      </trkpt>
      <trkpt lat="45.5524" lon="6.05965">
        <ele>1591</ele>
        <time>2021-06-27T12:38:55.074Z</time>
      </trkpt>
      <trkpt lat="45.55239" lon="6.05964">
        <ele>1592</ele>
        <time>2021-06-27T12:38:56.074Z</time>
      </trkpt>
      <trkpt lat="45.55239" lon="6.05964">
        <ele>1592</ele>
        <time>2021-06-27T12:38:57.074Z</time>
      </trkpt>
      <trkpt lat="45.55238" lon="6.05963">
        <ele>1592</ele>
        <time>2021-06-27T12:38:58.074Z</time>
      </trkpt>
      <trkpt lat="45.55238" lon="6.05963">
        <ele>1591</ele>
        <time>2021-06-27T12:38:59.074Z</time>
      </trkpt>
      <trkpt lat="45.55237" lon="6.05963">
        <ele>1591</ele>
        <time>2021-06-27T12:39:00.074Z</time>
      </trkpt>
      <trkpt lat="45.55237" lon="6.05963">
        <ele>1591</ele>
        <time>2021-06-27T12:39:01.074Z</time>
      </trkpt>
      <trkpt lat="45.55236" lon="6.05962">
        <ele>1591</ele>
        <time>2021-06-27T12:39:02.074Z</time>
      </trkpt>
      <trkpt lat="45.55235" lon="6.05962">
        <ele>1591</ele>
        <time>2021-06-27T12:39:03.074Z</time>
      </trkpt>
      <trkpt lat="45.55235" lon="6.05962">
        <ele>1590</ele>
        <time>2021-06-27T12:39:04.073Z</time>
      </trkpt>
      <trkpt lat="45.55234" lon="6.05961">
        <ele>1590</ele>
        <time>2021-06-27T12:39:05.074Z</time>
      </trkpt>
      <trkpt lat="45.55233" lon="6.0596">
        <ele>1590</ele>
        <time>2021-06-27T12:39:06.074Z</time>
      </trkpt>
      <trkpt lat="45.55231" lon="6.05959">
        <ele>1591</ele>
        <time>2021-06-27T12:39:07.074Z</time>
      </trkpt>
      <trkpt lat="45.5523" lon="6.05957">
        <ele>1591</ele>
        <time>2021-06-27T12:39:08.073Z</time>
      </trkpt>
      <trkpt lat="45.5523" lon="6.05957">
        <ele>1591</ele>
        <time>2021-06-27T12:39:09.074Z</time>
      </trkpt>
      <trkpt lat="45.5523" lon="6.05957">
        <ele>1592</ele>
        <time>2021-06-27T12:39:10.073Z</time>
      </trkpt>
      <trkpt lat="45.55229" lon="6.05957">
        <ele>1592</ele>
        <time>2021-06-27T12:39:11.073Z</time>
      </trkpt>
      <trkpt lat="45.55229" lon="6.05958">
        <ele>1592</ele>
        <time>2021-06-27T12:39:12.074Z</time>
      </trkpt>
      <trkpt lat="45.55228" lon="6.05957">
        <ele>1592</ele>
        <time>2021-06-27T12:39:13.074Z</time>
      </trkpt>
      <trkpt lat="45.55228" lon="6.05957">
        <ele>1592</ele>
        <time>2021-06-27T12:39:14.074Z</time>
      </trkpt>
      <trkpt lat="45.55227" lon="6.05957">
        <ele>1592</ele>
        <time>2021-06-27T12:39:15.074Z</time>
      </trkpt>
      <trkpt lat="45.55227" lon="6.05957">
        <ele>1592</ele>
        <time>2021-06-27T12:39:16.074Z</time>
      </trkpt>
      <trkpt lat="45.55227" lon="6.05957">
        <ele>1593</ele>
        <time>2021-06-27T12:39:17.073Z</time>
      </trkpt>
      <trkpt lat="45.55226" lon="6.05957">
        <ele>1593</ele>
        <time>2021-06-27T12:39:18.074Z</time>
      </trkpt>
      <trkpt lat="45.55225" lon="6.05956">
        <ele>1593</ele>
        <time>2021-06-27T12:39:19.073Z</time>
      </trkpt>
      <trkpt lat="45.55225" lon="6.05956">
        <ele>1593</ele>
        <time>2021-06-27T12:39:20.073Z</time>
      </trkpt>
      <trkpt lat="45.55224" lon="6.05956">
        <ele>1593</ele>
        <time>2021-06-27T12:39:21.074Z</time>
      </trkpt>
      <trkpt lat="45.55223" lon="6.05955">
        <ele>1593</ele>
        <time>2021-06-27T12:39:22.074Z</time>
      </trkpt>
      <trkpt lat="45.55222" lon="6.05955">
        <ele>1594</ele>
        <time>2021-06-27T12:39:23.073Z</time>
      </trkpt>
      <trkpt lat="45.55221" lon="6.05955">
        <ele>1594</ele>
        <time>2021-06-27T12:39:24.074Z</time>
      </trkpt>
      <trkpt lat="45.55221" lon="6.05955">
        <ele>1594</ele>
        <time>2021-06-27T12:39:25.074Z</time>
      </trkpt>
      <trkpt lat="45.5522" lon="6.05954">
        <ele>1594</ele>
        <time>2021-06-27T12:39:26.073Z</time>
      </trkpt>
      <trkpt lat="45.55219" lon="6.05955">
        <ele>1595</ele>
        <time>2021-06-27T12:39:27.073Z</time>
      </trkpt>
      <trkpt lat="45.55218" lon="6.05955">
        <ele>1596</ele>
        <time>2021-06-27T12:39:28.074Z</time>
      </trkpt>
      <trkpt lat="45.55218" lon="6.05956">
        <ele>1597</ele>
        <time>2021-06-27T12:39:29.074Z</time>
      </trkpt>
      <trkpt lat="45.55216" lon="6.05956">
        <ele>1597</ele>
        <time>2021-06-27T12:39:30.074Z</time>
      </trkpt>
      <trkpt lat="45.55215" lon="6.05955">
        <ele>1598</ele>
        <time>2021-06-27T12:39:31.074Z</time>
      </trkpt>
      <trkpt lat="45.55214" lon="6.05954">
        <ele>1599</ele>
        <time>2021-06-27T12:39:32.074Z</time>
      </trkpt>
      <trkpt lat="45.55213" lon="6.05953">
        <ele>1599</ele>
        <time>2021-06-27T12:39:33.073Z</time>
      </trkpt>
      <trkpt lat="45.55212" lon="6.05953">
        <ele>1598</ele>
        <time>2021-06-27T12:39:34.074Z</time>
      </trkpt>
      <trkpt lat="45.55212" lon="6.05952">
        <ele>1598</ele>
        <time>2021-06-27T12:39:35.074Z</time>
      </trkpt>
      <trkpt lat="45.55211" lon="6.05951">
        <ele>1597</ele>
        <time>2021-06-27T12:39:36.073Z</time>
      </trkpt>
      <trkpt lat="45.55211" lon="6.0595">
        <ele>1597</ele>
        <time>2021-06-27T12:39:37.074Z</time>
      </trkpt>
      <trkpt lat="45.5521" lon="6.05949">
        <ele>1596</ele>
        <time>2021-06-27T12:39:38.074Z</time>
      </trkpt>
      <trkpt lat="45.55209" lon="6.05949">
        <ele>1596</ele>
        <time>2021-06-27T12:39:39.074Z</time>
      </trkpt>
      <trkpt lat="45.55208" lon="6.05949">
        <ele>1596</ele>
        <time>2021-06-27T12:39:40.074Z</time>
      </trkpt>
      <trkpt lat="45.55208" lon="6.05949">
        <ele>1596</ele>
        <time>2021-06-27T12:39:41.073Z</time>
      </trkpt>
      <trkpt lat="45.55208" lon="6.05949">
        <ele>1597</ele>
        <time>2021-06-27T12:39:42.074Z</time>
      </trkpt>
      <trkpt lat="45.55207" lon="6.05949">
        <ele>1597</ele>
        <time>2021-06-27T12:39:43.074Z</time>
      </trkpt>
      <trkpt lat="45.55206" lon="6.0595">
        <ele>1597</ele>
        <time>2021-06-27T12:39:44.073Z</time>
      </trkpt>
      <trkpt lat="45.55205" lon="6.0595">
        <ele>1597</ele>
        <time>2021-06-27T12:39:45.074Z</time>
      </trkpt>
      <trkpt lat="45.55204" lon="6.0595">
        <ele>1597</ele>
        <time>2021-06-27T12:39:46.074Z</time>
      </trkpt>
      <trkpt lat="45.55203" lon="6.0595">
        <ele>1598</ele>
        <time>2021-06-27T12:39:47.073Z</time>
      </trkpt>
      <trkpt lat="45.55203" lon="6.05949">
        <ele>1598</ele>
        <time>2021-06-27T12:39:48.074Z</time>
      </trkpt>
      <trkpt lat="45.55202" lon="6.05949">
        <ele>1599</ele>
        <time>2021-06-27T12:39:49.074Z</time>
      </trkpt>
      <trkpt lat="45.55202" lon="6.05949">
        <ele>1599</ele>
        <time>2021-06-27T12:39:50.074Z</time>
      </trkpt>
      <trkpt lat="45.55201" lon="6.05948">
        <ele>1599</ele>
        <time>2021-06-27T12:39:51.074Z</time>
      </trkpt>
      <trkpt lat="45.552" lon="6.05948">
        <ele>1599</ele>
        <time>2021-06-27T12:39:52.074Z</time>
      </trkpt>
      <trkpt lat="45.55199" lon="6.05948">
        <ele>1599</ele>
        <time>2021-06-27T12:39:53.074Z</time>
      </trkpt>
      <trkpt lat="45.55199" lon="6.05948">
        <ele>1599</ele>
        <time>2021-06-27T12:39:54.074Z</time>
      </trkpt>
      <trkpt lat="45.55198" lon="6.05948">
        <ele>1599</ele>
        <time>2021-06-27T12:39:55.073Z</time>
      </trkpt>
      <trkpt lat="45.55198" lon="6.05948">
        <ele>1599</ele>
        <time>2021-06-27T12:39:56.073Z</time>
      </trkpt>
      <trkpt lat="45.55197" lon="6.05948">
        <ele>1599</ele>
        <time>2021-06-27T12:39:57.073Z</time>
      </trkpt>
      <trkpt lat="45.55197" lon="6.05948">
        <ele>1598</ele>
        <time>2021-06-27T12:39:58.073Z</time>
      </trkpt>
      <trkpt lat="45.55196" lon="6.05948">
        <ele>1598</ele>
        <time>2021-06-27T12:39:59.074Z</time>
      </trkpt>
      <trkpt lat="45.55195" lon="6.05948">
        <ele>1598</ele>
        <time>2021-06-27T12:40:00.074Z</time>
      </trkpt>
      <trkpt lat="45.55194" lon="6.05947">
        <ele>1598</ele>
        <time>2021-06-27T12:40:01.074Z</time>
      </trkpt>
      <trkpt lat="45.55193" lon="6.05947">
        <ele>1598</ele>
        <time>2021-06-27T12:40:02.074Z</time>
      </trkpt>
      <trkpt lat="45.55192" lon="6.05946">
        <ele>1598</ele>
        <time>2021-06-27T12:40:03.074Z</time>
      </trkpt>
      <trkpt lat="45.55192" lon="6.05946">
        <ele>1598</ele>
        <time>2021-06-27T12:40:04.073Z</time>
      </trkpt>
      <trkpt lat="45.55191" lon="6.05945">
        <ele>1599</ele>
        <time>2021-06-27T12:40:05.073Z</time>
      </trkpt>
      <trkpt lat="45.5519" lon="6.05945">
        <ele>1599</ele>
        <time>2021-06-27T12:40:06.074Z</time>
      </trkpt>
      <trkpt lat="45.55189" lon="6.05944">
        <ele>1600</ele>
        <time>2021-06-27T12:40:07.074Z</time>
      </trkpt>
      <trkpt lat="45.55188" lon="6.05943">
        <ele>1600</ele>
        <time>2021-06-27T12:40:08.073Z</time>
      </trkpt>
      <trkpt lat="45.55187" lon="6.05943">
        <ele>1600</ele>
        <time>2021-06-27T12:40:09.074Z</time>
      </trkpt>
      <trkpt lat="45.55187" lon="6.05943">
        <ele>1601</ele>
        <time>2021-06-27T12:40:10.074Z</time>
      </trkpt>
      <trkpt lat="45.55186" lon="6.05943">
        <ele>1601</ele>
        <time>2021-06-27T12:40:11.074Z</time>
      </trkpt>
      <trkpt lat="45.55185" lon="6.05944">
        <ele>1602</ele>
        <time>2021-06-27T12:40:12.074Z</time>
      </trkpt>
      <trkpt lat="45.55184" lon="6.05944">
        <ele>1603</ele>
        <time>2021-06-27T12:40:13.074Z</time>
      </trkpt>
      <trkpt lat="45.55183" lon="6.05944">
        <ele>1603</ele>
        <time>2021-06-27T12:40:14.074Z</time>
      </trkpt>
      <trkpt lat="45.55182" lon="6.05944">
        <ele>1603</ele>
        <time>2021-06-27T12:40:15.073Z</time>
      </trkpt>
      <trkpt lat="45.55181" lon="6.05943">
        <ele>1603</ele>
        <time>2021-06-27T12:40:16.074Z</time>
      </trkpt>
      <trkpt lat="45.55181" lon="6.05943">
        <ele>1602</ele>
        <time>2021-06-27T12:40:17.073Z</time>
      </trkpt>
      <trkpt lat="45.5518" lon="6.05942">
        <ele>1602</ele>
        <time>2021-06-27T12:40:18.074Z</time>
      </trkpt>
      <trkpt lat="45.5518" lon="6.05941">
        <ele>1601</ele>
        <time>2021-06-27T12:40:19.073Z</time>
      </trkpt>
      <trkpt lat="45.55179" lon="6.05941">
        <ele>1601</ele>
        <time>2021-06-27T12:40:20.074Z</time>
      </trkpt>
      <trkpt lat="45.55179" lon="6.0594">
        <ele>1601</ele>
        <time>2021-06-27T12:40:21.073Z</time>
      </trkpt>
      <trkpt lat="45.55177" lon="6.05939">
        <ele>1600</ele>
        <time>2021-06-27T12:40:22.073Z</time>
      </trkpt>
      <trkpt lat="45.55177" lon="6.05937">
        <ele>1600</ele>
        <time>2021-06-27T12:40:23.073Z</time>
      </trkpt>
      <trkpt lat="45.55176" lon="6.05936">
        <ele>1600</ele>
        <time>2021-06-27T12:40:24.073Z</time>
      </trkpt>
      <trkpt lat="45.55175" lon="6.05935">
        <ele>1599</ele>
        <time>2021-06-27T12:40:25.074Z</time>
      </trkpt>
      <trkpt lat="45.55174" lon="6.05934">
        <ele>1599</ele>
        <time>2021-06-27T12:40:26.073Z</time>
      </trkpt>
      <trkpt lat="45.55174" lon="6.05934">
        <ele>1599</ele>
        <time>2021-06-27T12:40:27.074Z</time>
      </trkpt>
      <trkpt lat="45.55173" lon="6.05933">
        <ele>1600</ele>
        <time>2021-06-27T12:40:28.073Z</time>
      </trkpt>
      <trkpt lat="45.55173" lon="6.05933">
        <ele>1600</ele>
        <time>2021-06-27T12:40:29.073Z</time>
      </trkpt>
      <trkpt lat="45.55172" lon="6.05933">
        <ele>1600</ele>
        <time>2021-06-27T12:40:30.073Z</time>
      </trkpt>
      <trkpt lat="45.55171" lon="6.05932">
        <ele>1600</ele>
        <time>2021-06-27T12:40:31.074Z</time>
      </trkpt>
      <trkpt lat="45.55171" lon="6.05932">
        <ele>1600</ele>
        <time>2021-06-27T12:40:32.074Z</time>
      </trkpt>
      <trkpt lat="45.5517" lon="6.05931">
        <ele>1600</ele>
        <time>2021-06-27T12:40:33.074Z</time>
      </trkpt>
      <trkpt lat="45.55169" lon="6.05931">
        <ele>1601</ele>
        <time>2021-06-27T12:40:34.074Z</time>
      </trkpt>
      <trkpt lat="45.55169" lon="6.05931">
        <ele>1601</ele>
        <time>2021-06-27T12:40:35.074Z</time>
      </trkpt>
      <trkpt lat="45.55168" lon="6.05931">
        <ele>1602</ele>
        <time>2021-06-27T12:40:36.074Z</time>
      </trkpt>
      <trkpt lat="45.55167" lon="6.0593">
        <ele>1602</ele>
        <time>2021-06-27T12:40:37.074Z</time>
      </trkpt>
      <trkpt lat="45.55167" lon="6.0593">
        <ele>1602</ele>
        <time>2021-06-27T12:40:38.073Z</time>
      </trkpt>
      <trkpt lat="45.55166" lon="6.05929">
        <ele>1603</ele>
        <time>2021-06-27T12:40:39.074Z</time>
      </trkpt>
      <trkpt lat="45.55166" lon="6.05929">
        <ele>1603</ele>
        <time>2021-06-27T12:40:40.073Z</time>
      </trkpt>
      <trkpt lat="45.55166" lon="6.05928">
        <ele>1603</ele>
        <time>2021-06-27T12:40:41.074Z</time>
      </trkpt>
      <trkpt lat="45.55166" lon="6.05928">
        <ele>1603</ele>
        <time>2021-06-27T12:40:42.074Z</time>
      </trkpt>
      <trkpt lat="45.55166" lon="6.05928">
        <ele>1603</ele>
        <time>2021-06-27T12:40:43.074Z</time>
      </trkpt>
      <trkpt lat="45.55165" lon="6.05928">
        <ele>1603</ele>
        <time>2021-06-27T12:40:44.074Z</time>
      </trkpt>
      <trkpt lat="45.55165" lon="6.05927">
        <ele>1603</ele>
        <time>2021-06-27T12:40:45.073Z</time>
      </trkpt>
      <trkpt lat="45.55164" lon="6.05927">
        <ele>1603</ele>
        <time>2021-06-27T12:40:46.074Z</time>
      </trkpt>
      <trkpt lat="45.55164" lon="6.05926">
        <ele>1603</ele>
        <time>2021-06-27T12:40:47.073Z</time>
      </trkpt>
      <trkpt lat="45.55163" lon="6.05925">
        <ele>1603</ele>
        <time>2021-06-27T12:40:48.074Z</time>
      </trkpt>
      <trkpt lat="45.55163" lon="6.05925">
        <ele>1603</ele>
        <time>2021-06-27T12:40:49.074Z</time>
      </trkpt>
      <trkpt lat="45.55163" lon="6.05925">
        <ele>1603</ele>
        <time>2021-06-27T12:40:50.074Z</time>
      </trkpt>
      <trkpt lat="45.55162" lon="6.05925">
        <ele>1603</ele>
        <time>2021-06-27T12:40:51.073Z</time>
      </trkpt>
      <trkpt lat="45.55162" lon="6.05924">
        <ele>1603</ele>
        <time>2021-06-27T12:40:52.073Z</time>
      </trkpt>
      <trkpt lat="45.55162" lon="6.05923">
        <ele>1603</ele>
        <time>2021-06-27T12:40:53.074Z</time>
      </trkpt>
      <trkpt lat="45.55161" lon="6.05923">
        <ele>1603</ele>
        <time>2021-06-27T12:40:54.074Z</time>
      </trkpt>
      <trkpt lat="45.55161" lon="6.05923">
        <ele>1604</ele>
        <time>2021-06-27T12:40:55.074Z</time>
      </trkpt>
      <trkpt lat="45.5516" lon="6.05922">
        <ele>1604</ele>
        <time>2021-06-27T12:40:56.074Z</time>
      </trkpt>
      <trkpt lat="45.5516" lon="6.05922">
        <ele>1605</ele>
        <time>2021-06-27T12:40:57.074Z</time>
      </trkpt>
      <trkpt lat="45.5516" lon="6.05921">
        <ele>1605</ele>
        <time>2021-06-27T12:40:58.073Z</time>
      </trkpt>
      <trkpt lat="45.5516" lon="6.0592">
        <ele>1605</ele>
        <time>2021-06-27T12:40:59.074Z</time>
      </trkpt>
      <trkpt lat="45.55159" lon="6.0592">
        <ele>1606</ele>
        <time>2021-06-27T12:41:00.074Z</time>
      </trkpt>
      <trkpt lat="45.55159" lon="6.05919">
        <ele>1607</ele>
        <time>2021-06-27T12:41:01.074Z</time>
      </trkpt>
      <trkpt lat="45.55158" lon="6.05918">
        <ele>1608</ele>
        <time>2021-06-27T12:41:02.074Z</time>
      </trkpt>
      <trkpt lat="45.55158" lon="6.05918">
        <ele>1609</ele>
        <time>2021-06-27T12:41:03.073Z</time>
      </trkpt>
      <trkpt lat="45.55157" lon="6.05917">
        <ele>1609</ele>
        <time>2021-06-27T12:41:04.074Z</time>
      </trkpt>
      <trkpt lat="45.55157" lon="6.05917">
        <ele>1610</ele>
        <time>2021-06-27T12:41:05.074Z</time>
      </trkpt>
      <trkpt lat="45.55156" lon="6.05916">
        <ele>1610</ele>
        <time>2021-06-27T12:41:06.073Z</time>
      </trkpt>
      <trkpt lat="45.55156" lon="6.05916">
        <ele>1610</ele>
        <time>2021-06-27T12:41:07.074Z</time>
      </trkpt>
      <trkpt lat="45.55155" lon="6.05915">
        <ele>1610</ele>
        <time>2021-06-27T12:41:08.074Z</time>
      </trkpt>
      <trkpt lat="45.55154" lon="6.05915">
        <ele>1610</ele>
        <time>2021-06-27T12:41:09.073Z</time>
      </trkpt>
      <trkpt lat="45.55154" lon="6.05914">
        <ele>1610</ele>
        <time>2021-06-27T12:41:10.074Z</time>
      </trkpt>
      <trkpt lat="45.55153" lon="6.05913">
        <ele>1610</ele>
        <time>2021-06-27T12:41:11.074Z</time>
      </trkpt>
      <trkpt lat="45.55152" lon="6.05912">
        <ele>1611</ele>
        <time>2021-06-27T12:41:12.073Z</time>
      </trkpt>
      <trkpt lat="45.55152" lon="6.05912">
        <ele>1611</ele>
        <time>2021-06-27T12:41:13.074Z</time>
      </trkpt>
      <trkpt lat="45.55151" lon="6.05911">
        <ele>1611</ele>
        <time>2021-06-27T12:41:14.073Z</time>
      </trkpt>
      <trkpt lat="45.55151" lon="6.0591">
        <ele>1611</ele>
        <time>2021-06-27T12:41:15.073Z</time>
      </trkpt>
      <trkpt lat="45.55151" lon="6.0591">
        <ele>1611</ele>
        <time>2021-06-27T12:41:16.074Z</time>
      </trkpt>
      <trkpt lat="45.5515" lon="6.0591">
        <ele>1611</ele>
        <time>2021-06-27T12:41:17.074Z</time>
      </trkpt>
      <trkpt lat="45.55149" lon="6.0591">
        <ele>1611</ele>
        <time>2021-06-27T12:41:18.074Z</time>
      </trkpt>
      <trkpt lat="45.55149" lon="6.05909">
        <ele>1611</ele>
        <time>2021-06-27T12:41:19.073Z</time>
      </trkpt>
      <trkpt lat="45.55148" lon="6.05908">
        <ele>1611</ele>
        <time>2021-06-27T12:41:20.074Z</time>
      </trkpt>
      <trkpt lat="45.55148" lon="6.05908">
        <ele>1611</ele>
        <time>2021-06-27T12:41:21.074Z</time>
      </trkpt>
      <trkpt lat="45.55148" lon="6.05907">
        <ele>1610</ele>
        <time>2021-06-27T12:41:22.074Z</time>
      </trkpt>
      <trkpt lat="45.55148" lon="6.05907">
        <ele>1610</ele>
        <time>2021-06-27T12:41:23.074Z</time>
      </trkpt>
      <trkpt lat="45.55147" lon="6.05907">
        <ele>1610</ele>
        <time>2021-06-27T12:41:24.074Z</time>
      </trkpt>
      <trkpt lat="45.55147" lon="6.05906">
        <ele>1610</ele>
        <time>2021-06-27T12:41:25.074Z</time>
      </trkpt>
      <trkpt lat="45.55146" lon="6.05905">
        <ele>1610</ele>
        <time>2021-06-27T12:41:26.073Z</time>
      </trkpt>
      <trkpt lat="45.55146" lon="6.05905">
        <ele>1610</ele>
        <time>2021-06-27T12:41:27.074Z</time>
      </trkpt>
      <trkpt lat="45.55145" lon="6.05904">
        <ele>1610</ele>
        <time>2021-06-27T12:41:28.074Z</time>
      </trkpt>
      <trkpt lat="45.55145" lon="6.05904">
        <ele>1609</ele>
        <time>2021-06-27T12:41:29.074Z</time>
      </trkpt>
      <trkpt lat="45.55144" lon="6.05903">
        <ele>1609</ele>
        <time>2021-06-27T12:41:30.073Z</time>
      </trkpt>
      <trkpt lat="45.55144" lon="6.05903">
        <ele>1609</ele>
        <time>2021-06-27T12:41:31.074Z</time>
      </trkpt>
      <trkpt lat="45.55143" lon="6.05903">
        <ele>1609</ele>
        <time>2021-06-27T12:41:32.074Z</time>
      </trkpt>
      <trkpt lat="45.55142" lon="6.05902">
        <ele>1609</ele>
        <time>2021-06-27T12:41:33.074Z</time>
      </trkpt>
      <trkpt lat="45.55141" lon="6.05902">
        <ele>1608</ele>
        <time>2021-06-27T12:41:34.074Z</time>
      </trkpt>
      <trkpt lat="45.5514" lon="6.05902">
        <ele>1608</ele>
        <time>2021-06-27T12:41:35.074Z</time>
      </trkpt>
      <trkpt lat="45.5514" lon="6.05901">
        <ele>1608</ele>
        <time>2021-06-27T12:41:36.074Z</time>
      </trkpt>
      <trkpt lat="45.55139" lon="6.05901">
        <ele>1609</ele>
        <time>2021-06-27T12:41:37.074Z</time>
      </trkpt>
      <trkpt lat="45.55138" lon="6.059">
        <ele>1609</ele>
        <time>2021-06-27T12:41:38.073Z</time>
      </trkpt>
      <trkpt lat="45.55137" lon="6.059">
        <ele>1609</ele>
        <time>2021-06-27T12:41:39.074Z</time>
      </trkpt>
      <trkpt lat="45.55136" lon="6.059">
        <ele>1609</ele>
        <time>2021-06-27T12:41:40.074Z</time>
      </trkpt>
      <trkpt lat="45.55135" lon="6.05899">
        <ele>1610</ele>
        <time>2021-06-27T12:41:41.074Z</time>
      </trkpt>
      <trkpt lat="45.55134" lon="6.05899">
        <ele>1610</ele>
        <time>2021-06-27T12:41:42.074Z</time>
      </trkpt>
      <trkpt lat="45.55133" lon="6.05899">
        <ele>1610</ele>
        <time>2021-06-27T12:41:43.074Z</time>
      </trkpt>
      <trkpt lat="45.55132" lon="6.05898">
        <ele>1610</ele>
        <time>2021-06-27T12:41:44.074Z</time>
      </trkpt>
      <trkpt lat="45.55131" lon="6.05898">
        <ele>1610</ele>
        <time>2021-06-27T12:41:45.074Z</time>
      </trkpt>
      <trkpt lat="45.55131" lon="6.05898">
        <ele>1610</ele>
        <time>2021-06-27T12:41:46.074Z</time>
      </trkpt>
      <trkpt lat="45.55131" lon="6.05898">
        <ele>1610</ele>
        <time>2021-06-27T12:41:47.073Z</time>
      </trkpt>
      <trkpt lat="45.55131" lon="6.05898">
        <ele>1611</ele>
        <time>2021-06-27T12:41:48.074Z</time>
      </trkpt>
      <trkpt lat="45.5513" lon="6.05898">
        <ele>1611</ele>
        <time>2021-06-27T12:41:49.074Z</time>
      </trkpt>
      <trkpt lat="45.55129" lon="6.05898">
        <ele>1611</ele>
        <time>2021-06-27T12:41:50.074Z</time>
      </trkpt>
      <trkpt lat="45.55129" lon="6.05898">
        <ele>1612</ele>
        <time>2021-06-27T12:41:51.073Z</time>
      </trkpt>
      <trkpt lat="45.55129" lon="6.05897">
        <ele>1612</ele>
        <time>2021-06-27T12:41:52.074Z</time>
      </trkpt>
      <trkpt lat="45.55128" lon="6.05895">
        <ele>1612</ele>
        <time>2021-06-27T12:41:53.073Z</time>
      </trkpt>
      <trkpt lat="45.55128" lon="6.05895">
        <ele>1612</ele>
        <time>2021-06-27T12:41:54.074Z</time>
      </trkpt>
      <trkpt lat="45.55127" lon="6.05894">
        <ele>1612</ele>
        <time>2021-06-27T12:41:55.074Z</time>
      </trkpt>
      <trkpt lat="45.55126" lon="6.05894">
        <ele>1612</ele>
        <time>2021-06-27T12:41:56.073Z</time>
      </trkpt>
      <trkpt lat="45.55125" lon="6.05893">
        <ele>1613</ele>
        <time>2021-06-27T12:41:57.074Z</time>
      </trkpt>
      <trkpt lat="45.55125" lon="6.05893">
        <ele>1613</ele>
        <time>2021-06-27T12:41:58.074Z</time>
      </trkpt>
      <trkpt lat="45.55124" lon="6.05892">
        <ele>1613</ele>
        <time>2021-06-27T12:41:59.074Z</time>
      </trkpt>
      <trkpt lat="45.55123" lon="6.05892">
        <ele>1613</ele>
        <time>2021-06-27T12:42:00.074Z</time>
      </trkpt>
      <trkpt lat="45.55123" lon="6.05892">
        <ele>1613</ele>
        <time>2021-06-27T12:42:01.073Z</time>
      </trkpt>
      <trkpt lat="45.55123" lon="6.05892">
        <ele>1614</ele>
        <time>2021-06-27T12:42:02.073Z</time>
      </trkpt>
      <trkpt lat="45.55122" lon="6.05891">
        <ele>1614</ele>
        <time>2021-06-27T12:42:03.074Z</time>
      </trkpt>
      <trkpt lat="45.55122" lon="6.05891">
        <ele>1614</ele>
        <time>2021-06-27T12:42:04.074Z</time>
      </trkpt>
      <trkpt lat="45.55123" lon="6.0589">
        <ele>1614</ele>
        <time>2021-06-27T12:42:05.073Z</time>
      </trkpt>
      <trkpt lat="45.55123" lon="6.05889">
        <ele>1614</ele>
        <time>2021-06-27T12:42:06.073Z</time>
      </trkpt>
      <trkpt lat="45.55122" lon="6.05889">
        <ele>1614</ele>
        <time>2021-06-27T12:42:07.074Z</time>
      </trkpt>
      <trkpt lat="45.55122" lon="6.05888">
        <ele>1614</ele>
        <time>2021-06-27T12:42:08.073Z</time>
      </trkpt>
      <trkpt lat="45.55122" lon="6.05888">
        <ele>1614</ele>
        <time>2021-06-27T12:42:09.074Z</time>
      </trkpt>
      <trkpt lat="45.55122" lon="6.05887">
        <ele>1614</ele>
        <time>2021-06-27T12:42:10.074Z</time>
      </trkpt>
      <trkpt lat="45.55122" lon="6.05886">
        <ele>1614</ele>
        <time>2021-06-27T12:42:11.073Z</time>
      </trkpt>
      <trkpt lat="45.55122" lon="6.05885">
        <ele>1614</ele>
        <time>2021-06-27T12:42:12.073Z</time>
      </trkpt>
      <trkpt lat="45.55122" lon="6.05885">
        <ele>1615</ele>
        <time>2021-06-27T12:42:13.073Z</time>
      </trkpt>
      <trkpt lat="45.55123" lon="6.05884">
        <ele>1615</ele>
        <time>2021-06-27T12:42:14.074Z</time>
      </trkpt>
      <trkpt lat="45.55124" lon="6.05884">
        <ele>1615</ele>
        <time>2021-06-27T12:42:15.074Z</time>
      </trkpt>
      <trkpt lat="45.55124" lon="6.05884">
        <ele>1615</ele>
        <time>2021-06-27T12:42:16.073Z</time>
      </trkpt>
      <trkpt lat="45.55124" lon="6.05884">
        <ele>1616</ele>
        <time>2021-06-27T12:42:17.073Z</time>
      </trkpt>
      <trkpt lat="45.55125" lon="6.05883">
        <ele>1616</ele>
        <time>2021-06-27T12:42:18.074Z</time>
      </trkpt>
      <trkpt lat="45.55125" lon="6.05883">
        <ele>1616</ele>
        <time>2021-06-27T12:42:19.074Z</time>
      </trkpt>
      <trkpt lat="45.55125" lon="6.05882">
        <ele>1616</ele>
        <time>2021-06-27T12:42:20.074Z</time>
      </trkpt>
      <trkpt lat="45.55125" lon="6.05881">
        <ele>1616</ele>
        <time>2021-06-27T12:42:21.073Z</time>
      </trkpt>
      <trkpt lat="45.55125" lon="6.05881">
        <ele>1617</ele>
        <time>2021-06-27T12:42:22.073Z</time>
      </trkpt>
      <trkpt lat="45.55126" lon="6.05881">
        <ele>1617</ele>
        <time>2021-06-27T12:42:23.073Z</time>
      </trkpt>
      <trkpt lat="45.55126" lon="6.05881">
        <ele>1618</ele>
        <time>2021-06-27T12:42:24.073Z</time>
      </trkpt>
      <trkpt lat="45.55126" lon="6.05881">
        <ele>1618</ele>
        <time>2021-06-27T12:42:25.074Z</time>
      </trkpt>
      <trkpt lat="45.55127" lon="6.05881">
        <ele>1618</ele>
        <time>2021-06-27T12:42:26.073Z</time>
      </trkpt>
      <trkpt lat="45.55127" lon="6.05881">
        <ele>1618</ele>
        <time>2021-06-27T12:42:27.073Z</time>
      </trkpt>
      <trkpt lat="45.55127" lon="6.05881">
        <ele>1618</ele>
        <time>2021-06-27T12:42:28.074Z</time>
      </trkpt>
      <trkpt lat="45.55127" lon="6.05881">
        <ele>1618</ele>
        <time>2021-06-27T12:42:29.073Z</time>
      </trkpt>
      <trkpt lat="45.55127" lon="6.05881">
        <ele>1618</ele>
        <time>2021-06-27T12:42:30.073Z</time>
      </trkpt>
      <trkpt lat="45.55127" lon="6.05881">
        <ele>1618</ele>
        <time>2021-06-27T12:42:31.073Z</time>
      </trkpt>
      <trkpt lat="45.55128" lon="6.05882">
        <ele>1618</ele>
        <time>2021-06-27T12:42:32.073Z</time>
      </trkpt>
      <trkpt lat="45.55129" lon="6.05881">
        <ele>1618</ele>
        <time>2021-06-27T12:42:33.074Z</time>
      </trkpt>
      <trkpt lat="45.55129" lon="6.05881">
        <ele>1618</ele>
        <time>2021-06-27T12:42:34.073Z</time>
      </trkpt>
      <trkpt lat="45.55129" lon="6.0588">
        <ele>1618</ele>
        <time>2021-06-27T12:42:35.073Z</time>
      </trkpt>
      <trkpt lat="45.55129" lon="6.0588">
        <ele>1617</ele>
        <time>2021-06-27T12:42:36.073Z</time>
      </trkpt>
      <trkpt lat="45.55129" lon="6.0588">
        <ele>1617</ele>
        <time>2021-06-27T12:42:37.073Z</time>
      </trkpt>
      <trkpt lat="45.55129" lon="6.0588">
        <ele>1617</ele>
        <time>2021-06-27T12:42:38.074Z</time>
      </trkpt>
      <trkpt lat="45.55129" lon="6.0588">
        <ele>1616</ele>
        <time>2021-06-27T12:42:39.074Z</time>
      </trkpt>
      <trkpt lat="45.55129" lon="6.0588">
        <ele>1616</ele>
        <time>2021-06-27T12:42:40.073Z</time>
      </trkpt>
      <trkpt lat="45.55129" lon="6.0588">
        <ele>1616</ele>
        <time>2021-06-27T12:42:41.074Z</time>
      </trkpt>
      <trkpt lat="45.55129" lon="6.0588">
        <ele>1616</ele>
        <time>2021-06-27T12:42:42.073Z</time>
      </trkpt>
      <trkpt lat="45.55129" lon="6.05881">
        <ele>1616</ele>
        <time>2021-06-27T12:42:43.073Z</time>
      </trkpt>
      <trkpt lat="45.55129" lon="6.05881">
        <ele>1616</ele>
        <time>2021-06-27T12:42:44.073Z</time>
      </trkpt>
      <trkpt lat="45.55129" lon="6.05881">
        <ele>1617</ele>
        <time>2021-06-27T12:42:45.073Z</time>
      </trkpt>
      <trkpt lat="45.55129" lon="6.05881">
        <ele>1617</ele>
        <time>2021-06-27T12:42:46.073Z</time>
      </trkpt>
      <trkpt lat="45.55129" lon="6.05881">
        <ele>1617</ele>
        <time>2021-06-27T12:42:47.073Z</time>
      </trkpt>
      <trkpt lat="45.55129" lon="6.05881">
        <ele>1617</ele>
        <time>2021-06-27T12:42:48.073Z</time>
      </trkpt>
      <trkpt lat="45.55129" lon="6.05881">
        <ele>1617</ele>
        <time>2021-06-27T12:42:49.074Z</time>
      </trkpt>
      <trkpt lat="45.55129" lon="6.05881">
        <ele>1617</ele>
        <time>2021-06-27T12:42:50.074Z</time>
      </trkpt>
      <trkpt lat="45.55129" lon="6.05881">
        <ele>1617</ele>
        <time>2021-06-27T12:42:51.074Z</time>
      </trkpt>
      <trkpt lat="45.5513" lon="6.05882">
        <ele>1617</ele>
        <time>2021-06-27T12:42:52.074Z</time>
      </trkpt>
      <trkpt lat="45.5513" lon="6.05881">
        <ele>1617</ele>
        <time>2021-06-27T12:42:53.074Z</time>
      </trkpt>
      <trkpt lat="45.5513" lon="6.05881">
        <ele>1617</ele>
        <time>2021-06-27T12:42:54.074Z</time>
      </trkpt>
      <trkpt lat="45.5513" lon="6.05881">
        <ele>1617</ele>
        <time>2021-06-27T12:42:55.074Z</time>
      </trkpt>
      <trkpt lat="45.5513" lon="6.05881">
        <ele>1617</ele>
        <time>2021-06-27T12:42:56.074Z</time>
      </trkpt>
      <trkpt lat="45.5513" lon="6.05881">
        <ele>1618</ele>
        <time>2021-06-27T12:42:57.074Z</time>
      </trkpt>
      <trkpt lat="45.5513" lon="6.05881">
        <ele>1618</ele>
        <time>2021-06-27T12:42:58.074Z</time>
      </trkpt>
      <trkpt lat="45.5513" lon="6.05881">
        <ele>1618</ele>
        <time>2021-06-27T12:42:59.074Z</time>
      </trkpt>
      <trkpt lat="45.5513" lon="6.05881">
        <ele>1618</ele>
        <time>2021-06-27T12:43:00.074Z</time>
      </trkpt>
      <trkpt lat="45.5513" lon="6.05881">
        <ele>1618</ele>
        <time>2021-06-27T12:43:01.074Z</time>
      </trkpt>
      <trkpt lat="45.5513" lon="6.05881">
        <ele>1618</ele>
        <time>2021-06-27T12:43:02.073Z</time>
      </trkpt>
      <trkpt lat="45.5513" lon="6.05881">
        <ele>1618</ele>
        <time>2021-06-27T12:43:03.073Z</time>
      </trkpt>
      <trkpt lat="45.5513" lon="6.05881">
        <ele>1618</ele>
        <time>2021-06-27T12:43:04.073Z</time>
      </trkpt>
      <trkpt lat="45.5513" lon="6.05881">
        <ele>1618</ele>
        <time>2021-06-27T12:43:05.074Z</time>
      </trkpt>
      <trkpt lat="45.55129" lon="6.05882">
        <ele>1618</ele>
        <time>2021-06-27T12:43:06.073Z</time>
      </trkpt>
      <trkpt lat="45.55129" lon="6.05882">
        <ele>1618</ele>
        <time>2021-06-27T12:43:07.074Z</time>
      </trkpt>
      <trkpt lat="45.55129" lon="6.05882">
        <ele>1617</ele>
        <time>2021-06-27T12:43:08.074Z</time>
      </trkpt>
      <trkpt lat="45.55128" lon="6.05882">
        <ele>1617</ele>
        <time>2021-06-27T12:43:09.074Z</time>
      </trkpt>
      <trkpt lat="45.55128" lon="6.05882">
        <ele>1617</ele>
        <time>2021-06-27T12:43:10.074Z</time>
      </trkpt>
      <trkpt lat="45.55128" lon="6.05883">
        <ele>1617</ele>
        <time>2021-06-27T12:43:11.074Z</time>
      </trkpt>
      <trkpt lat="45.55128" lon="6.05882">
        <ele>1617</ele>
        <time>2021-06-27T12:43:12.073Z</time>
      </trkpt>
      <trkpt lat="45.55128" lon="6.05882">
        <ele>1616</ele>
        <time>2021-06-27T12:43:13.074Z</time>
      </trkpt>
      <trkpt lat="45.55128" lon="6.05882">
        <ele>1616</ele>
        <time>2021-06-27T12:43:14.073Z</time>
      </trkpt>
      <trkpt lat="45.55127" lon="6.05883">
        <ele>1616</ele>
        <time>2021-06-27T12:43:15.074Z</time>
      </trkpt>
      <trkpt lat="45.55127" lon="6.05883">
        <ele>1616</ele>
        <time>2021-06-27T12:43:16.074Z</time>
      </trkpt>
      <trkpt lat="45.55127" lon="6.05882">
        <ele>1616</ele>
        <time>2021-06-27T12:43:17.073Z</time>
      </trkpt>
      <trkpt lat="45.55127" lon="6.05882">
        <ele>1616</ele>
        <time>2021-06-27T12:43:18.073Z</time>
      </trkpt>
      <trkpt lat="45.55127" lon="6.05882">
        <ele>1617</ele>
        <time>2021-06-27T12:43:19.074Z</time>
      </trkpt>
      <trkpt lat="45.55127" lon="6.05882">
        <ele>1617</ele>
        <time>2021-06-27T12:43:20.074Z</time>
      </trkpt>
      <trkpt lat="45.55127" lon="6.05882">
        <ele>1617</ele>
        <time>2021-06-27T12:43:21.074Z</time>
      </trkpt>
      <trkpt lat="45.55127" lon="6.05882">
        <ele>1617</ele>
        <time>2021-06-27T12:43:22.073Z</time>
      </trkpt>
      <trkpt lat="45.55127" lon="6.05882">
        <ele>1617</ele>
        <time>2021-06-27T12:43:23.074Z</time>
      </trkpt>
      <trkpt lat="45.55127" lon="6.05882">
        <ele>1617</ele>
        <time>2021-06-27T12:43:24.073Z</time>
      </trkpt>
      <trkpt lat="45.55127" lon="6.05882">
        <ele>1617</ele>
        <time>2021-06-27T12:43:25.074Z</time>
      </trkpt>
      <trkpt lat="45.55127" lon="6.05882">
        <ele>1617</ele>
        <time>2021-06-27T12:43:26.074Z</time>
      </trkpt>
      <trkpt lat="45.55127" lon="6.05882">
        <ele>1617</ele>
        <time>2021-06-27T12:43:27.074Z</time>
      </trkpt>
      <trkpt lat="45.55127" lon="6.05882">
        <ele>1617</ele>
        <time>2021-06-27T12:43:28.074Z</time>
      </trkpt>
      <trkpt lat="45.55127" lon="6.05882">
        <ele>1617</ele>
        <time>2021-06-27T12:43:29.074Z</time>
      </trkpt>
      <trkpt lat="45.55126" lon="6.05882">
        <ele>1617</ele>
        <time>2021-06-27T12:43:30.074Z</time>
      </trkpt>
      <trkpt lat="45.55126" lon="6.05882">
        <ele>1617</ele>
        <time>2021-06-27T12:43:31.074Z</time>
      </trkpt>
      <trkpt lat="45.55126" lon="6.05881">
        <ele>1617</ele>
        <time>2021-06-27T12:43:32.074Z</time>
      </trkpt>
      <trkpt lat="45.55126" lon="6.05881">
        <ele>1617</ele>
        <time>2021-06-27T12:43:33.074Z</time>
      </trkpt>
      <trkpt lat="45.55126" lon="6.05881">
        <ele>1617</ele>
        <time>2021-06-27T12:43:34.074Z</time>
      </trkpt>
      <trkpt lat="45.55126" lon="6.05881">
        <ele>1617</ele>
        <time>2021-06-27T12:43:35.074Z</time>
      </trkpt>
      <trkpt lat="45.55126" lon="6.05882">
        <ele>1617</ele>
        <time>2021-06-27T12:43:36.074Z</time>
      </trkpt>
      <trkpt lat="45.55126" lon="6.05882">
        <ele>1617</ele>
        <time>2021-06-27T12:43:37.073Z</time>
      </trkpt>
      <trkpt lat="45.55125" lon="6.05883">
        <ele>1617</ele>
        <time>2021-06-27T12:43:38.074Z</time>
      </trkpt>
      <trkpt lat="45.55125" lon="6.05884">
        <ele>1617</ele>
        <time>2021-06-27T12:43:39.074Z</time>
      </trkpt>
      <trkpt lat="45.55125" lon="6.05885">
        <ele>1617</ele>
        <time>2021-06-27T12:43:40.074Z</time>
      </trkpt>
      <trkpt lat="45.55124" lon="6.05885">
        <ele>1617</ele>
        <time>2021-06-27T12:43:41.074Z</time>
      </trkpt>
      <trkpt lat="45.55123" lon="6.05885">
        <ele>1617</ele>
        <time>2021-06-27T12:43:42.074Z</time>
      </trkpt>
      <trkpt lat="45.55123" lon="6.05885">
        <ele>1618</ele>
        <time>2021-06-27T12:43:43.074Z</time>
      </trkpt>
      <trkpt lat="45.55123" lon="6.05886">
        <ele>1618</ele>
        <time>2021-06-27T12:43:44.074Z</time>
      </trkpt>
      <trkpt lat="45.55123" lon="6.05886">
        <ele>1618</ele>
        <time>2021-06-27T12:43:45.074Z</time>
      </trkpt>
      <trkpt lat="45.55123" lon="6.05886">
        <ele>1618</ele>
        <time>2021-06-27T12:43:46.074Z</time>
      </trkpt>
      <trkpt lat="45.55123" lon="6.05885">
        <ele>1618</ele>
        <time>2021-06-27T12:43:47.074Z</time>
      </trkpt>
      <trkpt lat="45.55123" lon="6.05885">
        <ele>1618</ele>
        <time>2021-06-27T12:43:48.074Z</time>
      </trkpt>
      <trkpt lat="45.55123" lon="6.05885">
        <ele>1617</ele>
        <time>2021-06-27T12:43:49.074Z</time>
      </trkpt>
      <trkpt lat="45.55123" lon="6.05885">
        <ele>1617</ele>
        <time>2021-06-27T12:43:50.073Z</time>
      </trkpt>
      <trkpt lat="45.55123" lon="6.05886">
        <ele>1617</ele>
        <time>2021-06-27T12:43:51.074Z</time>
      </trkpt>
      <trkpt lat="45.55124" lon="6.05886">
        <ele>1617</ele>
        <time>2021-06-27T12:43:52.074Z</time>
      </trkpt>
      <trkpt lat="45.55124" lon="6.05885">
        <ele>1617</ele>
        <time>2021-06-27T12:43:53.074Z</time>
      </trkpt>
      <trkpt lat="45.55124" lon="6.05885">
        <ele>1617</ele>
        <time>2021-06-27T12:43:54.074Z</time>
      </trkpt>
      <trkpt lat="45.55124" lon="6.05886">
        <ele>1617</ele>
        <time>2021-06-27T12:43:55.073Z</time>
      </trkpt>
      <trkpt lat="45.55124" lon="6.05886">
        <ele>1617</ele>
        <time>2021-06-27T12:43:56.073Z</time>
      </trkpt>
      <trkpt lat="45.55124" lon="6.05886">
        <ele>1616</ele>
        <time>2021-06-27T12:43:57.074Z</time>
      </trkpt>
      <trkpt lat="45.55124" lon="6.05886">
        <ele>1616</ele>
        <time>2021-06-27T12:43:58.074Z</time>
      </trkpt>
      <trkpt lat="45.55124" lon="6.05886">
        <ele>1615</ele>
        <time>2021-06-27T12:43:59.074Z</time>
      </trkpt>
      <trkpt lat="45.55124" lon="6.05886">
        <ele>1615</ele>
        <time>2021-06-27T12:44:00.074Z</time>
      </trkpt>
      <trkpt lat="45.55123" lon="6.05886">
        <ele>1615</ele>
        <time>2021-06-27T12:44:01.074Z</time>
      </trkpt>
      <trkpt lat="45.55123" lon="6.05886">
        <ele>1614</ele>
        <time>2021-06-27T12:44:02.073Z</time>
      </trkpt>
      <trkpt lat="45.55123" lon="6.05886">
        <ele>1614</ele>
        <time>2021-06-27T12:44:03.073Z</time>
      </trkpt>
      <trkpt lat="45.55124" lon="6.05886">
        <ele>1614</ele>
        <time>2021-06-27T12:44:04.073Z</time>
      </trkpt>
      <trkpt lat="45.55124" lon="6.05885">
        <ele>1613</ele>
        <time>2021-06-27T12:44:05.073Z</time>
      </trkpt>
      <trkpt lat="45.55124" lon="6.05885">
        <ele>1613</ele>
        <time>2021-06-27T12:44:06.074Z</time>
      </trkpt>
      <trkpt lat="45.55124" lon="6.05885">
        <ele>1612</ele>
        <time>2021-06-27T12:44:07.074Z</time>
      </trkpt>
      <trkpt lat="45.55124" lon="6.05885">
        <ele>1612</ele>
        <time>2021-06-27T12:44:08.073Z</time>
      </trkpt>
      <trkpt lat="45.55124" lon="6.05885">
        <ele>1612</ele>
        <time>2021-06-27T12:44:09.074Z</time>
      </trkpt>
      <trkpt lat="45.55124" lon="6.05885">
        <ele>1613</ele>
        <time>2021-06-27T12:44:10.073Z</time>
      </trkpt>
      <trkpt lat="45.55124" lon="6.05886">
        <ele>1614</ele>
        <time>2021-06-27T12:44:11.074Z</time>
      </trkpt>
      <trkpt lat="45.55124" lon="6.05886">
        <ele>1614</ele>
        <time>2021-06-27T12:44:12.074Z</time>
      </trkpt>
      <trkpt lat="45.55124" lon="6.05886">
        <ele>1615</ele>
        <time>2021-06-27T12:44:13.073Z</time>
      </trkpt>
      <trkpt lat="45.55124" lon="6.05886">
        <ele>1616</ele>
        <time>2021-06-27T12:44:14.073Z</time>
      </trkpt>
      <trkpt lat="45.55125" lon="6.05887">
        <ele>1616</ele>
        <time>2021-06-27T12:44:15.074Z</time>
      </trkpt>
      <trkpt lat="45.55124" lon="6.05887">
        <ele>1617</ele>
        <time>2021-06-27T12:44:16.073Z</time>
      </trkpt>
      <trkpt lat="45.55124" lon="6.05887">
        <ele>1618</ele>
        <time>2021-06-27T12:44:17.074Z</time>
      </trkpt>
      <trkpt lat="45.55124" lon="6.05887">
        <ele>1618</ele>
        <time>2021-06-27T12:44:18.073Z</time>
      </trkpt>
      <trkpt lat="45.55123" lon="6.05887">
        <ele>1618</ele>
        <time>2021-06-27T12:44:19.074Z</time>
      </trkpt>
      <trkpt lat="45.55123" lon="6.05886">
        <ele>1617</ele>
        <time>2021-06-27T12:44:20.073Z</time>
      </trkpt>
      <trkpt lat="45.55122" lon="6.05886">
        <ele>1617</ele>
        <time>2021-06-27T12:44:21.073Z</time>
      </trkpt>
      <trkpt lat="45.55121" lon="6.05887">
        <ele>1617</ele>
        <time>2021-06-27T12:44:22.074Z</time>
      </trkpt>
      <trkpt lat="45.55121" lon="6.05887">
        <ele>1617</ele>
        <time>2021-06-27T12:44:23.073Z</time>
      </trkpt>
      <trkpt lat="45.5512" lon="6.05887">
        <ele>1616</ele>
        <time>2021-06-27T12:44:24.074Z</time>
      </trkpt>
      <trkpt lat="45.5512" lon="6.05887">
        <ele>1616</ele>
        <time>2021-06-27T12:44:25.074Z</time>
      </trkpt>
      <trkpt lat="45.5512" lon="6.05887">
        <ele>1616</ele>
        <time>2021-06-27T12:44:26.074Z</time>
      </trkpt>
      <trkpt lat="45.5512" lon="6.05887">
        <ele>1616</ele>
        <time>2021-06-27T12:44:27.074Z</time>
      </trkpt>
      <trkpt lat="45.5512" lon="6.05887">
        <ele>1616</ele>
        <time>2021-06-27T12:44:28.074Z</time>
      </trkpt>
      <trkpt lat="45.5512" lon="6.05887">
        <ele>1616</ele>
        <time>2021-06-27T12:44:29.074Z</time>
      </trkpt>
      <trkpt lat="45.55119" lon="6.05887">
        <ele>1616</ele>
        <time>2021-06-27T12:44:30.074Z</time>
      </trkpt>
      <trkpt lat="45.55118" lon="6.05887">
        <ele>1616</ele>
        <time>2021-06-27T12:44:31.074Z</time>
      </trkpt>
      <trkpt lat="45.55118" lon="6.05887">
        <ele>1616</ele>
        <time>2021-06-27T12:44:32.074Z</time>
      </trkpt>
      <trkpt lat="45.55117" lon="6.05887">
        <ele>1616</ele>
        <time>2021-06-27T12:44:33.074Z</time>
      </trkpt>
      <trkpt lat="45.55116" lon="6.05887">
        <ele>1615</ele>
        <time>2021-06-27T12:44:34.073Z</time>
      </trkpt>
      <trkpt lat="45.55116" lon="6.05888">
        <ele>1615</ele>
        <time>2021-06-27T12:44:35.074Z</time>
      </trkpt>
      <trkpt lat="45.55115" lon="6.05889">
        <ele>1615</ele>
        <time>2021-06-27T12:44:36.074Z</time>
      </trkpt>
      <trkpt lat="45.55114" lon="6.0589">
        <ele>1614</ele>
        <time>2021-06-27T12:44:37.074Z</time>
      </trkpt>
      <trkpt lat="45.55113" lon="6.05891">
        <ele>1614</ele>
        <time>2021-06-27T12:44:38.073Z</time>
      </trkpt>
      <trkpt lat="45.55112" lon="6.05892">
        <ele>1614</ele>
        <time>2021-06-27T12:44:39.074Z</time>
      </trkpt>
      <trkpt lat="45.5511" lon="6.05893">
        <ele>1614</ele>
        <time>2021-06-27T12:44:40.074Z</time>
      </trkpt>
      <trkpt lat="45.55109" lon="6.05893">
        <ele>1614</ele>
        <time>2021-06-27T12:44:41.074Z</time>
      </trkpt>
      <trkpt lat="45.55109" lon="6.05894">
        <ele>1614</ele>
        <time>2021-06-27T12:44:42.074Z</time>
      </trkpt>
      <trkpt lat="45.55108" lon="6.05894">
        <ele>1613</ele>
        <time>2021-06-27T12:44:43.074Z</time>
      </trkpt>
      <trkpt lat="45.55107" lon="6.05894">
        <ele>1613</ele>
        <time>2021-06-27T12:44:44.074Z</time>
      </trkpt>
      <trkpt lat="45.55106" lon="6.05894">
        <ele>1612</ele>
        <time>2021-06-27T12:44:45.074Z</time>
      </trkpt>
      <trkpt lat="45.55105" lon="6.05895">
        <ele>1611</ele>
        <time>2021-06-27T12:44:46.073Z</time>
      </trkpt>
      <trkpt lat="45.55104" lon="6.05895">
        <ele>1611</ele>
        <time>2021-06-27T12:44:47.074Z</time>
      </trkpt>
      <trkpt lat="45.55103" lon="6.05894">
        <ele>1610</ele>
        <time>2021-06-27T12:44:48.074Z</time>
      </trkpt>
      <trkpt lat="45.55102" lon="6.05893">
        <ele>1610</ele>
        <time>2021-06-27T12:44:49.073Z</time>
      </trkpt>
      <trkpt lat="45.55102" lon="6.05893">
        <ele>1609</ele>
        <time>2021-06-27T12:44:50.074Z</time>
      </trkpt>
      <trkpt lat="45.55102" lon="6.05892">
        <ele>1609</ele>
        <time>2021-06-27T12:44:51.074Z</time>
      </trkpt>
      <trkpt lat="45.55102" lon="6.05892">
        <ele>1609</ele>
        <time>2021-06-27T12:44:52.073Z</time>
      </trkpt>
      <trkpt lat="45.55102" lon="6.05892">
        <ele>1608</ele>
        <time>2021-06-27T12:44:53.073Z</time>
      </trkpt>
      <trkpt lat="45.55101" lon="6.05892">
        <ele>1608</ele>
        <time>2021-06-27T12:44:54.074Z</time>
      </trkpt>
      <trkpt lat="45.55101" lon="6.05892">
        <ele>1608</ele>
        <time>2021-06-27T12:44:55.074Z</time>
      </trkpt>
      <trkpt lat="45.55101" lon="6.05891">
        <ele>1608</ele>
        <time>2021-06-27T12:44:56.073Z</time>
      </trkpt>
      <trkpt lat="45.55101" lon="6.05891">
        <ele>1608</ele>
        <time>2021-06-27T12:44:57.074Z</time>
      </trkpt>
      <trkpt lat="45.55101" lon="6.0589">
        <ele>1607</ele>
        <time>2021-06-27T12:44:58.074Z</time>
      </trkpt>
      <trkpt lat="45.551" lon="6.0589">
        <ele>1607</ele>
        <time>2021-06-27T12:44:59.073Z</time>
      </trkpt>
      <trkpt lat="45.551" lon="6.05889">
        <ele>1607</ele>
        <time>2021-06-27T12:45:00.074Z</time>
      </trkpt>
      <trkpt lat="45.551" lon="6.05889">
        <ele>1607</ele>
        <time>2021-06-27T12:45:01.073Z</time>
      </trkpt>
      <trkpt lat="45.551" lon="6.05888">
        <ele>1606</ele>
        <time>2021-06-27T12:45:02.073Z</time>
      </trkpt>
      <trkpt lat="45.551" lon="6.05888">
        <ele>1606</ele>
        <time>2021-06-27T12:45:03.074Z</time>
      </trkpt>
      <trkpt lat="45.551" lon="6.05888">
        <ele>1606</ele>
        <time>2021-06-27T12:45:04.074Z</time>
      </trkpt>
      <trkpt lat="45.551" lon="6.05887">
        <ele>1605</ele>
        <time>2021-06-27T12:45:05.073Z</time>
      </trkpt>
      <trkpt lat="45.551" lon="6.05887">
        <ele>1604</ele>
        <time>2021-06-27T12:45:06.074Z</time>
      </trkpt>
      <trkpt lat="45.55099" lon="6.05886">
        <ele>1604</ele>
        <time>2021-06-27T12:45:07.074Z</time>
      </trkpt>
      <trkpt lat="45.55098" lon="6.05886">
        <ele>1604</ele>
        <time>2021-06-27T12:45:08.074Z</time>
      </trkpt>
      <trkpt lat="45.55098" lon="6.05884">
        <ele>1604</ele>
        <time>2021-06-27T12:45:09.074Z</time>
      </trkpt>
      <trkpt lat="45.55097" lon="6.05883">
        <ele>1604</ele>
        <time>2021-06-27T12:45:10.074Z</time>
      </trkpt>
      <trkpt lat="45.55097" lon="6.05882">
        <ele>1604</ele>
        <time>2021-06-27T12:45:11.073Z</time>
      </trkpt>
      <trkpt lat="45.55097" lon="6.05881">
        <ele>1604</ele>
        <time>2021-06-27T12:45:12.074Z</time>
      </trkpt>
      <trkpt lat="45.55096" lon="6.05879">
        <ele>1605</ele>
        <time>2021-06-27T12:45:13.074Z</time>
      </trkpt>
      <trkpt lat="45.55096" lon="6.05878">
        <ele>1605</ele>
        <time>2021-06-27T12:45:14.073Z</time>
      </trkpt>
      <trkpt lat="45.55095" lon="6.05877">
        <ele>1605</ele>
        <time>2021-06-27T12:45:15.074Z</time>
      </trkpt>
      <trkpt lat="45.55095" lon="6.05875">
        <ele>1605</ele>
        <time>2021-06-27T12:45:16.074Z</time>
      </trkpt>
      <trkpt lat="45.55094" lon="6.05874">
        <ele>1604</ele>
        <time>2021-06-27T12:45:17.074Z</time>
      </trkpt>
      <trkpt lat="45.55092" lon="6.05874">
        <ele>1604</ele>
        <time>2021-06-27T12:45:18.074Z</time>
      </trkpt>
      <trkpt lat="45.55091" lon="6.05874">
        <ele>1604</ele>
        <time>2021-06-27T12:45:19.073Z</time>
      </trkpt>
      <trkpt lat="45.5509" lon="6.05874">
        <ele>1604</ele>
        <time>2021-06-27T12:45:20.074Z</time>
      </trkpt>
      <trkpt lat="45.5509" lon="6.05874">
        <ele>1603</ele>
        <time>2021-06-27T12:45:21.074Z</time>
      </trkpt>
      <trkpt lat="45.55089" lon="6.05875">
        <ele>1603</ele>
        <time>2021-06-27T12:45:22.073Z</time>
      </trkpt>
      <trkpt lat="45.55088" lon="6.05875">
        <ele>1603</ele>
        <time>2021-06-27T12:45:23.074Z</time>
      </trkpt>
      <trkpt lat="45.55087" lon="6.05875">
        <ele>1603</ele>
        <time>2021-06-27T12:45:24.073Z</time>
      </trkpt>
      <trkpt lat="45.55086" lon="6.05874">
        <ele>1603</ele>
        <time>2021-06-27T12:45:25.073Z</time>
      </trkpt>
      <trkpt lat="45.55085" lon="6.05874">
        <ele>1602</ele>
        <time>2021-06-27T12:45:26.073Z</time>
      </trkpt>
      <trkpt lat="45.55084" lon="6.05873">
        <ele>1602</ele>
        <time>2021-06-27T12:45:27.073Z</time>
      </trkpt>
      <trkpt lat="45.55084" lon="6.05872">
        <ele>1602</ele>
        <time>2021-06-27T12:45:28.074Z</time>
      </trkpt>
      <trkpt lat="45.55083" lon="6.05871">
        <ele>1602</ele>
        <time>2021-06-27T12:45:29.074Z</time>
      </trkpt>
      <trkpt lat="45.55082" lon="6.0587">
        <ele>1602</ele>
        <time>2021-06-27T12:45:30.073Z</time>
      </trkpt>
      <trkpt lat="45.55081" lon="6.05869">
        <ele>1603</ele>
        <time>2021-06-27T12:45:31.074Z</time>
      </trkpt>
      <trkpt lat="45.5508" lon="6.05869">
        <ele>1603</ele>
        <time>2021-06-27T12:45:32.074Z</time>
      </trkpt>
      <trkpt lat="45.55079" lon="6.05868">
        <ele>1603</ele>
        <time>2021-06-27T12:45:33.074Z</time>
      </trkpt>
      <trkpt lat="45.55078" lon="6.05868">
        <ele>1602</ele>
        <time>2021-06-27T12:45:34.074Z</time>
      </trkpt>
      <trkpt lat="45.55077" lon="6.05868">
        <ele>1602</ele>
        <time>2021-06-27T12:45:35.073Z</time>
      </trkpt>
      <trkpt lat="45.55076" lon="6.05867">
        <ele>1602</ele>
        <time>2021-06-27T12:45:36.074Z</time>
      </trkpt>
      <trkpt lat="45.55075" lon="6.05867">
        <ele>1601</ele>
        <time>2021-06-27T12:45:37.074Z</time>
      </trkpt>
      <trkpt lat="45.55074" lon="6.05867">
        <ele>1601</ele>
        <time>2021-06-27T12:45:38.074Z</time>
      </trkpt>
      <trkpt lat="45.55073" lon="6.05866">
        <ele>1601</ele>
        <time>2021-06-27T12:45:39.074Z</time>
      </trkpt>
      <trkpt lat="45.55071" lon="6.05865">
        <ele>1600</ele>
        <time>2021-06-27T12:45:40.074Z</time>
      </trkpt>
      <trkpt lat="45.5507" lon="6.05865">
        <ele>1600</ele>
        <time>2021-06-27T12:45:41.074Z</time>
      </trkpt>
      <trkpt lat="45.55069" lon="6.05864">
        <ele>1600</ele>
        <time>2021-06-27T12:45:42.074Z</time>
      </trkpt>
      <trkpt lat="45.55068" lon="6.05864">
        <ele>1600</ele>
        <time>2021-06-27T12:45:43.074Z</time>
      </trkpt>
      <trkpt lat="45.55066" lon="6.05863">
        <ele>1600</ele>
        <time>2021-06-27T12:45:44.074Z</time>
      </trkpt>
      <trkpt lat="45.55065" lon="6.05862">
        <ele>1600</ele>
        <time>2021-06-27T12:45:45.074Z</time>
      </trkpt>
      <trkpt lat="45.55064" lon="6.05861">
        <ele>1600</ele>
        <time>2021-06-27T12:45:46.073Z</time>
      </trkpt>
      <trkpt lat="45.55063" lon="6.0586">
        <ele>1599</ele>
        <time>2021-06-27T12:45:47.074Z</time>
      </trkpt>
      <trkpt lat="45.55062" lon="6.05859">
        <ele>1599</ele>
        <time>2021-06-27T12:45:48.073Z</time>
      </trkpt>
      <trkpt lat="45.55061" lon="6.05858">
        <ele>1599</ele>
        <time>2021-06-27T12:45:49.074Z</time>
      </trkpt>
      <trkpt lat="45.5506" lon="6.05857">
        <ele>1598</ele>
        <time>2021-06-27T12:45:50.074Z</time>
      </trkpt>
      <trkpt lat="45.55059" lon="6.05856">
        <ele>1598</ele>
        <time>2021-06-27T12:45:51.074Z</time>
      </trkpt>
      <trkpt lat="45.55058" lon="6.05855">
        <ele>1598</ele>
        <time>2021-06-27T12:45:52.074Z</time>
      </trkpt>
      <trkpt lat="45.55057" lon="6.05853">
        <ele>1598</ele>
        <time>2021-06-27T12:45:53.074Z</time>
      </trkpt>
      <trkpt lat="45.55056" lon="6.05852">
        <ele>1598</ele>
        <time>2021-06-27T12:45:54.074Z</time>
      </trkpt>
      <trkpt lat="45.55056" lon="6.05851">
        <ele>1598</ele>
        <time>2021-06-27T12:45:55.074Z</time>
      </trkpt>
      <trkpt lat="45.55056" lon="6.05851">
        <ele>1598</ele>
        <time>2021-06-27T12:45:56.073Z</time>
      </trkpt>
      <trkpt lat="45.55055" lon="6.0585">
        <ele>1598</ele>
        <time>2021-06-27T12:45:57.074Z</time>
      </trkpt>
      <trkpt lat="45.55055" lon="6.0585">
        <ele>1598</ele>
        <time>2021-06-27T12:45:58.074Z</time>
      </trkpt>
      <trkpt lat="45.55055" lon="6.0585">
        <ele>1598</ele>
        <time>2021-06-27T12:45:59.074Z</time>
      </trkpt>
      <trkpt lat="45.55055" lon="6.0585">
        <ele>1598</ele>
        <time>2021-06-27T12:46:00.074Z</time>
      </trkpt>
      <trkpt lat="45.55055" lon="6.0585">
        <ele>1598</ele>
        <time>2021-06-27T12:46:01.074Z</time>
      </trkpt>
      <trkpt lat="45.55055" lon="6.0585">
        <ele>1599</ele>
        <time>2021-06-27T12:46:02.074Z</time>
      </trkpt>
      <trkpt lat="45.55055" lon="6.0585">
        <ele>1599</ele>
        <time>2021-06-27T12:46:03.073Z</time>
      </trkpt>
      <trkpt lat="45.55055" lon="6.0585">
        <ele>1598</ele>
        <time>2021-06-27T12:46:04.073Z</time>
      </trkpt>
      <trkpt lat="45.55055" lon="6.05849">
        <ele>1598</ele>
        <time>2021-06-27T12:46:05.074Z</time>
      </trkpt>
      <trkpt lat="45.55055" lon="6.0585">
        <ele>1598</ele>
        <time>2021-06-27T12:46:06.074Z</time>
      </trkpt>
      <trkpt lat="45.55055" lon="6.0585">
        <ele>1597</ele>
        <time>2021-06-27T12:46:07.073Z</time>
      </trkpt>
      <trkpt lat="45.55055" lon="6.0585">
        <ele>1597</ele>
        <time>2021-06-27T12:46:08.074Z</time>
      </trkpt>
      <trkpt lat="45.55054" lon="6.0585">
        <ele>1597</ele>
        <time>2021-06-27T12:46:09.074Z</time>
      </trkpt>
      <trkpt lat="45.55055" lon="6.0585">
        <ele>1597</ele>
        <time>2021-06-27T12:46:10.073Z</time>
      </trkpt>
      <trkpt lat="45.55055" lon="6.0585">
        <ele>1597</ele>
        <time>2021-06-27T12:46:11.073Z</time>
      </trkpt>
      <trkpt lat="45.55055" lon="6.0585">
        <ele>1597</ele>
        <time>2021-06-27T12:46:12.074Z</time>
      </trkpt>
      <trkpt lat="45.55055" lon="6.0585">
        <ele>1597</ele>
        <time>2021-06-27T12:46:13.074Z</time>
      </trkpt>
      <trkpt lat="45.55054" lon="6.0585">
        <ele>1597</ele>
        <time>2021-06-27T12:46:14.074Z</time>
      </trkpt>
      <trkpt lat="45.55054" lon="6.0585">
        <ele>1597</ele>
        <time>2021-06-27T12:46:15.074Z</time>
      </trkpt>
      <trkpt lat="45.55054" lon="6.0585">
        <ele>1597</ele>
        <time>2021-06-27T12:46:16.074Z</time>
      </trkpt>
      <trkpt lat="45.55054" lon="6.0585">
        <ele>1596</ele>
        <time>2021-06-27T12:46:17.074Z</time>
      </trkpt>
      <trkpt lat="45.55054" lon="6.0585">
        <ele>1596</ele>
        <time>2021-06-27T12:46:18.074Z</time>
      </trkpt>
      <trkpt lat="45.55054" lon="6.0585">
        <ele>1596</ele>
        <time>2021-06-27T12:46:19.073Z</time>
      </trkpt>
      <trkpt lat="45.55054" lon="6.05851">
        <ele>1596</ele>
        <time>2021-06-27T12:46:20.074Z</time>
      </trkpt>
      <trkpt lat="45.55054" lon="6.05851">
        <ele>1596</ele>
        <time>2021-06-27T12:46:21.074Z</time>
      </trkpt>
      <trkpt lat="45.55054" lon="6.0585">
        <ele>1597</ele>
        <time>2021-06-27T12:46:22.074Z</time>
      </trkpt>
      <trkpt lat="45.55054" lon="6.0585">
        <ele>1597</ele>
        <time>2021-06-27T12:46:23.074Z</time>
      </trkpt>
      <trkpt lat="45.55054" lon="6.0585">
        <ele>1598</ele>
        <time>2021-06-27T12:46:24.074Z</time>
      </trkpt>
      <trkpt lat="45.55054" lon="6.05849">
        <ele>1598</ele>
        <time>2021-06-27T12:46:25.074Z</time>
      </trkpt>
      <trkpt lat="45.55054" lon="6.05848">
        <ele>1598</ele>
        <time>2021-06-27T12:46:26.074Z</time>
      </trkpt>
      <trkpt lat="45.55054" lon="6.05848">
        <ele>1599</ele>
        <time>2021-06-27T12:46:27.074Z</time>
      </trkpt>
      <trkpt lat="45.55054" lon="6.05848">
        <ele>1598</ele>
        <time>2021-06-27T12:46:28.073Z</time>
      </trkpt>
      <trkpt lat="45.55054" lon="6.05849">
        <ele>1598</ele>
        <time>2021-06-27T12:46:29.074Z</time>
      </trkpt>
      <trkpt lat="45.55055" lon="6.05849">
        <ele>1598</ele>
        <time>2021-06-27T12:46:30.073Z</time>
      </trkpt>
      <trkpt lat="45.55054" lon="6.05849">
        <ele>1598</ele>
        <time>2021-06-27T12:46:31.073Z</time>
      </trkpt>
      <trkpt lat="45.55053" lon="6.0585">
        <ele>1598</ele>
        <time>2021-06-27T12:46:32.074Z</time>
      </trkpt>
      <trkpt lat="45.55053" lon="6.05849">
        <ele>1598</ele>
        <time>2021-06-27T12:46:33.074Z</time>
      </trkpt>
      <trkpt lat="45.55053" lon="6.05849">
        <ele>1598</ele>
        <time>2021-06-27T12:46:34.073Z</time>
      </trkpt>
      <trkpt lat="45.55053" lon="6.05849">
        <ele>1598</ele>
        <time>2021-06-27T12:46:35.074Z</time>
      </trkpt>
      <trkpt lat="45.55053" lon="6.05849">
        <ele>1598</ele>
        <time>2021-06-27T12:46:36.074Z</time>
      </trkpt>
      <trkpt lat="45.55054" lon="6.05849">
        <ele>1597</ele>
        <time>2021-06-27T12:46:37.074Z</time>
      </trkpt>
      <trkpt lat="45.55054" lon="6.05848">
        <ele>1597</ele>
        <time>2021-06-27T12:46:38.073Z</time>
      </trkpt>
      <trkpt lat="45.55054" lon="6.05848">
        <ele>1597</ele>
        <time>2021-06-27T12:46:39.074Z</time>
      </trkpt>
      <trkpt lat="45.55053" lon="6.05849">
        <ele>1597</ele>
        <time>2021-06-27T12:46:40.074Z</time>
      </trkpt>
      <trkpt lat="45.55054" lon="6.05849">
        <ele>1597</ele>
        <time>2021-06-27T12:46:41.074Z</time>
      </trkpt>
      <trkpt lat="45.55053" lon="6.05849">
        <ele>1597</ele>
        <time>2021-06-27T12:46:42.074Z</time>
      </trkpt>
      <trkpt lat="45.55053" lon="6.05849">
        <ele>1597</ele>
        <time>2021-06-27T12:46:43.073Z</time>
      </trkpt>
      <trkpt lat="45.55053" lon="6.05849">
        <ele>1597</ele>
        <time>2021-06-27T12:46:44.074Z</time>
      </trkpt>
      <trkpt lat="45.55053" lon="6.05848">
        <ele>1597</ele>
        <time>2021-06-27T12:46:45.074Z</time>
      </trkpt>
      <trkpt lat="45.55053" lon="6.05848">
        <ele>1598</ele>
        <time>2021-06-27T12:46:46.074Z</time>
      </trkpt>
      <trkpt lat="45.55053" lon="6.05847">
        <ele>1598</ele>
        <time>2021-06-27T12:46:47.073Z</time>
      </trkpt>
      <trkpt lat="45.55053" lon="6.05847">
        <ele>1598</ele>
        <time>2021-06-27T12:46:48.074Z</time>
      </trkpt>
      <trkpt lat="45.55053" lon="6.05847">
        <ele>1599</ele>
        <time>2021-06-27T12:46:49.074Z</time>
      </trkpt>
      <trkpt lat="45.55053" lon="6.05847">
        <ele>1599</ele>
        <time>2021-06-27T12:46:50.074Z</time>
      </trkpt>
      <trkpt lat="45.55053" lon="6.05847">
        <ele>1599</ele>
        <time>2021-06-27T12:46:51.073Z</time>
      </trkpt>
      <trkpt lat="45.55053" lon="6.05847">
        <ele>1599</ele>
        <time>2021-06-27T12:46:52.073Z</time>
      </trkpt>
      <trkpt lat="45.55053" lon="6.05847">
        <ele>1599</ele>
        <time>2021-06-27T12:46:53.074Z</time>
      </trkpt>
      <trkpt lat="45.55053" lon="6.05848">
        <ele>1599</ele>
        <time>2021-06-27T12:46:54.073Z</time>
      </trkpt>
      <trkpt lat="45.55053" lon="6.05848">
        <ele>1599</ele>
        <time>2021-06-27T12:46:55.073Z</time>
      </trkpt>
      <trkpt lat="45.55053" lon="6.05848">
        <ele>1599</ele>
        <time>2021-06-27T12:46:56.073Z</time>
      </trkpt>
      <trkpt lat="45.55053" lon="6.05847">
        <ele>1599</ele>
        <time>2021-06-27T12:46:57.074Z</time>
      </trkpt>
      <trkpt lat="45.55053" lon="6.05847">
        <ele>1599</ele>
        <time>2021-06-27T12:46:58.074Z</time>
      </trkpt>
      <trkpt lat="45.55053" lon="6.05847">
        <ele>1600</ele>
        <time>2021-06-27T12:46:59.074Z</time>
      </trkpt>
      <trkpt lat="45.55052" lon="6.05847">
        <ele>1600</ele>
        <time>2021-06-27T12:47:00.074Z</time>
      </trkpt>
      <trkpt lat="45.55052" lon="6.05847">
        <ele>1600</ele>
        <time>2021-06-27T12:47:01.074Z</time>
      </trkpt>
      <trkpt lat="45.55052" lon="6.05847">
        <ele>1600</ele>
        <time>2021-06-27T12:47:02.074Z</time>
      </trkpt>
      <trkpt lat="45.55052" lon="6.05847">
        <ele>1600</ele>
        <time>2021-06-27T12:47:03.074Z</time>
      </trkpt>
      <trkpt lat="45.55052" lon="6.05847">
        <ele>1600</ele>
        <time>2021-06-27T12:47:04.073Z</time>
      </trkpt>
      <trkpt lat="45.55052" lon="6.05846">
        <ele>1600</ele>
        <time>2021-06-27T12:47:05.074Z</time>
      </trkpt>
      <trkpt lat="45.55052" lon="6.05846">
        <ele>1600</ele>
        <time>2021-06-27T12:47:06.074Z</time>
      </trkpt>
      <trkpt lat="45.55052" lon="6.05846">
        <ele>1600</ele>
        <time>2021-06-27T12:47:07.074Z</time>
      </trkpt>
      <trkpt lat="45.55053" lon="6.05846">
        <ele>1601</ele>
        <time>2021-06-27T12:47:08.073Z</time>
      </trkpt>
      <trkpt lat="45.55053" lon="6.05846">
        <ele>1600</ele>
        <time>2021-06-27T12:47:09.073Z</time>
      </trkpt>
      <trkpt lat="45.55053" lon="6.05846">
        <ele>1600</ele>
        <time>2021-06-27T12:47:10.073Z</time>
      </trkpt>
      <trkpt lat="45.55053" lon="6.05846">
        <ele>1600</ele>
        <time>2021-06-27T12:47:11.074Z</time>
      </trkpt>
      <trkpt lat="45.55052" lon="6.05845">
        <ele>1600</ele>
        <time>2021-06-27T12:47:12.074Z</time>
      </trkpt>
      <trkpt lat="45.55052" lon="6.05845">
        <ele>1601</ele>
        <time>2021-06-27T12:47:13.074Z</time>
      </trkpt>
      <trkpt lat="45.55052" lon="6.05845">
        <ele>1601</ele>
        <time>2021-06-27T12:47:14.073Z</time>
      </trkpt>
      <trkpt lat="45.55053" lon="6.05845">
        <ele>1600</ele>
        <time>2021-06-27T12:47:15.073Z</time>
      </trkpt>
      <trkpt lat="45.55053" lon="6.05845">
        <ele>1600</ele>
        <time>2021-06-27T12:47:16.074Z</time>
      </trkpt>
      <trkpt lat="45.55053" lon="6.05845">
        <ele>1600</ele>
        <time>2021-06-27T12:47:17.074Z</time>
      </trkpt>
      <trkpt lat="45.55053" lon="6.05845">
        <ele>1599</ele>
        <time>2021-06-27T12:47:18.074Z</time>
      </trkpt>
      <trkpt lat="45.55052" lon="6.05845">
        <ele>1599</ele>
        <time>2021-06-27T12:47:19.074Z</time>
      </trkpt>
      <trkpt lat="45.55052" lon="6.05845">
        <ele>1598</ele>
        <time>2021-06-27T12:47:20.074Z</time>
      </trkpt>
      <trkpt lat="45.55052" lon="6.05844">
        <ele>1598</ele>
        <time>2021-06-27T12:47:21.073Z</time>
      </trkpt>
      <trkpt lat="45.55052" lon="6.05843">
        <ele>1598</ele>
        <time>2021-06-27T12:47:22.073Z</time>
      </trkpt>
      <trkpt lat="45.55052" lon="6.05843">
        <ele>1597</ele>
        <time>2021-06-27T12:47:23.073Z</time>
      </trkpt>
      <trkpt lat="45.55051" lon="6.05842">
        <ele>1597</ele>
        <time>2021-06-27T12:47:24.074Z</time>
      </trkpt>
      <trkpt lat="45.55051" lon="6.05842">
        <ele>1597</ele>
        <time>2021-06-27T12:47:25.074Z</time>
      </trkpt>
      <trkpt lat="45.55051" lon="6.05841">
        <ele>1597</ele>
        <time>2021-06-27T12:47:26.074Z</time>
      </trkpt>
      <trkpt lat="45.5505" lon="6.0584">
        <ele>1597</ele>
        <time>2021-06-27T12:47:27.074Z</time>
      </trkpt>
      <trkpt lat="45.5505" lon="6.05839">
        <ele>1598</ele>
        <time>2021-06-27T12:47:28.074Z</time>
      </trkpt>
      <trkpt lat="45.5505" lon="6.05838">
        <ele>1598</ele>
        <time>2021-06-27T12:47:29.074Z</time>
      </trkpt>
      <trkpt lat="45.5505" lon="6.05838">
        <ele>1597</ele>
        <time>2021-06-27T12:47:30.074Z</time>
      </trkpt>
      <trkpt lat="45.5505" lon="6.05837">
        <ele>1597</ele>
        <time>2021-06-27T12:47:31.073Z</time>
      </trkpt>
      <trkpt lat="45.5505" lon="6.05836">
        <ele>1596</ele>
        <time>2021-06-27T12:47:32.074Z</time>
      </trkpt>
      <trkpt lat="45.5505" lon="6.05835">
        <ele>1596</ele>
        <time>2021-06-27T12:47:33.074Z</time>
      </trkpt>
      <trkpt lat="45.5505" lon="6.05834">
        <ele>1596</ele>
        <time>2021-06-27T12:47:34.073Z</time>
      </trkpt>
      <trkpt lat="45.55049" lon="6.05833">
        <ele>1596</ele>
        <time>2021-06-27T12:47:35.074Z</time>
      </trkpt>
      <trkpt lat="45.55049" lon="6.05833">
        <ele>1596</ele>
        <time>2021-06-27T12:47:36.073Z</time>
      </trkpt>
      <trkpt lat="45.5505" lon="6.05832">
        <ele>1596</ele>
        <time>2021-06-27T12:47:37.074Z</time>
      </trkpt>
      <trkpt lat="45.5505" lon="6.05832">
        <ele>1596</ele>
        <time>2021-06-27T12:47:38.074Z</time>
      </trkpt>
      <trkpt lat="45.5505" lon="6.05831">
        <ele>1596</ele>
        <time>2021-06-27T12:47:39.074Z</time>
      </trkpt>
      <trkpt lat="45.5505" lon="6.05831">
        <ele>1596</ele>
        <time>2021-06-27T12:47:40.074Z</time>
      </trkpt>
      <trkpt lat="45.5505" lon="6.0583">
        <ele>1597</ele>
        <time>2021-06-27T12:47:41.073Z</time>
      </trkpt>
      <trkpt lat="45.5505" lon="6.05829">
        <ele>1597</ele>
        <time>2021-06-27T12:47:42.074Z</time>
      </trkpt>
      <trkpt lat="45.5505" lon="6.05829">
        <ele>1598</ele>
        <time>2021-06-27T12:47:43.074Z</time>
      </trkpt>
      <trkpt lat="45.5505" lon="6.05828">
        <ele>1598</ele>
        <time>2021-06-27T12:47:44.074Z</time>
      </trkpt>
      <trkpt lat="45.5505" lon="6.05828">
        <ele>1598</ele>
        <time>2021-06-27T12:47:45.074Z</time>
      </trkpt>
      <trkpt lat="45.5505" lon="6.05828">
        <ele>1598</ele>
        <time>2021-06-27T12:47:46.074Z</time>
      </trkpt>
      <trkpt lat="45.55049" lon="6.05828">
        <ele>1598</ele>
        <time>2021-06-27T12:47:47.074Z</time>
      </trkpt>
      <trkpt lat="45.55049" lon="6.05828">
        <ele>1598</ele>
        <time>2021-06-27T12:47:48.074Z</time>
      </trkpt>
      <trkpt lat="45.55049" lon="6.05828">
        <ele>1597</ele>
        <time>2021-06-27T12:47:49.074Z</time>
      </trkpt>
      <trkpt lat="45.55049" lon="6.05828">
        <ele>1597</ele>
        <time>2021-06-27T12:47:50.073Z</time>
      </trkpt>
      <trkpt lat="45.55049" lon="6.05828">
        <ele>1596</ele>
        <time>2021-06-27T12:47:51.073Z</time>
      </trkpt>
      <trkpt lat="45.55049" lon="6.05828">
        <ele>1596</ele>
        <time>2021-06-27T12:47:52.074Z</time>
      </trkpt>
      <trkpt lat="45.55049" lon="6.05828">
        <ele>1596</ele>
        <time>2021-06-27T12:47:53.073Z</time>
      </trkpt>
      <trkpt lat="45.55049" lon="6.05828">
        <ele>1595</ele>
        <time>2021-06-27T12:47:54.073Z</time>
      </trkpt>
      <trkpt lat="45.55048" lon="6.05828">
        <ele>1595</ele>
        <time>2021-06-27T12:47:55.074Z</time>
      </trkpt>
      <trkpt lat="45.55048" lon="6.05828">
        <ele>1595</ele>
        <time>2021-06-27T12:47:56.073Z</time>
      </trkpt>
      <trkpt lat="45.55048" lon="6.05828">
        <ele>1595</ele>
        <time>2021-06-27T12:47:57.074Z</time>
      </trkpt>
      <trkpt lat="45.55049" lon="6.05828">
        <ele>1595</ele>
        <time>2021-06-27T12:47:58.074Z</time>
      </trkpt>
      <trkpt lat="45.55049" lon="6.05828">
        <ele>1595</ele>
        <time>2021-06-27T12:47:59.074Z</time>
      </trkpt>
      <trkpt lat="45.55049" lon="6.05829">
        <ele>1595</ele>
        <time>2021-06-27T12:48:00.074Z</time>
      </trkpt>
      <trkpt lat="45.55049" lon="6.05829">
        <ele>1595</ele>
        <time>2021-06-27T12:48:01.074Z</time>
      </trkpt>
      <trkpt lat="45.55049" lon="6.05829">
        <ele>1595</ele>
        <time>2021-06-27T12:48:02.073Z</time>
      </trkpt>
      <trkpt lat="45.55049" lon="6.05828">
        <ele>1595</ele>
        <time>2021-06-27T12:48:03.074Z</time>
      </trkpt>
      <trkpt lat="45.55048" lon="6.05828">
        <ele>1595</ele>
        <time>2021-06-27T12:48:04.073Z</time>
      </trkpt>
      <trkpt lat="45.55048" lon="6.05827">
        <ele>1595</ele>
        <time>2021-06-27T12:48:05.073Z</time>
      </trkpt>
      <trkpt lat="45.55048" lon="6.05827">
        <ele>1595</ele>
        <time>2021-06-27T12:48:06.073Z</time>
      </trkpt>
      <trkpt lat="45.55048" lon="6.05826">
        <ele>1595</ele>
        <time>2021-06-27T12:48:07.074Z</time>
      </trkpt>
      <trkpt lat="45.55048" lon="6.05826">
        <ele>1595</ele>
        <time>2021-06-27T12:48:08.074Z</time>
      </trkpt>
      <trkpt lat="45.55048" lon="6.05826">
        <ele>1595</ele>
        <time>2021-06-27T12:48:09.073Z</time>
      </trkpt>
      <trkpt lat="45.55048" lon="6.05826">
        <ele>1594</ele>
        <time>2021-06-27T12:48:10.074Z</time>
      </trkpt>
      <trkpt lat="45.55048" lon="6.05825">
        <ele>1594</ele>
        <time>2021-06-27T12:48:11.073Z</time>
      </trkpt>
      <trkpt lat="45.55048" lon="6.05825">
        <ele>1593</ele>
        <time>2021-06-27T12:48:12.074Z</time>
      </trkpt>
      <trkpt lat="45.55048" lon="6.05825">
        <ele>1593</ele>
        <time>2021-06-27T12:48:13.074Z</time>
      </trkpt>
      <trkpt lat="45.55048" lon="6.05825">
        <ele>1593</ele>
        <time>2021-06-27T12:48:14.074Z</time>
      </trkpt>
      <trkpt lat="45.55048" lon="6.05825">
        <ele>1593</ele>
        <time>2021-06-27T12:48:15.073Z</time>
      </trkpt>
      <trkpt lat="45.55048" lon="6.05825">
        <ele>1594</ele>
        <time>2021-06-27T12:48:16.074Z</time>
      </trkpt>
      <trkpt lat="45.55048" lon="6.05825">
        <ele>1594</ele>
        <time>2021-06-27T12:48:17.074Z</time>
      </trkpt>
      <trkpt lat="45.55047" lon="6.05825">
        <ele>1595</ele>
        <time>2021-06-27T12:48:18.073Z</time>
      </trkpt>
      <trkpt lat="45.55047" lon="6.05825">
        <ele>1595</ele>
        <time>2021-06-27T12:48:19.073Z</time>
      </trkpt>
      <trkpt lat="45.55047" lon="6.05824">
        <ele>1595</ele>
        <time>2021-06-27T12:48:20.074Z</time>
      </trkpt>
      <trkpt lat="45.55047" lon="6.05823">
        <ele>1595</ele>
        <time>2021-06-27T12:48:21.074Z</time>
      </trkpt>
      <trkpt lat="45.55047" lon="6.05821">
        <ele>1595</ele>
        <time>2021-06-27T12:48:22.073Z</time>
      </trkpt>
      <trkpt lat="45.55047" lon="6.05821">
        <ele>1594</ele>
        <time>2021-06-27T12:48:23.074Z</time>
      </trkpt>
      <trkpt lat="45.55047" lon="6.05821">
        <ele>1594</ele>
        <time>2021-06-27T12:48:24.074Z</time>
      </trkpt>
      <trkpt lat="45.55047" lon="6.05821">
        <ele>1594</ele>
        <time>2021-06-27T12:48:25.074Z</time>
      </trkpt>
      <trkpt lat="45.55047" lon="6.0582">
        <ele>1593</ele>
        <time>2021-06-27T12:48:26.074Z</time>
      </trkpt>
      <trkpt lat="45.55047" lon="6.0582">
        <ele>1593</ele>
        <time>2021-06-27T12:48:27.074Z</time>
      </trkpt>
      <trkpt lat="45.55047" lon="6.0582">
        <ele>1594</ele>
        <time>2021-06-27T12:48:28.074Z</time>
      </trkpt>
      <trkpt lat="45.55046" lon="6.05819">
        <ele>1594</ele>
        <time>2021-06-27T12:48:29.073Z</time>
      </trkpt>
      <trkpt lat="45.55046" lon="6.05818">
        <ele>1594</ele>
        <time>2021-06-27T12:48:30.074Z</time>
      </trkpt>
      <trkpt lat="45.55045" lon="6.05816">
        <ele>1595</ele>
        <time>2021-06-27T12:48:31.073Z</time>
      </trkpt>
      <trkpt lat="45.55045" lon="6.05814">
        <ele>1595</ele>
        <time>2021-06-27T12:48:32.074Z</time>
      </trkpt>
      <trkpt lat="45.55045" lon="6.05813">
        <ele>1594</ele>
        <time>2021-06-27T12:48:33.074Z</time>
      </trkpt>
      <trkpt lat="45.55045" lon="6.05812">
        <ele>1594</ele>
        <time>2021-06-27T12:48:34.073Z</time>
      </trkpt>
      <trkpt lat="45.55045" lon="6.0581">
        <ele>1594</ele>
        <time>2021-06-27T12:48:35.073Z</time>
      </trkpt>
      <trkpt lat="45.55044" lon="6.05809">
        <ele>1594</ele>
        <time>2021-06-27T12:48:36.074Z</time>
      </trkpt>
      <trkpt lat="45.55044" lon="6.05807">
        <ele>1594</ele>
        <time>2021-06-27T12:48:37.074Z</time>
      </trkpt>
      <trkpt lat="45.55044" lon="6.05806">
        <ele>1594</ele>
        <time>2021-06-27T12:48:38.074Z</time>
      </trkpt>
      <trkpt lat="45.55044" lon="6.05804">
        <ele>1594</ele>
        <time>2021-06-27T12:48:39.073Z</time>
      </trkpt>
      <trkpt lat="45.55044" lon="6.05803">
        <ele>1594</ele>
        <time>2021-06-27T12:48:40.074Z</time>
      </trkpt>
      <trkpt lat="45.55045" lon="6.05801">
        <ele>1594</ele>
        <time>2021-06-27T12:48:41.074Z</time>
      </trkpt>
      <trkpt lat="45.55045" lon="6.058">
        <ele>1593</ele>
        <time>2021-06-27T12:48:42.074Z</time>
      </trkpt>
      <trkpt lat="45.55045" lon="6.05798">
        <ele>1594</ele>
        <time>2021-06-27T12:48:43.074Z</time>
      </trkpt>
      <trkpt lat="45.55045" lon="6.05797">
        <ele>1594</ele>
        <time>2021-06-27T12:48:44.074Z</time>
      </trkpt>
      <trkpt lat="45.55046" lon="6.05796">
        <ele>1594</ele>
        <time>2021-06-27T12:48:45.074Z</time>
      </trkpt>
      <trkpt lat="45.55046" lon="6.05795">
        <ele>1594</ele>
        <time>2021-06-27T12:48:46.074Z</time>
      </trkpt>
      <trkpt lat="45.55046" lon="6.05793">
        <ele>1594</ele>
        <time>2021-06-27T12:48:47.073Z</time>
      </trkpt>
      <trkpt lat="45.55047" lon="6.05793">
        <ele>1594</ele>
        <time>2021-06-27T12:48:48.074Z</time>
      </trkpt>
      <trkpt lat="45.55048" lon="6.05792">
        <ele>1594</ele>
        <time>2021-06-27T12:48:49.074Z</time>
      </trkpt>
      <trkpt lat="45.55048" lon="6.05792">
        <ele>1594</ele>
        <time>2021-06-27T12:48:50.074Z</time>
      </trkpt>
      <trkpt lat="45.55049" lon="6.05791">
        <ele>1594</ele>
        <time>2021-06-27T12:48:51.074Z</time>
      </trkpt>
      <trkpt lat="45.55049" lon="6.0579">
        <ele>1594</ele>
        <time>2021-06-27T12:48:52.073Z</time>
      </trkpt>
      <trkpt lat="45.55049" lon="6.0579">
        <ele>1594</ele>
        <time>2021-06-27T12:48:53.074Z</time>
      </trkpt>
      <trkpt lat="45.55049" lon="6.0579">
        <ele>1594</ele>
        <time>2021-06-27T12:48:54.074Z</time>
      </trkpt>
      <trkpt lat="45.55049" lon="6.0579">
        <ele>1594</ele>
        <time>2021-06-27T12:48:55.074Z</time>
      </trkpt>
      <trkpt lat="45.55049" lon="6.0579">
        <ele>1594</ele>
        <time>2021-06-27T12:48:56.074Z</time>
      </trkpt>
      <trkpt lat="45.55049" lon="6.0579">
        <ele>1594</ele>
        <time>2021-06-27T12:48:57.074Z</time>
      </trkpt>
      <trkpt lat="45.55049" lon="6.0579">
        <ele>1594</ele>
        <time>2021-06-27T12:48:58.074Z</time>
      </trkpt>
      <trkpt lat="45.55049" lon="6.0579">
        <ele>1595</ele>
        <time>2021-06-27T12:48:59.074Z</time>
      </trkpt>
      <trkpt lat="45.55049" lon="6.0579">
        <ele>1595</ele>
        <time>2021-06-27T12:49:00.074Z</time>
      </trkpt>
      <trkpt lat="45.55049" lon="6.0579">
        <ele>1596</ele>
        <time>2021-06-27T12:49:01.074Z</time>
      </trkpt>
      <trkpt lat="45.55049" lon="6.0579">
        <ele>1596</ele>
        <time>2021-06-27T12:49:02.074Z</time>
      </trkpt>
      <trkpt lat="45.55049" lon="6.0579">
        <ele>1597</ele>
        <time>2021-06-27T12:49:03.074Z</time>
      </trkpt>
      <trkpt lat="45.55048" lon="6.0579">
        <ele>1597</ele>
        <time>2021-06-27T12:49:04.074Z</time>
      </trkpt>
      <trkpt lat="45.55048" lon="6.05791">
        <ele>1597</ele>
        <time>2021-06-27T12:49:05.074Z</time>
      </trkpt>
      <trkpt lat="45.55048" lon="6.05791">
        <ele>1597</ele>
        <time>2021-06-27T12:49:06.074Z</time>
      </trkpt>
      <trkpt lat="45.55048" lon="6.05791">
        <ele>1597</ele>
        <time>2021-06-27T12:49:07.073Z</time>
      </trkpt>
      <trkpt lat="45.55048" lon="6.05792">
        <ele>1597</ele>
        <time>2021-06-27T12:49:08.073Z</time>
      </trkpt>
      <trkpt lat="45.55047" lon="6.05792">
        <ele>1597</ele>
        <time>2021-06-27T12:49:09.074Z</time>
      </trkpt>
      <trkpt lat="45.55047" lon="6.05792">
        <ele>1597</ele>
        <time>2021-06-27T12:49:10.074Z</time>
      </trkpt>
      <trkpt lat="45.55047" lon="6.05792">
        <ele>1597</ele>
        <time>2021-06-27T12:49:11.074Z</time>
      </trkpt>
      <trkpt lat="45.55048" lon="6.05792">
        <ele>1598</ele>
        <time>2021-06-27T12:49:12.074Z</time>
      </trkpt>
      <trkpt lat="45.55048" lon="6.05792">
        <ele>1598</ele>
        <time>2021-06-27T12:49:13.073Z</time>
      </trkpt>
      <trkpt lat="45.55048" lon="6.05793">
        <ele>1598</ele>
        <time>2021-06-27T12:49:14.073Z</time>
      </trkpt>
      <trkpt lat="45.55048" lon="6.05793">
        <ele>1598</ele>
        <time>2021-06-27T12:49:15.074Z</time>
      </trkpt>
      <trkpt lat="45.55048" lon="6.05793">
        <ele>1598</ele>
        <time>2021-06-27T12:49:16.073Z</time>
      </trkpt>
      <trkpt lat="45.55048" lon="6.05793">
        <ele>1598</ele>
        <time>2021-06-27T12:49:17.074Z</time>
      </trkpt>
      <trkpt lat="45.55047" lon="6.05793">
        <ele>1598</ele>
        <time>2021-06-27T12:49:18.074Z</time>
      </trkpt>
      <trkpt lat="45.55048" lon="6.05793">
        <ele>1598</ele>
        <time>2021-06-27T12:49:19.073Z</time>
      </trkpt>
      <trkpt lat="45.55047" lon="6.05794">
        <ele>1598</ele>
        <time>2021-06-27T12:49:20.074Z</time>
      </trkpt>
      <trkpt lat="45.55047" lon="6.05794">
        <ele>1598</ele>
        <time>2021-06-27T12:49:21.074Z</time>
      </trkpt>
      <trkpt lat="45.55047" lon="6.05794">
        <ele>1598</ele>
        <time>2021-06-27T12:49:22.074Z</time>
      </trkpt>
      <trkpt lat="45.55047" lon="6.05795">
        <ele>1598</ele>
        <time>2021-06-27T12:49:23.073Z</time>
      </trkpt>
      <trkpt lat="45.55046" lon="6.05796">
        <ele>1598</ele>
        <time>2021-06-27T12:49:24.074Z</time>
      </trkpt>
      <trkpt lat="45.55045" lon="6.05797">
        <ele>1598</ele>
        <time>2021-06-27T12:49:25.073Z</time>
      </trkpt>
      <trkpt lat="45.55044" lon="6.05797">
        <ele>1598</ele>
        <time>2021-06-27T12:49:26.074Z</time>
      </trkpt>
      <trkpt lat="45.55043" lon="6.05797">
        <ele>1598</ele>
        <time>2021-06-27T12:49:27.074Z</time>
      </trkpt>
      <trkpt lat="45.55042" lon="6.05797">
        <ele>1598</ele>
        <time>2021-06-27T12:49:28.073Z</time>
      </trkpt>
      <trkpt lat="45.55041" lon="6.05797">
        <ele>1597</ele>
        <time>2021-06-27T12:49:29.074Z</time>
      </trkpt>
      <trkpt lat="45.5504" lon="6.05796">
        <ele>1597</ele>
        <time>2021-06-27T12:49:30.074Z</time>
      </trkpt>
      <trkpt lat="45.55039" lon="6.05795">
        <ele>1597</ele>
        <time>2021-06-27T12:49:31.074Z</time>
      </trkpt>
      <trkpt lat="45.55039" lon="6.05795">
        <ele>1597</ele>
        <time>2021-06-27T12:49:32.073Z</time>
      </trkpt>
      <trkpt lat="45.55038" lon="6.05795">
        <ele>1596</ele>
        <time>2021-06-27T12:49:33.073Z</time>
      </trkpt>
      <trkpt lat="45.55037" lon="6.05794">
        <ele>1596</ele>
        <time>2021-06-27T12:49:34.074Z</time>
      </trkpt>
      <trkpt lat="45.55037" lon="6.05794">
        <ele>1596</ele>
        <time>2021-06-27T12:49:35.073Z</time>
      </trkpt>
      <trkpt lat="45.55037" lon="6.05793">
        <ele>1596</ele>
        <time>2021-06-27T12:49:36.074Z</time>
      </trkpt>
      <trkpt lat="45.55037" lon="6.05793">
        <ele>1596</ele>
        <time>2021-06-27T12:49:37.073Z</time>
      </trkpt>
      <trkpt lat="45.55037" lon="6.05793">
        <ele>1595</ele>
        <time>2021-06-27T12:49:38.074Z</time>
      </trkpt>
      <trkpt lat="45.55037" lon="6.05793">
        <ele>1595</ele>
        <time>2021-06-27T12:49:39.074Z</time>
      </trkpt>
      <trkpt lat="45.55037" lon="6.05793">
        <ele>1595</ele>
        <time>2021-06-27T12:49:40.074Z</time>
      </trkpt>
      <trkpt lat="45.55038" lon="6.05793">
        <ele>1594</ele>
        <time>2021-06-27T12:49:41.074Z</time>
      </trkpt>
      <trkpt lat="45.55038" lon="6.05793">
        <ele>1594</ele>
        <time>2021-06-27T12:49:42.073Z</time>
      </trkpt>
      <trkpt lat="45.55039" lon="6.05793">
        <ele>1594</ele>
        <time>2021-06-27T12:49:43.074Z</time>
      </trkpt>
      <trkpt lat="45.55039" lon="6.05792">
        <ele>1593</ele>
        <time>2021-06-27T12:49:44.074Z</time>
      </trkpt>
      <trkpt lat="45.55039" lon="6.05792">
        <ele>1593</ele>
        <time>2021-06-27T12:49:45.073Z</time>
      </trkpt>
      <trkpt lat="45.55039" lon="6.05792">
        <ele>1592</ele>
        <time>2021-06-27T12:49:46.074Z</time>
      </trkpt>
      <trkpt lat="45.55039" lon="6.05792">
        <ele>1592</ele>
        <time>2021-06-27T12:49:47.074Z</time>
      </trkpt>
      <trkpt lat="45.5504" lon="6.05793">
        <ele>1592</ele>
        <time>2021-06-27T12:49:48.074Z</time>
      </trkpt>
      <trkpt lat="45.5504" lon="6.05793">
        <ele>1593</ele>
        <time>2021-06-27T12:49:49.074Z</time>
      </trkpt>
      <trkpt lat="45.5504" lon="6.05794">
        <ele>1593</ele>
        <time>2021-06-27T12:49:50.074Z</time>
      </trkpt>
      <trkpt lat="45.55041" lon="6.05794">
        <ele>1593</ele>
        <time>2021-06-27T12:49:51.074Z</time>
      </trkpt>
      <trkpt lat="45.5504" lon="6.05794">
        <ele>1594</ele>
        <time>2021-06-27T12:49:52.073Z</time>
      </trkpt>
      <trkpt lat="45.5504" lon="6.05794">
        <ele>1594</ele>
        <time>2021-06-27T12:49:53.073Z</time>
      </trkpt>
      <trkpt lat="45.5504" lon="6.05794">
        <ele>1595</ele>
        <time>2021-06-27T12:49:54.074Z</time>
      </trkpt>
      <trkpt lat="45.5504" lon="6.05794">
        <ele>1595</ele>
        <time>2021-06-27T12:49:55.073Z</time>
      </trkpt>
      <trkpt lat="45.5504" lon="6.05794">
        <ele>1596</ele>
        <time>2021-06-27T12:49:56.073Z</time>
      </trkpt>
      <trkpt lat="45.5504" lon="6.05794">
        <ele>1597</ele>
        <time>2021-06-27T12:49:57.073Z</time>
      </trkpt>
      <trkpt lat="45.5504" lon="6.05794">
        <ele>1598</ele>
        <time>2021-06-27T12:49:58.073Z</time>
      </trkpt>
      <trkpt lat="45.5504" lon="6.05794">
        <ele>1598</ele>
        <time>2021-06-27T12:49:59.073Z</time>
      </trkpt>
      <trkpt lat="45.5504" lon="6.05794">
        <ele>1598</ele>
        <time>2021-06-27T12:50:00.073Z</time>
      </trkpt>
      <trkpt lat="45.5504" lon="6.05794">
        <ele>1598</ele>
        <time>2021-06-27T12:50:01.073Z</time>
      </trkpt>
      <trkpt lat="45.5504" lon="6.05794">
        <ele>1598</ele>
        <time>2021-06-27T12:50:02.073Z</time>
      </trkpt>
      <trkpt lat="45.5504" lon="6.05794">
        <ele>1598</ele>
        <time>2021-06-27T12:50:03.074Z</time>
      </trkpt>
      <trkpt lat="45.5504" lon="6.05795">
        <ele>1598</ele>
        <time>2021-06-27T12:50:04.074Z</time>
      </trkpt>
      <trkpt lat="45.55041" lon="6.05794">
        <ele>1598</ele>
        <time>2021-06-27T12:50:05.073Z</time>
      </trkpt>
      <trkpt lat="45.55041" lon="6.05795">
        <ele>1597</ele>
        <time>2021-06-27T12:50:06.074Z</time>
      </trkpt>
      <trkpt lat="45.55041" lon="6.05795">
        <ele>1597</ele>
        <time>2021-06-27T12:50:07.074Z</time>
      </trkpt>
      <trkpt lat="45.55042" lon="6.05795">
        <ele>1596</ele>
        <time>2021-06-27T12:50:08.074Z</time>
      </trkpt>
      <trkpt lat="45.55042" lon="6.05796">
        <ele>1596</ele>
        <time>2021-06-27T12:50:09.074Z</time>
      </trkpt>
      <trkpt lat="45.55043" lon="6.05797">
        <ele>1595</ele>
        <time>2021-06-27T12:50:10.073Z</time>
      </trkpt>
      <trkpt lat="45.55043" lon="6.05798">
        <ele>1595</ele>
        <time>2021-06-27T12:50:11.074Z</time>
      </trkpt>
      <trkpt lat="45.55043" lon="6.058">
        <ele>1595</ele>
        <time>2021-06-27T12:50:12.073Z</time>
      </trkpt>
      <trkpt lat="45.55043" lon="6.05802">
        <ele>1595</ele>
        <time>2021-06-27T12:50:13.073Z</time>
      </trkpt>
      <trkpt lat="45.55043" lon="6.05803">
        <ele>1595</ele>
        <time>2021-06-27T12:50:14.073Z</time>
      </trkpt>
      <trkpt lat="45.55043" lon="6.05804">
        <ele>1595</ele>
        <time>2021-06-27T12:50:15.073Z</time>
      </trkpt>
      <trkpt lat="45.55043" lon="6.05805">
        <ele>1594</ele>
        <time>2021-06-27T12:50:16.074Z</time>
      </trkpt>
      <trkpt lat="45.55042" lon="6.05807">
        <ele>1594</ele>
        <time>2021-06-27T12:50:17.074Z</time>
      </trkpt>
      <trkpt lat="45.55042" lon="6.05809">
        <ele>1594</ele>
        <time>2021-06-27T12:50:18.074Z</time>
      </trkpt>
      <trkpt lat="45.55041" lon="6.0581">
        <ele>1595</ele>
        <time>2021-06-27T12:50:19.074Z</time>
      </trkpt>
      <trkpt lat="45.55041" lon="6.05812">
        <ele>1595</ele>
        <time>2021-06-27T12:50:20.073Z</time>
      </trkpt>
      <trkpt lat="45.55041" lon="6.05813">
        <ele>1596</ele>
        <time>2021-06-27T12:50:21.074Z</time>
      </trkpt>
      <trkpt lat="45.55041" lon="6.05815">
        <ele>1596</ele>
        <time>2021-06-27T12:50:22.074Z</time>
      </trkpt>
      <trkpt lat="45.5504" lon="6.05816">
        <ele>1597</ele>
        <time>2021-06-27T12:50:23.073Z</time>
      </trkpt>
      <trkpt lat="45.5504" lon="6.05817">
        <ele>1596</ele>
        <time>2021-06-27T12:50:24.074Z</time>
      </trkpt>
      <trkpt lat="45.5504" lon="6.05818">
        <ele>1596</ele>
        <time>2021-06-27T12:50:25.073Z</time>
      </trkpt>
      <trkpt lat="45.5504" lon="6.05819">
        <ele>1596</ele>
        <time>2021-06-27T12:50:26.074Z</time>
      </trkpt>
      <trkpt lat="45.55039" lon="6.0582">
        <ele>1596</ele>
        <time>2021-06-27T12:50:27.074Z</time>
      </trkpt>
      <trkpt lat="45.55039" lon="6.05821">
        <ele>1596</ele>
        <time>2021-06-27T12:50:28.074Z</time>
      </trkpt>
      <trkpt lat="45.55039" lon="6.05822">
        <ele>1596</ele>
        <time>2021-06-27T12:50:29.074Z</time>
      </trkpt>
      <trkpt lat="45.55039" lon="6.05823">
        <ele>1596</ele>
        <time>2021-06-27T12:50:30.073Z</time>
      </trkpt>
      <trkpt lat="45.55039" lon="6.05824">
        <ele>1596</ele>
        <time>2021-06-27T12:50:31.073Z</time>
      </trkpt>
      <trkpt lat="45.5504" lon="6.05826">
        <ele>1596</ele>
        <time>2021-06-27T12:50:32.074Z</time>
      </trkpt>
      <trkpt lat="45.5504" lon="6.05827">
        <ele>1597</ele>
        <time>2021-06-27T12:50:33.074Z</time>
      </trkpt>
      <trkpt lat="45.5504" lon="6.05829">
        <ele>1597</ele>
        <time>2021-06-27T12:50:34.074Z</time>
      </trkpt>
      <trkpt lat="45.5504" lon="6.0583">
        <ele>1597</ele>
        <time>2021-06-27T12:50:35.074Z</time>
      </trkpt>
      <trkpt lat="45.55041" lon="6.05832">
        <ele>1597</ele>
        <time>2021-06-27T12:50:36.073Z</time>
      </trkpt>
      <trkpt lat="45.55041" lon="6.05833">
        <ele>1597</ele>
        <time>2021-06-27T12:50:37.074Z</time>
      </trkpt>
      <trkpt lat="45.55041" lon="6.05834">
        <ele>1597</ele>
        <time>2021-06-27T12:50:38.074Z</time>
      </trkpt>
      <trkpt lat="45.5504" lon="6.05835">
        <ele>1597</ele>
        <time>2021-06-27T12:50:39.074Z</time>
      </trkpt>
      <trkpt lat="45.5504" lon="6.05836">
        <ele>1596</ele>
        <time>2021-06-27T12:50:40.074Z</time>
      </trkpt>
      <trkpt lat="45.5504" lon="6.05836">
        <ele>1596</ele>
        <time>2021-06-27T12:50:41.074Z</time>
      </trkpt>
      <trkpt lat="45.5504" lon="6.05837">
        <ele>1595</ele>
        <time>2021-06-27T12:50:42.074Z</time>
      </trkpt>
      <trkpt lat="45.55039" lon="6.05839">
        <ele>1595</ele>
        <time>2021-06-27T12:50:43.073Z</time>
      </trkpt>
      <trkpt lat="45.55039" lon="6.0584">
        <ele>1595</ele>
        <time>2021-06-27T12:50:44.074Z</time>
      </trkpt>
      <trkpt lat="45.55038" lon="6.05841">
        <ele>1595</ele>
        <time>2021-06-27T12:50:45.074Z</time>
      </trkpt>
      <trkpt lat="45.55038" lon="6.05843">
        <ele>1594</ele>
        <time>2021-06-27T12:50:46.074Z</time>
      </trkpt>
      <trkpt lat="45.55037" lon="6.05844">
        <ele>1594</ele>
        <time>2021-06-27T12:50:47.073Z</time>
      </trkpt>
      <trkpt lat="45.55037" lon="6.05845">
        <ele>1594</ele>
        <time>2021-06-27T12:50:48.074Z</time>
      </trkpt>
      <trkpt lat="45.55037" lon="6.05846">
        <ele>1595</ele>
        <time>2021-06-27T12:50:49.074Z</time>
      </trkpt>
      <trkpt lat="45.55036" lon="6.05846">
        <ele>1594</ele>
        <time>2021-06-27T12:50:50.074Z</time>
      </trkpt>
      <trkpt lat="45.55036" lon="6.05847">
        <ele>1594</ele>
        <time>2021-06-27T12:50:51.073Z</time>
      </trkpt>
      <trkpt lat="45.55036" lon="6.05847">
        <ele>1594</ele>
        <time>2021-06-27T12:50:52.074Z</time>
      </trkpt>
      <trkpt lat="45.55036" lon="6.05847">
        <ele>1594</ele>
        <time>2021-06-27T12:50:53.074Z</time>
      </trkpt>
      <trkpt lat="45.55035" lon="6.05847">
        <ele>1594</ele>
        <time>2021-06-27T12:50:54.074Z</time>
      </trkpt>
      <trkpt lat="45.55035" lon="6.05847">
        <ele>1594</ele>
        <time>2021-06-27T12:50:55.074Z</time>
      </trkpt>
      <trkpt lat="45.55034" lon="6.05848">
        <ele>1595</ele>
        <time>2021-06-27T12:50:56.074Z</time>
      </trkpt>
      <trkpt lat="45.55033" lon="6.05848">
        <ele>1595</ele>
        <time>2021-06-27T12:50:57.073Z</time>
      </trkpt>
      <trkpt lat="45.55032" lon="6.05848">
        <ele>1595</ele>
        <time>2021-06-27T12:50:58.074Z</time>
      </trkpt>
      <trkpt lat="45.55031" lon="6.05849">
        <ele>1595</ele>
        <time>2021-06-27T12:50:59.073Z</time>
      </trkpt>
      <trkpt lat="45.5503" lon="6.05849">
        <ele>1595</ele>
        <time>2021-06-27T12:51:00.074Z</time>
      </trkpt>
      <trkpt lat="45.55028" lon="6.0585">
        <ele>1595</ele>
        <time>2021-06-27T12:51:01.074Z</time>
      </trkpt>
      <trkpt lat="45.55027" lon="6.0585">
        <ele>1595</ele>
        <time>2021-06-27T12:51:02.074Z</time>
      </trkpt>
      <trkpt lat="45.55026" lon="6.05851">
        <ele>1596</ele>
        <time>2021-06-27T12:51:03.074Z</time>
      </trkpt>
      <trkpt lat="45.55025" lon="6.05851">
        <ele>1596</ele>
        <time>2021-06-27T12:51:04.073Z</time>
      </trkpt>
      <trkpt lat="45.55024" lon="6.05851">
        <ele>1596</ele>
        <time>2021-06-27T12:51:05.074Z</time>
      </trkpt>
      <trkpt lat="45.55023" lon="6.0585">
        <ele>1596</ele>
        <time>2021-06-27T12:51:06.074Z</time>
      </trkpt>
      <trkpt lat="45.55022" lon="6.05851">
        <ele>1597</ele>
        <time>2021-06-27T12:51:07.073Z</time>
      </trkpt>
      <trkpt lat="45.55021" lon="6.05851">
        <ele>1597</ele>
        <time>2021-06-27T12:51:08.074Z</time>
      </trkpt>
      <trkpt lat="45.5502" lon="6.05851">
        <ele>1597</ele>
        <time>2021-06-27T12:51:09.073Z</time>
      </trkpt>
      <trkpt lat="45.5502" lon="6.05851">
        <ele>1596</ele>
        <time>2021-06-27T12:51:10.073Z</time>
      </trkpt>
      <trkpt lat="45.55019" lon="6.05852">
        <ele>1596</ele>
        <time>2021-06-27T12:51:11.074Z</time>
      </trkpt>
      <trkpt lat="45.55018" lon="6.05851">
        <ele>1596</ele>
        <time>2021-06-27T12:51:12.074Z</time>
      </trkpt>
      <trkpt lat="45.55017" lon="6.05851">
        <ele>1596</ele>
        <time>2021-06-27T12:51:13.074Z</time>
      </trkpt>
      <trkpt lat="45.55016" lon="6.05851">
        <ele>1596</ele>
        <time>2021-06-27T12:51:14.073Z</time>
      </trkpt>
      <trkpt lat="45.55015" lon="6.05851">
        <ele>1597</ele>
        <time>2021-06-27T12:51:15.073Z</time>
      </trkpt>
      <trkpt lat="45.55014" lon="6.05851">
        <ele>1597</ele>
        <time>2021-06-27T12:51:16.074Z</time>
      </trkpt>
      <trkpt lat="45.55013" lon="6.05851">
        <ele>1597</ele>
        <time>2021-06-27T12:51:17.074Z</time>
      </trkpt>
      <trkpt lat="45.55012" lon="6.05851">
        <ele>1597</ele>
        <time>2021-06-27T12:51:18.074Z</time>
      </trkpt>
      <trkpt lat="45.55011" lon="6.05851">
        <ele>1597</ele>
        <time>2021-06-27T12:51:19.074Z</time>
      </trkpt>
      <trkpt lat="45.5501" lon="6.0585">
        <ele>1597</ele>
        <time>2021-06-27T12:51:20.073Z</time>
      </trkpt>
      <trkpt lat="45.55009" lon="6.0585">
        <ele>1596</ele>
        <time>2021-06-27T12:51:21.073Z</time>
      </trkpt>
      <trkpt lat="45.55009" lon="6.0585">
        <ele>1596</ele>
        <time>2021-06-27T12:51:22.074Z</time>
      </trkpt>
      <trkpt lat="45.55008" lon="6.0585">
        <ele>1596</ele>
        <time>2021-06-27T12:51:23.074Z</time>
      </trkpt>
      <trkpt lat="45.55007" lon="6.0585">
        <ele>1596</ele>
        <time>2021-06-27T12:51:24.073Z</time>
      </trkpt>
      <trkpt lat="45.55006" lon="6.05851">
        <ele>1595</ele>
        <time>2021-06-27T12:51:25.074Z</time>
      </trkpt>
      <trkpt lat="45.55005" lon="6.05851">
        <ele>1595</ele>
        <time>2021-06-27T12:51:26.074Z</time>
      </trkpt>
      <trkpt lat="45.55004" lon="6.05851">
        <ele>1594</ele>
        <time>2021-06-27T12:51:27.073Z</time>
      </trkpt>
      <trkpt lat="45.55004" lon="6.05851">
        <ele>1594</ele>
        <time>2021-06-27T12:51:28.074Z</time>
      </trkpt>
      <trkpt lat="45.55003" lon="6.05851">
        <ele>1594</ele>
        <time>2021-06-27T12:51:29.074Z</time>
      </trkpt>
      <trkpt lat="45.55003" lon="6.05852">
        <ele>1594</ele>
        <time>2021-06-27T12:51:30.074Z</time>
      </trkpt>
      <trkpt lat="45.55003" lon="6.05852">
        <ele>1593</ele>
        <time>2021-06-27T12:51:31.074Z</time>
      </trkpt>
      <trkpt lat="45.55003" lon="6.05852">
        <ele>1593</ele>
        <time>2021-06-27T12:51:32.074Z</time>
      </trkpt>
      <trkpt lat="45.55003" lon="6.05852">
        <ele>1593</ele>
        <time>2021-06-27T12:51:33.073Z</time>
      </trkpt>
      <trkpt lat="45.55003" lon="6.05852">
        <ele>1594</ele>
        <time>2021-06-27T12:51:34.074Z</time>
      </trkpt>
      <trkpt lat="45.55003" lon="6.05852">
        <ele>1594</ele>
        <time>2021-06-27T12:51:35.074Z</time>
      </trkpt>
      <trkpt lat="45.55003" lon="6.05852">
        <ele>1595</ele>
        <time>2021-06-27T12:51:36.074Z</time>
      </trkpt>
      <trkpt lat="45.55003" lon="6.05852">
        <ele>1595</ele>
        <time>2021-06-27T12:51:37.074Z</time>
      </trkpt>
      <trkpt lat="45.55003" lon="6.05852">
        <ele>1595</ele>
        <time>2021-06-27T12:51:38.073Z</time>
      </trkpt>
      <trkpt lat="45.55003" lon="6.05852">
        <ele>1595</ele>
        <time>2021-06-27T12:51:39.074Z</time>
      </trkpt>
      <trkpt lat="45.55003" lon="6.05852">
        <ele>1595</ele>
        <time>2021-06-27T12:51:40.074Z</time>
      </trkpt>
      <trkpt lat="45.55003" lon="6.05852">
        <ele>1595</ele>
        <time>2021-06-27T12:51:41.074Z</time>
      </trkpt>
      <trkpt lat="45.55003" lon="6.05852">
        <ele>1595</ele>
        <time>2021-06-27T12:51:42.074Z</time>
      </trkpt>
      <trkpt lat="45.55003" lon="6.05852">
        <ele>1594</ele>
        <time>2021-06-27T12:51:43.074Z</time>
      </trkpt>
      <trkpt lat="45.55003" lon="6.05852">
        <ele>1594</ele>
        <time>2021-06-27T12:51:44.074Z</time>
      </trkpt>
      <trkpt lat="45.55003" lon="6.05853">
        <ele>1594</ele>
        <time>2021-06-27T12:51:45.074Z</time>
      </trkpt>
      <trkpt lat="45.55003" lon="6.05853">
        <ele>1594</ele>
        <time>2021-06-27T12:51:46.074Z</time>
      </trkpt>
      <trkpt lat="45.55003" lon="6.05853">
        <ele>1594</ele>
        <time>2021-06-27T12:51:47.073Z</time>
      </trkpt>
      <trkpt lat="45.55003" lon="6.05853">
        <ele>1594</ele>
        <time>2021-06-27T12:51:48.073Z</time>
      </trkpt>
      <trkpt lat="45.55003" lon="6.05853">
        <ele>1594</ele>
        <time>2021-06-27T12:51:49.073Z</time>
      </trkpt>
      <trkpt lat="45.55003" lon="6.05853">
        <ele>1594</ele>
        <time>2021-06-27T12:51:50.074Z</time>
      </trkpt>
      <trkpt lat="45.55003" lon="6.05853">
        <ele>1594</ele>
        <time>2021-06-27T12:51:51.074Z</time>
      </trkpt>
      <trkpt lat="45.55003" lon="6.05853">
        <ele>1594</ele>
        <time>2021-06-27T12:51:52.074Z</time>
      </trkpt>
      <trkpt lat="45.55003" lon="6.05852">
        <ele>1594</ele>
        <time>2021-06-27T12:51:53.073Z</time>
      </trkpt>
      <trkpt lat="45.55003" lon="6.0585">
        <ele>1595</ele>
        <time>2021-06-27T12:51:54.074Z</time>
      </trkpt>
      <trkpt lat="45.55002" lon="6.05849">
        <ele>1595</ele>
        <time>2021-06-27T12:51:55.074Z</time>
      </trkpt>
      <trkpt lat="45.55002" lon="6.05848">
        <ele>1595</ele>
        <time>2021-06-27T12:51:56.073Z</time>
      </trkpt>
      <trkpt lat="45.55001" lon="6.05847">
        <ele>1595</ele>
        <time>2021-06-27T12:51:57.074Z</time>
      </trkpt>
      <trkpt lat="45.55" lon="6.05846">
        <ele>1595</ele>
        <time>2021-06-27T12:51:58.073Z</time>
      </trkpt>
      <trkpt lat="45.54999" lon="6.05846">
        <ele>1595</ele>
        <time>2021-06-27T12:51:59.074Z</time>
      </trkpt>
      <trkpt lat="45.54998" lon="6.05845">
        <ele>1595</ele>
        <time>2021-06-27T12:52:00.073Z</time>
      </trkpt>
      <trkpt lat="45.54997" lon="6.05844">
        <ele>1594</ele>
        <time>2021-06-27T12:52:01.074Z</time>
      </trkpt>
      <trkpt lat="45.54996" lon="6.05844">
        <ele>1594</ele>
        <time>2021-06-27T12:52:02.074Z</time>
      </trkpt>
      <trkpt lat="45.54995" lon="6.05844">
        <ele>1594</ele>
        <time>2021-06-27T12:52:03.074Z</time>
      </trkpt>
      <trkpt lat="45.54994" lon="6.05843">
        <ele>1594</ele>
        <time>2021-06-27T12:52:04.074Z</time>
      </trkpt>
      <trkpt lat="45.54993" lon="6.05843">
        <ele>1593</ele>
        <time>2021-06-27T12:52:05.074Z</time>
      </trkpt>
      <trkpt lat="45.54992" lon="6.05842">
        <ele>1593</ele>
        <time>2021-06-27T12:52:06.074Z</time>
      </trkpt>
      <trkpt lat="45.54991" lon="6.05841">
        <ele>1593</ele>
        <time>2021-06-27T12:52:07.073Z</time>
      </trkpt>
      <trkpt lat="45.5499" lon="6.0584">
        <ele>1592</ele>
        <time>2021-06-27T12:52:08.074Z</time>
      </trkpt>
      <trkpt lat="45.54989" lon="6.0584">
        <ele>1592</ele>
        <time>2021-06-27T12:52:09.074Z</time>
      </trkpt>
      <trkpt lat="45.54988" lon="6.05839">
        <ele>1592</ele>
        <time>2021-06-27T12:52:10.074Z</time>
      </trkpt>
      <trkpt lat="45.54988" lon="6.05839">
        <ele>1592</ele>
        <time>2021-06-27T12:52:11.074Z</time>
      </trkpt>
      <trkpt lat="45.54987" lon="6.05839">
        <ele>1592</ele>
        <time>2021-06-27T12:52:12.074Z</time>
      </trkpt>
      <trkpt lat="45.54986" lon="6.05838">
        <ele>1591</ele>
        <time>2021-06-27T12:52:13.074Z</time>
      </trkpt>
      <trkpt lat="45.54985" lon="6.05838">
        <ele>1591</ele>
        <time>2021-06-27T12:52:14.073Z</time>
      </trkpt>
      <trkpt lat="45.54985" lon="6.05837">
        <ele>1591</ele>
        <time>2021-06-27T12:52:15.074Z</time>
      </trkpt>
      <trkpt lat="45.54984" lon="6.05837">
        <ele>1591</ele>
        <time>2021-06-27T12:52:16.074Z</time>
      </trkpt>
      <trkpt lat="45.54984" lon="6.05837">
        <ele>1591</ele>
        <time>2021-06-27T12:52:17.074Z</time>
      </trkpt>
      <trkpt lat="45.54982" lon="6.05836">
        <ele>1591</ele>
        <time>2021-06-27T12:52:18.073Z</time>
      </trkpt>
      <trkpt lat="45.54982" lon="6.05836">
        <ele>1591</ele>
        <time>2021-06-27T12:52:19.074Z</time>
      </trkpt>
      <trkpt lat="45.54981" lon="6.05836">
        <ele>1591</ele>
        <time>2021-06-27T12:52:20.073Z</time>
      </trkpt>
      <trkpt lat="45.5498" lon="6.05835">
        <ele>1591</ele>
        <time>2021-06-27T12:52:21.074Z</time>
      </trkpt>
      <trkpt lat="45.54979" lon="6.05834">
        <ele>1590</ele>
        <time>2021-06-27T12:52:22.074Z</time>
      </trkpt>
      <trkpt lat="45.54978" lon="6.05834">
        <ele>1590</ele>
        <time>2021-06-27T12:52:23.074Z</time>
      </trkpt>
      <trkpt lat="45.54977" lon="6.05833">
        <ele>1589</ele>
        <time>2021-06-27T12:52:24.073Z</time>
      </trkpt>
      <trkpt lat="45.54976" lon="6.05832">
        <ele>1589</ele>
        <time>2021-06-27T12:52:25.073Z</time>
      </trkpt>
      <trkpt lat="45.54975" lon="6.05832">
        <ele>1589</ele>
        <time>2021-06-27T12:52:26.074Z</time>
      </trkpt>
      <trkpt lat="45.54974" lon="6.05831">
        <ele>1589</ele>
        <time>2021-06-27T12:52:27.073Z</time>
      </trkpt>
      <trkpt lat="45.54973" lon="6.05831">
        <ele>1589</ele>
        <time>2021-06-27T12:52:28.073Z</time>
      </trkpt>
      <trkpt lat="45.54972" lon="6.0583">
        <ele>1589</ele>
        <time>2021-06-27T12:52:29.073Z</time>
      </trkpt>
      <trkpt lat="45.54971" lon="6.0583">
        <ele>1588</ele>
        <time>2021-06-27T12:52:30.073Z</time>
      </trkpt>
      <trkpt lat="45.54969" lon="6.0583">
        <ele>1587</ele>
        <time>2021-06-27T12:52:31.073Z</time>
      </trkpt>
      <trkpt lat="45.54968" lon="6.0583">
        <ele>1587</ele>
        <time>2021-06-27T12:52:32.074Z</time>
      </trkpt>
      <trkpt lat="45.54967" lon="6.0583">
        <ele>1587</ele>
        <time>2021-06-27T12:52:33.074Z</time>
      </trkpt>
      <trkpt lat="45.54966" lon="6.05829">
        <ele>1587</ele>
        <time>2021-06-27T12:52:34.074Z</time>
      </trkpt>
      <trkpt lat="45.54965" lon="6.05828">
        <ele>1586</ele>
        <time>2021-06-27T12:52:35.073Z</time>
      </trkpt>
      <trkpt lat="45.54964" lon="6.05827">
        <ele>1586</ele>
        <time>2021-06-27T12:52:36.074Z</time>
      </trkpt>
      <trkpt lat="45.54964" lon="6.05826">
        <ele>1586</ele>
        <time>2021-06-27T12:52:37.074Z</time>
      </trkpt>
      <trkpt lat="45.54963" lon="6.05825">
        <ele>1586</ele>
        <time>2021-06-27T12:52:38.074Z</time>
      </trkpt>
      <trkpt lat="45.54962" lon="6.05824">
        <ele>1585</ele>
        <time>2021-06-27T12:52:39.073Z</time>
      </trkpt>
      <trkpt lat="45.54962" lon="6.05824">
        <ele>1585</ele>
        <time>2021-06-27T12:52:40.074Z</time>
      </trkpt>
      <trkpt lat="45.54961" lon="6.05823">
        <ele>1586</ele>
        <time>2021-06-27T12:52:41.074Z</time>
      </trkpt>
      <trkpt lat="45.54961" lon="6.05822">
        <ele>1586</ele>
        <time>2021-06-27T12:52:42.074Z</time>
      </trkpt>
      <trkpt lat="45.5496" lon="6.05822">
        <ele>1586</ele>
        <time>2021-06-27T12:52:43.074Z</time>
      </trkpt>
      <trkpt lat="45.54961" lon="6.05822">
        <ele>1586</ele>
        <time>2021-06-27T12:52:44.074Z</time>
      </trkpt>
      <trkpt lat="45.5496" lon="6.05822">
        <ele>1586</ele>
        <time>2021-06-27T12:52:45.074Z</time>
      </trkpt>
      <trkpt lat="45.5496" lon="6.05822">
        <ele>1586</ele>
        <time>2021-06-27T12:52:46.074Z</time>
      </trkpt>
      <trkpt lat="45.5496" lon="6.05822">
        <ele>1586</ele>
        <time>2021-06-27T12:52:47.074Z</time>
      </trkpt>
      <trkpt lat="45.5496" lon="6.05822">
        <ele>1586</ele>
        <time>2021-06-27T12:52:48.074Z</time>
      </trkpt>
      <trkpt lat="45.5496" lon="6.05822">
        <ele>1586</ele>
        <time>2021-06-27T12:52:49.073Z</time>
      </trkpt>
      <trkpt lat="45.5496" lon="6.05822">
        <ele>1585</ele>
        <time>2021-06-27T12:52:50.074Z</time>
      </trkpt>
      <trkpt lat="45.54959" lon="6.05821">
        <ele>1585</ele>
        <time>2021-06-27T12:52:51.074Z</time>
      </trkpt>
      <trkpt lat="45.54959" lon="6.0582">
        <ele>1585</ele>
        <time>2021-06-27T12:52:52.074Z</time>
      </trkpt>
      <trkpt lat="45.54959" lon="6.05818">
        <ele>1585</ele>
        <time>2021-06-27T12:52:53.073Z</time>
      </trkpt>
      <trkpt lat="45.54959" lon="6.05817">
        <ele>1585</ele>
        <time>2021-06-27T12:52:54.074Z</time>
      </trkpt>
      <trkpt lat="45.54959" lon="6.05817">
        <ele>1586</ele>
        <time>2021-06-27T12:52:55.074Z</time>
      </trkpt>
      <trkpt lat="45.54959" lon="6.05817">
        <ele>1586</ele>
        <time>2021-06-27T12:52:56.073Z</time>
      </trkpt>
      <trkpt lat="45.54959" lon="6.05817">
        <ele>1586</ele>
        <time>2021-06-27T12:52:57.074Z</time>
      </trkpt>
      <trkpt lat="45.54959" lon="6.05817">
        <ele>1587</ele>
        <time>2021-06-27T12:52:58.074Z</time>
      </trkpt>
      <trkpt lat="45.54959" lon="6.05817">
        <ele>1588</ele>
        <time>2021-06-27T12:52:59.073Z</time>
      </trkpt>
      <trkpt lat="45.54959" lon="6.05817">
        <ele>1588</ele>
        <time>2021-06-27T12:53:00.074Z</time>
      </trkpt>
      <trkpt lat="45.54958" lon="6.05817">
        <ele>1589</ele>
        <time>2021-06-27T12:53:01.074Z</time>
      </trkpt>
      <trkpt lat="45.54958" lon="6.05817">
        <ele>1589</ele>
        <time>2021-06-27T12:53:02.073Z</time>
      </trkpt>
      <trkpt lat="45.54958" lon="6.05817">
        <ele>1590</ele>
        <time>2021-06-27T12:53:03.074Z</time>
      </trkpt>
      <trkpt lat="45.54958" lon="6.05817">
        <ele>1590</ele>
        <time>2021-06-27T12:53:04.074Z</time>
      </trkpt>
      <trkpt lat="45.54958" lon="6.05817">
        <ele>1590</ele>
        <time>2021-06-27T12:53:05.073Z</time>
      </trkpt>
      <trkpt lat="45.54958" lon="6.05817">
        <ele>1590</ele>
        <time>2021-06-27T12:53:06.074Z</time>
      </trkpt>
      <trkpt lat="45.54958" lon="6.05817">
        <ele>1590</ele>
        <time>2021-06-27T12:53:07.074Z</time>
      </trkpt>
      <trkpt lat="45.54958" lon="6.05817">
        <ele>1590</ele>
        <time>2021-06-27T12:53:08.074Z</time>
      </trkpt>
      <trkpt lat="45.54958" lon="6.05817">
        <ele>1589</ele>
        <time>2021-06-27T12:53:09.074Z</time>
      </trkpt>
      <trkpt lat="45.54958" lon="6.05817">
        <ele>1589</ele>
        <time>2021-06-27T12:53:10.074Z</time>
      </trkpt>
      <trkpt lat="45.54958" lon="6.05817">
        <ele>1589</ele>
        <time>2021-06-27T12:53:11.074Z</time>
      </trkpt>
      <trkpt lat="45.54957" lon="6.05817">
        <ele>1590</ele>
        <time>2021-06-27T12:53:12.074Z</time>
      </trkpt>
      <trkpt lat="45.54957" lon="6.05817">
        <ele>1590</ele>
        <time>2021-06-27T12:53:13.073Z</time>
      </trkpt>
      <trkpt lat="45.54957" lon="6.05818">
        <ele>1590</ele>
        <time>2021-06-27T12:53:14.074Z</time>
      </trkpt>
      <trkpt lat="45.54957" lon="6.05818">
        <ele>1589</ele>
        <time>2021-06-27T12:53:15.074Z</time>
      </trkpt>
      <trkpt lat="45.54956" lon="6.0582">
        <ele>1589</ele>
        <time>2021-06-27T12:53:16.074Z</time>
      </trkpt>
      <trkpt lat="45.54956" lon="6.05821">
        <ele>1589</ele>
        <time>2021-06-27T12:53:17.074Z</time>
      </trkpt>
      <trkpt lat="45.54955" lon="6.05822">
        <ele>1589</ele>
        <time>2021-06-27T12:53:18.073Z</time>
      </trkpt>
      <trkpt lat="45.54955" lon="6.05822">
        <ele>1589</ele>
        <time>2021-06-27T12:53:19.074Z</time>
      </trkpt>
      <trkpt lat="45.54954" lon="6.05822">
        <ele>1589</ele>
        <time>2021-06-27T12:53:20.074Z</time>
      </trkpt>
      <trkpt lat="45.54953" lon="6.05822">
        <ele>1589</ele>
        <time>2021-06-27T12:53:21.073Z</time>
      </trkpt>
      <trkpt lat="45.54952" lon="6.05822">
        <ele>1588</ele>
        <time>2021-06-27T12:53:22.074Z</time>
      </trkpt>
      <trkpt lat="45.54951" lon="6.05822">
        <ele>1588</ele>
        <time>2021-06-27T12:53:23.073Z</time>
      </trkpt>
      <trkpt lat="45.54951" lon="6.05822">
        <ele>1587</ele>
        <time>2021-06-27T12:53:24.074Z</time>
      </trkpt>
      <trkpt lat="45.5495" lon="6.05822">
        <ele>1587</ele>
        <time>2021-06-27T12:53:25.074Z</time>
      </trkpt>
      <trkpt lat="45.54949" lon="6.05821">
        <ele>1586</ele>
        <time>2021-06-27T12:53:26.074Z</time>
      </trkpt>
      <trkpt lat="45.54948" lon="6.05821">
        <ele>1586</ele>
        <time>2021-06-27T12:53:27.074Z</time>
      </trkpt>
      <trkpt lat="45.54946" lon="6.0582">
        <ele>1586</ele>
        <time>2021-06-27T12:53:28.073Z</time>
      </trkpt>
      <trkpt lat="45.54946" lon="6.05819">
        <ele>1585</ele>
        <time>2021-06-27T12:53:29.073Z</time>
      </trkpt>
      <trkpt lat="45.54945" lon="6.05819">
        <ele>1585</ele>
        <time>2021-06-27T12:53:30.074Z</time>
      </trkpt>
      <trkpt lat="45.54944" lon="6.05818">
        <ele>1585</ele>
        <time>2021-06-27T12:53:31.074Z</time>
      </trkpt>
      <trkpt lat="45.54943" lon="6.05818">
        <ele>1585</ele>
        <time>2021-06-27T12:53:32.074Z</time>
      </trkpt>
      <trkpt lat="45.54942" lon="6.05817">
        <ele>1585</ele>
        <time>2021-06-27T12:53:33.074Z</time>
      </trkpt>
      <trkpt lat="45.54941" lon="6.05818">
        <ele>1585</ele>
        <time>2021-06-27T12:53:34.074Z</time>
      </trkpt>
      <trkpt lat="45.5494" lon="6.05818">
        <ele>1585</ele>
        <time>2021-06-27T12:53:35.074Z</time>
      </trkpt>
      <trkpt lat="45.5494" lon="6.05817">
        <ele>1584</ele>
        <time>2021-06-27T12:53:36.074Z</time>
      </trkpt>
      <trkpt lat="45.54939" lon="6.05817">
        <ele>1583</ele>
        <time>2021-06-27T12:53:37.074Z</time>
      </trkpt>
      <trkpt lat="45.54938" lon="6.05817">
        <ele>1583</ele>
        <time>2021-06-27T12:53:38.073Z</time>
      </trkpt>
      <trkpt lat="45.54937" lon="6.05817">
        <ele>1582</ele>
        <time>2021-06-27T12:53:39.073Z</time>
      </trkpt>
      <trkpt lat="45.54936" lon="6.05816">
        <ele>1582</ele>
        <time>2021-06-27T12:53:40.073Z</time>
      </trkpt>
      <trkpt lat="45.54935" lon="6.05816">
        <ele>1582</ele>
        <time>2021-06-27T12:53:41.074Z</time>
      </trkpt>
      <trkpt lat="45.54935" lon="6.05815">
        <ele>1581</ele>
        <time>2021-06-27T12:53:42.073Z</time>
      </trkpt>
      <trkpt lat="45.54934" lon="6.05815">
        <ele>1581</ele>
        <time>2021-06-27T12:53:43.073Z</time>
      </trkpt>
      <trkpt lat="45.54934" lon="6.05814">
        <ele>1581</ele>
        <time>2021-06-27T12:53:44.074Z</time>
      </trkpt>
      <trkpt lat="45.54933" lon="6.05813">
        <ele>1581</ele>
        <time>2021-06-27T12:53:45.074Z</time>
      </trkpt>
      <trkpt lat="45.54933" lon="6.05812">
        <ele>1581</ele>
        <time>2021-06-27T12:53:46.074Z</time>
      </trkpt>
      <trkpt lat="45.54933" lon="6.05812">
        <ele>1581</ele>
        <time>2021-06-27T12:53:47.074Z</time>
      </trkpt>
      <trkpt lat="45.54932" lon="6.05811">
        <ele>1580</ele>
        <time>2021-06-27T12:53:48.074Z</time>
      </trkpt>
      <trkpt lat="45.54932" lon="6.05811">
        <ele>1580</ele>
        <time>2021-06-27T12:53:49.073Z</time>
      </trkpt>
      <trkpt lat="45.54932" lon="6.05811">
        <ele>1580</ele>
        <time>2021-06-27T12:53:50.073Z</time>
      </trkpt>
      <trkpt lat="45.54931" lon="6.0581">
        <ele>1580</ele>
        <time>2021-06-27T12:53:51.074Z</time>
      </trkpt>
      <trkpt lat="45.54931" lon="6.05809">
        <ele>1580</ele>
        <time>2021-06-27T12:53:52.074Z</time>
      </trkpt>
      <trkpt lat="45.5493" lon="6.05808">
        <ele>1579</ele>
        <time>2021-06-27T12:53:53.074Z</time>
      </trkpt>
      <trkpt lat="45.5493" lon="6.05808">
        <ele>1579</ele>
        <time>2021-06-27T12:53:54.074Z</time>
      </trkpt>
      <trkpt lat="45.54929" lon="6.05807">
        <ele>1579</ele>
        <time>2021-06-27T12:53:55.074Z</time>
      </trkpt>
      <trkpt lat="45.54929" lon="6.05807">
        <ele>1578</ele>
        <time>2021-06-27T12:53:56.074Z</time>
      </trkpt>
      <trkpt lat="45.54928" lon="6.05807">
        <ele>1578</ele>
        <time>2021-06-27T12:53:57.073Z</time>
      </trkpt>
      <trkpt lat="45.54928" lon="6.05806">
        <ele>1577</ele>
        <time>2021-06-27T12:53:58.073Z</time>
      </trkpt>
      <trkpt lat="45.54927" lon="6.05806">
        <ele>1577</ele>
        <time>2021-06-27T12:53:59.074Z</time>
      </trkpt>
      <trkpt lat="45.54927" lon="6.05805">
        <ele>1577</ele>
        <time>2021-06-27T12:54:00.074Z</time>
      </trkpt>
      <trkpt lat="45.54927" lon="6.05805">
        <ele>1577</ele>
        <time>2021-06-27T12:54:01.074Z</time>
      </trkpt>
      <trkpt lat="45.54926" lon="6.05805">
        <ele>1577</ele>
        <time>2021-06-27T12:54:02.074Z</time>
      </trkpt>
      <trkpt lat="45.54926" lon="6.05804">
        <ele>1578</ele>
        <time>2021-06-27T12:54:03.074Z</time>
      </trkpt>
      <trkpt lat="45.54926" lon="6.05804">
        <ele>1578</ele>
        <time>2021-06-27T12:54:04.074Z</time>
      </trkpt>
      <trkpt lat="45.54926" lon="6.05804">
        <ele>1578</ele>
        <time>2021-06-27T12:54:05.074Z</time>
      </trkpt>
      <trkpt lat="45.54925" lon="6.05804">
        <ele>1578</ele>
        <time>2021-06-27T12:54:06.073Z</time>
      </trkpt>
      <trkpt lat="45.54924" lon="6.05804">
        <ele>1578</ele>
        <time>2021-06-27T12:54:07.073Z</time>
      </trkpt>
      <trkpt lat="45.54924" lon="6.05804">
        <ele>1578</ele>
        <time>2021-06-27T12:54:08.074Z</time>
      </trkpt>
      <trkpt lat="45.54923" lon="6.05805">
        <ele>1578</ele>
        <time>2021-06-27T12:54:09.074Z</time>
      </trkpt>
      <trkpt lat="45.54923" lon="6.05806">
        <ele>1578</ele>
        <time>2021-06-27T12:54:10.074Z</time>
      </trkpt>
      <trkpt lat="45.54922" lon="6.05806">
        <ele>1577</ele>
        <time>2021-06-27T12:54:11.074Z</time>
      </trkpt>
      <trkpt lat="45.54921" lon="6.05806">
        <ele>1577</ele>
        <time>2021-06-27T12:54:12.074Z</time>
      </trkpt>
      <trkpt lat="45.54921" lon="6.05806">
        <ele>1578</ele>
        <time>2021-06-27T12:54:13.074Z</time>
      </trkpt>
      <trkpt lat="45.5492" lon="6.05806">
        <ele>1577</ele>
        <time>2021-06-27T12:54:14.073Z</time>
      </trkpt>
      <trkpt lat="45.5492" lon="6.05807">
        <ele>1576</ele>
        <time>2021-06-27T12:54:15.074Z</time>
      </trkpt>
      <trkpt lat="45.54921" lon="6.05807">
        <ele>1576</ele>
        <time>2021-06-27T12:54:16.074Z</time>
      </trkpt>
      <trkpt lat="45.54921" lon="6.05808">
        <ele>1576</ele>
        <time>2021-06-27T12:54:17.073Z</time>
      </trkpt>
      <trkpt lat="45.54921" lon="6.05808">
        <ele>1576</ele>
        <time>2021-06-27T12:54:18.074Z</time>
      </trkpt>
      <trkpt lat="45.5492" lon="6.05808">
        <ele>1576</ele>
        <time>2021-06-27T12:54:19.074Z</time>
      </trkpt>
      <trkpt lat="45.54919" lon="6.05809">
        <ele>1576</ele>
        <time>2021-06-27T12:54:20.074Z</time>
      </trkpt>
      <trkpt lat="45.54919" lon="6.05809">
        <ele>1575</ele>
        <time>2021-06-27T12:54:21.074Z</time>
      </trkpt>
      <trkpt lat="45.54918" lon="6.05809">
        <ele>1575</ele>
        <time>2021-06-27T12:54:22.074Z</time>
      </trkpt>
      <trkpt lat="45.54917" lon="6.05809">
        <ele>1574</ele>
        <time>2021-06-27T12:54:23.074Z</time>
      </trkpt>
      <trkpt lat="45.54916" lon="6.05809">
        <ele>1573</ele>
        <time>2021-06-27T12:54:24.074Z</time>
      </trkpt>
      <trkpt lat="45.54915" lon="6.05809">
        <ele>1573</ele>
        <time>2021-06-27T12:54:25.074Z</time>
      </trkpt>
      <trkpt lat="45.54914" lon="6.05808">
        <ele>1573</ele>
        <time>2021-06-27T12:54:26.074Z</time>
      </trkpt>
      <trkpt lat="45.54913" lon="6.05807">
        <ele>1572</ele>
        <time>2021-06-27T12:54:27.074Z</time>
      </trkpt>
      <trkpt lat="45.54912" lon="6.05808">
        <ele>1572</ele>
        <time>2021-06-27T12:54:28.074Z</time>
      </trkpt>
      <trkpt lat="45.54912" lon="6.05808">
        <ele>1572</ele>
        <time>2021-06-27T12:54:29.074Z</time>
      </trkpt>
      <trkpt lat="45.54911" lon="6.05808">
        <ele>1572</ele>
        <time>2021-06-27T12:54:30.074Z</time>
      </trkpt>
      <trkpt lat="45.54911" lon="6.05808">
        <ele>1572</ele>
        <time>2021-06-27T12:54:31.073Z</time>
      </trkpt>
      <trkpt lat="45.5491" lon="6.05809">
        <ele>1572</ele>
        <time>2021-06-27T12:54:32.074Z</time>
      </trkpt>
      <trkpt lat="45.5491" lon="6.05809">
        <ele>1572</ele>
        <time>2021-06-27T12:54:33.074Z</time>
      </trkpt>
      <trkpt lat="45.5491" lon="6.05809">
        <ele>1572</ele>
        <time>2021-06-27T12:54:34.074Z</time>
      </trkpt>
      <trkpt lat="45.54909" lon="6.05809">
        <ele>1572</ele>
        <time>2021-06-27T12:54:35.073Z</time>
      </trkpt>
      <trkpt lat="45.54909" lon="6.05809">
        <ele>1572</ele>
        <time>2021-06-27T12:54:36.073Z</time>
      </trkpt>
      <trkpt lat="45.54908" lon="6.05809">
        <ele>1571</ele>
        <time>2021-06-27T12:54:37.074Z</time>
      </trkpt>
      <trkpt lat="45.54908" lon="6.05808">
        <ele>1570</ele>
        <time>2021-06-27T12:54:38.073Z</time>
      </trkpt>
      <trkpt lat="45.54907" lon="6.05808">
        <ele>1570</ele>
        <time>2021-06-27T12:54:39.074Z</time>
      </trkpt>
      <trkpt lat="45.54906" lon="6.05807">
        <ele>1569</ele>
        <time>2021-06-27T12:54:40.074Z</time>
      </trkpt>
      <trkpt lat="45.54906" lon="6.05806">
        <ele>1568</ele>
        <time>2021-06-27T12:54:41.074Z</time>
      </trkpt>
      <trkpt lat="45.54905" lon="6.05805">
        <ele>1568</ele>
        <time>2021-06-27T12:54:42.073Z</time>
      </trkpt>
      <trkpt lat="45.54904" lon="6.05804">
        <ele>1568</ele>
        <time>2021-06-27T12:54:43.074Z</time>
      </trkpt>
      <trkpt lat="45.54904" lon="6.05804">
        <ele>1568</ele>
        <time>2021-06-27T12:54:44.074Z</time>
      </trkpt>
      <trkpt lat="45.54903" lon="6.05803">
        <ele>1568</ele>
        <time>2021-06-27T12:54:45.073Z</time>
      </trkpt>
      <trkpt lat="45.54903" lon="6.05802">
        <ele>1568</ele>
        <time>2021-06-27T12:54:46.074Z</time>
      </trkpt>
      <trkpt lat="45.54902" lon="6.05802">
        <ele>1567</ele>
        <time>2021-06-27T12:54:47.074Z</time>
      </trkpt>
      <trkpt lat="45.54901" lon="6.05801">
        <ele>1567</ele>
        <time>2021-06-27T12:54:48.074Z</time>
      </trkpt>
      <trkpt lat="45.549" lon="6.058">
        <ele>1566</ele>
        <time>2021-06-27T12:54:49.074Z</time>
      </trkpt>
      <trkpt lat="45.54899" lon="6.05799">
        <ele>1566</ele>
        <time>2021-06-27T12:54:50.073Z</time>
      </trkpt>
      <trkpt lat="45.54898" lon="6.05798">
        <ele>1565</ele>
        <time>2021-06-27T12:54:51.073Z</time>
      </trkpt>
      <trkpt lat="45.54897" lon="6.05797">
        <ele>1565</ele>
        <time>2021-06-27T12:54:52.074Z</time>
      </trkpt>
      <trkpt lat="45.54897" lon="6.05797">
        <ele>1565</ele>
        <time>2021-06-27T12:54:53.073Z</time>
      </trkpt>
      <trkpt lat="45.54896" lon="6.05796">
        <ele>1565</ele>
        <time>2021-06-27T12:54:54.073Z</time>
      </trkpt>
      <trkpt lat="45.54895" lon="6.05795">
        <ele>1564</ele>
        <time>2021-06-27T12:54:55.074Z</time>
      </trkpt>
      <trkpt lat="45.54895" lon="6.05794">
        <ele>1563</ele>
        <time>2021-06-27T12:54:56.074Z</time>
      </trkpt>
      <trkpt lat="45.54894" lon="6.05794">
        <ele>1562</ele>
        <time>2021-06-27T12:54:57.073Z</time>
      </trkpt>
      <trkpt lat="45.54893" lon="6.05793">
        <ele>1562</ele>
        <time>2021-06-27T12:54:58.074Z</time>
      </trkpt>
      <trkpt lat="45.54892" lon="6.05792">
        <ele>1561</ele>
        <time>2021-06-27T12:54:59.073Z</time>
      </trkpt>
      <trkpt lat="45.54891" lon="6.05792">
        <ele>1560</ele>
        <time>2021-06-27T12:55:00.074Z</time>
      </trkpt>
      <trkpt lat="45.5489" lon="6.05791">
        <ele>1560</ele>
        <time>2021-06-27T12:55:01.074Z</time>
      </trkpt>
      <trkpt lat="45.54889" lon="6.05791">
        <ele>1560</ele>
        <time>2021-06-27T12:55:02.074Z</time>
      </trkpt>
      <trkpt lat="45.54888" lon="6.0579">
        <ele>1560</ele>
        <time>2021-06-27T12:55:03.074Z</time>
      </trkpt>
      <trkpt lat="45.54888" lon="6.0579">
        <ele>1560</ele>
        <time>2021-06-27T12:55:04.073Z</time>
      </trkpt>
      <trkpt lat="45.54887" lon="6.05789">
        <ele>1560</ele>
        <time>2021-06-27T12:55:05.073Z</time>
      </trkpt>
      <trkpt lat="45.54886" lon="6.05789">
        <ele>1560</ele>
        <time>2021-06-27T12:55:06.073Z</time>
      </trkpt>
      <trkpt lat="45.54886" lon="6.0579">
        <ele>1560</ele>
        <time>2021-06-27T12:55:07.073Z</time>
      </trkpt>
      <trkpt lat="45.54885" lon="6.0579">
        <ele>1560</ele>
        <time>2021-06-27T12:55:08.074Z</time>
      </trkpt>
      <trkpt lat="45.54884" lon="6.0579">
        <ele>1560</ele>
        <time>2021-06-27T12:55:09.073Z</time>
      </trkpt>
      <trkpt lat="45.54883" lon="6.05791">
        <ele>1560</ele>
        <time>2021-06-27T12:55:10.073Z</time>
      </trkpt>
      <trkpt lat="45.54882" lon="6.05791">
        <ele>1559</ele>
        <time>2021-06-27T12:55:11.074Z</time>
      </trkpt>
      <trkpt lat="45.54881" lon="6.05792">
        <ele>1559</ele>
        <time>2021-06-27T12:55:12.074Z</time>
      </trkpt>
      <trkpt lat="45.5488" lon="6.05792">
        <ele>1559</ele>
        <time>2021-06-27T12:55:13.073Z</time>
      </trkpt>
      <trkpt lat="45.54879" lon="6.05791">
        <ele>1559</ele>
        <time>2021-06-27T12:55:14.074Z</time>
      </trkpt>
      <trkpt lat="45.54878" lon="6.05791">
        <ele>1559</ele>
        <time>2021-06-27T12:55:15.074Z</time>
      </trkpt>
      <trkpt lat="45.54877" lon="6.0579">
        <ele>1559</ele>
        <time>2021-06-27T12:55:16.074Z</time>
      </trkpt>
      <trkpt lat="45.54877" lon="6.0579">
        <ele>1559</ele>
        <time>2021-06-27T12:55:17.073Z</time>
      </trkpt>
      <trkpt lat="45.54876" lon="6.05789">
        <ele>1559</ele>
        <time>2021-06-27T12:55:18.073Z</time>
      </trkpt>
      <trkpt lat="45.54875" lon="6.05788">
        <ele>1559</ele>
        <time>2021-06-27T12:55:19.074Z</time>
      </trkpt>
      <trkpt lat="45.54874" lon="6.05787">
        <ele>1558</ele>
        <time>2021-06-27T12:55:20.073Z</time>
      </trkpt>
      <trkpt lat="45.54874" lon="6.05785">
        <ele>1558</ele>
        <time>2021-06-27T12:55:21.074Z</time>
      </trkpt>
      <trkpt lat="45.54873" lon="6.05784">
        <ele>1558</ele>
        <time>2021-06-27T12:55:22.074Z</time>
      </trkpt>
      <trkpt lat="45.54872" lon="6.05782">
        <ele>1557</ele>
        <time>2021-06-27T12:55:23.074Z</time>
      </trkpt>
      <trkpt lat="45.54872" lon="6.0578">
        <ele>1557</ele>
        <time>2021-06-27T12:55:24.074Z</time>
      </trkpt>
      <trkpt lat="45.54871" lon="6.05778">
        <ele>1557</ele>
        <time>2021-06-27T12:55:25.074Z</time>
      </trkpt>
      <trkpt lat="45.54871" lon="6.05777">
        <ele>1557</ele>
        <time>2021-06-27T12:55:26.074Z</time>
      </trkpt>
      <trkpt lat="45.5487" lon="6.05776">
        <ele>1557</ele>
        <time>2021-06-27T12:55:27.074Z</time>
      </trkpt>
      <trkpt lat="45.5487" lon="6.05775">
        <ele>1557</ele>
        <time>2021-06-27T12:55:28.073Z</time>
      </trkpt>
      <trkpt lat="45.5487" lon="6.05774">
        <ele>1557</ele>
        <time>2021-06-27T12:55:29.073Z</time>
      </trkpt>
      <trkpt lat="45.54869" lon="6.05773">
        <ele>1556</ele>
        <time>2021-06-27T12:55:30.073Z</time>
      </trkpt>
      <trkpt lat="45.54868" lon="6.05772">
        <ele>1556</ele>
        <time>2021-06-27T12:55:31.074Z</time>
      </trkpt>
      <trkpt lat="45.54868" lon="6.05771">
        <ele>1555</ele>
        <time>2021-06-27T12:55:32.074Z</time>
      </trkpt>
      <trkpt lat="45.54868" lon="6.0577">
        <ele>1555</ele>
        <time>2021-06-27T12:55:33.074Z</time>
      </trkpt>
      <trkpt lat="45.54867" lon="6.0577">
        <ele>1554</ele>
        <time>2021-06-27T12:55:34.074Z</time>
      </trkpt>
      <trkpt lat="45.54867" lon="6.0577">
        <ele>1554</ele>
        <time>2021-06-27T12:55:35.074Z</time>
      </trkpt>
      <trkpt lat="45.54866" lon="6.05769">
        <ele>1554</ele>
        <time>2021-06-27T12:55:36.074Z</time>
      </trkpt>
      <trkpt lat="45.54865" lon="6.05769">
        <ele>1554</ele>
        <time>2021-06-27T12:55:37.073Z</time>
      </trkpt>
      <trkpt lat="45.54864" lon="6.05768">
        <ele>1553</ele>
        <time>2021-06-27T12:55:38.073Z</time>
      </trkpt>
      <trkpt lat="45.54863" lon="6.05768">
        <ele>1553</ele>
        <time>2021-06-27T12:55:39.074Z</time>
      </trkpt>
      <trkpt lat="45.54863" lon="6.05768">
        <ele>1552</ele>
        <time>2021-06-27T12:55:40.073Z</time>
      </trkpt>
      <trkpt lat="45.54862" lon="6.05769">
        <ele>1552</ele>
        <time>2021-06-27T12:55:41.074Z</time>
      </trkpt>
      <trkpt lat="45.54861" lon="6.05769">
        <ele>1552</ele>
        <time>2021-06-27T12:55:42.074Z</time>
      </trkpt>
      <trkpt lat="45.5486" lon="6.0577">
        <ele>1552</ele>
        <time>2021-06-27T12:55:43.073Z</time>
      </trkpt>
      <trkpt lat="45.54859" lon="6.0577">
        <ele>1552</ele>
        <time>2021-06-27T12:55:44.074Z</time>
      </trkpt>
      <trkpt lat="45.54858" lon="6.0577">
        <ele>1552</ele>
        <time>2021-06-27T12:55:45.074Z</time>
      </trkpt>
      <trkpt lat="45.54857" lon="6.0577">
        <ele>1552</ele>
        <time>2021-06-27T12:55:46.074Z</time>
      </trkpt>
      <trkpt lat="45.54856" lon="6.05769">
        <ele>1551</ele>
        <time>2021-06-27T12:55:47.074Z</time>
      </trkpt>
      <trkpt lat="45.54855" lon="6.05769">
        <ele>1551</ele>
        <time>2021-06-27T12:55:48.074Z</time>
      </trkpt>
      <trkpt lat="45.54854" lon="6.05769">
        <ele>1550</ele>
        <time>2021-06-27T12:55:49.073Z</time>
      </trkpt>
      <trkpt lat="45.54854" lon="6.05769">
        <ele>1550</ele>
        <time>2021-06-27T12:55:50.074Z</time>
      </trkpt>
      <trkpt lat="45.54853" lon="6.05769">
        <ele>1549</ele>
        <time>2021-06-27T12:55:51.074Z</time>
      </trkpt>
      <trkpt lat="45.54851" lon="6.05768">
        <ele>1549</ele>
        <time>2021-06-27T12:55:52.074Z</time>
      </trkpt>
      <trkpt lat="45.5485" lon="6.05767">
        <ele>1548</ele>
        <time>2021-06-27T12:55:53.073Z</time>
      </trkpt>
      <trkpt lat="45.54848" lon="6.05766">
        <ele>1548</ele>
        <time>2021-06-27T12:55:54.073Z</time>
      </trkpt>
      <trkpt lat="45.54848" lon="6.05765">
        <ele>1548</ele>
        <time>2021-06-27T12:55:55.073Z</time>
      </trkpt>
      <trkpt lat="45.54847" lon="6.05764">
        <ele>1548</ele>
        <time>2021-06-27T12:55:56.073Z</time>
      </trkpt>
      <trkpt lat="45.54846" lon="6.05763">
        <ele>1547</ele>
        <time>2021-06-27T12:55:57.074Z</time>
      </trkpt>
      <trkpt lat="45.54846" lon="6.05762">
        <ele>1547</ele>
        <time>2021-06-27T12:55:58.073Z</time>
      </trkpt>
      <trkpt lat="45.54845" lon="6.0576">
        <ele>1547</ele>
        <time>2021-06-27T12:55:59.074Z</time>
      </trkpt>
      <trkpt lat="45.54845" lon="6.05759">
        <ele>1547</ele>
        <time>2021-06-27T12:56:00.073Z</time>
      </trkpt>
      <trkpt lat="45.54844" lon="6.05758">
        <ele>1546</ele>
        <time>2021-06-27T12:56:01.074Z</time>
      </trkpt>
      <trkpt lat="45.54844" lon="6.05756">
        <ele>1546</ele>
        <time>2021-06-27T12:56:02.073Z</time>
      </trkpt>
      <trkpt lat="45.54844" lon="6.05756">
        <ele>1546</ele>
        <time>2021-06-27T12:56:03.074Z</time>
      </trkpt>
      <trkpt lat="45.54844" lon="6.05755">
        <ele>1546</ele>
        <time>2021-06-27T12:56:04.074Z</time>
      </trkpt>
      <trkpt lat="45.54844" lon="6.05755">
        <ele>1546</ele>
        <time>2021-06-27T12:56:05.074Z</time>
      </trkpt>
      <trkpt lat="45.54844" lon="6.05755">
        <ele>1546</ele>
        <time>2021-06-27T12:56:06.074Z</time>
      </trkpt>
      <trkpt lat="45.54843" lon="6.05754">
        <ele>1545</ele>
        <time>2021-06-27T12:56:07.074Z</time>
      </trkpt>
      <trkpt lat="45.54842" lon="6.05754">
        <ele>1545</ele>
        <time>2021-06-27T12:56:08.073Z</time>
      </trkpt>
      <trkpt lat="45.54842" lon="6.05754">
        <ele>1545</ele>
        <time>2021-06-27T12:56:09.074Z</time>
      </trkpt>
      <trkpt lat="45.54841" lon="6.05754">
        <ele>1545</ele>
        <time>2021-06-27T12:56:10.074Z</time>
      </trkpt>
      <trkpt lat="45.5484" lon="6.05754">
        <ele>1545</ele>
        <time>2021-06-27T12:56:11.074Z</time>
      </trkpt>
      <trkpt lat="45.5484" lon="6.05754">
        <ele>1544</ele>
        <time>2021-06-27T12:56:12.074Z</time>
      </trkpt>
      <trkpt lat="45.54839" lon="6.05755">
        <ele>1544</ele>
        <time>2021-06-27T12:56:13.073Z</time>
      </trkpt>
      <trkpt lat="45.54838" lon="6.05755">
        <ele>1544</ele>
        <time>2021-06-27T12:56:14.074Z</time>
      </trkpt>
      <trkpt lat="45.54837" lon="6.05756">
        <ele>1543</ele>
        <time>2021-06-27T12:56:15.074Z</time>
      </trkpt>
      <trkpt lat="45.54836" lon="6.05756">
        <ele>1543</ele>
        <time>2021-06-27T12:56:16.074Z</time>
      </trkpt>
      <trkpt lat="45.54835" lon="6.05757">
        <ele>1543</ele>
        <time>2021-06-27T12:56:17.074Z</time>
      </trkpt>
      <trkpt lat="45.54834" lon="6.05757">
        <ele>1543</ele>
        <time>2021-06-27T12:56:18.074Z</time>
      </trkpt>
      <trkpt lat="45.54833" lon="6.05757">
        <ele>1543</ele>
        <time>2021-06-27T12:56:19.074Z</time>
      </trkpt>
      <trkpt lat="45.54833" lon="6.05756">
        <ele>1543</ele>
        <time>2021-06-27T12:56:20.074Z</time>
      </trkpt>
      <trkpt lat="45.54832" lon="6.05755">
        <ele>1543</ele>
        <time>2021-06-27T12:56:21.074Z</time>
      </trkpt>
      <trkpt lat="45.54832" lon="6.05754">
        <ele>1543</ele>
        <time>2021-06-27T12:56:22.074Z</time>
      </trkpt>
      <trkpt lat="45.54832" lon="6.05753">
        <ele>1544</ele>
        <time>2021-06-27T12:56:23.074Z</time>
      </trkpt>
      <trkpt lat="45.54832" lon="6.05752">
        <ele>1544</ele>
        <time>2021-06-27T12:56:24.074Z</time>
      </trkpt>
      <trkpt lat="45.54832" lon="6.05751">
        <ele>1544</ele>
        <time>2021-06-27T12:56:25.074Z</time>
      </trkpt>
      <trkpt lat="45.54832" lon="6.0575">
        <ele>1544</ele>
        <time>2021-06-27T12:56:26.073Z</time>
      </trkpt>
      <trkpt lat="45.54831" lon="6.05749">
        <ele>1544</ele>
        <time>2021-06-27T12:56:27.074Z</time>
      </trkpt>
      <trkpt lat="45.54831" lon="6.05748">
        <ele>1543</ele>
        <time>2021-06-27T12:56:28.074Z</time>
      </trkpt>
      <trkpt lat="45.54831" lon="6.05747">
        <ele>1543</ele>
        <time>2021-06-27T12:56:29.074Z</time>
      </trkpt>
      <trkpt lat="45.5483" lon="6.05746">
        <ele>1543</ele>
        <time>2021-06-27T12:56:30.073Z</time>
      </trkpt>
      <trkpt lat="45.54829" lon="6.05745">
        <ele>1543</ele>
        <time>2021-06-27T12:56:31.074Z</time>
      </trkpt>
      <trkpt lat="45.54829" lon="6.05744">
        <ele>1543</ele>
        <time>2021-06-27T12:56:32.073Z</time>
      </trkpt>
      <trkpt lat="45.54828" lon="6.05743">
        <ele>1542</ele>
        <time>2021-06-27T12:56:33.074Z</time>
      </trkpt>
      <trkpt lat="45.54828" lon="6.05742">
        <ele>1542</ele>
        <time>2021-06-27T12:56:34.074Z</time>
      </trkpt>
      <trkpt lat="45.54827" lon="6.05741">
        <ele>1542</ele>
        <time>2021-06-27T12:56:35.073Z</time>
      </trkpt>
      <trkpt lat="45.54827" lon="6.0574">
        <ele>1542</ele>
        <time>2021-06-27T12:56:36.074Z</time>
      </trkpt>
      <trkpt lat="45.54826" lon="6.05739">
        <ele>1541</ele>
        <time>2021-06-27T12:56:37.074Z</time>
      </trkpt>
      <trkpt lat="45.54826" lon="6.05738">
        <ele>1541</ele>
        <time>2021-06-27T12:56:38.074Z</time>
      </trkpt>
      <trkpt lat="45.54825" lon="6.05737">
        <ele>1541</ele>
        <time>2021-06-27T12:56:39.074Z</time>
      </trkpt>
      <trkpt lat="45.54824" lon="6.05736">
        <ele>1541</ele>
        <time>2021-06-27T12:56:40.074Z</time>
      </trkpt>
      <trkpt lat="45.54823" lon="6.05734">
        <ele>1540</ele>
        <time>2021-06-27T12:56:41.074Z</time>
      </trkpt>
      <trkpt lat="45.54823" lon="6.05733">
        <ele>1540</ele>
        <time>2021-06-27T12:56:42.073Z</time>
      </trkpt>
      <trkpt lat="45.54823" lon="6.05732">
        <ele>1540</ele>
        <time>2021-06-27T12:56:43.074Z</time>
      </trkpt>
      <trkpt lat="45.54822" lon="6.0573">
        <ele>1540</ele>
        <time>2021-06-27T12:56:44.074Z</time>
      </trkpt>
      <trkpt lat="45.54822" lon="6.05729">
        <ele>1539</ele>
        <time>2021-06-27T12:56:45.074Z</time>
      </trkpt>
      <trkpt lat="45.54822" lon="6.05727">
        <ele>1539</ele>
        <time>2021-06-27T12:56:46.074Z</time>
      </trkpt>
      <trkpt lat="45.54822" lon="6.05726">
        <ele>1538</ele>
        <time>2021-06-27T12:56:47.073Z</time>
      </trkpt>
      <trkpt lat="45.54822" lon="6.05726">
        <ele>1538</ele>
        <time>2021-06-27T12:56:48.074Z</time>
      </trkpt>
      <trkpt lat="45.54822" lon="6.05725">
        <ele>1538</ele>
        <time>2021-06-27T12:56:49.074Z</time>
      </trkpt>
      <trkpt lat="45.54822" lon="6.05725">
        <ele>1537</ele>
        <time>2021-06-27T12:56:50.073Z</time>
      </trkpt>
      <trkpt lat="45.54822" lon="6.05725">
        <ele>1537</ele>
        <time>2021-06-27T12:56:51.073Z</time>
      </trkpt>
      <trkpt lat="45.54822" lon="6.05725">
        <ele>1537</ele>
        <time>2021-06-27T12:56:52.073Z</time>
      </trkpt>
      <trkpt lat="45.54822" lon="6.05725">
        <ele>1537</ele>
        <time>2021-06-27T12:56:53.073Z</time>
      </trkpt>
      <trkpt lat="45.54822" lon="6.05725">
        <ele>1537</ele>
        <time>2021-06-27T12:56:54.073Z</time>
      </trkpt>
      <trkpt lat="45.54822" lon="6.05725">
        <ele>1537</ele>
        <time>2021-06-27T12:56:55.073Z</time>
      </trkpt>
      <trkpt lat="45.54821" lon="6.05725">
        <ele>1537</ele>
        <time>2021-06-27T12:56:56.073Z</time>
      </trkpt>
      <trkpt lat="45.54821" lon="6.05724">
        <ele>1537</ele>
        <time>2021-06-27T12:56:57.074Z</time>
      </trkpt>
      <trkpt lat="45.54821" lon="6.05724">
        <ele>1536</ele>
        <time>2021-06-27T12:56:58.074Z</time>
      </trkpt>
      <trkpt lat="45.54821" lon="6.05724">
        <ele>1536</ele>
        <time>2021-06-27T12:56:59.074Z</time>
      </trkpt>
      <trkpt lat="45.54821" lon="6.05723">
        <ele>1536</ele>
        <time>2021-06-27T12:57:00.074Z</time>
      </trkpt>
      <trkpt lat="45.54822" lon="6.05723">
        <ele>1536</ele>
        <time>2021-06-27T12:57:01.074Z</time>
      </trkpt>
      <trkpt lat="45.54822" lon="6.05722">
        <ele>1536</ele>
        <time>2021-06-27T12:57:02.073Z</time>
      </trkpt>
      <trkpt lat="45.54822" lon="6.05722">
        <ele>1536</ele>
        <time>2021-06-27T12:57:03.073Z</time>
      </trkpt>
      <trkpt lat="45.54821" lon="6.05722">
        <ele>1536</ele>
        <time>2021-06-27T12:57:04.073Z</time>
      </trkpt>
      <trkpt lat="45.54822" lon="6.05722">
        <ele>1536</ele>
        <time>2021-06-27T12:57:05.074Z</time>
      </trkpt>
      <trkpt lat="45.54822" lon="6.05721">
        <ele>1536</ele>
        <time>2021-06-27T12:57:06.074Z</time>
      </trkpt>
      <trkpt lat="45.54822" lon="6.05721">
        <ele>1536</ele>
        <time>2021-06-27T12:57:07.074Z</time>
      </trkpt>
      <trkpt lat="45.54822" lon="6.05721">
        <ele>1537</ele>
        <time>2021-06-27T12:57:08.074Z</time>
      </trkpt>
      <trkpt lat="45.54822" lon="6.05721">
        <ele>1537</ele>
        <time>2021-06-27T12:57:09.074Z</time>
      </trkpt>
      <trkpt lat="45.54822" lon="6.05722">
        <ele>1537</ele>
        <time>2021-06-27T12:57:10.074Z</time>
      </trkpt>
      <trkpt lat="45.54823" lon="6.05722">
        <ele>1536</ele>
        <time>2021-06-27T12:57:11.074Z</time>
      </trkpt>
      <trkpt lat="45.54823" lon="6.05721">
        <ele>1535</ele>
        <time>2021-06-27T12:57:12.074Z</time>
      </trkpt>
      <trkpt lat="45.54823" lon="6.05721">
        <ele>1535</ele>
        <time>2021-06-27T12:57:13.073Z</time>
      </trkpt>
      <trkpt lat="45.54823" lon="6.05721">
        <ele>1534</ele>
        <time>2021-06-27T12:57:14.074Z</time>
      </trkpt>
      <trkpt lat="45.54823" lon="6.05721">
        <ele>1534</ele>
        <time>2021-06-27T12:57:15.074Z</time>
      </trkpt>
      <trkpt lat="45.54823" lon="6.05721">
        <ele>1533</ele>
        <time>2021-06-27T12:57:16.073Z</time>
      </trkpt>
      <trkpt lat="45.54822" lon="6.05721">
        <ele>1533</ele>
        <time>2021-06-27T12:57:17.074Z</time>
      </trkpt>
      <trkpt lat="45.54822" lon="6.05721">
        <ele>1533</ele>
        <time>2021-06-27T12:57:18.074Z</time>
      </trkpt>
      <trkpt lat="45.54821" lon="6.05719">
        <ele>1533</ele>
        <time>2021-06-27T12:57:19.074Z</time>
      </trkpt>
      <trkpt lat="45.54821" lon="6.05718">
        <ele>1533</ele>
        <time>2021-06-27T12:57:20.074Z</time>
      </trkpt>
      <trkpt lat="45.54821" lon="6.05717">
        <ele>1532</ele>
        <time>2021-06-27T12:57:21.073Z</time>
      </trkpt>
      <trkpt lat="45.5482" lon="6.05716">
        <ele>1532</ele>
        <time>2021-06-27T12:57:22.073Z</time>
      </trkpt>
      <trkpt lat="45.5482" lon="6.05715">
        <ele>1532</ele>
        <time>2021-06-27T12:57:23.073Z</time>
      </trkpt>
      <trkpt lat="45.5482" lon="6.05715">
        <ele>1532</ele>
        <time>2021-06-27T12:57:24.074Z</time>
      </trkpt>
      <trkpt lat="45.5482" lon="6.05715">
        <ele>1532</ele>
        <time>2021-06-27T12:57:25.074Z</time>
      </trkpt>
      <trkpt lat="45.5482" lon="6.05715">
        <ele>1532</ele>
        <time>2021-06-27T12:57:26.074Z</time>
      </trkpt>
      <trkpt lat="45.5482" lon="6.05715">
        <ele>1531</ele>
        <time>2021-06-27T12:57:27.073Z</time>
      </trkpt>
      <trkpt lat="45.5482" lon="6.05715">
        <ele>1531</ele>
        <time>2021-06-27T12:57:28.073Z</time>
      </trkpt>
      <trkpt lat="45.5482" lon="6.05715">
        <ele>1531</ele>
        <time>2021-06-27T12:57:29.073Z</time>
      </trkpt>
      <trkpt lat="45.5482" lon="6.05715">
        <ele>1531</ele>
        <time>2021-06-27T12:57:30.074Z</time>
      </trkpt>
      <trkpt lat="45.5482" lon="6.05716">
        <ele>1531</ele>
        <time>2021-06-27T12:57:31.073Z</time>
      </trkpt>
      <trkpt lat="45.5482" lon="6.05717">
        <ele>1532</ele>
        <time>2021-06-27T12:57:32.074Z</time>
      </trkpt>
      <trkpt lat="45.5482" lon="6.05717">
        <ele>1532</ele>
        <time>2021-06-27T12:57:33.073Z</time>
      </trkpt>
      <trkpt lat="45.5482" lon="6.05716">
        <ele>1533</ele>
        <time>2021-06-27T12:57:34.074Z</time>
      </trkpt>
      <trkpt lat="45.5482" lon="6.05716">
        <ele>1533</ele>
        <time>2021-06-27T12:57:35.074Z</time>
      </trkpt>
      <trkpt lat="45.54821" lon="6.05716">
        <ele>1533</ele>
        <time>2021-06-27T12:57:36.074Z</time>
      </trkpt>
      <trkpt lat="45.54821" lon="6.05716">
        <ele>1534</ele>
        <time>2021-06-27T12:57:37.073Z</time>
      </trkpt>
      <trkpt lat="45.54821" lon="6.05716">
        <ele>1534</ele>
        <time>2021-06-27T12:57:38.073Z</time>
      </trkpt>
      <trkpt lat="45.54821" lon="6.05716">
        <ele>1534</ele>
        <time>2021-06-27T12:57:39.073Z</time>
      </trkpt>
      <trkpt lat="45.5482" lon="6.05716">
        <ele>1534</ele>
        <time>2021-06-27T12:57:40.074Z</time>
      </trkpt>
      <trkpt lat="45.5482" lon="6.05716">
        <ele>1534</ele>
        <time>2021-06-27T12:57:41.074Z</time>
      </trkpt>
      <trkpt lat="45.5482" lon="6.05716">
        <ele>1534</ele>
        <time>2021-06-27T12:57:42.074Z</time>
      </trkpt>
      <trkpt lat="45.5482" lon="6.05716">
        <ele>1534</ele>
        <time>2021-06-27T12:57:43.074Z</time>
      </trkpt>
      <trkpt lat="45.5482" lon="6.05716">
        <ele>1534</ele>
        <time>2021-06-27T12:57:44.074Z</time>
      </trkpt>
      <trkpt lat="45.5482" lon="6.05715">
        <ele>1534</ele>
        <time>2021-06-27T12:57:45.074Z</time>
      </trkpt>
      <trkpt lat="45.5482" lon="6.05714">
        <ele>1535</ele>
        <time>2021-06-27T12:57:46.074Z</time>
      </trkpt>
      <trkpt lat="45.5482" lon="6.05714">
        <ele>1535</ele>
        <time>2021-06-27T12:57:47.074Z</time>
      </trkpt>
      <trkpt lat="45.5482" lon="6.05713">
        <ele>1535</ele>
        <time>2021-06-27T12:57:48.073Z</time>
      </trkpt>
      <trkpt lat="45.5482" lon="6.05712">
        <ele>1535</ele>
        <time>2021-06-27T12:57:49.074Z</time>
      </trkpt>
      <trkpt lat="45.5482" lon="6.05712">
        <ele>1534</ele>
        <time>2021-06-27T12:57:50.074Z</time>
      </trkpt>
      <trkpt lat="45.5482" lon="6.05712">
        <ele>1534</ele>
        <time>2021-06-27T12:57:51.074Z</time>
      </trkpt>
      <trkpt lat="45.5482" lon="6.05711">
        <ele>1534</ele>
        <time>2021-06-27T12:57:52.073Z</time>
      </trkpt>
      <trkpt lat="45.54821" lon="6.05711">
        <ele>1535</ele>
        <time>2021-06-27T12:57:53.074Z</time>
      </trkpt>
      <trkpt lat="45.54821" lon="6.0571">
        <ele>1535</ele>
        <time>2021-06-27T12:57:54.074Z</time>
      </trkpt>
      <trkpt lat="45.54821" lon="6.05709">
        <ele>1536</ele>
        <time>2021-06-27T12:57:55.074Z</time>
      </trkpt>
      <trkpt lat="45.54821" lon="6.05709">
        <ele>1536</ele>
        <time>2021-06-27T12:57:56.074Z</time>
      </trkpt>
      <trkpt lat="45.54822" lon="6.05708">
        <ele>1537</ele>
        <time>2021-06-27T12:57:57.074Z</time>
      </trkpt>
      <trkpt lat="45.54822" lon="6.05708">
        <ele>1537</ele>
        <time>2021-06-27T12:57:58.073Z</time>
      </trkpt>
      <trkpt lat="45.54822" lon="6.05707">
        <ele>1538</ele>
        <time>2021-06-27T12:57:59.073Z</time>
      </trkpt>
      <trkpt lat="45.54822" lon="6.05706">
        <ele>1537</ele>
        <time>2021-06-27T12:58:00.074Z</time>
      </trkpt>
      <trkpt lat="45.54822" lon="6.05706">
        <ele>1537</ele>
        <time>2021-06-27T12:58:01.073Z</time>
      </trkpt>
      <trkpt lat="45.54821" lon="6.05706">
        <ele>1537</ele>
        <time>2021-06-27T12:58:02.074Z</time>
      </trkpt>
      <trkpt lat="45.54821" lon="6.05705">
        <ele>1536</ele>
        <time>2021-06-27T12:58:03.073Z</time>
      </trkpt>
      <trkpt lat="45.54821" lon="6.05706">
        <ele>1536</ele>
        <time>2021-06-27T12:58:04.074Z</time>
      </trkpt>
      <trkpt lat="45.54821" lon="6.05706">
        <ele>1535</ele>
        <time>2021-06-27T12:58:05.074Z</time>
      </trkpt>
      <trkpt lat="45.5482" lon="6.05705">
        <ele>1535</ele>
        <time>2021-06-27T12:58:06.074Z</time>
      </trkpt>
      <trkpt lat="45.54818" lon="6.05705">
        <ele>1535</ele>
        <time>2021-06-27T12:58:07.074Z</time>
      </trkpt>
      <trkpt lat="45.54818" lon="6.05705">
        <ele>1536</ele>
        <time>2021-06-27T12:58:08.073Z</time>
      </trkpt>
      <trkpt lat="45.54817" lon="6.05705">
        <ele>1536</ele>
        <time>2021-06-27T12:58:09.073Z</time>
      </trkpt>
      <trkpt lat="45.54816" lon="6.05705">
        <ele>1536</ele>
        <time>2021-06-27T12:58:10.073Z</time>
      </trkpt>
      <trkpt lat="45.54815" lon="6.05705">
        <ele>1535</ele>
        <time>2021-06-27T12:58:11.073Z</time>
      </trkpt>
      <trkpt lat="45.54815" lon="6.05706">
        <ele>1535</ele>
        <time>2021-06-27T12:58:12.074Z</time>
      </trkpt>
      <trkpt lat="45.54814" lon="6.05706">
        <ele>1535</ele>
        <time>2021-06-27T12:58:13.074Z</time>
      </trkpt>
      <trkpt lat="45.54814" lon="6.05706">
        <ele>1535</ele>
        <time>2021-06-27T12:58:14.073Z</time>
      </trkpt>
      <trkpt lat="45.54813" lon="6.05705">
        <ele>1535</ele>
        <time>2021-06-27T12:58:15.074Z</time>
      </trkpt>
      <trkpt lat="45.54812" lon="6.05704">
        <ele>1535</ele>
        <time>2021-06-27T12:58:16.074Z</time>
      </trkpt>
      <trkpt lat="45.54812" lon="6.05704">
        <ele>1535</ele>
        <time>2021-06-27T12:58:17.073Z</time>
      </trkpt>
      <trkpt lat="45.54812" lon="6.05704">
        <ele>1534</ele>
        <time>2021-06-27T12:58:18.073Z</time>
      </trkpt>
      <trkpt lat="45.54811" lon="6.05703">
        <ele>1534</ele>
        <time>2021-06-27T12:58:19.074Z</time>
      </trkpt>
      <trkpt lat="45.5481" lon="6.05703">
        <ele>1533</ele>
        <time>2021-06-27T12:58:20.074Z</time>
      </trkpt>
      <trkpt lat="45.5481" lon="6.05702">
        <ele>1533</ele>
        <time>2021-06-27T12:58:21.074Z</time>
      </trkpt>
      <trkpt lat="45.54809" lon="6.05702">
        <ele>1532</ele>
        <time>2021-06-27T12:58:22.073Z</time>
      </trkpt>
      <trkpt lat="45.54809" lon="6.05702">
        <ele>1531</ele>
        <time>2021-06-27T12:58:23.073Z</time>
      </trkpt>
      <trkpt lat="45.54808" lon="6.05701">
        <ele>1531</ele>
        <time>2021-06-27T12:58:24.073Z</time>
      </trkpt>
      <trkpt lat="45.54807" lon="6.057">
        <ele>1530</ele>
        <time>2021-06-27T12:58:25.074Z</time>
      </trkpt>
      <trkpt lat="45.54807" lon="6.057">
        <ele>1530</ele>
        <time>2021-06-27T12:58:26.074Z</time>
      </trkpt>
      <trkpt lat="45.54806" lon="6.05699">
        <ele>1530</ele>
        <time>2021-06-27T12:58:27.074Z</time>
      </trkpt>
      <trkpt lat="45.54805" lon="6.05698">
        <ele>1531</ele>
        <time>2021-06-27T12:58:28.073Z</time>
      </trkpt>
      <trkpt lat="45.54805" lon="6.05697">
        <ele>1531</ele>
        <time>2021-06-27T12:58:29.074Z</time>
      </trkpt>
      <trkpt lat="45.54804" lon="6.05696">
        <ele>1531</ele>
        <time>2021-06-27T12:58:30.074Z</time>
      </trkpt>
      <trkpt lat="45.54804" lon="6.05696">
        <ele>1531</ele>
        <time>2021-06-27T12:58:31.074Z</time>
      </trkpt>
      <trkpt lat="45.54803" lon="6.05695">
        <ele>1531</ele>
        <time>2021-06-27T12:58:32.074Z</time>
      </trkpt>
      <trkpt lat="45.54803" lon="6.05695">
        <ele>1530</ele>
        <time>2021-06-27T12:58:33.073Z</time>
      </trkpt>
      <trkpt lat="45.54802" lon="6.05694">
        <ele>1529</ele>
        <time>2021-06-27T12:58:34.074Z</time>
      </trkpt>
      <trkpt lat="45.54802" lon="6.05693">
        <ele>1529</ele>
        <time>2021-06-27T12:58:35.074Z</time>
      </trkpt>
      <trkpt lat="45.54801" lon="6.05692">
        <ele>1528</ele>
        <time>2021-06-27T12:58:36.073Z</time>
      </trkpt>
      <trkpt lat="45.54801" lon="6.05692">
        <ele>1527</ele>
        <time>2021-06-27T12:58:37.074Z</time>
      </trkpt>
      <trkpt lat="45.548" lon="6.05691">
        <ele>1527</ele>
        <time>2021-06-27T12:58:38.074Z</time>
      </trkpt>
      <trkpt lat="45.54799" lon="6.0569">
        <ele>1527</ele>
        <time>2021-06-27T12:58:39.074Z</time>
      </trkpt>
      <trkpt lat="45.54798" lon="6.05689">
        <ele>1526</ele>
        <time>2021-06-27T12:58:40.073Z</time>
      </trkpt>
      <trkpt lat="45.54797" lon="6.05688">
        <ele>1526</ele>
        <time>2021-06-27T12:58:41.073Z</time>
      </trkpt>
      <trkpt lat="45.54796" lon="6.05687">
        <ele>1526</ele>
        <time>2021-06-27T12:58:42.073Z</time>
      </trkpt>
      <trkpt lat="45.54795" lon="6.05687">
        <ele>1525</ele>
        <time>2021-06-27T12:58:43.073Z</time>
      </trkpt>
      <trkpt lat="45.54794" lon="6.05686">
        <ele>1525</ele>
        <time>2021-06-27T12:58:44.074Z</time>
      </trkpt>
      <trkpt lat="45.54794" lon="6.05685">
        <ele>1525</ele>
        <time>2021-06-27T12:58:45.074Z</time>
      </trkpt>
      <trkpt lat="45.54793" lon="6.05684">
        <ele>1524</ele>
        <time>2021-06-27T12:58:46.073Z</time>
      </trkpt>
      <trkpt lat="45.54793" lon="6.05683">
        <ele>1524</ele>
        <time>2021-06-27T12:58:47.073Z</time>
      </trkpt>
      <trkpt lat="45.54792" lon="6.05683">
        <ele>1524</ele>
        <time>2021-06-27T12:58:48.074Z</time>
      </trkpt>
      <trkpt lat="45.54792" lon="6.05683">
        <ele>1525</ele>
        <time>2021-06-27T12:58:49.074Z</time>
      </trkpt>
      <trkpt lat="45.54792" lon="6.05683">
        <ele>1525</ele>
        <time>2021-06-27T12:58:50.073Z</time>
      </trkpt>
      <trkpt lat="45.54792" lon="6.05683">
        <ele>1524</ele>
        <time>2021-06-27T12:58:51.073Z</time>
      </trkpt>
      <trkpt lat="45.54791" lon="6.05682">
        <ele>1523</ele>
        <time>2021-06-27T12:58:52.074Z</time>
      </trkpt>
      <trkpt lat="45.54791" lon="6.05682">
        <ele>1523</ele>
        <time>2021-06-27T12:58:53.074Z</time>
      </trkpt>
      <trkpt lat="45.5479" lon="6.05681">
        <ele>1522</ele>
        <time>2021-06-27T12:58:54.074Z</time>
      </trkpt>
      <trkpt lat="45.54789" lon="6.05681">
        <ele>1521</ele>
        <time>2021-06-27T12:58:55.074Z</time>
      </trkpt>
      <trkpt lat="45.54788" lon="6.05681">
        <ele>1521</ele>
        <time>2021-06-27T12:58:56.073Z</time>
      </trkpt>
      <trkpt lat="45.54787" lon="6.0568">
        <ele>1520</ele>
        <time>2021-06-27T12:58:57.073Z</time>
      </trkpt>
      <trkpt lat="45.54786" lon="6.0568">
        <ele>1520</ele>
        <time>2021-06-27T12:58:58.074Z</time>
      </trkpt>
      <trkpt lat="45.54785" lon="6.0568">
        <ele>1520</ele>
        <time>2021-06-27T12:58:59.074Z</time>
      </trkpt>
      <trkpt lat="45.54784" lon="6.0568">
        <ele>1519</ele>
        <time>2021-06-27T12:59:00.074Z</time>
      </trkpt>
      <trkpt lat="45.54784" lon="6.05679">
        <ele>1519</ele>
        <time>2021-06-27T12:59:01.074Z</time>
      </trkpt>
      <trkpt lat="45.54783" lon="6.05678">
        <ele>1518</ele>
        <time>2021-06-27T12:59:02.074Z</time>
      </trkpt>
      <trkpt lat="45.54782" lon="6.05677">
        <ele>1518</ele>
        <time>2021-06-27T12:59:03.073Z</time>
      </trkpt>
      <trkpt lat="45.54782" lon="6.05676">
        <ele>1517</ele>
        <time>2021-06-27T12:59:04.074Z</time>
      </trkpt>
      <trkpt lat="45.54782" lon="6.05676">
        <ele>1516</ele>
        <time>2021-06-27T12:59:05.073Z</time>
      </trkpt>
      <trkpt lat="45.54781" lon="6.05676">
        <ele>1515</ele>
        <time>2021-06-27T12:59:06.074Z</time>
      </trkpt>
      <trkpt lat="45.5478" lon="6.05676">
        <ele>1515</ele>
        <time>2021-06-27T12:59:07.073Z</time>
      </trkpt>
      <trkpt lat="45.54779" lon="6.05677">
        <ele>1515</ele>
        <time>2021-06-27T12:59:08.074Z</time>
      </trkpt>
      <trkpt lat="45.54778" lon="6.05677">
        <ele>1514</ele>
        <time>2021-06-27T12:59:09.073Z</time>
      </trkpt>
      <trkpt lat="45.54778" lon="6.05677">
        <ele>1514</ele>
        <time>2021-06-27T12:59:10.074Z</time>
      </trkpt>
      <trkpt lat="45.54777" lon="6.05677">
        <ele>1514</ele>
        <time>2021-06-27T12:59:11.074Z</time>
      </trkpt>
      <trkpt lat="45.54777" lon="6.05676">
        <ele>1514</ele>
        <time>2021-06-27T12:59:12.073Z</time>
      </trkpt>
      <trkpt lat="45.54777" lon="6.05676">
        <ele>1514</ele>
        <time>2021-06-27T12:59:13.073Z</time>
      </trkpt>
      <trkpt lat="45.54777" lon="6.05676">
        <ele>1513</ele>
        <time>2021-06-27T12:59:14.074Z</time>
      </trkpt>
      <trkpt lat="45.54777" lon="6.05675">
        <ele>1513</ele>
        <time>2021-06-27T12:59:15.074Z</time>
      </trkpt>
      <trkpt lat="45.54777" lon="6.05675">
        <ele>1513</ele>
        <time>2021-06-27T12:59:16.074Z</time>
      </trkpt>
      <trkpt lat="45.54777" lon="6.05675">
        <ele>1512</ele>
        <time>2021-06-27T12:59:17.073Z</time>
      </trkpt>
      <trkpt lat="45.54777" lon="6.05675">
        <ele>1511</ele>
        <time>2021-06-27T12:59:18.074Z</time>
      </trkpt>
      <trkpt lat="45.54777" lon="6.05675">
        <ele>1511</ele>
        <time>2021-06-27T12:59:19.073Z</time>
      </trkpt>
      <trkpt lat="45.54777" lon="6.05675">
        <ele>1510</ele>
        <time>2021-06-27T12:59:20.073Z</time>
      </trkpt>
      <trkpt lat="45.54776" lon="6.05675">
        <ele>1510</ele>
        <time>2021-06-27T12:59:21.074Z</time>
      </trkpt>
      <trkpt lat="45.54776" lon="6.05674">
        <ele>1510</ele>
        <time>2021-06-27T12:59:22.074Z</time>
      </trkpt>
      <trkpt lat="45.54775" lon="6.05674">
        <ele>1510</ele>
        <time>2021-06-27T12:59:23.074Z</time>
      </trkpt>
      <trkpt lat="45.54775" lon="6.05674">
        <ele>1510</ele>
        <time>2021-06-27T12:59:24.073Z</time>
      </trkpt>
      <trkpt lat="45.54775" lon="6.05674">
        <ele>1511</ele>
        <time>2021-06-27T12:59:25.074Z</time>
      </trkpt>
      <trkpt lat="45.54775" lon="6.05674">
        <ele>1511</ele>
        <time>2021-06-27T12:59:26.074Z</time>
      </trkpt>
      <trkpt lat="45.54775" lon="6.05675">
        <ele>1511</ele>
        <time>2021-06-27T12:59:27.073Z</time>
      </trkpt>
      <trkpt lat="45.54775" lon="6.05675">
        <ele>1511</ele>
        <time>2021-06-27T12:59:28.073Z</time>
      </trkpt>
      <trkpt lat="45.54774" lon="6.05676">
        <ele>1510</ele>
        <time>2021-06-27T12:59:29.074Z</time>
      </trkpt>
      <trkpt lat="45.54774" lon="6.05676">
        <ele>1510</ele>
        <time>2021-06-27T12:59:30.074Z</time>
      </trkpt>
      <trkpt lat="45.54773" lon="6.05675">
        <ele>1509</ele>
        <time>2021-06-27T12:59:31.073Z</time>
      </trkpt>
      <trkpt lat="45.54773" lon="6.05675">
        <ele>1509</ele>
        <time>2021-06-27T12:59:32.074Z</time>
      </trkpt>
      <trkpt lat="45.54772" lon="6.05675">
        <ele>1508</ele>
        <time>2021-06-27T12:59:33.074Z</time>
      </trkpt>
      <trkpt lat="45.54772" lon="6.05675">
        <ele>1508</ele>
        <time>2021-06-27T12:59:34.074Z</time>
      </trkpt>
      <trkpt lat="45.54772" lon="6.05675">
        <ele>1507</ele>
        <time>2021-06-27T12:59:35.074Z</time>
      </trkpt>
      <trkpt lat="45.54771" lon="6.05674">
        <ele>1507</ele>
        <time>2021-06-27T12:59:36.074Z</time>
      </trkpt>
      <trkpt lat="45.54771" lon="6.05674">
        <ele>1506</ele>
        <time>2021-06-27T12:59:37.073Z</time>
      </trkpt>
      <trkpt lat="45.5477" lon="6.05674">
        <ele>1506</ele>
        <time>2021-06-27T12:59:38.073Z</time>
      </trkpt>
      <trkpt lat="45.5477" lon="6.05674">
        <ele>1507</ele>
        <time>2021-06-27T12:59:39.074Z</time>
      </trkpt>
      <trkpt lat="45.5477" lon="6.05674">
        <ele>1507</ele>
        <time>2021-06-27T12:59:40.074Z</time>
      </trkpt>
      <trkpt lat="45.54769" lon="6.05674">
        <ele>1507</ele>
        <time>2021-06-27T12:59:41.074Z</time>
      </trkpt>
      <trkpt lat="45.54769" lon="6.05673">
        <ele>1507</ele>
        <time>2021-06-27T12:59:42.074Z</time>
      </trkpt>
      <trkpt lat="45.54768" lon="6.05673">
        <ele>1507</ele>
        <time>2021-06-27T12:59:43.074Z</time>
      </trkpt>
      <trkpt lat="45.54768" lon="6.05673">
        <ele>1507</ele>
        <time>2021-06-27T12:59:44.074Z</time>
      </trkpt>
      <trkpt lat="45.54768" lon="6.05672">
        <ele>1507</ele>
        <time>2021-06-27T12:59:45.074Z</time>
      </trkpt>
      <trkpt lat="45.54768" lon="6.05673">
        <ele>1506</ele>
        <time>2021-06-27T12:59:46.074Z</time>
      </trkpt>
      <trkpt lat="45.54769" lon="6.05673">
        <ele>1506</ele>
        <time>2021-06-27T12:59:47.074Z</time>
      </trkpt>
      <trkpt lat="45.54769" lon="6.05672">
        <ele>1506</ele>
        <time>2021-06-27T12:59:48.073Z</time>
      </trkpt>
      <trkpt lat="45.54769" lon="6.05672">
        <ele>1506</ele>
        <time>2021-06-27T12:59:49.074Z</time>
      </trkpt>
      <trkpt lat="45.54769" lon="6.05672">
        <ele>1506</ele>
        <time>2021-06-27T12:59:50.073Z</time>
      </trkpt>
      <trkpt lat="45.54768" lon="6.0567">
        <ele>1506</ele>
        <time>2021-06-27T12:59:51.073Z</time>
      </trkpt>
      <trkpt lat="45.54768" lon="6.0567">
        <ele>1506</ele>
        <time>2021-06-27T12:59:52.073Z</time>
      </trkpt>
      <trkpt lat="45.54767" lon="6.05669">
        <ele>1505</ele>
        <time>2021-06-27T12:59:53.073Z</time>
      </trkpt>
      <trkpt lat="45.54766" lon="6.05668">
        <ele>1505</ele>
        <time>2021-06-27T12:59:54.074Z</time>
      </trkpt>
      <trkpt lat="45.54766" lon="6.05667">
        <ele>1504</ele>
        <time>2021-06-27T12:59:55.074Z</time>
      </trkpt>
      <trkpt lat="45.54766" lon="6.05666">
        <ele>1504</ele>
        <time>2021-06-27T12:59:56.073Z</time>
      </trkpt>
      <trkpt lat="45.54766" lon="6.05665">
        <ele>1504</ele>
        <time>2021-06-27T12:59:57.073Z</time>
      </trkpt>
      <trkpt lat="45.54766" lon="6.05664">
        <ele>1504</ele>
        <time>2021-06-27T12:59:58.074Z</time>
      </trkpt>
      <trkpt lat="45.54766" lon="6.05663">
        <ele>1503</ele>
        <time>2021-06-27T12:59:59.074Z</time>
      </trkpt>
      <trkpt lat="45.54765" lon="6.05662">
        <ele>1503</ele>
        <time>2021-06-27T13:00:00.074Z</time>
      </trkpt>
      <trkpt lat="45.54765" lon="6.05661">
        <ele>1503</ele>
        <time>2021-06-27T13:00:01.074Z</time>
      </trkpt>
      <trkpt lat="45.54764" lon="6.05661">
        <ele>1502</ele>
        <time>2021-06-27T13:00:02.073Z</time>
      </trkpt>
      <trkpt lat="45.54764" lon="6.0566">
        <ele>1501</ele>
        <time>2021-06-27T13:00:03.074Z</time>
      </trkpt>
      <trkpt lat="45.54763" lon="6.05659">
        <ele>1501</ele>
        <time>2021-06-27T13:00:04.073Z</time>
      </trkpt>
      <trkpt lat="45.54763" lon="6.05659">
        <ele>1501</ele>
        <time>2021-06-27T13:00:05.074Z</time>
      </trkpt>
      <trkpt lat="45.54762" lon="6.05658">
        <ele>1501</ele>
        <time>2021-06-27T13:00:06.074Z</time>
      </trkpt>
      <trkpt lat="45.54761" lon="6.05658">
        <ele>1501</ele>
        <time>2021-06-27T13:00:07.073Z</time>
      </trkpt>
      <trkpt lat="45.54761" lon="6.05658">
        <ele>1501</ele>
        <time>2021-06-27T13:00:08.074Z</time>
      </trkpt>
      <trkpt lat="45.5476" lon="6.05658">
        <ele>1501</ele>
        <time>2021-06-27T13:00:09.074Z</time>
      </trkpt>
      <trkpt lat="45.54759" lon="6.05658">
        <ele>1501</ele>
        <time>2021-06-27T13:00:10.074Z</time>
      </trkpt>
      <trkpt lat="45.54759" lon="6.05658">
        <ele>1500</ele>
        <time>2021-06-27T13:00:11.074Z</time>
      </trkpt>
      <trkpt lat="45.54758" lon="6.05658">
        <ele>1500</ele>
        <time>2021-06-27T13:00:12.073Z</time>
      </trkpt>
      <trkpt lat="45.54758" lon="6.05657">
        <ele>1499</ele>
        <time>2021-06-27T13:00:13.073Z</time>
      </trkpt>
      <trkpt lat="45.54757" lon="6.05657">
        <ele>1499</ele>
        <time>2021-06-27T13:00:14.073Z</time>
      </trkpt>
      <trkpt lat="45.54756" lon="6.05657">
        <ele>1498</ele>
        <time>2021-06-27T13:00:15.074Z</time>
      </trkpt>
      <trkpt lat="45.54756" lon="6.05657">
        <ele>1498</ele>
        <time>2021-06-27T13:00:16.073Z</time>
      </trkpt>
      <trkpt lat="45.54755" lon="6.05658">
        <ele>1497</ele>
        <time>2021-06-27T13:00:17.074Z</time>
      </trkpt>
      <trkpt lat="45.54754" lon="6.05659">
        <ele>1497</ele>
        <time>2021-06-27T13:00:18.074Z</time>
      </trkpt>
      <trkpt lat="45.54754" lon="6.05659">
        <ele>1496</ele>
        <time>2021-06-27T13:00:19.073Z</time>
      </trkpt>
      <trkpt lat="45.54753" lon="6.05659">
        <ele>1496</ele>
        <time>2021-06-27T13:00:20.073Z</time>
      </trkpt>
      <trkpt lat="45.54752" lon="6.05659">
        <ele>1496</ele>
        <time>2021-06-27T13:00:21.074Z</time>
      </trkpt>
      <trkpt lat="45.54751" lon="6.05659">
        <ele>1496</ele>
        <time>2021-06-27T13:00:22.074Z</time>
      </trkpt>
      <trkpt lat="45.5475" lon="6.05659">
        <ele>1495</ele>
        <time>2021-06-27T13:00:23.074Z</time>
      </trkpt>
      <trkpt lat="45.5475" lon="6.05659">
        <ele>1495</ele>
        <time>2021-06-27T13:00:24.073Z</time>
      </trkpt>
      <trkpt lat="45.54749" lon="6.0566">
        <ele>1495</ele>
        <time>2021-06-27T13:00:25.073Z</time>
      </trkpt>
      <trkpt lat="45.54748" lon="6.0566">
        <ele>1494</ele>
        <time>2021-06-27T13:00:26.073Z</time>
      </trkpt>
      <trkpt lat="45.54748" lon="6.0566">
        <ele>1494</ele>
        <time>2021-06-27T13:00:27.073Z</time>
      </trkpt>
      <trkpt lat="45.54748" lon="6.0566">
        <ele>1493</ele>
        <time>2021-06-27T13:00:28.074Z</time>
      </trkpt>
      <trkpt lat="45.54748" lon="6.05661">
        <ele>1493</ele>
        <time>2021-06-27T13:00:29.073Z</time>
      </trkpt>
      <trkpt lat="45.54748" lon="6.05661">
        <ele>1493</ele>
        <time>2021-06-27T13:00:30.073Z</time>
      </trkpt>
      <trkpt lat="45.54748" lon="6.0566">
        <ele>1492</ele>
        <time>2021-06-27T13:00:31.074Z</time>
      </trkpt>
      <trkpt lat="45.54749" lon="6.0566">
        <ele>1492</ele>
        <time>2021-06-27T13:00:32.074Z</time>
      </trkpt>
      <trkpt lat="45.54748" lon="6.05661">
        <ele>1491</ele>
        <time>2021-06-27T13:00:33.073Z</time>
      </trkpt>
      <trkpt lat="45.54748" lon="6.05661">
        <ele>1491</ele>
        <time>2021-06-27T13:00:34.074Z</time>
      </trkpt>
      <trkpt lat="45.54747" lon="6.05661">
        <ele>1490</ele>
        <time>2021-06-27T13:00:35.073Z</time>
      </trkpt>
      <trkpt lat="45.54747" lon="6.05661">
        <ele>1490</ele>
        <time>2021-06-27T13:00:36.074Z</time>
      </trkpt>
      <trkpt lat="45.54746" lon="6.05661">
        <ele>1489</ele>
        <time>2021-06-27T13:00:37.074Z</time>
      </trkpt>
      <trkpt lat="45.54745" lon="6.05661">
        <ele>1489</ele>
        <time>2021-06-27T13:00:38.073Z</time>
      </trkpt>
      <trkpt lat="45.54744" lon="6.0566">
        <ele>1489</ele>
        <time>2021-06-27T13:00:39.074Z</time>
      </trkpt>
      <trkpt lat="45.54744" lon="6.0566">
        <ele>1489</ele>
        <time>2021-06-27T13:00:40.073Z</time>
      </trkpt>
      <trkpt lat="45.54743" lon="6.05661">
        <ele>1489</ele>
        <time>2021-06-27T13:00:41.074Z</time>
      </trkpt>
      <trkpt lat="45.54742" lon="6.05661">
        <ele>1489</ele>
        <time>2021-06-27T13:00:42.074Z</time>
      </trkpt>
      <trkpt lat="45.54741" lon="6.05662">
        <ele>1489</ele>
        <time>2021-06-27T13:00:43.074Z</time>
      </trkpt>
      <trkpt lat="45.54741" lon="6.05663">
        <ele>1489</ele>
        <time>2021-06-27T13:00:44.074Z</time>
      </trkpt>
      <trkpt lat="45.5474" lon="6.05663">
        <ele>1488</ele>
        <time>2021-06-27T13:00:45.074Z</time>
      </trkpt>
      <trkpt lat="45.5474" lon="6.05663">
        <ele>1488</ele>
        <time>2021-06-27T13:00:46.074Z</time>
      </trkpt>
      <trkpt lat="45.54739" lon="6.05663">
        <ele>1488</ele>
        <time>2021-06-27T13:00:47.074Z</time>
      </trkpt>
      <trkpt lat="45.54738" lon="6.05663">
        <ele>1488</ele>
        <time>2021-06-27T13:00:48.073Z</time>
      </trkpt>
      <trkpt lat="45.54738" lon="6.05663">
        <ele>1488</ele>
        <time>2021-06-27T13:00:49.074Z</time>
      </trkpt>
      <trkpt lat="45.54737" lon="6.05663">
        <ele>1488</ele>
        <time>2021-06-27T13:00:50.074Z</time>
      </trkpt>
      <trkpt lat="45.54737" lon="6.05663">
        <ele>1488</ele>
        <time>2021-06-27T13:00:51.074Z</time>
      </trkpt>
      <trkpt lat="45.54736" lon="6.05663">
        <ele>1488</ele>
        <time>2021-06-27T13:00:52.074Z</time>
      </trkpt>
      <trkpt lat="45.54735" lon="6.05663">
        <ele>1488</ele>
        <time>2021-06-27T13:00:53.074Z</time>
      </trkpt>
      <trkpt lat="45.54734" lon="6.05663">
        <ele>1488</ele>
        <time>2021-06-27T13:00:54.074Z</time>
      </trkpt>
      <trkpt lat="45.54734" lon="6.05663">
        <ele>1488</ele>
        <time>2021-06-27T13:00:55.073Z</time>
      </trkpt>
      <trkpt lat="45.54733" lon="6.05663">
        <ele>1488</ele>
        <time>2021-06-27T13:00:56.074Z</time>
      </trkpt>
      <trkpt lat="45.54733" lon="6.05663">
        <ele>1488</ele>
        <time>2021-06-27T13:00:57.073Z</time>
      </trkpt>
      <trkpt lat="45.54732" lon="6.05663">
        <ele>1487</ele>
        <time>2021-06-27T13:00:58.074Z</time>
      </trkpt>
      <trkpt lat="45.54732" lon="6.05662">
        <ele>1487</ele>
        <time>2021-06-27T13:00:59.074Z</time>
      </trkpt>
      <trkpt lat="45.54731" lon="6.05662">
        <ele>1487</ele>
        <time>2021-06-27T13:01:00.074Z</time>
      </trkpt>
      <trkpt lat="45.5473" lon="6.05661">
        <ele>1486</ele>
        <time>2021-06-27T13:01:01.073Z</time>
      </trkpt>
      <trkpt lat="45.5473" lon="6.0566">
        <ele>1486</ele>
        <time>2021-06-27T13:01:02.074Z</time>
      </trkpt>
      <trkpt lat="45.54729" lon="6.05659">
        <ele>1486</ele>
        <time>2021-06-27T13:01:03.073Z</time>
      </trkpt>
      <trkpt lat="45.54729" lon="6.05657">
        <ele>1486</ele>
        <time>2021-06-27T13:01:04.074Z</time>
      </trkpt>
      <trkpt lat="45.54728" lon="6.05656">
        <ele>1486</ele>
        <time>2021-06-27T13:01:05.073Z</time>
      </trkpt>
      <trkpt lat="45.54728" lon="6.05656">
        <ele>1486</ele>
        <time>2021-06-27T13:01:06.074Z</time>
      </trkpt>
      <trkpt lat="45.54728" lon="6.05655">
        <ele>1485</ele>
        <time>2021-06-27T13:01:07.073Z</time>
      </trkpt>
      <trkpt lat="45.54727" lon="6.05655">
        <ele>1485</ele>
        <time>2021-06-27T13:01:08.074Z</time>
      </trkpt>
      <trkpt lat="45.54727" lon="6.05655">
        <ele>1485</ele>
        <time>2021-06-27T13:01:09.074Z</time>
      </trkpt>
      <trkpt lat="45.54726" lon="6.05654">
        <ele>1484</ele>
        <time>2021-06-27T13:01:10.074Z</time>
      </trkpt>
      <trkpt lat="45.54726" lon="6.05654">
        <ele>1483</ele>
        <time>2021-06-27T13:01:11.074Z</time>
      </trkpt>
      <trkpt lat="45.54725" lon="6.05653">
        <ele>1483</ele>
        <time>2021-06-27T13:01:12.074Z</time>
      </trkpt>
      <trkpt lat="45.54725" lon="6.05653">
        <ele>1482</ele>
        <time>2021-06-27T13:01:13.074Z</time>
      </trkpt>
      <trkpt lat="45.54725" lon="6.05654">
        <ele>1482</ele>
        <time>2021-06-27T13:01:14.074Z</time>
      </trkpt>
      <trkpt lat="45.54725" lon="6.05654">
        <ele>1482</ele>
        <time>2021-06-27T13:01:15.074Z</time>
      </trkpt>
      <trkpt lat="45.54725" lon="6.05654">
        <ele>1482</ele>
        <time>2021-06-27T13:01:16.073Z</time>
      </trkpt>
      <trkpt lat="45.54724" lon="6.05654">
        <ele>1481</ele>
        <time>2021-06-27T13:01:17.073Z</time>
      </trkpt>
      <trkpt lat="45.54724" lon="6.05653">
        <ele>1481</ele>
        <time>2021-06-27T13:01:18.074Z</time>
      </trkpt>
      <trkpt lat="45.54723" lon="6.05653">
        <ele>1481</ele>
        <time>2021-06-27T13:01:19.074Z</time>
      </trkpt>
      <trkpt lat="45.54723" lon="6.05653">
        <ele>1480</ele>
        <time>2021-06-27T13:01:20.074Z</time>
      </trkpt>
      <trkpt lat="45.54723" lon="6.05653">
        <ele>1480</ele>
        <time>2021-06-27T13:01:21.074Z</time>
      </trkpt>
      <trkpt lat="45.54723" lon="6.05653">
        <ele>1480</ele>
        <time>2021-06-27T13:01:22.073Z</time>
      </trkpt>
      <trkpt lat="45.54723" lon="6.05653">
        <ele>1479</ele>
        <time>2021-06-27T13:01:23.073Z</time>
      </trkpt>
      <trkpt lat="45.54722" lon="6.05653">
        <ele>1479</ele>
        <time>2021-06-27T13:01:24.073Z</time>
      </trkpt>
      <trkpt lat="45.54722" lon="6.05654">
        <ele>1479</ele>
        <time>2021-06-27T13:01:25.074Z</time>
      </trkpt>
      <trkpt lat="45.54722" lon="6.05654">
        <ele>1480</ele>
        <time>2021-06-27T13:01:26.073Z</time>
      </trkpt>
      <trkpt lat="45.54722" lon="6.05654">
        <ele>1481</ele>
        <time>2021-06-27T13:01:27.074Z</time>
      </trkpt>
      <trkpt lat="45.54722" lon="6.05654">
        <ele>1481</ele>
        <time>2021-06-27T13:01:28.073Z</time>
      </trkpt>
      <trkpt lat="45.54722" lon="6.05653">
        <ele>1481</ele>
        <time>2021-06-27T13:01:29.074Z</time>
      </trkpt>
      <trkpt lat="45.54721" lon="6.05652">
        <ele>1482</ele>
        <time>2021-06-27T13:01:30.074Z</time>
      </trkpt>
      <trkpt lat="45.54721" lon="6.05651">
        <ele>1481</ele>
        <time>2021-06-27T13:01:31.074Z</time>
      </trkpt>
      <trkpt lat="45.5472" lon="6.0565">
        <ele>1481</ele>
        <time>2021-06-27T13:01:32.074Z</time>
      </trkpt>
      <trkpt lat="45.5472" lon="6.0565">
        <ele>1480</ele>
        <time>2021-06-27T13:01:33.074Z</time>
      </trkpt>
      <trkpt lat="45.54719" lon="6.05649">
        <ele>1479</ele>
        <time>2021-06-27T13:01:34.074Z</time>
      </trkpt>
      <trkpt lat="45.54719" lon="6.05648">
        <ele>1478</ele>
        <time>2021-06-27T13:01:35.074Z</time>
      </trkpt>
      <trkpt lat="45.54719" lon="6.05648">
        <ele>1477</ele>
        <time>2021-06-27T13:01:36.074Z</time>
      </trkpt>
      <trkpt lat="45.54719" lon="6.05647">
        <ele>1477</ele>
        <time>2021-06-27T13:01:37.074Z</time>
      </trkpt>
      <trkpt lat="45.54719" lon="6.05646">
        <ele>1477</ele>
        <time>2021-06-27T13:01:38.073Z</time>
      </trkpt>
      <trkpt lat="45.54718" lon="6.05645">
        <ele>1477</ele>
        <time>2021-06-27T13:01:39.074Z</time>
      </trkpt>
      <trkpt lat="45.54719" lon="6.05644">
        <ele>1476</ele>
        <time>2021-06-27T13:01:40.073Z</time>
      </trkpt>
      <trkpt lat="45.54719" lon="6.05644">
        <ele>1476</ele>
        <time>2021-06-27T13:01:41.074Z</time>
      </trkpt>
      <trkpt lat="45.54719" lon="6.05644">
        <ele>1475</ele>
        <time>2021-06-27T13:01:42.074Z</time>
      </trkpt>
      <trkpt lat="45.54719" lon="6.05644">
        <ele>1475</ele>
        <time>2021-06-27T13:01:43.074Z</time>
      </trkpt>
      <trkpt lat="45.54719" lon="6.05645">
        <ele>1474</ele>
        <time>2021-06-27T13:01:44.074Z</time>
      </trkpt>
      <trkpt lat="45.54718" lon="6.05645">
        <ele>1474</ele>
        <time>2021-06-27T13:01:45.074Z</time>
      </trkpt>
      <trkpt lat="45.54718" lon="6.05647">
        <ele>1474</ele>
        <time>2021-06-27T13:01:46.074Z</time>
      </trkpt>
      <trkpt lat="45.54716" lon="6.05648">
        <ele>1474</ele>
        <time>2021-06-27T13:01:47.074Z</time>
      </trkpt>
      <trkpt lat="45.54715" lon="6.05649">
        <ele>1475</ele>
        <time>2021-06-27T13:01:48.074Z</time>
      </trkpt>
      <trkpt lat="45.54714" lon="6.0565">
        <ele>1475</ele>
        <time>2021-06-27T13:01:49.074Z</time>
      </trkpt>
      <trkpt lat="45.54713" lon="6.0565">
        <ele>1474</ele>
        <time>2021-06-27T13:01:50.074Z</time>
      </trkpt>
      <trkpt lat="45.54713" lon="6.0565">
        <ele>1474</ele>
        <time>2021-06-27T13:01:51.073Z</time>
      </trkpt>
      <trkpt lat="45.54712" lon="6.05651">
        <ele>1473</ele>
        <time>2021-06-27T13:01:52.073Z</time>
      </trkpt>
      <trkpt lat="45.54711" lon="6.05651">
        <ele>1472</ele>
        <time>2021-06-27T13:01:53.073Z</time>
      </trkpt>
      <trkpt lat="45.5471" lon="6.05651">
        <ele>1472</ele>
        <time>2021-06-27T13:01:54.074Z</time>
      </trkpt>
      <trkpt lat="45.54709" lon="6.0565">
        <ele>1471</ele>
        <time>2021-06-27T13:01:55.074Z</time>
      </trkpt>
      <trkpt lat="45.54708" lon="6.0565">
        <ele>1471</ele>
        <time>2021-06-27T13:01:56.073Z</time>
      </trkpt>
      <trkpt lat="45.54707" lon="6.0565">
        <ele>1470</ele>
        <time>2021-06-27T13:01:57.074Z</time>
      </trkpt>
      <trkpt lat="45.54707" lon="6.05649">
        <ele>1470</ele>
        <time>2021-06-27T13:01:58.074Z</time>
      </trkpt>
      <trkpt lat="45.54706" lon="6.05648">
        <ele>1470</ele>
        <time>2021-06-27T13:01:59.074Z</time>
      </trkpt>
      <trkpt lat="45.54705" lon="6.05647">
        <ele>1469</ele>
        <time>2021-06-27T13:02:00.073Z</time>
      </trkpt>
      <trkpt lat="45.54705" lon="6.05646">
        <ele>1469</ele>
        <time>2021-06-27T13:02:01.074Z</time>
      </trkpt>
      <trkpt lat="45.54705" lon="6.05645">
        <ele>1468</ele>
        <time>2021-06-27T13:02:02.073Z</time>
      </trkpt>
      <trkpt lat="45.54704" lon="6.05644">
        <ele>1468</ele>
        <time>2021-06-27T13:02:03.074Z</time>
      </trkpt>
      <trkpt lat="45.54704" lon="6.05643">
        <ele>1469</ele>
        <time>2021-06-27T13:02:04.074Z</time>
      </trkpt>
      <trkpt lat="45.54703" lon="6.05641">
        <ele>1469</ele>
        <time>2021-06-27T13:02:05.074Z</time>
      </trkpt>
      <trkpt lat="45.54703" lon="6.0564">
        <ele>1469</ele>
        <time>2021-06-27T13:02:06.074Z</time>
      </trkpt>
      <trkpt lat="45.54703" lon="6.05639">
        <ele>1469</ele>
        <time>2021-06-27T13:02:07.074Z</time>
      </trkpt>
      <trkpt lat="45.54702" lon="6.05638">
        <ele>1469</ele>
        <time>2021-06-27T13:02:08.074Z</time>
      </trkpt>
      <trkpt lat="45.54701" lon="6.05636">
        <ele>1469</ele>
        <time>2021-06-27T13:02:09.074Z</time>
      </trkpt>
      <trkpt lat="45.547" lon="6.05635">
        <ele>1469</ele>
        <time>2021-06-27T13:02:10.073Z</time>
      </trkpt>
      <trkpt lat="45.547" lon="6.05634">
        <ele>1469</ele>
        <time>2021-06-27T13:02:11.074Z</time>
      </trkpt>
      <trkpt lat="45.54699" lon="6.05634">
        <ele>1469</ele>
        <time>2021-06-27T13:02:12.074Z</time>
      </trkpt>
      <trkpt lat="45.54699" lon="6.05634">
        <ele>1469</ele>
        <time>2021-06-27T13:02:13.073Z</time>
      </trkpt>
      <trkpt lat="45.54698" lon="6.05633">
        <ele>1469</ele>
        <time>2021-06-27T13:02:14.074Z</time>
      </trkpt>
      <trkpt lat="45.54697" lon="6.05632">
        <ele>1469</ele>
        <time>2021-06-27T13:02:15.074Z</time>
      </trkpt>
      <trkpt lat="45.54696" lon="6.05631">
        <ele>1468</ele>
        <time>2021-06-27T13:02:16.073Z</time>
      </trkpt>
      <trkpt lat="45.54696" lon="6.05631">
        <ele>1468</ele>
        <time>2021-06-27T13:02:17.074Z</time>
      </trkpt>
      <trkpt lat="45.54694" lon="6.05631">
        <ele>1468</ele>
        <time>2021-06-27T13:02:18.074Z</time>
      </trkpt>
      <trkpt lat="45.54693" lon="6.0563">
        <ele>1468</ele>
        <time>2021-06-27T13:02:19.073Z</time>
      </trkpt>
      <trkpt lat="45.54692" lon="6.0563">
        <ele>1468</ele>
        <time>2021-06-27T13:02:20.074Z</time>
      </trkpt>
      <trkpt lat="45.54691" lon="6.05629">
        <ele>1468</ele>
        <time>2021-06-27T13:02:21.074Z</time>
      </trkpt>
      <trkpt lat="45.5469" lon="6.05628">
        <ele>1467</ele>
        <time>2021-06-27T13:02:22.073Z</time>
      </trkpt>
      <trkpt lat="45.54689" lon="6.05627">
        <ele>1467</ele>
        <time>2021-06-27T13:02:23.074Z</time>
      </trkpt>
      <trkpt lat="45.54687" lon="6.05627">
        <ele>1467</ele>
        <time>2021-06-27T13:02:24.074Z</time>
      </trkpt>
      <trkpt lat="45.54686" lon="6.05626">
        <ele>1466</ele>
        <time>2021-06-27T13:02:25.073Z</time>
      </trkpt>
      <trkpt lat="45.54684" lon="6.05625">
        <ele>1466</ele>
        <time>2021-06-27T13:02:26.074Z</time>
      </trkpt>
      <trkpt lat="45.54683" lon="6.05624">
        <ele>1466</ele>
        <time>2021-06-27T13:02:27.074Z</time>
      </trkpt>
      <trkpt lat="45.54682" lon="6.05623">
        <ele>1466</ele>
        <time>2021-06-27T13:02:28.073Z</time>
      </trkpt>
      <trkpt lat="45.5468" lon="6.05623">
        <ele>1466</ele>
        <time>2021-06-27T13:02:29.074Z</time>
      </trkpt>
      <trkpt lat="45.54679" lon="6.05623">
        <ele>1465</ele>
        <time>2021-06-27T13:02:30.074Z</time>
      </trkpt>
      <trkpt lat="45.54677" lon="6.05622">
        <ele>1465</ele>
        <time>2021-06-27T13:02:31.073Z</time>
      </trkpt>
      <trkpt lat="45.54676" lon="6.05621">
        <ele>1465</ele>
        <time>2021-06-27T13:02:32.074Z</time>
      </trkpt>
      <trkpt lat="45.54675" lon="6.0562">
        <ele>1465</ele>
        <time>2021-06-27T13:02:33.074Z</time>
      </trkpt>
      <trkpt lat="45.54674" lon="6.05619">
        <ele>1466</ele>
        <time>2021-06-27T13:02:34.073Z</time>
      </trkpt>
      <trkpt lat="45.54673" lon="6.05618">
        <ele>1466</ele>
        <time>2021-06-27T13:02:35.074Z</time>
      </trkpt>
      <trkpt lat="45.54672" lon="6.05617">
        <ele>1467</ele>
        <time>2021-06-27T13:02:36.074Z</time>
      </trkpt>
      <trkpt lat="45.54671" lon="6.05616">
        <ele>1467</ele>
        <time>2021-06-27T13:02:37.073Z</time>
      </trkpt>
      <trkpt lat="45.54669" lon="6.05614">
        <ele>1468</ele>
        <time>2021-06-27T13:02:38.073Z</time>
      </trkpt>
      <trkpt lat="45.54667" lon="6.05612">
        <ele>1468</ele>
        <time>2021-06-27T13:02:39.074Z</time>
      </trkpt>
      <trkpt lat="45.54665" lon="6.05609">
        <ele>1469</ele>
        <time>2021-06-27T13:02:40.074Z</time>
      </trkpt>
      <trkpt lat="45.54664" lon="6.05606">
        <ele>1468</ele>
        <time>2021-06-27T13:02:41.074Z</time>
      </trkpt>
      <trkpt lat="45.54663" lon="6.05605">
        <ele>1468</ele>
        <time>2021-06-27T13:02:42.074Z</time>
      </trkpt>
      <trkpt lat="45.54662" lon="6.05603">
        <ele>1468</ele>
        <time>2021-06-27T13:02:43.073Z</time>
      </trkpt>
      <trkpt lat="45.5466" lon="6.05602">
        <ele>1468</ele>
        <time>2021-06-27T13:02:44.074Z</time>
      </trkpt>
      <trkpt lat="45.54659" lon="6.05602">
        <ele>1468</ele>
        <time>2021-06-27T13:02:45.074Z</time>
      </trkpt>
      <trkpt lat="45.54658" lon="6.05601">
        <ele>1469</ele>
        <time>2021-06-27T13:02:46.073Z</time>
      </trkpt>
      <trkpt lat="45.54657" lon="6.056">
        <ele>1469</ele>
        <time>2021-06-27T13:02:47.074Z</time>
      </trkpt>
      <trkpt lat="45.54656" lon="6.05599">
        <ele>1469</ele>
        <time>2021-06-27T13:02:48.074Z</time>
      </trkpt>
      <trkpt lat="45.54656" lon="6.05598">
        <ele>1468</ele>
        <time>2021-06-27T13:02:49.073Z</time>
      </trkpt>
      <trkpt lat="45.54655" lon="6.05597">
        <ele>1467</ele>
        <time>2021-06-27T13:02:50.073Z</time>
      </trkpt>
      <trkpt lat="45.54654" lon="6.05596">
        <ele>1467</ele>
        <time>2021-06-27T13:02:51.074Z</time>
      </trkpt>
      <trkpt lat="45.54654" lon="6.05595">
        <ele>1466</ele>
        <time>2021-06-27T13:02:52.073Z</time>
      </trkpt>
      <trkpt lat="45.54653" lon="6.05594">
        <ele>1465</ele>
        <time>2021-06-27T13:02:53.074Z</time>
      </trkpt>
      <trkpt lat="45.54652" lon="6.05594">
        <ele>1465</ele>
        <time>2021-06-27T13:02:54.074Z</time>
      </trkpt>
      <trkpt lat="45.54651" lon="6.05594">
        <ele>1465</ele>
        <time>2021-06-27T13:02:55.073Z</time>
      </trkpt>
      <trkpt lat="45.5465" lon="6.05594">
        <ele>1464</ele>
        <time>2021-06-27T13:02:56.074Z</time>
      </trkpt>
      <trkpt lat="45.54649" lon="6.05594">
        <ele>1464</ele>
        <time>2021-06-27T13:02:57.073Z</time>
      </trkpt>
      <trkpt lat="45.54648" lon="6.05594">
        <ele>1464</ele>
        <time>2021-06-27T13:02:58.073Z</time>
      </trkpt>
      <trkpt lat="45.54647" lon="6.05593">
        <ele>1464</ele>
        <time>2021-06-27T13:02:59.074Z</time>
      </trkpt>
      <trkpt lat="45.54646" lon="6.05593">
        <ele>1464</ele>
        <time>2021-06-27T13:03:00.074Z</time>
      </trkpt>
      <trkpt lat="45.54645" lon="6.05592">
        <ele>1463</ele>
        <time>2021-06-27T13:03:01.073Z</time>
      </trkpt>
      <trkpt lat="45.54645" lon="6.05592">
        <ele>1463</ele>
        <time>2021-06-27T13:03:02.074Z</time>
      </trkpt>
      <trkpt lat="45.54644" lon="6.05591">
        <ele>1463</ele>
        <time>2021-06-27T13:03:03.074Z</time>
      </trkpt>
      <trkpt lat="45.54643" lon="6.0559">
        <ele>1463</ele>
        <time>2021-06-27T13:03:04.073Z</time>
      </trkpt>
      <trkpt lat="45.54643" lon="6.05589">
        <ele>1463</ele>
        <time>2021-06-27T13:03:05.074Z</time>
      </trkpt>
      <trkpt lat="45.54642" lon="6.05589">
        <ele>1463</ele>
        <time>2021-06-27T13:03:06.074Z</time>
      </trkpt>
      <trkpt lat="45.54641" lon="6.05588">
        <ele>1463</ele>
        <time>2021-06-27T13:03:07.074Z</time>
      </trkpt>
      <trkpt lat="45.54641" lon="6.05588">
        <ele>1463</ele>
        <time>2021-06-27T13:03:08.074Z</time>
      </trkpt>
      <trkpt lat="45.5464" lon="6.05588">
        <ele>1463</ele>
        <time>2021-06-27T13:03:09.074Z</time>
      </trkpt>
      <trkpt lat="45.54639" lon="6.05587">
        <ele>1462</ele>
        <time>2021-06-27T13:03:10.074Z</time>
      </trkpt>
      <trkpt lat="45.54639" lon="6.05587">
        <ele>1461</ele>
        <time>2021-06-27T13:03:11.074Z</time>
      </trkpt>
      <trkpt lat="45.54638" lon="6.05586">
        <ele>1460</ele>
        <time>2021-06-27T13:03:12.074Z</time>
      </trkpt>
      <trkpt lat="45.54637" lon="6.05586">
        <ele>1459</ele>
        <time>2021-06-27T13:03:13.074Z</time>
      </trkpt>
      <trkpt lat="45.54637" lon="6.05585">
        <ele>1458</ele>
        <time>2021-06-27T13:03:14.074Z</time>
      </trkpt>
      <trkpt lat="45.54637" lon="6.05584">
        <ele>1457</ele>
        <time>2021-06-27T13:03:15.074Z</time>
      </trkpt>
      <trkpt lat="45.54636" lon="6.05583">
        <ele>1457</ele>
        <time>2021-06-27T13:03:16.074Z</time>
      </trkpt>
      <trkpt lat="45.54636" lon="6.05582">
        <ele>1457</ele>
        <time>2021-06-27T13:03:17.074Z</time>
      </trkpt>
      <trkpt lat="45.54636" lon="6.05581">
        <ele>1457</ele>
        <time>2021-06-27T13:03:18.073Z</time>
      </trkpt>
      <trkpt lat="45.54636" lon="6.05581">
        <ele>1458</ele>
        <time>2021-06-27T13:03:19.074Z</time>
      </trkpt>
      <trkpt lat="45.54636" lon="6.05581">
        <ele>1458</ele>
        <time>2021-06-27T13:03:20.074Z</time>
      </trkpt>
      <trkpt lat="45.54636" lon="6.05582">
        <ele>1458</ele>
        <time>2021-06-27T13:03:21.073Z</time>
      </trkpt>
      <trkpt lat="45.54635" lon="6.05582">
        <ele>1458</ele>
        <time>2021-06-27T13:03:22.074Z</time>
      </trkpt>
      <trkpt lat="45.54634" lon="6.05582">
        <ele>1458</ele>
        <time>2021-06-27T13:03:23.074Z</time>
      </trkpt>
      <trkpt lat="45.54633" lon="6.05582">
        <ele>1457</ele>
        <time>2021-06-27T13:03:24.073Z</time>
      </trkpt>
      <trkpt lat="45.54631" lon="6.05583">
        <ele>1457</ele>
        <time>2021-06-27T13:03:25.073Z</time>
      </trkpt>
      <trkpt lat="45.54629" lon="6.05582">
        <ele>1457</ele>
        <time>2021-06-27T13:03:26.074Z</time>
      </trkpt>
      <trkpt lat="45.54627" lon="6.05582">
        <ele>1457</ele>
        <time>2021-06-27T13:03:27.073Z</time>
      </trkpt>
      <trkpt lat="45.54626" lon="6.05581">
        <ele>1457</ele>
        <time>2021-06-27T13:03:28.074Z</time>
      </trkpt>
      <trkpt lat="45.54626" lon="6.0558">
        <ele>1457</ele>
        <time>2021-06-27T13:03:29.074Z</time>
      </trkpt>
      <trkpt lat="45.54626" lon="6.05579">
        <ele>1457</ele>
        <time>2021-06-27T13:03:30.074Z</time>
      </trkpt>
      <trkpt lat="45.54625" lon="6.05578">
        <ele>1456</ele>
        <time>2021-06-27T13:03:31.074Z</time>
      </trkpt>
      <trkpt lat="45.54625" lon="6.05577">
        <ele>1456</ele>
        <time>2021-06-27T13:03:32.074Z</time>
      </trkpt>
      <trkpt lat="45.54625" lon="6.05576">
        <ele>1456</ele>
        <time>2021-06-27T13:03:33.074Z</time>
      </trkpt>
      <trkpt lat="45.54624" lon="6.05575">
        <ele>1455</ele>
        <time>2021-06-27T13:03:34.073Z</time>
      </trkpt>
      <trkpt lat="45.54623" lon="6.05575">
        <ele>1455</ele>
        <time>2021-06-27T13:03:35.074Z</time>
      </trkpt>
      <trkpt lat="45.54623" lon="6.05575">
        <ele>1454</ele>
        <time>2021-06-27T13:03:36.073Z</time>
      </trkpt>
      <trkpt lat="45.54622" lon="6.05574">
        <ele>1455</ele>
        <time>2021-06-27T13:03:37.074Z</time>
      </trkpt>
      <trkpt lat="45.5462" lon="6.05573">
        <ele>1456</ele>
        <time>2021-06-27T13:03:38.074Z</time>
      </trkpt>
      <trkpt lat="45.54619" lon="6.05573">
        <ele>1456</ele>
        <time>2021-06-27T13:03:39.073Z</time>
      </trkpt>
      <trkpt lat="45.54618" lon="6.05571">
        <ele>1456</ele>
        <time>2021-06-27T13:03:40.074Z</time>
      </trkpt>
      <trkpt lat="45.54618" lon="6.0557">
        <ele>1457</ele>
        <time>2021-06-27T13:03:41.074Z</time>
      </trkpt>
      <trkpt lat="45.54617" lon="6.0557">
        <ele>1457</ele>
        <time>2021-06-27T13:03:42.074Z</time>
      </trkpt>
      <trkpt lat="45.54618" lon="6.05569">
        <ele>1457</ele>
        <time>2021-06-27T13:03:43.074Z</time>
      </trkpt>
      <trkpt lat="45.54618" lon="6.05569">
        <ele>1457</ele>
        <time>2021-06-27T13:03:44.073Z</time>
      </trkpt>
      <trkpt lat="45.54618" lon="6.05568">
        <ele>1457</ele>
        <time>2021-06-27T13:03:45.074Z</time>
      </trkpt>
      <trkpt lat="45.54618" lon="6.05567">
        <ele>1456</ele>
        <time>2021-06-27T13:03:46.074Z</time>
      </trkpt>
      <trkpt lat="45.54618" lon="6.05567">
        <ele>1456</ele>
        <time>2021-06-27T13:03:47.074Z</time>
      </trkpt>
      <trkpt lat="45.54618" lon="6.05567">
        <ele>1455</ele>
        <time>2021-06-27T13:03:48.074Z</time>
      </trkpt>
      <trkpt lat="45.54617" lon="6.05566">
        <ele>1455</ele>
        <time>2021-06-27T13:03:49.074Z</time>
      </trkpt>
      <trkpt lat="45.54616" lon="6.05566">
        <ele>1454</ele>
        <time>2021-06-27T13:03:50.074Z</time>
      </trkpt>
      <trkpt lat="45.54615" lon="6.05566">
        <ele>1454</ele>
        <time>2021-06-27T13:03:51.074Z</time>
      </trkpt>
      <trkpt lat="45.54614" lon="6.05565">
        <ele>1453</ele>
        <time>2021-06-27T13:03:52.074Z</time>
      </trkpt>
      <trkpt lat="45.54614" lon="6.05564">
        <ele>1453</ele>
        <time>2021-06-27T13:03:53.074Z</time>
      </trkpt>
      <trkpt lat="45.54613" lon="6.05563">
        <ele>1453</ele>
        <time>2021-06-27T13:03:54.073Z</time>
      </trkpt>
      <trkpt lat="45.54612" lon="6.05562">
        <ele>1453</ele>
        <time>2021-06-27T13:03:55.074Z</time>
      </trkpt>
      <trkpt lat="45.54611" lon="6.05562">
        <ele>1452</ele>
        <time>2021-06-27T13:03:56.074Z</time>
      </trkpt>
      <trkpt lat="45.5461" lon="6.05561">
        <ele>1452</ele>
        <time>2021-06-27T13:03:57.074Z</time>
      </trkpt>
      <trkpt lat="45.5461" lon="6.05559">
        <ele>1452</ele>
        <time>2021-06-27T13:03:58.074Z</time>
      </trkpt>
      <trkpt lat="45.54609" lon="6.05558">
        <ele>1452</ele>
        <time>2021-06-27T13:03:59.074Z</time>
      </trkpt>
      <trkpt lat="45.54608" lon="6.05557">
        <ele>1452</ele>
        <time>2021-06-27T13:04:00.073Z</time>
      </trkpt>
      <trkpt lat="45.54608" lon="6.05556">
        <ele>1452</ele>
        <time>2021-06-27T13:04:01.074Z</time>
      </trkpt>
      <trkpt lat="45.54608" lon="6.05556">
        <ele>1452</ele>
        <time>2021-06-27T13:04:02.074Z</time>
      </trkpt>
      <trkpt lat="45.54608" lon="6.05555">
        <ele>1452</ele>
        <time>2021-06-27T13:04:03.073Z</time>
      </trkpt>
      <trkpt lat="45.54607" lon="6.05555">
        <ele>1451</ele>
        <time>2021-06-27T13:04:04.074Z</time>
      </trkpt>
      <trkpt lat="45.54606" lon="6.05554">
        <ele>1451</ele>
        <time>2021-06-27T13:04:05.074Z</time>
      </trkpt>
      <trkpt lat="45.54605" lon="6.05554">
        <ele>1451</ele>
        <time>2021-06-27T13:04:06.073Z</time>
      </trkpt>
      <trkpt lat="45.54603" lon="6.05553">
        <ele>1451</ele>
        <time>2021-06-27T13:04:07.074Z</time>
      </trkpt>
      <trkpt lat="45.54602" lon="6.05552">
        <ele>1450</ele>
        <time>2021-06-27T13:04:08.074Z</time>
      </trkpt>
      <trkpt lat="45.54602" lon="6.05552">
        <ele>1449</ele>
        <time>2021-06-27T13:04:09.074Z</time>
      </trkpt>
      <trkpt lat="45.54601" lon="6.05551">
        <ele>1449</ele>
        <time>2021-06-27T13:04:10.074Z</time>
      </trkpt>
      <trkpt lat="45.546" lon="6.0555">
        <ele>1448</ele>
        <time>2021-06-27T13:04:11.074Z</time>
      </trkpt>
      <trkpt lat="45.546" lon="6.05549">
        <ele>1448</ele>
        <time>2021-06-27T13:04:12.073Z</time>
      </trkpt>
      <trkpt lat="45.54599" lon="6.05549">
        <ele>1448</ele>
        <time>2021-06-27T13:04:13.073Z</time>
      </trkpt>
      <trkpt lat="45.54598" lon="6.05548">
        <ele>1448</ele>
        <time>2021-06-27T13:04:14.074Z</time>
      </trkpt>
      <trkpt lat="45.54597" lon="6.05547">
        <ele>1448</ele>
        <time>2021-06-27T13:04:15.073Z</time>
      </trkpt>
      <trkpt lat="45.54596" lon="6.05545">
        <ele>1447</ele>
        <time>2021-06-27T13:04:16.074Z</time>
      </trkpt>
      <trkpt lat="45.54596" lon="6.05544">
        <ele>1447</ele>
        <time>2021-06-27T13:04:17.074Z</time>
      </trkpt>
      <trkpt lat="45.54595" lon="6.05543">
        <ele>1447</ele>
        <time>2021-06-27T13:04:18.073Z</time>
      </trkpt>
      <trkpt lat="45.54595" lon="6.05542">
        <ele>1447</ele>
        <time>2021-06-27T13:04:19.074Z</time>
      </trkpt>
      <trkpt lat="45.54594" lon="6.05541">
        <ele>1447</ele>
        <time>2021-06-27T13:04:20.074Z</time>
      </trkpt>
      <trkpt lat="45.54594" lon="6.0554">
        <ele>1447</ele>
        <time>2021-06-27T13:04:21.073Z</time>
      </trkpt>
      <trkpt lat="45.54593" lon="6.05539">
        <ele>1447</ele>
        <time>2021-06-27T13:04:22.074Z</time>
      </trkpt>
      <trkpt lat="45.54592" lon="6.05538">
        <ele>1446</ele>
        <time>2021-06-27T13:04:23.074Z</time>
      </trkpt>
      <trkpt lat="45.54592" lon="6.05537">
        <ele>1446</ele>
        <time>2021-06-27T13:04:24.073Z</time>
      </trkpt>
      <trkpt lat="45.54591" lon="6.05536">
        <ele>1446</ele>
        <time>2021-06-27T13:04:25.074Z</time>
      </trkpt>
      <trkpt lat="45.5459" lon="6.05535">
        <ele>1446</ele>
        <time>2021-06-27T13:04:26.073Z</time>
      </trkpt>
      <trkpt lat="45.54589" lon="6.05534">
        <ele>1446</ele>
        <time>2021-06-27T13:04:27.073Z</time>
      </trkpt>
      <trkpt lat="45.54588" lon="6.05533">
        <ele>1446</ele>
        <time>2021-06-27T13:04:28.074Z</time>
      </trkpt>
      <trkpt lat="45.54587" lon="6.05533">
        <ele>1445</ele>
        <time>2021-06-27T13:04:29.074Z</time>
      </trkpt>
      <trkpt lat="45.54586" lon="6.05532">
        <ele>1446</ele>
        <time>2021-06-27T13:04:30.074Z</time>
      </trkpt>
      <trkpt lat="45.54586" lon="6.05531">
        <ele>1446</ele>
        <time>2021-06-27T13:04:31.074Z</time>
      </trkpt>
      <trkpt lat="45.54585" lon="6.05531">
        <ele>1446</ele>
        <time>2021-06-27T13:04:32.074Z</time>
      </trkpt>
      <trkpt lat="45.54584" lon="6.0553">
        <ele>1447</ele>
        <time>2021-06-27T13:04:33.074Z</time>
      </trkpt>
      <trkpt lat="45.54583" lon="6.05529">
        <ele>1447</ele>
        <time>2021-06-27T13:04:34.073Z</time>
      </trkpt>
      <trkpt lat="45.54582" lon="6.05528">
        <ele>1447</ele>
        <time>2021-06-27T13:04:35.073Z</time>
      </trkpt>
      <trkpt lat="45.5458" lon="6.05528">
        <ele>1446</ele>
        <time>2021-06-27T13:04:36.074Z</time>
      </trkpt>
      <trkpt lat="45.54579" lon="6.05528">
        <ele>1446</ele>
        <time>2021-06-27T13:04:37.074Z</time>
      </trkpt>
      <trkpt lat="45.54578" lon="6.05527">
        <ele>1446</ele>
        <time>2021-06-27T13:04:38.074Z</time>
      </trkpt>
      <trkpt lat="45.54577" lon="6.05527">
        <ele>1446</ele>
        <time>2021-06-27T13:04:39.074Z</time>
      </trkpt>
      <trkpt lat="45.54576" lon="6.05527">
        <ele>1445</ele>
        <time>2021-06-27T13:04:40.074Z</time>
      </trkpt>
      <trkpt lat="45.54575" lon="6.05528">
        <ele>1444</ele>
        <time>2021-06-27T13:04:41.073Z</time>
      </trkpt>
      <trkpt lat="45.54574" lon="6.05528">
        <ele>1444</ele>
        <time>2021-06-27T13:04:42.074Z</time>
      </trkpt>
      <trkpt lat="45.54573" lon="6.05527">
        <ele>1444</ele>
        <time>2021-06-27T13:04:43.074Z</time>
      </trkpt>
      <trkpt lat="45.5457" lon="6.05524">
        <ele>1444</ele>
        <time>2021-06-27T13:04:44.074Z</time>
      </trkpt>
      <trkpt lat="45.54569" lon="6.05521">
        <ele>1444</ele>
        <time>2021-06-27T13:04:45.073Z</time>
      </trkpt>
      <trkpt lat="45.54567" lon="6.05519">
        <ele>1444</ele>
        <time>2021-06-27T13:04:46.074Z</time>
      </trkpt>
      <trkpt lat="45.54567" lon="6.05518">
        <ele>1444</ele>
        <time>2021-06-27T13:04:47.074Z</time>
      </trkpt>
      <trkpt lat="45.54566" lon="6.05516">
        <ele>1445</ele>
        <time>2021-06-27T13:04:48.073Z</time>
      </trkpt>
      <trkpt lat="45.54566" lon="6.05514">
        <ele>1445</ele>
        <time>2021-06-27T13:04:49.074Z</time>
      </trkpt>
      <trkpt lat="45.54565" lon="6.05513">
        <ele>1445</ele>
        <time>2021-06-27T13:04:50.074Z</time>
      </trkpt>
      <trkpt lat="45.54564" lon="6.05511">
        <ele>1445</ele>
        <time>2021-06-27T13:04:51.074Z</time>
      </trkpt>
      <trkpt lat="45.54564" lon="6.0551">
        <ele>1445</ele>
        <time>2021-06-27T13:04:52.074Z</time>
      </trkpt>
      <trkpt lat="45.54564" lon="6.05509">
        <ele>1444</ele>
        <time>2021-06-27T13:04:53.074Z</time>
      </trkpt>
      <trkpt lat="45.54564" lon="6.05509">
        <ele>1444</ele>
        <time>2021-06-27T13:04:54.073Z</time>
      </trkpt>
      <trkpt lat="45.54564" lon="6.05509">
        <ele>1444</ele>
        <time>2021-06-27T13:04:55.074Z</time>
      </trkpt>
      <trkpt lat="45.54564" lon="6.0551">
        <ele>1443</ele>
        <time>2021-06-27T13:04:56.074Z</time>
      </trkpt>
      <trkpt lat="45.54563" lon="6.05511">
        <ele>1443</ele>
        <time>2021-06-27T13:04:57.073Z</time>
      </trkpt>
      <trkpt lat="45.54563" lon="6.05511">
        <ele>1442</ele>
        <time>2021-06-27T13:04:58.074Z</time>
      </trkpt>
      <trkpt lat="45.54563" lon="6.05511">
        <ele>1441</ele>
        <time>2021-06-27T13:04:59.074Z</time>
      </trkpt>
      <trkpt lat="45.54564" lon="6.05511">
        <ele>1441</ele>
        <time>2021-06-27T13:05:00.074Z</time>
      </trkpt>
      <trkpt lat="45.54565" lon="6.05511">
        <ele>1441</ele>
        <time>2021-06-27T13:05:01.073Z</time>
      </trkpt>
      <trkpt lat="45.54565" lon="6.05511">
        <ele>1440</ele>
        <time>2021-06-27T13:05:02.074Z</time>
      </trkpt>
      <trkpt lat="45.54565" lon="6.0551">
        <ele>1440</ele>
        <time>2021-06-27T13:05:03.074Z</time>
      </trkpt>
      <trkpt lat="45.54565" lon="6.05509">
        <ele>1439</ele>
        <time>2021-06-27T13:05:04.074Z</time>
      </trkpt>
      <trkpt lat="45.54565" lon="6.05508">
        <ele>1439</ele>
        <time>2021-06-27T13:05:05.074Z</time>
      </trkpt>
      <trkpt lat="45.54565" lon="6.05507">
        <ele>1439</ele>
        <time>2021-06-27T13:05:06.074Z</time>
      </trkpt>
      <trkpt lat="45.54565" lon="6.05506">
        <ele>1438</ele>
        <time>2021-06-27T13:05:07.073Z</time>
      </trkpt>
      <trkpt lat="45.54565" lon="6.05505">
        <ele>1438</ele>
        <time>2021-06-27T13:05:08.074Z</time>
      </trkpt>
      <trkpt lat="45.54566" lon="6.05504">
        <ele>1438</ele>
        <time>2021-06-27T13:05:09.073Z</time>
      </trkpt>
      <trkpt lat="45.54567" lon="6.05503">
        <ele>1437</ele>
        <time>2021-06-27T13:05:10.074Z</time>
      </trkpt>
      <trkpt lat="45.54568" lon="6.05501">
        <ele>1437</ele>
        <time>2021-06-27T13:05:11.073Z</time>
      </trkpt>
      <trkpt lat="45.54568" lon="6.05499">
        <ele>1436</ele>
        <time>2021-06-27T13:05:12.074Z</time>
      </trkpt>
      <trkpt lat="45.54569" lon="6.05497">
        <ele>1436</ele>
        <time>2021-06-27T13:05:13.074Z</time>
      </trkpt>
      <trkpt lat="45.54568" lon="6.05496">
        <ele>1436</ele>
        <time>2021-06-27T13:05:14.074Z</time>
      </trkpt>
      <trkpt lat="45.54569" lon="6.05495">
        <ele>1436</ele>
        <time>2021-06-27T13:05:15.073Z</time>
      </trkpt>
      <trkpt lat="45.54569" lon="6.05494">
        <ele>1436</ele>
        <time>2021-06-27T13:05:16.074Z</time>
      </trkpt>
      <trkpt lat="45.54569" lon="6.05493">
        <ele>1436</ele>
        <time>2021-06-27T13:05:17.074Z</time>
      </trkpt>
      <trkpt lat="45.54569" lon="6.05491">
        <ele>1435</ele>
        <time>2021-06-27T13:05:18.073Z</time>
      </trkpt>
      <trkpt lat="45.54569" lon="6.0549">
        <ele>1435</ele>
        <time>2021-06-27T13:05:19.074Z</time>
      </trkpt>
      <trkpt lat="45.54569" lon="6.05489">
        <ele>1435</ele>
        <time>2021-06-27T13:05:20.074Z</time>
      </trkpt>
      <trkpt lat="45.54569" lon="6.05487">
        <ele>1435</ele>
        <time>2021-06-27T13:05:21.073Z</time>
      </trkpt>
      <trkpt lat="45.54569" lon="6.05486">
        <ele>1434</ele>
        <time>2021-06-27T13:05:22.073Z</time>
      </trkpt>
      <trkpt lat="45.54568" lon="6.05485">
        <ele>1434</ele>
        <time>2021-06-27T13:05:23.074Z</time>
      </trkpt>
      <trkpt lat="45.54568" lon="6.05484">
        <ele>1434</ele>
        <time>2021-06-27T13:05:24.074Z</time>
      </trkpt>
      <trkpt lat="45.54568" lon="6.05482">
        <ele>1433</ele>
        <time>2021-06-27T13:05:25.074Z</time>
      </trkpt>
      <trkpt lat="45.54568" lon="6.0548">
        <ele>1433</ele>
        <time>2021-06-27T13:05:26.074Z</time>
      </trkpt>
      <trkpt lat="45.54568" lon="6.05479">
        <ele>1432</ele>
        <time>2021-06-27T13:05:27.074Z</time>
      </trkpt>
      <trkpt lat="45.54568" lon="6.05478">
        <ele>1432</ele>
        <time>2021-06-27T13:05:28.073Z</time>
      </trkpt>
      <trkpt lat="45.54568" lon="6.05476">
        <ele>1432</ele>
        <time>2021-06-27T13:05:29.074Z</time>
      </trkpt>
      <trkpt lat="45.54568" lon="6.05475">
        <ele>1432</ele>
        <time>2021-06-27T13:05:30.074Z</time>
      </trkpt>
      <trkpt lat="45.54568" lon="6.05474">
        <ele>1432</ele>
        <time>2021-06-27T13:05:31.073Z</time>
      </trkpt>
      <trkpt lat="45.54568" lon="6.05472">
        <ele>1431</ele>
        <time>2021-06-27T13:05:32.074Z</time>
      </trkpt>
      <trkpt lat="45.54568" lon="6.05471">
        <ele>1431</ele>
        <time>2021-06-27T13:05:33.074Z</time>
      </trkpt>
      <trkpt lat="45.54567" lon="6.0547">
        <ele>1431</ele>
        <time>2021-06-27T13:05:34.074Z</time>
      </trkpt>
      <trkpt lat="45.54567" lon="6.0547">
        <ele>1431</ele>
        <time>2021-06-27T13:05:35.074Z</time>
      </trkpt>
      <trkpt lat="45.54567" lon="6.0547">
        <ele>1431</ele>
        <time>2021-06-27T13:05:36.073Z</time>
      </trkpt>
      <trkpt lat="45.54567" lon="6.0547">
        <ele>1431</ele>
        <time>2021-06-27T13:05:37.073Z</time>
      </trkpt>
      <trkpt lat="45.54567" lon="6.0547">
        <ele>1431</ele>
        <time>2021-06-27T13:05:38.073Z</time>
      </trkpt>
      <trkpt lat="45.54567" lon="6.0547">
        <ele>1431</ele>
        <time>2021-06-27T13:05:39.073Z</time>
      </trkpt>
      <trkpt lat="45.54567" lon="6.05469">
        <ele>1431</ele>
        <time>2021-06-27T13:05:40.074Z</time>
      </trkpt>
      <trkpt lat="45.54567" lon="6.05469">
        <ele>1431</ele>
        <time>2021-06-27T13:05:41.073Z</time>
      </trkpt>
      <trkpt lat="45.54567" lon="6.05469">
        <ele>1431</ele>
        <time>2021-06-27T13:05:42.074Z</time>
      </trkpt>
      <trkpt lat="45.54567" lon="6.05469">
        <ele>1431</ele>
        <time>2021-06-27T13:05:43.074Z</time>
      </trkpt>
      <trkpt lat="45.54567" lon="6.05469">
        <ele>1431</ele>
        <time>2021-06-27T13:05:44.074Z</time>
      </trkpt>
      <trkpt lat="45.54567" lon="6.05469">
        <ele>1431</ele>
        <time>2021-06-27T13:05:45.074Z</time>
      </trkpt>
      <trkpt lat="45.54568" lon="6.05469">
        <ele>1431</ele>
        <time>2021-06-27T13:05:46.074Z</time>
      </trkpt>
      <trkpt lat="45.54568" lon="6.05469">
        <ele>1432</ele>
        <time>2021-06-27T13:05:47.074Z</time>
      </trkpt>
      <trkpt lat="45.54568" lon="6.05469">
        <ele>1432</ele>
        <time>2021-06-27T13:05:48.073Z</time>
      </trkpt>
      <trkpt lat="45.54567" lon="6.05469">
        <ele>1432</ele>
        <time>2021-06-27T13:05:49.074Z</time>
      </trkpt>
      <trkpt lat="45.54567" lon="6.05469">
        <ele>1432</ele>
        <time>2021-06-27T13:05:50.074Z</time>
      </trkpt>
      <trkpt lat="45.54567" lon="6.05468">
        <ele>1432</ele>
        <time>2021-06-27T13:05:51.074Z</time>
      </trkpt>
      <trkpt lat="45.54568" lon="6.05468">
        <ele>1432</ele>
        <time>2021-06-27T13:05:52.074Z</time>
      </trkpt>
      <trkpt lat="45.54568" lon="6.05468">
        <ele>1431</ele>
        <time>2021-06-27T13:05:53.074Z</time>
      </trkpt>
      <trkpt lat="45.54568" lon="6.05468">
        <ele>1431</ele>
        <time>2021-06-27T13:05:54.074Z</time>
      </trkpt>
      <trkpt lat="45.54568" lon="6.05468">
        <ele>1430</ele>
        <time>2021-06-27T13:05:55.074Z</time>
      </trkpt>
      <trkpt lat="45.54568" lon="6.05468">
        <ele>1430</ele>
        <time>2021-06-27T13:05:56.074Z</time>
      </trkpt>
      <trkpt lat="45.54568" lon="6.05467">
        <ele>1430</ele>
        <time>2021-06-27T13:05:57.073Z</time>
      </trkpt>
      <trkpt lat="45.54568" lon="6.05467">
        <ele>1430</ele>
        <time>2021-06-27T13:05:58.074Z</time>
      </trkpt>
      <trkpt lat="45.54568" lon="6.05466">
        <ele>1430</ele>
        <time>2021-06-27T13:05:59.074Z</time>
      </trkpt>
      <trkpt lat="45.54568" lon="6.05466">
        <ele>1430</ele>
        <time>2021-06-27T13:06:00.073Z</time>
      </trkpt>
      <trkpt lat="45.54568" lon="6.05466">
        <ele>1430</ele>
        <time>2021-06-27T13:06:01.073Z</time>
      </trkpt>
      <trkpt lat="45.54567" lon="6.05466">
        <ele>1430</ele>
        <time>2021-06-27T13:06:02.074Z</time>
      </trkpt>
      <trkpt lat="45.54567" lon="6.05466">
        <ele>1430</ele>
        <time>2021-06-27T13:06:03.074Z</time>
      </trkpt>
      <trkpt lat="45.54567" lon="6.05465">
        <ele>1430</ele>
        <time>2021-06-27T13:06:04.074Z</time>
      </trkpt>
      <trkpt lat="45.54567" lon="6.05465">
        <ele>1431</ele>
        <time>2021-06-27T13:06:05.074Z</time>
      </trkpt>
      <trkpt lat="45.54567" lon="6.05465">
        <ele>1431</ele>
        <time>2021-06-27T13:06:06.074Z</time>
      </trkpt>
      <trkpt lat="45.54567" lon="6.05465">
        <ele>1431</ele>
        <time>2021-06-27T13:06:07.074Z</time>
      </trkpt>
      <trkpt lat="45.54567" lon="6.05465">
        <ele>1431</ele>
        <time>2021-06-27T13:06:08.073Z</time>
      </trkpt>
      <trkpt lat="45.54567" lon="6.05465">
        <ele>1431</ele>
        <time>2021-06-27T13:06:09.074Z</time>
      </trkpt>
      <trkpt lat="45.54567" lon="6.05465">
        <ele>1431</ele>
        <time>2021-06-27T13:06:10.074Z</time>
      </trkpt>
      <trkpt lat="45.54567" lon="6.05465">
        <ele>1431</ele>
        <time>2021-06-27T13:06:11.074Z</time>
      </trkpt>
      <trkpt lat="45.54567" lon="6.05465">
        <ele>1430</ele>
        <time>2021-06-27T13:06:12.074Z</time>
      </trkpt>
      <trkpt lat="45.54567" lon="6.05465">
        <ele>1430</ele>
        <time>2021-06-27T13:06:13.074Z</time>
      </trkpt>
      <trkpt lat="45.54567" lon="6.05465">
        <ele>1429</ele>
        <time>2021-06-27T13:06:14.074Z</time>
      </trkpt>
      <trkpt lat="45.54567" lon="6.05465">
        <ele>1429</ele>
        <time>2021-06-27T13:06:15.074Z</time>
      </trkpt>
      <trkpt lat="45.54567" lon="6.05465">
        <ele>1429</ele>
        <time>2021-06-27T13:06:16.074Z</time>
      </trkpt>
      <trkpt lat="45.54567" lon="6.05465">
        <ele>1428</ele>
        <time>2021-06-27T13:06:17.073Z</time>
      </trkpt>
      <trkpt lat="45.54567" lon="6.05465">
        <ele>1428</ele>
        <time>2021-06-27T13:06:18.074Z</time>
      </trkpt>
      <trkpt lat="45.54567" lon="6.05465">
        <ele>1428</ele>
        <time>2021-06-27T13:06:19.074Z</time>
      </trkpt>
      <trkpt lat="45.54567" lon="6.05465">
        <ele>1428</ele>
        <time>2021-06-27T13:06:20.073Z</time>
      </trkpt>
      <trkpt lat="45.54567" lon="6.05465">
        <ele>1428</ele>
        <time>2021-06-27T13:06:21.073Z</time>
      </trkpt>
      <trkpt lat="45.54567" lon="6.05465">
        <ele>1428</ele>
        <time>2021-06-27T13:06:22.074Z</time>
      </trkpt>
      <trkpt lat="45.54567" lon="6.05464">
        <ele>1428</ele>
        <time>2021-06-27T13:06:23.074Z</time>
      </trkpt>
      <trkpt lat="45.54567" lon="6.05464">
        <ele>1428</ele>
        <time>2021-06-27T13:06:24.073Z</time>
      </trkpt>
      <trkpt lat="45.54567" lon="6.05465">
        <ele>1428</ele>
        <time>2021-06-27T13:06:25.074Z</time>
      </trkpt>
      <trkpt lat="45.54567" lon="6.05465">
        <ele>1428</ele>
        <time>2021-06-27T13:06:26.074Z</time>
      </trkpt>
      <trkpt lat="45.54567" lon="6.05465">
        <ele>1428</ele>
        <time>2021-06-27T13:06:27.074Z</time>
      </trkpt>
      <trkpt lat="45.54567" lon="6.05465">
        <ele>1428</ele>
        <time>2021-06-27T13:06:28.074Z</time>
      </trkpt>
      <trkpt lat="45.54567" lon="6.05465">
        <ele>1428</ele>
        <time>2021-06-27T13:06:29.074Z</time>
      </trkpt>
      <trkpt lat="45.54567" lon="6.05465">
        <ele>1428</ele>
        <time>2021-06-27T13:06:30.074Z</time>
      </trkpt>
      <trkpt lat="45.54567" lon="6.05464">
        <ele>1429</ele>
        <time>2021-06-27T13:06:31.073Z</time>
      </trkpt>
      <trkpt lat="45.54567" lon="6.05465">
        <ele>1429</ele>
        <time>2021-06-27T13:06:32.074Z</time>
      </trkpt>
      <trkpt lat="45.54567" lon="6.05464">
        <ele>1429</ele>
        <time>2021-06-27T13:06:33.074Z</time>
      </trkpt>
      <trkpt lat="45.54566" lon="6.05464">
        <ele>1430</ele>
        <time>2021-06-27T13:06:34.074Z</time>
      </trkpt>
      <trkpt lat="45.54566" lon="6.05465">
        <ele>1430</ele>
        <time>2021-06-27T13:06:35.074Z</time>
      </trkpt>
      <trkpt lat="45.54566" lon="6.05466">
        <ele>1431</ele>
        <time>2021-06-27T13:06:36.073Z</time>
      </trkpt>
      <trkpt lat="45.54565" lon="6.05467">
        <ele>1432</ele>
        <time>2021-06-27T13:06:37.074Z</time>
      </trkpt>
      <trkpt lat="45.54565" lon="6.05468">
        <ele>1433</ele>
        <time>2021-06-27T13:06:38.074Z</time>
      </trkpt>
      <trkpt lat="45.54564" lon="6.05469">
        <ele>1433</ele>
        <time>2021-06-27T13:06:39.074Z</time>
      </trkpt>
      <trkpt lat="45.54564" lon="6.05469">
        <ele>1434</ele>
        <time>2021-06-27T13:06:40.074Z</time>
      </trkpt>
      <trkpt lat="45.54563" lon="6.0547">
        <ele>1433</ele>
        <time>2021-06-27T13:06:41.073Z</time>
      </trkpt>
      <trkpt lat="45.54562" lon="6.05469">
        <ele>1433</ele>
        <time>2021-06-27T13:06:42.073Z</time>
      </trkpt>
      <trkpt lat="45.54562" lon="6.05469">
        <ele>1432</ele>
        <time>2021-06-27T13:06:43.074Z</time>
      </trkpt>
      <trkpt lat="45.54561" lon="6.05469">
        <ele>1432</ele>
        <time>2021-06-27T13:06:44.073Z</time>
      </trkpt>
      <trkpt lat="45.54561" lon="6.0547">
        <ele>1431</ele>
        <time>2021-06-27T13:06:45.074Z</time>
      </trkpt>
      <trkpt lat="45.54561" lon="6.0547">
        <ele>1430</ele>
        <time>2021-06-27T13:06:46.074Z</time>
      </trkpt>
      <trkpt lat="45.54561" lon="6.0547">
        <ele>1430</ele>
        <time>2021-06-27T13:06:47.074Z</time>
      </trkpt>
      <trkpt lat="45.5456" lon="6.05471">
        <ele>1429</ele>
        <time>2021-06-27T13:06:48.074Z</time>
      </trkpt>
      <trkpt lat="45.5456" lon="6.05471">
        <ele>1429</ele>
        <time>2021-06-27T13:06:49.073Z</time>
      </trkpt>
      <trkpt lat="45.54559" lon="6.05471">
        <ele>1429</ele>
        <time>2021-06-27T13:06:50.073Z</time>
      </trkpt>
      <trkpt lat="45.54558" lon="6.05472">
        <ele>1429</ele>
        <time>2021-06-27T13:06:51.073Z</time>
      </trkpt>
      <trkpt lat="45.54558" lon="6.05472">
        <ele>1429</ele>
        <time>2021-06-27T13:06:52.073Z</time>
      </trkpt>
      <trkpt lat="45.54557" lon="6.05472">
        <ele>1428</ele>
        <time>2021-06-27T13:06:53.073Z</time>
      </trkpt>
      <trkpt lat="45.54556" lon="6.05472">
        <ele>1428</ele>
        <time>2021-06-27T13:06:54.073Z</time>
      </trkpt>
      <trkpt lat="45.54556" lon="6.05471">
        <ele>1427</ele>
        <time>2021-06-27T13:06:55.074Z</time>
      </trkpt>
      <trkpt lat="45.54555" lon="6.05471">
        <ele>1427</ele>
        <time>2021-06-27T13:06:56.074Z</time>
      </trkpt>
      <trkpt lat="45.54555" lon="6.0547">
        <ele>1427</ele>
        <time>2021-06-27T13:06:57.074Z</time>
      </trkpt>
      <trkpt lat="45.54554" lon="6.0547">
        <ele>1426</ele>
        <time>2021-06-27T13:06:58.074Z</time>
      </trkpt>
      <trkpt lat="45.54554" lon="6.05469">
        <ele>1426</ele>
        <time>2021-06-27T13:06:59.074Z</time>
      </trkpt>
      <trkpt lat="45.54554" lon="6.05469">
        <ele>1426</ele>
        <time>2021-06-27T13:07:00.073Z</time>
      </trkpt>
      <trkpt lat="45.54553" lon="6.05469">
        <ele>1426</ele>
        <time>2021-06-27T13:07:01.074Z</time>
      </trkpt>
      <trkpt lat="45.54552" lon="6.05469">
        <ele>1425</ele>
        <time>2021-06-27T13:07:02.073Z</time>
      </trkpt>
      <trkpt lat="45.54551" lon="6.05469">
        <ele>1425</ele>
        <time>2021-06-27T13:07:03.074Z</time>
      </trkpt>
      <trkpt lat="45.5455" lon="6.0547">
        <ele>1424</ele>
        <time>2021-06-27T13:07:04.074Z</time>
      </trkpt>
      <trkpt lat="45.54549" lon="6.0547">
        <ele>1424</ele>
        <time>2021-06-27T13:07:05.073Z</time>
      </trkpt>
      <trkpt lat="45.54548" lon="6.0547">
        <ele>1424</ele>
        <time>2021-06-27T13:07:06.074Z</time>
      </trkpt>
      <trkpt lat="45.54547" lon="6.0547">
        <ele>1423</ele>
        <time>2021-06-27T13:07:07.074Z</time>
      </trkpt>
      <trkpt lat="45.54545" lon="6.0547">
        <ele>1423</ele>
        <time>2021-06-27T13:07:08.074Z</time>
      </trkpt>
      <trkpt lat="45.54544" lon="6.0547">
        <ele>1423</ele>
        <time>2021-06-27T13:07:09.074Z</time>
      </trkpt>
      <trkpt lat="45.54543" lon="6.0547">
        <ele>1422</ele>
        <time>2021-06-27T13:07:10.073Z</time>
      </trkpt>
      <trkpt lat="45.54542" lon="6.0547">
        <ele>1422</ele>
        <time>2021-06-27T13:07:11.074Z</time>
      </trkpt>
      <trkpt lat="45.54541" lon="6.0547">
        <ele>1421</ele>
        <time>2021-06-27T13:07:12.074Z</time>
      </trkpt>
      <trkpt lat="45.5454" lon="6.0547">
        <ele>1421</ele>
        <time>2021-06-27T13:07:13.073Z</time>
      </trkpt>
      <trkpt lat="45.5454" lon="6.0547">
        <ele>1420</ele>
        <time>2021-06-27T13:07:14.073Z</time>
      </trkpt>
      <trkpt lat="45.54539" lon="6.0547">
        <ele>1420</ele>
        <time>2021-06-27T13:07:15.074Z</time>
      </trkpt>
      <trkpt lat="45.54538" lon="6.0547">
        <ele>1420</ele>
        <time>2021-06-27T13:07:16.074Z</time>
      </trkpt>
      <trkpt lat="45.54537" lon="6.0547">
        <ele>1421</ele>
        <time>2021-06-27T13:07:17.073Z</time>
      </trkpt>
      <trkpt lat="45.54537" lon="6.05471">
        <ele>1420</ele>
        <time>2021-06-27T13:07:18.073Z</time>
      </trkpt>
      <trkpt lat="45.54537" lon="6.05471">
        <ele>1420</ele>
        <time>2021-06-27T13:07:19.073Z</time>
      </trkpt>
      <trkpt lat="45.54536" lon="6.05471">
        <ele>1420</ele>
        <time>2021-06-27T13:07:20.073Z</time>
      </trkpt>
      <trkpt lat="45.54536" lon="6.05471">
        <ele>1420</ele>
        <time>2021-06-27T13:07:21.073Z</time>
      </trkpt>
      <trkpt lat="45.54535" lon="6.05471">
        <ele>1420</ele>
        <time>2021-06-27T13:07:22.073Z</time>
      </trkpt>
      <trkpt lat="45.54534" lon="6.0547">
        <ele>1420</ele>
        <time>2021-06-27T13:07:23.074Z</time>
      </trkpt>
      <trkpt lat="45.54534" lon="6.05469">
        <ele>1420</ele>
        <time>2021-06-27T13:07:24.074Z</time>
      </trkpt>
      <trkpt lat="45.54534" lon="6.05468">
        <ele>1419</ele>
        <time>2021-06-27T13:07:25.074Z</time>
      </trkpt>
      <trkpt lat="45.54533" lon="6.05467">
        <ele>1420</ele>
        <time>2021-06-27T13:07:26.073Z</time>
      </trkpt>
      <trkpt lat="45.54533" lon="6.05466">
        <ele>1420</ele>
        <time>2021-06-27T13:07:27.074Z</time>
      </trkpt>
      <trkpt lat="45.54533" lon="6.05466">
        <ele>1420</ele>
        <time>2021-06-27T13:07:28.073Z</time>
      </trkpt>
      <trkpt lat="45.54532" lon="6.05465">
        <ele>1419</ele>
        <time>2021-06-27T13:07:29.074Z</time>
      </trkpt>
      <trkpt lat="45.54532" lon="6.05465">
        <ele>1419</ele>
        <time>2021-06-27T13:07:30.074Z</time>
      </trkpt>
      <trkpt lat="45.54531" lon="6.05464">
        <ele>1419</ele>
        <time>2021-06-27T13:07:31.074Z</time>
      </trkpt>
      <trkpt lat="45.54531" lon="6.05463">
        <ele>1419</ele>
        <time>2021-06-27T13:07:32.074Z</time>
      </trkpt>
      <trkpt lat="45.54531" lon="6.05461">
        <ele>1419</ele>
        <time>2021-06-27T13:07:33.073Z</time>
      </trkpt>
      <trkpt lat="45.5453" lon="6.0546">
        <ele>1419</ele>
        <time>2021-06-27T13:07:34.073Z</time>
      </trkpt>
      <trkpt lat="45.54531" lon="6.05459">
        <ele>1419</ele>
        <time>2021-06-27T13:07:35.074Z</time>
      </trkpt>
      <trkpt lat="45.54531" lon="6.05458">
        <ele>1419</ele>
        <time>2021-06-27T13:07:36.073Z</time>
      </trkpt>
      <trkpt lat="45.54531" lon="6.05458">
        <ele>1419</ele>
        <time>2021-06-27T13:07:37.073Z</time>
      </trkpt>
      <trkpt lat="45.54531" lon="6.05458">
        <ele>1419</ele>
        <time>2021-06-27T13:07:38.074Z</time>
      </trkpt>
      <trkpt lat="45.54531" lon="6.05457">
        <ele>1419</ele>
        <time>2021-06-27T13:07:39.073Z</time>
      </trkpt>
      <trkpt lat="45.54531" lon="6.05457">
        <ele>1419</ele>
        <time>2021-06-27T13:07:40.074Z</time>
      </trkpt>
      <trkpt lat="45.5453" lon="6.05456">
        <ele>1419</ele>
        <time>2021-06-27T13:07:41.073Z</time>
      </trkpt>
      <trkpt lat="45.5453" lon="6.05456">
        <ele>1418</ele>
        <time>2021-06-27T13:07:42.074Z</time>
      </trkpt>
      <trkpt lat="45.54529" lon="6.05455">
        <ele>1418</ele>
        <time>2021-06-27T13:07:43.074Z</time>
      </trkpt>
      <trkpt lat="45.54529" lon="6.05455">
        <ele>1418</ele>
        <time>2021-06-27T13:07:44.074Z</time>
      </trkpt>
      <trkpt lat="45.54528" lon="6.05454">
        <ele>1417</ele>
        <time>2021-06-27T13:07:45.074Z</time>
      </trkpt>
      <trkpt lat="45.54528" lon="6.05453">
        <ele>1417</ele>
        <time>2021-06-27T13:07:46.074Z</time>
      </trkpt>
      <trkpt lat="45.54527" lon="6.05452">
        <ele>1417</ele>
        <time>2021-06-27T13:07:47.074Z</time>
      </trkpt>
      <trkpt lat="45.54527" lon="6.05451">
        <ele>1417</ele>
        <time>2021-06-27T13:07:48.073Z</time>
      </trkpt>
      <trkpt lat="45.54527" lon="6.0545">
        <ele>1416</ele>
        <time>2021-06-27T13:07:49.074Z</time>
      </trkpt>
      <trkpt lat="45.54527" lon="6.05449">
        <ele>1416</ele>
        <time>2021-06-27T13:07:50.074Z</time>
      </trkpt>
      <trkpt lat="45.54527" lon="6.05449">
        <ele>1416</ele>
        <time>2021-06-27T13:07:51.073Z</time>
      </trkpt>
      <trkpt lat="45.54526" lon="6.05448">
        <ele>1416</ele>
        <time>2021-06-27T13:07:52.074Z</time>
      </trkpt>
      <trkpt lat="45.54526" lon="6.05448">
        <ele>1416</ele>
        <time>2021-06-27T13:07:53.074Z</time>
      </trkpt>
      <trkpt lat="45.54526" lon="6.05448">
        <ele>1416</ele>
        <time>2021-06-27T13:07:54.074Z</time>
      </trkpt>
      <trkpt lat="45.54526" lon="6.05447">
        <ele>1416</ele>
        <time>2021-06-27T13:07:55.074Z</time>
      </trkpt>
      <trkpt lat="45.54526" lon="6.05446">
        <ele>1415</ele>
        <time>2021-06-27T13:07:56.073Z</time>
      </trkpt>
      <trkpt lat="45.54525" lon="6.05446">
        <ele>1415</ele>
        <time>2021-06-27T13:07:57.073Z</time>
      </trkpt>
      <trkpt lat="45.54525" lon="6.05445">
        <ele>1414</ele>
        <time>2021-06-27T13:07:58.073Z</time>
      </trkpt>
      <trkpt lat="45.54524" lon="6.05445">
        <ele>1414</ele>
        <time>2021-06-27T13:07:59.074Z</time>
      </trkpt>
      <trkpt lat="45.54524" lon="6.05445">
        <ele>1414</ele>
        <time>2021-06-27T13:08:00.074Z</time>
      </trkpt>
      <trkpt lat="45.54523" lon="6.05444">
        <ele>1413</ele>
        <time>2021-06-27T13:08:01.074Z</time>
      </trkpt>
      <trkpt lat="45.54523" lon="6.05444">
        <ele>1413</ele>
        <time>2021-06-27T13:08:02.074Z</time>
      </trkpt>
      <trkpt lat="45.54523" lon="6.05444">
        <ele>1413</ele>
        <time>2021-06-27T13:08:03.073Z</time>
      </trkpt>
      <trkpt lat="45.54522" lon="6.05444">
        <ele>1413</ele>
        <time>2021-06-27T13:08:04.074Z</time>
      </trkpt>
      <trkpt lat="45.54522" lon="6.05444">
        <ele>1413</ele>
        <time>2021-06-27T13:08:05.074Z</time>
      </trkpt>
      <trkpt lat="45.54522" lon="6.05443">
        <ele>1413</ele>
        <time>2021-06-27T13:08:06.074Z</time>
      </trkpt>
      <trkpt lat="45.54522" lon="6.05442">
        <ele>1413</ele>
        <time>2021-06-27T13:08:07.074Z</time>
      </trkpt>
      <trkpt lat="45.54522" lon="6.05442">
        <ele>1412</ele>
        <time>2021-06-27T13:08:08.073Z</time>
      </trkpt>
      <trkpt lat="45.54522" lon="6.05442">
        <ele>1412</ele>
        <time>2021-06-27T13:08:09.074Z</time>
      </trkpt>
      <trkpt lat="45.54522" lon="6.05442">
        <ele>1412</ele>
        <time>2021-06-27T13:08:10.073Z</time>
      </trkpt>
      <trkpt lat="45.54522" lon="6.05442">
        <ele>1412</ele>
        <time>2021-06-27T13:08:11.073Z</time>
      </trkpt>
      <trkpt lat="45.54522" lon="6.05442">
        <ele>1412</ele>
        <time>2021-06-27T13:08:12.073Z</time>
      </trkpt>
      <trkpt lat="45.54522" lon="6.05442">
        <ele>1412</ele>
        <time>2021-06-27T13:08:13.073Z</time>
      </trkpt>
      <trkpt lat="45.54522" lon="6.05443">
        <ele>1412</ele>
        <time>2021-06-27T13:08:14.074Z</time>
      </trkpt>
      <trkpt lat="45.54522" lon="6.05443">
        <ele>1412</ele>
        <time>2021-06-27T13:08:15.073Z</time>
      </trkpt>
      <trkpt lat="45.54521" lon="6.05443">
        <ele>1412</ele>
        <time>2021-06-27T13:08:16.074Z</time>
      </trkpt>
      <trkpt lat="45.54521" lon="6.05443">
        <ele>1412</ele>
        <time>2021-06-27T13:08:17.073Z</time>
      </trkpt>
      <trkpt lat="45.5452" lon="6.05443">
        <ele>1412</ele>
        <time>2021-06-27T13:08:18.073Z</time>
      </trkpt>
      <trkpt lat="45.5452" lon="6.05443">
        <ele>1412</ele>
        <time>2021-06-27T13:08:19.073Z</time>
      </trkpt>
      <trkpt lat="45.54519" lon="6.05442">
        <ele>1411</ele>
        <time>2021-06-27T13:08:20.074Z</time>
      </trkpt>
      <trkpt lat="45.54519" lon="6.05441">
        <ele>1411</ele>
        <time>2021-06-27T13:08:21.074Z</time>
      </trkpt>
      <trkpt lat="45.54518" lon="6.05441">
        <ele>1411</ele>
        <time>2021-06-27T13:08:22.074Z</time>
      </trkpt>
      <trkpt lat="45.54517" lon="6.0544">
        <ele>1411</ele>
        <time>2021-06-27T13:08:23.073Z</time>
      </trkpt>
      <trkpt lat="45.54516" lon="6.05441">
        <ele>1411</ele>
        <time>2021-06-27T13:08:24.073Z</time>
      </trkpt>
      <trkpt lat="45.54516" lon="6.05441">
        <ele>1410</ele>
        <time>2021-06-27T13:08:25.074Z</time>
      </trkpt>
      <trkpt lat="45.54515" lon="6.05441">
        <ele>1410</ele>
        <time>2021-06-27T13:08:26.074Z</time>
      </trkpt>
      <trkpt lat="45.54514" lon="6.05441">
        <ele>1409</ele>
        <time>2021-06-27T13:08:27.074Z</time>
      </trkpt>
      <trkpt lat="45.54513" lon="6.0544">
        <ele>1409</ele>
        <time>2021-06-27T13:08:28.073Z</time>
      </trkpt>
      <trkpt lat="45.54512" lon="6.0544">
        <ele>1409</ele>
        <time>2021-06-27T13:08:29.074Z</time>
      </trkpt>
      <trkpt lat="45.54511" lon="6.05439">
        <ele>1408</ele>
        <time>2021-06-27T13:08:30.073Z</time>
      </trkpt>
      <trkpt lat="45.54511" lon="6.05438">
        <ele>1408</ele>
        <time>2021-06-27T13:08:31.073Z</time>
      </trkpt>
      <trkpt lat="45.54511" lon="6.05437">
        <ele>1408</ele>
        <time>2021-06-27T13:08:32.073Z</time>
      </trkpt>
      <trkpt lat="45.5451" lon="6.05437">
        <ele>1408</ele>
        <time>2021-06-27T13:08:33.073Z</time>
      </trkpt>
      <trkpt lat="45.5451" lon="6.05437">
        <ele>1408</ele>
        <time>2021-06-27T13:08:34.074Z</time>
      </trkpt>
      <trkpt lat="45.54509" lon="6.05436">
        <ele>1408</ele>
        <time>2021-06-27T13:08:35.074Z</time>
      </trkpt>
      <trkpt lat="45.54509" lon="6.05436">
        <ele>1407</ele>
        <time>2021-06-27T13:08:36.073Z</time>
      </trkpt>
      <trkpt lat="45.54508" lon="6.05436">
        <ele>1407</ele>
        <time>2021-06-27T13:08:37.074Z</time>
      </trkpt>
      <trkpt lat="45.54508" lon="6.05436">
        <ele>1407</ele>
        <time>2021-06-27T13:08:38.073Z</time>
      </trkpt>
      <trkpt lat="45.54508" lon="6.05435">
        <ele>1407</ele>
        <time>2021-06-27T13:08:39.073Z</time>
      </trkpt>
      <trkpt lat="45.54508" lon="6.05436">
        <ele>1407</ele>
        <time>2021-06-27T13:08:40.073Z</time>
      </trkpt>
      <trkpt lat="45.54509" lon="6.05436">
        <ele>1407</ele>
        <time>2021-06-27T13:08:41.073Z</time>
      </trkpt>
      <trkpt lat="45.54509" lon="6.05436">
        <ele>1407</ele>
        <time>2021-06-27T13:08:42.073Z</time>
      </trkpt>
      <trkpt lat="45.54509" lon="6.05436">
        <ele>1406</ele>
        <time>2021-06-27T13:08:43.073Z</time>
      </trkpt>
      <trkpt lat="45.54509" lon="6.05436">
        <ele>1404</ele>
        <time>2021-06-27T13:08:44.073Z</time>
      </trkpt>
      <trkpt lat="45.54509" lon="6.05436">
        <ele>1403</ele>
        <time>2021-06-27T13:08:45.073Z</time>
      </trkpt>
      <trkpt lat="45.54509" lon="6.05436">
        <ele>1402</ele>
        <time>2021-06-27T13:08:46.073Z</time>
      </trkpt>
      <trkpt lat="45.54509" lon="6.05436">
        <ele>1401</ele>
        <time>2021-06-27T13:08:47.074Z</time>
      </trkpt>
      <trkpt lat="45.54509" lon="6.05436">
        <ele>1401</ele>
        <time>2021-06-27T13:08:48.074Z</time>
      </trkpt>
      <trkpt lat="45.54509" lon="6.05436">
        <ele>1401</ele>
        <time>2021-06-27T13:08:49.074Z</time>
      </trkpt>
      <trkpt lat="45.54509" lon="6.05437">
        <ele>1402</ele>
        <time>2021-06-27T13:08:50.074Z</time>
      </trkpt>
      <trkpt lat="45.54509" lon="6.05437">
        <ele>1402</ele>
        <time>2021-06-27T13:08:51.074Z</time>
      </trkpt>
      <trkpt lat="45.54509" lon="6.05437">
        <ele>1403</ele>
        <time>2021-06-27T13:08:52.074Z</time>
      </trkpt>
      <trkpt lat="45.54508" lon="6.05436">
        <ele>1403</ele>
        <time>2021-06-27T13:08:53.074Z</time>
      </trkpt>
      <trkpt lat="45.54509" lon="6.05436">
        <ele>1404</ele>
        <time>2021-06-27T13:08:54.074Z</time>
      </trkpt>
      <trkpt lat="45.54508" lon="6.05436">
        <ele>1404</ele>
        <time>2021-06-27T13:08:55.073Z</time>
      </trkpt>
      <trkpt lat="45.54509" lon="6.05436">
        <ele>1405</ele>
        <time>2021-06-27T13:08:56.073Z</time>
      </trkpt>
      <trkpt lat="45.54509" lon="6.05436">
        <ele>1405</ele>
        <time>2021-06-27T13:08:57.073Z</time>
      </trkpt>
      <trkpt lat="45.54509" lon="6.05437">
        <ele>1405</ele>
        <time>2021-06-27T13:08:58.074Z</time>
      </trkpt>
      <trkpt lat="45.54508" lon="6.05437">
        <ele>1405</ele>
        <time>2021-06-27T13:08:59.073Z</time>
      </trkpt>
      <trkpt lat="45.54508" lon="6.05436">
        <ele>1405</ele>
        <time>2021-06-27T13:09:00.074Z</time>
      </trkpt>
      <trkpt lat="45.54508" lon="6.05437">
        <ele>1405</ele>
        <time>2021-06-27T13:09:01.074Z</time>
      </trkpt>
      <trkpt lat="45.54508" lon="6.05437">
        <ele>1405</ele>
        <time>2021-06-27T13:09:02.074Z</time>
      </trkpt>
      <trkpt lat="45.54508" lon="6.05437">
        <ele>1405</ele>
        <time>2021-06-27T13:09:03.074Z</time>
      </trkpt>
      <trkpt lat="45.54508" lon="6.05437">
        <ele>1405</ele>
        <time>2021-06-27T13:09:04.073Z</time>
      </trkpt>
      <trkpt lat="45.54508" lon="6.05437">
        <ele>1406</ele>
        <time>2021-06-27T13:09:05.074Z</time>
      </trkpt>
      <trkpt lat="45.54508" lon="6.05437">
        <ele>1407</ele>
        <time>2021-06-27T13:09:06.073Z</time>
      </trkpt>
      <trkpt lat="45.54508" lon="6.05437">
        <ele>1407</ele>
        <time>2021-06-27T13:09:07.074Z</time>
      </trkpt>
      <trkpt lat="45.54507" lon="6.05437">
        <ele>1407</ele>
        <time>2021-06-27T13:09:08.074Z</time>
      </trkpt>
      <trkpt lat="45.54507" lon="6.05437">
        <ele>1407</ele>
        <time>2021-06-27T13:09:09.074Z</time>
      </trkpt>
      <trkpt lat="45.54507" lon="6.05437">
        <ele>1407</ele>
        <time>2021-06-27T13:09:10.073Z</time>
      </trkpt>
      <trkpt lat="45.54507" lon="6.05437">
        <ele>1407</ele>
        <time>2021-06-27T13:09:11.074Z</time>
      </trkpt>
      <trkpt lat="45.54507" lon="6.05436">
        <ele>1407</ele>
        <time>2021-06-27T13:09:12.074Z</time>
      </trkpt>
      <trkpt lat="45.54507" lon="6.05436">
        <ele>1407</ele>
        <time>2021-06-27T13:09:13.074Z</time>
      </trkpt>
      <trkpt lat="45.54507" lon="6.05437">
        <ele>1407</ele>
        <time>2021-06-27T13:09:14.073Z</time>
      </trkpt>
      <trkpt lat="45.54507" lon="6.05437">
        <ele>1407</ele>
        <time>2021-06-27T13:09:15.074Z</time>
      </trkpt>
      <trkpt lat="45.54508" lon="6.05437">
        <ele>1407</ele>
        <time>2021-06-27T13:09:16.074Z</time>
      </trkpt>
      <trkpt lat="45.54508" lon="6.05437">
        <ele>1407</ele>
        <time>2021-06-27T13:09:17.073Z</time>
      </trkpt>
      <trkpt lat="45.54508" lon="6.05437">
        <ele>1407</ele>
        <time>2021-06-27T13:09:18.073Z</time>
      </trkpt>
      <trkpt lat="45.54508" lon="6.05437">
        <ele>1407</ele>
        <time>2021-06-27T13:09:19.073Z</time>
      </trkpt>
      <trkpt lat="45.54508" lon="6.05437">
        <ele>1406</ele>
        <time>2021-06-27T13:09:20.074Z</time>
      </trkpt>
      <trkpt lat="45.54508" lon="6.05437">
        <ele>1406</ele>
        <time>2021-06-27T13:09:21.074Z</time>
      </trkpt>
      <trkpt lat="45.54508" lon="6.05437">
        <ele>1406</ele>
        <time>2021-06-27T13:09:22.074Z</time>
      </trkpt>
      <trkpt lat="45.54508" lon="6.05437">
        <ele>1405</ele>
        <time>2021-06-27T13:09:23.074Z</time>
      </trkpt>
      <trkpt lat="45.54507" lon="6.05436">
        <ele>1405</ele>
        <time>2021-06-27T13:09:24.073Z</time>
      </trkpt>
      <trkpt lat="45.54508" lon="6.05436">
        <ele>1405</ele>
        <time>2021-06-27T13:09:25.074Z</time>
      </trkpt>
      <trkpt lat="45.54508" lon="6.05436">
        <ele>1405</ele>
        <time>2021-06-27T13:09:26.073Z</time>
      </trkpt>
      <trkpt lat="45.54507" lon="6.05436">
        <ele>1405</ele>
        <time>2021-06-27T13:09:27.074Z</time>
      </trkpt>
      <trkpt lat="45.54508" lon="6.05436">
        <ele>1405</ele>
        <time>2021-06-27T13:09:28.073Z</time>
      </trkpt>
      <trkpt lat="45.54508" lon="6.05435">
        <ele>1406</ele>
        <time>2021-06-27T13:09:29.074Z</time>
      </trkpt>
      <trkpt lat="45.54508" lon="6.05435">
        <ele>1406</ele>
        <time>2021-06-27T13:09:30.074Z</time>
      </trkpt>
      <trkpt lat="45.54508" lon="6.05435">
        <ele>1406</ele>
        <time>2021-06-27T13:09:31.073Z</time>
      </trkpt>
      <trkpt lat="45.54507" lon="6.05435">
        <ele>1405</ele>
        <time>2021-06-27T13:09:32.074Z</time>
      </trkpt>
      <trkpt lat="45.54507" lon="6.05435">
        <ele>1405</ele>
        <time>2021-06-27T13:09:33.073Z</time>
      </trkpt>
      <trkpt lat="45.54507" lon="6.05435">
        <ele>1405</ele>
        <time>2021-06-27T13:09:34.074Z</time>
      </trkpt>
      <trkpt lat="45.54507" lon="6.05435">
        <ele>1404</ele>
        <time>2021-06-27T13:09:35.074Z</time>
      </trkpt>
      <trkpt lat="45.54507" lon="6.05435">
        <ele>1404</ele>
        <time>2021-06-27T13:09:36.074Z</time>
      </trkpt>
      <trkpt lat="45.54507" lon="6.05435">
        <ele>1404</ele>
        <time>2021-06-27T13:09:37.074Z</time>
      </trkpt>
      <trkpt lat="45.54507" lon="6.05435">
        <ele>1404</ele>
        <time>2021-06-27T13:09:38.073Z</time>
      </trkpt>
      <trkpt lat="45.54507" lon="6.05435">
        <ele>1404</ele>
        <time>2021-06-27T13:09:39.073Z</time>
      </trkpt>
      <trkpt lat="45.54507" lon="6.05435">
        <ele>1404</ele>
        <time>2021-06-27T13:09:40.074Z</time>
      </trkpt>
      <trkpt lat="45.54507" lon="6.05435">
        <ele>1404</ele>
        <time>2021-06-27T13:09:41.073Z</time>
      </trkpt>
      <trkpt lat="45.54507" lon="6.05434">
        <ele>1405</ele>
        <time>2021-06-27T13:09:42.074Z</time>
      </trkpt>
      <trkpt lat="45.54508" lon="6.05434">
        <ele>1405</ele>
        <time>2021-06-27T13:09:43.074Z</time>
      </trkpt>
      <trkpt lat="45.54508" lon="6.05434">
        <ele>1405</ele>
        <time>2021-06-27T13:09:44.073Z</time>
      </trkpt>
      <trkpt lat="45.54508" lon="6.05434">
        <ele>1405</ele>
        <time>2021-06-27T13:09:45.074Z</time>
      </trkpt>
      <trkpt lat="45.54508" lon="6.05435">
        <ele>1405</ele>
        <time>2021-06-27T13:09:46.073Z</time>
      </trkpt>
      <trkpt lat="45.54508" lon="6.05434">
        <ele>1405</ele>
        <time>2021-06-27T13:09:47.074Z</time>
      </trkpt>
      <trkpt lat="45.54508" lon="6.05435">
        <ele>1404</ele>
        <time>2021-06-27T13:09:48.074Z</time>
      </trkpt>
      <trkpt lat="45.54508" lon="6.05435">
        <ele>1404</ele>
        <time>2021-06-27T13:09:49.074Z</time>
      </trkpt>
      <trkpt lat="45.54508" lon="6.05435">
        <ele>1403</ele>
        <time>2021-06-27T13:09:50.074Z</time>
      </trkpt>
      <trkpt lat="45.54508" lon="6.05435">
        <ele>1402</ele>
        <time>2021-06-27T13:09:51.074Z</time>
      </trkpt>
      <trkpt lat="45.54508" lon="6.05435">
        <ele>1402</ele>
        <time>2021-06-27T13:09:52.074Z</time>
      </trkpt>
      <trkpt lat="45.54507" lon="6.05435">
        <ele>1402</ele>
        <time>2021-06-27T13:09:53.073Z</time>
      </trkpt>
      <trkpt lat="45.54507" lon="6.05435">
        <ele>1402</ele>
        <time>2021-06-27T13:09:54.074Z</time>
      </trkpt>
      <trkpt lat="45.54508" lon="6.05435">
        <ele>1402</ele>
        <time>2021-06-27T13:09:55.073Z</time>
      </trkpt>
      <trkpt lat="45.54508" lon="6.05434">
        <ele>1402</ele>
        <time>2021-06-27T13:09:56.073Z</time>
      </trkpt>
      <trkpt lat="45.54508" lon="6.05434">
        <ele>1402</ele>
        <time>2021-06-27T13:09:57.074Z</time>
      </trkpt>
      <trkpt lat="45.54508" lon="6.05434">
        <ele>1402</ele>
        <time>2021-06-27T13:09:58.074Z</time>
      </trkpt>
      <trkpt lat="45.54508" lon="6.05434">
        <ele>1401</ele>
        <time>2021-06-27T13:09:59.074Z</time>
      </trkpt>
      <trkpt lat="45.54508" lon="6.05434">
        <ele>1401</ele>
        <time>2021-06-27T13:10:00.074Z</time>
      </trkpt>
      <trkpt lat="45.54509" lon="6.05434">
        <ele>1402</ele>
        <time>2021-06-27T13:10:01.074Z</time>
      </trkpt>
      <trkpt lat="45.54509" lon="6.05434">
        <ele>1402</ele>
        <time>2021-06-27T13:10:02.074Z</time>
      </trkpt>
      <trkpt lat="45.54509" lon="6.05435">
        <ele>1403</ele>
        <time>2021-06-27T13:10:03.073Z</time>
      </trkpt>
      <trkpt lat="45.54509" lon="6.05435">
        <ele>1403</ele>
        <time>2021-06-27T13:10:04.074Z</time>
      </trkpt>
      <trkpt lat="45.54509" lon="6.05435">
        <ele>1403</ele>
        <time>2021-06-27T13:10:05.073Z</time>
      </trkpt>
      <trkpt lat="45.54509" lon="6.05436">
        <ele>1403</ele>
        <time>2021-06-27T13:10:06.073Z</time>
      </trkpt>
      <trkpt lat="45.54508" lon="6.05436">
        <ele>1402</ele>
        <time>2021-06-27T13:10:07.073Z</time>
      </trkpt>
      <trkpt lat="45.54508" lon="6.05436">
        <ele>1402</ele>
        <time>2021-06-27T13:10:08.074Z</time>
      </trkpt>
      <trkpt lat="45.54509" lon="6.05436">
        <ele>1401</ele>
        <time>2021-06-27T13:10:09.073Z</time>
      </trkpt>
      <trkpt lat="45.54509" lon="6.05436">
        <ele>1400</ele>
        <time>2021-06-27T13:10:10.074Z</time>
      </trkpt>
      <trkpt lat="45.54509" lon="6.05436">
        <ele>1399</ele>
        <time>2021-06-27T13:10:11.074Z</time>
      </trkpt>
      <trkpt lat="45.54509" lon="6.05436">
        <ele>1399</ele>
        <time>2021-06-27T13:10:12.073Z</time>
      </trkpt>
      <trkpt lat="45.54509" lon="6.05436">
        <ele>1398</ele>
        <time>2021-06-27T13:10:13.074Z</time>
      </trkpt>
      <trkpt lat="45.54509" lon="6.05436">
        <ele>1398</ele>
        <time>2021-06-27T13:10:14.074Z</time>
      </trkpt>
      <trkpt lat="45.54509" lon="6.05436">
        <ele>1399</ele>
        <time>2021-06-27T13:10:15.073Z</time>
      </trkpt>
      <trkpt lat="45.5451" lon="6.05436">
        <ele>1399</ele>
        <time>2021-06-27T13:10:16.074Z</time>
      </trkpt>
      <trkpt lat="45.5451" lon="6.05435">
        <ele>1400</ele>
        <time>2021-06-27T13:10:17.074Z</time>
      </trkpt>
      <trkpt lat="45.54509" lon="6.05435">
        <ele>1401</ele>
        <time>2021-06-27T13:10:18.074Z</time>
      </trkpt>
      <trkpt lat="45.54509" lon="6.05435">
        <ele>1401</ele>
        <time>2021-06-27T13:10:19.074Z</time>
      </trkpt>
      <trkpt lat="45.5451" lon="6.05435">
        <ele>1402</ele>
        <time>2021-06-27T13:10:20.073Z</time>
      </trkpt>
      <trkpt lat="45.5451" lon="6.05434">
        <ele>1403</ele>
        <time>2021-06-27T13:10:21.073Z</time>
      </trkpt>
      <trkpt lat="45.5451" lon="6.05434">
        <ele>1403</ele>
        <time>2021-06-27T13:10:22.074Z</time>
      </trkpt>
      <trkpt lat="45.5451" lon="6.05434">
        <ele>1403</ele>
        <time>2021-06-27T13:10:23.074Z</time>
      </trkpt>
      <trkpt lat="45.5451" lon="6.05434">
        <ele>1403</ele>
        <time>2021-06-27T13:10:24.073Z</time>
      </trkpt>
      <trkpt lat="45.5451" lon="6.05434">
        <ele>1403</ele>
        <time>2021-06-27T13:10:25.074Z</time>
      </trkpt>
      <trkpt lat="45.54509" lon="6.05434">
        <ele>1403</ele>
        <time>2021-06-27T13:10:26.074Z</time>
      </trkpt>
      <trkpt lat="45.54509" lon="6.05435">
        <ele>1402</ele>
        <time>2021-06-27T13:10:27.074Z</time>
      </trkpt>
      <trkpt lat="45.54509" lon="6.05435">
        <ele>1402</ele>
        <time>2021-06-27T13:10:28.074Z</time>
      </trkpt>
      <trkpt lat="45.54509" lon="6.05434">
        <ele>1401</ele>
        <time>2021-06-27T13:10:29.074Z</time>
      </trkpt>
      <trkpt lat="45.54509" lon="6.05435">
        <ele>1401</ele>
        <time>2021-06-27T13:10:30.074Z</time>
      </trkpt>
      <trkpt lat="45.54509" lon="6.05435">
        <ele>1401</ele>
        <time>2021-06-27T13:10:31.074Z</time>
      </trkpt>
      <trkpt lat="45.54509" lon="6.05435">
        <ele>1401</ele>
        <time>2021-06-27T13:10:32.073Z</time>
      </trkpt>
      <trkpt lat="45.54509" lon="6.05435">
        <ele>1402</ele>
        <time>2021-06-27T13:10:33.074Z</time>
      </trkpt>
      <trkpt lat="45.54509" lon="6.05435">
        <ele>1402</ele>
        <time>2021-06-27T13:10:34.074Z</time>
      </trkpt>
      <trkpt lat="45.54509" lon="6.05436">
        <ele>1403</ele>
        <time>2021-06-27T13:10:35.074Z</time>
      </trkpt>
      <trkpt lat="45.54509" lon="6.05436">
        <ele>1403</ele>
        <time>2021-06-27T13:10:36.074Z</time>
      </trkpt>
      <trkpt lat="45.54509" lon="6.05436">
        <ele>1404</ele>
        <time>2021-06-27T13:10:37.074Z</time>
      </trkpt>
      <trkpt lat="45.54509" lon="6.05436">
        <ele>1404</ele>
        <time>2021-06-27T13:10:38.073Z</time>
      </trkpt>
      <trkpt lat="45.54508" lon="6.05436">
        <ele>1404</ele>
        <time>2021-06-27T13:10:39.074Z</time>
      </trkpt>
      <trkpt lat="45.54508" lon="6.05436">
        <ele>1405</ele>
        <time>2021-06-27T13:10:40.074Z</time>
      </trkpt>
      <trkpt lat="45.54508" lon="6.05436">
        <ele>1405</ele>
        <time>2021-06-27T13:10:41.074Z</time>
      </trkpt>
      <trkpt lat="45.54508" lon="6.05436">
        <ele>1406</ele>
        <time>2021-06-27T13:10:42.074Z</time>
      </trkpt>
      <trkpt lat="45.54508" lon="6.05436">
        <ele>1406</ele>
        <time>2021-06-27T13:10:43.074Z</time>
      </trkpt>
      <trkpt lat="45.54508" lon="6.05436">
        <ele>1407</ele>
        <time>2021-06-27T13:10:44.074Z</time>
      </trkpt>
      <trkpt lat="45.54508" lon="6.05436">
        <ele>1407</ele>
        <time>2021-06-27T13:10:45.074Z</time>
      </trkpt>
      <trkpt lat="45.54508" lon="6.05436">
        <ele>1407</ele>
        <time>2021-06-27T13:10:46.073Z</time>
      </trkpt>
      <trkpt lat="45.54508" lon="6.05436">
        <ele>1408</ele>
        <time>2021-06-27T13:10:47.074Z</time>
      </trkpt>
      <trkpt lat="45.54508" lon="6.05437">
        <ele>1408</ele>
        <time>2021-06-27T13:10:48.074Z</time>
      </trkpt>
      <trkpt lat="45.54508" lon="6.05436">
        <ele>1408</ele>
        <time>2021-06-27T13:10:49.074Z</time>
      </trkpt>
      <trkpt lat="45.54509" lon="6.05436">
        <ele>1408</ele>
        <time>2021-06-27T13:10:50.074Z</time>
      </trkpt>
      <trkpt lat="45.54508" lon="6.05437">
        <ele>1408</ele>
        <time>2021-06-27T13:10:51.074Z</time>
      </trkpt>
      <trkpt lat="45.54509" lon="6.05436">
        <ele>1409</ele>
        <time>2021-06-27T13:10:52.073Z</time>
      </trkpt>
      <trkpt lat="45.54509" lon="6.05437">
        <ele>1409</ele>
        <time>2021-06-27T13:10:53.074Z</time>
      </trkpt>
      <trkpt lat="45.54508" lon="6.05438">
        <ele>1409</ele>
        <time>2021-06-27T13:10:54.074Z</time>
      </trkpt>
      <trkpt lat="45.54507" lon="6.05437">
        <ele>1409</ele>
        <time>2021-06-27T13:10:55.074Z</time>
      </trkpt>
      <trkpt lat="45.54506" lon="6.05436">
        <ele>1409</ele>
        <time>2021-06-27T13:10:56.074Z</time>
      </trkpt>
      <trkpt lat="45.54506" lon="6.05434">
        <ele>1409</ele>
        <time>2021-06-27T13:10:57.074Z</time>
      </trkpt>
      <trkpt lat="45.54505" lon="6.05433">
        <ele>1409</ele>
        <time>2021-06-27T13:10:58.074Z</time>
      </trkpt>
      <trkpt lat="45.54505" lon="6.05432">
        <ele>1409</ele>
        <time>2021-06-27T13:10:59.074Z</time>
      </trkpt>
      <trkpt lat="45.54505" lon="6.05432">
        <ele>1408</ele>
        <time>2021-06-27T13:11:00.074Z</time>
      </trkpt>
      <trkpt lat="45.54505" lon="6.05432">
        <ele>1408</ele>
        <time>2021-06-27T13:11:01.074Z</time>
      </trkpt>
      <trkpt lat="45.54506" lon="6.05432">
        <ele>1407</ele>
        <time>2021-06-27T13:11:02.074Z</time>
      </trkpt>
      <trkpt lat="45.54506" lon="6.05432">
        <ele>1406</ele>
        <time>2021-06-27T13:11:03.074Z</time>
      </trkpt>
      <trkpt lat="45.54506" lon="6.05432">
        <ele>1406</ele>
        <time>2021-06-27T13:11:04.074Z</time>
      </trkpt>
      <trkpt lat="45.54505" lon="6.05432">
        <ele>1406</ele>
        <time>2021-06-27T13:11:05.074Z</time>
      </trkpt>
      <trkpt lat="45.54505" lon="6.05432">
        <ele>1406</ele>
        <time>2021-06-27T13:11:06.074Z</time>
      </trkpt>
      <trkpt lat="45.54506" lon="6.05432">
        <ele>1406</ele>
        <time>2021-06-27T13:11:07.074Z</time>
      </trkpt>
      <trkpt lat="45.54506" lon="6.05432">
        <ele>1406</ele>
        <time>2021-06-27T13:11:08.074Z</time>
      </trkpt>
      <trkpt lat="45.54506" lon="6.05432">
        <ele>1405</ele>
        <time>2021-06-27T13:11:09.074Z</time>
      </trkpt>
      <trkpt lat="45.54506" lon="6.05432">
        <ele>1405</ele>
        <time>2021-06-27T13:11:10.074Z</time>
      </trkpt>
      <trkpt lat="45.54506" lon="6.05432">
        <ele>1404</ele>
        <time>2021-06-27T13:11:11.074Z</time>
      </trkpt>
      <trkpt lat="45.54506" lon="6.05432">
        <ele>1403</ele>
        <time>2021-06-27T13:11:12.074Z</time>
      </trkpt>
      <trkpt lat="45.54506" lon="6.05432">
        <ele>1402</ele>
        <time>2021-06-27T13:11:13.074Z</time>
      </trkpt>
      <trkpt lat="45.54507" lon="6.05431">
        <ele>1401</ele>
        <time>2021-06-27T13:11:14.074Z</time>
      </trkpt>
      <trkpt lat="45.54507" lon="6.05431">
        <ele>1400</ele>
        <time>2021-06-27T13:11:15.074Z</time>
      </trkpt>
      <trkpt lat="45.54507" lon="6.05431">
        <ele>1400</ele>
        <time>2021-06-27T13:11:16.073Z</time>
      </trkpt>
      <trkpt lat="45.54507" lon="6.05431">
        <ele>1400</ele>
        <time>2021-06-27T13:11:17.074Z</time>
      </trkpt>
      <trkpt lat="45.54506" lon="6.05431">
        <ele>1399</ele>
        <time>2021-06-27T13:11:18.074Z</time>
      </trkpt>
      <trkpt lat="45.54506" lon="6.05431">
        <ele>1399</ele>
        <time>2021-06-27T13:11:19.074Z</time>
      </trkpt>
      <trkpt lat="45.54507" lon="6.05431">
        <ele>1400</ele>
        <time>2021-06-27T13:11:20.073Z</time>
      </trkpt>
      <trkpt lat="45.54507" lon="6.05431">
        <ele>1400</ele>
        <time>2021-06-27T13:11:21.074Z</time>
      </trkpt>
      <trkpt lat="45.54507" lon="6.05431">
        <ele>1400</ele>
        <time>2021-06-27T13:11:22.073Z</time>
      </trkpt>
      <trkpt lat="45.54507" lon="6.05431">
        <ele>1401</ele>
        <time>2021-06-27T13:11:23.073Z</time>
      </trkpt>
      <trkpt lat="45.54507" lon="6.05431">
        <ele>1401</ele>
        <time>2021-06-27T13:11:24.073Z</time>
      </trkpt>
      <trkpt lat="45.54507" lon="6.05431">
        <ele>1401</ele>
        <time>2021-06-27T13:11:25.074Z</time>
      </trkpt>
      <trkpt lat="45.54507" lon="6.05432">
        <ele>1401</ele>
        <time>2021-06-27T13:11:26.074Z</time>
      </trkpt>
      <trkpt lat="45.54507" lon="6.05432">
        <ele>1402</ele>
        <time>2021-06-27T13:11:27.074Z</time>
      </trkpt>
      <trkpt lat="45.54507" lon="6.05432">
        <ele>1402</ele>
        <time>2021-06-27T13:11:28.074Z</time>
      </trkpt>
      <trkpt lat="45.54507" lon="6.05432">
        <ele>1402</ele>
        <time>2021-06-27T13:11:29.074Z</time>
      </trkpt>
      <trkpt lat="45.54507" lon="6.05432">
        <ele>1402</ele>
        <time>2021-06-27T13:11:30.073Z</time>
      </trkpt>
      <trkpt lat="45.54507" lon="6.05432">
        <ele>1402</ele>
        <time>2021-06-27T13:11:31.074Z</time>
      </trkpt>
      <trkpt lat="45.54507" lon="6.05432">
        <ele>1402</ele>
        <time>2021-06-27T13:11:32.073Z</time>
      </trkpt>
      <trkpt lat="45.54507" lon="6.05432">
        <ele>1402</ele>
        <time>2021-06-27T13:11:33.074Z</time>
      </trkpt>
      <trkpt lat="45.54507" lon="6.05432">
        <ele>1402</ele>
        <time>2021-06-27T13:11:34.074Z</time>
      </trkpt>
      <trkpt lat="45.54507" lon="6.05432">
        <ele>1402</ele>
        <time>2021-06-27T13:11:35.074Z</time>
      </trkpt>
      <trkpt lat="45.54507" lon="6.05432">
        <ele>1403</ele>
        <time>2021-06-27T13:11:36.074Z</time>
      </trkpt>
      <trkpt lat="45.54507" lon="6.05432">
        <ele>1403</ele>
        <time>2021-06-27T13:11:37.074Z</time>
      </trkpt>
      <trkpt lat="45.54506" lon="6.05432">
        <ele>1403</ele>
        <time>2021-06-27T13:11:38.074Z</time>
      </trkpt>
      <trkpt lat="45.54506" lon="6.05432">
        <ele>1404</ele>
        <time>2021-06-27T13:11:39.073Z</time>
      </trkpt>
      <trkpt lat="45.54506" lon="6.05432">
        <ele>1404</ele>
        <time>2021-06-27T13:11:40.074Z</time>
      </trkpt>
      <trkpt lat="45.54506" lon="6.05431">
        <ele>1404</ele>
        <time>2021-06-27T13:11:41.074Z</time>
      </trkpt>
      <trkpt lat="45.54506" lon="6.05431">
        <ele>1404</ele>
        <time>2021-06-27T13:11:42.074Z</time>
      </trkpt>
      <trkpt lat="45.54506" lon="6.05431">
        <ele>1404</ele>
        <time>2021-06-27T13:11:43.073Z</time>
      </trkpt>
      <trkpt lat="45.54506" lon="6.05431">
        <ele>1404</ele>
        <time>2021-06-27T13:11:44.074Z</time>
      </trkpt>
      <trkpt lat="45.54506" lon="6.05431">
        <ele>1404</ele>
        <time>2021-06-27T13:11:45.073Z</time>
      </trkpt>
      <trkpt lat="45.54506" lon="6.05431">
        <ele>1403</ele>
        <time>2021-06-27T13:11:46.074Z</time>
      </trkpt>
      <trkpt lat="45.54506" lon="6.05431">
        <ele>1403</ele>
        <time>2021-06-27T13:11:47.073Z</time>
      </trkpt>
      <trkpt lat="45.54506" lon="6.05431">
        <ele>1402</ele>
        <time>2021-06-27T13:11:48.074Z</time>
      </trkpt>
      <trkpt lat="45.54507" lon="6.05432">
        <ele>1403</ele>
        <time>2021-06-27T13:11:49.074Z</time>
      </trkpt>
      <trkpt lat="45.54507" lon="6.05432">
        <ele>1403</ele>
        <time>2021-06-27T13:11:50.074Z</time>
      </trkpt>
      <trkpt lat="45.54506" lon="6.05432">
        <ele>1403</ele>
        <time>2021-06-27T13:11:51.074Z</time>
      </trkpt>
      <trkpt lat="45.54506" lon="6.05432">
        <ele>1403</ele>
        <time>2021-06-27T13:11:52.074Z</time>
      </trkpt>
      <trkpt lat="45.54506" lon="6.05432">
        <ele>1403</ele>
        <time>2021-06-27T13:11:53.074Z</time>
      </trkpt>
      <trkpt lat="45.54506" lon="6.05432">
        <ele>1403</ele>
        <time>2021-06-27T13:11:54.073Z</time>
      </trkpt>
      <trkpt lat="45.54506" lon="6.05432">
        <ele>1403</ele>
        <time>2021-06-27T13:11:55.073Z</time>
      </trkpt>
      <trkpt lat="45.54506" lon="6.05432">
        <ele>1403</ele>
        <time>2021-06-27T13:11:56.073Z</time>
      </trkpt>
      <trkpt lat="45.54506" lon="6.05433">
        <ele>1403</ele>
        <time>2021-06-27T13:11:57.074Z</time>
      </trkpt>
      <trkpt lat="45.54506" lon="6.05432">
        <ele>1403</ele>
        <time>2021-06-27T13:11:58.073Z</time>
      </trkpt>
      <trkpt lat="45.54506" lon="6.05433">
        <ele>1403</ele>
        <time>2021-06-27T13:11:59.074Z</time>
      </trkpt>
      <trkpt lat="45.54506" lon="6.05432">
        <ele>1403</ele>
        <time>2021-06-27T13:12:00.073Z</time>
      </trkpt>
      <trkpt lat="45.54506" lon="6.05433">
        <ele>1403</ele>
        <time>2021-06-27T13:12:01.074Z</time>
      </trkpt>
      <trkpt lat="45.54507" lon="6.05433">
        <ele>1403</ele>
        <time>2021-06-27T13:12:02.074Z</time>
      </trkpt>
      <trkpt lat="45.54507" lon="6.05433">
        <ele>1403</ele>
        <time>2021-06-27T13:12:03.074Z</time>
      </trkpt>
      <trkpt lat="45.54508" lon="6.05434">
        <ele>1403</ele>
        <time>2021-06-27T13:12:04.074Z</time>
      </trkpt>
      <trkpt lat="45.54508" lon="6.05436">
        <ele>1403</ele>
        <time>2021-06-27T13:12:05.074Z</time>
      </trkpt>
      <trkpt lat="45.54508" lon="6.05437">
        <ele>1403</ele>
        <time>2021-06-27T13:12:06.074Z</time>
      </trkpt>
      <trkpt lat="45.54508" lon="6.05438">
        <ele>1403</ele>
        <time>2021-06-27T13:12:07.074Z</time>
      </trkpt>
      <trkpt lat="45.54508" lon="6.0544">
        <ele>1403</ele>
        <time>2021-06-27T13:12:08.074Z</time>
      </trkpt>
      <trkpt lat="45.54508" lon="6.05441">
        <ele>1403</ele>
        <time>2021-06-27T13:12:09.074Z</time>
      </trkpt>
      <trkpt lat="45.54508" lon="6.05442">
        <ele>1403</ele>
        <time>2021-06-27T13:12:10.074Z</time>
      </trkpt>
      <trkpt lat="45.54507" lon="6.05443">
        <ele>1403</ele>
        <time>2021-06-27T13:12:11.074Z</time>
      </trkpt>
      <trkpt lat="45.54507" lon="6.05444">
        <ele>1403</ele>
        <time>2021-06-27T13:12:12.074Z</time>
      </trkpt>
      <trkpt lat="45.54506" lon="6.05445">
        <ele>1403</ele>
        <time>2021-06-27T13:12:13.074Z</time>
      </trkpt>
      <trkpt lat="45.54506" lon="6.05446">
        <ele>1403</ele>
        <time>2021-06-27T13:12:14.073Z</time>
      </trkpt>
      <trkpt lat="45.54505" lon="6.05447">
        <ele>1404</ele>
        <time>2021-06-27T13:12:15.073Z</time>
      </trkpt>
      <trkpt lat="45.54504" lon="6.05448">
        <ele>1404</ele>
        <time>2021-06-27T13:12:16.073Z</time>
      </trkpt>
      <trkpt lat="45.54504" lon="6.05449">
        <ele>1403</ele>
        <time>2021-06-27T13:12:17.074Z</time>
      </trkpt>
      <trkpt lat="45.54503" lon="6.0545">
        <ele>1403</ele>
        <time>2021-06-27T13:12:18.074Z</time>
      </trkpt>
      <trkpt lat="45.54503" lon="6.05451">
        <ele>1403</ele>
        <time>2021-06-27T13:12:19.074Z</time>
      </trkpt>
      <trkpt lat="45.54502" lon="6.05452">
        <ele>1402</ele>
        <time>2021-06-27T13:12:20.074Z</time>
      </trkpt>
      <trkpt lat="45.54502" lon="6.05452">
        <ele>1402</ele>
        <time>2021-06-27T13:12:21.074Z</time>
      </trkpt>
      <trkpt lat="45.54502" lon="6.05453">
        <ele>1402</ele>
        <time>2021-06-27T13:12:22.074Z</time>
      </trkpt>
      <trkpt lat="45.54501" lon="6.05454">
        <ele>1402</ele>
        <time>2021-06-27T13:12:23.074Z</time>
      </trkpt>
      <trkpt lat="45.54501" lon="6.05456">
        <ele>1403</ele>
        <time>2021-06-27T13:12:24.074Z</time>
      </trkpt>
      <trkpt lat="45.545" lon="6.05457">
        <ele>1403</ele>
        <time>2021-06-27T13:12:25.074Z</time>
      </trkpt>
      <trkpt lat="45.545" lon="6.05457">
        <ele>1403</ele>
        <time>2021-06-27T13:12:26.074Z</time>
      </trkpt>
      <trkpt lat="45.545" lon="6.05458">
        <ele>1402</ele>
        <time>2021-06-27T13:12:27.074Z</time>
      </trkpt>
      <trkpt lat="45.545" lon="6.05459">
        <ele>1402</ele>
        <time>2021-06-27T13:12:28.074Z</time>
      </trkpt>
      <trkpt lat="45.54501" lon="6.05459">
        <ele>1401</ele>
        <time>2021-06-27T13:12:29.074Z</time>
      </trkpt>
      <trkpt lat="45.54501" lon="6.0546">
        <ele>1401</ele>
        <time>2021-06-27T13:12:30.074Z</time>
      </trkpt>
      <trkpt lat="45.54501" lon="6.05461">
        <ele>1401</ele>
        <time>2021-06-27T13:12:31.074Z</time>
      </trkpt>
      <trkpt lat="45.54501" lon="6.05461">
        <ele>1401</ele>
        <time>2021-06-27T13:12:32.074Z</time>
      </trkpt>
      <trkpt lat="45.54501" lon="6.05462">
        <ele>1401</ele>
        <time>2021-06-27T13:12:33.074Z</time>
      </trkpt>
      <trkpt lat="45.54501" lon="6.05463">
        <ele>1401</ele>
        <time>2021-06-27T13:12:34.073Z</time>
      </trkpt>
      <trkpt lat="45.54501" lon="6.05463">
        <ele>1401</ele>
        <time>2021-06-27T13:12:35.073Z</time>
      </trkpt>
      <trkpt lat="45.54501" lon="6.05463">
        <ele>1401</ele>
        <time>2021-06-27T13:12:36.074Z</time>
      </trkpt>
      <trkpt lat="45.545" lon="6.05464">
        <ele>1401</ele>
        <time>2021-06-27T13:12:37.074Z</time>
      </trkpt>
      <trkpt lat="45.545" lon="6.05465">
        <ele>1401</ele>
        <time>2021-06-27T13:12:38.074Z</time>
      </trkpt>
      <trkpt lat="45.54499" lon="6.05466">
        <ele>1402</ele>
        <time>2021-06-27T13:12:39.074Z</time>
      </trkpt>
      <trkpt lat="45.54499" lon="6.05467">
        <ele>1402</ele>
        <time>2021-06-27T13:12:40.074Z</time>
      </trkpt>
      <trkpt lat="45.54498" lon="6.05468">
        <ele>1403</ele>
        <time>2021-06-27T13:12:41.074Z</time>
      </trkpt>
      <trkpt lat="45.54498" lon="6.05468">
        <ele>1403</ele>
        <time>2021-06-27T13:12:42.074Z</time>
      </trkpt>
      <trkpt lat="45.54497" lon="6.05469">
        <ele>1402</ele>
        <time>2021-06-27T13:12:43.074Z</time>
      </trkpt>
      <trkpt lat="45.54497" lon="6.05469">
        <ele>1402</ele>
        <time>2021-06-27T13:12:44.074Z</time>
      </trkpt>
      <trkpt lat="45.54496" lon="6.0547">
        <ele>1402</ele>
        <time>2021-06-27T13:12:45.074Z</time>
      </trkpt>
      <trkpt lat="45.54495" lon="6.0547">
        <ele>1402</ele>
        <time>2021-06-27T13:12:46.074Z</time>
      </trkpt>
      <trkpt lat="45.54495" lon="6.05471">
        <ele>1402</ele>
        <time>2021-06-27T13:12:47.073Z</time>
      </trkpt>
      <trkpt lat="45.54494" lon="6.05471">
        <ele>1401</ele>
        <time>2021-06-27T13:12:48.074Z</time>
      </trkpt>
      <trkpt lat="45.54494" lon="6.05471">
        <ele>1401</ele>
        <time>2021-06-27T13:12:49.074Z</time>
      </trkpt>
      <trkpt lat="45.54494" lon="6.05471">
        <ele>1401</ele>
        <time>2021-06-27T13:12:50.074Z</time>
      </trkpt>
      <trkpt lat="45.54493" lon="6.05471">
        <ele>1400</ele>
        <time>2021-06-27T13:12:51.074Z</time>
      </trkpt>
      <trkpt lat="45.54493" lon="6.05471">
        <ele>1400</ele>
        <time>2021-06-27T13:12:52.074Z</time>
      </trkpt>
      <trkpt lat="45.54492" lon="6.05471">
        <ele>1400</ele>
        <time>2021-06-27T13:12:53.074Z</time>
      </trkpt>
      <trkpt lat="45.54492" lon="6.05471">
        <ele>1400</ele>
        <time>2021-06-27T13:12:54.074Z</time>
      </trkpt>
      <trkpt lat="45.54491" lon="6.05471">
        <ele>1399</ele>
        <time>2021-06-27T13:12:55.073Z</time>
      </trkpt>
      <trkpt lat="45.54491" lon="6.05472">
        <ele>1399</ele>
        <time>2021-06-27T13:12:56.074Z</time>
      </trkpt>
      <trkpt lat="45.5449" lon="6.05472">
        <ele>1398</ele>
        <time>2021-06-27T13:12:57.074Z</time>
      </trkpt>
      <trkpt lat="45.54489" lon="6.05472">
        <ele>1398</ele>
        <time>2021-06-27T13:12:58.074Z</time>
      </trkpt>
      <trkpt lat="45.54489" lon="6.05472">
        <ele>1397</ele>
        <time>2021-06-27T13:12:59.074Z</time>
      </trkpt>
      <trkpt lat="45.54488" lon="6.05472">
        <ele>1396</ele>
        <time>2021-06-27T13:13:00.073Z</time>
      </trkpt>
      <trkpt lat="45.54488" lon="6.05472">
        <ele>1395</ele>
        <time>2021-06-27T13:13:01.074Z</time>
      </trkpt>
      <trkpt lat="45.54487" lon="6.05472">
        <ele>1394</ele>
        <time>2021-06-27T13:13:02.074Z</time>
      </trkpt>
      <trkpt lat="45.54487" lon="6.05472">
        <ele>1393</ele>
        <time>2021-06-27T13:13:03.074Z</time>
      </trkpt>
      <trkpt lat="45.54486" lon="6.05473">
        <ele>1393</ele>
        <time>2021-06-27T13:13:04.073Z</time>
      </trkpt>
      <trkpt lat="45.54485" lon="6.05473">
        <ele>1392</ele>
        <time>2021-06-27T13:13:05.074Z</time>
      </trkpt>
      <trkpt lat="45.54484" lon="6.05474">
        <ele>1392</ele>
        <time>2021-06-27T13:13:06.073Z</time>
      </trkpt>
      <trkpt lat="45.54484" lon="6.05475">
        <ele>1392</ele>
        <time>2021-06-27T13:13:07.074Z</time>
      </trkpt>
      <trkpt lat="45.54484" lon="6.05475">
        <ele>1392</ele>
        <time>2021-06-27T13:13:08.074Z</time>
      </trkpt>
      <trkpt lat="45.54483" lon="6.05476">
        <ele>1391</ele>
        <time>2021-06-27T13:13:09.074Z</time>
      </trkpt>
      <trkpt lat="45.54483" lon="6.05476">
        <ele>1391</ele>
        <time>2021-06-27T13:13:10.074Z</time>
      </trkpt>
      <trkpt lat="45.54482" lon="6.05476">
        <ele>1390</ele>
        <time>2021-06-27T13:13:11.074Z</time>
      </trkpt>
      <trkpt lat="45.54482" lon="6.05476">
        <ele>1390</ele>
        <time>2021-06-27T13:13:12.073Z</time>
      </trkpt>
      <trkpt lat="45.54482" lon="6.05476">
        <ele>1390</ele>
        <time>2021-06-27T13:13:13.073Z</time>
      </trkpt>
      <trkpt lat="45.54481" lon="6.05475">
        <ele>1390</ele>
        <time>2021-06-27T13:13:14.074Z</time>
      </trkpt>
      <trkpt lat="45.54481" lon="6.05475">
        <ele>1390</ele>
        <time>2021-06-27T13:13:15.074Z</time>
      </trkpt>
      <trkpt lat="45.54481" lon="6.05476">
        <ele>1390</ele>
        <time>2021-06-27T13:13:16.074Z</time>
      </trkpt>
      <trkpt lat="45.54481" lon="6.05476">
        <ele>1390</ele>
        <time>2021-06-27T13:13:17.074Z</time>
      </trkpt>
      <trkpt lat="45.5448" lon="6.05475">
        <ele>1390</ele>
        <time>2021-06-27T13:13:18.073Z</time>
      </trkpt>
      <trkpt lat="45.5448" lon="6.05475">
        <ele>1390</ele>
        <time>2021-06-27T13:13:19.074Z</time>
      </trkpt>
      <trkpt lat="45.5448" lon="6.05475">
        <ele>1391</ele>
        <time>2021-06-27T13:13:20.074Z</time>
      </trkpt>
      <trkpt lat="45.54479" lon="6.05475">
        <ele>1391</ele>
        <time>2021-06-27T13:13:21.073Z</time>
      </trkpt>
      <trkpt lat="45.54479" lon="6.05475">
        <ele>1391</ele>
        <time>2021-06-27T13:13:22.074Z</time>
      </trkpt>
      <trkpt lat="45.54479" lon="6.05475">
        <ele>1392</ele>
        <time>2021-06-27T13:13:23.074Z</time>
      </trkpt>
      <trkpt lat="45.5448" lon="6.05475">
        <ele>1392</ele>
        <time>2021-06-27T13:13:24.074Z</time>
      </trkpt>
      <trkpt lat="45.5448" lon="6.05475">
        <ele>1392</ele>
        <time>2021-06-27T13:13:25.073Z</time>
      </trkpt>
      <trkpt lat="45.5448" lon="6.05475">
        <ele>1392</ele>
        <time>2021-06-27T13:13:26.074Z</time>
      </trkpt>
      <trkpt lat="45.5448" lon="6.05476">
        <ele>1391</ele>
        <time>2021-06-27T13:13:27.074Z</time>
      </trkpt>
      <trkpt lat="45.54479" lon="6.05476">
        <ele>1391</ele>
        <time>2021-06-27T13:13:28.074Z</time>
      </trkpt>
      <trkpt lat="45.54479" lon="6.05477">
        <ele>1390</ele>
        <time>2021-06-27T13:13:29.073Z</time>
      </trkpt>
      <trkpt lat="45.54478" lon="6.05477">
        <ele>1390</ele>
        <time>2021-06-27T13:13:30.073Z</time>
      </trkpt>
      <trkpt lat="45.54478" lon="6.05477">
        <ele>1389</ele>
        <time>2021-06-27T13:13:31.074Z</time>
      </trkpt>
      <trkpt lat="45.54478" lon="6.05478">
        <ele>1389</ele>
        <time>2021-06-27T13:13:32.074Z</time>
      </trkpt>
      <trkpt lat="45.54477" lon="6.05478">
        <ele>1388</ele>
        <time>2021-06-27T13:13:33.074Z</time>
      </trkpt>
      <trkpt lat="45.54477" lon="6.05479">
        <ele>1387</ele>
        <time>2021-06-27T13:13:34.074Z</time>
      </trkpt>
      <trkpt lat="45.54476" lon="6.05479">
        <ele>1387</ele>
        <time>2021-06-27T13:13:35.073Z</time>
      </trkpt>
      <trkpt lat="45.54476" lon="6.05479">
        <ele>1387</ele>
        <time>2021-06-27T13:13:36.074Z</time>
      </trkpt>
      <trkpt lat="45.54475" lon="6.05479">
        <ele>1386</ele>
        <time>2021-06-27T13:13:37.074Z</time>
      </trkpt>
      <trkpt lat="45.54474" lon="6.05479">
        <ele>1386</ele>
        <time>2021-06-27T13:13:38.074Z</time>
      </trkpt>
      <trkpt lat="45.54473" lon="6.05479">
        <ele>1386</ele>
        <time>2021-06-27T13:13:39.074Z</time>
      </trkpt>
      <trkpt lat="45.54472" lon="6.05477">
        <ele>1385</ele>
        <time>2021-06-27T13:13:40.074Z</time>
      </trkpt>
      <trkpt lat="45.54472" lon="6.05476">
        <ele>1385</ele>
        <time>2021-06-27T13:13:41.074Z</time>
      </trkpt>
      <trkpt lat="45.54472" lon="6.05474">
        <ele>1385</ele>
        <time>2021-06-27T13:13:42.074Z</time>
      </trkpt>
      <trkpt lat="45.54472" lon="6.05473">
        <ele>1385</ele>
        <time>2021-06-27T13:13:43.074Z</time>
      </trkpt>
      <trkpt lat="45.54471" lon="6.0547">
        <ele>1385</ele>
        <time>2021-06-27T13:13:44.074Z</time>
      </trkpt>
      <trkpt lat="45.54472" lon="6.05469">
        <ele>1385</ele>
        <time>2021-06-27T13:13:45.074Z</time>
      </trkpt>
      <trkpt lat="45.54472" lon="6.05468">
        <ele>1384</ele>
        <time>2021-06-27T13:13:46.074Z</time>
      </trkpt>
      <trkpt lat="45.54472" lon="6.05466">
        <ele>1384</ele>
        <time>2021-06-27T13:13:47.074Z</time>
      </trkpt>
      <trkpt lat="45.54472" lon="6.05465">
        <ele>1384</ele>
        <time>2021-06-27T13:13:48.074Z</time>
      </trkpt>
      <trkpt lat="45.54472" lon="6.05464">
        <ele>1383</ele>
        <time>2021-06-27T13:13:49.074Z</time>
      </trkpt>
      <trkpt lat="45.54472" lon="6.05463">
        <ele>1383</ele>
        <time>2021-06-27T13:13:50.074Z</time>
      </trkpt>
      <trkpt lat="45.54473" lon="6.05462">
        <ele>1382</ele>
        <time>2021-06-27T13:13:51.074Z</time>
      </trkpt>
      <trkpt lat="45.54474" lon="6.0546">
        <ele>1382</ele>
        <time>2021-06-27T13:13:52.074Z</time>
      </trkpt>
      <trkpt lat="45.54474" lon="6.0546">
        <ele>1382</ele>
        <time>2021-06-27T13:13:53.074Z</time>
      </trkpt>
      <trkpt lat="45.54475" lon="6.05459">
        <ele>1382</ele>
        <time>2021-06-27T13:13:54.073Z</time>
      </trkpt>
      <trkpt lat="45.54476" lon="6.05458">
        <ele>1382</ele>
        <time>2021-06-27T13:13:55.073Z</time>
      </trkpt>
      <trkpt lat="45.54477" lon="6.05457">
        <ele>1382</ele>
        <time>2021-06-27T13:13:56.074Z</time>
      </trkpt>
      <trkpt lat="45.54478" lon="6.05457">
        <ele>1382</ele>
        <time>2021-06-27T13:13:57.074Z</time>
      </trkpt>
      <trkpt lat="45.54478" lon="6.05456">
        <ele>1382</ele>
        <time>2021-06-27T13:13:58.074Z</time>
      </trkpt>
      <trkpt lat="45.54479" lon="6.05455">
        <ele>1381</ele>
        <time>2021-06-27T13:13:59.074Z</time>
      </trkpt>
      <trkpt lat="45.5448" lon="6.05454">
        <ele>1381</ele>
        <time>2021-06-27T13:14:00.074Z</time>
      </trkpt>
      <trkpt lat="45.5448" lon="6.05454">
        <ele>1381</ele>
        <time>2021-06-27T13:14:01.074Z</time>
      </trkpt>
      <trkpt lat="45.54481" lon="6.05453">
        <ele>1381</ele>
        <time>2021-06-27T13:14:02.073Z</time>
      </trkpt>
      <trkpt lat="45.54481" lon="6.05453">
        <ele>1381</ele>
        <time>2021-06-27T13:14:03.074Z</time>
      </trkpt>
      <trkpt lat="45.54482" lon="6.05452">
        <ele>1381</ele>
        <time>2021-06-27T13:14:04.074Z</time>
      </trkpt>
      <trkpt lat="45.54483" lon="6.05452">
        <ele>1381</ele>
        <time>2021-06-27T13:14:05.073Z</time>
      </trkpt>
      <trkpt lat="45.54484" lon="6.05452">
        <ele>1381</ele>
        <time>2021-06-27T13:14:06.074Z</time>
      </trkpt>
      <trkpt lat="45.54485" lon="6.05453">
        <ele>1381</ele>
        <time>2021-06-27T13:14:07.074Z</time>
      </trkpt>
      <trkpt lat="45.54487" lon="6.05453">
        <ele>1381</ele>
        <time>2021-06-27T13:14:08.074Z</time>
      </trkpt>
      <trkpt lat="45.54488" lon="6.05453">
        <ele>1380</ele>
        <time>2021-06-27T13:14:09.074Z</time>
      </trkpt>
      <trkpt lat="45.54488" lon="6.05453">
        <ele>1380</ele>
        <time>2021-06-27T13:14:10.074Z</time>
      </trkpt>
      <trkpt lat="45.54489" lon="6.05453">
        <ele>1380</ele>
        <time>2021-06-27T13:14:11.074Z</time>
      </trkpt>
      <trkpt lat="45.5449" lon="6.05452">
        <ele>1380</ele>
        <time>2021-06-27T13:14:12.073Z</time>
      </trkpt>
      <trkpt lat="45.5449" lon="6.05451">
        <ele>1380</ele>
        <time>2021-06-27T13:14:13.074Z</time>
      </trkpt>
      <trkpt lat="45.54491" lon="6.05451">
        <ele>1380</ele>
        <time>2021-06-27T13:14:14.074Z</time>
      </trkpt>
      <trkpt lat="45.54491" lon="6.0545">
        <ele>1381</ele>
        <time>2021-06-27T13:14:15.074Z</time>
      </trkpt>
      <trkpt lat="45.54491" lon="6.05449">
        <ele>1381</ele>
        <time>2021-06-27T13:14:16.074Z</time>
      </trkpt>
      <trkpt lat="45.54491" lon="6.05448">
        <ele>1381</ele>
        <time>2021-06-27T13:14:17.074Z</time>
      </trkpt>
      <trkpt lat="45.54491" lon="6.05447">
        <ele>1381</ele>
        <time>2021-06-27T13:14:18.074Z</time>
      </trkpt>
      <trkpt lat="45.54491" lon="6.05446">
        <ele>1381</ele>
        <time>2021-06-27T13:14:19.074Z</time>
      </trkpt>
      <trkpt lat="45.54492" lon="6.05445">
        <ele>1381</ele>
        <time>2021-06-27T13:14:20.074Z</time>
      </trkpt>
      <trkpt lat="45.54492" lon="6.05444">
        <ele>1380</ele>
        <time>2021-06-27T13:14:21.074Z</time>
      </trkpt>
      <trkpt lat="45.54492" lon="6.05443">
        <ele>1380</ele>
        <time>2021-06-27T13:14:22.074Z</time>
      </trkpt>
      <trkpt lat="45.54493" lon="6.05444">
        <ele>1380</ele>
        <time>2021-06-27T13:14:23.074Z</time>
      </trkpt>
      <trkpt lat="45.54493" lon="6.05444">
        <ele>1380</ele>
        <time>2021-06-27T13:14:24.074Z</time>
      </trkpt>
      <trkpt lat="45.54493" lon="6.05444">
        <ele>1380</ele>
        <time>2021-06-27T13:14:25.074Z</time>
      </trkpt>
      <trkpt lat="45.54493" lon="6.05444">
        <ele>1380</ele>
        <time>2021-06-27T13:14:26.074Z</time>
      </trkpt>
      <trkpt lat="45.54494" lon="6.05445">
        <ele>1381</ele>
        <time>2021-06-27T13:14:27.073Z</time>
      </trkpt>
      <trkpt lat="45.54494" lon="6.05444">
        <ele>1381</ele>
        <time>2021-06-27T13:14:28.074Z</time>
      </trkpt>
      <trkpt lat="45.54495" lon="6.05444">
        <ele>1382</ele>
        <time>2021-06-27T13:14:29.073Z</time>
      </trkpt>
      <trkpt lat="45.54496" lon="6.05444">
        <ele>1382</ele>
        <time>2021-06-27T13:14:30.074Z</time>
      </trkpt>
      <trkpt lat="45.54495" lon="6.05444">
        <ele>1383</ele>
        <time>2021-06-27T13:14:31.073Z</time>
      </trkpt>
      <trkpt lat="45.54494" lon="6.05444">
        <ele>1383</ele>
        <time>2021-06-27T13:14:32.074Z</time>
      </trkpt>
      <trkpt lat="45.54494" lon="6.05443">
        <ele>1383</ele>
        <time>2021-06-27T13:14:33.073Z</time>
      </trkpt>
      <trkpt lat="45.54494" lon="6.05443">
        <ele>1384</ele>
        <time>2021-06-27T13:14:34.073Z</time>
      </trkpt>
      <trkpt lat="45.54493" lon="6.05443">
        <ele>1384</ele>
        <time>2021-06-27T13:14:35.074Z</time>
      </trkpt>
      <trkpt lat="45.54493" lon="6.05442">
        <ele>1384</ele>
        <time>2021-06-27T13:14:36.074Z</time>
      </trkpt>
      <trkpt lat="45.54493" lon="6.05442">
        <ele>1383</ele>
        <time>2021-06-27T13:14:37.074Z</time>
      </trkpt>
      <trkpt lat="45.54493" lon="6.05442">
        <ele>1383</ele>
        <time>2021-06-27T13:14:38.074Z</time>
      </trkpt>
      <trkpt lat="45.54494" lon="6.05442">
        <ele>1383</ele>
        <time>2021-06-27T13:14:39.074Z</time>
      </trkpt>
      <trkpt lat="45.54493" lon="6.05441">
        <ele>1383</ele>
        <time>2021-06-27T13:14:40.073Z</time>
      </trkpt>
      <trkpt lat="45.54492" lon="6.05441">
        <ele>1383</ele>
        <time>2021-06-27T13:14:41.074Z</time>
      </trkpt>
      <trkpt lat="45.54492" lon="6.0544">
        <ele>1383</ele>
        <time>2021-06-27T13:14:42.074Z</time>
      </trkpt>
      <trkpt lat="45.54491" lon="6.05439">
        <ele>1383</ele>
        <time>2021-06-27T13:14:43.074Z</time>
      </trkpt>
      <trkpt lat="45.54491" lon="6.05438">
        <ele>1383</ele>
        <time>2021-06-27T13:14:44.074Z</time>
      </trkpt>
      <trkpt lat="45.54491" lon="6.05438">
        <ele>1383</ele>
        <time>2021-06-27T13:14:45.074Z</time>
      </trkpt>
      <trkpt lat="45.54491" lon="6.05437">
        <ele>1383</ele>
        <time>2021-06-27T13:14:46.074Z</time>
      </trkpt>
      <trkpt lat="45.5449" lon="6.05436">
        <ele>1384</ele>
        <time>2021-06-27T13:14:47.074Z</time>
      </trkpt>
      <trkpt lat="45.54489" lon="6.05436">
        <ele>1384</ele>
        <time>2021-06-27T13:14:48.074Z</time>
      </trkpt>
      <trkpt lat="45.54489" lon="6.05437">
        <ele>1385</ele>
        <time>2021-06-27T13:14:49.074Z</time>
      </trkpt>
      <trkpt lat="45.54487" lon="6.05437">
        <ele>1385</ele>
        <time>2021-06-27T13:14:50.074Z</time>
      </trkpt>
      <trkpt lat="45.54485" lon="6.05438">
        <ele>1386</ele>
        <time>2021-06-27T13:14:51.073Z</time>
      </trkpt>
      <trkpt lat="45.54485" lon="6.05439">
        <ele>1386</ele>
        <time>2021-06-27T13:14:52.074Z</time>
      </trkpt>
      <trkpt lat="45.54484" lon="6.05438">
        <ele>1386</ele>
        <time>2021-06-27T13:14:53.074Z</time>
      </trkpt>
      <trkpt lat="45.54485" lon="6.05437">
        <ele>1386</ele>
        <time>2021-06-27T13:14:54.074Z</time>
      </trkpt>
      <trkpt lat="45.54485" lon="6.05437">
        <ele>1386</ele>
        <time>2021-06-27T13:14:55.073Z</time>
      </trkpt>
      <trkpt lat="45.54485" lon="6.05437">
        <ele>1387</ele>
        <time>2021-06-27T13:14:56.074Z</time>
      </trkpt>
      <trkpt lat="45.54485" lon="6.05437">
        <ele>1388</ele>
        <time>2021-06-27T13:14:57.074Z</time>
      </trkpt>
      <trkpt lat="45.54485" lon="6.05437">
        <ele>1388</ele>
        <time>2021-06-27T13:14:58.074Z</time>
      </trkpt>
      <trkpt lat="45.54485" lon="6.05437">
        <ele>1389</ele>
        <time>2021-06-27T13:14:59.074Z</time>
      </trkpt>
      <trkpt lat="45.54484" lon="6.05436">
        <ele>1390</ele>
        <time>2021-06-27T13:15:00.074Z</time>
      </trkpt>
      <trkpt lat="45.54484" lon="6.05436">
        <ele>1390</ele>
        <time>2021-06-27T13:15:01.074Z</time>
      </trkpt>
      <trkpt lat="45.54483" lon="6.05435">
        <ele>1390</ele>
        <time>2021-06-27T13:15:02.074Z</time>
      </trkpt>
      <trkpt lat="45.54483" lon="6.05434">
        <ele>1390</ele>
        <time>2021-06-27T13:15:03.074Z</time>
      </trkpt>
      <trkpt lat="45.54483" lon="6.05434">
        <ele>1390</ele>
        <time>2021-06-27T13:15:04.074Z</time>
      </trkpt>
      <trkpt lat="45.54483" lon="6.05433">
        <ele>1390</ele>
        <time>2021-06-27T13:15:05.074Z</time>
      </trkpt>
      <trkpt lat="45.54483" lon="6.05433">
        <ele>1390</ele>
        <time>2021-06-27T13:15:06.074Z</time>
      </trkpt>
      <trkpt lat="45.54483" lon="6.05432">
        <ele>1390</ele>
        <time>2021-06-27T13:15:07.074Z</time>
      </trkpt>
      <trkpt lat="45.54483" lon="6.05432">
        <ele>1391</ele>
        <time>2021-06-27T13:15:08.074Z</time>
      </trkpt>
      <trkpt lat="45.54483" lon="6.05432">
        <ele>1391</ele>
        <time>2021-06-27T13:15:09.074Z</time>
      </trkpt>
      <trkpt lat="45.54482" lon="6.05432">
        <ele>1391</ele>
        <time>2021-06-27T13:15:10.074Z</time>
      </trkpt>
      <trkpt lat="45.54481" lon="6.05431">
        <ele>1392</ele>
        <time>2021-06-27T13:15:11.074Z</time>
      </trkpt>
      <trkpt lat="45.5448" lon="6.0543">
        <ele>1392</ele>
        <time>2021-06-27T13:15:12.074Z</time>
      </trkpt>
      <trkpt lat="45.5448" lon="6.05431">
        <ele>1392</ele>
        <time>2021-06-27T13:15:13.074Z</time>
      </trkpt>
      <trkpt lat="45.5448" lon="6.05431">
        <ele>1391</ele>
        <time>2021-06-27T13:15:14.074Z</time>
      </trkpt>
      <trkpt lat="45.5448" lon="6.05431">
        <ele>1391</ele>
        <time>2021-06-27T13:15:15.074Z</time>
      </trkpt>
      <trkpt lat="45.5448" lon="6.05431">
        <ele>1391</ele>
        <time>2021-06-27T13:15:16.074Z</time>
      </trkpt>
      <trkpt lat="45.5448" lon="6.05431">
        <ele>1390</ele>
        <time>2021-06-27T13:15:17.074Z</time>
      </trkpt>
      <trkpt lat="45.5448" lon="6.05432">
        <ele>1390</ele>
        <time>2021-06-27T13:15:18.074Z</time>
      </trkpt>
      <trkpt lat="45.5448" lon="6.05432">
        <ele>1390</ele>
        <time>2021-06-27T13:15:19.074Z</time>
      </trkpt>
      <trkpt lat="45.5448" lon="6.05432">
        <ele>1389</ele>
        <time>2021-06-27T13:15:20.074Z</time>
      </trkpt>
      <trkpt lat="45.5448" lon="6.05432">
        <ele>1389</ele>
        <time>2021-06-27T13:15:21.074Z</time>
      </trkpt>
      <trkpt lat="45.54479" lon="6.05432">
        <ele>1389</ele>
        <time>2021-06-27T13:15:22.074Z</time>
      </trkpt>
      <trkpt lat="45.54479" lon="6.05432">
        <ele>1389</ele>
        <time>2021-06-27T13:15:23.073Z</time>
      </trkpt>
      <trkpt lat="45.54479" lon="6.05432">
        <ele>1389</ele>
        <time>2021-06-27T13:15:24.074Z</time>
      </trkpt>
      <trkpt lat="45.54479" lon="6.05432">
        <ele>1389</ele>
        <time>2021-06-27T13:15:25.074Z</time>
      </trkpt>
      <trkpt lat="45.54479" lon="6.05432">
        <ele>1388</ele>
        <time>2021-06-27T13:15:26.074Z</time>
      </trkpt>
      <trkpt lat="45.5448" lon="6.05432">
        <ele>1388</ele>
        <time>2021-06-27T13:15:27.074Z</time>
      </trkpt>
      <trkpt lat="45.5448" lon="6.05432">
        <ele>1387</ele>
        <time>2021-06-27T13:15:28.073Z</time>
      </trkpt>
      <trkpt lat="45.5448" lon="6.05432">
        <ele>1388</ele>
        <time>2021-06-27T13:15:29.073Z</time>
      </trkpt>
      <trkpt lat="45.5448" lon="6.05432">
        <ele>1388</ele>
        <time>2021-06-27T13:15:30.074Z</time>
      </trkpt>
      <trkpt lat="45.5448" lon="6.05432">
        <ele>1388</ele>
        <time>2021-06-27T13:15:31.074Z</time>
      </trkpt>
      <trkpt lat="45.54481" lon="6.05432">
        <ele>1388</ele>
        <time>2021-06-27T13:15:32.073Z</time>
      </trkpt>
      <trkpt lat="45.54481" lon="6.05431">
        <ele>1388</ele>
        <time>2021-06-27T13:15:33.074Z</time>
      </trkpt>
      <trkpt lat="45.54481" lon="6.05431">
        <ele>1388</ele>
        <time>2021-06-27T13:15:34.074Z</time>
      </trkpt>
      <trkpt lat="45.54481" lon="6.05431">
        <ele>1388</ele>
        <time>2021-06-27T13:15:35.074Z</time>
      </trkpt>
      <trkpt lat="45.54481" lon="6.05431">
        <ele>1388</ele>
        <time>2021-06-27T13:15:36.074Z</time>
      </trkpt>
      <trkpt lat="45.54481" lon="6.05431">
        <ele>1388</ele>
        <time>2021-06-27T13:15:37.074Z</time>
      </trkpt>
      <trkpt lat="45.54481" lon="6.05431">
        <ele>1387</ele>
        <time>2021-06-27T13:15:38.073Z</time>
      </trkpt>
      <trkpt lat="45.5448" lon="6.05431">
        <ele>1387</ele>
        <time>2021-06-27T13:15:39.074Z</time>
      </trkpt>
      <trkpt lat="45.54481" lon="6.0543">
        <ele>1386</ele>
        <time>2021-06-27T13:15:40.074Z</time>
      </trkpt>
      <trkpt lat="45.5448" lon="6.0543">
        <ele>1385</ele>
        <time>2021-06-27T13:15:41.073Z</time>
      </trkpt>
      <trkpt lat="45.5448" lon="6.0543">
        <ele>1384</ele>
        <time>2021-06-27T13:15:42.074Z</time>
      </trkpt>
      <trkpt lat="45.54479" lon="6.0543">
        <ele>1383</ele>
        <time>2021-06-27T13:15:43.073Z</time>
      </trkpt>
      <trkpt lat="45.54479" lon="6.05429">
        <ele>1383</ele>
        <time>2021-06-27T13:15:44.073Z</time>
      </trkpt>
      <trkpt lat="45.54479" lon="6.05428">
        <ele>1382</ele>
        <time>2021-06-27T13:15:45.073Z</time>
      </trkpt>
      <trkpt lat="45.54479" lon="6.05428">
        <ele>1381</ele>
        <time>2021-06-27T13:15:46.073Z</time>
      </trkpt>
      <trkpt lat="45.5448" lon="6.05428">
        <ele>1381</ele>
        <time>2021-06-27T13:15:47.073Z</time>
      </trkpt>
      <trkpt lat="45.5448" lon="6.05428">
        <ele>1380</ele>
        <time>2021-06-27T13:15:48.073Z</time>
      </trkpt>
      <trkpt lat="45.5448" lon="6.05428">
        <ele>1380</ele>
        <time>2021-06-27T13:15:49.074Z</time>
      </trkpt>
      <trkpt lat="45.5448" lon="6.05428">
        <ele>1379</ele>
        <time>2021-06-27T13:15:50.073Z</time>
      </trkpt>
      <trkpt lat="45.5448" lon="6.05428">
        <ele>1378</ele>
        <time>2021-06-27T13:15:51.074Z</time>
      </trkpt>
      <trkpt lat="45.54481" lon="6.05427">
        <ele>1378</ele>
        <time>2021-06-27T13:15:52.074Z</time>
      </trkpt>
      <trkpt lat="45.54481" lon="6.05426">
        <ele>1377</ele>
        <time>2021-06-27T13:15:53.073Z</time>
      </trkpt>
      <trkpt lat="45.54482" lon="6.05425">
        <ele>1376</ele>
        <time>2021-06-27T13:15:54.073Z</time>
      </trkpt>
      <trkpt lat="45.54482" lon="6.05424">
        <ele>1376</ele>
        <time>2021-06-27T13:15:55.073Z</time>
      </trkpt>
      <trkpt lat="45.54483" lon="6.05423">
        <ele>1375</ele>
        <time>2021-06-27T13:15:56.073Z</time>
      </trkpt>
      <trkpt lat="45.54483" lon="6.05422">
        <ele>1375</ele>
        <time>2021-06-27T13:15:57.074Z</time>
      </trkpt>
      <trkpt lat="45.54482" lon="6.05422">
        <ele>1374</ele>
        <time>2021-06-27T13:15:58.074Z</time>
      </trkpt>
      <trkpt lat="45.54483" lon="6.05422">
        <ele>1374</ele>
        <time>2021-06-27T13:15:59.074Z</time>
      </trkpt>
      <trkpt lat="45.54483" lon="6.05421">
        <ele>1373</ele>
        <time>2021-06-27T13:16:00.074Z</time>
      </trkpt>
      <trkpt lat="45.54483" lon="6.05421">
        <ele>1373</ele>
        <time>2021-06-27T13:16:01.074Z</time>
      </trkpt>
      <trkpt lat="45.54483" lon="6.05421">
        <ele>1372</ele>
        <time>2021-06-27T13:16:02.074Z</time>
      </trkpt>
      <trkpt lat="45.54483" lon="6.05421">
        <ele>1372</ele>
        <time>2021-06-27T13:16:03.073Z</time>
      </trkpt>
      <trkpt lat="45.54483" lon="6.05421">
        <ele>1371</ele>
        <time>2021-06-27T13:16:04.074Z</time>
      </trkpt>
      <trkpt lat="45.54484" lon="6.05421">
        <ele>1371</ele>
        <time>2021-06-27T13:16:05.074Z</time>
      </trkpt>
      <trkpt lat="45.54484" lon="6.05421">
        <ele>1371</ele>
        <time>2021-06-27T13:16:06.074Z</time>
      </trkpt>
      <trkpt lat="45.54484" lon="6.05421">
        <ele>1371</ele>
        <time>2021-06-27T13:16:07.074Z</time>
      </trkpt>
      <trkpt lat="45.54484" lon="6.05421">
        <ele>1370</ele>
        <time>2021-06-27T13:16:08.074Z</time>
      </trkpt>
      <trkpt lat="45.54484" lon="6.05421">
        <ele>1370</ele>
        <time>2021-06-27T13:16:09.074Z</time>
      </trkpt>
      <trkpt lat="45.54484" lon="6.05421">
        <ele>1370</ele>
        <time>2021-06-27T13:16:10.074Z</time>
      </trkpt>
      <trkpt lat="45.54484" lon="6.0542">
        <ele>1369</ele>
        <time>2021-06-27T13:16:11.074Z</time>
      </trkpt>
      <trkpt lat="45.54484" lon="6.0542">
        <ele>1369</ele>
        <time>2021-06-27T13:16:12.074Z</time>
      </trkpt>
      <trkpt lat="45.54484" lon="6.0542">
        <ele>1368</ele>
        <time>2021-06-27T13:16:13.074Z</time>
      </trkpt>
      <trkpt lat="45.54484" lon="6.0542">
        <ele>1368</ele>
        <time>2021-06-27T13:16:14.073Z</time>
      </trkpt>
      <trkpt lat="45.54484" lon="6.0542">
        <ele>1368</ele>
        <time>2021-06-27T13:16:15.074Z</time>
      </trkpt>
      <trkpt lat="45.54484" lon="6.05419">
        <ele>1367</ele>
        <time>2021-06-27T13:16:16.074Z</time>
      </trkpt>
      <trkpt lat="45.54484" lon="6.05419">
        <ele>1367</ele>
        <time>2021-06-27T13:16:17.074Z</time>
      </trkpt>
      <trkpt lat="45.54484" lon="6.05419">
        <ele>1366</ele>
        <time>2021-06-27T13:16:18.073Z</time>
      </trkpt>
      <trkpt lat="45.54484" lon="6.05418">
        <ele>1366</ele>
        <time>2021-06-27T13:16:19.074Z</time>
      </trkpt>
      <trkpt lat="45.54485" lon="6.05418">
        <ele>1365</ele>
        <time>2021-06-27T13:16:20.073Z</time>
      </trkpt>
      <trkpt lat="45.54485" lon="6.05418">
        <ele>1364</ele>
        <time>2021-06-27T13:16:21.074Z</time>
      </trkpt>
      <trkpt lat="45.54485" lon="6.05419">
        <ele>1363</ele>
        <time>2021-06-27T13:16:22.073Z</time>
      </trkpt>
      <trkpt lat="45.54485" lon="6.05418">
        <ele>1363</ele>
        <time>2021-06-27T13:16:23.074Z</time>
      </trkpt>
      <trkpt lat="45.54485" lon="6.05418">
        <ele>1364</ele>
        <time>2021-06-27T13:16:24.074Z</time>
      </trkpt>
      <trkpt lat="45.54485" lon="6.05417">
        <ele>1364</ele>
        <time>2021-06-27T13:16:25.074Z</time>
      </trkpt>
      <trkpt lat="45.54485" lon="6.05417">
        <ele>1364</ele>
        <time>2021-06-27T13:16:26.074Z</time>
      </trkpt>
      <trkpt lat="45.54485" lon="6.05417">
        <ele>1364</ele>
        <time>2021-06-27T13:16:27.074Z</time>
      </trkpt>
      <trkpt lat="45.54485" lon="6.05416">
        <ele>1365</ele>
        <time>2021-06-27T13:16:28.074Z</time>
      </trkpt>
      <trkpt lat="45.54485" lon="6.05416">
        <ele>1365</ele>
        <time>2021-06-27T13:16:29.073Z</time>
      </trkpt>
      <trkpt lat="45.54484" lon="6.05416">
        <ele>1365</ele>
        <time>2021-06-27T13:16:30.074Z</time>
      </trkpt>
      <trkpt lat="45.54483" lon="6.05416">
        <ele>1366</ele>
        <time>2021-06-27T13:16:31.073Z</time>
      </trkpt>
      <trkpt lat="45.54483" lon="6.05417">
        <ele>1366</ele>
        <time>2021-06-27T13:16:32.074Z</time>
      </trkpt>
      <trkpt lat="45.54483" lon="6.05416">
        <ele>1367</ele>
        <time>2021-06-27T13:16:33.074Z</time>
      </trkpt>
      <trkpt lat="45.54483" lon="6.05416">
        <ele>1367</ele>
        <time>2021-06-27T13:16:34.074Z</time>
      </trkpt>
      <trkpt lat="45.54483" lon="6.05415">
        <ele>1368</ele>
        <time>2021-06-27T13:16:35.074Z</time>
      </trkpt>
      <trkpt lat="45.54483" lon="6.05415">
        <ele>1368</ele>
        <time>2021-06-27T13:16:36.073Z</time>
      </trkpt>
      <trkpt lat="45.54484" lon="6.05416">
        <ele>1368</ele>
        <time>2021-06-27T13:16:37.074Z</time>
      </trkpt>
      <trkpt lat="45.54484" lon="6.05416">
        <ele>1369</ele>
        <time>2021-06-27T13:16:38.074Z</time>
      </trkpt>
      <trkpt lat="45.54485" lon="6.05418">
        <ele>1369</ele>
        <time>2021-06-27T13:16:39.074Z</time>
      </trkpt>
      <trkpt lat="45.54485" lon="6.05419">
        <ele>1369</ele>
        <time>2021-06-27T13:16:40.074Z</time>
      </trkpt>
      <trkpt lat="45.54484" lon="6.05419">
        <ele>1369</ele>
        <time>2021-06-27T13:16:41.073Z</time>
      </trkpt>
      <trkpt lat="45.54484" lon="6.05418">
        <ele>1369</ele>
        <time>2021-06-27T13:16:42.073Z</time>
      </trkpt>
      <trkpt lat="45.54484" lon="6.05418">
        <ele>1369</ele>
        <time>2021-06-27T13:16:43.074Z</time>
      </trkpt>
      <trkpt lat="45.54483" lon="6.05417">
        <ele>1369</ele>
        <time>2021-06-27T13:16:44.074Z</time>
      </trkpt>
      <trkpt lat="45.54483" lon="6.05416">
        <ele>1370</ele>
        <time>2021-06-27T13:16:45.073Z</time>
      </trkpt>
      <trkpt lat="45.54483" lon="6.05416">
        <ele>1370</ele>
        <time>2021-06-27T13:16:46.074Z</time>
      </trkpt>
      <trkpt lat="45.54483" lon="6.05416">
        <ele>1370</ele>
        <time>2021-06-27T13:16:47.073Z</time>
      </trkpt>
      <trkpt lat="45.54483" lon="6.05415">
        <ele>1369</ele>
        <time>2021-06-27T13:16:48.074Z</time>
      </trkpt>
      <trkpt lat="45.54483" lon="6.05414">
        <ele>1369</ele>
        <time>2021-06-27T13:16:49.074Z</time>
      </trkpt>
      <trkpt lat="45.54482" lon="6.05414">
        <ele>1369</ele>
        <time>2021-06-27T13:16:50.074Z</time>
      </trkpt>
      <trkpt lat="45.54483" lon="6.05414">
        <ele>1368</ele>
        <time>2021-06-27T13:16:51.074Z</time>
      </trkpt>
      <trkpt lat="45.54483" lon="6.05413">
        <ele>1368</ele>
        <time>2021-06-27T13:16:52.074Z</time>
      </trkpt>
      <trkpt lat="45.54483" lon="6.05412">
        <ele>1367</ele>
        <time>2021-06-27T13:16:53.074Z</time>
      </trkpt>
      <trkpt lat="45.54483" lon="6.05411">
        <ele>1366</ele>
        <time>2021-06-27T13:16:54.074Z</time>
      </trkpt>
      <trkpt lat="45.54483" lon="6.05411">
        <ele>1366</ele>
        <time>2021-06-27T13:16:55.074Z</time>
      </trkpt>
      <trkpt lat="45.54483" lon="6.05411">
        <ele>1365</ele>
        <time>2021-06-27T13:16:56.074Z</time>
      </trkpt>
      <trkpt lat="45.54484" lon="6.05411">
        <ele>1365</ele>
        <time>2021-06-27T13:16:57.074Z</time>
      </trkpt>
      <trkpt lat="45.54484" lon="6.05411">
        <ele>1364</ele>
        <time>2021-06-27T13:16:58.074Z</time>
      </trkpt>
      <trkpt lat="45.54484" lon="6.0541">
        <ele>1364</ele>
        <time>2021-06-27T13:16:59.074Z</time>
      </trkpt>
      <trkpt lat="45.54485" lon="6.05409">
        <ele>1363</ele>
        <time>2021-06-27T13:17:00.074Z</time>
      </trkpt>
      <trkpt lat="45.54484" lon="6.05408">
        <ele>1363</ele>
        <time>2021-06-27T13:17:01.074Z</time>
      </trkpt>
      <trkpt lat="45.54483" lon="6.05407">
        <ele>1363</ele>
        <time>2021-06-27T13:17:02.074Z</time>
      </trkpt>
      <trkpt lat="45.54483" lon="6.05406">
        <ele>1362</ele>
        <time>2021-06-27T13:17:03.073Z</time>
      </trkpt>
      <trkpt lat="45.54483" lon="6.05405">
        <ele>1362</ele>
        <time>2021-06-27T13:17:04.074Z</time>
      </trkpt>
      <trkpt lat="45.54483" lon="6.05404">
        <ele>1361</ele>
        <time>2021-06-27T13:17:05.073Z</time>
      </trkpt>
      <trkpt lat="45.54483" lon="6.05403">
        <ele>1361</ele>
        <time>2021-06-27T13:17:06.074Z</time>
      </trkpt>
      <trkpt lat="45.54483" lon="6.05402">
        <ele>1361</ele>
        <time>2021-06-27T13:17:07.074Z</time>
      </trkpt>
      <trkpt lat="45.54483" lon="6.05401">
        <ele>1360</ele>
        <time>2021-06-27T13:17:08.074Z</time>
      </trkpt>
      <trkpt lat="45.54483" lon="6.054">
        <ele>1360</ele>
        <time>2021-06-27T13:17:09.074Z</time>
      </trkpt>
      <trkpt lat="45.54483" lon="6.05399">
        <ele>1359</ele>
        <time>2021-06-27T13:17:10.073Z</time>
      </trkpt>
      <trkpt lat="45.54484" lon="6.05397">
        <ele>1359</ele>
        <time>2021-06-27T13:17:11.074Z</time>
      </trkpt>
      <trkpt lat="45.54484" lon="6.05395">
        <ele>1358</ele>
        <time>2021-06-27T13:17:12.074Z</time>
      </trkpt>
      <trkpt lat="45.54485" lon="6.05394">
        <ele>1357</ele>
        <time>2021-06-27T13:17:13.074Z</time>
      </trkpt>
      <trkpt lat="45.54485" lon="6.05393">
        <ele>1356</ele>
        <time>2021-06-27T13:17:14.074Z</time>
      </trkpt>
      <trkpt lat="45.54486" lon="6.05392">
        <ele>1356</ele>
        <time>2021-06-27T13:17:15.074Z</time>
      </trkpt>
      <trkpt lat="45.54487" lon="6.05391">
        <ele>1355</ele>
        <time>2021-06-27T13:17:16.074Z</time>
      </trkpt>
      <trkpt lat="45.54488" lon="6.0539">
        <ele>1354</ele>
        <time>2021-06-27T13:17:17.073Z</time>
      </trkpt>
      <trkpt lat="45.54489" lon="6.05389">
        <ele>1353</ele>
        <time>2021-06-27T13:17:18.074Z</time>
      </trkpt>
      <trkpt lat="45.5449" lon="6.05388">
        <ele>1352</ele>
        <time>2021-06-27T13:17:19.074Z</time>
      </trkpt>
      <trkpt lat="45.54491" lon="6.05388">
        <ele>1351</ele>
        <time>2021-06-27T13:17:20.074Z</time>
      </trkpt>
      <trkpt lat="45.54491" lon="6.05388">
        <ele>1351</ele>
        <time>2021-06-27T13:17:21.074Z</time>
      </trkpt>
      <trkpt lat="45.54492" lon="6.05388">
        <ele>1350</ele>
        <time>2021-06-27T13:17:22.074Z</time>
      </trkpt>
      <trkpt lat="45.54492" lon="6.05388">
        <ele>1350</ele>
        <time>2021-06-27T13:17:23.073Z</time>
      </trkpt>
      <trkpt lat="45.54493" lon="6.05388">
        <ele>1349</ele>
        <time>2021-06-27T13:17:24.074Z</time>
      </trkpt>
      <trkpt lat="45.54493" lon="6.05386">
        <ele>1349</ele>
        <time>2021-06-27T13:17:25.074Z</time>
      </trkpt>
      <trkpt lat="45.54493" lon="6.05384">
        <ele>1349</ele>
        <time>2021-06-27T13:17:26.074Z</time>
      </trkpt>
      <trkpt lat="45.54494" lon="6.05382">
        <ele>1348</ele>
        <time>2021-06-27T13:17:27.073Z</time>
      </trkpt>
      <trkpt lat="45.54494" lon="6.05381">
        <ele>1347</ele>
        <time>2021-06-27T13:17:28.073Z</time>
      </trkpt>
      <trkpt lat="45.54495" lon="6.0538">
        <ele>1346</ele>
        <time>2021-06-27T13:17:29.074Z</time>
      </trkpt>
      <trkpt lat="45.54496" lon="6.05379">
        <ele>1345</ele>
        <time>2021-06-27T13:17:30.074Z</time>
      </trkpt>
      <trkpt lat="45.54497" lon="6.05378">
        <ele>1344</ele>
        <time>2021-06-27T13:17:31.074Z</time>
      </trkpt>
      <trkpt lat="45.54497" lon="6.05376">
        <ele>1343</ele>
        <time>2021-06-27T13:17:32.073Z</time>
      </trkpt>
      <trkpt lat="45.54498" lon="6.05376">
        <ele>1342</ele>
        <time>2021-06-27T13:17:33.073Z</time>
      </trkpt>
      <trkpt lat="45.54499" lon="6.05375">
        <ele>1341</ele>
        <time>2021-06-27T13:17:34.074Z</time>
      </trkpt>
      <trkpt lat="45.54499" lon="6.05375">
        <ele>1340</ele>
        <time>2021-06-27T13:17:35.074Z</time>
      </trkpt>
      <trkpt lat="45.54499" lon="6.05374">
        <ele>1338</ele>
        <time>2021-06-27T13:17:36.074Z</time>
      </trkpt>
      <trkpt lat="45.545" lon="6.05374">
        <ele>1336</ele>
        <time>2021-06-27T13:17:37.074Z</time>
      </trkpt>
      <trkpt lat="45.545" lon="6.05373">
        <ele>1335</ele>
        <time>2021-06-27T13:17:38.073Z</time>
      </trkpt>
      <trkpt lat="45.54501" lon="6.05372">
        <ele>1334</ele>
        <time>2021-06-27T13:17:39.073Z</time>
      </trkpt>
      <trkpt lat="45.54501" lon="6.05371">
        <ele>1333</ele>
        <time>2021-06-27T13:17:40.074Z</time>
      </trkpt>
      <trkpt lat="45.54501" lon="6.0537">
        <ele>1332</ele>
        <time>2021-06-27T13:17:41.074Z</time>
      </trkpt>
      <trkpt lat="45.54502" lon="6.05369">
        <ele>1332</ele>
        <time>2021-06-27T13:17:42.074Z</time>
      </trkpt>
      <trkpt lat="45.54503" lon="6.05368">
        <ele>1331</ele>
        <time>2021-06-27T13:17:43.073Z</time>
      </trkpt>
      <trkpt lat="45.54504" lon="6.05368">
        <ele>1331</ele>
        <time>2021-06-27T13:17:44.073Z</time>
      </trkpt>
      <trkpt lat="45.54504" lon="6.05368">
        <ele>1331</ele>
        <time>2021-06-27T13:17:45.074Z</time>
      </trkpt>
      <trkpt lat="45.54503" lon="6.05367">
        <ele>1331</ele>
        <time>2021-06-27T13:17:46.074Z</time>
      </trkpt>
      <trkpt lat="45.54503" lon="6.05367">
        <ele>1331</ele>
        <time>2021-06-27T13:17:47.074Z</time>
      </trkpt>
      <trkpt lat="45.54504" lon="6.05367">
        <ele>1331</ele>
        <time>2021-06-27T13:17:48.073Z</time>
      </trkpt>
      <trkpt lat="45.54504" lon="6.05366">
        <ele>1331</ele>
        <time>2021-06-27T13:17:49.073Z</time>
      </trkpt>
      <trkpt lat="45.54503" lon="6.05365">
        <ele>1331</ele>
        <time>2021-06-27T13:17:50.074Z</time>
      </trkpt>
      <trkpt lat="45.54503" lon="6.05363">
        <ele>1332</ele>
        <time>2021-06-27T13:17:51.074Z</time>
      </trkpt>
      <trkpt lat="45.54503" lon="6.05361">
        <ele>1332</ele>
        <time>2021-06-27T13:17:52.074Z</time>
      </trkpt>
      <trkpt lat="45.54503" lon="6.05359">
        <ele>1332</ele>
        <time>2021-06-27T13:17:53.074Z</time>
      </trkpt>
      <trkpt lat="45.54504" lon="6.05357">
        <ele>1333</ele>
        <time>2021-06-27T13:17:54.074Z</time>
      </trkpt>
      <trkpt lat="45.54503" lon="6.05356">
        <ele>1333</ele>
        <time>2021-06-27T13:17:55.074Z</time>
      </trkpt>
      <trkpt lat="45.54504" lon="6.05356">
        <ele>1333</ele>
        <time>2021-06-27T13:17:56.074Z</time>
      </trkpt>
      <trkpt lat="45.54505" lon="6.05355">
        <ele>1334</ele>
        <time>2021-06-27T13:17:57.074Z</time>
      </trkpt>
      <trkpt lat="45.54505" lon="6.05352">
        <ele>1334</ele>
        <time>2021-06-27T13:17:58.073Z</time>
      </trkpt>
      <trkpt lat="45.54505" lon="6.05351">
        <ele>1334</ele>
        <time>2021-06-27T13:17:59.073Z</time>
      </trkpt>
      <trkpt lat="45.54505" lon="6.0535">
        <ele>1334</ele>
        <time>2021-06-27T13:18:00.074Z</time>
      </trkpt>
      <trkpt lat="45.54505" lon="6.0535">
        <ele>1334</ele>
        <time>2021-06-27T13:18:01.074Z</time>
      </trkpt>
      <trkpt lat="45.54505" lon="6.05349">
        <ele>1333</ele>
        <time>2021-06-27T13:18:02.073Z</time>
      </trkpt>
      <trkpt lat="45.54506" lon="6.05348">
        <ele>1333</ele>
        <time>2021-06-27T13:18:03.073Z</time>
      </trkpt>
      <trkpt lat="45.54506" lon="6.05348">
        <ele>1332</ele>
        <time>2021-06-27T13:18:04.074Z</time>
      </trkpt>
      <trkpt lat="45.54507" lon="6.05348">
        <ele>1332</ele>
        <time>2021-06-27T13:18:05.073Z</time>
      </trkpt>
      <trkpt lat="45.54507" lon="6.05347">
        <ele>1331</ele>
        <time>2021-06-27T13:18:06.074Z</time>
      </trkpt>
      <trkpt lat="45.54507" lon="6.05347">
        <ele>1331</ele>
        <time>2021-06-27T13:18:07.073Z</time>
      </trkpt>
      <trkpt lat="45.54507" lon="6.05346">
        <ele>1331</ele>
        <time>2021-06-27T13:18:08.074Z</time>
      </trkpt>
      <trkpt lat="45.54507" lon="6.05346">
        <ele>1331</ele>
        <time>2021-06-27T13:18:09.074Z</time>
      </trkpt>
      <trkpt lat="45.54508" lon="6.05345">
        <ele>1331</ele>
        <time>2021-06-27T13:18:10.074Z</time>
      </trkpt>
      <trkpt lat="45.54507" lon="6.05345">
        <ele>1332</ele>
        <time>2021-06-27T13:18:11.074Z</time>
      </trkpt>
      <trkpt lat="45.54507" lon="6.05344">
        <ele>1332</ele>
        <time>2021-06-27T13:18:12.074Z</time>
      </trkpt>
      <trkpt lat="45.54507" lon="6.05344">
        <ele>1333</ele>
        <time>2021-06-27T13:18:13.074Z</time>
      </trkpt>
      <trkpt lat="45.54507" lon="6.05343">
        <ele>1333</ele>
        <time>2021-06-27T13:18:14.074Z</time>
      </trkpt>
      <trkpt lat="45.54506" lon="6.05343">
        <ele>1333</ele>
        <time>2021-06-27T13:18:15.074Z</time>
      </trkpt>
      <trkpt lat="45.54506" lon="6.05342">
        <ele>1333</ele>
        <time>2021-06-27T13:18:16.074Z</time>
      </trkpt>
      <trkpt lat="45.54507" lon="6.05341">
        <ele>1333</ele>
        <time>2021-06-27T13:18:17.074Z</time>
      </trkpt>
      <trkpt lat="45.54507" lon="6.05339">
        <ele>1333</ele>
        <time>2021-06-27T13:18:18.073Z</time>
      </trkpt>
      <trkpt lat="45.54508" lon="6.05337">
        <ele>1333</ele>
        <time>2021-06-27T13:18:19.074Z</time>
      </trkpt>
      <trkpt lat="45.54508" lon="6.05336">
        <ele>1333</ele>
        <time>2021-06-27T13:18:20.074Z</time>
      </trkpt>
      <trkpt lat="45.54508" lon="6.05335">
        <ele>1333</ele>
        <time>2021-06-27T13:18:21.074Z</time>
      </trkpt>
      <trkpt lat="45.54509" lon="6.05334">
        <ele>1333</ele>
        <time>2021-06-27T13:18:22.074Z</time>
      </trkpt>
      <trkpt lat="45.54509" lon="6.05333">
        <ele>1333</ele>
        <time>2021-06-27T13:18:23.073Z</time>
      </trkpt>
      <trkpt lat="45.5451" lon="6.05332">
        <ele>1332</ele>
        <time>2021-06-27T13:18:24.074Z</time>
      </trkpt>
      <trkpt lat="45.54511" lon="6.0533">
        <ele>1332</ele>
        <time>2021-06-27T13:18:25.074Z</time>
      </trkpt>
      <trkpt lat="45.54512" lon="6.05329">
        <ele>1332</ele>
        <time>2021-06-27T13:18:26.073Z</time>
      </trkpt>
      <trkpt lat="45.54512" lon="6.05328">
        <ele>1331</ele>
        <time>2021-06-27T13:18:27.074Z</time>
      </trkpt>
      <trkpt lat="45.54513" lon="6.05327">
        <ele>1330</ele>
        <time>2021-06-27T13:18:28.073Z</time>
      </trkpt>
      <trkpt lat="45.54513" lon="6.05326">
        <ele>1329</ele>
        <time>2021-06-27T13:18:29.074Z</time>
      </trkpt>
      <trkpt lat="45.54514" lon="6.05325">
        <ele>1328</ele>
        <time>2021-06-27T13:18:30.073Z</time>
      </trkpt>
      <trkpt lat="45.54514" lon="6.05323">
        <ele>1328</ele>
        <time>2021-06-27T13:18:31.073Z</time>
      </trkpt>
      <trkpt lat="45.54515" lon="6.05322">
        <ele>1327</ele>
        <time>2021-06-27T13:18:32.074Z</time>
      </trkpt>
      <trkpt lat="45.54515" lon="6.05321">
        <ele>1327</ele>
        <time>2021-06-27T13:18:33.074Z</time>
      </trkpt>
      <trkpt lat="45.54516" lon="6.0532">
        <ele>1327</ele>
        <time>2021-06-27T13:18:34.073Z</time>
      </trkpt>
      <trkpt lat="45.54516" lon="6.05318">
        <ele>1327</ele>
        <time>2021-06-27T13:18:35.074Z</time>
      </trkpt>
      <trkpt lat="45.54516" lon="6.05317">
        <ele>1327</ele>
        <time>2021-06-27T13:18:36.074Z</time>
      </trkpt>
      <trkpt lat="45.54517" lon="6.05316">
        <ele>1327</ele>
        <time>2021-06-27T13:18:37.074Z</time>
      </trkpt>
      <trkpt lat="45.54517" lon="6.05315">
        <ele>1327</ele>
        <time>2021-06-27T13:18:38.074Z</time>
      </trkpt>
      <trkpt lat="45.54518" lon="6.05314">
        <ele>1326</ele>
        <time>2021-06-27T13:18:39.074Z</time>
      </trkpt>
      <trkpt lat="45.54518" lon="6.05313">
        <ele>1326</ele>
        <time>2021-06-27T13:18:40.074Z</time>
      </trkpt>
      <trkpt lat="45.54519" lon="6.05311">
        <ele>1326</ele>
        <time>2021-06-27T13:18:41.074Z</time>
      </trkpt>
      <trkpt lat="45.54519" lon="6.0531">
        <ele>1325</ele>
        <time>2021-06-27T13:18:42.074Z</time>
      </trkpt>
      <trkpt lat="45.54519" lon="6.05309">
        <ele>1325</ele>
        <time>2021-06-27T13:18:43.074Z</time>
      </trkpt>
      <trkpt lat="45.5452" lon="6.05307">
        <ele>1325</ele>
        <time>2021-06-27T13:18:44.073Z</time>
      </trkpt>
      <trkpt lat="45.5452" lon="6.05306">
        <ele>1324</ele>
        <time>2021-06-27T13:18:45.074Z</time>
      </trkpt>
      <trkpt lat="45.54521" lon="6.05304">
        <ele>1324</ele>
        <time>2021-06-27T13:18:46.074Z</time>
      </trkpt>
      <trkpt lat="45.54521" lon="6.05302">
        <ele>1323</ele>
        <time>2021-06-27T13:18:47.074Z</time>
      </trkpt>
      <trkpt lat="45.54522" lon="6.05301">
        <ele>1323</ele>
        <time>2021-06-27T13:18:48.074Z</time>
      </trkpt>
      <trkpt lat="45.54522" lon="6.053">
        <ele>1322</ele>
        <time>2021-06-27T13:18:49.074Z</time>
      </trkpt>
      <trkpt lat="45.54523" lon="6.05297">
        <ele>1322</ele>
        <time>2021-06-27T13:18:50.074Z</time>
      </trkpt>
      <trkpt lat="45.54524" lon="6.05296">
        <ele>1321</ele>
        <time>2021-06-27T13:18:51.073Z</time>
      </trkpt>
      <trkpt lat="45.54524" lon="6.05295">
        <ele>1321</ele>
        <time>2021-06-27T13:18:52.074Z</time>
      </trkpt>
      <trkpt lat="45.54524" lon="6.05294">
        <ele>1320</ele>
        <time>2021-06-27T13:18:53.074Z</time>
      </trkpt>
      <trkpt lat="45.54525" lon="6.05292">
        <ele>1319</ele>
        <time>2021-06-27T13:18:54.073Z</time>
      </trkpt>
      <trkpt lat="45.54525" lon="6.0529">
        <ele>1319</ele>
        <time>2021-06-27T13:18:55.074Z</time>
      </trkpt>
      <trkpt lat="45.54526" lon="6.05289">
        <ele>1318</ele>
        <time>2021-06-27T13:18:56.074Z</time>
      </trkpt>
      <trkpt lat="45.54526" lon="6.05287">
        <ele>1318</ele>
        <time>2021-06-27T13:18:57.074Z</time>
      </trkpt>
      <trkpt lat="45.54527" lon="6.05284">
        <ele>1317</ele>
        <time>2021-06-27T13:18:58.074Z</time>
      </trkpt>
      <trkpt lat="45.54528" lon="6.05282">
        <ele>1316</ele>
        <time>2021-06-27T13:18:59.074Z</time>
      </trkpt>
      <trkpt lat="45.54529" lon="6.0528">
        <ele>1315</ele>
        <time>2021-06-27T13:19:00.074Z</time>
      </trkpt>
      <trkpt lat="45.5453" lon="6.05279">
        <ele>1314</ele>
        <time>2021-06-27T13:19:01.074Z</time>
      </trkpt>
      <trkpt lat="45.5453" lon="6.05277">
        <ele>1314</ele>
        <time>2021-06-27T13:19:02.074Z</time>
      </trkpt>
      <trkpt lat="45.54531" lon="6.05275">
        <ele>1313</ele>
        <time>2021-06-27T13:19:03.074Z</time>
      </trkpt>
      <trkpt lat="45.54531" lon="6.05273">
        <ele>1312</ele>
        <time>2021-06-27T13:19:04.074Z</time>
      </trkpt>
      <trkpt lat="45.54531" lon="6.05272">
        <ele>1311</ele>
        <time>2021-06-27T13:19:05.074Z</time>
      </trkpt>
      <trkpt lat="45.54531" lon="6.0527">
        <ele>1311</ele>
        <time>2021-06-27T13:19:06.074Z</time>
      </trkpt>
      <trkpt lat="45.54532" lon="6.05268">
        <ele>1311</ele>
        <time>2021-06-27T13:19:07.074Z</time>
      </trkpt>
      <trkpt lat="45.54532" lon="6.05268">
        <ele>1310</ele>
        <time>2021-06-27T13:19:08.074Z</time>
      </trkpt>
      <trkpt lat="45.54533" lon="6.05266">
        <ele>1310</ele>
        <time>2021-06-27T13:19:09.073Z</time>
      </trkpt>
      <trkpt lat="45.54533" lon="6.05265">
        <ele>1310</ele>
        <time>2021-06-27T13:19:10.074Z</time>
      </trkpt>
      <trkpt lat="45.54534" lon="6.05264">
        <ele>1309</ele>
        <time>2021-06-27T13:19:11.074Z</time>
      </trkpt>
      <trkpt lat="45.54534" lon="6.05263">
        <ele>1309</ele>
        <time>2021-06-27T13:19:12.074Z</time>
      </trkpt>
      <trkpt lat="45.54534" lon="6.05263">
        <ele>1309</ele>
        <time>2021-06-27T13:19:13.074Z</time>
      </trkpt>
      <trkpt lat="45.54534" lon="6.05262">
        <ele>1309</ele>
        <time>2021-06-27T13:19:14.074Z</time>
      </trkpt>
      <trkpt lat="45.54534" lon="6.05261">
        <ele>1309</ele>
        <time>2021-06-27T13:19:15.074Z</time>
      </trkpt>
      <trkpt lat="45.54535" lon="6.0526">
        <ele>1309</ele>
        <time>2021-06-27T13:19:16.074Z</time>
      </trkpt>
      <trkpt lat="45.54534" lon="6.05259">
        <ele>1309</ele>
        <time>2021-06-27T13:19:17.074Z</time>
      </trkpt>
      <trkpt lat="45.54534" lon="6.05258">
        <ele>1309</ele>
        <time>2021-06-27T13:19:18.073Z</time>
      </trkpt>
      <trkpt lat="45.54534" lon="6.05258">
        <ele>1309</ele>
        <time>2021-06-27T13:19:19.074Z</time>
      </trkpt>
      <trkpt lat="45.54533" lon="6.05257">
        <ele>1310</ele>
        <time>2021-06-27T13:19:20.073Z</time>
      </trkpt>
      <trkpt lat="45.54533" lon="6.05257">
        <ele>1310</ele>
        <time>2021-06-27T13:19:21.074Z</time>
      </trkpt>
      <trkpt lat="45.54533" lon="6.05256">
        <ele>1310</ele>
        <time>2021-06-27T13:19:22.074Z</time>
      </trkpt>
      <trkpt lat="45.54533" lon="6.05255">
        <ele>1310</ele>
        <time>2021-06-27T13:19:23.074Z</time>
      </trkpt>
      <trkpt lat="45.54532" lon="6.05253">
        <ele>1310</ele>
        <time>2021-06-27T13:19:24.074Z</time>
      </trkpt>
      <trkpt lat="45.54533" lon="6.05252">
        <ele>1310</ele>
        <time>2021-06-27T13:19:25.074Z</time>
      </trkpt>
      <trkpt lat="45.54532" lon="6.05249">
        <ele>1310</ele>
        <time>2021-06-27T13:19:26.074Z</time>
      </trkpt>
      <trkpt lat="45.54532" lon="6.05247">
        <ele>1310</ele>
        <time>2021-06-27T13:19:27.074Z</time>
      </trkpt>
      <trkpt lat="45.54533" lon="6.05245">
        <ele>1309</ele>
        <time>2021-06-27T13:19:28.074Z</time>
      </trkpt>
      <trkpt lat="45.54533" lon="6.05243">
        <ele>1309</ele>
        <time>2021-06-27T13:19:29.074Z</time>
      </trkpt>
      <trkpt lat="45.54534" lon="6.05242">
        <ele>1309</ele>
        <time>2021-06-27T13:19:30.074Z</time>
      </trkpt>
      <trkpt lat="45.54535" lon="6.0524">
        <ele>1309</ele>
        <time>2021-06-27T13:19:31.074Z</time>
      </trkpt>
      <trkpt lat="45.54536" lon="6.05238">
        <ele>1309</ele>
        <time>2021-06-27T13:19:32.073Z</time>
      </trkpt>
      <trkpt lat="45.54537" lon="6.05235">
        <ele>1310</ele>
        <time>2021-06-27T13:19:33.074Z</time>
      </trkpt>
      <trkpt lat="45.54538" lon="6.05234">
        <ele>1311</ele>
        <time>2021-06-27T13:19:34.074Z</time>
      </trkpt>
      <trkpt lat="45.54539" lon="6.05233">
        <ele>1311</ele>
        <time>2021-06-27T13:19:35.074Z</time>
      </trkpt>
      <trkpt lat="45.5454" lon="6.05233">
        <ele>1312</ele>
        <time>2021-06-27T13:19:36.074Z</time>
      </trkpt>
      <trkpt lat="45.54541" lon="6.05232">
        <ele>1312</ele>
        <time>2021-06-27T13:19:37.074Z</time>
      </trkpt>
      <trkpt lat="45.54542" lon="6.05231">
        <ele>1313</ele>
        <time>2021-06-27T13:19:38.074Z</time>
      </trkpt>
      <trkpt lat="45.54542" lon="6.0523">
        <ele>1313</ele>
        <time>2021-06-27T13:19:39.074Z</time>
      </trkpt>
      <trkpt lat="45.54543" lon="6.05229">
        <ele>1313</ele>
        <time>2021-06-27T13:19:40.074Z</time>
      </trkpt>
      <trkpt lat="45.54543" lon="6.05228">
        <ele>1313</ele>
        <time>2021-06-27T13:19:41.074Z</time>
      </trkpt>
      <trkpt lat="45.54544" lon="6.05228">
        <ele>1313</ele>
        <time>2021-06-27T13:19:42.074Z</time>
      </trkpt>
      <trkpt lat="45.54545" lon="6.05228">
        <ele>1313</ele>
        <time>2021-06-27T13:19:43.074Z</time>
      </trkpt>
      <trkpt lat="45.54545" lon="6.05227">
        <ele>1314</ele>
        <time>2021-06-27T13:19:44.073Z</time>
      </trkpt>
      <trkpt lat="45.54546" lon="6.05226">
        <ele>1314</ele>
        <time>2021-06-27T13:19:45.074Z</time>
      </trkpt>
      <trkpt lat="45.54547" lon="6.05225">
        <ele>1314</ele>
        <time>2021-06-27T13:19:46.074Z</time>
      </trkpt>
      <trkpt lat="45.54548" lon="6.05225">
        <ele>1314</ele>
        <time>2021-06-27T13:19:47.074Z</time>
      </trkpt>
      <trkpt lat="45.54549" lon="6.05225">
        <ele>1314</ele>
        <time>2021-06-27T13:19:48.074Z</time>
      </trkpt>
      <trkpt lat="45.5455" lon="6.05225">
        <ele>1314</ele>
        <time>2021-06-27T13:19:49.074Z</time>
      </trkpt>
      <trkpt lat="45.5455" lon="6.05226">
        <ele>1314</ele>
        <time>2021-06-27T13:19:50.074Z</time>
      </trkpt>
      <trkpt lat="45.54551" lon="6.05226">
        <ele>1314</ele>
        <time>2021-06-27T13:19:51.074Z</time>
      </trkpt>
      <trkpt lat="45.54553" lon="6.05225">
        <ele>1314</ele>
        <time>2021-06-27T13:19:52.074Z</time>
      </trkpt>
      <trkpt lat="45.54554" lon="6.05224">
        <ele>1313</ele>
        <time>2021-06-27T13:19:53.074Z</time>
      </trkpt>
      <trkpt lat="45.54554" lon="6.05223">
        <ele>1313</ele>
        <time>2021-06-27T13:19:54.074Z</time>
      </trkpt>
      <trkpt lat="45.54554" lon="6.05223">
        <ele>1313</ele>
        <time>2021-06-27T13:19:55.074Z</time>
      </trkpt>
      <trkpt lat="45.54555" lon="6.05224">
        <ele>1312</ele>
        <time>2021-06-27T13:19:56.074Z</time>
      </trkpt>
      <trkpt lat="45.54555" lon="6.05224">
        <ele>1312</ele>
        <time>2021-06-27T13:19:57.074Z</time>
      </trkpt>
      <trkpt lat="45.54556" lon="6.05225">
        <ele>1312</ele>
        <time>2021-06-27T13:19:58.074Z</time>
      </trkpt>
      <trkpt lat="45.54556" lon="6.05226">
        <ele>1312</ele>
        <time>2021-06-27T13:19:59.074Z</time>
      </trkpt>
      <trkpt lat="45.54557" lon="6.05225">
        <ele>1312</ele>
        <time>2021-06-27T13:20:00.074Z</time>
      </trkpt>
      <trkpt lat="45.54557" lon="6.05225">
        <ele>1311</ele>
        <time>2021-06-27T13:20:01.074Z</time>
      </trkpt>
      <trkpt lat="45.54558" lon="6.05226">
        <ele>1311</ele>
        <time>2021-06-27T13:20:02.074Z</time>
      </trkpt>
      <trkpt lat="45.54559" lon="6.05226">
        <ele>1311</ele>
        <time>2021-06-27T13:20:03.074Z</time>
      </trkpt>
      <trkpt lat="45.5456" lon="6.05227">
        <ele>1310</ele>
        <time>2021-06-27T13:20:04.074Z</time>
      </trkpt>
      <trkpt lat="45.54562" lon="6.05227">
        <ele>1309</ele>
        <time>2021-06-27T13:20:05.073Z</time>
      </trkpt>
      <trkpt lat="45.54563" lon="6.05227">
        <ele>1309</ele>
        <time>2021-06-27T13:20:06.074Z</time>
      </trkpt>
      <trkpt lat="45.54564" lon="6.05227">
        <ele>1308</ele>
        <time>2021-06-27T13:20:07.074Z</time>
      </trkpt>
      <trkpt lat="45.54564" lon="6.05227">
        <ele>1306</ele>
        <time>2021-06-27T13:20:08.074Z</time>
      </trkpt>
      <trkpt lat="45.54566" lon="6.05227">
        <ele>1305</ele>
        <time>2021-06-27T13:20:09.074Z</time>
      </trkpt>
      <trkpt lat="45.54567" lon="6.05227">
        <ele>1305</ele>
        <time>2021-06-27T13:20:10.074Z</time>
      </trkpt>
      <trkpt lat="45.54567" lon="6.05226">
        <ele>1304</ele>
        <time>2021-06-27T13:20:11.073Z</time>
      </trkpt>
      <trkpt lat="45.54568" lon="6.05226">
        <ele>1303</ele>
        <time>2021-06-27T13:20:12.073Z</time>
      </trkpt>
      <trkpt lat="45.54568" lon="6.05226">
        <ele>1303</ele>
        <time>2021-06-27T13:20:13.073Z</time>
      </trkpt>
      <trkpt lat="45.54569" lon="6.05226">
        <ele>1303</ele>
        <time>2021-06-27T13:20:14.074Z</time>
      </trkpt>
      <trkpt lat="45.5457" lon="6.05226">
        <ele>1303</ele>
        <time>2021-06-27T13:20:15.074Z</time>
      </trkpt>
      <trkpt lat="45.54571" lon="6.05225">
        <ele>1303</ele>
        <time>2021-06-27T13:20:16.074Z</time>
      </trkpt>
      <trkpt lat="45.54571" lon="6.05225">
        <ele>1303</ele>
        <time>2021-06-27T13:20:17.073Z</time>
      </trkpt>
      <trkpt lat="45.54571" lon="6.05224">
        <ele>1302</ele>
        <time>2021-06-27T13:20:18.074Z</time>
      </trkpt>
      <trkpt lat="45.54571" lon="6.05223">
        <ele>1301</ele>
        <time>2021-06-27T13:20:19.074Z</time>
      </trkpt>
      <trkpt lat="45.54571" lon="6.05223">
        <ele>1301</ele>
        <time>2021-06-27T13:20:20.073Z</time>
      </trkpt>
      <trkpt lat="45.54571" lon="6.05223">
        <ele>1301</ele>
        <time>2021-06-27T13:20:21.074Z</time>
      </trkpt>
      <trkpt lat="45.54571" lon="6.05223">
        <ele>1301</ele>
        <time>2021-06-27T13:20:22.074Z</time>
      </trkpt>
      <trkpt lat="45.54571" lon="6.05223">
        <ele>1302</ele>
        <time>2021-06-27T13:20:23.074Z</time>
      </trkpt>
      <trkpt lat="45.54571" lon="6.05222">
        <ele>1302</ele>
        <time>2021-06-27T13:20:24.074Z</time>
      </trkpt>
      <trkpt lat="45.54571" lon="6.05221">
        <ele>1302</ele>
        <time>2021-06-27T13:20:25.073Z</time>
      </trkpt>
      <trkpt lat="45.54571" lon="6.05221">
        <ele>1303</ele>
        <time>2021-06-27T13:20:26.074Z</time>
      </trkpt>
      <trkpt lat="45.54571" lon="6.05222">
        <ele>1304</ele>
        <time>2021-06-27T13:20:27.074Z</time>
      </trkpt>
      <trkpt lat="45.54571" lon="6.05222">
        <ele>1305</ele>
        <time>2021-06-27T13:20:28.074Z</time>
      </trkpt>
      <trkpt lat="45.54571" lon="6.05223">
        <ele>1306</ele>
        <time>2021-06-27T13:20:29.074Z</time>
      </trkpt>
      <trkpt lat="45.54571" lon="6.05223">
        <ele>1307</ele>
        <time>2021-06-27T13:20:30.074Z</time>
      </trkpt>
      <trkpt lat="45.54571" lon="6.05223">
        <ele>1307</ele>
        <time>2021-06-27T13:20:31.073Z</time>
      </trkpt>
      <trkpt lat="45.54571" lon="6.05222">
        <ele>1308</ele>
        <time>2021-06-27T13:20:32.073Z</time>
      </trkpt>
      <trkpt lat="45.54572" lon="6.05223">
        <ele>1308</ele>
        <time>2021-06-27T13:20:33.074Z</time>
      </trkpt>
      <trkpt lat="45.54572" lon="6.05223">
        <ele>1308</ele>
        <time>2021-06-27T13:20:34.074Z</time>
      </trkpt>
      <trkpt lat="45.54572" lon="6.05223">
        <ele>1309</ele>
        <time>2021-06-27T13:20:35.073Z</time>
      </trkpt>
      <trkpt lat="45.54572" lon="6.05222">
        <ele>1309</ele>
        <time>2021-06-27T13:20:36.073Z</time>
      </trkpt>
      <trkpt lat="45.54572" lon="6.05222">
        <ele>1309</ele>
        <time>2021-06-27T13:20:37.074Z</time>
      </trkpt>
      <trkpt lat="45.54572" lon="6.05222">
        <ele>1309</ele>
        <time>2021-06-27T13:20:38.074Z</time>
      </trkpt>
      <trkpt lat="45.54572" lon="6.05221">
        <ele>1309</ele>
        <time>2021-06-27T13:20:39.074Z</time>
      </trkpt>
      <trkpt lat="45.54572" lon="6.05221">
        <ele>1308</ele>
        <time>2021-06-27T13:20:40.074Z</time>
      </trkpt>
      <trkpt lat="45.54572" lon="6.05221">
        <ele>1308</ele>
        <time>2021-06-27T13:20:41.074Z</time>
      </trkpt>
      <trkpt lat="45.54572" lon="6.05221">
        <ele>1307</ele>
        <time>2021-06-27T13:20:42.074Z</time>
      </trkpt>
      <trkpt lat="45.54572" lon="6.05221">
        <ele>1307</ele>
        <time>2021-06-27T13:20:43.074Z</time>
      </trkpt>
      <trkpt lat="45.54572" lon="6.05221">
        <ele>1306</ele>
        <time>2021-06-27T13:20:44.074Z</time>
      </trkpt>
      <trkpt lat="45.54573" lon="6.05222">
        <ele>1306</ele>
        <time>2021-06-27T13:20:45.073Z</time>
      </trkpt>
      <trkpt lat="45.54574" lon="6.05223">
        <ele>1305</ele>
        <time>2021-06-27T13:20:46.074Z</time>
      </trkpt>
      <trkpt lat="45.54576" lon="6.05224">
        <ele>1305</ele>
        <time>2021-06-27T13:20:47.074Z</time>
      </trkpt>
      <trkpt lat="45.54576" lon="6.05225">
        <ele>1305</ele>
        <time>2021-06-27T13:20:48.073Z</time>
      </trkpt>
      <trkpt lat="45.54576" lon="6.05225">
        <ele>1304</ele>
        <time>2021-06-27T13:20:49.074Z</time>
      </trkpt>
      <trkpt lat="45.54577" lon="6.05225">
        <ele>1304</ele>
        <time>2021-06-27T13:20:50.073Z</time>
      </trkpt>
      <trkpt lat="45.54577" lon="6.05225">
        <ele>1303</ele>
        <time>2021-06-27T13:20:51.073Z</time>
      </trkpt>
      <trkpt lat="45.54577" lon="6.05226">
        <ele>1303</ele>
        <time>2021-06-27T13:20:52.073Z</time>
      </trkpt>
      <trkpt lat="45.54577" lon="6.05226">
        <ele>1303</ele>
        <time>2021-06-27T13:20:53.074Z</time>
      </trkpt>
      <trkpt lat="45.54576" lon="6.05226">
        <ele>1302</ele>
        <time>2021-06-27T13:20:54.074Z</time>
      </trkpt>
      <trkpt lat="45.54576" lon="6.05227">
        <ele>1302</ele>
        <time>2021-06-27T13:20:55.073Z</time>
      </trkpt>
      <trkpt lat="45.54576" lon="6.05227">
        <ele>1301</ele>
        <time>2021-06-27T13:20:56.074Z</time>
      </trkpt>
      <trkpt lat="45.54576" lon="6.05227">
        <ele>1301</ele>
        <time>2021-06-27T13:20:57.073Z</time>
      </trkpt>
      <trkpt lat="45.54576" lon="6.05226">
        <ele>1301</ele>
        <time>2021-06-27T13:20:58.074Z</time>
      </trkpt>
      <trkpt lat="45.54575" lon="6.05224">
        <ele>1301</ele>
        <time>2021-06-27T13:20:59.074Z</time>
      </trkpt>
      <trkpt lat="45.54575" lon="6.05223">
        <ele>1300</ele>
        <time>2021-06-27T13:21:00.074Z</time>
      </trkpt>
      <trkpt lat="45.54574" lon="6.05222">
        <ele>1300</ele>
        <time>2021-06-27T13:21:01.074Z</time>
      </trkpt>
      <trkpt lat="45.54574" lon="6.0522">
        <ele>1299</ele>
        <time>2021-06-27T13:21:02.074Z</time>
      </trkpt>
      <trkpt lat="45.54574" lon="6.05219">
        <ele>1299</ele>
        <time>2021-06-27T13:21:03.074Z</time>
      </trkpt>
      <trkpt lat="45.54574" lon="6.05217">
        <ele>1299</ele>
        <time>2021-06-27T13:21:04.074Z</time>
      </trkpt>
      <trkpt lat="45.54573" lon="6.05214">
        <ele>1299</ele>
        <time>2021-06-27T13:21:05.074Z</time>
      </trkpt>
      <trkpt lat="45.54573" lon="6.05211">
        <ele>1299</ele>
        <time>2021-06-27T13:21:06.073Z</time>
      </trkpt>
      <trkpt lat="45.54573" lon="6.05208">
        <ele>1298</ele>
        <time>2021-06-27T13:21:07.074Z</time>
      </trkpt>
      <trkpt lat="45.54573" lon="6.05207">
        <ele>1298</ele>
        <time>2021-06-27T13:21:08.074Z</time>
      </trkpt>
      <trkpt lat="45.54573" lon="6.05206">
        <ele>1298</ele>
        <time>2021-06-27T13:21:09.073Z</time>
      </trkpt>
      <trkpt lat="45.54573" lon="6.05205">
        <ele>1298</ele>
        <time>2021-06-27T13:21:10.074Z</time>
      </trkpt>
      <trkpt lat="45.54572" lon="6.05204">
        <ele>1299</ele>
        <time>2021-06-27T13:21:11.074Z</time>
      </trkpt>
      <trkpt lat="45.54572" lon="6.05203">
        <ele>1299</ele>
        <time>2021-06-27T13:21:12.074Z</time>
      </trkpt>
      <trkpt lat="45.54571" lon="6.05202">
        <ele>1300</ele>
        <time>2021-06-27T13:21:13.073Z</time>
      </trkpt>
      <trkpt lat="45.54571" lon="6.05201">
        <ele>1300</ele>
        <time>2021-06-27T13:21:14.073Z</time>
      </trkpt>
      <trkpt lat="45.54571" lon="6.05199">
        <ele>1300</ele>
        <time>2021-06-27T13:21:15.073Z</time>
      </trkpt>
      <trkpt lat="45.5457" lon="6.05197">
        <ele>1301</ele>
        <time>2021-06-27T13:21:16.074Z</time>
      </trkpt>
      <trkpt lat="45.5457" lon="6.05196">
        <ele>1301</ele>
        <time>2021-06-27T13:21:17.074Z</time>
      </trkpt>
      <trkpt lat="45.54569" lon="6.05195">
        <ele>1302</ele>
        <time>2021-06-27T13:21:18.074Z</time>
      </trkpt>
      <trkpt lat="45.54569" lon="6.05194">
        <ele>1302</ele>
        <time>2021-06-27T13:21:19.074Z</time>
      </trkpt>
      <trkpt lat="45.54569" lon="6.05193">
        <ele>1302</ele>
        <time>2021-06-27T13:21:20.074Z</time>
      </trkpt>
      <trkpt lat="45.54569" lon="6.05191">
        <ele>1302</ele>
        <time>2021-06-27T13:21:21.074Z</time>
      </trkpt>
      <trkpt lat="45.54569" lon="6.0519">
        <ele>1301</ele>
        <time>2021-06-27T13:21:22.074Z</time>
      </trkpt>
      <trkpt lat="45.54567" lon="6.05187">
        <ele>1301</ele>
        <time>2021-06-27T13:21:23.074Z</time>
      </trkpt>
      <trkpt lat="45.54567" lon="6.05185">
        <ele>1300</ele>
        <time>2021-06-27T13:21:24.074Z</time>
      </trkpt>
      <trkpt lat="45.54567" lon="6.05183">
        <ele>1300</ele>
        <time>2021-06-27T13:21:25.073Z</time>
      </trkpt>
      <trkpt lat="45.54567" lon="6.0518">
        <ele>1300</ele>
        <time>2021-06-27T13:21:26.074Z</time>
      </trkpt>
      <trkpt lat="45.54568" lon="6.05178">
        <ele>1300</ele>
        <time>2021-06-27T13:21:27.074Z</time>
      </trkpt>
      <trkpt lat="45.54569" lon="6.05176">
        <ele>1300</ele>
        <time>2021-06-27T13:21:28.074Z</time>
      </trkpt>
      <trkpt lat="45.54569" lon="6.05174">
        <ele>1299</ele>
        <time>2021-06-27T13:21:29.074Z</time>
      </trkpt>
      <trkpt lat="45.54569" lon="6.05172">
        <ele>1299</ele>
        <time>2021-06-27T13:21:30.074Z</time>
      </trkpt>
      <trkpt lat="45.54569" lon="6.05171">
        <ele>1299</ele>
        <time>2021-06-27T13:21:31.074Z</time>
      </trkpt>
      <trkpt lat="45.54569" lon="6.05168">
        <ele>1300</ele>
        <time>2021-06-27T13:21:32.074Z</time>
      </trkpt>
      <trkpt lat="45.54569" lon="6.05166">
        <ele>1300</ele>
        <time>2021-06-27T13:21:33.074Z</time>
      </trkpt>
      <trkpt lat="45.5457" lon="6.05164">
        <ele>1300</ele>
        <time>2021-06-27T13:21:34.074Z</time>
      </trkpt>
      <trkpt lat="45.5457" lon="6.05162">
        <ele>1299</ele>
        <time>2021-06-27T13:21:35.074Z</time>
      </trkpt>
      <trkpt lat="45.5457" lon="6.0516">
        <ele>1299</ele>
        <time>2021-06-27T13:21:36.073Z</time>
      </trkpt>
      <trkpt lat="45.54569" lon="6.0516">
        <ele>1299</ele>
        <time>2021-06-27T13:21:37.074Z</time>
      </trkpt>
      <trkpt lat="45.54569" lon="6.05159">
        <ele>1298</ele>
        <time>2021-06-27T13:21:38.074Z</time>
      </trkpt>
      <trkpt lat="45.54568" lon="6.05158">
        <ele>1297</ele>
        <time>2021-06-27T13:21:39.073Z</time>
      </trkpt>
      <trkpt lat="45.54567" lon="6.05157">
        <ele>1297</ele>
        <time>2021-06-27T13:21:40.074Z</time>
      </trkpt>
      <trkpt lat="45.54566" lon="6.05156">
        <ele>1296</ele>
        <time>2021-06-27T13:21:41.074Z</time>
      </trkpt>
      <trkpt lat="45.54565" lon="6.05155">
        <ele>1296</ele>
        <time>2021-06-27T13:21:42.073Z</time>
      </trkpt>
      <trkpt lat="45.54564" lon="6.05154">
        <ele>1295</ele>
        <time>2021-06-27T13:21:43.073Z</time>
      </trkpt>
      <trkpt lat="45.54564" lon="6.05153">
        <ele>1295</ele>
        <time>2021-06-27T13:21:44.074Z</time>
      </trkpt>
      <trkpt lat="45.54564" lon="6.05151">
        <ele>1294</ele>
        <time>2021-06-27T13:21:45.074Z</time>
      </trkpt>
      <trkpt lat="45.54564" lon="6.05151">
        <ele>1294</ele>
        <time>2021-06-27T13:21:46.074Z</time>
      </trkpt>
      <trkpt lat="45.54565" lon="6.0515">
        <ele>1293</ele>
        <time>2021-06-27T13:21:47.074Z</time>
      </trkpt>
      <trkpt lat="45.54565" lon="6.05148">
        <ele>1292</ele>
        <time>2021-06-27T13:21:48.074Z</time>
      </trkpt>
      <trkpt lat="45.54566" lon="6.05146">
        <ele>1292</ele>
        <time>2021-06-27T13:21:49.074Z</time>
      </trkpt>
      <trkpt lat="45.54567" lon="6.05144">
        <ele>1291</ele>
        <time>2021-06-27T13:21:50.074Z</time>
      </trkpt>
      <trkpt lat="45.54566" lon="6.05143">
        <ele>1291</ele>
        <time>2021-06-27T13:21:51.074Z</time>
      </trkpt>
      <trkpt lat="45.54567" lon="6.05141">
        <ele>1291</ele>
        <time>2021-06-27T13:21:52.074Z</time>
      </trkpt>
      <trkpt lat="45.54566" lon="6.05139">
        <ele>1290</ele>
        <time>2021-06-27T13:21:53.073Z</time>
      </trkpt>
      <trkpt lat="45.54567" lon="6.05138">
        <ele>1290</ele>
        <time>2021-06-27T13:21:54.074Z</time>
      </trkpt>
      <trkpt lat="45.54567" lon="6.05137">
        <ele>1290</ele>
        <time>2021-06-27T13:21:55.074Z</time>
      </trkpt>
      <trkpt lat="45.54567" lon="6.05136">
        <ele>1289</ele>
        <time>2021-06-27T13:21:56.074Z</time>
      </trkpt>
      <trkpt lat="45.54567" lon="6.05135">
        <ele>1289</ele>
        <time>2021-06-27T13:21:57.074Z</time>
      </trkpt>
      <trkpt lat="45.54567" lon="6.05134">
        <ele>1288</ele>
        <time>2021-06-27T13:21:58.074Z</time>
      </trkpt>
      <trkpt lat="45.54567" lon="6.05132">
        <ele>1288</ele>
        <time>2021-06-27T13:21:59.073Z</time>
      </trkpt>
      <trkpt lat="45.54567" lon="6.05132">
        <ele>1287</ele>
        <time>2021-06-27T13:22:00.074Z</time>
      </trkpt>
      <trkpt lat="45.54568" lon="6.05129">
        <ele>1287</ele>
        <time>2021-06-27T13:22:01.074Z</time>
      </trkpt>
      <trkpt lat="45.54568" lon="6.05128">
        <ele>1286</ele>
        <time>2021-06-27T13:22:02.074Z</time>
      </trkpt>
      <trkpt lat="45.54567" lon="6.05127">
        <ele>1285</ele>
        <time>2021-06-27T13:22:03.074Z</time>
      </trkpt>
      <trkpt lat="45.54567" lon="6.05126">
        <ele>1284</ele>
        <time>2021-06-27T13:22:04.074Z</time>
      </trkpt>
      <trkpt lat="45.54566" lon="6.05126">
        <ele>1284</ele>
        <time>2021-06-27T13:22:05.074Z</time>
      </trkpt>
      <trkpt lat="45.54566" lon="6.05126">
        <ele>1283</ele>
        <time>2021-06-27T13:22:06.074Z</time>
      </trkpt>
      <trkpt lat="45.54565" lon="6.05125">
        <ele>1282</ele>
        <time>2021-06-27T13:22:07.074Z</time>
      </trkpt>
      <trkpt lat="45.54564" lon="6.05125">
        <ele>1282</ele>
        <time>2021-06-27T13:22:08.073Z</time>
      </trkpt>
      <trkpt lat="45.54563" lon="6.05126">
        <ele>1282</ele>
        <time>2021-06-27T13:22:09.073Z</time>
      </trkpt>
      <trkpt lat="45.54562" lon="6.05126">
        <ele>1281</ele>
        <time>2021-06-27T13:22:10.073Z</time>
      </trkpt>
      <trkpt lat="45.54562" lon="6.05126">
        <ele>1281</ele>
        <time>2021-06-27T13:22:11.074Z</time>
      </trkpt>
      <trkpt lat="45.5456" lon="6.05125">
        <ele>1281</ele>
        <time>2021-06-27T13:22:12.074Z</time>
      </trkpt>
      <trkpt lat="45.54559" lon="6.05123">
        <ele>1281</ele>
        <time>2021-06-27T13:22:13.073Z</time>
      </trkpt>
      <trkpt lat="45.54557" lon="6.05122">
        <ele>1281</ele>
        <time>2021-06-27T13:22:14.074Z</time>
      </trkpt>
      <trkpt lat="45.54556" lon="6.05121">
        <ele>1280</ele>
        <time>2021-06-27T13:22:15.074Z</time>
      </trkpt>
      <trkpt lat="45.54555" lon="6.0512">
        <ele>1280</ele>
        <time>2021-06-27T13:22:16.074Z</time>
      </trkpt>
      <trkpt lat="45.54555" lon="6.05119">
        <ele>1279</ele>
        <time>2021-06-27T13:22:17.074Z</time>
      </trkpt>
      <trkpt lat="45.54555" lon="6.05117">
        <ele>1278</ele>
        <time>2021-06-27T13:22:18.074Z</time>
      </trkpt>
      <trkpt lat="45.54555" lon="6.05116">
        <ele>1278</ele>
        <time>2021-06-27T13:22:19.074Z</time>
      </trkpt>
      <trkpt lat="45.54556" lon="6.05115">
        <ele>1277</ele>
        <time>2021-06-27T13:22:20.074Z</time>
      </trkpt>
      <trkpt lat="45.54556" lon="6.05115">
        <ele>1277</ele>
        <time>2021-06-27T13:22:21.074Z</time>
      </trkpt>
      <trkpt lat="45.54555" lon="6.05116">
        <ele>1276</ele>
        <time>2021-06-27T13:22:22.074Z</time>
      </trkpt>
      <trkpt lat="45.54554" lon="6.05115">
        <ele>1276</ele>
        <time>2021-06-27T13:22:23.074Z</time>
      </trkpt>
      <trkpt lat="45.54554" lon="6.05114">
        <ele>1276</ele>
        <time>2021-06-27T13:22:24.073Z</time>
      </trkpt>
      <trkpt lat="45.54553" lon="6.05113">
        <ele>1276</ele>
        <time>2021-06-27T13:22:25.073Z</time>
      </trkpt>
      <trkpt lat="45.54553" lon="6.05112">
        <ele>1276</ele>
        <time>2021-06-27T13:22:26.074Z</time>
      </trkpt>
      <trkpt lat="45.54552" lon="6.05111">
        <ele>1275</ele>
        <time>2021-06-27T13:22:27.074Z</time>
      </trkpt>
      <trkpt lat="45.54551" lon="6.05111">
        <ele>1275</ele>
        <time>2021-06-27T13:22:28.074Z</time>
      </trkpt>
      <trkpt lat="45.54551" lon="6.0511">
        <ele>1274</ele>
        <time>2021-06-27T13:22:29.074Z</time>
      </trkpt>
      <trkpt lat="45.54551" lon="6.0511">
        <ele>1274</ele>
        <time>2021-06-27T13:22:30.074Z</time>
      </trkpt>
      <trkpt lat="45.5455" lon="6.05109">
        <ele>1274</ele>
        <time>2021-06-27T13:22:31.074Z</time>
      </trkpt>
      <trkpt lat="45.54549" lon="6.05109">
        <ele>1274</ele>
        <time>2021-06-27T13:22:32.074Z</time>
      </trkpt>
      <trkpt lat="45.54548" lon="6.05108">
        <ele>1274</ele>
        <time>2021-06-27T13:22:33.073Z</time>
      </trkpt>
      <trkpt lat="45.54548" lon="6.05108">
        <ele>1274</ele>
        <time>2021-06-27T13:22:34.074Z</time>
      </trkpt>
      <trkpt lat="45.54548" lon="6.05107">
        <ele>1274</ele>
        <time>2021-06-27T13:22:35.073Z</time>
      </trkpt>
      <trkpt lat="45.54547" lon="6.05105">
        <ele>1274</ele>
        <time>2021-06-27T13:22:36.074Z</time>
      </trkpt>
      <trkpt lat="45.54547" lon="6.05105">
        <ele>1274</ele>
        <time>2021-06-27T13:22:37.073Z</time>
      </trkpt>
      <trkpt lat="45.54547" lon="6.05104">
        <ele>1273</ele>
        <time>2021-06-27T13:22:38.074Z</time>
      </trkpt>
      <trkpt lat="45.54546" lon="6.05104">
        <ele>1273</ele>
        <time>2021-06-27T13:22:39.074Z</time>
      </trkpt>
      <trkpt lat="45.54546" lon="6.05103">
        <ele>1273</ele>
        <time>2021-06-27T13:22:40.074Z</time>
      </trkpt>
      <trkpt lat="45.54545" lon="6.05102">
        <ele>1272</ele>
        <time>2021-06-27T13:22:41.074Z</time>
      </trkpt>
      <trkpt lat="45.54544" lon="6.05102">
        <ele>1272</ele>
        <time>2021-06-27T13:22:42.074Z</time>
      </trkpt>
      <trkpt lat="45.54543" lon="6.05102">
        <ele>1271</ele>
        <time>2021-06-27T13:22:43.074Z</time>
      </trkpt>
      <trkpt lat="45.54543" lon="6.05101">
        <ele>1272</ele>
        <time>2021-06-27T13:22:44.073Z</time>
      </trkpt>
      <trkpt lat="45.54542" lon="6.05101">
        <ele>1272</ele>
        <time>2021-06-27T13:22:45.073Z</time>
      </trkpt>
      <trkpt lat="45.54542" lon="6.051">
        <ele>1273</ele>
        <time>2021-06-27T13:22:46.074Z</time>
      </trkpt>
      <trkpt lat="45.54542" lon="6.051">
        <ele>1274</ele>
        <time>2021-06-27T13:22:47.074Z</time>
      </trkpt>
      <trkpt lat="45.54542" lon="6.05099">
        <ele>1274</ele>
        <time>2021-06-27T13:22:48.073Z</time>
      </trkpt>
      <trkpt lat="45.54541" lon="6.05098">
        <ele>1275</ele>
        <time>2021-06-27T13:22:49.074Z</time>
      </trkpt>
      <trkpt lat="45.54541" lon="6.05097">
        <ele>1275</ele>
        <time>2021-06-27T13:22:50.074Z</time>
      </trkpt>
      <trkpt lat="45.54541" lon="6.05096">
        <ele>1275</ele>
        <time>2021-06-27T13:22:51.074Z</time>
      </trkpt>
      <trkpt lat="45.54541" lon="6.05095">
        <ele>1275</ele>
        <time>2021-06-27T13:22:52.074Z</time>
      </trkpt>
      <trkpt lat="45.54541" lon="6.05094">
        <ele>1274</ele>
        <time>2021-06-27T13:22:53.073Z</time>
      </trkpt>
      <trkpt lat="45.5454" lon="6.05093">
        <ele>1274</ele>
        <time>2021-06-27T13:22:54.074Z</time>
      </trkpt>
      <trkpt lat="45.5454" lon="6.05092">
        <ele>1273</ele>
        <time>2021-06-27T13:22:55.074Z</time>
      </trkpt>
      <trkpt lat="45.54539" lon="6.05091">
        <ele>1273</ele>
        <time>2021-06-27T13:22:56.074Z</time>
      </trkpt>
      <trkpt lat="45.54538" lon="6.05089">
        <ele>1273</ele>
        <time>2021-06-27T13:22:57.074Z</time>
      </trkpt>
      <trkpt lat="45.54537" lon="6.05088">
        <ele>1273</ele>
        <time>2021-06-27T13:22:58.074Z</time>
      </trkpt>
      <trkpt lat="45.54537" lon="6.05086">
        <ele>1273</ele>
        <time>2021-06-27T13:22:59.074Z</time>
      </trkpt>
      <trkpt lat="45.54536" lon="6.05085">
        <ele>1273</ele>
        <time>2021-06-27T13:23:00.074Z</time>
      </trkpt>
      <trkpt lat="45.54535" lon="6.05084">
        <ele>1273</ele>
        <time>2021-06-27T13:23:01.074Z</time>
      </trkpt>
      <trkpt lat="45.54534" lon="6.05083">
        <ele>1273</ele>
        <time>2021-06-27T13:23:02.074Z</time>
      </trkpt>
      <trkpt lat="45.54534" lon="6.05083">
        <ele>1272</ele>
        <time>2021-06-27T13:23:03.074Z</time>
      </trkpt>
      <trkpt lat="45.54533" lon="6.05082">
        <ele>1272</ele>
        <time>2021-06-27T13:23:04.073Z</time>
      </trkpt>
      <trkpt lat="45.54532" lon="6.05081">
        <ele>1272</ele>
        <time>2021-06-27T13:23:05.073Z</time>
      </trkpt>
      <trkpt lat="45.54532" lon="6.05081">
        <ele>1272</ele>
        <time>2021-06-27T13:23:06.074Z</time>
      </trkpt>
      <trkpt lat="45.54531" lon="6.0508">
        <ele>1272</ele>
        <time>2021-06-27T13:23:07.073Z</time>
      </trkpt>
      <trkpt lat="45.5453" lon="6.0508">
        <ele>1272</ele>
        <time>2021-06-27T13:23:08.074Z</time>
      </trkpt>
      <trkpt lat="45.5453" lon="6.05079">
        <ele>1272</ele>
        <time>2021-06-27T13:23:09.074Z</time>
      </trkpt>
      <trkpt lat="45.5453" lon="6.05078">
        <ele>1272</ele>
        <time>2021-06-27T13:23:10.074Z</time>
      </trkpt>
      <trkpt lat="45.54529" lon="6.05077">
        <ele>1271</ele>
        <time>2021-06-27T13:23:11.074Z</time>
      </trkpt>
      <trkpt lat="45.54529" lon="6.05077">
        <ele>1271</ele>
        <time>2021-06-27T13:23:12.073Z</time>
      </trkpt>
      <trkpt lat="45.54529" lon="6.05078">
        <ele>1271</ele>
        <time>2021-06-27T13:23:13.074Z</time>
      </trkpt>
      <trkpt lat="45.54529" lon="6.05078">
        <ele>1271</ele>
        <time>2021-06-27T13:23:14.074Z</time>
      </trkpt>
      <trkpt lat="45.54529" lon="6.05078">
        <ele>1271</ele>
        <time>2021-06-27T13:23:15.073Z</time>
      </trkpt>
      <trkpt lat="45.54529" lon="6.05078">
        <ele>1271</ele>
        <time>2021-06-27T13:23:16.073Z</time>
      </trkpt>
      <trkpt lat="45.54529" lon="6.0508">
        <ele>1271</ele>
        <time>2021-06-27T13:23:17.074Z</time>
      </trkpt>
      <trkpt lat="45.54528" lon="6.0508">
        <ele>1271</ele>
        <time>2021-06-27T13:23:18.074Z</time>
      </trkpt>
      <trkpt lat="45.54527" lon="6.05079">
        <ele>1271</ele>
        <time>2021-06-27T13:23:19.074Z</time>
      </trkpt>
      <trkpt lat="45.54526" lon="6.05079">
        <ele>1271</ele>
        <time>2021-06-27T13:23:20.074Z</time>
      </trkpt>
      <trkpt lat="45.54526" lon="6.05079">
        <ele>1271</ele>
        <time>2021-06-27T13:23:21.074Z</time>
      </trkpt>
      <trkpt lat="45.54525" lon="6.0508">
        <ele>1270</ele>
        <time>2021-06-27T13:23:22.074Z</time>
      </trkpt>
      <trkpt lat="45.54524" lon="6.0508">
        <ele>1270</ele>
        <time>2021-06-27T13:23:23.074Z</time>
      </trkpt>
      <trkpt lat="45.54523" lon="6.05081">
        <ele>1269</ele>
        <time>2021-06-27T13:23:24.073Z</time>
      </trkpt>
      <trkpt lat="45.54522" lon="6.05081">
        <ele>1269</ele>
        <time>2021-06-27T13:23:25.073Z</time>
      </trkpt>
      <trkpt lat="45.54522" lon="6.05081">
        <ele>1268</ele>
        <time>2021-06-27T13:23:26.074Z</time>
      </trkpt>
      <trkpt lat="45.54522" lon="6.05082">
        <ele>1268</ele>
        <time>2021-06-27T13:23:27.074Z</time>
      </trkpt>
      <trkpt lat="45.54521" lon="6.05082">
        <ele>1268</ele>
        <time>2021-06-27T13:23:28.074Z</time>
      </trkpt>
      <trkpt lat="45.54521" lon="6.05082">
        <ele>1268</ele>
        <time>2021-06-27T13:23:29.073Z</time>
      </trkpt>
      <trkpt lat="45.54521" lon="6.05083">
        <ele>1268</ele>
        <time>2021-06-27T13:23:30.074Z</time>
      </trkpt>
      <trkpt lat="45.54521" lon="6.05083">
        <ele>1268</ele>
        <time>2021-06-27T13:23:31.073Z</time>
      </trkpt>
      <trkpt lat="45.54521" lon="6.05083">
        <ele>1268</ele>
        <time>2021-06-27T13:23:32.074Z</time>
      </trkpt>
      <trkpt lat="45.5452" lon="6.05083">
        <ele>1268</ele>
        <time>2021-06-27T13:23:33.074Z</time>
      </trkpt>
      <trkpt lat="45.5452" lon="6.05083">
        <ele>1267</ele>
        <time>2021-06-27T13:23:34.074Z</time>
      </trkpt>
      <trkpt lat="45.54519" lon="6.05083">
        <ele>1267</ele>
        <time>2021-06-27T13:23:35.074Z</time>
      </trkpt>
      <trkpt lat="45.54518" lon="6.05082">
        <ele>1267</ele>
        <time>2021-06-27T13:23:36.074Z</time>
      </trkpt>
      <trkpt lat="45.54518" lon="6.05083">
        <ele>1266</ele>
        <time>2021-06-27T13:23:37.074Z</time>
      </trkpt>
      <trkpt lat="45.54517" lon="6.05083">
        <ele>1265</ele>
        <time>2021-06-27T13:23:38.074Z</time>
      </trkpt>
      <trkpt lat="45.54517" lon="6.05084">
        <ele>1265</ele>
        <time>2021-06-27T13:23:39.074Z</time>
      </trkpt>
      <trkpt lat="45.54516" lon="6.05085">
        <ele>1265</ele>
        <time>2021-06-27T13:23:40.074Z</time>
      </trkpt>
      <trkpt lat="45.54516" lon="6.05086">
        <ele>1264</ele>
        <time>2021-06-27T13:23:41.074Z</time>
      </trkpt>
      <trkpt lat="45.54515" lon="6.05087">
        <ele>1264</ele>
        <time>2021-06-27T13:23:42.074Z</time>
      </trkpt>
      <trkpt lat="45.54515" lon="6.05088">
        <ele>1263</ele>
        <time>2021-06-27T13:23:43.074Z</time>
      </trkpt>
      <trkpt lat="45.54514" lon="6.05088">
        <ele>1263</ele>
        <time>2021-06-27T13:23:44.074Z</time>
      </trkpt>
      <trkpt lat="45.54514" lon="6.0509">
        <ele>1262</ele>
        <time>2021-06-27T13:23:45.074Z</time>
      </trkpt>
      <trkpt lat="45.54513" lon="6.05091">
        <ele>1262</ele>
        <time>2021-06-27T13:23:46.074Z</time>
      </trkpt>
      <trkpt lat="45.54512" lon="6.05091">
        <ele>1261</ele>
        <time>2021-06-27T13:23:47.074Z</time>
      </trkpt>
      <trkpt lat="45.54512" lon="6.05092">
        <ele>1261</ele>
        <time>2021-06-27T13:23:48.074Z</time>
      </trkpt>
      <trkpt lat="45.54511" lon="6.05093">
        <ele>1260</ele>
        <time>2021-06-27T13:23:49.074Z</time>
      </trkpt>
      <trkpt lat="45.5451" lon="6.05093">
        <ele>1260</ele>
        <time>2021-06-27T13:23:50.074Z</time>
      </trkpt>
      <trkpt lat="45.5451" lon="6.05094">
        <ele>1260</ele>
        <time>2021-06-27T13:23:51.074Z</time>
      </trkpt>
      <trkpt lat="45.54509" lon="6.05095">
        <ele>1260</ele>
        <time>2021-06-27T13:23:52.074Z</time>
      </trkpt>
      <trkpt lat="45.54509" lon="6.05096">
        <ele>1260</ele>
        <time>2021-06-27T13:23:53.074Z</time>
      </trkpt>
      <trkpt lat="45.54509" lon="6.05096">
        <ele>1260</ele>
        <time>2021-06-27T13:23:54.074Z</time>
      </trkpt>
      <trkpt lat="45.54508" lon="6.05097">
        <ele>1260</ele>
        <time>2021-06-27T13:23:55.074Z</time>
      </trkpt>
      <trkpt lat="45.54507" lon="6.05098">
        <ele>1261</ele>
        <time>2021-06-27T13:23:56.074Z</time>
      </trkpt>
      <trkpt lat="45.54507" lon="6.05099">
        <ele>1261</ele>
        <time>2021-06-27T13:23:57.074Z</time>
      </trkpt>
      <trkpt lat="45.54506" lon="6.051">
        <ele>1261</ele>
        <time>2021-06-27T13:23:58.074Z</time>
      </trkpt>
      <trkpt lat="45.54506" lon="6.05101">
        <ele>1260</ele>
        <time>2021-06-27T13:23:59.074Z</time>
      </trkpt>
      <trkpt lat="45.54506" lon="6.05102">
        <ele>1261</ele>
        <time>2021-06-27T13:24:00.074Z</time>
      </trkpt>
      <trkpt lat="45.54505" lon="6.05103">
        <ele>1261</ele>
        <time>2021-06-27T13:24:01.074Z</time>
      </trkpt>
      <trkpt lat="45.54504" lon="6.05104">
        <ele>1261</ele>
        <time>2021-06-27T13:24:02.074Z</time>
      </trkpt>
      <trkpt lat="45.54504" lon="6.05105">
        <ele>1261</ele>
        <time>2021-06-27T13:24:03.074Z</time>
      </trkpt>
      <trkpt lat="45.54503" lon="6.05106">
        <ele>1261</ele>
        <time>2021-06-27T13:24:04.074Z</time>
      </trkpt>
      <trkpt lat="45.54503" lon="6.05106">
        <ele>1261</ele>
        <time>2021-06-27T13:24:05.073Z</time>
      </trkpt>
      <trkpt lat="45.54502" lon="6.05107">
        <ele>1261</ele>
        <time>2021-06-27T13:24:06.074Z</time>
      </trkpt>
      <trkpt lat="45.54501" lon="6.05108">
        <ele>1261</ele>
        <time>2021-06-27T13:24:07.074Z</time>
      </trkpt>
      <trkpt lat="45.54501" lon="6.05109">
        <ele>1261</ele>
        <time>2021-06-27T13:24:08.074Z</time>
      </trkpt>
      <trkpt lat="45.545" lon="6.0511">
        <ele>1261</ele>
        <time>2021-06-27T13:24:09.074Z</time>
      </trkpt>
      <trkpt lat="45.54499" lon="6.0511">
        <ele>1260</ele>
        <time>2021-06-27T13:24:10.074Z</time>
      </trkpt>
      <trkpt lat="45.54499" lon="6.05112">
        <ele>1260</ele>
        <time>2021-06-27T13:24:11.074Z</time>
      </trkpt>
      <trkpt lat="45.54498" lon="6.05113">
        <ele>1260</ele>
        <time>2021-06-27T13:24:12.074Z</time>
      </trkpt>
      <trkpt lat="45.54498" lon="6.05113">
        <ele>1259</ele>
        <time>2021-06-27T13:24:13.073Z</time>
      </trkpt>
      <trkpt lat="45.54497" lon="6.05114">
        <ele>1259</ele>
        <time>2021-06-27T13:24:14.073Z</time>
      </trkpt>
      <trkpt lat="45.54498" lon="6.05115">
        <ele>1258</ele>
        <time>2021-06-27T13:24:15.074Z</time>
      </trkpt>
      <trkpt lat="45.54498" lon="6.05117">
        <ele>1258</ele>
        <time>2021-06-27T13:24:16.074Z</time>
      </trkpt>
      <trkpt lat="45.54498" lon="6.05118">
        <ele>1257</ele>
        <time>2021-06-27T13:24:17.074Z</time>
      </trkpt>
      <trkpt lat="45.54496" lon="6.05119">
        <ele>1257</ele>
        <time>2021-06-27T13:24:18.074Z</time>
      </trkpt>
      <trkpt lat="45.54495" lon="6.0512">
        <ele>1257</ele>
        <time>2021-06-27T13:24:19.074Z</time>
      </trkpt>
      <trkpt lat="45.54494" lon="6.05121">
        <ele>1257</ele>
        <time>2021-06-27T13:24:20.074Z</time>
      </trkpt>
      <trkpt lat="45.54494" lon="6.05122">
        <ele>1257</ele>
        <time>2021-06-27T13:24:21.074Z</time>
      </trkpt>
      <trkpt lat="45.54492" lon="6.05124">
        <ele>1257</ele>
        <time>2021-06-27T13:24:22.074Z</time>
      </trkpt>
      <trkpt lat="45.54491" lon="6.05125">
        <ele>1257</ele>
        <time>2021-06-27T13:24:23.074Z</time>
      </trkpt>
      <trkpt lat="45.54491" lon="6.05125">
        <ele>1257</ele>
        <time>2021-06-27T13:24:24.074Z</time>
      </trkpt>
      <trkpt lat="45.5449" lon="6.05126">
        <ele>1257</ele>
        <time>2021-06-27T13:24:25.074Z</time>
      </trkpt>
      <trkpt lat="45.54489" lon="6.05127">
        <ele>1257</ele>
        <time>2021-06-27T13:24:26.073Z</time>
      </trkpt>
      <trkpt lat="45.54489" lon="6.05128">
        <ele>1256</ele>
        <time>2021-06-27T13:24:27.074Z</time>
      </trkpt>
      <trkpt lat="45.54489" lon="6.05129">
        <ele>1256</ele>
        <time>2021-06-27T13:24:28.074Z</time>
      </trkpt>
      <trkpt lat="45.54489" lon="6.0513">
        <ele>1255</ele>
        <time>2021-06-27T13:24:29.074Z</time>
      </trkpt>
      <trkpt lat="45.54488" lon="6.05131">
        <ele>1255</ele>
        <time>2021-06-27T13:24:30.074Z</time>
      </trkpt>
      <trkpt lat="45.54486" lon="6.05132">
        <ele>1254</ele>
        <time>2021-06-27T13:24:31.074Z</time>
      </trkpt>
      <trkpt lat="45.54486" lon="6.05132">
        <ele>1253</ele>
        <time>2021-06-27T13:24:32.073Z</time>
      </trkpt>
      <trkpt lat="45.54485" lon="6.05133">
        <ele>1253</ele>
        <time>2021-06-27T13:24:33.073Z</time>
      </trkpt>
      <trkpt lat="45.54483" lon="6.05134">
        <ele>1252</ele>
        <time>2021-06-27T13:24:34.074Z</time>
      </trkpt>
      <trkpt lat="45.54482" lon="6.05134">
        <ele>1251</ele>
        <time>2021-06-27T13:24:35.074Z</time>
      </trkpt>
      <trkpt lat="45.5448" lon="6.05135">
        <ele>1250</ele>
        <time>2021-06-27T13:24:36.074Z</time>
      </trkpt>
      <trkpt lat="45.54479" lon="6.05135">
        <ele>1249</ele>
        <time>2021-06-27T13:24:37.074Z</time>
      </trkpt>
      <trkpt lat="45.54478" lon="6.05136">
        <ele>1248</ele>
        <time>2021-06-27T13:24:38.074Z</time>
      </trkpt>
      <trkpt lat="45.54477" lon="6.05137">
        <ele>1247</ele>
        <time>2021-06-27T13:24:39.074Z</time>
      </trkpt>
      <trkpt lat="45.54476" lon="6.05138">
        <ele>1246</ele>
        <time>2021-06-27T13:24:40.074Z</time>
      </trkpt>
      <trkpt lat="45.54476" lon="6.05139">
        <ele>1246</ele>
        <time>2021-06-27T13:24:41.074Z</time>
      </trkpt>
      <trkpt lat="45.54475" lon="6.0514">
        <ele>1245</ele>
        <time>2021-06-27T13:24:42.074Z</time>
      </trkpt>
      <trkpt lat="45.54475" lon="6.05141">
        <ele>1245</ele>
        <time>2021-06-27T13:24:43.074Z</time>
      </trkpt>
      <trkpt lat="45.54474" lon="6.05141">
        <ele>1245</ele>
        <time>2021-06-27T13:24:44.074Z</time>
      </trkpt>
      <trkpt lat="45.54474" lon="6.05142">
        <ele>1244</ele>
        <time>2021-06-27T13:24:45.074Z</time>
      </trkpt>
      <trkpt lat="45.54473" lon="6.05142">
        <ele>1243</ele>
        <time>2021-06-27T13:24:46.074Z</time>
      </trkpt>
      <trkpt lat="45.54472" lon="6.05143">
        <ele>1243</ele>
        <time>2021-06-27T13:24:47.074Z</time>
      </trkpt>
      <trkpt lat="45.54471" lon="6.05143">
        <ele>1242</ele>
        <time>2021-06-27T13:24:48.073Z</time>
      </trkpt>
      <trkpt lat="45.5447" lon="6.05143">
        <ele>1242</ele>
        <time>2021-06-27T13:24:49.074Z</time>
      </trkpt>
      <trkpt lat="45.5447" lon="6.05143">
        <ele>1242</ele>
        <time>2021-06-27T13:24:50.074Z</time>
      </trkpt>
      <trkpt lat="45.54469" lon="6.05144">
        <ele>1242</ele>
        <time>2021-06-27T13:24:51.074Z</time>
      </trkpt>
      <trkpt lat="45.54469" lon="6.05144">
        <ele>1242</ele>
        <time>2021-06-27T13:24:52.073Z</time>
      </trkpt>
      <trkpt lat="45.54468" lon="6.05145">
        <ele>1242</ele>
        <time>2021-06-27T13:24:53.074Z</time>
      </trkpt>
      <trkpt lat="45.54467" lon="6.05146">
        <ele>1242</ele>
        <time>2021-06-27T13:24:54.074Z</time>
      </trkpt>
      <trkpt lat="45.54466" lon="6.05147">
        <ele>1241</ele>
        <time>2021-06-27T13:24:55.074Z</time>
      </trkpt>
      <trkpt lat="45.54465" lon="6.05148">
        <ele>1241</ele>
        <time>2021-06-27T13:24:56.074Z</time>
      </trkpt>
      <trkpt lat="45.54464" lon="6.05149">
        <ele>1241</ele>
        <time>2021-06-27T13:24:57.074Z</time>
      </trkpt>
      <trkpt lat="45.54464" lon="6.0515">
        <ele>1241</ele>
        <time>2021-06-27T13:24:58.074Z</time>
      </trkpt>
      <trkpt lat="45.54464" lon="6.05151">
        <ele>1241</ele>
        <time>2021-06-27T13:24:59.074Z</time>
      </trkpt>
      <trkpt lat="45.54463" lon="6.05152">
        <ele>1240</ele>
        <time>2021-06-27T13:25:00.074Z</time>
      </trkpt>
      <trkpt lat="45.54462" lon="6.05153">
        <ele>1240</ele>
        <time>2021-06-27T13:25:01.074Z</time>
      </trkpt>
      <trkpt lat="45.54462" lon="6.05155">
        <ele>1240</ele>
        <time>2021-06-27T13:25:02.074Z</time>
      </trkpt>
      <trkpt lat="45.54462" lon="6.05156">
        <ele>1240</ele>
        <time>2021-06-27T13:25:03.074Z</time>
      </trkpt>
      <trkpt lat="45.54461" lon="6.05157">
        <ele>1240</ele>
        <time>2021-06-27T13:25:04.074Z</time>
      </trkpt>
      <trkpt lat="45.54461" lon="6.05158">
        <ele>1240</ele>
        <time>2021-06-27T13:25:05.074Z</time>
      </trkpt>
      <trkpt lat="45.54461" lon="6.05159">
        <ele>1240</ele>
        <time>2021-06-27T13:25:06.074Z</time>
      </trkpt>
      <trkpt lat="45.5446" lon="6.0516">
        <ele>1240</ele>
        <time>2021-06-27T13:25:07.074Z</time>
      </trkpt>
      <trkpt lat="45.5446" lon="6.05161">
        <ele>1240</ele>
        <time>2021-06-27T13:25:08.074Z</time>
      </trkpt>
      <trkpt lat="45.5446" lon="6.05162">
        <ele>1240</ele>
        <time>2021-06-27T13:25:09.074Z</time>
      </trkpt>
      <trkpt lat="45.5446" lon="6.05162">
        <ele>1240</ele>
        <time>2021-06-27T13:25:10.074Z</time>
      </trkpt>
      <trkpt lat="45.5446" lon="6.05163">
        <ele>1240</ele>
        <time>2021-06-27T13:25:11.074Z</time>
      </trkpt>
      <trkpt lat="45.54459" lon="6.05164">
        <ele>1240</ele>
        <time>2021-06-27T13:25:12.074Z</time>
      </trkpt>
      <trkpt lat="45.54459" lon="6.05165">
        <ele>1239</ele>
        <time>2021-06-27T13:25:13.074Z</time>
      </trkpt>
      <trkpt lat="45.54459" lon="6.05166">
        <ele>1239</ele>
        <time>2021-06-27T13:25:14.074Z</time>
      </trkpt>
      <trkpt lat="45.54458" lon="6.05167">
        <ele>1239</ele>
        <time>2021-06-27T13:25:15.074Z</time>
      </trkpt>
      <trkpt lat="45.54458" lon="6.05168">
        <ele>1239</ele>
        <time>2021-06-27T13:25:16.074Z</time>
      </trkpt>
      <trkpt lat="45.54458" lon="6.0517">
        <ele>1239</ele>
        <time>2021-06-27T13:25:17.074Z</time>
      </trkpt>
      <trkpt lat="45.54457" lon="6.05171">
        <ele>1239</ele>
        <time>2021-06-27T13:25:18.074Z</time>
      </trkpt>
      <trkpt lat="45.54457" lon="6.05172">
        <ele>1239</ele>
        <time>2021-06-27T13:25:19.074Z</time>
      </trkpt>
      <trkpt lat="45.54456" lon="6.05174">
        <ele>1239</ele>
        <time>2021-06-27T13:25:20.074Z</time>
      </trkpt>
      <trkpt lat="45.54456" lon="6.05175">
        <ele>1239</ele>
        <time>2021-06-27T13:25:21.074Z</time>
      </trkpt>
      <trkpt lat="45.54455" lon="6.05177">
        <ele>1239</ele>
        <time>2021-06-27T13:25:22.074Z</time>
      </trkpt>
      <trkpt lat="45.54455" lon="6.05178">
        <ele>1239</ele>
        <time>2021-06-27T13:25:23.074Z</time>
      </trkpt>
      <trkpt lat="45.54455" lon="6.05179">
        <ele>1239</ele>
        <time>2021-06-27T13:25:24.074Z</time>
      </trkpt>
      <trkpt lat="45.54454" lon="6.0518">
        <ele>1239</ele>
        <time>2021-06-27T13:25:25.074Z</time>
      </trkpt>
      <trkpt lat="45.54454" lon="6.05181">
        <ele>1239</ele>
        <time>2021-06-27T13:25:26.074Z</time>
      </trkpt>
      <trkpt lat="45.54454" lon="6.05182">
        <ele>1239</ele>
        <time>2021-06-27T13:25:27.074Z</time>
      </trkpt>
      <trkpt lat="45.54454" lon="6.05184">
        <ele>1238</ele>
        <time>2021-06-27T13:25:28.074Z</time>
      </trkpt>
      <trkpt lat="45.54454" lon="6.05184">
        <ele>1238</ele>
        <time>2021-06-27T13:25:29.074Z</time>
      </trkpt>
      <trkpt lat="45.54454" lon="6.05185">
        <ele>1238</ele>
        <time>2021-06-27T13:25:30.074Z</time>
      </trkpt>
      <trkpt lat="45.54454" lon="6.05186">
        <ele>1238</ele>
        <time>2021-06-27T13:25:31.074Z</time>
      </trkpt>
      <trkpt lat="45.54454" lon="6.05187">
        <ele>1237</ele>
        <time>2021-06-27T13:25:32.074Z</time>
      </trkpt>
      <trkpt lat="45.54454" lon="6.05187">
        <ele>1237</ele>
        <time>2021-06-27T13:25:33.074Z</time>
      </trkpt>
      <trkpt lat="45.54454" lon="6.05187">
        <ele>1237</ele>
        <time>2021-06-27T13:25:34.074Z</time>
      </trkpt>
      <trkpt lat="45.54454" lon="6.05187">
        <ele>1237</ele>
        <time>2021-06-27T13:25:35.074Z</time>
      </trkpt>
      <trkpt lat="45.54454" lon="6.05187">
        <ele>1236</ele>
        <time>2021-06-27T13:25:36.073Z</time>
      </trkpt>
      <trkpt lat="45.54454" lon="6.05187">
        <ele>1236</ele>
        <time>2021-06-27T13:25:37.073Z</time>
      </trkpt>
      <trkpt lat="45.54453" lon="6.05187">
        <ele>1236</ele>
        <time>2021-06-27T13:25:38.074Z</time>
      </trkpt>
      <trkpt lat="45.54452" lon="6.05188">
        <ele>1236</ele>
        <time>2021-06-27T13:25:39.073Z</time>
      </trkpt>
      <trkpt lat="45.54452" lon="6.05188">
        <ele>1236</ele>
        <time>2021-06-27T13:25:40.074Z</time>
      </trkpt>
      <trkpt lat="45.54452" lon="6.05188">
        <ele>1237</ele>
        <time>2021-06-27T13:25:41.074Z</time>
      </trkpt>
      <trkpt lat="45.54452" lon="6.05188">
        <ele>1237</ele>
        <time>2021-06-27T13:25:42.074Z</time>
      </trkpt>
      <trkpt lat="45.54451" lon="6.05188">
        <ele>1237</ele>
        <time>2021-06-27T13:25:43.073Z</time>
      </trkpt>
      <trkpt lat="45.54451" lon="6.05188">
        <ele>1238</ele>
        <time>2021-06-27T13:25:44.074Z</time>
      </trkpt>
      <trkpt lat="45.54451" lon="6.05188">
        <ele>1238</ele>
        <time>2021-06-27T13:25:45.074Z</time>
      </trkpt>
      <trkpt lat="45.54451" lon="6.05189">
        <ele>1238</ele>
        <time>2021-06-27T13:25:46.074Z</time>
      </trkpt>
      <trkpt lat="45.5445" lon="6.0519">
        <ele>1239</ele>
        <time>2021-06-27T13:25:47.074Z</time>
      </trkpt>
      <trkpt lat="45.5445" lon="6.05191">
        <ele>1238</ele>
        <time>2021-06-27T13:25:48.074Z</time>
      </trkpt>
      <trkpt lat="45.54449" lon="6.05192">
        <ele>1238</ele>
        <time>2021-06-27T13:25:49.074Z</time>
      </trkpt>
      <trkpt lat="45.54449" lon="6.05193">
        <ele>1238</ele>
        <time>2021-06-27T13:25:50.074Z</time>
      </trkpt>
      <trkpt lat="45.54447" lon="6.05194">
        <ele>1238</ele>
        <time>2021-06-27T13:25:51.074Z</time>
      </trkpt>
      <trkpt lat="45.54446" lon="6.05194">
        <ele>1237</ele>
        <time>2021-06-27T13:25:52.074Z</time>
      </trkpt>
      <trkpt lat="45.54444" lon="6.05195">
        <ele>1237</ele>
        <time>2021-06-27T13:25:53.074Z</time>
      </trkpt>
      <trkpt lat="45.54443" lon="6.05196">
        <ele>1237</ele>
        <time>2021-06-27T13:25:54.073Z</time>
      </trkpt>
      <trkpt lat="45.54443" lon="6.05198">
        <ele>1237</ele>
        <time>2021-06-27T13:25:55.074Z</time>
      </trkpt>
      <trkpt lat="45.54442" lon="6.05199">
        <ele>1237</ele>
        <time>2021-06-27T13:25:56.074Z</time>
      </trkpt>
      <trkpt lat="45.54442" lon="6.05201">
        <ele>1237</ele>
        <time>2021-06-27T13:25:57.073Z</time>
      </trkpt>
      <trkpt lat="45.54442" lon="6.05202">
        <ele>1237</ele>
        <time>2021-06-27T13:25:58.074Z</time>
      </trkpt>
      <trkpt lat="45.54442" lon="6.05203">
        <ele>1236</ele>
        <time>2021-06-27T13:25:59.074Z</time>
      </trkpt>
      <trkpt lat="45.54442" lon="6.05204">
        <ele>1236</ele>
        <time>2021-06-27T13:26:00.074Z</time>
      </trkpt>
      <trkpt lat="45.54442" lon="6.05205">
        <ele>1236</ele>
        <time>2021-06-27T13:26:01.074Z</time>
      </trkpt>
      <trkpt lat="45.54442" lon="6.05205">
        <ele>1236</ele>
        <time>2021-06-27T13:26:02.074Z</time>
      </trkpt>
      <trkpt lat="45.54443" lon="6.05206">
        <ele>1235</ele>
        <time>2021-06-27T13:26:03.074Z</time>
      </trkpt>
      <trkpt lat="45.54443" lon="6.05206">
        <ele>1235</ele>
        <time>2021-06-27T13:26:04.074Z</time>
      </trkpt>
      <trkpt lat="45.54443" lon="6.05206">
        <ele>1234</ele>
        <time>2021-06-27T13:26:05.073Z</time>
      </trkpt>
      <trkpt lat="45.54443" lon="6.05207">
        <ele>1233</ele>
        <time>2021-06-27T13:26:06.074Z</time>
      </trkpt>
      <trkpt lat="45.54442" lon="6.05207">
        <ele>1231</ele>
        <time>2021-06-27T13:26:07.074Z</time>
      </trkpt>
      <trkpt lat="45.54442" lon="6.05207">
        <ele>1230</ele>
        <time>2021-06-27T13:26:08.073Z</time>
      </trkpt>
      <trkpt lat="45.54443" lon="6.05208">
        <ele>1229</ele>
        <time>2021-06-27T13:26:09.073Z</time>
      </trkpt>
      <trkpt lat="45.54442" lon="6.05208">
        <ele>1228</ele>
        <time>2021-06-27T13:26:10.073Z</time>
      </trkpt>
      <trkpt lat="45.54442" lon="6.05208">
        <ele>1227</ele>
        <time>2021-06-27T13:26:11.074Z</time>
      </trkpt>
      <trkpt lat="45.54441" lon="6.0521">
        <ele>1227</ele>
        <time>2021-06-27T13:26:12.074Z</time>
      </trkpt>
      <trkpt lat="45.5444" lon="6.05211">
        <ele>1227</ele>
        <time>2021-06-27T13:26:13.073Z</time>
      </trkpt>
      <trkpt lat="45.54439" lon="6.05212">
        <ele>1227</ele>
        <time>2021-06-27T13:26:14.074Z</time>
      </trkpt>
      <trkpt lat="45.54439" lon="6.05213">
        <ele>1227</ele>
        <time>2021-06-27T13:26:15.074Z</time>
      </trkpt>
      <trkpt lat="45.54438" lon="6.05214">
        <ele>1227</ele>
        <time>2021-06-27T13:26:16.074Z</time>
      </trkpt>
      <trkpt lat="45.54438" lon="6.05214">
        <ele>1226</ele>
        <time>2021-06-27T13:26:17.074Z</time>
      </trkpt>
      <trkpt lat="45.54437" lon="6.05214">
        <ele>1226</ele>
        <time>2021-06-27T13:26:18.073Z</time>
      </trkpt>
      <trkpt lat="45.54437" lon="6.05214">
        <ele>1226</ele>
        <time>2021-06-27T13:26:19.073Z</time>
      </trkpt>
      <trkpt lat="45.54437" lon="6.05215">
        <ele>1227</ele>
        <time>2021-06-27T13:26:20.074Z</time>
      </trkpt>
      <trkpt lat="45.54437" lon="6.05216">
        <ele>1227</ele>
        <time>2021-06-27T13:26:21.074Z</time>
      </trkpt>
      <trkpt lat="45.54437" lon="6.05217">
        <ele>1227</ele>
        <time>2021-06-27T13:26:22.074Z</time>
      </trkpt>
      <trkpt lat="45.54437" lon="6.05217">
        <ele>1227</ele>
        <time>2021-06-27T13:26:23.074Z</time>
      </trkpt>
      <trkpt lat="45.54437" lon="6.05217">
        <ele>1227</ele>
        <time>2021-06-27T13:26:24.074Z</time>
      </trkpt>
      <trkpt lat="45.54437" lon="6.05218">
        <ele>1227</ele>
        <time>2021-06-27T13:26:25.074Z</time>
      </trkpt>
      <trkpt lat="45.54436" lon="6.05218">
        <ele>1227</ele>
        <time>2021-06-27T13:26:26.074Z</time>
      </trkpt>
      <trkpt lat="45.54436" lon="6.05217">
        <ele>1227</ele>
        <time>2021-06-27T13:26:27.074Z</time>
      </trkpt>
      <trkpt lat="45.54435" lon="6.05218">
        <ele>1227</ele>
        <time>2021-06-27T13:26:28.074Z</time>
      </trkpt>
      <trkpt lat="45.54435" lon="6.05218">
        <ele>1227</ele>
        <time>2021-06-27T13:26:29.074Z</time>
      </trkpt>
      <trkpt lat="45.54435" lon="6.05219">
        <ele>1228</ele>
        <time>2021-06-27T13:26:30.074Z</time>
      </trkpt>
      <trkpt lat="45.54435" lon="6.0522">
        <ele>1227</ele>
        <time>2021-06-27T13:26:31.074Z</time>
      </trkpt>
      <trkpt lat="45.54434" lon="6.05221">
        <ele>1227</ele>
        <time>2021-06-27T13:26:32.074Z</time>
      </trkpt>
      <trkpt lat="45.54434" lon="6.05222">
        <ele>1227</ele>
        <time>2021-06-27T13:26:33.074Z</time>
      </trkpt>
      <trkpt lat="45.54434" lon="6.05223">
        <ele>1227</ele>
        <time>2021-06-27T13:26:34.074Z</time>
      </trkpt>
      <trkpt lat="45.54433" lon="6.05224">
        <ele>1227</ele>
        <time>2021-06-27T13:26:35.074Z</time>
      </trkpt>
      <trkpt lat="45.54433" lon="6.05226">
        <ele>1227</ele>
        <time>2021-06-27T13:26:36.074Z</time>
      </trkpt>
      <trkpt lat="45.54433" lon="6.05228">
        <ele>1227</ele>
        <time>2021-06-27T13:26:37.074Z</time>
      </trkpt>
      <trkpt lat="45.54433" lon="6.05229">
        <ele>1227</ele>
        <time>2021-06-27T13:26:38.074Z</time>
      </trkpt>
      <trkpt lat="45.54433" lon="6.05231">
        <ele>1227</ele>
        <time>2021-06-27T13:26:39.074Z</time>
      </trkpt>
      <trkpt lat="45.54432" lon="6.05231">
        <ele>1227</ele>
        <time>2021-06-27T13:26:40.074Z</time>
      </trkpt>
      <trkpt lat="45.54432" lon="6.05232">
        <ele>1226</ele>
        <time>2021-06-27T13:26:41.074Z</time>
      </trkpt>
      <trkpt lat="45.54431" lon="6.05232">
        <ele>1226</ele>
        <time>2021-06-27T13:26:42.074Z</time>
      </trkpt>
      <trkpt lat="45.5443" lon="6.05232">
        <ele>1226</ele>
        <time>2021-06-27T13:26:43.073Z</time>
      </trkpt>
      <trkpt lat="45.54429" lon="6.05233">
        <ele>1226</ele>
        <time>2021-06-27T13:26:44.073Z</time>
      </trkpt>
      <trkpt lat="45.54429" lon="6.05233">
        <ele>1225</ele>
        <time>2021-06-27T13:26:45.073Z</time>
      </trkpt>
      <trkpt lat="45.54428" lon="6.05234">
        <ele>1225</ele>
        <time>2021-06-27T13:26:46.074Z</time>
      </trkpt>
      <trkpt lat="45.54427" lon="6.05234">
        <ele>1225</ele>
        <time>2021-06-27T13:26:47.074Z</time>
      </trkpt>
      <trkpt lat="45.54427" lon="6.05234">
        <ele>1225</ele>
        <time>2021-06-27T13:26:48.074Z</time>
      </trkpt>
      <trkpt lat="45.54425" lon="6.05235">
        <ele>1224</ele>
        <time>2021-06-27T13:26:49.074Z</time>
      </trkpt>
      <trkpt lat="45.54424" lon="6.05236">
        <ele>1223</ele>
        <time>2021-06-27T13:26:50.074Z</time>
      </trkpt>
      <trkpt lat="45.54422" lon="6.05236">
        <ele>1223</ele>
        <time>2021-06-27T13:26:51.074Z</time>
      </trkpt>
      <trkpt lat="45.54421" lon="6.05236">
        <ele>1223</ele>
        <time>2021-06-27T13:26:52.074Z</time>
      </trkpt>
      <trkpt lat="45.54419" lon="6.05235">
        <ele>1222</ele>
        <time>2021-06-27T13:26:53.073Z</time>
      </trkpt>
      <trkpt lat="45.54418" lon="6.05236">
        <ele>1222</ele>
        <time>2021-06-27T13:26:54.073Z</time>
      </trkpt>
      <trkpt lat="45.54418" lon="6.05236">
        <ele>1222</ele>
        <time>2021-06-27T13:26:55.074Z</time>
      </trkpt>
      <trkpt lat="45.54417" lon="6.05236">
        <ele>1222</ele>
        <time>2021-06-27T13:26:56.074Z</time>
      </trkpt>
      <trkpt lat="45.54416" lon="6.05237">
        <ele>1222</ele>
        <time>2021-06-27T13:26:57.074Z</time>
      </trkpt>
      <trkpt lat="45.54416" lon="6.05237">
        <ele>1222</ele>
        <time>2021-06-27T13:26:58.074Z</time>
      </trkpt>
      <trkpt lat="45.54415" lon="6.05238">
        <ele>1222</ele>
        <time>2021-06-27T13:26:59.074Z</time>
      </trkpt>
      <trkpt lat="45.54415" lon="6.05238">
        <ele>1222</ele>
        <time>2021-06-27T13:27:00.073Z</time>
      </trkpt>
      <trkpt lat="45.54415" lon="6.05238">
        <ele>1222</ele>
        <time>2021-06-27T13:27:01.074Z</time>
      </trkpt>
      <trkpt lat="45.54415" lon="6.05238">
        <ele>1221</ele>
        <time>2021-06-27T13:27:02.073Z</time>
      </trkpt>
      <trkpt lat="45.54415" lon="6.05238">
        <ele>1220</ele>
        <time>2021-06-27T13:27:03.074Z</time>
      </trkpt>
      <trkpt lat="45.54415" lon="6.05239">
        <ele>1219</ele>
        <time>2021-06-27T13:27:04.074Z</time>
      </trkpt>
      <trkpt lat="45.54415" lon="6.05239">
        <ele>1218</ele>
        <time>2021-06-27T13:27:05.074Z</time>
      </trkpt>
      <trkpt lat="45.54415" lon="6.05239">
        <ele>1218</ele>
        <time>2021-06-27T13:27:06.074Z</time>
      </trkpt>
      <trkpt lat="45.54415" lon="6.0524">
        <ele>1217</ele>
        <time>2021-06-27T13:27:07.074Z</time>
      </trkpt>
      <trkpt lat="45.54415" lon="6.05241">
        <ele>1217</ele>
        <time>2021-06-27T13:27:08.074Z</time>
      </trkpt>
      <trkpt lat="45.54414" lon="6.05241">
        <ele>1217</ele>
        <time>2021-06-27T13:27:09.074Z</time>
      </trkpt>
      <trkpt lat="45.54413" lon="6.05242">
        <ele>1216</ele>
        <time>2021-06-27T13:27:10.074Z</time>
      </trkpt>
      <trkpt lat="45.54413" lon="6.05242">
        <ele>1216</ele>
        <time>2021-06-27T13:27:11.073Z</time>
      </trkpt>
      <trkpt lat="45.54412" lon="6.05242">
        <ele>1216</ele>
        <time>2021-06-27T13:27:12.074Z</time>
      </trkpt>
      <trkpt lat="45.54411" lon="6.05242">
        <ele>1216</ele>
        <time>2021-06-27T13:27:13.073Z</time>
      </trkpt>
      <trkpt lat="45.5441" lon="6.05242">
        <ele>1217</ele>
        <time>2021-06-27T13:27:14.073Z</time>
      </trkpt>
      <trkpt lat="45.5441" lon="6.05243">
        <ele>1217</ele>
        <time>2021-06-27T13:27:15.074Z</time>
      </trkpt>
      <trkpt lat="45.5441" lon="6.05244">
        <ele>1218</ele>
        <time>2021-06-27T13:27:16.073Z</time>
      </trkpt>
      <trkpt lat="45.54409" lon="6.05244">
        <ele>1218</ele>
        <time>2021-06-27T13:27:17.073Z</time>
      </trkpt>
      <trkpt lat="45.54409" lon="6.05245">
        <ele>1218</ele>
        <time>2021-06-27T13:27:18.073Z</time>
      </trkpt>
      <trkpt lat="45.54408" lon="6.05246">
        <ele>1218</ele>
        <time>2021-06-27T13:27:19.074Z</time>
      </trkpt>
      <trkpt lat="45.54407" lon="6.05247">
        <ele>1218</ele>
        <time>2021-06-27T13:27:20.074Z</time>
      </trkpt>
      <trkpt lat="45.54407" lon="6.05247">
        <ele>1219</ele>
        <time>2021-06-27T13:27:21.073Z</time>
      </trkpt>
      <trkpt lat="45.54406" lon="6.05247">
        <ele>1219</ele>
        <time>2021-06-27T13:27:22.074Z</time>
      </trkpt>
      <trkpt lat="45.54406" lon="6.05247">
        <ele>1219</ele>
        <time>2021-06-27T13:27:23.074Z</time>
      </trkpt>
      <trkpt lat="45.54405" lon="6.05248">
        <ele>1219</ele>
        <time>2021-06-27T13:27:24.074Z</time>
      </trkpt>
      <trkpt lat="45.54404" lon="6.05249">
        <ele>1219</ele>
        <time>2021-06-27T13:27:25.074Z</time>
      </trkpt>
      <trkpt lat="45.54403" lon="6.0525">
        <ele>1219</ele>
        <time>2021-06-27T13:27:26.074Z</time>
      </trkpt>
      <trkpt lat="45.54402" lon="6.0525">
        <ele>1219</ele>
        <time>2021-06-27T13:27:27.074Z</time>
      </trkpt>
      <trkpt lat="45.54402" lon="6.05251">
        <ele>1219</ele>
        <time>2021-06-27T13:27:28.074Z</time>
      </trkpt>
      <trkpt lat="45.54401" lon="6.05252">
        <ele>1218</ele>
        <time>2021-06-27T13:27:29.074Z</time>
      </trkpt>
      <trkpt lat="45.544" lon="6.05253">
        <ele>1218</ele>
        <time>2021-06-27T13:27:30.074Z</time>
      </trkpt>
      <trkpt lat="45.544" lon="6.05253">
        <ele>1217</ele>
        <time>2021-06-27T13:27:31.074Z</time>
      </trkpt>
      <trkpt lat="45.54399" lon="6.05254">
        <ele>1216</ele>
        <time>2021-06-27T13:27:32.074Z</time>
      </trkpt>
      <trkpt lat="45.54398" lon="6.05255">
        <ele>1216</ele>
        <time>2021-06-27T13:27:33.074Z</time>
      </trkpt>
      <trkpt lat="45.54397" lon="6.05256">
        <ele>1216</ele>
        <time>2021-06-27T13:27:34.074Z</time>
      </trkpt>
      <trkpt lat="45.54397" lon="6.05257">
        <ele>1215</ele>
        <time>2021-06-27T13:27:35.074Z</time>
      </trkpt>
      <trkpt lat="45.54396" lon="6.05258">
        <ele>1215</ele>
        <time>2021-06-27T13:27:36.073Z</time>
      </trkpt>
      <trkpt lat="45.54396" lon="6.05259">
        <ele>1214</ele>
        <time>2021-06-27T13:27:37.074Z</time>
      </trkpt>
      <trkpt lat="45.54395" lon="6.0526">
        <ele>1214</ele>
        <time>2021-06-27T13:27:38.073Z</time>
      </trkpt>
      <trkpt lat="45.54395" lon="6.05261">
        <ele>1214</ele>
        <time>2021-06-27T13:27:39.074Z</time>
      </trkpt>
      <trkpt lat="45.54394" lon="6.05262">
        <ele>1214</ele>
        <time>2021-06-27T13:27:40.073Z</time>
      </trkpt>
      <trkpt lat="45.54393" lon="6.05264">
        <ele>1215</ele>
        <time>2021-06-27T13:27:41.074Z</time>
      </trkpt>
      <trkpt lat="45.54392" lon="6.05266">
        <ele>1215</ele>
        <time>2021-06-27T13:27:42.074Z</time>
      </trkpt>
      <trkpt lat="45.54391" lon="6.05267">
        <ele>1215</ele>
        <time>2021-06-27T13:27:43.074Z</time>
      </trkpt>
      <trkpt lat="45.5439" lon="6.05269">
        <ele>1214</ele>
        <time>2021-06-27T13:27:44.074Z</time>
      </trkpt>
      <trkpt lat="45.54389" lon="6.0527">
        <ele>1214</ele>
        <time>2021-06-27T13:27:45.073Z</time>
      </trkpt>
      <trkpt lat="45.54388" lon="6.05273">
        <ele>1214</ele>
        <time>2021-06-27T13:27:46.074Z</time>
      </trkpt>
      <trkpt lat="45.54387" lon="6.05274">
        <ele>1214</ele>
        <time>2021-06-27T13:27:47.074Z</time>
      </trkpt>
      <trkpt lat="45.54386" lon="6.05275">
        <ele>1214</ele>
        <time>2021-06-27T13:27:48.073Z</time>
      </trkpt>
      <trkpt lat="45.54385" lon="6.05275">
        <ele>1214</ele>
        <time>2021-06-27T13:27:49.073Z</time>
      </trkpt>
      <trkpt lat="45.54385" lon="6.05277">
        <ele>1214</ele>
        <time>2021-06-27T13:27:50.073Z</time>
      </trkpt>
      <trkpt lat="45.54384" lon="6.05279">
        <ele>1214</ele>
        <time>2021-06-27T13:27:51.074Z</time>
      </trkpt>
      <trkpt lat="45.54384" lon="6.0528">
        <ele>1215</ele>
        <time>2021-06-27T13:27:52.074Z</time>
      </trkpt>
      <trkpt lat="45.54384" lon="6.0528">
        <ele>1215</ele>
        <time>2021-06-27T13:27:53.074Z</time>
      </trkpt>
      <trkpt lat="45.54384" lon="6.05281">
        <ele>1215</ele>
        <time>2021-06-27T13:27:54.074Z</time>
      </trkpt>
      <trkpt lat="45.54383" lon="6.05283">
        <ele>1215</ele>
        <time>2021-06-27T13:27:55.074Z</time>
      </trkpt>
      <trkpt lat="45.54383" lon="6.05284">
        <ele>1215</ele>
        <time>2021-06-27T13:27:56.074Z</time>
      </trkpt>
      <trkpt lat="45.54382" lon="6.05285">
        <ele>1215</ele>
        <time>2021-06-27T13:27:57.074Z</time>
      </trkpt>
      <trkpt lat="45.54381" lon="6.05285">
        <ele>1215</ele>
        <time>2021-06-27T13:27:58.074Z</time>
      </trkpt>
      <trkpt lat="45.54381" lon="6.05286">
        <ele>1215</ele>
        <time>2021-06-27T13:27:59.074Z</time>
      </trkpt>
      <trkpt lat="45.54381" lon="6.05288">
        <ele>1215</ele>
        <time>2021-06-27T13:28:00.074Z</time>
      </trkpt>
      <trkpt lat="45.54381" lon="6.05289">
        <ele>1215</ele>
        <time>2021-06-27T13:28:01.074Z</time>
      </trkpt>
      <trkpt lat="45.54381" lon="6.0529">
        <ele>1216</ele>
        <time>2021-06-27T13:28:02.074Z</time>
      </trkpt>
      <trkpt lat="45.54381" lon="6.05291">
        <ele>1216</ele>
        <time>2021-06-27T13:28:03.073Z</time>
      </trkpt>
      <trkpt lat="45.54381" lon="6.05292">
        <ele>1216</ele>
        <time>2021-06-27T13:28:04.074Z</time>
      </trkpt>
      <trkpt lat="45.5438" lon="6.05292">
        <ele>1216</ele>
        <time>2021-06-27T13:28:05.073Z</time>
      </trkpt>
      <trkpt lat="45.54379" lon="6.05293">
        <ele>1216</ele>
        <time>2021-06-27T13:28:06.074Z</time>
      </trkpt>
      <trkpt lat="45.54378" lon="6.05294">
        <ele>1216</ele>
        <time>2021-06-27T13:28:07.074Z</time>
      </trkpt>
      <trkpt lat="45.54378" lon="6.05295">
        <ele>1216</ele>
        <time>2021-06-27T13:28:08.074Z</time>
      </trkpt>
      <trkpt lat="45.54378" lon="6.05297">
        <ele>1216</ele>
        <time>2021-06-27T13:28:09.073Z</time>
      </trkpt>
      <trkpt lat="45.54378" lon="6.05299">
        <ele>1216</ele>
        <time>2021-06-27T13:28:10.073Z</time>
      </trkpt>
      <trkpt lat="45.54378" lon="6.05301">
        <ele>1216</ele>
        <time>2021-06-27T13:28:11.074Z</time>
      </trkpt>
      <trkpt lat="45.54377" lon="6.05303">
        <ele>1216</ele>
        <time>2021-06-27T13:28:12.073Z</time>
      </trkpt>
      <trkpt lat="45.54377" lon="6.05304">
        <ele>1216</ele>
        <time>2021-06-27T13:28:13.074Z</time>
      </trkpt>
      <trkpt lat="45.54376" lon="6.05306">
        <ele>1216</ele>
        <time>2021-06-27T13:28:14.073Z</time>
      </trkpt>
      <trkpt lat="45.54375" lon="6.05306">
        <ele>1216</ele>
        <time>2021-06-27T13:28:15.074Z</time>
      </trkpt>
      <trkpt lat="45.54374" lon="6.05307">
        <ele>1216</ele>
        <time>2021-06-27T13:28:16.074Z</time>
      </trkpt>
      <trkpt lat="45.54374" lon="6.05308">
        <ele>1217</ele>
        <time>2021-06-27T13:28:17.074Z</time>
      </trkpt>
      <trkpt lat="45.54373" lon="6.05309">
        <ele>1217</ele>
        <time>2021-06-27T13:28:18.074Z</time>
      </trkpt>
      <trkpt lat="45.54373" lon="6.0531">
        <ele>1217</ele>
        <time>2021-06-27T13:28:19.074Z</time>
      </trkpt>
      <trkpt lat="45.54372" lon="6.05311">
        <ele>1217</ele>
        <time>2021-06-27T13:28:20.073Z</time>
      </trkpt>
      <trkpt lat="45.54372" lon="6.05312">
        <ele>1217</ele>
        <time>2021-06-27T13:28:21.074Z</time>
      </trkpt>
      <trkpt lat="45.54371" lon="6.05313">
        <ele>1217</ele>
        <time>2021-06-27T13:28:22.074Z</time>
      </trkpt>
      <trkpt lat="45.54371" lon="6.05314">
        <ele>1218</ele>
        <time>2021-06-27T13:28:23.074Z</time>
      </trkpt>
      <trkpt lat="45.54371" lon="6.05316">
        <ele>1218</ele>
        <time>2021-06-27T13:28:24.073Z</time>
      </trkpt>
      <trkpt lat="45.54371" lon="6.05318">
        <ele>1218</ele>
        <time>2021-06-27T13:28:25.074Z</time>
      </trkpt>
      <trkpt lat="45.5437" lon="6.0532">
        <ele>1218</ele>
        <time>2021-06-27T13:28:26.073Z</time>
      </trkpt>
      <trkpt lat="45.54369" lon="6.05321">
        <ele>1217</ele>
        <time>2021-06-27T13:28:27.074Z</time>
      </trkpt>
      <trkpt lat="45.54368" lon="6.05322">
        <ele>1217</ele>
        <time>2021-06-27T13:28:28.074Z</time>
      </trkpt>
      <trkpt lat="45.54368" lon="6.05324">
        <ele>1217</ele>
        <time>2021-06-27T13:28:29.074Z</time>
      </trkpt>
      <trkpt lat="45.54367" lon="6.05326">
        <ele>1217</ele>
        <time>2021-06-27T13:28:30.073Z</time>
      </trkpt>
      <trkpt lat="45.54367" lon="6.05329">
        <ele>1217</ele>
        <time>2021-06-27T13:28:31.074Z</time>
      </trkpt>
      <trkpt lat="45.54366" lon="6.05331">
        <ele>1217</ele>
        <time>2021-06-27T13:28:32.074Z</time>
      </trkpt>
      <trkpt lat="45.54366" lon="6.05332">
        <ele>1217</ele>
        <time>2021-06-27T13:28:33.074Z</time>
      </trkpt>
      <trkpt lat="45.54365" lon="6.05333">
        <ele>1217</ele>
        <time>2021-06-27T13:28:34.073Z</time>
      </trkpt>
      <trkpt lat="45.54364" lon="6.05335">
        <ele>1217</ele>
        <time>2021-06-27T13:28:35.073Z</time>
      </trkpt>
      <trkpt lat="45.54362" lon="6.05336">
        <ele>1217</ele>
        <time>2021-06-27T13:28:36.074Z</time>
      </trkpt>
      <trkpt lat="45.54361" lon="6.05336">
        <ele>1216</ele>
        <time>2021-06-27T13:28:37.074Z</time>
      </trkpt>
      <trkpt lat="45.5436" lon="6.05336">
        <ele>1216</ele>
        <time>2021-06-27T13:28:38.074Z</time>
      </trkpt>
      <trkpt lat="45.54359" lon="6.05337">
        <ele>1216</ele>
        <time>2021-06-27T13:28:39.074Z</time>
      </trkpt>
      <trkpt lat="45.54358" lon="6.05338">
        <ele>1215</ele>
        <time>2021-06-27T13:28:40.073Z</time>
      </trkpt>
      <trkpt lat="45.54358" lon="6.0534">
        <ele>1215</ele>
        <time>2021-06-27T13:28:41.074Z</time>
      </trkpt>
      <trkpt lat="45.54359" lon="6.05342">
        <ele>1215</ele>
        <time>2021-06-27T13:28:42.074Z</time>
      </trkpt>
      <trkpt lat="45.54359" lon="6.05343">
        <ele>1214</ele>
        <time>2021-06-27T13:28:43.073Z</time>
      </trkpt>
      <trkpt lat="45.54358" lon="6.05344">
        <ele>1214</ele>
        <time>2021-06-27T13:28:44.073Z</time>
      </trkpt>
      <trkpt lat="45.54358" lon="6.05346">
        <ele>1214</ele>
        <time>2021-06-27T13:28:45.074Z</time>
      </trkpt>
      <trkpt lat="45.54358" lon="6.05347">
        <ele>1214</ele>
        <time>2021-06-27T13:28:46.074Z</time>
      </trkpt>
      <trkpt lat="45.54358" lon="6.05348">
        <ele>1213</ele>
        <time>2021-06-27T13:28:47.074Z</time>
      </trkpt>
      <trkpt lat="45.54358" lon="6.0535">
        <ele>1213</ele>
        <time>2021-06-27T13:28:48.074Z</time>
      </trkpt>
      <trkpt lat="45.54358" lon="6.05351">
        <ele>1212</ele>
        <time>2021-06-27T13:28:49.074Z</time>
      </trkpt>
      <trkpt lat="45.54357" lon="6.05352">
        <ele>1212</ele>
        <time>2021-06-27T13:28:50.074Z</time>
      </trkpt>
      <trkpt lat="45.54357" lon="6.05354">
        <ele>1212</ele>
        <time>2021-06-27T13:28:51.074Z</time>
      </trkpt>
      <trkpt lat="45.54357" lon="6.05355">
        <ele>1211</ele>
        <time>2021-06-27T13:28:52.074Z</time>
      </trkpt>
      <trkpt lat="45.54357" lon="6.05357">
        <ele>1211</ele>
        <time>2021-06-27T13:28:53.074Z</time>
      </trkpt>
      <trkpt lat="45.54357" lon="6.05359">
        <ele>1210</ele>
        <time>2021-06-27T13:28:54.074Z</time>
      </trkpt>
      <trkpt lat="45.54357" lon="6.05361">
        <ele>1210</ele>
        <time>2021-06-27T13:28:55.074Z</time>
      </trkpt>
      <trkpt lat="45.54357" lon="6.05362">
        <ele>1209</ele>
        <time>2021-06-27T13:28:56.074Z</time>
      </trkpt>
      <trkpt lat="45.54358" lon="6.05364">
        <ele>1209</ele>
        <time>2021-06-27T13:28:57.074Z</time>
      </trkpt>
      <trkpt lat="45.54358" lon="6.05366">
        <ele>1208</ele>
        <time>2021-06-27T13:28:58.074Z</time>
      </trkpt>
      <trkpt lat="45.54358" lon="6.05367">
        <ele>1208</ele>
        <time>2021-06-27T13:28:59.073Z</time>
      </trkpt>
      <trkpt lat="45.54358" lon="6.05367">
        <ele>1207</ele>
        <time>2021-06-27T13:29:00.074Z</time>
      </trkpt>
      <trkpt lat="45.54358" lon="6.05368">
        <ele>1207</ele>
        <time>2021-06-27T13:29:01.074Z</time>
      </trkpt>
      <trkpt lat="45.54358" lon="6.05368">
        <ele>1207</ele>
        <time>2021-06-27T13:29:02.073Z</time>
      </trkpt>
      <trkpt lat="45.54358" lon="6.05368">
        <ele>1207</ele>
        <time>2021-06-27T13:29:03.073Z</time>
      </trkpt>
      <trkpt lat="45.54357" lon="6.05369">
        <ele>1206</ele>
        <time>2021-06-27T13:29:04.074Z</time>
      </trkpt>
      <trkpt lat="45.54356" lon="6.05367">
        <ele>1206</ele>
        <time>2021-06-27T13:29:05.074Z</time>
      </trkpt>
      <trkpt lat="45.54354" lon="6.05366">
        <ele>1206</ele>
        <time>2021-06-27T13:29:06.074Z</time>
      </trkpt>
      <trkpt lat="45.54354" lon="6.05366">
        <ele>1205</ele>
        <time>2021-06-27T13:29:07.074Z</time>
      </trkpt>
      <trkpt lat="45.54354" lon="6.05367">
        <ele>1205</ele>
        <time>2021-06-27T13:29:08.073Z</time>
      </trkpt>
      <trkpt lat="45.54354" lon="6.05368">
        <ele>1205</ele>
        <time>2021-06-27T13:29:09.074Z</time>
      </trkpt>
      <trkpt lat="45.54354" lon="6.0537">
        <ele>1205</ele>
        <time>2021-06-27T13:29:10.074Z</time>
      </trkpt>
      <trkpt lat="45.54354" lon="6.05371">
        <ele>1204</ele>
        <time>2021-06-27T13:29:11.074Z</time>
      </trkpt>
      <trkpt lat="45.54353" lon="6.05372">
        <ele>1204</ele>
        <time>2021-06-27T13:29:12.074Z</time>
      </trkpt>
      <trkpt lat="45.54353" lon="6.05374">
        <ele>1204</ele>
        <time>2021-06-27T13:29:13.074Z</time>
      </trkpt>
      <trkpt lat="45.54352" lon="6.05375">
        <ele>1204</ele>
        <time>2021-06-27T13:29:14.073Z</time>
      </trkpt>
      <trkpt lat="45.54352" lon="6.05376">
        <ele>1204</ele>
        <time>2021-06-27T13:29:15.074Z</time>
      </trkpt>
      <trkpt lat="45.54351" lon="6.05378">
        <ele>1204</ele>
        <time>2021-06-27T13:29:16.073Z</time>
      </trkpt>
      <trkpt lat="45.54351" lon="6.05379">
        <ele>1204</ele>
        <time>2021-06-27T13:29:17.074Z</time>
      </trkpt>
      <trkpt lat="45.54351" lon="6.0538">
        <ele>1204</ele>
        <time>2021-06-27T13:29:18.074Z</time>
      </trkpt>
      <trkpt lat="45.5435" lon="6.05381">
        <ele>1203</ele>
        <time>2021-06-27T13:29:19.074Z</time>
      </trkpt>
      <trkpt lat="45.5435" lon="6.05382">
        <ele>1203</ele>
        <time>2021-06-27T13:29:20.074Z</time>
      </trkpt>
      <trkpt lat="45.54349" lon="6.05383">
        <ele>1202</ele>
        <time>2021-06-27T13:29:21.074Z</time>
      </trkpt>
      <trkpt lat="45.54349" lon="6.05384">
        <ele>1202</ele>
        <time>2021-06-27T13:29:22.073Z</time>
      </trkpt>
      <trkpt lat="45.54348" lon="6.05385">
        <ele>1201</ele>
        <time>2021-06-27T13:29:23.074Z</time>
      </trkpt>
      <trkpt lat="45.54347" lon="6.05386">
        <ele>1200</ele>
        <time>2021-06-27T13:29:24.074Z</time>
      </trkpt>
      <trkpt lat="45.54347" lon="6.05387">
        <ele>1200</ele>
        <time>2021-06-27T13:29:25.074Z</time>
      </trkpt>
      <trkpt lat="45.54346" lon="6.05387">
        <ele>1199</ele>
        <time>2021-06-27T13:29:26.073Z</time>
      </trkpt>
      <trkpt lat="45.54345" lon="6.05389">
        <ele>1199</ele>
        <time>2021-06-27T13:29:27.074Z</time>
      </trkpt>
      <trkpt lat="45.54344" lon="6.0539">
        <ele>1199</ele>
        <time>2021-06-27T13:29:28.074Z</time>
      </trkpt>
      <trkpt lat="45.54344" lon="6.05392">
        <ele>1199</ele>
        <time>2021-06-27T13:29:29.074Z</time>
      </trkpt>
      <trkpt lat="45.54343" lon="6.05394">
        <ele>1199</ele>
        <time>2021-06-27T13:29:30.073Z</time>
      </trkpt>
      <trkpt lat="45.54343" lon="6.05395">
        <ele>1199</ele>
        <time>2021-06-27T13:29:31.074Z</time>
      </trkpt>
      <trkpt lat="45.54341" lon="6.05398">
        <ele>1199</ele>
        <time>2021-06-27T13:29:32.074Z</time>
      </trkpt>
      <trkpt lat="45.54341" lon="6.05399">
        <ele>1199</ele>
        <time>2021-06-27T13:29:33.073Z</time>
      </trkpt>
      <trkpt lat="45.5434" lon="6.05402">
        <ele>1199</ele>
        <time>2021-06-27T13:29:34.074Z</time>
      </trkpt>
      <trkpt lat="45.54339" lon="6.05403">
        <ele>1199</ele>
        <time>2021-06-27T13:29:35.074Z</time>
      </trkpt>
      <trkpt lat="45.54339" lon="6.05405">
        <ele>1200</ele>
        <time>2021-06-27T13:29:36.073Z</time>
      </trkpt>
      <trkpt lat="45.54338" lon="6.05407">
        <ele>1200</ele>
        <time>2021-06-27T13:29:37.074Z</time>
      </trkpt>
      <trkpt lat="45.54338" lon="6.05408">
        <ele>1200</ele>
        <time>2021-06-27T13:29:38.074Z</time>
      </trkpt>
      <trkpt lat="45.54338" lon="6.0541">
        <ele>1200</ele>
        <time>2021-06-27T13:29:39.073Z</time>
      </trkpt>
      <trkpt lat="45.54338" lon="6.05411">
        <ele>1200</ele>
        <time>2021-06-27T13:29:40.074Z</time>
      </trkpt>
      <trkpt lat="45.54338" lon="6.05412">
        <ele>1200</ele>
        <time>2021-06-27T13:29:41.074Z</time>
      </trkpt>
      <trkpt lat="45.54338" lon="6.05414">
        <ele>1200</ele>
        <time>2021-06-27T13:29:42.073Z</time>
      </trkpt>
      <trkpt lat="45.54337" lon="6.05415">
        <ele>1199</ele>
        <time>2021-06-27T13:29:43.074Z</time>
      </trkpt>
      <trkpt lat="45.54337" lon="6.05416">
        <ele>1199</ele>
        <time>2021-06-27T13:29:44.074Z</time>
      </trkpt>
      <trkpt lat="45.54337" lon="6.05418">
        <ele>1199</ele>
        <time>2021-06-27T13:29:45.073Z</time>
      </trkpt>
      <trkpt lat="45.54336" lon="6.05419">
        <ele>1199</ele>
        <time>2021-06-27T13:29:46.074Z</time>
      </trkpt>
      <trkpt lat="45.54336" lon="6.05421">
        <ele>1198</ele>
        <time>2021-06-27T13:29:47.074Z</time>
      </trkpt>
      <trkpt lat="45.54335" lon="6.05422">
        <ele>1198</ele>
        <time>2021-06-27T13:29:48.074Z</time>
      </trkpt>
      <trkpt lat="45.54335" lon="6.05424">
        <ele>1198</ele>
        <time>2021-06-27T13:29:49.074Z</time>
      </trkpt>
      <trkpt lat="45.54335" lon="6.05424">
        <ele>1197</ele>
        <time>2021-06-27T13:29:50.074Z</time>
      </trkpt>
      <trkpt lat="45.54334" lon="6.05424">
        <ele>1197</ele>
        <time>2021-06-27T13:29:51.073Z</time>
      </trkpt>
      <trkpt lat="45.54334" lon="6.05424">
        <ele>1197</ele>
        <time>2021-06-27T13:29:52.074Z</time>
      </trkpt>
      <trkpt lat="45.54333" lon="6.05424">
        <ele>1196</ele>
        <time>2021-06-27T13:29:53.074Z</time>
      </trkpt>
      <trkpt lat="45.54333" lon="6.05424">
        <ele>1196</ele>
        <time>2021-06-27T13:29:54.073Z</time>
      </trkpt>
      <trkpt lat="45.54333" lon="6.05424">
        <ele>1196</ele>
        <time>2021-06-27T13:29:55.074Z</time>
      </trkpt>
      <trkpt lat="45.54333" lon="6.05425">
        <ele>1196</ele>
        <time>2021-06-27T13:29:56.073Z</time>
      </trkpt>
      <trkpt lat="45.54333" lon="6.05425">
        <ele>1195</ele>
        <time>2021-06-27T13:29:57.073Z</time>
      </trkpt>
      <trkpt lat="45.54333" lon="6.05425">
        <ele>1195</ele>
        <time>2021-06-27T13:29:58.074Z</time>
      </trkpt>
      <trkpt lat="45.54333" lon="6.05424">
        <ele>1194</ele>
        <time>2021-06-27T13:29:59.074Z</time>
      </trkpt>
      <trkpt lat="45.54333" lon="6.05424">
        <ele>1193</ele>
        <time>2021-06-27T13:30:00.074Z</time>
      </trkpt>
      <trkpt lat="45.54334" lon="6.05424">
        <ele>1192</ele>
        <time>2021-06-27T13:30:01.073Z</time>
      </trkpt>
      <trkpt lat="45.54334" lon="6.05424">
        <ele>1191</ele>
        <time>2021-06-27T13:30:02.074Z</time>
      </trkpt>
      <trkpt lat="45.54333" lon="6.05424">
        <ele>1190</ele>
        <time>2021-06-27T13:30:03.074Z</time>
      </trkpt>
      <trkpt lat="45.54333" lon="6.05424">
        <ele>1190</ele>
        <time>2021-06-27T13:30:04.074Z</time>
      </trkpt>
      <trkpt lat="45.54333" lon="6.05424">
        <ele>1190</ele>
        <time>2021-06-27T13:30:05.074Z</time>
      </trkpt>
      <trkpt lat="45.54333" lon="6.05424">
        <ele>1189</ele>
        <time>2021-06-27T13:30:06.073Z</time>
      </trkpt>
      <trkpt lat="45.54333" lon="6.05424">
        <ele>1189</ele>
        <time>2021-06-27T13:30:07.074Z</time>
      </trkpt>
      <trkpt lat="45.54334" lon="6.05424">
        <ele>1188</ele>
        <time>2021-06-27T13:30:08.074Z</time>
      </trkpt>
      <trkpt lat="45.54334" lon="6.05425">
        <ele>1187</ele>
        <time>2021-06-27T13:30:09.073Z</time>
      </trkpt>
      <trkpt lat="45.54334" lon="6.05425">
        <ele>1186</ele>
        <time>2021-06-27T13:30:10.074Z</time>
      </trkpt>
      <trkpt lat="45.54334" lon="6.05425">
        <ele>1186</ele>
        <time>2021-06-27T13:30:11.074Z</time>
      </trkpt>
      <trkpt lat="45.54334" lon="6.05424">
        <ele>1185</ele>
        <time>2021-06-27T13:30:12.073Z</time>
      </trkpt>
      <trkpt lat="45.54335" lon="6.05424">
        <ele>1184</ele>
        <time>2021-06-27T13:30:13.074Z</time>
      </trkpt>
      <trkpt lat="45.54335" lon="6.05424">
        <ele>1184</ele>
        <time>2021-06-27T13:30:14.074Z</time>
      </trkpt>
      <trkpt lat="45.54335" lon="6.05424">
        <ele>1183</ele>
        <time>2021-06-27T13:30:15.074Z</time>
      </trkpt>
      <trkpt lat="45.54335" lon="6.05425">
        <ele>1183</ele>
        <time>2021-06-27T13:30:16.074Z</time>
      </trkpt>
      <trkpt lat="45.54335" lon="6.05425">
        <ele>1182</ele>
        <time>2021-06-27T13:30:17.073Z</time>
      </trkpt>
      <trkpt lat="45.54335" lon="6.05425">
        <ele>1183</ele>
        <time>2021-06-27T13:30:18.074Z</time>
      </trkpt>
      <trkpt lat="45.54335" lon="6.05426">
        <ele>1184</ele>
        <time>2021-06-27T13:30:19.074Z</time>
      </trkpt>
      <trkpt lat="45.54335" lon="6.05426">
        <ele>1185</ele>
        <time>2021-06-27T13:30:20.074Z</time>
      </trkpt>
      <trkpt lat="45.54334" lon="6.05426">
        <ele>1186</ele>
        <time>2021-06-27T13:30:21.074Z</time>
      </trkpt>
      <trkpt lat="45.54334" lon="6.05426">
        <ele>1187</ele>
        <time>2021-06-27T13:30:22.074Z</time>
      </trkpt>
      <trkpt lat="45.54333" lon="6.05426">
        <ele>1187</ele>
        <time>2021-06-27T13:30:23.073Z</time>
      </trkpt>
      <trkpt lat="45.54333" lon="6.05426">
        <ele>1188</ele>
        <time>2021-06-27T13:30:24.074Z</time>
      </trkpt>
      <trkpt lat="45.54333" lon="6.05426">
        <ele>1189</ele>
        <time>2021-06-27T13:30:25.074Z</time>
      </trkpt>
      <trkpt lat="45.54333" lon="6.05427">
        <ele>1190</ele>
        <time>2021-06-27T13:30:26.073Z</time>
      </trkpt>
      <trkpt lat="45.54333" lon="6.05427">
        <ele>1190</ele>
        <time>2021-06-27T13:30:27.074Z</time>
      </trkpt>
      <trkpt lat="45.54333" lon="6.05427">
        <ele>1191</ele>
        <time>2021-06-27T13:30:28.074Z</time>
      </trkpt>
      <trkpt lat="45.54333" lon="6.05427">
        <ele>1191</ele>
        <time>2021-06-27T13:30:29.074Z</time>
      </trkpt>
      <trkpt lat="45.54333" lon="6.05427">
        <ele>1191</ele>
        <time>2021-06-27T13:30:30.074Z</time>
      </trkpt>
      <trkpt lat="45.54332" lon="6.05427">
        <ele>1192</ele>
        <time>2021-06-27T13:30:31.074Z</time>
      </trkpt>
      <trkpt lat="45.54332" lon="6.05427">
        <ele>1192</ele>
        <time>2021-06-27T13:30:32.074Z</time>
      </trkpt>
      <trkpt lat="45.54332" lon="6.05427">
        <ele>1192</ele>
        <time>2021-06-27T13:30:33.074Z</time>
      </trkpt>
      <trkpt lat="45.54332" lon="6.05427">
        <ele>1193</ele>
        <time>2021-06-27T13:30:34.073Z</time>
      </trkpt>
      <trkpt lat="45.54332" lon="6.05427">
        <ele>1193</ele>
        <time>2021-06-27T13:30:35.074Z</time>
      </trkpt>
      <trkpt lat="45.54332" lon="6.05427">
        <ele>1193</ele>
        <time>2021-06-27T13:30:36.073Z</time>
      </trkpt>
      <trkpt lat="45.54332" lon="6.05427">
        <ele>1194</ele>
        <time>2021-06-27T13:30:37.074Z</time>
      </trkpt>
      <trkpt lat="45.54332" lon="6.05427">
        <ele>1194</ele>
        <time>2021-06-27T13:30:38.074Z</time>
      </trkpt>
      <trkpt lat="45.54332" lon="6.05427">
        <ele>1194</ele>
        <time>2021-06-27T13:30:39.074Z</time>
      </trkpt>
      <trkpt lat="45.54332" lon="6.05427">
        <ele>1195</ele>
        <time>2021-06-27T13:30:40.074Z</time>
      </trkpt>
      <trkpt lat="45.54332" lon="6.05427">
        <ele>1195</ele>
        <time>2021-06-27T13:30:41.074Z</time>
      </trkpt>
      <trkpt lat="45.54332" lon="6.05427">
        <ele>1196</ele>
        <time>2021-06-27T13:30:42.073Z</time>
      </trkpt>
      <trkpt lat="45.54332" lon="6.05427">
        <ele>1197</ele>
        <time>2021-06-27T13:30:43.074Z</time>
      </trkpt>
      <trkpt lat="45.54332" lon="6.05427">
        <ele>1197</ele>
        <time>2021-06-27T13:30:44.074Z</time>
      </trkpt>
      <trkpt lat="45.54332" lon="6.05427">
        <ele>1198</ele>
        <time>2021-06-27T13:30:45.074Z</time>
      </trkpt>
      <trkpt lat="45.54332" lon="6.05427">
        <ele>1198</ele>
        <time>2021-06-27T13:30:46.073Z</time>
      </trkpt>
      <trkpt lat="45.54332" lon="6.05427">
        <ele>1197</ele>
        <time>2021-06-27T13:30:47.074Z</time>
      </trkpt>
      <trkpt lat="45.54332" lon="6.05427">
        <ele>1197</ele>
        <time>2021-06-27T13:30:48.073Z</time>
      </trkpt>
      <trkpt lat="45.54332" lon="6.05427">
        <ele>1197</ele>
        <time>2021-06-27T13:30:49.074Z</time>
      </trkpt>
      <trkpt lat="45.54333" lon="6.05427">
        <ele>1197</ele>
        <time>2021-06-27T13:30:50.074Z</time>
      </trkpt>
      <trkpt lat="45.54333" lon="6.05427">
        <ele>1197</ele>
        <time>2021-06-27T13:30:51.073Z</time>
      </trkpt>
      <trkpt lat="45.54333" lon="6.05427">
        <ele>1197</ele>
        <time>2021-06-27T13:30:52.073Z</time>
      </trkpt>
      <trkpt lat="45.54333" lon="6.05427">
        <ele>1197</ele>
        <time>2021-06-27T13:30:53.074Z</time>
      </trkpt>
      <trkpt lat="45.54333" lon="6.05427">
        <ele>1197</ele>
        <time>2021-06-27T13:30:54.073Z</time>
      </trkpt>
      <trkpt lat="45.54333" lon="6.05427">
        <ele>1197</ele>
        <time>2021-06-27T13:30:55.074Z</time>
      </trkpt>
      <trkpt lat="45.54333" lon="6.05427">
        <ele>1198</ele>
        <time>2021-06-27T13:30:56.073Z</time>
      </trkpt>
      <trkpt lat="45.54333" lon="6.05427">
        <ele>1198</ele>
        <time>2021-06-27T13:30:57.074Z</time>
      </trkpt>
      <trkpt lat="45.54333" lon="6.05427">
        <ele>1198</ele>
        <time>2021-06-27T13:30:58.074Z</time>
      </trkpt>
      <trkpt lat="45.54333" lon="6.05427">
        <ele>1198</ele>
        <time>2021-06-27T13:30:59.074Z</time>
      </trkpt>
      <trkpt lat="45.54333" lon="6.05427">
        <ele>1198</ele>
        <time>2021-06-27T13:31:00.074Z</time>
      </trkpt>
      <trkpt lat="45.54333" lon="6.05427">
        <ele>1199</ele>
        <time>2021-06-27T13:31:01.074Z</time>
      </trkpt>
      <trkpt lat="45.54333" lon="6.05427">
        <ele>1198</ele>
        <time>2021-06-27T13:31:02.074Z</time>
      </trkpt>
      <trkpt lat="45.54333" lon="6.05427">
        <ele>1198</ele>
        <time>2021-06-27T13:31:03.073Z</time>
      </trkpt>
      <trkpt lat="45.54333" lon="6.05427">
        <ele>1199</ele>
        <time>2021-06-27T13:31:04.074Z</time>
      </trkpt>
      <trkpt lat="45.54333" lon="6.05427">
        <ele>1199</ele>
        <time>2021-06-27T13:31:05.074Z</time>
      </trkpt>
      <trkpt lat="45.54333" lon="6.05427">
        <ele>1199</ele>
        <time>2021-06-27T13:31:06.074Z</time>
      </trkpt>
      <trkpt lat="45.54333" lon="6.05427">
        <ele>1199</ele>
        <time>2021-06-27T13:31:07.074Z</time>
      </trkpt>
      <trkpt lat="45.54333" lon="6.05427">
        <ele>1200</ele>
        <time>2021-06-27T13:31:08.074Z</time>
      </trkpt>
      <trkpt lat="45.54333" lon="6.05427">
        <ele>1200</ele>
        <time>2021-06-27T13:31:09.074Z</time>
      </trkpt>
      <trkpt lat="45.54333" lon="6.05427">
        <ele>1200</ele>
        <time>2021-06-27T13:31:10.074Z</time>
      </trkpt>
      <trkpt lat="45.54333" lon="6.05427">
        <ele>1200</ele>
        <time>2021-06-27T13:31:11.073Z</time>
      </trkpt>
      <trkpt lat="45.54333" lon="6.05427">
        <ele>1199</ele>
        <time>2021-06-27T13:31:12.074Z</time>
      </trkpt>
      <trkpt lat="45.54333" lon="6.05427">
        <ele>1199</ele>
        <time>2021-06-27T13:31:13.073Z</time>
      </trkpt>
      <trkpt lat="45.54333" lon="6.05427">
        <ele>1198</ele>
        <time>2021-06-27T13:31:14.074Z</time>
      </trkpt>
      <trkpt lat="45.54333" lon="6.05427">
        <ele>1197</ele>
        <time>2021-06-27T13:31:15.073Z</time>
      </trkpt>
      <trkpt lat="45.54333" lon="6.05427">
        <ele>1196</ele>
        <time>2021-06-27T13:31:16.074Z</time>
      </trkpt>
      <trkpt lat="45.54333" lon="6.05427">
        <ele>1196</ele>
        <time>2021-06-27T13:31:17.074Z</time>
      </trkpt>
      <trkpt lat="45.54333" lon="6.05427">
        <ele>1196</ele>
        <time>2021-06-27T13:31:18.074Z</time>
      </trkpt>
      <trkpt lat="45.54333" lon="6.05428">
        <ele>1196</ele>
        <time>2021-06-27T13:31:19.074Z</time>
      </trkpt>
      <trkpt lat="45.54333" lon="6.05428">
        <ele>1197</ele>
        <time>2021-06-27T13:31:20.074Z</time>
      </trkpt>
      <trkpt lat="45.54334" lon="6.05428">
        <ele>1197</ele>
        <time>2021-06-27T13:31:21.074Z</time>
      </trkpt>
      <trkpt lat="45.54334" lon="6.05428">
        <ele>1197</ele>
        <time>2021-06-27T13:31:22.074Z</time>
      </trkpt>
      <trkpt lat="45.54334" lon="6.05428">
        <ele>1197</ele>
        <time>2021-06-27T13:31:23.074Z</time>
      </trkpt>
      <trkpt lat="45.54335" lon="6.05427">
        <ele>1197</ele>
        <time>2021-06-27T13:31:24.074Z</time>
      </trkpt>
      <trkpt lat="45.54335" lon="6.05427">
        <ele>1197</ele>
        <time>2021-06-27T13:31:25.074Z</time>
      </trkpt>
      <trkpt lat="45.54336" lon="6.05428">
        <ele>1197</ele>
        <time>2021-06-27T13:31:26.073Z</time>
      </trkpt>
      <trkpt lat="45.54336" lon="6.05428">
        <ele>1197</ele>
        <time>2021-06-27T13:31:27.073Z</time>
      </trkpt>
      <trkpt lat="45.54336" lon="6.05428">
        <ele>1196</ele>
        <time>2021-06-27T13:31:28.074Z</time>
      </trkpt>
      <trkpt lat="45.54336" lon="6.05428">
        <ele>1196</ele>
        <time>2021-06-27T13:31:29.074Z</time>
      </trkpt>
      <trkpt lat="45.54336" lon="6.05428">
        <ele>1196</ele>
        <time>2021-06-27T13:31:30.073Z</time>
      </trkpt>
      <trkpt lat="45.54336" lon="6.05428">
        <ele>1196</ele>
        <time>2021-06-27T13:31:31.074Z</time>
      </trkpt>
      <trkpt lat="45.54336" lon="6.05428">
        <ele>1196</ele>
        <time>2021-06-27T13:31:32.074Z</time>
      </trkpt>
      <trkpt lat="45.54336" lon="6.05428">
        <ele>1197</ele>
        <time>2021-06-27T13:31:33.074Z</time>
      </trkpt>
      <trkpt lat="45.54336" lon="6.05428">
        <ele>1197</ele>
        <time>2021-06-27T13:31:34.074Z</time>
      </trkpt>
      <trkpt lat="45.54336" lon="6.05428">
        <ele>1197</ele>
        <time>2021-06-27T13:31:35.074Z</time>
      </trkpt>
      <trkpt lat="45.54336" lon="6.05428">
        <ele>1197</ele>
        <time>2021-06-27T13:31:36.074Z</time>
      </trkpt>
      <trkpt lat="45.54336" lon="6.05428">
        <ele>1196</ele>
        <time>2021-06-27T13:31:37.074Z</time>
      </trkpt>
      <trkpt lat="45.54335" lon="6.05428">
        <ele>1196</ele>
        <time>2021-06-27T13:31:38.074Z</time>
      </trkpt>
      <trkpt lat="45.54335" lon="6.05428">
        <ele>1196</ele>
        <time>2021-06-27T13:31:39.073Z</time>
      </trkpt>
      <trkpt lat="45.54335" lon="6.05428">
        <ele>1195</ele>
        <time>2021-06-27T13:31:40.074Z</time>
      </trkpt>
      <trkpt lat="45.54335" lon="6.05428">
        <ele>1195</ele>
        <time>2021-06-27T13:31:41.074Z</time>
      </trkpt>
      <trkpt lat="45.54335" lon="6.05428">
        <ele>1195</ele>
        <time>2021-06-27T13:31:42.074Z</time>
      </trkpt>
      <trkpt lat="45.54335" lon="6.05428">
        <ele>1195</ele>
        <time>2021-06-27T13:31:43.074Z</time>
      </trkpt>
      <trkpt lat="45.54335" lon="6.05428">
        <ele>1195</ele>
        <time>2021-06-27T13:31:44.074Z</time>
      </trkpt>
      <trkpt lat="45.54335" lon="6.05429">
        <ele>1195</ele>
        <time>2021-06-27T13:31:45.074Z</time>
      </trkpt>
      <trkpt lat="45.54335" lon="6.05429">
        <ele>1195</ele>
        <time>2021-06-27T13:31:46.074Z</time>
      </trkpt>
      <trkpt lat="45.54335" lon="6.05431">
        <ele>1195</ele>
        <time>2021-06-27T13:31:47.074Z</time>
      </trkpt>
      <trkpt lat="45.54335" lon="6.05432">
        <ele>1196</ele>
        <time>2021-06-27T13:31:48.073Z</time>
      </trkpt>
      <trkpt lat="45.54334" lon="6.05433">
        <ele>1196</ele>
        <time>2021-06-27T13:31:49.073Z</time>
      </trkpt>
      <trkpt lat="45.54334" lon="6.05434">
        <ele>1197</ele>
        <time>2021-06-27T13:31:50.073Z</time>
      </trkpt>
      <trkpt lat="45.54334" lon="6.05435">
        <ele>1197</ele>
        <time>2021-06-27T13:31:51.074Z</time>
      </trkpt>
      <trkpt lat="45.54334" lon="6.05436">
        <ele>1197</ele>
        <time>2021-06-27T13:31:52.074Z</time>
      </trkpt>
      <trkpt lat="45.54333" lon="6.05437">
        <ele>1198</ele>
        <time>2021-06-27T13:31:53.074Z</time>
      </trkpt>
      <trkpt lat="45.54333" lon="6.05439">
        <ele>1199</ele>
        <time>2021-06-27T13:31:54.073Z</time>
      </trkpt>
      <trkpt lat="45.54332" lon="6.0544">
        <ele>1199</ele>
        <time>2021-06-27T13:31:55.074Z</time>
      </trkpt>
      <trkpt lat="45.54331" lon="6.05442">
        <ele>1200</ele>
        <time>2021-06-27T13:31:56.074Z</time>
      </trkpt>
      <trkpt lat="45.54331" lon="6.05443">
        <ele>1199</ele>
        <time>2021-06-27T13:31:57.074Z</time>
      </trkpt>
      <trkpt lat="45.5433" lon="6.05444">
        <ele>1199</ele>
        <time>2021-06-27T13:31:58.074Z</time>
      </trkpt>
      <trkpt lat="45.5433" lon="6.05445">
        <ele>1198</ele>
        <time>2021-06-27T13:31:59.074Z</time>
      </trkpt>
      <trkpt lat="45.54329" lon="6.05445">
        <ele>1198</ele>
        <time>2021-06-27T13:32:00.074Z</time>
      </trkpt>
      <trkpt lat="45.54329" lon="6.05446">
        <ele>1197</ele>
        <time>2021-06-27T13:32:01.073Z</time>
      </trkpt>
      <trkpt lat="45.54328" lon="6.05446">
        <ele>1197</ele>
        <time>2021-06-27T13:32:02.073Z</time>
      </trkpt>
      <trkpt lat="45.54328" lon="6.05447">
        <ele>1196</ele>
        <time>2021-06-27T13:32:03.074Z</time>
      </trkpt>
      <trkpt lat="45.54327" lon="6.05447">
        <ele>1196</ele>
        <time>2021-06-27T13:32:04.073Z</time>
      </trkpt>
      <trkpt lat="45.54326" lon="6.05448">
        <ele>1196</ele>
        <time>2021-06-27T13:32:05.074Z</time>
      </trkpt>
      <trkpt lat="45.54325" lon="6.05449">
        <ele>1196</ele>
        <time>2021-06-27T13:32:06.073Z</time>
      </trkpt>
      <trkpt lat="45.54324" lon="6.0545">
        <ele>1196</ele>
        <time>2021-06-27T13:32:07.073Z</time>
      </trkpt>
      <trkpt lat="45.54324" lon="6.05451">
        <ele>1196</ele>
        <time>2021-06-27T13:32:08.073Z</time>
      </trkpt>
      <trkpt lat="45.54324" lon="6.05452">
        <ele>1196</ele>
        <time>2021-06-27T13:32:09.074Z</time>
      </trkpt>
      <trkpt lat="45.54323" lon="6.05453">
        <ele>1196</ele>
        <time>2021-06-27T13:32:10.073Z</time>
      </trkpt>
      <trkpt lat="45.54323" lon="6.05454">
        <ele>1197</ele>
        <time>2021-06-27T13:32:11.073Z</time>
      </trkpt>
      <trkpt lat="45.54322" lon="6.05455">
        <ele>1197</ele>
        <time>2021-06-27T13:32:12.073Z</time>
      </trkpt>
      <trkpt lat="45.54322" lon="6.05456">
        <ele>1197</ele>
        <time>2021-06-27T13:32:13.073Z</time>
      </trkpt>
      <trkpt lat="45.54321" lon="6.05456">
        <ele>1196</ele>
        <time>2021-06-27T13:32:14.074Z</time>
      </trkpt>
      <trkpt lat="45.54321" lon="6.05457">
        <ele>1196</ele>
        <time>2021-06-27T13:32:15.074Z</time>
      </trkpt>
      <trkpt lat="45.54321" lon="6.05458">
        <ele>1196</ele>
        <time>2021-06-27T13:32:16.074Z</time>
      </trkpt>
      <trkpt lat="45.5432" lon="6.05459">
        <ele>1195</ele>
        <time>2021-06-27T13:32:17.074Z</time>
      </trkpt>
      <trkpt lat="45.5432" lon="6.05461">
        <ele>1194</ele>
        <time>2021-06-27T13:32:18.074Z</time>
      </trkpt>
      <trkpt lat="45.5432" lon="6.05463">
        <ele>1194</ele>
        <time>2021-06-27T13:32:19.074Z</time>
      </trkpt>
      <trkpt lat="45.5432" lon="6.05464">
        <ele>1194</ele>
        <time>2021-06-27T13:32:20.074Z</time>
      </trkpt>
      <trkpt lat="45.54319" lon="6.05464">
        <ele>1194</ele>
        <time>2021-06-27T13:32:21.073Z</time>
      </trkpt>
      <trkpt lat="45.54319" lon="6.05465">
        <ele>1194</ele>
        <time>2021-06-27T13:32:22.074Z</time>
      </trkpt>
      <trkpt lat="45.54318" lon="6.05466">
        <ele>1194</ele>
        <time>2021-06-27T13:32:23.074Z</time>
      </trkpt>
      <trkpt lat="45.54318" lon="6.05467">
        <ele>1194</ele>
        <time>2021-06-27T13:32:24.074Z</time>
      </trkpt>
      <trkpt lat="45.54317" lon="6.05467">
        <ele>1194</ele>
        <time>2021-06-27T13:32:25.073Z</time>
      </trkpt>
      <trkpt lat="45.54316" lon="6.05469">
        <ele>1194</ele>
        <time>2021-06-27T13:32:26.073Z</time>
      </trkpt>
      <trkpt lat="45.54316" lon="6.0547">
        <ele>1194</ele>
        <time>2021-06-27T13:32:27.074Z</time>
      </trkpt>
      <trkpt lat="45.54315" lon="6.05471">
        <ele>1193</ele>
        <time>2021-06-27T13:32:28.074Z</time>
      </trkpt>
      <trkpt lat="45.54315" lon="6.05472">
        <ele>1193</ele>
        <time>2021-06-27T13:32:29.074Z</time>
      </trkpt>
      <trkpt lat="45.54315" lon="6.05473">
        <ele>1194</ele>
        <time>2021-06-27T13:32:30.074Z</time>
      </trkpt>
      <trkpt lat="45.54314" lon="6.05474">
        <ele>1194</ele>
        <time>2021-06-27T13:32:31.074Z</time>
      </trkpt>
      <trkpt lat="45.54314" lon="6.05475">
        <ele>1194</ele>
        <time>2021-06-27T13:32:32.074Z</time>
      </trkpt>
      <trkpt lat="45.54313" lon="6.05476">
        <ele>1195</ele>
        <time>2021-06-27T13:32:33.074Z</time>
      </trkpt>
      <trkpt lat="45.54312" lon="6.05477">
        <ele>1195</ele>
        <time>2021-06-27T13:32:34.073Z</time>
      </trkpt>
      <trkpt lat="45.54312" lon="6.05478">
        <ele>1195</ele>
        <time>2021-06-27T13:32:35.074Z</time>
      </trkpt>
      <trkpt lat="45.54311" lon="6.05479">
        <ele>1195</ele>
        <time>2021-06-27T13:32:36.074Z</time>
      </trkpt>
      <trkpt lat="45.54311" lon="6.05479">
        <ele>1196</ele>
        <time>2021-06-27T13:32:37.073Z</time>
      </trkpt>
      <trkpt lat="45.5431" lon="6.0548">
        <ele>1196</ele>
        <time>2021-06-27T13:32:38.074Z</time>
      </trkpt>
      <trkpt lat="45.5431" lon="6.05481">
        <ele>1196</ele>
        <time>2021-06-27T13:32:39.073Z</time>
      </trkpt>
      <trkpt lat="45.5431" lon="6.05482">
        <ele>1196</ele>
        <time>2021-06-27T13:32:40.074Z</time>
      </trkpt>
      <trkpt lat="45.54309" lon="6.05483">
        <ele>1196</ele>
        <time>2021-06-27T13:32:41.074Z</time>
      </trkpt>
      <trkpt lat="45.54308" lon="6.05485">
        <ele>1196</ele>
        <time>2021-06-27T13:32:42.073Z</time>
      </trkpt>
      <trkpt lat="45.54307" lon="6.05487">
        <ele>1196</ele>
        <time>2021-06-27T13:32:43.074Z</time>
      </trkpt>
      <trkpt lat="45.54306" lon="6.05488">
        <ele>1195</ele>
        <time>2021-06-27T13:32:44.073Z</time>
      </trkpt>
      <trkpt lat="45.54306" lon="6.05489">
        <ele>1194</ele>
        <time>2021-06-27T13:32:45.074Z</time>
      </trkpt>
      <trkpt lat="45.54305" lon="6.05491">
        <ele>1194</ele>
        <time>2021-06-27T13:32:46.074Z</time>
      </trkpt>
      <trkpt lat="45.54303" lon="6.05492">
        <ele>1193</ele>
        <time>2021-06-27T13:32:47.074Z</time>
      </trkpt>
      <trkpt lat="45.54302" lon="6.05494">
        <ele>1193</ele>
        <time>2021-06-27T13:32:48.073Z</time>
      </trkpt>
      <trkpt lat="45.54301" lon="6.05495">
        <ele>1192</ele>
        <time>2021-06-27T13:32:49.074Z</time>
      </trkpt>
      <trkpt lat="45.543" lon="6.05496">
        <ele>1192</ele>
        <time>2021-06-27T13:32:50.074Z</time>
      </trkpt>
      <trkpt lat="45.543" lon="6.05498">
        <ele>1192</ele>
        <time>2021-06-27T13:32:51.073Z</time>
      </trkpt>
      <trkpt lat="45.54299" lon="6.05498">
        <ele>1191</ele>
        <time>2021-06-27T13:32:52.073Z</time>
      </trkpt>
      <trkpt lat="45.54299" lon="6.05498">
        <ele>1191</ele>
        <time>2021-06-27T13:32:53.074Z</time>
      </trkpt>
      <trkpt lat="45.54298" lon="6.05499">
        <ele>1190</ele>
        <time>2021-06-27T13:32:54.073Z</time>
      </trkpt>
      <trkpt lat="45.54298" lon="6.05499">
        <ele>1190</ele>
        <time>2021-06-27T13:32:55.073Z</time>
      </trkpt>
      <trkpt lat="45.54298" lon="6.055">
        <ele>1189</ele>
        <time>2021-06-27T13:32:56.074Z</time>
      </trkpt>
      <trkpt lat="45.54297" lon="6.055">
        <ele>1188</ele>
        <time>2021-06-27T13:32:57.073Z</time>
      </trkpt>
      <trkpt lat="45.54296" lon="6.055">
        <ele>1188</ele>
        <time>2021-06-27T13:32:58.074Z</time>
      </trkpt>
      <trkpt lat="45.54296" lon="6.05501">
        <ele>1187</ele>
        <time>2021-06-27T13:32:59.073Z</time>
      </trkpt>
      <trkpt lat="45.54295" lon="6.05502">
        <ele>1187</ele>
        <time>2021-06-27T13:33:00.073Z</time>
      </trkpt>
      <trkpt lat="45.54295" lon="6.05503">
        <ele>1186</ele>
        <time>2021-06-27T13:33:01.074Z</time>
      </trkpt>
      <trkpt lat="45.54294" lon="6.05504">
        <ele>1186</ele>
        <time>2021-06-27T13:33:02.074Z</time>
      </trkpt>
      <trkpt lat="45.54293" lon="6.05505">
        <ele>1185</ele>
        <time>2021-06-27T13:33:03.074Z</time>
      </trkpt>
      <trkpt lat="45.54293" lon="6.05507">
        <ele>1185</ele>
        <time>2021-06-27T13:33:04.074Z</time>
      </trkpt>
      <trkpt lat="45.54292" lon="6.05508">
        <ele>1184</ele>
        <time>2021-06-27T13:33:05.074Z</time>
      </trkpt>
      <trkpt lat="45.54292" lon="6.05509">
        <ele>1184</ele>
        <time>2021-06-27T13:33:06.074Z</time>
      </trkpt>
      <trkpt lat="45.54293" lon="6.0551">
        <ele>1183</ele>
        <time>2021-06-27T13:33:07.074Z</time>
      </trkpt>
      <trkpt lat="45.54292" lon="6.05512">
        <ele>1182</ele>
        <time>2021-06-27T13:33:08.074Z</time>
      </trkpt>
      <trkpt lat="45.54292" lon="6.05514">
        <ele>1182</ele>
        <time>2021-06-27T13:33:09.074Z</time>
      </trkpt>
      <trkpt lat="45.54291" lon="6.05515">
        <ele>1181</ele>
        <time>2021-06-27T13:33:10.074Z</time>
      </trkpt>
      <trkpt lat="45.5429" lon="6.05517">
        <ele>1181</ele>
        <time>2021-06-27T13:33:11.073Z</time>
      </trkpt>
      <trkpt lat="45.54289" lon="6.05519">
        <ele>1180</ele>
        <time>2021-06-27T13:33:12.074Z</time>
      </trkpt>
      <trkpt lat="45.54289" lon="6.0552">
        <ele>1180</ele>
        <time>2021-06-27T13:33:13.074Z</time>
      </trkpt>
      <trkpt lat="45.5429" lon="6.05521">
        <ele>1180</ele>
        <time>2021-06-27T13:33:14.074Z</time>
      </trkpt>
      <trkpt lat="45.5429" lon="6.05521">
        <ele>1181</ele>
        <time>2021-06-27T13:33:15.074Z</time>
      </trkpt>
      <trkpt lat="45.54291" lon="6.05522">
        <ele>1181</ele>
        <time>2021-06-27T13:33:16.074Z</time>
      </trkpt>
      <trkpt lat="45.54291" lon="6.05523">
        <ele>1182</ele>
        <time>2021-06-27T13:33:17.074Z</time>
      </trkpt>
      <trkpt lat="45.54291" lon="6.05524">
        <ele>1182</ele>
        <time>2021-06-27T13:33:18.073Z</time>
      </trkpt>
      <trkpt lat="45.54291" lon="6.05525">
        <ele>1183</ele>
        <time>2021-06-27T13:33:19.074Z</time>
      </trkpt>
      <trkpt lat="45.54291" lon="6.05525">
        <ele>1183</ele>
        <time>2021-06-27T13:33:20.074Z</time>
      </trkpt>
      <trkpt lat="45.5429" lon="6.05526">
        <ele>1183</ele>
        <time>2021-06-27T13:33:21.074Z</time>
      </trkpt>
      <trkpt lat="45.5429" lon="6.05527">
        <ele>1183</ele>
        <time>2021-06-27T13:33:22.074Z</time>
      </trkpt>
      <trkpt lat="45.5429" lon="6.05528">
        <ele>1182</ele>
        <time>2021-06-27T13:33:23.074Z</time>
      </trkpt>
      <trkpt lat="45.54289" lon="6.05529">
        <ele>1181</ele>
        <time>2021-06-27T13:33:24.074Z</time>
      </trkpt>
      <trkpt lat="45.54288" lon="6.05532">
        <ele>1181</ele>
        <time>2021-06-27T13:33:25.074Z</time>
      </trkpt>
      <trkpt lat="45.54287" lon="6.05534">
        <ele>1180</ele>
        <time>2021-06-27T13:33:26.074Z</time>
      </trkpt>
      <trkpt lat="45.54285" lon="6.05536">
        <ele>1180</ele>
        <time>2021-06-27T13:33:27.074Z</time>
      </trkpt>
      <trkpt lat="45.54283" lon="6.05538">
        <ele>1179</ele>
        <time>2021-06-27T13:33:28.074Z</time>
      </trkpt>
      <trkpt lat="45.54283" lon="6.05539">
        <ele>1179</ele>
        <time>2021-06-27T13:33:29.073Z</time>
      </trkpt>
      <trkpt lat="45.54282" lon="6.0554">
        <ele>1178</ele>
        <time>2021-06-27T13:33:30.074Z</time>
      </trkpt>
      <trkpt lat="45.54282" lon="6.05541">
        <ele>1178</ele>
        <time>2021-06-27T13:33:31.074Z</time>
      </trkpt>
      <trkpt lat="45.5428" lon="6.05542">
        <ele>1178</ele>
        <time>2021-06-27T13:33:32.074Z</time>
      </trkpt>
      <trkpt lat="45.5428" lon="6.05544">
        <ele>1178</ele>
        <time>2021-06-27T13:33:33.074Z</time>
      </trkpt>
      <trkpt lat="45.5428" lon="6.05545">
        <ele>1178</ele>
        <time>2021-06-27T13:33:34.074Z</time>
      </trkpt>
      <trkpt lat="45.54279" lon="6.05546">
        <ele>1178</ele>
        <time>2021-06-27T13:33:35.074Z</time>
      </trkpt>
      <trkpt lat="45.54277" lon="6.05548">
        <ele>1178</ele>
        <time>2021-06-27T13:33:36.074Z</time>
      </trkpt>
      <trkpt lat="45.54277" lon="6.05548">
        <ele>1178</ele>
        <time>2021-06-27T13:33:37.074Z</time>
      </trkpt>
      <trkpt lat="45.54276" lon="6.05549">
        <ele>1178</ele>
        <time>2021-06-27T13:33:38.073Z</time>
      </trkpt>
      <trkpt lat="45.54275" lon="6.0555">
        <ele>1178</ele>
        <time>2021-06-27T13:33:39.074Z</time>
      </trkpt>
      <trkpt lat="45.54275" lon="6.0555">
        <ele>1178</ele>
        <time>2021-06-27T13:33:40.074Z</time>
      </trkpt>
      <trkpt lat="45.54274" lon="6.05551">
        <ele>1179</ele>
        <time>2021-06-27T13:33:41.074Z</time>
      </trkpt>
      <trkpt lat="45.54273" lon="6.05552">
        <ele>1179</ele>
        <time>2021-06-27T13:33:42.074Z</time>
      </trkpt>
      <trkpt lat="45.54274" lon="6.05555">
        <ele>1179</ele>
        <time>2021-06-27T13:33:43.073Z</time>
      </trkpt>
      <trkpt lat="45.54274" lon="6.05557">
        <ele>1179</ele>
        <time>2021-06-27T13:33:44.073Z</time>
      </trkpt>
      <trkpt lat="45.54274" lon="6.05558">
        <ele>1178</ele>
        <time>2021-06-27T13:33:45.074Z</time>
      </trkpt>
      <trkpt lat="45.54273" lon="6.0556">
        <ele>1178</ele>
        <time>2021-06-27T13:33:46.074Z</time>
      </trkpt>
      <trkpt lat="45.54272" lon="6.05562">
        <ele>1178</ele>
        <time>2021-06-27T13:33:47.073Z</time>
      </trkpt>
      <trkpt lat="45.54271" lon="6.05563">
        <ele>1178</ele>
        <time>2021-06-27T13:33:48.074Z</time>
      </trkpt>
      <trkpt lat="45.5427" lon="6.05564">
        <ele>1177</ele>
        <time>2021-06-27T13:46:16.728Z</time>
      </trkpt>
      <trkpt lat="45.5427" lon="6.05565">
        <ele>1177</ele>
        <time>2021-06-27T13:46:17.729Z</time>
      </trkpt>
      <trkpt lat="45.54269" lon="6.05566">
        <ele>1176</ele>
        <time>2021-06-27T13:46:18.728Z</time>
      </trkpt>
      <trkpt lat="45.54268" lon="6.05568">
        <ele>1176</ele>
        <time>2021-06-27T13:46:19.729Z</time>
      </trkpt>
      <trkpt lat="45.54268" lon="6.05569">
        <ele>1176</ele>
        <time>2021-06-27T13:46:20.729Z</time>
      </trkpt>
      <trkpt lat="45.54269" lon="6.05571">
        <ele>1175</ele>
        <time>2021-06-27T13:46:21.728Z</time>
      </trkpt>
      <trkpt lat="45.54268" lon="6.05572">
        <ele>1176</ele>
        <time>2021-06-27T13:46:22.729Z</time>
      </trkpt>
      <trkpt lat="45.54268" lon="6.05574">
        <ele>1175</ele>
        <time>2021-06-27T13:46:23.729Z</time>
      </trkpt>
      <trkpt lat="45.54268" lon="6.05575">
        <ele>1175</ele>
        <time>2021-06-27T13:46:24.729Z</time>
      </trkpt>
      <trkpt lat="45.54267" lon="6.05576">
        <ele>1175</ele>
        <time>2021-06-27T13:46:25.728Z</time>
      </trkpt>
      <trkpt lat="45.54267" lon="6.05577">
        <ele>1174</ele>
        <time>2021-06-27T13:46:26.729Z</time>
      </trkpt>
      <trkpt lat="45.54267" lon="6.05578">
        <ele>1174</ele>
        <time>2021-06-27T13:46:27.729Z</time>
      </trkpt>
      <trkpt lat="45.54266" lon="6.05579">
        <ele>1173</ele>
        <time>2021-06-27T13:46:28.729Z</time>
      </trkpt>
      <trkpt lat="45.54266" lon="6.05581">
        <ele>1173</ele>
        <time>2021-06-27T13:46:29.729Z</time>
      </trkpt>
      <trkpt lat="45.54266" lon="6.05582">
        <ele>1172</ele>
        <time>2021-06-27T13:46:30.728Z</time>
      </trkpt>
      <trkpt lat="45.54266" lon="6.05582">
        <ele>1172</ele>
        <time>2021-06-27T13:46:31.729Z</time>
      </trkpt>
      <trkpt lat="45.54266" lon="6.05583">
        <ele>1172</ele>
        <time>2021-06-27T13:46:32.729Z</time>
      </trkpt>
      <trkpt lat="45.54266" lon="6.05584">
        <ele>1172</ele>
        <time>2021-06-27T13:46:33.729Z</time>
      </trkpt>
      <trkpt lat="45.54266" lon="6.05585">
        <ele>1171</ele>
        <time>2021-06-27T13:46:34.729Z</time>
      </trkpt>
      <trkpt lat="45.54265" lon="6.05586">
        <ele>1171</ele>
        <time>2021-06-27T13:46:35.729Z</time>
      </trkpt>
      <trkpt lat="45.54265" lon="6.05588">
        <ele>1171</ele>
        <time>2021-06-27T13:46:36.729Z</time>
      </trkpt>
      <trkpt lat="45.54265" lon="6.05589">
        <ele>1171</ele>
        <time>2021-06-27T13:46:37.729Z</time>
      </trkpt>
      <trkpt lat="45.54265" lon="6.05591">
        <ele>1170</ele>
        <time>2021-06-27T13:46:38.729Z</time>
      </trkpt>
      <trkpt lat="45.54265" lon="6.05593">
        <ele>1170</ele>
        <time>2021-06-27T13:46:39.729Z</time>
      </trkpt>
      <trkpt lat="45.54265" lon="6.05594">
        <ele>1170</ele>
        <time>2021-06-27T13:46:40.729Z</time>
      </trkpt>
      <trkpt lat="45.54265" lon="6.05595">
        <ele>1170</ele>
        <time>2021-06-27T13:46:41.728Z</time>
      </trkpt>
      <trkpt lat="45.54265" lon="6.05596">
        <ele>1170</ele>
        <time>2021-06-27T13:46:42.728Z</time>
      </trkpt>
      <trkpt lat="45.54265" lon="6.05597">
        <ele>1170</ele>
        <time>2021-06-27T13:46:43.729Z</time>
      </trkpt>
      <trkpt lat="45.54264" lon="6.05599">
        <ele>1170</ele>
        <time>2021-06-27T13:46:44.728Z</time>
      </trkpt>
      <trkpt lat="45.54264" lon="6.056">
        <ele>1169</ele>
        <time>2021-06-27T13:46:45.728Z</time>
      </trkpt>
      <trkpt lat="45.54264" lon="6.05601">
        <ele>1169</ele>
        <time>2021-06-27T13:46:46.728Z</time>
      </trkpt>
      <trkpt lat="45.54263" lon="6.05602">
        <ele>1169</ele>
        <time>2021-06-27T13:46:47.729Z</time>
      </trkpt>
      <trkpt lat="45.54263" lon="6.05602">
        <ele>1168</ele>
        <time>2021-06-27T13:46:48.729Z</time>
      </trkpt>
      <trkpt lat="45.54263" lon="6.05603">
        <ele>1168</ele>
        <time>2021-06-27T13:46:49.729Z</time>
      </trkpt>
      <trkpt lat="45.54263" lon="6.05604">
        <ele>1168</ele>
        <time>2021-06-27T13:46:50.728Z</time>
      </trkpt>
      <trkpt lat="45.54262" lon="6.05606">
        <ele>1167</ele>
        <time>2021-06-27T13:46:51.728Z</time>
      </trkpt>
      <trkpt lat="45.54262" lon="6.05606">
        <ele>1167</ele>
        <time>2021-06-27T13:46:52.729Z</time>
      </trkpt>
      <trkpt lat="45.54261" lon="6.05607">
        <ele>1167</ele>
        <time>2021-06-27T13:46:53.729Z</time>
      </trkpt>
      <trkpt lat="45.54261" lon="6.05609">
        <ele>1167</ele>
        <time>2021-06-27T13:46:54.729Z</time>
      </trkpt>
      <trkpt lat="45.54261" lon="6.0561">
        <ele>1167</ele>
        <time>2021-06-27T13:46:55.729Z</time>
      </trkpt>
      <trkpt lat="45.54261" lon="6.05612">
        <ele>1166</ele>
        <time>2021-06-27T13:46:56.728Z</time>
      </trkpt>
      <trkpt lat="45.54261" lon="6.05613">
        <ele>1166</ele>
        <time>2021-06-27T13:46:57.729Z</time>
      </trkpt>
      <trkpt lat="45.54262" lon="6.05616">
        <ele>1165</ele>
        <time>2021-06-27T13:46:58.728Z</time>
      </trkpt>
      <trkpt lat="45.54262" lon="6.05618">
        <ele>1164</ele>
        <time>2021-06-27T13:46:59.729Z</time>
      </trkpt>
      <trkpt lat="45.54261" lon="6.0562">
        <ele>1164</ele>
        <time>2021-06-27T13:47:00.728Z</time>
      </trkpt>
      <trkpt lat="45.54261" lon="6.05622">
        <ele>1163</ele>
        <time>2021-06-27T13:47:01.728Z</time>
      </trkpt>
      <trkpt lat="45.54261" lon="6.05623">
        <ele>1162</ele>
        <time>2021-06-27T13:47:02.728Z</time>
      </trkpt>
      <trkpt lat="45.54261" lon="6.05625">
        <ele>1161</ele>
        <time>2021-06-27T13:47:03.728Z</time>
      </trkpt>
      <trkpt lat="45.54261" lon="6.05626">
        <ele>1160</ele>
        <time>2021-06-27T13:47:04.729Z</time>
      </trkpt>
      <trkpt lat="45.54261" lon="6.05628">
        <ele>1159</ele>
        <time>2021-06-27T13:47:05.728Z</time>
      </trkpt>
      <trkpt lat="45.54261" lon="6.0563">
        <ele>1159</ele>
        <time>2021-06-27T13:47:06.728Z</time>
      </trkpt>
      <trkpt lat="45.54261" lon="6.05631">
        <ele>1158</ele>
        <time>2021-06-27T13:47:07.729Z</time>
      </trkpt>
      <trkpt lat="45.54261" lon="6.05632">
        <ele>1158</ele>
        <time>2021-06-27T13:47:08.728Z</time>
      </trkpt>
      <trkpt lat="45.54261" lon="6.05633">
        <ele>1158</ele>
        <time>2021-06-27T13:47:09.728Z</time>
      </trkpt>
      <trkpt lat="45.54261" lon="6.05634">
        <ele>1158</ele>
        <time>2021-06-27T13:47:10.728Z</time>
      </trkpt>
      <trkpt lat="45.54261" lon="6.05635">
        <ele>1158</ele>
        <time>2021-06-27T13:47:11.728Z</time>
      </trkpt>
      <trkpt lat="45.54261" lon="6.05637">
        <ele>1158</ele>
        <time>2021-06-27T13:47:12.729Z</time>
      </trkpt>
      <trkpt lat="45.54261" lon="6.05638">
        <ele>1158</ele>
        <time>2021-06-27T13:47:13.728Z</time>
      </trkpt>
      <trkpt lat="45.54262" lon="6.05639">
        <ele>1158</ele>
        <time>2021-06-27T13:47:14.728Z</time>
      </trkpt>
      <trkpt lat="45.54262" lon="6.0564">
        <ele>1159</ele>
        <time>2021-06-27T13:47:15.728Z</time>
      </trkpt>
      <trkpt lat="45.54262" lon="6.05642">
        <ele>1159</ele>
        <time>2021-06-27T13:47:16.728Z</time>
      </trkpt>
      <trkpt lat="45.54262" lon="6.05643">
        <ele>1159</ele>
        <time>2021-06-27T13:47:17.728Z</time>
      </trkpt>
      <trkpt lat="45.54261" lon="6.05643">
        <ele>1159</ele>
        <time>2021-06-27T13:47:18.728Z</time>
      </trkpt>
      <trkpt lat="45.54262" lon="6.05644">
        <ele>1158</ele>
        <time>2021-06-27T13:47:19.728Z</time>
      </trkpt>
      <trkpt lat="45.54262" lon="6.05645">
        <ele>1158</ele>
        <time>2021-06-27T13:47:20.728Z</time>
      </trkpt>
      <trkpt lat="45.54262" lon="6.05647">
        <ele>1158</ele>
        <time>2021-06-27T13:47:21.728Z</time>
      </trkpt>
      <trkpt lat="45.54263" lon="6.05648">
        <ele>1157</ele>
        <time>2021-06-27T13:47:22.728Z</time>
      </trkpt>
      <trkpt lat="45.54263" lon="6.05649">
        <ele>1156</ele>
        <time>2021-06-27T13:47:23.728Z</time>
      </trkpt>
      <trkpt lat="45.54263" lon="6.05652">
        <ele>1156</ele>
        <time>2021-06-27T13:47:24.729Z</time>
      </trkpt>
      <trkpt lat="45.54263" lon="6.05655">
        <ele>1155</ele>
        <time>2021-06-27T13:47:25.729Z</time>
      </trkpt>
      <trkpt lat="45.54263" lon="6.05657">
        <ele>1154</ele>
        <time>2021-06-27T13:47:26.729Z</time>
      </trkpt>
      <trkpt lat="45.54263" lon="6.05659">
        <ele>1154</ele>
        <time>2021-06-27T13:47:27.729Z</time>
      </trkpt>
      <trkpt lat="45.54262" lon="6.05661">
        <ele>1154</ele>
        <time>2021-06-27T13:47:28.729Z</time>
      </trkpt>
      <trkpt lat="45.54262" lon="6.05662">
        <ele>1153</ele>
        <time>2021-06-27T13:47:29.728Z</time>
      </trkpt>
      <trkpt lat="45.54261" lon="6.05663">
        <ele>1153</ele>
        <time>2021-06-27T13:47:30.729Z</time>
      </trkpt>
      <trkpt lat="45.54261" lon="6.05664">
        <ele>1152</ele>
        <time>2021-06-27T13:47:31.729Z</time>
      </trkpt>
      <trkpt lat="45.5426" lon="6.05664">
        <ele>1151</ele>
        <time>2021-06-27T13:47:32.729Z</time>
      </trkpt>
      <trkpt lat="45.5426" lon="6.05664">
        <ele>1150</ele>
        <time>2021-06-27T13:47:33.729Z</time>
      </trkpt>
      <trkpt lat="45.54261" lon="6.05663">
        <ele>1150</ele>
        <time>2021-06-27T13:47:34.729Z</time>
      </trkpt>
      <trkpt lat="45.5426" lon="6.05663">
        <ele>1149</ele>
        <time>2021-06-27T13:47:35.729Z</time>
      </trkpt>
      <trkpt lat="45.5426" lon="6.05663">
        <ele>1149</ele>
        <time>2021-06-27T13:47:36.728Z</time>
      </trkpt>
      <trkpt lat="45.54259" lon="6.05664">
        <ele>1149</ele>
        <time>2021-06-27T13:47:37.729Z</time>
      </trkpt>
      <trkpt lat="45.54259" lon="6.05665">
        <ele>1149</ele>
        <time>2021-06-27T13:47:38.729Z</time>
      </trkpt>
      <trkpt lat="45.54258" lon="6.05665">
        <ele>1149</ele>
        <time>2021-06-27T13:47:39.729Z</time>
      </trkpt>
      <trkpt lat="45.54257" lon="6.05665">
        <ele>1149</ele>
        <time>2021-06-27T13:47:40.729Z</time>
      </trkpt>
      <trkpt lat="45.54257" lon="6.05665">
        <ele>1149</ele>
        <time>2021-06-27T13:47:41.729Z</time>
      </trkpt>
      <trkpt lat="45.54256" lon="6.05664">
        <ele>1150</ele>
        <time>2021-06-27T13:47:42.728Z</time>
      </trkpt>
      <trkpt lat="45.54256" lon="6.05663">
        <ele>1150</ele>
        <time>2021-06-27T13:47:43.729Z</time>
      </trkpt>
      <trkpt lat="45.54256" lon="6.05662">
        <ele>1150</ele>
        <time>2021-06-27T13:47:44.729Z</time>
      </trkpt>
      <trkpt lat="45.54255" lon="6.05662">
        <ele>1150</ele>
        <time>2021-06-27T13:47:45.729Z</time>
      </trkpt>
      <trkpt lat="45.54255" lon="6.05661">
        <ele>1150</ele>
        <time>2021-06-27T13:47:46.728Z</time>
      </trkpt>
      <trkpt lat="45.54255" lon="6.0566">
        <ele>1150</ele>
        <time>2021-06-27T13:47:47.728Z</time>
      </trkpt>
      <trkpt lat="45.54255" lon="6.0566">
        <ele>1151</ele>
        <time>2021-06-27T13:47:48.729Z</time>
      </trkpt>
      <trkpt lat="45.54254" lon="6.0566">
        <ele>1151</ele>
        <time>2021-06-27T13:47:49.728Z</time>
      </trkpt>
      <trkpt lat="45.54254" lon="6.05659">
        <ele>1151</ele>
        <time>2021-06-27T13:47:50.729Z</time>
      </trkpt>
      <trkpt lat="45.54254" lon="6.05658">
        <ele>1152</ele>
        <time>2021-06-27T13:47:51.729Z</time>
      </trkpt>
      <trkpt lat="45.54254" lon="6.05657">
        <ele>1152</ele>
        <time>2021-06-27T13:47:52.729Z</time>
      </trkpt>
      <trkpt lat="45.54253" lon="6.05657">
        <ele>1153</ele>
        <time>2021-06-27T13:47:53.729Z</time>
      </trkpt>
      <trkpt lat="45.54253" lon="6.05656">
        <ele>1153</ele>
        <time>2021-06-27T13:47:54.729Z</time>
      </trkpt>
      <trkpt lat="45.54252" lon="6.05655">
        <ele>1153</ele>
        <time>2021-06-27T13:47:55.729Z</time>
      </trkpt>
      <trkpt lat="45.54252" lon="6.05654">
        <ele>1153</ele>
        <time>2021-06-27T13:47:56.729Z</time>
      </trkpt>
      <trkpt lat="45.54251" lon="6.05653">
        <ele>1153</ele>
        <time>2021-06-27T13:47:57.729Z</time>
      </trkpt>
      <trkpt lat="45.54251" lon="6.05652">
        <ele>1152</ele>
        <time>2021-06-27T13:47:58.729Z</time>
      </trkpt>
      <trkpt lat="45.5425" lon="6.05652">
        <ele>1152</ele>
        <time>2021-06-27T13:47:59.729Z</time>
      </trkpt>
      <trkpt lat="45.5425" lon="6.05651">
        <ele>1151</ele>
        <time>2021-06-27T13:48:00.729Z</time>
      </trkpt>
      <trkpt lat="45.5425" lon="6.0565">
        <ele>1151</ele>
        <time>2021-06-27T13:48:01.729Z</time>
      </trkpt>
      <trkpt lat="45.54249" lon="6.05649">
        <ele>1150</ele>
        <time>2021-06-27T13:48:02.729Z</time>
      </trkpt>
      <trkpt lat="45.54248" lon="6.05647">
        <ele>1149</ele>
        <time>2021-06-27T13:48:03.729Z</time>
      </trkpt>
      <trkpt lat="45.54248" lon="6.05646">
        <ele>1149</ele>
        <time>2021-06-27T13:48:04.729Z</time>
      </trkpt>
      <trkpt lat="45.54247" lon="6.05645">
        <ele>1149</ele>
        <time>2021-06-27T13:48:05.729Z</time>
      </trkpt>
      <trkpt lat="45.54246" lon="6.05643">
        <ele>1148</ele>
        <time>2021-06-27T13:48:06.729Z</time>
      </trkpt>
      <trkpt lat="45.54246" lon="6.05642">
        <ele>1147</ele>
        <time>2021-06-27T13:48:07.729Z</time>
      </trkpt>
      <trkpt lat="45.54245" lon="6.05641">
        <ele>1147</ele>
        <time>2021-06-27T13:48:08.728Z</time>
      </trkpt>
      <trkpt lat="45.54245" lon="6.0564">
        <ele>1147</ele>
        <time>2021-06-27T13:48:09.729Z</time>
      </trkpt>
      <trkpt lat="45.54244" lon="6.0564">
        <ele>1147</ele>
        <time>2021-06-27T13:48:10.729Z</time>
      </trkpt>
      <trkpt lat="45.54244" lon="6.05639">
        <ele>1148</ele>
        <time>2021-06-27T13:48:11.728Z</time>
      </trkpt>
      <trkpt lat="45.54243" lon="6.05637">
        <ele>1148</ele>
        <time>2021-06-27T13:48:12.729Z</time>
      </trkpt>
      <trkpt lat="45.54243" lon="6.05636">
        <ele>1148</ele>
        <time>2021-06-27T13:48:13.729Z</time>
      </trkpt>
      <trkpt lat="45.54242" lon="6.05635">
        <ele>1148</ele>
        <time>2021-06-27T13:48:14.729Z</time>
      </trkpt>
      <trkpt lat="45.54242" lon="6.05634">
        <ele>1148</ele>
        <time>2021-06-27T13:48:15.729Z</time>
      </trkpt>
      <trkpt lat="45.54242" lon="6.05633">
        <ele>1148</ele>
        <time>2021-06-27T13:48:16.729Z</time>
      </trkpt>
      <trkpt lat="45.54241" lon="6.05632">
        <ele>1147</ele>
        <time>2021-06-27T13:48:17.729Z</time>
      </trkpt>
      <trkpt lat="45.54241" lon="6.05631">
        <ele>1147</ele>
        <time>2021-06-27T13:48:18.728Z</time>
      </trkpt>
      <trkpt lat="45.5424" lon="6.0563">
        <ele>1147</ele>
        <time>2021-06-27T13:48:19.729Z</time>
      </trkpt>
      <trkpt lat="45.54239" lon="6.05629">
        <ele>1146</ele>
        <time>2021-06-27T13:48:20.729Z</time>
      </trkpt>
      <trkpt lat="45.54237" lon="6.05628">
        <ele>1146</ele>
        <time>2021-06-27T13:48:21.729Z</time>
      </trkpt>
      <trkpt lat="45.54235" lon="6.05626">
        <ele>1145</ele>
        <time>2021-06-27T13:48:22.729Z</time>
      </trkpt>
      <trkpt lat="45.54233" lon="6.05624">
        <ele>1144</ele>
        <time>2021-06-27T13:48:23.729Z</time>
      </trkpt>
      <trkpt lat="45.54232" lon="6.05623">
        <ele>1144</ele>
        <time>2021-06-27T13:48:24.729Z</time>
      </trkpt>
      <trkpt lat="45.54231" lon="6.05622">
        <ele>1144</ele>
        <time>2021-06-27T13:48:25.729Z</time>
      </trkpt>
      <trkpt lat="45.54229" lon="6.05621">
        <ele>1144</ele>
        <time>2021-06-27T13:48:26.729Z</time>
      </trkpt>
      <trkpt lat="45.54229" lon="6.05619">
        <ele>1144</ele>
        <time>2021-06-27T13:48:27.729Z</time>
      </trkpt>
      <trkpt lat="45.54228" lon="6.05618">
        <ele>1144</ele>
        <time>2021-06-27T13:48:28.729Z</time>
      </trkpt>
      <trkpt lat="45.54228" lon="6.05617">
        <ele>1144</ele>
        <time>2021-06-27T13:48:29.729Z</time>
      </trkpt>
      <trkpt lat="45.54227" lon="6.05616">
        <ele>1143</ele>
        <time>2021-06-27T13:48:30.729Z</time>
      </trkpt>
      <trkpt lat="45.54227" lon="6.05616">
        <ele>1143</ele>
        <time>2021-06-27T13:48:31.729Z</time>
      </trkpt>
      <trkpt lat="45.54226" lon="6.05614">
        <ele>1142</ele>
        <time>2021-06-27T13:48:32.729Z</time>
      </trkpt>
      <trkpt lat="45.54226" lon="6.05614">
        <ele>1142</ele>
        <time>2021-06-27T13:48:33.729Z</time>
      </trkpt>
      <trkpt lat="45.54226" lon="6.05612">
        <ele>1142</ele>
        <time>2021-06-27T13:48:34.729Z</time>
      </trkpt>
      <trkpt lat="45.54225" lon="6.05611">
        <ele>1142</ele>
        <time>2021-06-27T13:48:35.729Z</time>
      </trkpt>
      <trkpt lat="45.54225" lon="6.0561">
        <ele>1141</ele>
        <time>2021-06-27T13:48:36.729Z</time>
      </trkpt>
      <trkpt lat="45.54225" lon="6.05609">
        <ele>1141</ele>
        <time>2021-06-27T13:48:37.729Z</time>
      </trkpt>
      <trkpt lat="45.54224" lon="6.05607">
        <ele>1140</ele>
        <time>2021-06-27T13:48:38.729Z</time>
      </trkpt>
      <trkpt lat="45.54224" lon="6.05606">
        <ele>1140</ele>
        <time>2021-06-27T13:48:39.729Z</time>
      </trkpt>
      <trkpt lat="45.54223" lon="6.05605">
        <ele>1139</ele>
        <time>2021-06-27T13:48:40.729Z</time>
      </trkpt>
      <trkpt lat="45.54223" lon="6.05603">
        <ele>1138</ele>
        <time>2021-06-27T13:48:41.729Z</time>
      </trkpt>
      <trkpt lat="45.54222" lon="6.05602">
        <ele>1137</ele>
        <time>2021-06-27T13:48:42.729Z</time>
      </trkpt>
      <trkpt lat="45.54221" lon="6.05601">
        <ele>1137</ele>
        <time>2021-06-27T13:48:43.729Z</time>
      </trkpt>
      <trkpt lat="45.54221" lon="6.05599">
        <ele>1136</ele>
        <time>2021-06-27T13:48:44.729Z</time>
      </trkpt>
      <trkpt lat="45.5422" lon="6.05598">
        <ele>1135</ele>
        <time>2021-06-27T13:48:45.729Z</time>
      </trkpt>
      <trkpt lat="45.54219" lon="6.05596">
        <ele>1135</ele>
        <time>2021-06-27T13:48:46.729Z</time>
      </trkpt>
      <trkpt lat="45.54218" lon="6.05595">
        <ele>1135</ele>
        <time>2021-06-27T13:48:47.728Z</time>
      </trkpt>
      <trkpt lat="45.54217" lon="6.05594">
        <ele>1134</ele>
        <time>2021-06-27T13:48:48.729Z</time>
      </trkpt>
      <trkpt lat="45.54217" lon="6.05593">
        <ele>1134</ele>
        <time>2021-06-27T13:48:49.729Z</time>
      </trkpt>
      <trkpt lat="45.54216" lon="6.05592">
        <ele>1134</ele>
        <time>2021-06-27T13:48:50.729Z</time>
      </trkpt>
      <trkpt lat="45.54215" lon="6.05591">
        <ele>1133</ele>
        <time>2021-06-27T13:48:51.729Z</time>
      </trkpt>
      <trkpt lat="45.54213" lon="6.05589">
        <ele>1133</ele>
        <time>2021-06-27T13:48:52.729Z</time>
      </trkpt>
      <trkpt lat="45.54211" lon="6.05587">
        <ele>1133</ele>
        <time>2021-06-27T13:48:53.729Z</time>
      </trkpt>
      <trkpt lat="45.54209" lon="6.05585">
        <ele>1133</ele>
        <time>2021-06-27T13:48:54.729Z</time>
      </trkpt>
      <trkpt lat="45.54208" lon="6.05583">
        <ele>1133</ele>
        <time>2021-06-27T13:48:55.729Z</time>
      </trkpt>
      <trkpt lat="45.54207" lon="6.05581">
        <ele>1133</ele>
        <time>2021-06-27T13:48:56.729Z</time>
      </trkpt>
      <trkpt lat="45.54206" lon="6.0558">
        <ele>1132</ele>
        <time>2021-06-27T13:48:57.729Z</time>
      </trkpt>
      <trkpt lat="45.54206" lon="6.0558">
        <ele>1131</ele>
        <time>2021-06-27T13:48:58.729Z</time>
      </trkpt>
      <trkpt lat="45.54204" lon="6.05578">
        <ele>1131</ele>
        <time>2021-06-27T13:48:59.729Z</time>
      </trkpt>
      <trkpt lat="45.54203" lon="6.05576">
        <ele>1131</ele>
        <time>2021-06-27T13:49:00.729Z</time>
      </trkpt>
      <trkpt lat="45.54203" lon="6.05575">
        <ele>1130</ele>
        <time>2021-06-27T13:49:01.729Z</time>
      </trkpt>
      <trkpt lat="45.54202" lon="6.05573">
        <ele>1130</ele>
        <time>2021-06-27T13:49:02.729Z</time>
      </trkpt>
      <trkpt lat="45.54201" lon="6.05572">
        <ele>1130</ele>
        <time>2021-06-27T13:49:03.728Z</time>
      </trkpt>
      <trkpt lat="45.542" lon="6.05571">
        <ele>1130</ele>
        <time>2021-06-27T13:49:04.729Z</time>
      </trkpt>
      <trkpt lat="45.54199" lon="6.05571">
        <ele>1130</ele>
        <time>2021-06-27T13:49:05.729Z</time>
      </trkpt>
      <trkpt lat="45.54198" lon="6.05572">
        <ele>1130</ele>
        <time>2021-06-27T13:49:06.729Z</time>
      </trkpt>
      <trkpt lat="45.54197" lon="6.05573">
        <ele>1130</ele>
        <time>2021-06-27T13:49:07.729Z</time>
      </trkpt>
      <trkpt lat="45.54196" lon="6.05574">
        <ele>1131</ele>
        <time>2021-06-27T13:49:08.729Z</time>
      </trkpt>
      <trkpt lat="45.54195" lon="6.05575">
        <ele>1131</ele>
        <time>2021-06-27T13:49:09.729Z</time>
      </trkpt>
      <trkpt lat="45.54194" lon="6.05575">
        <ele>1130</ele>
        <time>2021-06-27T13:49:10.729Z</time>
      </trkpt>
      <trkpt lat="45.54193" lon="6.05576">
        <ele>1130</ele>
        <time>2021-06-27T13:49:11.728Z</time>
      </trkpt>
      <trkpt lat="45.54192" lon="6.05575">
        <ele>1129</ele>
        <time>2021-06-27T13:49:12.729Z</time>
      </trkpt>
      <trkpt lat="45.54191" lon="6.05575">
        <ele>1129</ele>
        <time>2021-06-27T13:49:13.729Z</time>
      </trkpt>
      <trkpt lat="45.5419" lon="6.05575">
        <ele>1128</ele>
        <time>2021-06-27T13:49:14.729Z</time>
      </trkpt>
      <trkpt lat="45.54189" lon="6.05575">
        <ele>1128</ele>
        <time>2021-06-27T13:49:15.729Z</time>
      </trkpt>
      <trkpt lat="45.54188" lon="6.05575">
        <ele>1127</ele>
        <time>2021-06-27T13:49:16.728Z</time>
      </trkpt>
      <trkpt lat="45.54187" lon="6.05575">
        <ele>1127</ele>
        <time>2021-06-27T13:49:17.728Z</time>
      </trkpt>
      <trkpt lat="45.54187" lon="6.05575">
        <ele>1127</ele>
        <time>2021-06-27T13:49:18.729Z</time>
      </trkpt>
      <trkpt lat="45.54186" lon="6.05576">
        <ele>1127</ele>
        <time>2021-06-27T13:49:19.729Z</time>
      </trkpt>
      <trkpt lat="45.54186" lon="6.05576">
        <ele>1127</ele>
        <time>2021-06-27T13:49:20.729Z</time>
      </trkpt>
      <trkpt lat="45.54185" lon="6.05576">
        <ele>1127</ele>
        <time>2021-06-27T13:49:21.728Z</time>
      </trkpt>
      <trkpt lat="45.54184" lon="6.05576">
        <ele>1127</ele>
        <time>2021-06-27T13:49:22.728Z</time>
      </trkpt>
      <trkpt lat="45.54184" lon="6.05576">
        <ele>1127</ele>
        <time>2021-06-27T13:49:23.729Z</time>
      </trkpt>
      <trkpt lat="45.54183" lon="6.05576">
        <ele>1127</ele>
        <time>2021-06-27T13:49:24.729Z</time>
      </trkpt>
      <trkpt lat="45.54182" lon="6.05575">
        <ele>1127</ele>
        <time>2021-06-27T13:49:25.729Z</time>
      </trkpt>
      <trkpt lat="45.5418" lon="6.05576">
        <ele>1127</ele>
        <time>2021-06-27T13:49:26.729Z</time>
      </trkpt>
      <trkpt lat="45.54179" lon="6.05576">
        <ele>1128</ele>
        <time>2021-06-27T13:49:27.729Z</time>
      </trkpt>
      <trkpt lat="45.54178" lon="6.05576">
        <ele>1128</ele>
        <time>2021-06-27T13:49:28.729Z</time>
      </trkpt>
      <trkpt lat="45.54177" lon="6.05575">
        <ele>1128</ele>
        <time>2021-06-27T13:49:29.729Z</time>
      </trkpt>
      <trkpt lat="45.54176" lon="6.05575">
        <ele>1128</ele>
        <time>2021-06-27T13:49:30.729Z</time>
      </trkpt>
      <trkpt lat="45.54175" lon="6.05575">
        <ele>1128</ele>
        <time>2021-06-27T13:49:31.729Z</time>
      </trkpt>
      <trkpt lat="45.54175" lon="6.05575">
        <ele>1128</ele>
        <time>2021-06-27T13:49:32.728Z</time>
      </trkpt>
      <trkpt lat="45.54174" lon="6.05575">
        <ele>1127</ele>
        <time>2021-06-27T13:49:33.729Z</time>
      </trkpt>
      <trkpt lat="45.54173" lon="6.05575">
        <ele>1127</ele>
        <time>2021-06-27T13:49:34.729Z</time>
      </trkpt>
      <trkpt lat="45.54172" lon="6.05575">
        <ele>1127</ele>
        <time>2021-06-27T13:49:35.729Z</time>
      </trkpt>
      <trkpt lat="45.54171" lon="6.05574">
        <ele>1126</ele>
        <time>2021-06-27T13:49:36.729Z</time>
      </trkpt>
      <trkpt lat="45.54169" lon="6.05574">
        <ele>1126</ele>
        <time>2021-06-27T13:49:37.728Z</time>
      </trkpt>
      <trkpt lat="45.54168" lon="6.05575">
        <ele>1126</ele>
        <time>2021-06-27T13:49:38.729Z</time>
      </trkpt>
      <trkpt lat="45.54167" lon="6.05575">
        <ele>1125</ele>
        <time>2021-06-27T13:49:39.729Z</time>
      </trkpt>
      <trkpt lat="45.54167" lon="6.05575">
        <ele>1125</ele>
        <time>2021-06-27T13:49:40.729Z</time>
      </trkpt>
      <trkpt lat="45.54166" lon="6.05575">
        <ele>1125</ele>
        <time>2021-06-27T13:49:41.729Z</time>
      </trkpt>
      <trkpt lat="45.54165" lon="6.05575">
        <ele>1125</ele>
        <time>2021-06-27T13:49:42.729Z</time>
      </trkpt>
      <trkpt lat="45.54164" lon="6.05575">
        <ele>1125</ele>
        <time>2021-06-27T13:49:43.729Z</time>
      </trkpt>
      <trkpt lat="45.54164" lon="6.05574">
        <ele>1124</ele>
        <time>2021-06-27T13:49:44.729Z</time>
      </trkpt>
      <trkpt lat="45.54163" lon="6.05574">
        <ele>1123</ele>
        <time>2021-06-27T13:49:45.728Z</time>
      </trkpt>
      <trkpt lat="45.54162" lon="6.05574">
        <ele>1122</ele>
        <time>2021-06-27T13:49:46.729Z</time>
      </trkpt>
      <trkpt lat="45.54162" lon="6.05575">
        <ele>1121</ele>
        <time>2021-06-27T13:49:47.729Z</time>
      </trkpt>
      <trkpt lat="45.54162" lon="6.05575">
        <ele>1120</ele>
        <time>2021-06-27T13:49:48.728Z</time>
      </trkpt>
      <trkpt lat="45.54161" lon="6.05575">
        <ele>1120</ele>
        <time>2021-06-27T13:49:49.728Z</time>
      </trkpt>
      <trkpt lat="45.5416" lon="6.05575">
        <ele>1119</ele>
        <time>2021-06-27T13:49:50.728Z</time>
      </trkpt>
      <trkpt lat="45.54159" lon="6.05575">
        <ele>1119</ele>
        <time>2021-06-27T13:49:51.729Z</time>
      </trkpt>
      <trkpt lat="45.54159" lon="6.05577">
        <ele>1119</ele>
        <time>2021-06-27T13:49:52.729Z</time>
      </trkpt>
      <trkpt lat="45.54158" lon="6.05577">
        <ele>1119</ele>
        <time>2021-06-27T13:49:53.728Z</time>
      </trkpt>
      <trkpt lat="45.54156" lon="6.05579">
        <ele>1119</ele>
        <time>2021-06-27T13:49:54.729Z</time>
      </trkpt>
      <trkpt lat="45.54155" lon="6.0558">
        <ele>1119</ele>
        <time>2021-06-27T13:49:55.729Z</time>
      </trkpt>
      <trkpt lat="45.54153" lon="6.0558">
        <ele>1118</ele>
        <time>2021-06-27T13:49:56.729Z</time>
      </trkpt>
      <trkpt lat="45.54152" lon="6.0558">
        <ele>1118</ele>
        <time>2021-06-27T13:49:57.728Z</time>
      </trkpt>
      <trkpt lat="45.54151" lon="6.05581">
        <ele>1117</ele>
        <time>2021-06-27T13:49:58.729Z</time>
      </trkpt>
      <trkpt lat="45.5415" lon="6.05581">
        <ele>1116</ele>
        <time>2021-06-27T13:49:59.728Z</time>
      </trkpt>
      <trkpt lat="45.54149" lon="6.05582">
        <ele>1116</ele>
        <time>2021-06-27T13:50:00.729Z</time>
      </trkpt>
      <trkpt lat="45.54148" lon="6.05583">
        <ele>1117</ele>
        <time>2021-06-27T13:50:01.728Z</time>
      </trkpt>
      <trkpt lat="45.54147" lon="6.05584">
        <ele>1117</ele>
        <time>2021-06-27T14:09:47.591Z</time>
      </trkpt>
      <trkpt lat="45.54147" lon="6.05584">
        <ele>1118</ele>
        <time>2021-06-27T14:09:48.591Z</time>
      </trkpt>
      <trkpt lat="45.54146" lon="6.05583">
        <ele>1119</ele>
        <time>2021-06-27T14:09:49.591Z</time>
      </trkpt>
      <trkpt lat="45.54145" lon="6.05584">
        <ele>1120</ele>
        <time>2021-06-27T14:09:50.591Z</time>
      </trkpt>
      <trkpt lat="45.54144" lon="6.05585">
        <ele>1120</ele>
        <time>2021-06-27T14:09:51.591Z</time>
      </trkpt>
      <trkpt lat="45.54143" lon="6.05585">
        <ele>1121</ele>
        <time>2021-06-27T14:09:52.591Z</time>
      </trkpt>
      <trkpt lat="45.54143" lon="6.05585">
        <ele>1120</ele>
        <time>2021-06-27T14:09:53.590Z</time>
      </trkpt>
      <trkpt lat="45.54142" lon="6.05584">
        <ele>1120</ele>
        <time>2021-06-27T14:09:54.591Z</time>
      </trkpt>
      <trkpt lat="45.5414" lon="6.05584">
        <ele>1119</ele>
        <time>2021-06-27T14:09:55.591Z</time>
      </trkpt>
      <trkpt lat="45.5414" lon="6.05583">
        <ele>1118</ele>
        <time>2021-06-27T14:09:56.591Z</time>
      </trkpt>
      <trkpt lat="45.54139" lon="6.05582">
        <ele>1117</ele>
        <time>2021-06-27T14:09:57.591Z</time>
      </trkpt>
      <trkpt lat="45.54138" lon="6.05581">
        <ele>1115</ele>
        <time>2021-06-27T14:09:58.591Z</time>
      </trkpt>
      <trkpt lat="45.54137" lon="6.0558">
        <ele>1113</ele>
        <time>2021-06-27T14:09:59.591Z</time>
      </trkpt>
      <trkpt lat="45.54135" lon="6.05579">
        <ele>1111</ele>
        <time>2021-06-27T14:10:00.591Z</time>
      </trkpt>
      <trkpt lat="45.54134" lon="6.05578">
        <ele>1109</ele>
        <time>2021-06-27T14:10:01.591Z</time>
      </trkpt>
      <trkpt lat="45.54133" lon="6.05578">
        <ele>1108</ele>
        <time>2021-06-27T14:10:02.591Z</time>
      </trkpt>
      <trkpt lat="45.54132" lon="6.05579">
        <ele>1107</ele>
        <time>2021-06-27T14:10:03.591Z</time>
      </trkpt>
      <trkpt lat="45.54131" lon="6.05579">
        <ele>1106</ele>
        <time>2021-06-27T14:10:04.590Z</time>
      </trkpt>
      <trkpt lat="45.5413" lon="6.0558">
        <ele>1106</ele>
        <time>2021-06-27T14:10:05.591Z</time>
      </trkpt>
      <trkpt lat="45.54129" lon="6.0558">
        <ele>1105</ele>
        <time>2021-06-27T14:10:06.591Z</time>
      </trkpt>
      <trkpt lat="45.54128" lon="6.0558">
        <ele>1105</ele>
        <time>2021-06-27T14:10:07.591Z</time>
      </trkpt>
      <trkpt lat="45.54127" lon="6.05578">
        <ele>1104</ele>
        <time>2021-06-27T14:10:08.591Z</time>
      </trkpt>
      <trkpt lat="45.54127" lon="6.05577">
        <ele>1103</ele>
        <time>2021-06-27T14:10:09.591Z</time>
      </trkpt>
      <trkpt lat="45.54126" lon="6.05576">
        <ele>1103</ele>
        <time>2021-06-27T14:10:10.591Z</time>
      </trkpt>
      <trkpt lat="45.54126" lon="6.05575">
        <ele>1102</ele>
        <time>2021-06-27T14:10:11.590Z</time>
      </trkpt>
      <trkpt lat="45.54126" lon="6.05574">
        <ele>1101</ele>
        <time>2021-06-27T14:10:12.591Z</time>
      </trkpt>
      <trkpt lat="45.54125" lon="6.05574">
        <ele>1100</ele>
        <time>2021-06-27T14:10:13.591Z</time>
      </trkpt>
      <trkpt lat="45.54124" lon="6.05573">
        <ele>1100</ele>
        <time>2021-06-27T14:10:14.591Z</time>
      </trkpt>
      <trkpt lat="45.54123" lon="6.05572">
        <ele>1099</ele>
        <time>2021-06-27T14:10:15.591Z</time>
      </trkpt>
      <trkpt lat="45.54122" lon="6.05571">
        <ele>1098</ele>
        <time>2021-06-27T14:10:16.591Z</time>
      </trkpt>
      <trkpt lat="45.54121" lon="6.0557">
        <ele>1097</ele>
        <time>2021-06-27T14:10:17.591Z</time>
      </trkpt>
      <trkpt lat="45.54119" lon="6.0557">
        <ele>1096</ele>
        <time>2021-06-27T14:10:18.590Z</time>
      </trkpt>
      <trkpt lat="45.54118" lon="6.05569">
        <ele>1095</ele>
        <time>2021-06-27T14:10:19.591Z</time>
      </trkpt>
      <trkpt lat="45.54117" lon="6.05568">
        <ele>1094</ele>
        <time>2021-06-27T14:10:20.591Z</time>
      </trkpt>
      <trkpt lat="45.54115" lon="6.05567">
        <ele>1093</ele>
        <time>2021-06-27T14:10:21.591Z</time>
      </trkpt>
      <trkpt lat="45.54115" lon="6.05566">
        <ele>1092</ele>
        <time>2021-06-27T14:10:22.591Z</time>
      </trkpt>
      <trkpt lat="45.54114" lon="6.05565">
        <ele>1092</ele>
        <time>2021-06-27T14:10:23.591Z</time>
      </trkpt>
      <trkpt lat="45.54114" lon="6.05564">
        <ele>1091</ele>
        <time>2021-06-27T14:10:24.591Z</time>
      </trkpt>
      <trkpt lat="45.54114" lon="6.05563">
        <ele>1091</ele>
        <time>2021-06-27T14:10:25.591Z</time>
      </trkpt>
      <trkpt lat="45.54114" lon="6.05562">
        <ele>1090</ele>
        <time>2021-06-27T14:10:26.591Z</time>
      </trkpt>
      <trkpt lat="45.54113" lon="6.05561">
        <ele>1090</ele>
        <time>2021-06-27T14:10:27.591Z</time>
      </trkpt>
      <trkpt lat="45.54113" lon="6.0556">
        <ele>1089</ele>
        <time>2021-06-27T14:10:28.590Z</time>
      </trkpt>
      <trkpt lat="45.54113" lon="6.05558">
        <ele>1089</ele>
        <time>2021-06-27T14:10:29.591Z</time>
      </trkpt>
      <trkpt lat="45.54112" lon="6.05557">
        <ele>1089</ele>
        <time>2021-06-27T14:10:30.591Z</time>
      </trkpt>
      <trkpt lat="45.54112" lon="6.05557">
        <ele>1090</ele>
        <time>2021-06-27T14:10:31.591Z</time>
      </trkpt>
      <trkpt lat="45.54112" lon="6.05556">
        <ele>1090</ele>
        <time>2021-06-27T14:10:32.591Z</time>
      </trkpt>
      <trkpt lat="45.54111" lon="6.05554">
        <ele>1091</ele>
        <time>2021-06-27T14:10:33.591Z</time>
      </trkpt>
      <trkpt lat="45.54111" lon="6.05553">
        <ele>1091</ele>
        <time>2021-06-27T14:10:34.590Z</time>
      </trkpt>
      <trkpt lat="45.54111" lon="6.05552">
        <ele>1091</ele>
        <time>2021-06-27T14:10:35.591Z</time>
      </trkpt>
      <trkpt lat="45.54109" lon="6.0555">
        <ele>1092</ele>
        <time>2021-06-27T14:10:36.591Z</time>
      </trkpt>
      <trkpt lat="45.54108" lon="6.05549">
        <ele>1092</ele>
        <time>2021-06-27T14:10:37.590Z</time>
      </trkpt>
      <trkpt lat="45.54107" lon="6.05546">
        <ele>1092</ele>
        <time>2021-06-27T14:10:38.590Z</time>
      </trkpt>
      <trkpt lat="45.54106" lon="6.05544">
        <ele>1092</ele>
        <time>2021-06-27T14:10:39.591Z</time>
      </trkpt>
      <trkpt lat="45.54105" lon="6.05543">
        <ele>1092</ele>
        <time>2021-06-27T14:10:40.591Z</time>
      </trkpt>
      <trkpt lat="45.54105" lon="6.05541">
        <ele>1092</ele>
        <time>2021-06-27T14:10:41.590Z</time>
      </trkpt>
      <trkpt lat="45.54104" lon="6.05539">
        <ele>1092</ele>
        <time>2021-06-27T14:10:42.591Z</time>
      </trkpt>
      <trkpt lat="45.54104" lon="6.05538">
        <ele>1091</ele>
        <time>2021-06-27T14:10:43.591Z</time>
      </trkpt>
      <trkpt lat="45.54104" lon="6.05537">
        <ele>1091</ele>
        <time>2021-06-27T14:10:44.591Z</time>
      </trkpt>
      <trkpt lat="45.54103" lon="6.05536">
        <ele>1091</ele>
        <time>2021-06-27T14:10:45.591Z</time>
      </trkpt>
      <trkpt lat="45.54103" lon="6.05535">
        <ele>1091</ele>
        <time>2021-06-27T14:10:46.591Z</time>
      </trkpt>
      <trkpt lat="45.54103" lon="6.05534">
        <ele>1091</ele>
        <time>2021-06-27T14:10:47.591Z</time>
      </trkpt>
      <trkpt lat="45.54102" lon="6.05532">
        <ele>1091</ele>
        <time>2021-06-27T14:10:48.591Z</time>
      </trkpt>
      <trkpt lat="45.54102" lon="6.05531">
        <ele>1091</ele>
        <time>2021-06-27T14:10:49.591Z</time>
      </trkpt>
      <trkpt lat="45.54101" lon="6.0553">
        <ele>1091</ele>
        <time>2021-06-27T14:10:50.591Z</time>
      </trkpt>
      <trkpt lat="45.54101" lon="6.05528">
        <ele>1091</ele>
        <time>2021-06-27T14:10:51.591Z</time>
      </trkpt>
      <trkpt lat="45.541" lon="6.05527">
        <ele>1091</ele>
        <time>2021-06-27T14:10:52.591Z</time>
      </trkpt>
      <trkpt lat="45.541" lon="6.05526">
        <ele>1091</ele>
        <time>2021-06-27T14:10:53.591Z</time>
      </trkpt>
      <trkpt lat="45.541" lon="6.05525">
        <ele>1090</ele>
        <time>2021-06-27T14:10:54.591Z</time>
      </trkpt>
      <trkpt lat="45.54099" lon="6.05524">
        <ele>1089</ele>
        <time>2021-06-27T14:10:55.591Z</time>
      </trkpt>
      <trkpt lat="45.54099" lon="6.05523">
        <ele>1087</ele>
        <time>2021-06-27T14:10:56.591Z</time>
      </trkpt>
      <trkpt lat="45.54098" lon="6.05521">
        <ele>1086</ele>
        <time>2021-06-27T14:10:57.590Z</time>
      </trkpt>
      <trkpt lat="45.54097" lon="6.0552">
        <ele>1086</ele>
        <time>2021-06-27T14:10:58.590Z</time>
      </trkpt>
      <trkpt lat="45.54096" lon="6.05518">
        <ele>1085</ele>
        <time>2021-06-27T14:10:59.591Z</time>
      </trkpt>
      <trkpt lat="45.54095" lon="6.05517">
        <ele>1084</ele>
        <time>2021-06-27T14:11:00.590Z</time>
      </trkpt>
      <trkpt lat="45.54095" lon="6.05515">
        <ele>1084</ele>
        <time>2021-06-27T14:11:01.591Z</time>
      </trkpt>
      <trkpt lat="45.54094" lon="6.05513">
        <ele>1083</ele>
        <time>2021-06-27T14:11:02.591Z</time>
      </trkpt>
      <trkpt lat="45.54094" lon="6.05512">
        <ele>1083</ele>
        <time>2021-06-27T14:11:03.591Z</time>
      </trkpt>
      <trkpt lat="45.54095" lon="6.0551">
        <ele>1082</ele>
        <time>2021-06-27T14:11:04.591Z</time>
      </trkpt>
      <trkpt lat="45.54095" lon="6.05509">
        <ele>1082</ele>
        <time>2021-06-27T14:11:05.591Z</time>
      </trkpt>
      <trkpt lat="45.54096" lon="6.05507">
        <ele>1081</ele>
        <time>2021-06-27T14:11:06.591Z</time>
      </trkpt>
      <trkpt lat="45.54096" lon="6.05506">
        <ele>1081</ele>
        <time>2021-06-27T14:11:07.591Z</time>
      </trkpt>
      <trkpt lat="45.54097" lon="6.05505">
        <ele>1081</ele>
        <time>2021-06-27T14:11:08.591Z</time>
      </trkpt>
      <trkpt lat="45.54097" lon="6.05504">
        <ele>1081</ele>
        <time>2021-06-27T14:11:09.591Z</time>
      </trkpt>
      <trkpt lat="45.54098" lon="6.05503">
        <ele>1081</ele>
        <time>2021-06-27T14:11:10.591Z</time>
      </trkpt>
      <trkpt lat="45.54098" lon="6.05502">
        <ele>1081</ele>
        <time>2021-06-27T14:11:11.591Z</time>
      </trkpt>
      <trkpt lat="45.54099" lon="6.05501">
        <ele>1080</ele>
        <time>2021-06-27T14:11:12.590Z</time>
      </trkpt>
      <trkpt lat="45.54099" lon="6.055">
        <ele>1080</ele>
        <time>2021-06-27T14:11:13.591Z</time>
      </trkpt>
      <trkpt lat="45.541" lon="6.05498">
        <ele>1080</ele>
        <time>2021-06-27T14:11:14.591Z</time>
      </trkpt>
      <trkpt lat="45.54101" lon="6.05498">
        <ele>1079</ele>
        <time>2021-06-27T14:11:15.590Z</time>
      </trkpt>
      <trkpt lat="45.54101" lon="6.05497">
        <ele>1079</ele>
        <time>2021-06-27T14:11:16.590Z</time>
      </trkpt>
      <trkpt lat="45.54102" lon="6.05496">
        <ele>1079</ele>
        <time>2021-06-27T14:11:17.590Z</time>
      </trkpt>
      <trkpt lat="45.54103" lon="6.05495">
        <ele>1078</ele>
        <time>2021-06-27T14:11:18.590Z</time>
      </trkpt>
      <trkpt lat="45.54104" lon="6.05494">
        <ele>1078</ele>
        <time>2021-06-27T14:11:19.590Z</time>
      </trkpt>
      <trkpt lat="45.54105" lon="6.05493">
        <ele>1079</ele>
        <time>2021-06-27T14:11:20.590Z</time>
      </trkpt>
      <trkpt lat="45.54105" lon="6.05492">
        <ele>1079</ele>
        <time>2021-06-27T14:11:21.590Z</time>
      </trkpt>
      <trkpt lat="45.54106" lon="6.05491">
        <ele>1079</ele>
        <time>2021-06-27T14:11:22.591Z</time>
      </trkpt>
      <trkpt lat="45.54107" lon="6.05489">
        <ele>1079</ele>
        <time>2021-06-27T14:11:23.591Z</time>
      </trkpt>
      <trkpt lat="45.54108" lon="6.05489">
        <ele>1079</ele>
        <time>2021-06-27T14:11:24.591Z</time>
      </trkpt>
      <trkpt lat="45.54108" lon="6.05488">
        <ele>1079</ele>
        <time>2021-06-27T14:11:25.591Z</time>
      </trkpt>
      <trkpt lat="45.54109" lon="6.05488">
        <ele>1078</ele>
        <time>2021-06-27T14:11:26.590Z</time>
      </trkpt>
      <trkpt lat="45.54109" lon="6.05486">
        <ele>1078</ele>
        <time>2021-06-27T14:11:27.591Z</time>
      </trkpt>
      <trkpt lat="45.5411" lon="6.05485">
        <ele>1077</ele>
        <time>2021-06-27T14:11:28.591Z</time>
      </trkpt>
      <trkpt lat="45.54111" lon="6.05483">
        <ele>1077</ele>
        <time>2021-06-27T14:11:29.591Z</time>
      </trkpt>
      <trkpt lat="45.54111" lon="6.05482">
        <ele>1076</ele>
        <time>2021-06-27T14:11:30.591Z</time>
      </trkpt>
      <trkpt lat="45.54112" lon="6.0548">
        <ele>1075</ele>
        <time>2021-06-27T14:11:31.591Z</time>
      </trkpt>
      <trkpt lat="45.54113" lon="6.05478">
        <ele>1074</ele>
        <time>2021-06-27T14:11:32.591Z</time>
      </trkpt>
      <trkpt lat="45.54113" lon="6.05476">
        <ele>1073</ele>
        <time>2021-06-27T14:11:33.591Z</time>
      </trkpt>
      <trkpt lat="45.54114" lon="6.05474">
        <ele>1073</ele>
        <time>2021-06-27T14:11:34.591Z</time>
      </trkpt>
      <trkpt lat="45.54114" lon="6.05471">
        <ele>1072</ele>
        <time>2021-06-27T14:11:35.591Z</time>
      </trkpt>
      <trkpt lat="45.54115" lon="6.05469">
        <ele>1072</ele>
        <time>2021-06-27T14:11:36.591Z</time>
      </trkpt>
      <trkpt lat="45.54115" lon="6.05467">
        <ele>1072</ele>
        <time>2021-06-27T14:11:37.591Z</time>
      </trkpt>
      <trkpt lat="45.54116" lon="6.05466">
        <ele>1071</ele>
        <time>2021-06-27T14:11:38.591Z</time>
      </trkpt>
      <trkpt lat="45.54117" lon="6.05464">
        <ele>1071</ele>
        <time>2021-06-27T14:11:39.591Z</time>
      </trkpt>
      <trkpt lat="45.54118" lon="6.05463">
        <ele>1071</ele>
        <time>2021-06-27T14:11:40.591Z</time>
      </trkpt>
      <trkpt lat="45.54118" lon="6.05461">
        <ele>1070</ele>
        <time>2021-06-27T14:11:41.591Z</time>
      </trkpt>
      <trkpt lat="45.54119" lon="6.05459">
        <ele>1070</ele>
        <time>2021-06-27T14:11:42.591Z</time>
      </trkpt>
      <trkpt lat="45.5412" lon="6.05458">
        <ele>1070</ele>
        <time>2021-06-27T14:11:43.591Z</time>
      </trkpt>
      <trkpt lat="45.5412" lon="6.05456">
        <ele>1070</ele>
        <time>2021-06-27T14:11:44.591Z</time>
      </trkpt>
      <trkpt lat="45.54121" lon="6.05454">
        <ele>1070</ele>
        <time>2021-06-27T14:11:45.591Z</time>
      </trkpt>
      <trkpt lat="45.54121" lon="6.05452">
        <ele>1069</ele>
        <time>2021-06-27T14:11:46.591Z</time>
      </trkpt>
      <trkpt lat="45.54122" lon="6.0545">
        <ele>1069</ele>
        <time>2021-06-27T14:11:47.591Z</time>
      </trkpt>
      <trkpt lat="45.54122" lon="6.05448">
        <ele>1069</ele>
        <time>2021-06-27T14:11:48.591Z</time>
      </trkpt>
      <trkpt lat="45.54121" lon="6.05446">
        <ele>1069</ele>
        <time>2021-06-27T14:11:49.591Z</time>
      </trkpt>
      <trkpt lat="45.5412" lon="6.05445">
        <ele>1069</ele>
        <time>2021-06-27T14:11:50.591Z</time>
      </trkpt>
      <trkpt lat="45.5412" lon="6.05444">
        <ele>1068</ele>
        <time>2021-06-27T14:11:51.591Z</time>
      </trkpt>
      <trkpt lat="45.5412" lon="6.05442">
        <ele>1068</ele>
        <time>2021-06-27T14:11:52.591Z</time>
      </trkpt>
      <trkpt lat="45.5412" lon="6.0544">
        <ele>1067</ele>
        <time>2021-06-27T14:11:53.590Z</time>
      </trkpt>
      <trkpt lat="45.5412" lon="6.05438">
        <ele>1066</ele>
        <time>2021-06-27T14:11:54.591Z</time>
      </trkpt>
      <trkpt lat="45.5412" lon="6.05436">
        <ele>1066</ele>
        <time>2021-06-27T14:11:55.591Z</time>
      </trkpt>
      <trkpt lat="45.5412" lon="6.05434">
        <ele>1066</ele>
        <time>2021-06-27T14:11:56.591Z</time>
      </trkpt>
      <trkpt lat="45.5412" lon="6.05433">
        <ele>1066</ele>
        <time>2021-06-27T14:11:57.591Z</time>
      </trkpt>
      <trkpt lat="45.54119" lon="6.05431">
        <ele>1066</ele>
        <time>2021-06-27T14:11:58.591Z</time>
      </trkpt>
      <trkpt lat="45.5412" lon="6.05429">
        <ele>1065</ele>
        <time>2021-06-27T14:11:59.591Z</time>
      </trkpt>
      <trkpt lat="45.5412" lon="6.05429">
        <ele>1065</ele>
        <time>2021-06-27T14:12:00.591Z</time>
      </trkpt>
      <trkpt lat="45.5412" lon="6.05427">
        <ele>1064</ele>
        <time>2021-06-27T14:12:01.591Z</time>
      </trkpt>
      <trkpt lat="45.5412" lon="6.05426">
        <ele>1064</ele>
        <time>2021-06-27T14:12:02.590Z</time>
      </trkpt>
      <trkpt lat="45.5412" lon="6.05424">
        <ele>1063</ele>
        <time>2021-06-27T14:12:03.591Z</time>
      </trkpt>
      <trkpt lat="45.5412" lon="6.05422">
        <ele>1062</ele>
        <time>2021-06-27T14:12:04.591Z</time>
      </trkpt>
      <trkpt lat="45.5412" lon="6.0542">
        <ele>1062</ele>
        <time>2021-06-27T14:12:05.591Z</time>
      </trkpt>
      <trkpt lat="45.5412" lon="6.05419">
        <ele>1061</ele>
        <time>2021-06-27T14:12:06.591Z</time>
      </trkpt>
      <trkpt lat="45.5412" lon="6.05418">
        <ele>1060</ele>
        <time>2021-06-27T14:12:07.591Z</time>
      </trkpt>
      <trkpt lat="45.5412" lon="6.05416">
        <ele>1059</ele>
        <time>2021-06-27T14:12:08.591Z</time>
      </trkpt>
      <trkpt lat="45.54121" lon="6.05415">
        <ele>1059</ele>
        <time>2021-06-27T14:12:09.591Z</time>
      </trkpt>
      <trkpt lat="45.54121" lon="6.05413">
        <ele>1058</ele>
        <time>2021-06-27T14:12:10.591Z</time>
      </trkpt>
      <trkpt lat="45.54121" lon="6.05411">
        <ele>1057</ele>
        <time>2021-06-27T14:12:11.591Z</time>
      </trkpt>
      <trkpt lat="45.54121" lon="6.0541">
        <ele>1057</ele>
        <time>2021-06-27T14:12:12.591Z</time>
      </trkpt>
      <trkpt lat="45.54121" lon="6.05408">
        <ele>1056</ele>
        <time>2021-06-27T14:12:13.591Z</time>
      </trkpt>
      <trkpt lat="45.54121" lon="6.05407">
        <ele>1056</ele>
        <time>2021-06-27T14:12:14.591Z</time>
      </trkpt>
      <trkpt lat="45.54121" lon="6.05405">
        <ele>1055</ele>
        <time>2021-06-27T14:12:15.591Z</time>
      </trkpt>
      <trkpt lat="45.54121" lon="6.05403">
        <ele>1055</ele>
        <time>2021-06-27T14:12:16.591Z</time>
      </trkpt>
      <trkpt lat="45.54121" lon="6.05402">
        <ele>1054</ele>
        <time>2021-06-27T14:12:17.591Z</time>
      </trkpt>
      <trkpt lat="45.54121" lon="6.054">
        <ele>1054</ele>
        <time>2021-06-27T14:12:18.591Z</time>
      </trkpt>
      <trkpt lat="45.54121" lon="6.05398">
        <ele>1054</ele>
        <time>2021-06-27T14:12:19.591Z</time>
      </trkpt>
      <trkpt lat="45.54121" lon="6.05397">
        <ele>1053</ele>
        <time>2021-06-27T14:12:20.591Z</time>
      </trkpt>
      <trkpt lat="45.54121" lon="6.05395">
        <ele>1053</ele>
        <time>2021-06-27T14:12:21.591Z</time>
      </trkpt>
      <trkpt lat="45.54121" lon="6.05394">
        <ele>1052</ele>
        <time>2021-06-27T14:12:22.591Z</time>
      </trkpt>
      <trkpt lat="45.54122" lon="6.05392">
        <ele>1052</ele>
        <time>2021-06-27T14:12:23.591Z</time>
      </trkpt>
      <trkpt lat="45.54122" lon="6.05391">
        <ele>1052</ele>
        <time>2021-06-27T14:12:24.590Z</time>
      </trkpt>
      <trkpt lat="45.54122" lon="6.05389">
        <ele>1052</ele>
        <time>2021-06-27T14:12:25.591Z</time>
      </trkpt>
      <trkpt lat="45.54123" lon="6.05387">
        <ele>1052</ele>
        <time>2021-06-27T14:12:26.591Z</time>
      </trkpt>
      <trkpt lat="45.54123" lon="6.05386">
        <ele>1051</ele>
        <time>2021-06-27T14:12:27.591Z</time>
      </trkpt>
      <trkpt lat="45.54123" lon="6.05385">
        <ele>1051</ele>
        <time>2021-06-27T14:12:28.591Z</time>
      </trkpt>
      <trkpt lat="45.54124" lon="6.05383">
        <ele>1051</ele>
        <time>2021-06-27T14:12:29.590Z</time>
      </trkpt>
      <trkpt lat="45.54124" lon="6.05382">
        <ele>1051</ele>
        <time>2021-06-27T14:12:30.591Z</time>
      </trkpt>
      <trkpt lat="45.54123" lon="6.0538">
        <ele>1051</ele>
        <time>2021-06-27T14:12:31.591Z</time>
      </trkpt>
      <trkpt lat="45.54123" lon="6.0538">
        <ele>1051</ele>
        <time>2021-06-27T14:12:32.590Z</time>
      </trkpt>
      <trkpt lat="45.54123" lon="6.05379">
        <ele>1050</ele>
        <time>2021-06-27T14:12:33.590Z</time>
      </trkpt>
      <trkpt lat="45.54123" lon="6.05377">
        <ele>1050</ele>
        <time>2021-06-27T14:12:34.591Z</time>
      </trkpt>
      <trkpt lat="45.54123" lon="6.05376">
        <ele>1050</ele>
        <time>2021-06-27T14:12:35.591Z</time>
      </trkpt>
      <trkpt lat="45.54124" lon="6.05375">
        <ele>1050</ele>
        <time>2021-06-27T14:12:36.591Z</time>
      </trkpt>
      <trkpt lat="45.54124" lon="6.05374">
        <ele>1050</ele>
        <time>2021-06-27T14:12:37.591Z</time>
      </trkpt>
      <trkpt lat="45.54124" lon="6.05373">
        <ele>1050</ele>
        <time>2021-06-27T14:12:38.591Z</time>
      </trkpt>
      <trkpt lat="45.54124" lon="6.05372">
        <ele>1050</ele>
        <time>2021-06-27T14:12:39.591Z</time>
      </trkpt>
      <trkpt lat="45.54125" lon="6.0537">
        <ele>1049</ele>
        <time>2021-06-27T14:12:40.591Z</time>
      </trkpt>
      <trkpt lat="45.54126" lon="6.05369">
        <ele>1049</ele>
        <time>2021-06-27T14:12:41.591Z</time>
      </trkpt>
      <trkpt lat="45.54126" lon="6.05368">
        <ele>1049</ele>
        <time>2021-06-27T14:12:42.591Z</time>
      </trkpt>
      <trkpt lat="45.54127" lon="6.05367">
        <ele>1048</ele>
        <time>2021-06-27T14:12:43.590Z</time>
      </trkpt>
      <trkpt lat="45.54127" lon="6.05365">
        <ele>1048</ele>
        <time>2021-06-27T14:12:44.590Z</time>
      </trkpt>
      <trkpt lat="45.54128" lon="6.05364">
        <ele>1047</ele>
        <time>2021-06-27T14:12:45.591Z</time>
      </trkpt>
      <trkpt lat="45.54129" lon="6.05363">
        <ele>1046</ele>
        <time>2021-06-27T14:12:46.591Z</time>
      </trkpt>
      <trkpt lat="45.54129" lon="6.05362">
        <ele>1046</ele>
        <time>2021-06-27T14:12:47.591Z</time>
      </trkpt>
      <trkpt lat="45.5413" lon="6.0536">
        <ele>1046</ele>
        <time>2021-06-27T14:12:48.591Z</time>
      </trkpt>
      <trkpt lat="45.54131" lon="6.05359">
        <ele>1046</ele>
        <time>2021-06-27T14:12:49.591Z</time>
      </trkpt>
      <trkpt lat="45.54132" lon="6.05358">
        <ele>1046</ele>
        <time>2021-06-27T14:12:50.591Z</time>
      </trkpt>
      <trkpt lat="45.54133" lon="6.05357">
        <ele>1046</ele>
        <time>2021-06-27T14:12:51.591Z</time>
      </trkpt>
      <trkpt lat="45.54134" lon="6.05355">
        <ele>1046</ele>
        <time>2021-06-27T14:12:52.591Z</time>
      </trkpt>
      <trkpt lat="45.54134" lon="6.05354">
        <ele>1046</ele>
        <time>2021-06-27T14:12:53.591Z</time>
      </trkpt>
      <trkpt lat="45.54135" lon="6.05353">
        <ele>1046</ele>
        <time>2021-06-27T14:12:54.591Z</time>
      </trkpt>
      <trkpt lat="45.54136" lon="6.05352">
        <ele>1046</ele>
        <time>2021-06-27T14:12:55.591Z</time>
      </trkpt>
      <trkpt lat="45.54136" lon="6.0535">
        <ele>1046</ele>
        <time>2021-06-27T14:12:56.591Z</time>
      </trkpt>
      <trkpt lat="45.54137" lon="6.05349">
        <ele>1047</ele>
        <time>2021-06-27T14:12:57.591Z</time>
      </trkpt>
      <trkpt lat="45.54139" lon="6.05348">
        <ele>1047</ele>
        <time>2021-06-27T14:12:58.591Z</time>
      </trkpt>
      <trkpt lat="45.54139" lon="6.05347">
        <ele>1047</ele>
        <time>2021-06-27T14:12:59.591Z</time>
      </trkpt>
      <trkpt lat="45.5414" lon="6.05345">
        <ele>1047</ele>
        <time>2021-06-27T14:13:00.591Z</time>
      </trkpt>
      <trkpt lat="45.54141" lon="6.05343">
        <ele>1047</ele>
        <time>2021-06-27T14:13:01.591Z</time>
      </trkpt>
      <trkpt lat="45.54141" lon="6.05341">
        <ele>1047</ele>
        <time>2021-06-27T14:13:02.591Z</time>
      </trkpt>
      <trkpt lat="45.54142" lon="6.0534">
        <ele>1046</ele>
        <time>2021-06-27T14:13:03.591Z</time>
      </trkpt>
      <trkpt lat="45.54142" lon="6.05339">
        <ele>1046</ele>
        <time>2021-06-27T14:13:04.591Z</time>
      </trkpt>
      <trkpt lat="45.54143" lon="6.05338">
        <ele>1046</ele>
        <time>2021-06-27T14:13:05.591Z</time>
      </trkpt>
      <trkpt lat="45.54144" lon="6.05337">
        <ele>1046</ele>
        <time>2021-06-27T14:13:06.591Z</time>
      </trkpt>
      <trkpt lat="45.54145" lon="6.05335">
        <ele>1045</ele>
        <time>2021-06-27T14:13:07.591Z</time>
      </trkpt>
      <trkpt lat="45.54145" lon="6.05334">
        <ele>1045</ele>
        <time>2021-06-27T14:13:08.590Z</time>
      </trkpt>
      <trkpt lat="45.54146" lon="6.05332">
        <ele>1044</ele>
        <time>2021-06-27T14:13:09.591Z</time>
      </trkpt>
      <trkpt lat="45.54147" lon="6.05331">
        <ele>1044</ele>
        <time>2021-06-27T14:13:10.590Z</time>
      </trkpt>
      <trkpt lat="45.54148" lon="6.05329">
        <ele>1043</ele>
        <time>2021-06-27T14:13:11.591Z</time>
      </trkpt>
      <trkpt lat="45.54148" lon="6.05327">
        <ele>1042</ele>
        <time>2021-06-27T14:13:12.591Z</time>
      </trkpt>
      <trkpt lat="45.54149" lon="6.05326">
        <ele>1042</ele>
        <time>2021-06-27T14:13:13.591Z</time>
      </trkpt>
      <trkpt lat="45.54149" lon="6.05325">
        <ele>1041</ele>
        <time>2021-06-27T14:13:14.591Z</time>
      </trkpt>
      <trkpt lat="45.5415" lon="6.05324">
        <ele>1041</ele>
        <time>2021-06-27T14:13:15.591Z</time>
      </trkpt>
      <trkpt lat="45.54151" lon="6.05322">
        <ele>1040</ele>
        <time>2021-06-27T14:13:16.591Z</time>
      </trkpt>
      <trkpt lat="45.54151" lon="6.05321">
        <ele>1040</ele>
        <time>2021-06-27T14:13:17.591Z</time>
      </trkpt>
      <trkpt lat="45.54152" lon="6.05319">
        <ele>1039</ele>
        <time>2021-06-27T14:13:18.591Z</time>
      </trkpt>
      <trkpt lat="45.54152" lon="6.05318">
        <ele>1038</ele>
        <time>2021-06-27T14:13:19.591Z</time>
      </trkpt>
      <trkpt lat="45.54153" lon="6.05316">
        <ele>1038</ele>
        <time>2021-06-27T14:13:20.590Z</time>
      </trkpt>
      <trkpt lat="45.54153" lon="6.05315">
        <ele>1038</ele>
        <time>2021-06-27T14:13:21.591Z</time>
      </trkpt>
      <trkpt lat="45.54154" lon="6.05314">
        <ele>1037</ele>
        <time>2021-06-27T14:13:22.591Z</time>
      </trkpt>
      <trkpt lat="45.54155" lon="6.05313">
        <ele>1037</ele>
        <time>2021-06-27T14:13:23.591Z</time>
      </trkpt>
      <trkpt lat="45.54155" lon="6.05312">
        <ele>1037</ele>
        <time>2021-06-27T14:13:24.590Z</time>
      </trkpt>
      <trkpt lat="45.54156" lon="6.05311">
        <ele>1037</ele>
        <time>2021-06-27T14:13:25.591Z</time>
      </trkpt>
      <trkpt lat="45.54156" lon="6.05309">
        <ele>1036</ele>
        <time>2021-06-27T14:13:26.591Z</time>
      </trkpt>
      <trkpt lat="45.54157" lon="6.05308">
        <ele>1036</ele>
        <time>2021-06-27T14:13:27.591Z</time>
      </trkpt>
      <trkpt lat="45.54158" lon="6.05306">
        <ele>1035</ele>
        <time>2021-06-27T14:13:28.591Z</time>
      </trkpt>
      <trkpt lat="45.54158" lon="6.05305">
        <ele>1035</ele>
        <time>2021-06-27T14:13:29.591Z</time>
      </trkpt>
      <trkpt lat="45.54159" lon="6.05303">
        <ele>1035</ele>
        <time>2021-06-27T14:13:30.591Z</time>
      </trkpt>
      <trkpt lat="45.54159" lon="6.05301">
        <ele>1034</ele>
        <time>2021-06-27T14:13:31.591Z</time>
      </trkpt>
      <trkpt lat="45.5416" lon="6.05299">
        <ele>1034</ele>
        <time>2021-06-27T14:13:32.591Z</time>
      </trkpt>
      <trkpt lat="45.5416" lon="6.05298">
        <ele>1033</ele>
        <time>2021-06-27T14:13:33.591Z</time>
      </trkpt>
      <trkpt lat="45.54161" lon="6.05296">
        <ele>1033</ele>
        <time>2021-06-27T14:13:34.590Z</time>
      </trkpt>
      <trkpt lat="45.54161" lon="6.05295">
        <ele>1032</ele>
        <time>2021-06-27T14:13:35.591Z</time>
      </trkpt>
      <trkpt lat="45.54162" lon="6.05294">
        <ele>1032</ele>
        <time>2021-06-27T14:13:36.591Z</time>
      </trkpt>
      <trkpt lat="45.54162" lon="6.05292">
        <ele>1032</ele>
        <time>2021-06-27T14:13:37.591Z</time>
      </trkpt>
      <trkpt lat="45.54163" lon="6.05289">
        <ele>1031</ele>
        <time>2021-06-27T14:13:38.591Z</time>
      </trkpt>
      <trkpt lat="45.54163" lon="6.05288">
        <ele>1031</ele>
        <time>2021-06-27T14:13:39.591Z</time>
      </trkpt>
      <trkpt lat="45.54163" lon="6.05286">
        <ele>1030</ele>
        <time>2021-06-27T14:13:40.591Z</time>
      </trkpt>
      <trkpt lat="45.54164" lon="6.05284">
        <ele>1029</ele>
        <time>2021-06-27T14:13:41.590Z</time>
      </trkpt>
      <trkpt lat="45.54164" lon="6.05282">
        <ele>1029</ele>
        <time>2021-06-27T14:13:42.591Z</time>
      </trkpt>
      <trkpt lat="45.54165" lon="6.05281">
        <ele>1028</ele>
        <time>2021-06-27T14:13:43.591Z</time>
      </trkpt>
      <trkpt lat="45.54165" lon="6.05279">
        <ele>1028</ele>
        <time>2021-06-27T14:13:44.591Z</time>
      </trkpt>
      <trkpt lat="45.54166" lon="6.05278">
        <ele>1027</ele>
        <time>2021-06-27T14:13:45.590Z</time>
      </trkpt>
      <trkpt lat="45.54166" lon="6.05276">
        <ele>1026</ele>
        <time>2021-06-27T14:13:46.590Z</time>
      </trkpt>
      <trkpt lat="45.54166" lon="6.05274">
        <ele>1026</ele>
        <time>2021-06-27T14:13:47.591Z</time>
      </trkpt>
      <trkpt lat="45.54167" lon="6.05272">
        <ele>1025</ele>
        <time>2021-06-27T14:13:48.590Z</time>
      </trkpt>
      <trkpt lat="45.54167" lon="6.05271">
        <ele>1025</ele>
        <time>2021-06-27T14:13:49.591Z</time>
      </trkpt>
      <trkpt lat="45.54168" lon="6.05269">
        <ele>1025</ele>
        <time>2021-06-27T14:13:50.591Z</time>
      </trkpt>
      <trkpt lat="45.54168" lon="6.05267">
        <ele>1024</ele>
        <time>2021-06-27T14:13:51.591Z</time>
      </trkpt>
      <trkpt lat="45.54169" lon="6.05266">
        <ele>1024</ele>
        <time>2021-06-27T14:13:52.591Z</time>
      </trkpt>
      <trkpt lat="45.54169" lon="6.05265">
        <ele>1024</ele>
        <time>2021-06-27T14:13:53.591Z</time>
      </trkpt>
      <trkpt lat="45.5417" lon="6.05263">
        <ele>1024</ele>
        <time>2021-06-27T14:13:54.591Z</time>
      </trkpt>
      <trkpt lat="45.5417" lon="6.05261">
        <ele>1024</ele>
        <time>2021-06-27T14:13:55.591Z</time>
      </trkpt>
      <trkpt lat="45.54171" lon="6.0526">
        <ele>1023</ele>
        <time>2021-06-27T14:13:56.591Z</time>
      </trkpt>
      <trkpt lat="45.54171" lon="6.05257">
        <ele>1023</ele>
        <time>2021-06-27T14:13:57.591Z</time>
      </trkpt>
      <trkpt lat="45.54172" lon="6.05256">
        <ele>1023</ele>
        <time>2021-06-27T14:13:58.591Z</time>
      </trkpt>
      <trkpt lat="45.54172" lon="6.05254">
        <ele>1023</ele>
        <time>2021-06-27T14:13:59.591Z</time>
      </trkpt>
      <trkpt lat="45.54173" lon="6.05253">
        <ele>1023</ele>
        <time>2021-06-27T14:14:00.590Z</time>
      </trkpt>
      <trkpt lat="45.54173" lon="6.05252">
        <ele>1023</ele>
        <time>2021-06-27T14:14:01.591Z</time>
      </trkpt>
      <trkpt lat="45.54174" lon="6.05251">
        <ele>1022</ele>
        <time>2021-06-27T14:14:02.591Z</time>
      </trkpt>
      <trkpt lat="45.54174" lon="6.05249">
        <ele>1022</ele>
        <time>2021-06-27T14:14:03.591Z</time>
      </trkpt>
      <trkpt lat="45.54174" lon="6.05247">
        <ele>1023</ele>
        <time>2021-06-27T14:14:04.591Z</time>
      </trkpt>
      <trkpt lat="45.54174" lon="6.05246">
        <ele>1023</ele>
        <time>2021-06-27T14:14:05.591Z</time>
      </trkpt>
      <trkpt lat="45.54174" lon="6.05243">
        <ele>1023</ele>
        <time>2021-06-27T14:14:06.591Z</time>
      </trkpt>
      <trkpt lat="45.54175" lon="6.05241">
        <ele>1024</ele>
        <time>2021-06-27T14:14:07.590Z</time>
      </trkpt>
      <trkpt lat="45.54175" lon="6.0524">
        <ele>1023</ele>
        <time>2021-06-27T14:14:08.591Z</time>
      </trkpt>
      <trkpt lat="45.54175" lon="6.05237">
        <ele>1023</ele>
        <time>2021-06-27T14:14:09.591Z</time>
      </trkpt>
      <trkpt lat="45.54174" lon="6.05235">
        <ele>1023</ele>
        <time>2021-06-27T14:14:10.591Z</time>
      </trkpt>
      <trkpt lat="45.54174" lon="6.05233">
        <ele>1022</ele>
        <time>2021-06-27T14:14:11.591Z</time>
      </trkpt>
      <trkpt lat="45.54175" lon="6.05231">
        <ele>1021</ele>
        <time>2021-06-27T14:14:12.591Z</time>
      </trkpt>
      <trkpt lat="45.54174" lon="6.05229">
        <ele>1021</ele>
        <time>2021-06-27T14:14:13.591Z</time>
      </trkpt>
      <trkpt lat="45.54174" lon="6.05227">
        <ele>1021</ele>
        <time>2021-06-27T14:14:14.591Z</time>
      </trkpt>
      <trkpt lat="45.54175" lon="6.05225">
        <ele>1020</ele>
        <time>2021-06-27T14:14:15.590Z</time>
      </trkpt>
      <trkpt lat="45.54175" lon="6.05223">
        <ele>1020</ele>
        <time>2021-06-27T14:14:16.591Z</time>
      </trkpt>
      <trkpt lat="45.54175" lon="6.05221">
        <ele>1020</ele>
        <time>2021-06-27T14:14:17.591Z</time>
      </trkpt>
      <trkpt lat="45.54176" lon="6.05219">
        <ele>1019</ele>
        <time>2021-06-27T14:14:18.591Z</time>
      </trkpt>
      <trkpt lat="45.54176" lon="6.05218">
        <ele>1019</ele>
        <time>2021-06-27T14:14:19.591Z</time>
      </trkpt>
      <trkpt lat="45.54176" lon="6.05217">
        <ele>1019</ele>
        <time>2021-06-27T14:14:20.591Z</time>
      </trkpt>
      <trkpt lat="45.54176" lon="6.05216">
        <ele>1019</ele>
        <time>2021-06-27T14:14:21.590Z</time>
      </trkpt>
      <trkpt lat="45.54176" lon="6.05214">
        <ele>1019</ele>
        <time>2021-06-27T14:14:22.591Z</time>
      </trkpt>
      <trkpt lat="45.54177" lon="6.05212">
        <ele>1019</ele>
        <time>2021-06-27T14:14:23.591Z</time>
      </trkpt>
      <trkpt lat="45.54177" lon="6.05211">
        <ele>1019</ele>
        <time>2021-06-27T14:14:24.591Z</time>
      </trkpt>
      <trkpt lat="45.54177" lon="6.05209">
        <ele>1019</ele>
        <time>2021-06-27T14:14:25.590Z</time>
      </trkpt>
      <trkpt lat="45.54177" lon="6.05208">
        <ele>1019</ele>
        <time>2021-06-27T14:14:26.591Z</time>
      </trkpt>
      <trkpt lat="45.54177" lon="6.05207">
        <ele>1019</ele>
        <time>2021-06-27T14:14:27.591Z</time>
      </trkpt>
      <trkpt lat="45.54176" lon="6.05204">
        <ele>1019</ele>
        <time>2021-06-27T14:14:28.591Z</time>
      </trkpt>
      <trkpt lat="45.54175" lon="6.05203">
        <ele>1019</ele>
        <time>2021-06-27T14:14:29.591Z</time>
      </trkpt>
      <trkpt lat="45.54175" lon="6.052">
        <ele>1019</ele>
        <time>2021-06-27T14:14:30.591Z</time>
      </trkpt>
      <trkpt lat="45.54175" lon="6.05199">
        <ele>1019</ele>
        <time>2021-06-27T14:14:31.590Z</time>
      </trkpt>
      <trkpt lat="45.54175" lon="6.05197">
        <ele>1019</ele>
        <time>2021-06-27T14:14:32.591Z</time>
      </trkpt>
      <trkpt lat="45.54175" lon="6.05196">
        <ele>1019</ele>
        <time>2021-06-27T14:14:33.591Z</time>
      </trkpt>
      <trkpt lat="45.54175" lon="6.05195">
        <ele>1019</ele>
        <time>2021-06-27T14:14:34.591Z</time>
      </trkpt>
      <trkpt lat="45.54175" lon="6.05193">
        <ele>1018</ele>
        <time>2021-06-27T14:14:35.590Z</time>
      </trkpt>
      <trkpt lat="45.54174" lon="6.05191">
        <ele>1018</ele>
        <time>2021-06-27T14:14:36.591Z</time>
      </trkpt>
      <trkpt lat="45.54174" lon="6.0519">
        <ele>1018</ele>
        <time>2021-06-27T14:14:37.591Z</time>
      </trkpt>
      <trkpt lat="45.54174" lon="6.05189">
        <ele>1017</ele>
        <time>2021-06-27T14:14:38.591Z</time>
      </trkpt>
      <trkpt lat="45.54174" lon="6.05188">
        <ele>1017</ele>
        <time>2021-06-27T14:14:39.591Z</time>
      </trkpt>
      <trkpt lat="45.54174" lon="6.05186">
        <ele>1017</ele>
        <time>2021-06-27T14:14:40.591Z</time>
      </trkpt>
      <trkpt lat="45.54174" lon="6.05184">
        <ele>1016</ele>
        <time>2021-06-27T14:14:41.591Z</time>
      </trkpt>
      <trkpt lat="45.54174" lon="6.05183">
        <ele>1016</ele>
        <time>2021-06-27T14:14:42.591Z</time>
      </trkpt>
      <trkpt lat="45.54174" lon="6.05181">
        <ele>1016</ele>
        <time>2021-06-27T14:14:43.591Z</time>
      </trkpt>
      <trkpt lat="45.54174" lon="6.05179">
        <ele>1015</ele>
        <time>2021-06-27T14:14:44.591Z</time>
      </trkpt>
      <trkpt lat="45.54174" lon="6.05178">
        <ele>1014</ele>
        <time>2021-06-27T14:14:45.591Z</time>
      </trkpt>
      <trkpt lat="45.54174" lon="6.05176">
        <ele>1014</ele>
        <time>2021-06-27T14:14:46.591Z</time>
      </trkpt>
      <trkpt lat="45.54174" lon="6.05175">
        <ele>1013</ele>
        <time>2021-06-27T14:14:47.591Z</time>
      </trkpt>
      <trkpt lat="45.54174" lon="6.05174">
        <ele>1012</ele>
        <time>2021-06-27T14:14:48.591Z</time>
      </trkpt>
      <trkpt lat="45.54174" lon="6.05172">
        <ele>1011</ele>
        <time>2021-06-27T14:14:49.591Z</time>
      </trkpt>
      <trkpt lat="45.54174" lon="6.05171">
        <ele>1011</ele>
        <time>2021-06-27T14:14:50.591Z</time>
      </trkpt>
      <trkpt lat="45.54174" lon="6.05169">
        <ele>1010</ele>
        <time>2021-06-27T14:14:51.590Z</time>
      </trkpt>
      <trkpt lat="45.54174" lon="6.05168">
        <ele>1010</ele>
        <time>2021-06-27T14:14:52.591Z</time>
      </trkpt>
      <trkpt lat="45.54175" lon="6.05166">
        <ele>1010</ele>
        <time>2021-06-27T14:14:53.591Z</time>
      </trkpt>
      <trkpt lat="45.54175" lon="6.05165">
        <ele>1009</ele>
        <time>2021-06-27T14:14:54.591Z</time>
      </trkpt>
      <trkpt lat="45.54175" lon="6.05163">
        <ele>1010</ele>
        <time>2021-06-27T14:14:55.591Z</time>
      </trkpt>
      <trkpt lat="45.54175" lon="6.05162">
        <ele>1010</ele>
        <time>2021-06-27T14:14:56.590Z</time>
      </trkpt>
      <trkpt lat="45.54175" lon="6.05162">
        <ele>1010</ele>
        <time>2021-06-27T14:14:57.591Z</time>
      </trkpt>
      <trkpt lat="45.54176" lon="6.05161">
        <ele>1010</ele>
        <time>2021-06-27T14:14:58.591Z</time>
      </trkpt>
      <trkpt lat="45.54176" lon="6.0516">
        <ele>1010</ele>
        <time>2021-06-27T14:14:59.591Z</time>
      </trkpt>
      <trkpt lat="45.54177" lon="6.05158">
        <ele>1010</ele>
        <time>2021-06-27T14:15:00.591Z</time>
      </trkpt>
      <trkpt lat="45.54177" lon="6.05157">
        <ele>1010</ele>
        <time>2021-06-27T14:15:01.591Z</time>
      </trkpt>
      <trkpt lat="45.54178" lon="6.05155">
        <ele>1010</ele>
        <time>2021-06-27T14:15:02.590Z</time>
      </trkpt>
      <trkpt lat="45.54178" lon="6.05154">
        <ele>1009</ele>
        <time>2021-06-27T14:15:03.591Z</time>
      </trkpt>
      <trkpt lat="45.54178" lon="6.05152">
        <ele>1009</ele>
        <time>2021-06-27T14:15:04.591Z</time>
      </trkpt>
      <trkpt lat="45.54179" lon="6.05151">
        <ele>1009</ele>
        <time>2021-06-27T14:15:05.591Z</time>
      </trkpt>
      <trkpt lat="45.54179" lon="6.05149">
        <ele>1009</ele>
        <time>2021-06-27T14:15:06.591Z</time>
      </trkpt>
      <trkpt lat="45.5418" lon="6.05147">
        <ele>1008</ele>
        <time>2021-06-27T14:15:07.590Z</time>
      </trkpt>
      <trkpt lat="45.5418" lon="6.05145">
        <ele>1008</ele>
        <time>2021-06-27T14:15:08.591Z</time>
      </trkpt>
      <trkpt lat="45.54181" lon="6.05144">
        <ele>1007</ele>
        <time>2021-06-27T14:15:09.591Z</time>
      </trkpt>
      <trkpt lat="45.54181" lon="6.05143">
        <ele>1006</ele>
        <time>2021-06-27T14:15:10.591Z</time>
      </trkpt>
      <trkpt lat="45.54181" lon="6.05142">
        <ele>1006</ele>
        <time>2021-06-27T14:15:11.591Z</time>
      </trkpt>
      <trkpt lat="45.54182" lon="6.0514">
        <ele>1005</ele>
        <time>2021-06-27T14:15:12.591Z</time>
      </trkpt>
      <trkpt lat="45.54182" lon="6.05139">
        <ele>1004</ele>
        <time>2021-06-27T14:15:13.590Z</time>
      </trkpt>
      <trkpt lat="45.54182" lon="6.05137">
        <ele>1004</ele>
        <time>2021-06-27T14:15:14.591Z</time>
      </trkpt>
      <trkpt lat="45.54183" lon="6.05137">
        <ele>1003</ele>
        <time>2021-06-27T14:15:15.591Z</time>
      </trkpt>
      <trkpt lat="45.54183" lon="6.05135">
        <ele>1003</ele>
        <time>2021-06-27T14:15:16.591Z</time>
      </trkpt>
      <trkpt lat="45.54184" lon="6.05134">
        <ele>1002</ele>
        <time>2021-06-27T14:15:17.591Z</time>
      </trkpt>
      <trkpt lat="45.54184" lon="6.05133">
        <ele>1002</ele>
        <time>2021-06-27T14:15:18.591Z</time>
      </trkpt>
      <trkpt lat="45.54185" lon="6.05131">
        <ele>1001</ele>
        <time>2021-06-27T14:15:19.591Z</time>
      </trkpt>
      <trkpt lat="45.54185" lon="6.05129">
        <ele>1001</ele>
        <time>2021-06-27T14:15:20.591Z</time>
      </trkpt>
      <trkpt lat="45.54186" lon="6.05128">
        <ele>1001</ele>
        <time>2021-06-27T14:15:21.591Z</time>
      </trkpt>
      <trkpt lat="45.54187" lon="6.05126">
        <ele>1001</ele>
        <time>2021-06-27T14:15:22.591Z</time>
      </trkpt>
      <trkpt lat="45.54187" lon="6.05125">
        <ele>1001</ele>
        <time>2021-06-27T14:15:23.591Z</time>
      </trkpt>
      <trkpt lat="45.54188" lon="6.05124">
        <ele>1000</ele>
        <time>2021-06-27T14:15:24.591Z</time>
      </trkpt>
      <trkpt lat="45.54189" lon="6.05124">
        <ele>1000</ele>
        <time>2021-06-27T14:15:25.590Z</time>
      </trkpt>
      <trkpt lat="45.5419" lon="6.05123">
        <ele>1000</ele>
        <time>2021-06-27T14:15:26.590Z</time>
      </trkpt>
      <trkpt lat="45.54191" lon="6.05122">
        <ele>999</ele>
        <time>2021-06-27T14:15:27.591Z</time>
      </trkpt>
      <trkpt lat="45.54192" lon="6.05121">
        <ele>999</ele>
        <time>2021-06-27T14:15:28.591Z</time>
      </trkpt>
      <trkpt lat="45.54193" lon="6.05121">
        <ele>998</ele>
        <time>2021-06-27T14:15:29.591Z</time>
      </trkpt>
      <trkpt lat="45.54194" lon="6.05119">
        <ele>998</ele>
        <time>2021-06-27T14:15:30.591Z</time>
      </trkpt>
      <trkpt lat="45.54195" lon="6.05118">
        <ele>997</ele>
        <time>2021-06-27T14:15:31.590Z</time>
      </trkpt>
      <trkpt lat="45.54196" lon="6.05116">
        <ele>997</ele>
        <time>2021-06-27T14:15:32.591Z</time>
      </trkpt>
      <trkpt lat="45.54197" lon="6.05114">
        <ele>997</ele>
        <time>2021-06-27T14:15:33.591Z</time>
      </trkpt>
      <trkpt lat="45.54198" lon="6.05113">
        <ele>996</ele>
        <time>2021-06-27T14:15:34.591Z</time>
      </trkpt>
      <trkpt lat="45.54198" lon="6.05113">
        <ele>995</ele>
        <time>2021-06-27T14:15:35.591Z</time>
      </trkpt>
      <trkpt lat="45.54199" lon="6.05112">
        <ele>995</ele>
        <time>2021-06-27T14:15:36.591Z</time>
      </trkpt>
      <trkpt lat="45.542" lon="6.05111">
        <ele>995</ele>
        <time>2021-06-27T14:15:37.591Z</time>
      </trkpt>
      <trkpt lat="45.54201" lon="6.0511">
        <ele>994</ele>
        <time>2021-06-27T14:15:38.590Z</time>
      </trkpt>
      <trkpt lat="45.54202" lon="6.05109">
        <ele>994</ele>
        <time>2021-06-27T14:15:39.591Z</time>
      </trkpt>
      <trkpt lat="45.54202" lon="6.05108">
        <ele>994</ele>
        <time>2021-06-27T14:15:40.591Z</time>
      </trkpt>
      <trkpt lat="45.54203" lon="6.05107">
        <ele>994</ele>
        <time>2021-06-27T14:15:41.591Z</time>
      </trkpt>
      <trkpt lat="45.54204" lon="6.05106">
        <ele>994</ele>
        <time>2021-06-27T14:15:42.591Z</time>
      </trkpt>
      <trkpt lat="45.54205" lon="6.05105">
        <ele>994</ele>
        <time>2021-06-27T14:15:43.591Z</time>
      </trkpt>
      <trkpt lat="45.54205" lon="6.05105">
        <ele>994</ele>
        <time>2021-06-27T14:15:44.591Z</time>
      </trkpt>
      <trkpt lat="45.54206" lon="6.05104">
        <ele>994</ele>
        <time>2021-06-27T14:15:45.590Z</time>
      </trkpt>
      <trkpt lat="45.54207" lon="6.05104">
        <ele>994</ele>
        <time>2021-06-27T14:15:46.591Z</time>
      </trkpt>
      <trkpt lat="45.54208" lon="6.05103">
        <ele>994</ele>
        <time>2021-06-27T14:15:47.591Z</time>
      </trkpt>
      <trkpt lat="45.54209" lon="6.05103">
        <ele>994</ele>
        <time>2021-06-27T14:15:48.591Z</time>
      </trkpt>
      <trkpt lat="45.54209" lon="6.05102">
        <ele>995</ele>
        <time>2021-06-27T14:15:49.591Z</time>
      </trkpt>
      <trkpt lat="45.5421" lon="6.051">
        <ele>995</ele>
        <time>2021-06-27T14:15:50.591Z</time>
      </trkpt>
      <trkpt lat="45.54211" lon="6.051">
        <ele>995</ele>
        <time>2021-06-27T14:15:51.590Z</time>
      </trkpt>
      <trkpt lat="45.54212" lon="6.05099">
        <ele>994</ele>
        <time>2021-06-27T14:15:52.591Z</time>
      </trkpt>
      <trkpt lat="45.54212" lon="6.05097">
        <ele>994</ele>
        <time>2021-06-27T14:15:53.591Z</time>
      </trkpt>
      <trkpt lat="45.54213" lon="6.05096">
        <ele>994</ele>
        <time>2021-06-27T14:15:54.591Z</time>
      </trkpt>
      <trkpt lat="45.54214" lon="6.05095">
        <ele>993</ele>
        <time>2021-06-27T14:15:55.591Z</time>
      </trkpt>
      <trkpt lat="45.54215" lon="6.05094">
        <ele>993</ele>
        <time>2021-06-27T14:15:56.591Z</time>
      </trkpt>
      <trkpt lat="45.54216" lon="6.05093">
        <ele>992</ele>
        <time>2021-06-27T14:15:57.590Z</time>
      </trkpt>
      <trkpt lat="45.54217" lon="6.05092">
        <ele>992</ele>
        <time>2021-06-27T14:15:58.591Z</time>
      </trkpt>
      <trkpt lat="45.54217" lon="6.05091">
        <ele>992</ele>
        <time>2021-06-27T14:15:59.591Z</time>
      </trkpt>
      <trkpt lat="45.54218" lon="6.0509">
        <ele>992</ele>
        <time>2021-06-27T14:16:00.591Z</time>
      </trkpt>
      <trkpt lat="45.54219" lon="6.05088">
        <ele>992</ele>
        <time>2021-06-27T14:16:01.591Z</time>
      </trkpt>
      <trkpt lat="45.5422" lon="6.05087">
        <ele>992</ele>
        <time>2021-06-27T14:16:02.590Z</time>
      </trkpt>
      <trkpt lat="45.5422" lon="6.05085">
        <ele>991</ele>
        <time>2021-06-27T14:16:03.591Z</time>
      </trkpt>
      <trkpt lat="45.5422" lon="6.05083">
        <ele>991</ele>
        <time>2021-06-27T14:16:04.591Z</time>
      </trkpt>
      <trkpt lat="45.54221" lon="6.05081">
        <ele>991</ele>
        <time>2021-06-27T14:16:05.591Z</time>
      </trkpt>
      <trkpt lat="45.54221" lon="6.05079">
        <ele>991</ele>
        <time>2021-06-27T14:16:06.591Z</time>
      </trkpt>
      <trkpt lat="45.54221" lon="6.05077">
        <ele>992</ele>
        <time>2021-06-27T14:16:07.590Z</time>
      </trkpt>
      <trkpt lat="45.54221" lon="6.05075">
        <ele>992</ele>
        <time>2021-06-27T14:16:08.591Z</time>
      </trkpt>
      <trkpt lat="45.54222" lon="6.05074">
        <ele>991</ele>
        <time>2021-06-27T14:16:09.591Z</time>
      </trkpt>
      <trkpt lat="45.54222" lon="6.05073">
        <ele>991</ele>
        <time>2021-06-27T14:16:10.591Z</time>
      </trkpt>
      <trkpt lat="45.54223" lon="6.05072">
        <ele>991</ele>
        <time>2021-06-27T14:16:11.591Z</time>
      </trkpt>
      <trkpt lat="45.54223" lon="6.05071">
        <ele>991</ele>
        <time>2021-06-27T14:16:12.591Z</time>
      </trkpt>
      <trkpt lat="45.54224" lon="6.05069">
        <ele>991</ele>
        <time>2021-06-27T14:16:13.591Z</time>
      </trkpt>
      <trkpt lat="45.54224" lon="6.05068">
        <ele>990</ele>
        <time>2021-06-27T14:16:14.591Z</time>
      </trkpt>
      <trkpt lat="45.54225" lon="6.05066">
        <ele>990</ele>
        <time>2021-06-27T14:16:15.591Z</time>
      </trkpt>
      <trkpt lat="45.54225" lon="6.05065">
        <ele>990</ele>
        <time>2021-06-27T14:16:16.591Z</time>
      </trkpt>
      <trkpt lat="45.54225" lon="6.05062">
        <ele>989</ele>
        <time>2021-06-27T14:16:17.590Z</time>
      </trkpt>
      <trkpt lat="45.54225" lon="6.05061">
        <ele>988</ele>
        <time>2021-06-27T14:16:18.591Z</time>
      </trkpt>
      <trkpt lat="45.54225" lon="6.05059">
        <ele>988</ele>
        <time>2021-06-27T14:16:19.591Z</time>
      </trkpt>
      <trkpt lat="45.54225" lon="6.05058">
        <ele>987</ele>
        <time>2021-06-27T14:16:20.590Z</time>
      </trkpt>
      <trkpt lat="45.54226" lon="6.05057">
        <ele>987</ele>
        <time>2021-06-27T14:16:21.591Z</time>
      </trkpt>
      <trkpt lat="45.54226" lon="6.05056">
        <ele>986</ele>
        <time>2021-06-27T14:16:22.590Z</time>
      </trkpt>
      <trkpt lat="45.54227" lon="6.05054">
        <ele>986</ele>
        <time>2021-06-27T14:16:23.590Z</time>
      </trkpt>
      <trkpt lat="45.54227" lon="6.05052">
        <ele>985</ele>
        <time>2021-06-27T14:16:24.591Z</time>
      </trkpt>
      <trkpt lat="45.54227" lon="6.0505">
        <ele>985</ele>
        <time>2021-06-27T14:16:25.591Z</time>
      </trkpt>
      <trkpt lat="45.54227" lon="6.05049">
        <ele>984</ele>
        <time>2021-06-27T14:16:26.590Z</time>
      </trkpt>
      <trkpt lat="45.54227" lon="6.05048">
        <ele>984</ele>
        <time>2021-06-27T14:16:27.591Z</time>
      </trkpt>
      <trkpt lat="45.54227" lon="6.05046">
        <ele>984</ele>
        <time>2021-06-27T14:16:28.591Z</time>
      </trkpt>
      <trkpt lat="45.54227" lon="6.05044">
        <ele>985</ele>
        <time>2021-06-27T14:16:29.591Z</time>
      </trkpt>
      <trkpt lat="45.54228" lon="6.05042">
        <ele>985</ele>
        <time>2021-06-27T14:16:30.591Z</time>
      </trkpt>
      <trkpt lat="45.54228" lon="6.05041">
        <ele>985</ele>
        <time>2021-06-27T14:16:31.590Z</time>
      </trkpt>
      <trkpt lat="45.54228" lon="6.0504">
        <ele>985</ele>
        <time>2021-06-27T14:16:32.590Z</time>
      </trkpt>
      <trkpt lat="45.54228" lon="6.05039">
        <ele>986</ele>
        <time>2021-06-27T14:16:33.591Z</time>
      </trkpt>
      <trkpt lat="45.54228" lon="6.05038">
        <ele>986</ele>
        <time>2021-06-27T14:16:34.590Z</time>
      </trkpt>
      <trkpt lat="45.54229" lon="6.05036">
        <ele>986</ele>
        <time>2021-06-27T14:16:35.591Z</time>
      </trkpt>
      <trkpt lat="45.54229" lon="6.05034">
        <ele>987</ele>
        <time>2021-06-27T14:16:36.590Z</time>
      </trkpt>
      <trkpt lat="45.54229" lon="6.05033">
        <ele>987</ele>
        <time>2021-06-27T14:16:37.591Z</time>
      </trkpt>
      <trkpt lat="45.54229" lon="6.05031">
        <ele>987</ele>
        <time>2021-06-27T14:16:38.591Z</time>
      </trkpt>
      <trkpt lat="45.54229" lon="6.0503">
        <ele>987</ele>
        <time>2021-06-27T14:16:39.590Z</time>
      </trkpt>
      <trkpt lat="45.5423" lon="6.05028">
        <ele>988</ele>
        <time>2021-06-27T14:16:40.590Z</time>
      </trkpt>
      <trkpt lat="45.5423" lon="6.05027">
        <ele>987</ele>
        <time>2021-06-27T14:16:41.591Z</time>
      </trkpt>
      <trkpt lat="45.54231" lon="6.05025">
        <ele>987</ele>
        <time>2021-06-27T14:16:42.591Z</time>
      </trkpt>
      <trkpt lat="45.54231" lon="6.05023">
        <ele>987</ele>
        <time>2021-06-27T14:16:43.591Z</time>
      </trkpt>
      <trkpt lat="45.54231" lon="6.05022">
        <ele>987</ele>
        <time>2021-06-27T14:16:44.591Z</time>
      </trkpt>
      <trkpt lat="45.54231" lon="6.05021">
        <ele>987</ele>
        <time>2021-06-27T14:16:45.591Z</time>
      </trkpt>
      <trkpt lat="45.54231" lon="6.05019">
        <ele>986</ele>
        <time>2021-06-27T14:16:46.591Z</time>
      </trkpt>
      <trkpt lat="45.54231" lon="6.05018">
        <ele>985</ele>
        <time>2021-06-27T14:16:47.590Z</time>
      </trkpt>
      <trkpt lat="45.54232" lon="6.05016">
        <ele>985</ele>
        <time>2021-06-27T14:16:48.590Z</time>
      </trkpt>
      <trkpt lat="45.54232" lon="6.05015">
        <ele>984</ele>
        <time>2021-06-27T14:16:49.590Z</time>
      </trkpt>
      <trkpt lat="45.54233" lon="6.05013">
        <ele>984</ele>
        <time>2021-06-27T14:16:50.590Z</time>
      </trkpt>
      <trkpt lat="45.54233" lon="6.05012">
        <ele>983</ele>
        <time>2021-06-27T14:16:51.590Z</time>
      </trkpt>
      <trkpt lat="45.54234" lon="6.05011">
        <ele>982</ele>
        <time>2021-06-27T14:16:52.590Z</time>
      </trkpt>
      <trkpt lat="45.54235" lon="6.05009">
        <ele>982</ele>
        <time>2021-06-27T14:16:53.591Z</time>
      </trkpt>
      <trkpt lat="45.54235" lon="6.05008">
        <ele>981</ele>
        <time>2021-06-27T14:16:54.591Z</time>
      </trkpt>
      <trkpt lat="45.54236" lon="6.05005">
        <ele>980</ele>
        <time>2021-06-27T14:16:55.591Z</time>
      </trkpt>
      <trkpt lat="45.54237" lon="6.05004">
        <ele>979</ele>
        <time>2021-06-27T14:16:56.591Z</time>
      </trkpt>
      <trkpt lat="45.54237" lon="6.05003">
        <ele>978</ele>
        <time>2021-06-27T14:16:57.591Z</time>
      </trkpt>
      <trkpt lat="45.54237" lon="6.05001">
        <ele>978</ele>
        <time>2021-06-27T14:16:58.591Z</time>
      </trkpt>
      <trkpt lat="45.54237" lon="6.04999">
        <ele>977</ele>
        <time>2021-06-27T14:16:59.591Z</time>
      </trkpt>
      <trkpt lat="45.54237" lon="6.04997">
        <ele>977</ele>
        <time>2021-06-27T14:17:00.591Z</time>
      </trkpt>
      <trkpt lat="45.54237" lon="6.04996">
        <ele>977</ele>
        <time>2021-06-27T14:17:01.591Z</time>
      </trkpt>
      <trkpt lat="45.54237" lon="6.04995">
        <ele>976</ele>
        <time>2021-06-27T14:17:02.590Z</time>
      </trkpt>
      <trkpt lat="45.54238" lon="6.04994">
        <ele>976</ele>
        <time>2021-06-27T14:17:03.591Z</time>
      </trkpt>
      <trkpt lat="45.54238" lon="6.04993">
        <ele>975</ele>
        <time>2021-06-27T14:17:04.591Z</time>
      </trkpt>
      <trkpt lat="45.54238" lon="6.04992">
        <ele>975</ele>
        <time>2021-06-27T14:17:05.591Z</time>
      </trkpt>
      <trkpt lat="45.54238" lon="6.0499">
        <ele>974</ele>
        <time>2021-06-27T14:17:06.591Z</time>
      </trkpt>
      <trkpt lat="45.54239" lon="6.04988">
        <ele>974</ele>
        <time>2021-06-27T14:17:07.591Z</time>
      </trkpt>
      <trkpt lat="45.54239" lon="6.04987">
        <ele>974</ele>
        <time>2021-06-27T14:17:08.591Z</time>
      </trkpt>
      <trkpt lat="45.54239" lon="6.04985">
        <ele>973</ele>
        <time>2021-06-27T14:17:09.591Z</time>
      </trkpt>
      <trkpt lat="45.54239" lon="6.04984">
        <ele>973</ele>
        <time>2021-06-27T14:17:10.591Z</time>
      </trkpt>
      <trkpt lat="45.5424" lon="6.04982">
        <ele>972</ele>
        <time>2021-06-27T14:17:11.591Z</time>
      </trkpt>
      <trkpt lat="45.5424" lon="6.04981">
        <ele>972</ele>
        <time>2021-06-27T14:17:12.591Z</time>
      </trkpt>
      <trkpt lat="45.54241" lon="6.04979">
        <ele>971</ele>
        <time>2021-06-27T14:17:13.591Z</time>
      </trkpt>
      <trkpt lat="45.54241" lon="6.04977">
        <ele>970</ele>
        <time>2021-06-27T14:17:14.591Z</time>
      </trkpt>
      <trkpt lat="45.54241" lon="6.04975">
        <ele>970</ele>
        <time>2021-06-27T14:17:15.591Z</time>
      </trkpt>
      <trkpt lat="45.54242" lon="6.04974">
        <ele>969</ele>
        <time>2021-06-27T14:17:16.590Z</time>
      </trkpt>
      <trkpt lat="45.54242" lon="6.04972">
        <ele>969</ele>
        <time>2021-06-27T14:17:17.591Z</time>
      </trkpt>
      <trkpt lat="45.54243" lon="6.0497">
        <ele>968</ele>
        <time>2021-06-27T14:17:18.591Z</time>
      </trkpt>
      <trkpt lat="45.54243" lon="6.04969">
        <ele>968</ele>
        <time>2021-06-27T14:17:19.591Z</time>
      </trkpt>
      <trkpt lat="45.54243" lon="6.04967">
        <ele>968</ele>
        <time>2021-06-27T14:17:20.591Z</time>
      </trkpt>
      <trkpt lat="45.54244" lon="6.04965">
        <ele>968</ele>
        <time>2021-06-27T14:17:21.591Z</time>
      </trkpt>
      <trkpt lat="45.54245" lon="6.04963">
        <ele>968</ele>
        <time>2021-06-27T14:17:22.591Z</time>
      </trkpt>
      <trkpt lat="45.54245" lon="6.04962">
        <ele>967</ele>
        <time>2021-06-27T14:17:23.591Z</time>
      </trkpt>
      <trkpt lat="45.54245" lon="6.04961">
        <ele>967</ele>
        <time>2021-06-27T14:17:24.591Z</time>
      </trkpt>
      <trkpt lat="45.54246" lon="6.04959">
        <ele>966</ele>
        <time>2021-06-27T14:17:25.591Z</time>
      </trkpt>
      <trkpt lat="45.54246" lon="6.04958">
        <ele>966</ele>
        <time>2021-06-27T14:17:26.591Z</time>
      </trkpt>
      <trkpt lat="45.54246" lon="6.04956">
        <ele>965</ele>
        <time>2021-06-27T14:17:27.591Z</time>
      </trkpt>
      <trkpt lat="45.54247" lon="6.04954">
        <ele>965</ele>
        <time>2021-06-27T14:17:28.591Z</time>
      </trkpt>
      <trkpt lat="45.54247" lon="6.04953">
        <ele>964</ele>
        <time>2021-06-27T14:17:29.591Z</time>
      </trkpt>
      <trkpt lat="45.54248" lon="6.04951">
        <ele>964</ele>
        <time>2021-06-27T14:17:30.591Z</time>
      </trkpt>
      <trkpt lat="45.54248" lon="6.04949">
        <ele>964</ele>
        <time>2021-06-27T14:17:31.591Z</time>
      </trkpt>
      <trkpt lat="45.54249" lon="6.04948">
        <ele>963</ele>
        <time>2021-06-27T14:17:32.590Z</time>
      </trkpt>
      <trkpt lat="45.5425" lon="6.04947">
        <ele>963</ele>
        <time>2021-06-27T14:17:33.590Z</time>
      </trkpt>
      <trkpt lat="45.54251" lon="6.04945">
        <ele>963</ele>
        <time>2021-06-27T14:17:34.591Z</time>
      </trkpt>
      <trkpt lat="45.54251" lon="6.04944">
        <ele>962</ele>
        <time>2021-06-27T14:17:35.591Z</time>
      </trkpt>
      <trkpt lat="45.54252" lon="6.04942">
        <ele>962</ele>
        <time>2021-06-27T14:17:36.591Z</time>
      </trkpt>
      <trkpt lat="45.54252" lon="6.04941">
        <ele>962</ele>
        <time>2021-06-27T14:17:37.590Z</time>
      </trkpt>
      <trkpt lat="45.54252" lon="6.04939">
        <ele>963</ele>
        <time>2021-06-27T14:17:38.591Z</time>
      </trkpt>
      <trkpt lat="45.54253" lon="6.04938">
        <ele>963</ele>
        <time>2021-06-27T14:17:39.591Z</time>
      </trkpt>
      <trkpt lat="45.54254" lon="6.04936">
        <ele>963</ele>
        <time>2021-06-27T14:17:40.591Z</time>
      </trkpt>
      <trkpt lat="45.54255" lon="6.04934">
        <ele>963</ele>
        <time>2021-06-27T14:17:41.591Z</time>
      </trkpt>
      <trkpt lat="45.54255" lon="6.04933">
        <ele>963</ele>
        <time>2021-06-27T14:17:42.591Z</time>
      </trkpt>
      <trkpt lat="45.54256" lon="6.04931">
        <ele>963</ele>
        <time>2021-06-27T14:17:43.591Z</time>
      </trkpt>
      <trkpt lat="45.54257" lon="6.0493">
        <ele>963</ele>
        <time>2021-06-27T14:17:44.591Z</time>
      </trkpt>
      <trkpt lat="45.54257" lon="6.04929">
        <ele>963</ele>
        <time>2021-06-27T14:17:45.591Z</time>
      </trkpt>
      <trkpt lat="45.54258" lon="6.04927">
        <ele>963</ele>
        <time>2021-06-27T14:17:46.591Z</time>
      </trkpt>
      <trkpt lat="45.54258" lon="6.04926">
        <ele>962</ele>
        <time>2021-06-27T14:17:47.591Z</time>
      </trkpt>
      <trkpt lat="45.54259" lon="6.04925">
        <ele>962</ele>
        <time>2021-06-27T14:17:48.591Z</time>
      </trkpt>
      <trkpt lat="45.54259" lon="6.04923">
        <ele>961</ele>
        <time>2021-06-27T14:17:49.591Z</time>
      </trkpt>
      <trkpt lat="45.5426" lon="6.04921">
        <ele>961</ele>
        <time>2021-06-27T14:17:50.591Z</time>
      </trkpt>
      <trkpt lat="45.5426" lon="6.04919">
        <ele>961</ele>
        <time>2021-06-27T14:17:51.591Z</time>
      </trkpt>
      <trkpt lat="45.5426" lon="6.04917">
        <ele>961</ele>
        <time>2021-06-27T14:17:52.591Z</time>
      </trkpt>
      <trkpt lat="45.5426" lon="6.04916">
        <ele>961</ele>
        <time>2021-06-27T14:17:53.590Z</time>
      </trkpt>
      <trkpt lat="45.5426" lon="6.04914">
        <ele>961</ele>
        <time>2021-06-27T14:17:54.591Z</time>
      </trkpt>
      <trkpt lat="45.5426" lon="6.04913">
        <ele>961</ele>
        <time>2021-06-27T14:17:55.591Z</time>
      </trkpt>
      <trkpt lat="45.5426" lon="6.0491">
        <ele>961</ele>
        <time>2021-06-27T14:17:56.590Z</time>
      </trkpt>
      <trkpt lat="45.5426" lon="6.04909">
        <ele>961</ele>
        <time>2021-06-27T14:17:57.591Z</time>
      </trkpt>
      <trkpt lat="45.5426" lon="6.04907">
        <ele>961</ele>
        <time>2021-06-27T14:17:58.591Z</time>
      </trkpt>
      <trkpt lat="45.54259" lon="6.04905">
        <ele>960</ele>
        <time>2021-06-27T14:17:59.591Z</time>
      </trkpt>
      <trkpt lat="45.5426" lon="6.04903">
        <ele>960</ele>
        <time>2021-06-27T14:18:00.590Z</time>
      </trkpt>
      <trkpt lat="45.5426" lon="6.04902">
        <ele>959</ele>
        <time>2021-06-27T14:18:01.590Z</time>
      </trkpt>
      <trkpt lat="45.5426" lon="6.049">
        <ele>959</ele>
        <time>2021-06-27T14:18:02.590Z</time>
      </trkpt>
      <trkpt lat="45.5426" lon="6.04898">
        <ele>959</ele>
        <time>2021-06-27T14:18:03.590Z</time>
      </trkpt>
      <trkpt lat="45.5426" lon="6.04896">
        <ele>959</ele>
        <time>2021-06-27T14:18:04.591Z</time>
      </trkpt>
      <trkpt lat="45.5426" lon="6.04894">
        <ele>959</ele>
        <time>2021-06-27T14:18:05.591Z</time>
      </trkpt>
      <trkpt lat="45.5426" lon="6.04892">
        <ele>959</ele>
        <time>2021-06-27T14:18:06.591Z</time>
      </trkpt>
      <trkpt lat="45.5426" lon="6.0489">
        <ele>959</ele>
        <time>2021-06-27T14:18:07.591Z</time>
      </trkpt>
      <trkpt lat="45.5426" lon="6.04888">
        <ele>959</ele>
        <time>2021-06-27T14:18:08.590Z</time>
      </trkpt>
      <trkpt lat="45.54259" lon="6.04885">
        <ele>959</ele>
        <time>2021-06-27T14:18:09.591Z</time>
      </trkpt>
      <trkpt lat="45.5426" lon="6.04882">
        <ele>958</ele>
        <time>2021-06-27T14:18:10.591Z</time>
      </trkpt>
      <trkpt lat="45.5426" lon="6.04881">
        <ele>958</ele>
        <time>2021-06-27T14:18:11.591Z</time>
      </trkpt>
      <trkpt lat="45.5426" lon="6.04878">
        <ele>958</ele>
        <time>2021-06-27T14:18:12.590Z</time>
      </trkpt>
      <trkpt lat="45.5426" lon="6.04876">
        <ele>958</ele>
        <time>2021-06-27T14:18:13.591Z</time>
      </trkpt>
      <trkpt lat="45.5426" lon="6.04875">
        <ele>958</ele>
        <time>2021-06-27T14:18:14.591Z</time>
      </trkpt>
      <trkpt lat="45.5426" lon="6.04873">
        <ele>958</ele>
        <time>2021-06-27T14:18:15.590Z</time>
      </trkpt>
      <trkpt lat="45.5426" lon="6.04872">
        <ele>957</ele>
        <time>2021-06-27T14:18:16.591Z</time>
      </trkpt>
      <trkpt lat="45.54259" lon="6.0487">
        <ele>957</ele>
        <time>2021-06-27T14:18:17.591Z</time>
      </trkpt>
      <trkpt lat="45.54259" lon="6.04868">
        <ele>957</ele>
        <time>2021-06-27T14:18:18.591Z</time>
      </trkpt>
      <trkpt lat="45.54259" lon="6.04866">
        <ele>956</ele>
        <time>2021-06-27T14:18:19.591Z</time>
      </trkpt>
      <trkpt lat="45.54259" lon="6.04865">
        <ele>956</ele>
        <time>2021-06-27T14:18:20.591Z</time>
      </trkpt>
      <trkpt lat="45.54259" lon="6.04863">
        <ele>955</ele>
        <time>2021-06-27T14:18:21.591Z</time>
      </trkpt>
      <trkpt lat="45.5426" lon="6.0486">
        <ele>955</ele>
        <time>2021-06-27T14:18:22.591Z</time>
      </trkpt>
      <trkpt lat="45.5426" lon="6.04859">
        <ele>955</ele>
        <time>2021-06-27T14:18:23.591Z</time>
      </trkpt>
      <trkpt lat="45.5426" lon="6.04858">
        <ele>955</ele>
        <time>2021-06-27T14:18:24.591Z</time>
      </trkpt>
      <trkpt lat="45.54261" lon="6.04856">
        <ele>955</ele>
        <time>2021-06-27T14:18:25.591Z</time>
      </trkpt>
      <trkpt lat="45.54261" lon="6.04855">
        <ele>954</ele>
        <time>2021-06-27T14:18:26.591Z</time>
      </trkpt>
      <trkpt lat="45.54261" lon="6.04854">
        <ele>954</ele>
        <time>2021-06-27T14:18:27.591Z</time>
      </trkpt>
      <trkpt lat="45.54261" lon="6.04852">
        <ele>953</ele>
        <time>2021-06-27T14:18:28.591Z</time>
      </trkpt>
      <trkpt lat="45.54261" lon="6.04851">
        <ele>953</ele>
        <time>2021-06-27T14:18:29.591Z</time>
      </trkpt>
      <trkpt lat="45.54262" lon="6.0485">
        <ele>953</ele>
        <time>2021-06-27T14:18:30.591Z</time>
      </trkpt>
      <trkpt lat="45.54262" lon="6.04848">
        <ele>953</ele>
        <time>2021-06-27T14:18:31.591Z</time>
      </trkpt>
      <trkpt lat="45.54263" lon="6.04847">
        <ele>952</ele>
        <time>2021-06-27T14:18:32.590Z</time>
      </trkpt>
      <trkpt lat="45.54264" lon="6.04845">
        <ele>951</ele>
        <time>2021-06-27T14:18:33.590Z</time>
      </trkpt>
      <trkpt lat="45.54264" lon="6.04844">
        <ele>950</ele>
        <time>2021-06-27T14:18:34.591Z</time>
      </trkpt>
      <trkpt lat="45.54264" lon="6.04843">
        <ele>950</ele>
        <time>2021-06-27T14:18:35.591Z</time>
      </trkpt>
      <trkpt lat="45.54265" lon="6.04841">
        <ele>950</ele>
        <time>2021-06-27T14:18:36.591Z</time>
      </trkpt>
      <trkpt lat="45.54266" lon="6.0484">
        <ele>949</ele>
        <time>2021-06-27T14:18:37.591Z</time>
      </trkpt>
      <trkpt lat="45.54266" lon="6.04838">
        <ele>949</ele>
        <time>2021-06-27T14:18:38.591Z</time>
      </trkpt>
      <trkpt lat="45.54267" lon="6.04836">
        <ele>948</ele>
        <time>2021-06-27T14:18:39.591Z</time>
      </trkpt>
      <trkpt lat="45.54267" lon="6.04835">
        <ele>948</ele>
        <time>2021-06-27T14:18:40.591Z</time>
      </trkpt>
      <trkpt lat="45.54268" lon="6.04833">
        <ele>948</ele>
        <time>2021-06-27T14:18:41.591Z</time>
      </trkpt>
      <trkpt lat="45.54268" lon="6.04831">
        <ele>948</ele>
        <time>2021-06-27T14:18:42.591Z</time>
      </trkpt>
      <trkpt lat="45.54269" lon="6.0483">
        <ele>948</ele>
        <time>2021-06-27T14:18:43.591Z</time>
      </trkpt>
      <trkpt lat="45.54269" lon="6.04828">
        <ele>948</ele>
        <time>2021-06-27T14:18:44.591Z</time>
      </trkpt>
      <trkpt lat="45.5427" lon="6.04826">
        <ele>948</ele>
        <time>2021-06-27T14:18:45.590Z</time>
      </trkpt>
      <trkpt lat="45.5427" lon="6.04825">
        <ele>948</ele>
        <time>2021-06-27T14:18:46.590Z</time>
      </trkpt>
      <trkpt lat="45.5427" lon="6.04824">
        <ele>948</ele>
        <time>2021-06-27T14:18:47.591Z</time>
      </trkpt>
      <trkpt lat="45.54271" lon="6.04822">
        <ele>947</ele>
        <time>2021-06-27T14:18:48.590Z</time>
      </trkpt>
      <trkpt lat="45.54271" lon="6.0482">
        <ele>947</ele>
        <time>2021-06-27T14:18:49.591Z</time>
      </trkpt>
      <trkpt lat="45.54271" lon="6.04819">
        <ele>947</ele>
        <time>2021-06-27T14:18:50.591Z</time>
      </trkpt>
      <trkpt lat="45.54272" lon="6.04817">
        <ele>946</ele>
        <time>2021-06-27T14:18:51.591Z</time>
      </trkpt>
      <trkpt lat="45.54273" lon="6.04815">
        <ele>946</ele>
        <time>2021-06-27T14:18:52.590Z</time>
      </trkpt>
      <trkpt lat="45.54273" lon="6.04814">
        <ele>946</ele>
        <time>2021-06-27T14:18:53.590Z</time>
      </trkpt>
      <trkpt lat="45.54274" lon="6.04812">
        <ele>945</ele>
        <time>2021-06-27T14:18:54.591Z</time>
      </trkpt>
      <trkpt lat="45.54275" lon="6.0481">
        <ele>945</ele>
        <time>2021-06-27T14:18:55.591Z</time>
      </trkpt>
      <trkpt lat="45.54276" lon="6.04808">
        <ele>945</ele>
        <time>2021-06-27T14:18:56.591Z</time>
      </trkpt>
      <trkpt lat="45.54276" lon="6.04807">
        <ele>944</ele>
        <time>2021-06-27T14:18:57.591Z</time>
      </trkpt>
      <trkpt lat="45.54278" lon="6.04804">
        <ele>944</ele>
        <time>2021-06-27T14:18:58.591Z</time>
      </trkpt>
      <trkpt lat="45.54278" lon="6.04803">
        <ele>944</ele>
        <time>2021-06-27T14:18:59.591Z</time>
      </trkpt>
      <trkpt lat="45.54279" lon="6.04802">
        <ele>944</ele>
        <time>2021-06-27T14:19:00.591Z</time>
      </trkpt>
      <trkpt lat="45.5428" lon="6.04801">
        <ele>944</ele>
        <time>2021-06-27T14:19:01.591Z</time>
      </trkpt>
      <trkpt lat="45.54281" lon="6.04799">
        <ele>944</ele>
        <time>2021-06-27T14:19:02.591Z</time>
      </trkpt>
      <trkpt lat="45.54282" lon="6.04797">
        <ele>943</ele>
        <time>2021-06-27T14:19:03.590Z</time>
      </trkpt>
      <trkpt lat="45.54283" lon="6.04796">
        <ele>942</ele>
        <time>2021-06-27T14:19:04.591Z</time>
      </trkpt>
      <trkpt lat="45.54284" lon="6.04794">
        <ele>942</ele>
        <time>2021-06-27T14:19:05.590Z</time>
      </trkpt>
      <trkpt lat="45.54285" lon="6.04792">
        <ele>941</ele>
        <time>2021-06-27T14:19:06.591Z</time>
      </trkpt>
      <trkpt lat="45.54286" lon="6.04791">
        <ele>941</ele>
        <time>2021-06-27T14:19:07.591Z</time>
      </trkpt>
      <trkpt lat="45.54286" lon="6.04789">
        <ele>940</ele>
        <time>2021-06-27T14:19:08.591Z</time>
      </trkpt>
      <trkpt lat="45.54287" lon="6.04788">
        <ele>940</ele>
        <time>2021-06-27T14:19:09.591Z</time>
      </trkpt>
      <trkpt lat="45.54288" lon="6.04786">
        <ele>940</ele>
        <time>2021-06-27T14:19:10.591Z</time>
      </trkpt>
      <trkpt lat="45.54289" lon="6.04785">
        <ele>940</ele>
        <time>2021-06-27T14:19:11.591Z</time>
      </trkpt>
      <trkpt lat="45.5429" lon="6.04783">
        <ele>940</ele>
        <time>2021-06-27T14:19:12.591Z</time>
      </trkpt>
      <trkpt lat="45.54291" lon="6.04782">
        <ele>940</ele>
        <time>2021-06-27T14:19:13.591Z</time>
      </trkpt>
      <trkpt lat="45.54292" lon="6.04781">
        <ele>940</ele>
        <time>2021-06-27T14:19:14.591Z</time>
      </trkpt>
      <trkpt lat="45.54292" lon="6.0478">
        <ele>940</ele>
        <time>2021-06-27T14:19:15.591Z</time>
      </trkpt>
      <trkpt lat="45.54293" lon="6.04779">
        <ele>940</ele>
        <time>2021-06-27T14:19:16.591Z</time>
      </trkpt>
      <trkpt lat="45.54293" lon="6.04777">
        <ele>940</ele>
        <time>2021-06-27T14:19:17.591Z</time>
      </trkpt>
      <trkpt lat="45.54294" lon="6.04776">
        <ele>940</ele>
        <time>2021-06-27T14:19:18.591Z</time>
      </trkpt>
      <trkpt lat="45.54295" lon="6.04775">
        <ele>940</ele>
        <time>2021-06-27T14:19:19.590Z</time>
      </trkpt>
      <trkpt lat="45.54296" lon="6.04773">
        <ele>940</ele>
        <time>2021-06-27T14:19:20.591Z</time>
      </trkpt>
      <trkpt lat="45.54296" lon="6.04772">
        <ele>939</ele>
        <time>2021-06-27T14:19:21.591Z</time>
      </trkpt>
      <trkpt lat="45.54297" lon="6.04771">
        <ele>939</ele>
        <time>2021-06-27T14:19:22.591Z</time>
      </trkpt>
      <trkpt lat="45.54298" lon="6.0477">
        <ele>939</ele>
        <time>2021-06-27T14:19:23.591Z</time>
      </trkpt>
      <trkpt lat="45.54298" lon="6.04768">
        <ele>939</ele>
        <time>2021-06-27T14:19:24.591Z</time>
      </trkpt>
      <trkpt lat="45.54299" lon="6.04767">
        <ele>939</ele>
        <time>2021-06-27T14:19:25.591Z</time>
      </trkpt>
      <trkpt lat="45.543" lon="6.04765">
        <ele>939</ele>
        <time>2021-06-27T14:19:26.590Z</time>
      </trkpt>
      <trkpt lat="45.543" lon="6.04764">
        <ele>939</ele>
        <time>2021-06-27T14:19:27.591Z</time>
      </trkpt>
      <trkpt lat="45.54301" lon="6.04762">
        <ele>938</ele>
        <time>2021-06-27T14:19:28.591Z</time>
      </trkpt>
      <trkpt lat="45.54302" lon="6.0476">
        <ele>938</ele>
        <time>2021-06-27T14:19:29.590Z</time>
      </trkpt>
      <trkpt lat="45.54303" lon="6.04759">
        <ele>938</ele>
        <time>2021-06-27T14:19:30.591Z</time>
      </trkpt>
      <trkpt lat="45.54303" lon="6.04758">
        <ele>938</ele>
        <time>2021-06-27T14:19:31.591Z</time>
      </trkpt>
      <trkpt lat="45.54304" lon="6.04757">
        <ele>938</ele>
        <time>2021-06-27T14:19:32.591Z</time>
      </trkpt>
      <trkpt lat="45.54305" lon="6.04756">
        <ele>938</ele>
        <time>2021-06-27T14:19:33.591Z</time>
      </trkpt>
      <trkpt lat="45.54306" lon="6.04754">
        <ele>938</ele>
        <time>2021-06-27T14:19:34.591Z</time>
      </trkpt>
      <trkpt lat="45.54306" lon="6.04752">
        <ele>938</ele>
        <time>2021-06-27T14:19:35.591Z</time>
      </trkpt>
      <trkpt lat="45.54307" lon="6.04751">
        <ele>937</ele>
        <time>2021-06-27T14:19:36.591Z</time>
      </trkpt>
      <trkpt lat="45.54309" lon="6.04749">
        <ele>937</ele>
        <time>2021-06-27T14:19:37.590Z</time>
      </trkpt>
      <trkpt lat="45.54309" lon="6.04747">
        <ele>936</ele>
        <time>2021-06-27T14:19:38.591Z</time>
      </trkpt>
      <trkpt lat="45.5431" lon="6.04746">
        <ele>936</ele>
        <time>2021-06-27T14:19:39.591Z</time>
      </trkpt>
      <trkpt lat="45.54311" lon="6.04744">
        <ele>936</ele>
        <time>2021-06-27T14:19:40.591Z</time>
      </trkpt>
      <trkpt lat="45.54312" lon="6.04743">
        <ele>935</ele>
        <time>2021-06-27T14:19:41.591Z</time>
      </trkpt>
      <trkpt lat="45.54313" lon="6.04741">
        <ele>935</ele>
        <time>2021-06-27T14:19:42.591Z</time>
      </trkpt>
      <trkpt lat="45.54314" lon="6.0474">
        <ele>934</ele>
        <time>2021-06-27T14:19:43.590Z</time>
      </trkpt>
      <trkpt lat="45.54315" lon="6.04739">
        <ele>934</ele>
        <time>2021-06-27T14:19:44.591Z</time>
      </trkpt>
      <trkpt lat="45.54316" lon="6.04737">
        <ele>934</ele>
        <time>2021-06-27T14:19:45.591Z</time>
      </trkpt>
      <trkpt lat="45.54317" lon="6.04736">
        <ele>933</ele>
        <time>2021-06-27T14:19:46.591Z</time>
      </trkpt>
      <trkpt lat="45.54318" lon="6.04735">
        <ele>933</ele>
        <time>2021-06-27T14:19:47.591Z</time>
      </trkpt>
      <trkpt lat="45.54318" lon="6.04734">
        <ele>933</ele>
        <time>2021-06-27T14:19:48.590Z</time>
      </trkpt>
      <trkpt lat="45.54319" lon="6.04733">
        <ele>933</ele>
        <time>2021-06-27T14:19:49.591Z</time>
      </trkpt>
      <trkpt lat="45.54319" lon="6.04732">
        <ele>933</ele>
        <time>2021-06-27T14:19:50.591Z</time>
      </trkpt>
      <trkpt lat="45.5432" lon="6.04731">
        <ele>933</ele>
        <time>2021-06-27T14:19:51.590Z</time>
      </trkpt>
      <trkpt lat="45.54321" lon="6.0473">
        <ele>933</ele>
        <time>2021-06-27T14:19:52.591Z</time>
      </trkpt>
      <trkpt lat="45.54321" lon="6.04728">
        <ele>933</ele>
        <time>2021-06-27T14:19:53.591Z</time>
      </trkpt>
      <trkpt lat="45.54322" lon="6.04727">
        <ele>933</ele>
        <time>2021-06-27T14:19:54.591Z</time>
      </trkpt>
      <trkpt lat="45.54322" lon="6.04725">
        <ele>933</ele>
        <time>2021-06-27T14:19:55.591Z</time>
      </trkpt>
      <trkpt lat="45.54323" lon="6.04725">
        <ele>933</ele>
        <time>2021-06-27T14:19:56.590Z</time>
      </trkpt>
      <trkpt lat="45.54323" lon="6.04724">
        <ele>933</ele>
        <time>2021-06-27T14:19:57.591Z</time>
      </trkpt>
      <trkpt lat="45.54324" lon="6.04722">
        <ele>932</ele>
        <time>2021-06-27T14:19:58.591Z</time>
      </trkpt>
      <trkpt lat="45.54325" lon="6.04718">
        <ele>932</ele>
        <time>2021-06-27T14:19:59.591Z</time>
      </trkpt>
      <trkpt lat="45.54325" lon="6.04716">
        <ele>932</ele>
        <time>2021-06-27T14:20:00.591Z</time>
      </trkpt>
      <trkpt lat="45.54327" lon="6.04715">
        <ele>931</ele>
        <time>2021-06-27T14:20:01.591Z</time>
      </trkpt>
      <trkpt lat="45.54327" lon="6.04713">
        <ele>931</ele>
        <time>2021-06-27T14:20:02.591Z</time>
      </trkpt>
      <trkpt lat="45.54327" lon="6.04713">
        <ele>930</ele>
        <time>2021-06-27T14:20:03.591Z</time>
      </trkpt>
      <trkpt lat="45.54328" lon="6.04711">
        <ele>930</ele>
        <time>2021-06-27T14:20:04.590Z</time>
      </trkpt>
      <trkpt lat="45.54328" lon="6.0471">
        <ele>929</ele>
        <time>2021-06-27T14:20:05.591Z</time>
      </trkpt>
      <trkpt lat="45.54329" lon="6.04709">
        <ele>929</ele>
        <time>2021-06-27T14:20:06.591Z</time>
      </trkpt>
      <trkpt lat="45.54329" lon="6.04709">
        <ele>928</ele>
        <time>2021-06-27T14:20:07.590Z</time>
      </trkpt>
      <trkpt lat="45.5433" lon="6.04707">
        <ele>928</ele>
        <time>2021-06-27T14:20:08.591Z</time>
      </trkpt>
      <trkpt lat="45.54331" lon="6.04705">
        <ele>928</ele>
        <time>2021-06-27T14:20:09.591Z</time>
      </trkpt>
      <trkpt lat="45.54331" lon="6.04703">
        <ele>928</ele>
        <time>2021-06-27T14:20:10.591Z</time>
      </trkpt>
      <trkpt lat="45.54332" lon="6.04702">
        <ele>927</ele>
        <time>2021-06-27T14:20:11.591Z</time>
      </trkpt>
      <trkpt lat="45.54333" lon="6.04701">
        <ele>927</ele>
        <time>2021-06-27T14:20:12.591Z</time>
      </trkpt>
      <trkpt lat="45.54334" lon="6.04699">
        <ele>927</ele>
        <time>2021-06-27T14:20:13.591Z</time>
      </trkpt>
      <trkpt lat="45.54335" lon="6.04697">
        <ele>927</ele>
        <time>2021-06-27T14:20:14.591Z</time>
      </trkpt>
      <trkpt lat="45.54336" lon="6.04695">
        <ele>926</ele>
        <time>2021-06-27T14:20:15.591Z</time>
      </trkpt>
      <trkpt lat="45.54336" lon="6.04694">
        <ele>926</ele>
        <time>2021-06-27T14:20:16.591Z</time>
      </trkpt>
      <trkpt lat="45.54337" lon="6.04692">
        <ele>926</ele>
        <time>2021-06-27T14:20:17.591Z</time>
      </trkpt>
      <trkpt lat="45.54338" lon="6.04691">
        <ele>925</ele>
        <time>2021-06-27T14:20:18.590Z</time>
      </trkpt>
      <trkpt lat="45.54338" lon="6.04689">
        <ele>925</ele>
        <time>2021-06-27T14:20:19.591Z</time>
      </trkpt>
      <trkpt lat="45.54339" lon="6.04687">
        <ele>925</ele>
        <time>2021-06-27T14:20:20.590Z</time>
      </trkpt>
      <trkpt lat="45.54339" lon="6.04686">
        <ele>926</ele>
        <time>2021-06-27T14:20:21.590Z</time>
      </trkpt>
      <trkpt lat="45.5434" lon="6.04685">
        <ele>926</ele>
        <time>2021-06-27T14:20:22.591Z</time>
      </trkpt>
      <trkpt lat="45.5434" lon="6.04683">
        <ele>926</ele>
        <time>2021-06-27T14:20:23.591Z</time>
      </trkpt>
      <trkpt lat="45.54341" lon="6.04682">
        <ele>925</ele>
        <time>2021-06-27T14:20:24.591Z</time>
      </trkpt>
      <trkpt lat="45.54341" lon="6.04681">
        <ele>925</ele>
        <time>2021-06-27T14:20:25.591Z</time>
      </trkpt>
      <trkpt lat="45.54341" lon="6.0468">
        <ele>925</ele>
        <time>2021-06-27T14:20:26.591Z</time>
      </trkpt>
      <trkpt lat="45.54342" lon="6.04678">
        <ele>926</ele>
        <time>2021-06-27T14:20:27.591Z</time>
      </trkpt>
      <trkpt lat="45.54342" lon="6.04676">
        <ele>926</ele>
        <time>2021-06-27T14:20:28.591Z</time>
      </trkpt>
      <trkpt lat="45.54343" lon="6.04675">
        <ele>926</ele>
        <time>2021-06-27T14:20:29.591Z</time>
      </trkpt>
      <trkpt lat="45.54344" lon="6.04674">
        <ele>926</ele>
        <time>2021-06-27T14:20:30.591Z</time>
      </trkpt>
      <trkpt lat="45.54344" lon="6.04673">
        <ele>927</ele>
        <time>2021-06-27T14:20:31.591Z</time>
      </trkpt>
      <trkpt lat="45.54345" lon="6.04672">
        <ele>927</ele>
        <time>2021-06-27T14:20:32.590Z</time>
      </trkpt>
      <trkpt lat="45.54345" lon="6.0467">
        <ele>927</ele>
        <time>2021-06-27T14:20:33.591Z</time>
      </trkpt>
      <trkpt lat="45.54346" lon="6.04668">
        <ele>926</ele>
        <time>2021-06-27T14:20:34.591Z</time>
      </trkpt>
      <trkpt lat="45.54346" lon="6.04667">
        <ele>926</ele>
        <time>2021-06-27T14:20:35.591Z</time>
      </trkpt>
      <trkpt lat="45.54347" lon="6.04666">
        <ele>926</ele>
        <time>2021-06-27T14:20:36.591Z</time>
      </trkpt>
      <trkpt lat="45.54348" lon="6.04664">
        <ele>925</ele>
        <time>2021-06-27T14:20:37.591Z</time>
      </trkpt>
      <trkpt lat="45.54349" lon="6.04662">
        <ele>925</ele>
        <time>2021-06-27T14:20:38.591Z</time>
      </trkpt>
      <trkpt lat="45.5435" lon="6.04661">
        <ele>924</ele>
        <time>2021-06-27T14:20:39.591Z</time>
      </trkpt>
      <trkpt lat="45.5435" lon="6.0466">
        <ele>924</ele>
        <time>2021-06-27T14:20:40.590Z</time>
      </trkpt>
      <trkpt lat="45.54351" lon="6.04659">
        <ele>923</ele>
        <time>2021-06-27T14:20:41.591Z</time>
      </trkpt>
      <trkpt lat="45.54352" lon="6.04658">
        <ele>923</ele>
        <time>2021-06-27T14:20:42.590Z</time>
      </trkpt>
      <trkpt lat="45.54352" lon="6.04657">
        <ele>922</ele>
        <time>2021-06-27T14:20:43.591Z</time>
      </trkpt>
      <trkpt lat="45.54353" lon="6.04655">
        <ele>922</ele>
        <time>2021-06-27T14:20:44.591Z</time>
      </trkpt>
      <trkpt lat="45.54354" lon="6.04653">
        <ele>921</ele>
        <time>2021-06-27T14:20:45.591Z</time>
      </trkpt>
      <trkpt lat="45.54354" lon="6.04652">
        <ele>920</ele>
        <time>2021-06-27T14:20:46.590Z</time>
      </trkpt>
      <trkpt lat="45.54355" lon="6.0465">
        <ele>920</ele>
        <time>2021-06-27T14:20:47.591Z</time>
      </trkpt>
      <trkpt lat="45.54356" lon="6.04649">
        <ele>919</ele>
        <time>2021-06-27T14:20:48.590Z</time>
      </trkpt>
      <trkpt lat="45.54356" lon="6.04647">
        <ele>919</ele>
        <time>2021-06-27T14:20:49.591Z</time>
      </trkpt>
      <trkpt lat="45.54356" lon="6.04646">
        <ele>918</ele>
        <time>2021-06-27T14:20:50.591Z</time>
      </trkpt>
      <trkpt lat="45.54357" lon="6.04644">
        <ele>918</ele>
        <time>2021-06-27T14:20:51.591Z</time>
      </trkpt>
      <trkpt lat="45.54358" lon="6.04643">
        <ele>918</ele>
        <time>2021-06-27T14:20:52.591Z</time>
      </trkpt>
      <trkpt lat="45.54358" lon="6.04642">
        <ele>918</ele>
        <time>2021-06-27T14:20:53.591Z</time>
      </trkpt>
      <trkpt lat="45.54359" lon="6.0464">
        <ele>918</ele>
        <time>2021-06-27T14:20:54.591Z</time>
      </trkpt>
      <trkpt lat="45.54359" lon="6.04639">
        <ele>918</ele>
        <time>2021-06-27T14:20:55.591Z</time>
      </trkpt>
      <trkpt lat="45.5436" lon="6.04638">
        <ele>918</ele>
        <time>2021-06-27T14:20:56.591Z</time>
      </trkpt>
      <trkpt lat="45.5436" lon="6.04636">
        <ele>918</ele>
        <time>2021-06-27T14:20:57.591Z</time>
      </trkpt>
      <trkpt lat="45.5436" lon="6.04635">
        <ele>918</ele>
        <time>2021-06-27T14:20:58.590Z</time>
      </trkpt>
      <trkpt lat="45.54361" lon="6.04634">
        <ele>917</ele>
        <time>2021-06-27T14:20:59.590Z</time>
      </trkpt>
      <trkpt lat="45.54361" lon="6.04633">
        <ele>917</ele>
        <time>2021-06-27T14:21:00.591Z</time>
      </trkpt>
      <trkpt lat="45.54362" lon="6.04633">
        <ele>917</ele>
        <time>2021-06-27T14:21:01.591Z</time>
      </trkpt>
      <trkpt lat="45.54362" lon="6.04631">
        <ele>917</ele>
        <time>2021-06-27T14:21:02.590Z</time>
      </trkpt>
      <trkpt lat="45.54363" lon="6.0463">
        <ele>917</ele>
        <time>2021-06-27T14:21:03.591Z</time>
      </trkpt>
      <trkpt lat="45.54363" lon="6.04629">
        <ele>917</ele>
        <time>2021-06-27T14:21:04.591Z</time>
      </trkpt>
      <trkpt lat="45.54363" lon="6.04628">
        <ele>917</ele>
        <time>2021-06-27T14:21:05.590Z</time>
      </trkpt>
      <trkpt lat="45.54364" lon="6.04626">
        <ele>916</ele>
        <time>2021-06-27T14:21:06.591Z</time>
      </trkpt>
      <trkpt lat="45.54365" lon="6.04625">
        <ele>916</ele>
        <time>2021-06-27T14:21:07.591Z</time>
      </trkpt>
      <trkpt lat="45.54365" lon="6.04624">
        <ele>916</ele>
        <time>2021-06-27T14:21:08.591Z</time>
      </trkpt>
      <trkpt lat="45.54366" lon="6.04624">
        <ele>916</ele>
        <time>2021-06-27T14:21:09.591Z</time>
      </trkpt>
      <trkpt lat="45.54366" lon="6.04623">
        <ele>915</ele>
        <time>2021-06-27T14:21:10.591Z</time>
      </trkpt>
      <trkpt lat="45.54366" lon="6.04621">
        <ele>915</ele>
        <time>2021-06-27T14:21:11.591Z</time>
      </trkpt>
      <trkpt lat="45.54367" lon="6.0462">
        <ele>914</ele>
        <time>2021-06-27T14:21:12.591Z</time>
      </trkpt>
      <trkpt lat="45.54367" lon="6.04619">
        <ele>914</ele>
        <time>2021-06-27T14:21:13.591Z</time>
      </trkpt>
      <trkpt lat="45.54368" lon="6.04618">
        <ele>914</ele>
        <time>2021-06-27T14:21:14.591Z</time>
      </trkpt>
      <trkpt lat="45.54369" lon="6.04617">
        <ele>913</ele>
        <time>2021-06-27T14:21:15.591Z</time>
      </trkpt>
      <trkpt lat="45.54369" lon="6.04616">
        <ele>913</ele>
        <time>2021-06-27T14:21:16.590Z</time>
      </trkpt>
      <trkpt lat="45.5437" lon="6.04615">
        <ele>912</ele>
        <time>2021-06-27T14:21:17.590Z</time>
      </trkpt>
      <trkpt lat="45.5437" lon="6.04614">
        <ele>912</ele>
        <time>2021-06-27T14:21:18.591Z</time>
      </trkpt>
      <trkpt lat="45.54371" lon="6.04613">
        <ele>912</ele>
        <time>2021-06-27T14:21:19.591Z</time>
      </trkpt>
      <trkpt lat="45.54372" lon="6.04612">
        <ele>911</ele>
        <time>2021-06-27T14:21:20.590Z</time>
      </trkpt>
      <trkpt lat="45.54373" lon="6.04611">
        <ele>910</ele>
        <time>2021-06-27T14:21:21.591Z</time>
      </trkpt>
      <trkpt lat="45.54373" lon="6.04609">
        <ele>910</ele>
        <time>2021-06-27T14:21:22.591Z</time>
      </trkpt>
      <trkpt lat="45.54374" lon="6.04608">
        <ele>910</ele>
        <time>2021-06-27T14:21:23.591Z</time>
      </trkpt>
      <trkpt lat="45.54374" lon="6.04608">
        <ele>910</ele>
        <time>2021-06-27T14:21:24.591Z</time>
      </trkpt>
      <trkpt lat="45.54375" lon="6.04607">
        <ele>909</ele>
        <time>2021-06-27T14:21:25.591Z</time>
      </trkpt>
      <trkpt lat="45.54375" lon="6.04607">
        <ele>909</ele>
        <time>2021-06-27T14:21:26.591Z</time>
      </trkpt>
      <trkpt lat="45.54376" lon="6.04606">
        <ele>909</ele>
        <time>2021-06-27T14:21:27.590Z</time>
      </trkpt>
      <trkpt lat="45.54376" lon="6.04604">
        <ele>909</ele>
        <time>2021-06-27T14:21:28.591Z</time>
      </trkpt>
      <trkpt lat="45.54377" lon="6.04603">
        <ele>909</ele>
        <time>2021-06-27T14:21:29.591Z</time>
      </trkpt>
      <trkpt lat="45.54377" lon="6.04602">
        <ele>909</ele>
        <time>2021-06-27T14:21:30.591Z</time>
      </trkpt>
      <trkpt lat="45.54378" lon="6.04601">
        <ele>908</ele>
        <time>2021-06-27T14:21:31.591Z</time>
      </trkpt>
      <trkpt lat="45.54378" lon="6.046">
        <ele>908</ele>
        <time>2021-06-27T14:21:32.590Z</time>
      </trkpt>
      <trkpt lat="45.54379" lon="6.04599">
        <ele>908</ele>
        <time>2021-06-27T14:21:33.591Z</time>
      </trkpt>
      <trkpt lat="45.54379" lon="6.04598">
        <ele>907</ele>
        <time>2021-06-27T14:21:34.590Z</time>
      </trkpt>
      <trkpt lat="45.5438" lon="6.04597">
        <ele>907</ele>
        <time>2021-06-27T14:21:35.590Z</time>
      </trkpt>
      <trkpt lat="45.54381" lon="6.04596">
        <ele>907</ele>
        <time>2021-06-27T14:21:36.591Z</time>
      </trkpt>
      <trkpt lat="45.54381" lon="6.04594">
        <ele>907</ele>
        <time>2021-06-27T14:21:37.591Z</time>
      </trkpt>
      <trkpt lat="45.54381" lon="6.04593">
        <ele>907</ele>
        <time>2021-06-27T14:21:38.591Z</time>
      </trkpt>
      <trkpt lat="45.54382" lon="6.04592">
        <ele>907</ele>
        <time>2021-06-27T14:21:39.591Z</time>
      </trkpt>
      <trkpt lat="45.54382" lon="6.04591">
        <ele>907</ele>
        <time>2021-06-27T14:21:40.591Z</time>
      </trkpt>
      <trkpt lat="45.54383" lon="6.04589">
        <ele>907</ele>
        <time>2021-06-27T14:21:41.590Z</time>
      </trkpt>
      <trkpt lat="45.54383" lon="6.04588">
        <ele>907</ele>
        <time>2021-06-27T14:21:42.591Z</time>
      </trkpt>
      <trkpt lat="45.54383" lon="6.04587">
        <ele>907</ele>
        <time>2021-06-27T14:21:43.591Z</time>
      </trkpt>
      <trkpt lat="45.54384" lon="6.04586">
        <ele>906</ele>
        <time>2021-06-27T14:21:44.591Z</time>
      </trkpt>
      <trkpt lat="45.54384" lon="6.04585">
        <ele>906</ele>
        <time>2021-06-27T14:21:45.591Z</time>
      </trkpt>
      <trkpt lat="45.54385" lon="6.04584">
        <ele>905</ele>
        <time>2021-06-27T14:21:46.590Z</time>
      </trkpt>
      <trkpt lat="45.54386" lon="6.04583">
        <ele>905</ele>
        <time>2021-06-27T14:21:47.591Z</time>
      </trkpt>
      <trkpt lat="45.54387" lon="6.04582">
        <ele>905</ele>
        <time>2021-06-27T14:21:48.591Z</time>
      </trkpt>
      <trkpt lat="45.54388" lon="6.04581">
        <ele>904</ele>
        <time>2021-06-27T14:21:49.591Z</time>
      </trkpt>
      <trkpt lat="45.54388" lon="6.0458">
        <ele>904</ele>
        <time>2021-06-27T14:21:50.591Z</time>
      </trkpt>
      <trkpt lat="45.54389" lon="6.04579">
        <ele>903</ele>
        <time>2021-06-27T14:21:51.591Z</time>
      </trkpt>
      <trkpt lat="45.54389" lon="6.04578">
        <ele>903</ele>
        <time>2021-06-27T14:21:52.591Z</time>
      </trkpt>
      <trkpt lat="45.54389" lon="6.04576">
        <ele>903</ele>
        <time>2021-06-27T14:21:53.591Z</time>
      </trkpt>
      <trkpt lat="45.54389" lon="6.04575">
        <ele>903</ele>
        <time>2021-06-27T14:21:54.591Z</time>
      </trkpt>
      <trkpt lat="45.5439" lon="6.04573">
        <ele>903</ele>
        <time>2021-06-27T14:21:55.591Z</time>
      </trkpt>
      <trkpt lat="45.5439" lon="6.04571">
        <ele>903</ele>
        <time>2021-06-27T14:21:56.591Z</time>
      </trkpt>
      <trkpt lat="45.5439" lon="6.0457">
        <ele>902</ele>
        <time>2021-06-27T14:21:57.591Z</time>
      </trkpt>
      <trkpt lat="45.54391" lon="6.04568">
        <ele>902</ele>
        <time>2021-06-27T14:21:58.590Z</time>
      </trkpt>
      <trkpt lat="45.54391" lon="6.04566">
        <ele>902</ele>
        <time>2021-06-27T14:21:59.590Z</time>
      </trkpt>
      <trkpt lat="45.54392" lon="6.04565">
        <ele>901</ele>
        <time>2021-06-27T14:22:00.590Z</time>
      </trkpt>
      <trkpt lat="45.54393" lon="6.04563">
        <ele>901</ele>
        <time>2021-06-27T14:22:01.591Z</time>
      </trkpt>
      <trkpt lat="45.54393" lon="6.04562">
        <ele>901</ele>
        <time>2021-06-27T14:22:02.591Z</time>
      </trkpt>
      <trkpt lat="45.54394" lon="6.04561">
        <ele>900</ele>
        <time>2021-06-27T14:22:03.591Z</time>
      </trkpt>
      <trkpt lat="45.54395" lon="6.04558">
        <ele>900</ele>
        <time>2021-06-27T14:22:04.591Z</time>
      </trkpt>
      <trkpt lat="45.54395" lon="6.04557">
        <ele>900</ele>
        <time>2021-06-27T14:22:05.591Z</time>
      </trkpt>
      <trkpt lat="45.54396" lon="6.04555">
        <ele>900</ele>
        <time>2021-06-27T14:22:06.591Z</time>
      </trkpt>
      <trkpt lat="45.54396" lon="6.04554">
        <ele>900</ele>
        <time>2021-06-27T14:22:07.590Z</time>
      </trkpt>
      <trkpt lat="45.54397" lon="6.04552">
        <ele>900</ele>
        <time>2021-06-27T14:22:08.591Z</time>
      </trkpt>
      <trkpt lat="45.54397" lon="6.04551">
        <ele>899</ele>
        <time>2021-06-27T14:22:09.591Z</time>
      </trkpt>
      <trkpt lat="45.54398" lon="6.0455">
        <ele>899</ele>
        <time>2021-06-27T14:22:10.591Z</time>
      </trkpt>
      <trkpt lat="45.54399" lon="6.04548">
        <ele>899</ele>
        <time>2021-06-27T14:22:11.591Z</time>
      </trkpt>
      <trkpt lat="45.54399" lon="6.04546">
        <ele>898</ele>
        <time>2021-06-27T14:22:12.590Z</time>
      </trkpt>
      <trkpt lat="45.54399" lon="6.04545">
        <ele>898</ele>
        <time>2021-06-27T14:22:13.591Z</time>
      </trkpt>
      <trkpt lat="45.544" lon="6.04543">
        <ele>898</ele>
        <time>2021-06-27T14:22:14.591Z</time>
      </trkpt>
      <trkpt lat="45.544" lon="6.04541">
        <ele>898</ele>
        <time>2021-06-27T14:22:15.591Z</time>
      </trkpt>
      <trkpt lat="45.54401" lon="6.0454">
        <ele>898</ele>
        <time>2021-06-27T14:22:16.590Z</time>
      </trkpt>
      <trkpt lat="45.54401" lon="6.04539">
        <ele>897</ele>
        <time>2021-06-27T14:22:17.591Z</time>
      </trkpt>
      <trkpt lat="45.54402" lon="6.04536">
        <ele>897</ele>
        <time>2021-06-27T14:22:18.591Z</time>
      </trkpt>
      <trkpt lat="45.54402" lon="6.04535">
        <ele>897</ele>
        <time>2021-06-27T14:22:19.590Z</time>
      </trkpt>
      <trkpt lat="45.54402" lon="6.04533">
        <ele>897</ele>
        <time>2021-06-27T14:22:20.591Z</time>
      </trkpt>
      <trkpt lat="45.54402" lon="6.04532">
        <ele>897</ele>
        <time>2021-06-27T14:22:21.591Z</time>
      </trkpt>
      <trkpt lat="45.54402" lon="6.0453">
        <ele>897</ele>
        <time>2021-06-27T14:22:22.591Z</time>
      </trkpt>
      <trkpt lat="45.54401" lon="6.04528">
        <ele>897</ele>
        <time>2021-06-27T14:22:23.591Z</time>
      </trkpt>
      <trkpt lat="45.54401" lon="6.04527">
        <ele>897</ele>
        <time>2021-06-27T14:22:24.591Z</time>
      </trkpt>
      <trkpt lat="45.54401" lon="6.04526">
        <ele>897</ele>
        <time>2021-06-27T14:22:25.591Z</time>
      </trkpt>
      <trkpt lat="45.54401" lon="6.04524">
        <ele>897</ele>
        <time>2021-06-27T14:22:26.591Z</time>
      </trkpt>
      <trkpt lat="45.54401" lon="6.04523">
        <ele>897</ele>
        <time>2021-06-27T14:22:27.591Z</time>
      </trkpt>
      <trkpt lat="45.544" lon="6.04522">
        <ele>896</ele>
        <time>2021-06-27T14:22:28.591Z</time>
      </trkpt>
      <trkpt lat="45.544" lon="6.0452">
        <ele>896</ele>
        <time>2021-06-27T14:22:29.591Z</time>
      </trkpt>
      <trkpt lat="45.54399" lon="6.04518">
        <ele>896</ele>
        <time>2021-06-27T14:22:30.591Z</time>
      </trkpt>
      <trkpt lat="45.54398" lon="6.04517">
        <ele>896</ele>
        <time>2021-06-27T14:22:31.590Z</time>
      </trkpt>
      <trkpt lat="45.54397" lon="6.04515">
        <ele>896</ele>
        <time>2021-06-27T14:22:32.590Z</time>
      </trkpt>
      <trkpt lat="45.54396" lon="6.04514">
        <ele>896</ele>
        <time>2021-06-27T14:22:33.590Z</time>
      </trkpt>
      <trkpt lat="45.54395" lon="6.04513">
        <ele>896</ele>
        <time>2021-06-27T14:22:34.591Z</time>
      </trkpt>
      <trkpt lat="45.54394" lon="6.04511">
        <ele>896</ele>
        <time>2021-06-27T14:22:35.591Z</time>
      </trkpt>
      <trkpt lat="45.54393" lon="6.04511">
        <ele>896</ele>
        <time>2021-06-27T14:22:36.591Z</time>
      </trkpt>
      <trkpt lat="45.54392" lon="6.0451">
        <ele>896</ele>
        <time>2021-06-27T14:22:37.591Z</time>
      </trkpt>
      <trkpt lat="45.54391" lon="6.04509">
        <ele>896</ele>
        <time>2021-06-27T14:22:38.591Z</time>
      </trkpt>
      <trkpt lat="45.5439" lon="6.04509">
        <ele>897</ele>
        <time>2021-06-27T14:22:39.591Z</time>
      </trkpt>
      <trkpt lat="45.5439" lon="6.04508">
        <ele>897</ele>
        <time>2021-06-27T14:22:40.591Z</time>
      </trkpt>
      <trkpt lat="45.54389" lon="6.04507">
        <ele>897</ele>
        <time>2021-06-27T14:22:41.591Z</time>
      </trkpt>
      <trkpt lat="45.54388" lon="6.04505">
        <ele>897</ele>
        <time>2021-06-27T14:22:42.591Z</time>
      </trkpt>
      <trkpt lat="45.54387" lon="6.04503">
        <ele>897</ele>
        <time>2021-06-27T14:22:43.591Z</time>
      </trkpt>
      <trkpt lat="45.54385" lon="6.04502">
        <ele>896</ele>
        <time>2021-06-27T14:22:44.591Z</time>
      </trkpt>
      <trkpt lat="45.54384" lon="6.045">
        <ele>896</ele>
        <time>2021-06-27T14:22:45.591Z</time>
      </trkpt>
      <trkpt lat="45.54383" lon="6.04499">
        <ele>896</ele>
        <time>2021-06-27T14:22:46.591Z</time>
      </trkpt>
      <trkpt lat="45.54382" lon="6.04498">
        <ele>896</ele>
        <time>2021-06-27T14:22:47.591Z</time>
      </trkpt>
      <trkpt lat="45.54381" lon="6.04497">
        <ele>896</ele>
        <time>2021-06-27T14:22:48.591Z</time>
      </trkpt>
      <trkpt lat="45.54379" lon="6.04496">
        <ele>897</ele>
        <time>2021-06-27T14:22:49.591Z</time>
      </trkpt>
      <trkpt lat="45.54378" lon="6.04495">
        <ele>897</ele>
        <time>2021-06-27T14:22:50.591Z</time>
      </trkpt>
      <trkpt lat="45.54377" lon="6.04494">
        <ele>897</ele>
        <time>2021-06-27T14:22:51.591Z</time>
      </trkpt>
      <trkpt lat="45.54376" lon="6.04493">
        <ele>897</ele>
        <time>2021-06-27T14:22:52.591Z</time>
      </trkpt>
      <trkpt lat="45.54375" lon="6.04492">
        <ele>898</ele>
        <time>2021-06-27T14:22:53.591Z</time>
      </trkpt>
      <trkpt lat="45.54375" lon="6.04491">
        <ele>898</ele>
        <time>2021-06-27T14:22:54.591Z</time>
      </trkpt>
      <trkpt lat="45.54374" lon="6.0449">
        <ele>898</ele>
        <time>2021-06-27T14:22:55.591Z</time>
      </trkpt>
      <trkpt lat="45.54373" lon="6.04488">
        <ele>898</ele>
        <time>2021-06-27T14:22:56.591Z</time>
      </trkpt>
      <trkpt lat="45.54372" lon="6.04487">
        <ele>898</ele>
        <time>2021-06-27T14:22:57.591Z</time>
      </trkpt>
      <trkpt lat="45.54371" lon="6.04486">
        <ele>898</ele>
        <time>2021-06-27T14:22:58.590Z</time>
      </trkpt>
      <trkpt lat="45.54371" lon="6.04485">
        <ele>898</ele>
        <time>2021-06-27T14:22:59.590Z</time>
      </trkpt>
      <trkpt lat="45.5437" lon="6.04483">
        <ele>898</ele>
        <time>2021-06-27T14:23:00.591Z</time>
      </trkpt>
      <trkpt lat="45.54369" lon="6.04482">
        <ele>898</ele>
        <time>2021-06-27T14:23:01.591Z</time>
      </trkpt>
      <trkpt lat="45.54367" lon="6.0448">
        <ele>898</ele>
        <time>2021-06-27T14:23:02.591Z</time>
      </trkpt>
      <trkpt lat="45.54366" lon="6.04478">
        <ele>898</ele>
        <time>2021-06-27T14:23:03.591Z</time>
      </trkpt>
      <trkpt lat="45.54365" lon="6.04477">
        <ele>898</ele>
        <time>2021-06-27T14:23:04.591Z</time>
      </trkpt>
      <trkpt lat="45.54364" lon="6.04475">
        <ele>898</ele>
        <time>2021-06-27T14:23:05.591Z</time>
      </trkpt>
      <trkpt lat="45.54363" lon="6.04474">
        <ele>898</ele>
        <time>2021-06-27T14:23:06.591Z</time>
      </trkpt>
      <trkpt lat="45.54362" lon="6.04472">
        <ele>898</ele>
        <time>2021-06-27T14:23:07.591Z</time>
      </trkpt>
      <trkpt lat="45.54361" lon="6.0447">
        <ele>898</ele>
        <time>2021-06-27T14:23:08.591Z</time>
      </trkpt>
      <trkpt lat="45.5436" lon="6.04469">
        <ele>898</ele>
        <time>2021-06-27T14:23:09.591Z</time>
      </trkpt>
      <trkpt lat="45.5436" lon="6.04467">
        <ele>898</ele>
        <time>2021-06-27T14:23:10.591Z</time>
      </trkpt>
      <trkpt lat="45.54359" lon="6.04466">
        <ele>898</ele>
        <time>2021-06-27T14:23:11.591Z</time>
      </trkpt>
      <trkpt lat="45.54359" lon="6.04465">
        <ele>898</ele>
        <time>2021-06-27T14:23:12.591Z</time>
      </trkpt>
      <trkpt lat="45.54358" lon="6.04464">
        <ele>899</ele>
        <time>2021-06-27T14:23:13.591Z</time>
      </trkpt>
      <trkpt lat="45.54358" lon="6.04463">
        <ele>899</ele>
        <time>2021-06-27T14:23:14.591Z</time>
      </trkpt>
      <trkpt lat="45.54357" lon="6.04461">
        <ele>899</ele>
        <time>2021-06-27T14:23:15.591Z</time>
      </trkpt>
      <trkpt lat="45.54357" lon="6.0446">
        <ele>898</ele>
        <time>2021-06-27T14:23:16.591Z</time>
      </trkpt>
      <trkpt lat="45.54356" lon="6.04459">
        <ele>898</ele>
        <time>2021-06-27T14:23:17.591Z</time>
      </trkpt>
      <trkpt lat="45.54356" lon="6.04458">
        <ele>897</ele>
        <time>2021-06-27T14:23:18.591Z</time>
      </trkpt>
      <trkpt lat="45.54355" lon="6.04457">
        <ele>897</ele>
        <time>2021-06-27T14:23:19.591Z</time>
      </trkpt>
      <trkpt lat="45.54355" lon="6.04456">
        <ele>897</ele>
        <time>2021-06-27T14:23:20.590Z</time>
      </trkpt>
      <trkpt lat="45.54354" lon="6.04455">
        <ele>896</ele>
        <time>2021-06-27T14:23:21.590Z</time>
      </trkpt>
      <trkpt lat="45.54353" lon="6.04453">
        <ele>896</ele>
        <time>2021-06-27T14:23:22.591Z</time>
      </trkpt>
      <trkpt lat="45.54353" lon="6.04452">
        <ele>896</ele>
        <time>2021-06-27T14:23:23.591Z</time>
      </trkpt>
      <trkpt lat="45.54351" lon="6.0445">
        <ele>897</ele>
        <time>2021-06-27T14:23:24.591Z</time>
      </trkpt>
      <trkpt lat="45.54351" lon="6.04448">
        <ele>897</ele>
        <time>2021-06-27T14:23:25.591Z</time>
      </trkpt>
      <trkpt lat="45.5435" lon="6.04447">
        <ele>897</ele>
        <time>2021-06-27T14:23:26.591Z</time>
      </trkpt>
      <trkpt lat="45.54349" lon="6.04445">
        <ele>897</ele>
        <time>2021-06-27T14:23:27.591Z</time>
      </trkpt>
      <trkpt lat="45.54349" lon="6.04444">
        <ele>897</ele>
        <time>2021-06-27T14:23:28.590Z</time>
      </trkpt>
      <trkpt lat="45.54348" lon="6.04442">
        <ele>897</ele>
        <time>2021-06-27T14:23:29.591Z</time>
      </trkpt>
      <trkpt lat="45.54348" lon="6.0444">
        <ele>897</ele>
        <time>2021-06-27T14:23:30.591Z</time>
      </trkpt>
      <trkpt lat="45.54347" lon="6.04438">
        <ele>897</ele>
        <time>2021-06-27T14:23:31.591Z</time>
      </trkpt>
      <trkpt lat="45.54347" lon="6.04437">
        <ele>896</ele>
        <time>2021-06-27T14:23:32.591Z</time>
      </trkpt>
      <trkpt lat="45.54347" lon="6.04435">
        <ele>896</ele>
        <time>2021-06-27T14:23:33.591Z</time>
      </trkpt>
      <trkpt lat="45.54346" lon="6.04434">
        <ele>896</ele>
        <time>2021-06-27T14:23:34.591Z</time>
      </trkpt>
      <trkpt lat="45.54346" lon="6.04432">
        <ele>896</ele>
        <time>2021-06-27T14:23:35.591Z</time>
      </trkpt>
      <trkpt lat="45.54345" lon="6.04431">
        <ele>896</ele>
        <time>2021-06-27T14:23:36.591Z</time>
      </trkpt>
      <trkpt lat="45.54345" lon="6.04429">
        <ele>895</ele>
        <time>2021-06-27T14:23:37.591Z</time>
      </trkpt>
      <trkpt lat="45.54344" lon="6.04427">
        <ele>895</ele>
        <time>2021-06-27T14:23:38.591Z</time>
      </trkpt>
      <trkpt lat="45.54344" lon="6.04426">
        <ele>895</ele>
        <time>2021-06-27T14:23:39.591Z</time>
      </trkpt>
      <trkpt lat="45.54344" lon="6.04424">
        <ele>895</ele>
        <time>2021-06-27T14:23:40.591Z</time>
      </trkpt>
      <trkpt lat="45.54343" lon="6.04423">
        <ele>894</ele>
        <time>2021-06-27T14:23:41.591Z</time>
      </trkpt>
      <trkpt lat="45.54343" lon="6.04421">
        <ele>894</ele>
        <time>2021-06-27T14:23:42.591Z</time>
      </trkpt>
      <trkpt lat="45.54343" lon="6.04419">
        <ele>894</ele>
        <time>2021-06-27T14:23:43.591Z</time>
      </trkpt>
      <trkpt lat="45.54342" lon="6.04418">
        <ele>894</ele>
        <time>2021-06-27T14:23:44.591Z</time>
      </trkpt>
      <trkpt lat="45.54341" lon="6.04416">
        <ele>893</ele>
        <time>2021-06-27T14:23:45.591Z</time>
      </trkpt>
      <trkpt lat="45.54341" lon="6.04415">
        <ele>893</ele>
        <time>2021-06-27T14:23:46.591Z</time>
      </trkpt>
      <trkpt lat="45.5434" lon="6.04413">
        <ele>893</ele>
        <time>2021-06-27T14:23:47.591Z</time>
      </trkpt>
      <trkpt lat="45.5434" lon="6.04411">
        <ele>893</ele>
        <time>2021-06-27T14:23:48.591Z</time>
      </trkpt>
      <trkpt lat="45.5434" lon="6.04409">
        <ele>893</ele>
        <time>2021-06-27T14:23:49.590Z</time>
      </trkpt>
      <trkpt lat="45.54339" lon="6.04408">
        <ele>893</ele>
        <time>2021-06-27T14:23:50.591Z</time>
      </trkpt>
      <trkpt lat="45.54338" lon="6.04406">
        <ele>893</ele>
        <time>2021-06-27T14:23:51.591Z</time>
      </trkpt>
      <trkpt lat="45.54338" lon="6.04405">
        <ele>893</ele>
        <time>2021-06-27T14:23:52.591Z</time>
      </trkpt>
      <trkpt lat="45.54336" lon="6.04404">
        <ele>893</ele>
        <time>2021-06-27T14:23:53.591Z</time>
      </trkpt>
      <trkpt lat="45.54335" lon="6.04402">
        <ele>893</ele>
        <time>2021-06-27T14:23:54.591Z</time>
      </trkpt>
      <trkpt lat="45.54334" lon="6.04401">
        <ele>893</ele>
        <time>2021-06-27T14:23:55.591Z</time>
      </trkpt>
      <trkpt lat="45.54333" lon="6.044">
        <ele>893</ele>
        <time>2021-06-27T14:23:56.591Z</time>
      </trkpt>
      <trkpt lat="45.54332" lon="6.04398">
        <ele>893</ele>
        <time>2021-06-27T14:23:57.591Z</time>
      </trkpt>
      <trkpt lat="45.54331" lon="6.04397">
        <ele>893</ele>
        <time>2021-06-27T14:23:58.590Z</time>
      </trkpt>
      <trkpt lat="45.54329" lon="6.04396">
        <ele>892</ele>
        <time>2021-06-27T14:23:59.591Z</time>
      </trkpt>
      <trkpt lat="45.54328" lon="6.04395">
        <ele>892</ele>
        <time>2021-06-27T14:24:00.590Z</time>
      </trkpt>
      <trkpt lat="45.54328" lon="6.04394">
        <ele>892</ele>
        <time>2021-06-27T14:24:01.590Z</time>
      </trkpt>
      <trkpt lat="45.54327" lon="6.04393">
        <ele>892</ele>
        <time>2021-06-27T14:24:02.591Z</time>
      </trkpt>
      <trkpt lat="45.54326" lon="6.04392">
        <ele>891</ele>
        <time>2021-06-27T14:24:03.591Z</time>
      </trkpt>
      <trkpt lat="45.54326" lon="6.04391">
        <ele>891</ele>
        <time>2021-06-27T14:24:04.590Z</time>
      </trkpt>
      <trkpt lat="45.54325" lon="6.04391">
        <ele>891</ele>
        <time>2021-06-27T14:24:05.591Z</time>
      </trkpt>
      <trkpt lat="45.54325" lon="6.0439">
        <ele>891</ele>
        <time>2021-06-27T14:24:06.591Z</time>
      </trkpt>
      <trkpt lat="45.54324" lon="6.04389">
        <ele>891</ele>
        <time>2021-06-27T14:24:07.590Z</time>
      </trkpt>
      <trkpt lat="45.54324" lon="6.04389">
        <ele>891</ele>
        <time>2021-06-27T14:24:08.591Z</time>
      </trkpt>
      <trkpt lat="45.54323" lon="6.04388">
        <ele>890</ele>
        <time>2021-06-27T14:24:09.591Z</time>
      </trkpt>
      <trkpt lat="45.54323" lon="6.04388">
        <ele>890</ele>
        <time>2021-06-27T14:24:10.590Z</time>
      </trkpt>
      <trkpt lat="45.54323" lon="6.04388">
        <ele>890</ele>
        <time>2021-06-27T14:24:11.591Z</time>
      </trkpt>
      <trkpt lat="45.54323" lon="6.04387">
        <ele>890</ele>
        <time>2021-06-27T14:24:12.591Z</time>
      </trkpt>
      <trkpt lat="45.54323" lon="6.04387">
        <ele>890</ele>
        <time>2021-06-27T14:24:13.591Z</time>
      </trkpt>
      <trkpt lat="45.54323" lon="6.04386">
        <ele>890</ele>
        <time>2021-06-27T14:24:14.591Z</time>
      </trkpt>
      <trkpt lat="45.54323" lon="6.04386">
        <ele>890</ele>
        <time>2021-06-27T14:24:15.591Z</time>
      </trkpt>
      <trkpt lat="45.54323" lon="6.04386">
        <ele>890</ele>
        <time>2021-06-27T14:24:16.591Z</time>
      </trkpt>
      <trkpt lat="45.54322" lon="6.04385">
        <ele>890</ele>
        <time>2021-06-27T14:24:17.591Z</time>
      </trkpt>
      <trkpt lat="45.54322" lon="6.04385">
        <ele>890</ele>
        <time>2021-06-27T14:24:18.591Z</time>
      </trkpt>
      <trkpt lat="45.54321" lon="6.04385">
        <ele>890</ele>
        <time>2021-06-27T14:24:19.591Z</time>
      </trkpt>
      <trkpt lat="45.5432" lon="6.04384">
        <ele>890</ele>
        <time>2021-06-27T14:24:20.591Z</time>
      </trkpt>
      <trkpt lat="45.54319" lon="6.04384">
        <ele>890</ele>
        <time>2021-06-27T14:24:21.590Z</time>
      </trkpt>
      <trkpt lat="45.54319" lon="6.04383">
        <ele>891</ele>
        <time>2021-06-27T14:24:22.591Z</time>
      </trkpt>
      <trkpt lat="45.54318" lon="6.04383">
        <ele>890</ele>
        <time>2021-06-27T14:24:23.591Z</time>
      </trkpt>
      <trkpt lat="45.54318" lon="6.04382">
        <ele>890</ele>
        <time>2021-06-27T14:24:24.590Z</time>
      </trkpt>
      <trkpt lat="45.54317" lon="6.04381">
        <ele>890</ele>
        <time>2021-06-27T14:24:25.591Z</time>
      </trkpt>
      <trkpt lat="45.54316" lon="6.04381">
        <ele>889</ele>
        <time>2021-06-27T14:24:26.591Z</time>
      </trkpt>
      <trkpt lat="45.54315" lon="6.0438">
        <ele>889</ele>
        <time>2021-06-27T14:24:27.591Z</time>
      </trkpt>
      <trkpt lat="45.54314" lon="6.04379">
        <ele>889</ele>
        <time>2021-06-27T14:24:28.591Z</time>
      </trkpt>
      <trkpt lat="45.54313" lon="6.04378">
        <ele>889</ele>
        <time>2021-06-27T14:24:29.590Z</time>
      </trkpt>
      <trkpt lat="45.54313" lon="6.04376">
        <ele>889</ele>
        <time>2021-06-27T14:24:30.591Z</time>
      </trkpt>
      <trkpt lat="45.54312" lon="6.04375">
        <ele>889</ele>
        <time>2021-06-27T14:24:31.591Z</time>
      </trkpt>
      <trkpt lat="45.54311" lon="6.04374">
        <ele>890</ele>
        <time>2021-06-27T14:24:32.591Z</time>
      </trkpt>
      <trkpt lat="45.5431" lon="6.04373">
        <ele>890</ele>
        <time>2021-06-27T14:24:33.591Z</time>
      </trkpt>
      <trkpt lat="45.54309" lon="6.04373">
        <ele>890</ele>
        <time>2021-06-27T14:24:34.590Z</time>
      </trkpt>
      <trkpt lat="45.54308" lon="6.04371">
        <ele>890</ele>
        <time>2021-06-27T14:24:35.591Z</time>
      </trkpt>
      <trkpt lat="45.54308" lon="6.0437">
        <ele>890</ele>
        <time>2021-06-27T14:24:36.590Z</time>
      </trkpt>
      <trkpt lat="45.54307" lon="6.04369">
        <ele>890</ele>
        <time>2021-06-27T14:24:37.590Z</time>
      </trkpt>
      <trkpt lat="45.54306" lon="6.04368">
        <ele>890</ele>
        <time>2021-06-27T14:24:38.591Z</time>
      </trkpt>
      <trkpt lat="45.54305" lon="6.04368">
        <ele>890</ele>
        <time>2021-06-27T14:24:39.590Z</time>
      </trkpt>
      <trkpt lat="45.54304" lon="6.04367">
        <ele>890</ele>
        <time>2021-06-27T14:24:40.591Z</time>
      </trkpt>
      <trkpt lat="45.54303" lon="6.04365">
        <ele>890</ele>
        <time>2021-06-27T14:24:41.591Z</time>
      </trkpt>
      <trkpt lat="45.54302" lon="6.04364">
        <ele>890</ele>
        <time>2021-06-27T14:24:42.591Z</time>
      </trkpt>
      <trkpt lat="45.54301" lon="6.04363">
        <ele>890</ele>
        <time>2021-06-27T14:24:43.591Z</time>
      </trkpt>
      <trkpt lat="45.543" lon="6.04363">
        <ele>890</ele>
        <time>2021-06-27T14:24:44.591Z</time>
      </trkpt>
      <trkpt lat="45.54299" lon="6.04362">
        <ele>890</ele>
        <time>2021-06-27T14:24:45.591Z</time>
      </trkpt>
      <trkpt lat="45.54298" lon="6.04361">
        <ele>890</ele>
        <time>2021-06-27T14:24:46.591Z</time>
      </trkpt>
      <trkpt lat="45.54297" lon="6.0436">
        <ele>890</ele>
        <time>2021-06-27T14:24:47.590Z</time>
      </trkpt>
      <trkpt lat="45.54296" lon="6.04359">
        <ele>890</ele>
        <time>2021-06-27T14:24:48.590Z</time>
      </trkpt>
      <trkpt lat="45.54295" lon="6.04359">
        <ele>890</ele>
        <time>2021-06-27T14:24:49.591Z</time>
      </trkpt>
      <trkpt lat="45.54293" lon="6.04359">
        <ele>890</ele>
        <time>2021-06-27T14:24:50.590Z</time>
      </trkpt>
      <trkpt lat="45.54292" lon="6.04359">
        <ele>890</ele>
        <time>2021-06-27T14:24:51.590Z</time>
      </trkpt>
      <trkpt lat="45.54291" lon="6.0436">
        <ele>890</ele>
        <time>2021-06-27T14:24:52.590Z</time>
      </trkpt>
      <trkpt lat="45.5429" lon="6.0436">
        <ele>891</ele>
        <time>2021-06-27T14:24:53.590Z</time>
      </trkpt>
      <trkpt lat="45.54288" lon="6.04361">
        <ele>891</ele>
        <time>2021-06-27T14:24:54.590Z</time>
      </trkpt>
      <trkpt lat="45.54287" lon="6.04362">
        <ele>892</ele>
        <time>2021-06-27T14:24:55.591Z</time>
      </trkpt>
      <trkpt lat="45.54286" lon="6.04362">
        <ele>892</ele>
        <time>2021-06-27T14:24:56.591Z</time>
      </trkpt>
      <trkpt lat="45.54285" lon="6.04363">
        <ele>891</ele>
        <time>2021-06-27T14:24:57.591Z</time>
      </trkpt>
      <trkpt lat="45.54284" lon="6.04364">
        <ele>892</ele>
        <time>2021-06-27T14:24:58.591Z</time>
      </trkpt>
      <trkpt lat="45.54283" lon="6.04365">
        <ele>892</ele>
        <time>2021-06-27T14:24:59.591Z</time>
      </trkpt>
      <trkpt lat="45.54282" lon="6.04366">
        <ele>892</ele>
        <time>2021-06-27T14:25:00.591Z</time>
      </trkpt>
      <trkpt lat="45.5428" lon="6.04366">
        <ele>892</ele>
        <time>2021-06-27T14:25:01.591Z</time>
      </trkpt>
    </trkseg>
  </trk>
</gpx>